<?xml version='1.0' encoding='UTF-8'?><gpx version="1.1" creator="JPX - https://github.com/jenetics/jpx" xmlns="http://www.topografix.com/GPX/1/1"><trk><trkseg><trkpt lat="43.09525134051132" lon="-0.05204837692113542"><ele>397.00000000000006</ele><time>2026-05-06T08:47:56Z</time></trkpt><trkpt lat="43.09521170936822" lon="-0.05212304885165855"><ele>397.0</ele><time>2026-05-06T08:47:58Z</time></trkpt><trkpt lat="43.09516108111064" lon="-0.05221256493863471"><ele>397.0</ele><time>2026-05-06T08:48:01Z</time></trkpt><trkpt lat="43.09509490367243" lon="-0.052270677083384134"><ele>397.0</ele><time>2026-05-06T08:48:04Z</time></trkpt><trkpt lat="43.095012020934" lon="-0.05227561492514813"><ele>397.00000000000006</ele><time>2026-05-06T08:48:07Z</time></trkpt><trkpt lat="43.09494421214843" lon="-0.052296872759606726"><ele>397.0</ele><time>2026-05-06T08:48:09Z</time></trkpt><trkpt lat="43.09485752942025" lon="-0.05233697385800129"><ele>396.6666666666667</ele><time>2026-05-06T08:48:11Z</time></trkpt><trkpt lat="43.09475534078664" lon="-0.05238632312651462"><ele>396.33333333333337</ele><time>2026-05-06T08:48:13Z</time></trkpt><trkpt lat="43.09464109705392" lon="-0.05244803619475956"><ele>396.0</ele><time>2026-05-06T08:48:15Z</time></trkpt><trkpt lat="43.09457681613735" lon="-0.0524783948303822"><ele>395.66666666666663</ele><time>2026-05-06T08:48:16Z</time></trkpt><trkpt lat="43.09450999907051" lon="-0.05251033553680137"><ele>395.3333333333333</ele><time>2026-05-06T08:48:17Z</time></trkpt><trkpt lat="43.09444404264773" lon="-0.05254312964401631"><ele>395.0</ele><time>2026-05-06T08:48:18Z</time></trkpt><trkpt lat="43.09437886279212" lon="-0.0525816253485981"><ele>393.57142857142856</ele><time>2026-05-06T08:48:19Z</time></trkpt><trkpt lat="43.09431563001657" lon="-0.052620574223146255"><ele>392.14285714285717</ele><time>2026-05-06T08:48:20Z</time></trkpt><trkpt lat="43.0942517969268" lon="-0.05266371460030113"><ele>390.7142857142857</ele><time>2026-05-06T08:48:21Z</time></trkpt><trkpt lat="43.09419195512493" lon="-0.052704532567236534"><ele>389.2857142857143</ele><time>2026-05-06T08:48:22Z</time></trkpt><trkpt lat="43.0941425989234" lon="-0.05278029178366339"><ele>387.8571428571429</ele><time>2026-05-06T08:48:23Z</time></trkpt><trkpt lat="43.09408399689349" lon="-0.05281584829182532"><ele>386.42857142857144</ele><time>2026-05-06T08:48:24Z</time></trkpt><trkpt lat="43.0940215230983" lon="-0.05285375464008507"><ele>385.0</ele><time>2026-05-06T08:48:25Z</time></trkpt><trkpt lat="43.093917338466596" lon="-0.05294948215980446"><ele>385.0</ele><time>2026-05-06T08:48:27Z</time></trkpt><trkpt lat="43.093822281757774" lon="-0.053047088492388525"><ele>385.0</ele><time>2026-05-06T08:48:29Z</time></trkpt><trkpt lat="43.09371439710582" lon="-0.05311429668431572"><ele>385.0</ele><time>2026-05-06T08:48:31Z</time></trkpt><trkpt lat="43.09362965798602" lon="-0.05321328895413435"><ele>385.0</ele><time>2026-05-06T08:48:33Z</time></trkpt><trkpt lat="43.093544371342844" lon="-0.05330367945229019"><ele>384.2</ele><time>2026-05-06T08:48:35Z</time></trkpt><trkpt lat="43.0934640535977" lon="-0.05339889692029036"><ele>383.4</ele><time>2026-05-06T08:48:37Z</time></trkpt><trkpt lat="43.093389014289464" lon="-0.05349804613093214"><ele>382.6</ele><time>2026-05-06T08:48:39Z</time></trkpt><trkpt lat="43.093307056508316" lon="-0.05358458556617522"><ele>381.8</ele><time>2026-05-06T08:48:41Z</time></trkpt><trkpt lat="43.093226521953184" lon="-0.053677736788207704"><ele>381.0</ele><time>2026-05-06T08:48:43Z</time></trkpt><trkpt lat="43.09314850955339" lon="-0.053771232824672714"><ele>380.8</ele><time>2026-05-06T08:48:45Z</time></trkpt><trkpt lat="43.09306907653853" lon="-0.0538573764655895"><ele>380.6</ele><time>2026-05-06T08:48:47Z</time></trkpt><trkpt lat="43.09298729527999" lon="-0.05394204076712745"><ele>380.4</ele><time>2026-05-06T08:48:49Z</time></trkpt><trkpt lat="43.09290490795735" lon="-0.0540288225876698"><ele>380.2</ele><time>2026-05-06T08:48:51Z</time></trkpt><trkpt lat="43.092825325251674" lon="-0.054111182983742234"><ele>380.0</ele><time>2026-05-06T08:48:53Z</time></trkpt><trkpt lat="43.0927437628176" lon="-0.05419882767593038"><ele>380.0</ele><time>2026-05-06T08:48:55Z</time></trkpt><trkpt lat="43.09266636348717" lon="-0.054283636700557095"><ele>380.0</ele><time>2026-05-06T08:48:57Z</time></trkpt><trkpt lat="43.09258880225539" lon="-0.054366161612953094"><ele>380.0</ele><time>2026-05-06T08:48:59Z</time></trkpt><trkpt lat="43.092513498560095" lon="-0.054450061785618425"><ele>380.0</ele><time>2026-05-06T08:49:01Z</time></trkpt><trkpt lat="43.092436606519854" lon="-0.05453619179061774"><ele>380.0</ele><time>2026-05-06T08:49:03Z</time></trkpt><trkpt lat="43.092358389234946" lon="-0.054621094137228904"><ele>380.8</ele><time>2026-05-06T08:49:05Z</time></trkpt><trkpt lat="43.09228442009749" lon="-0.05470510333420615"><ele>381.6</ele><time>2026-05-06T08:49:07Z</time></trkpt><trkpt lat="43.09221081933274" lon="-0.05478775377958851"><ele>382.4</ele><time>2026-05-06T08:49:09Z</time></trkpt><trkpt lat="43.09213496715069" lon="-0.054856114967991705"><ele>383.2</ele><time>2026-05-06T08:49:11Z</time></trkpt><trkpt lat="43.09205738058848" lon="-0.05491929414634552"><ele>384.0</ele><time>2026-05-06T08:49:13Z</time></trkpt><trkpt lat="43.09197663277267" lon="-0.0549527751050862"><ele>384.0</ele><time>2026-05-06T08:49:15Z</time></trkpt><trkpt lat="43.09189146228029" lon="-0.054960159391787076"><ele>384.0</ele><time>2026-05-06T08:49:16.999Z</time></trkpt><trkpt lat="43.09181437689118" lon="-0.055015518837365884"><ele>384.0</ele><time>2026-05-06T08:49:18.999Z</time></trkpt><trkpt lat="43.09175711948867" lon="-0.05490832467286394"><ele>384.0</ele><time>2026-05-06T08:49:19.999Z</time></trkpt><trkpt lat="43.091657982981275" lon="-0.05484705872454284"><ele>384.0</ele><time>2026-05-06T08:49:21.999Z</time></trkpt><trkpt lat="43.091556309401696" lon="-0.05479456490248158"><ele>383.25</ele><time>2026-05-06T08:49:23.999Z</time></trkpt><trkpt lat="43.091451193962406" lon="-0.05473054769651746"><ele>382.5</ele><time>2026-05-06T08:49:25.999Z</time></trkpt><trkpt lat="43.091348588247335" lon="-0.05466128040496337"><ele>381.75</ele><time>2026-05-06T08:49:27.999Z</time></trkpt><trkpt lat="43.0912417003044" lon="-0.05461164208226833"><ele>381.0</ele><time>2026-05-06T08:49:29.999Z</time></trkpt><trkpt lat="43.09113749400727" lon="-0.05454793616734188"><ele>381.0</ele><time>2026-05-06T08:49:31.999Z</time></trkpt><trkpt lat="43.091032235101395" lon="-0.054484305422838095"><ele>381.0</ele><time>2026-05-06T08:49:33.999Z</time></trkpt><trkpt lat="43.09093225432694" lon="-0.05442338605027894"><ele>381.0</ele><time>2026-05-06T08:49:35.999Z</time></trkpt><trkpt lat="43.09082620563947" lon="-0.05437090704363013"><ele>381.0</ele><time>2026-05-06T08:49:37.999Z</time></trkpt><trkpt lat="43.09072275272302" lon="-0.05430988983692368"><ele>381.20000000000005</ele><time>2026-05-06T08:49:39.999Z</time></trkpt><trkpt lat="43.0906223521035" lon="-0.05424829029198085"><ele>381.40000000000003</ele><time>2026-05-06T08:49:41.999Z</time></trkpt><trkpt lat="43.09051631666119" lon="-0.054189864576441066"><ele>381.6</ele><time>2026-05-06T08:49:44Z</time></trkpt><trkpt lat="43.09041528877995" lon="-0.05412903715150474"><ele>381.8</ele><time>2026-05-06T08:49:46Z</time></trkpt><trkpt lat="43.090311772240455" lon="-0.05407152365593617"><ele>382.0</ele><time>2026-05-06T08:49:48Z</time></trkpt><trkpt lat="43.090207084579625" lon="-0.05401217351233667"><ele>382.0</ele><time>2026-05-06T08:49:50Z</time></trkpt><trkpt lat="43.0901077086451" lon="-0.0539495140307561"><ele>382.0</ele><time>2026-05-06T08:49:52Z</time></trkpt><trkpt lat="43.09000522393017" lon="-0.053890303953563715"><ele>382.0</ele><time>2026-05-06T08:49:54Z</time></trkpt><trkpt lat="43.08991500416641" lon="-0.053815128784272866"><ele>382.0</ele><time>2026-05-06T08:49:56Z</time></trkpt><trkpt lat="43.089855126967" lon="-0.053692797791380094"><ele>382.0</ele><time>2026-05-06T08:49:58Z</time></trkpt><trkpt lat="43.08981200594804" lon="-0.05355179363491866"><ele>381.40000000000003</ele><time>2026-05-06T08:50:00Z</time></trkpt><trkpt lat="43.089776545326615" lon="-0.05341405006032998"><ele>380.8</ele><time>2026-05-06T08:50:02Z</time></trkpt><trkpt lat="43.08973669730393" lon="-0.05327723727291424"><ele>380.2</ele><time>2026-05-06T08:50:04Z</time></trkpt><trkpt lat="43.08970738491841" lon="-0.053145034678981386"><ele>379.6</ele><time>2026-05-06T08:50:06Z</time></trkpt><trkpt lat="43.08967695315476" lon="-0.053010901224163645"><ele>379.0</ele><time>2026-05-06T08:50:08Z</time></trkpt><trkpt lat="43.089641010119195" lon="-0.05288147059105654"><ele>379.0</ele><time>2026-05-06T08:50:10Z</time></trkpt><trkpt lat="43.08960987725885" lon="-0.05275672029145739"><ele>379.0</ele><time>2026-05-06T08:50:12Z</time></trkpt><trkpt lat="43.089573966052654" lon="-0.05262932043546084"><ele>379.0</ele><time>2026-05-06T08:50:14Z</time></trkpt><trkpt lat="43.08954289962595" lon="-0.05250421292000419"><ele>379.0</ele><time>2026-05-06T08:50:16Z</time></trkpt><trkpt lat="43.08950797759362" lon="-0.05238012849905794"><ele>379.0</ele><time>2026-05-06T08:50:18Z</time></trkpt><trkpt lat="43.08947188959475" lon="-0.052260358539764774"><ele>379.66666666666663</ele><time>2026-05-06T08:50:20Z</time></trkpt><trkpt lat="43.08944464960232" lon="-0.05214747588555617"><ele>380.3333333333333</ele><time>2026-05-06T08:50:22Z</time></trkpt><trkpt lat="43.08941729871507" lon="-0.0520383680512096"><ele>381.0</ele><time>2026-05-06T08:50:24Z</time></trkpt><trkpt lat="43.08939187719129" lon="-0.05194695041117258"><ele>381.6666666666667</ele><time>2026-05-06T08:50:26Z</time></trkpt><trkpt lat="43.08936699789454" lon="-0.05186353518949866"><ele>382.33333333333337</ele><time>2026-05-06T08:50:28Z</time></trkpt><trkpt lat="43.089332445001894" lon="-0.05174618783499656"><ele>383.0</ele><time>2026-05-06T08:50:31Z</time></trkpt><trkpt lat="43.08930143923372" lon="-0.05162755322220653"><ele>384.1666666666667</ele><time>2026-05-06T08:50:34Z</time></trkpt><trkpt lat="43.08926222791084" lon="-0.05152561106696688"><ele>385.33333333333337</ele><time>2026-05-06T08:50:37Z</time></trkpt><trkpt lat="43.089249044222264" lon="-0.05142001845193463"><ele>386.5</ele><time>2026-05-06T08:50:40Z</time></trkpt><trkpt lat="43.08920979764312" lon="-0.051332768837463204"><ele>387.6666666666667</ele><time>2026-05-06T08:50:43Z</time></trkpt><trkpt lat="43.08919861703719" lon="-0.0512287067905452"><ele>388.8333333333333</ele><time>2026-05-06T08:50:46Z</time></trkpt><trkpt lat="43.089169078975544" lon="-0.05113553269504655"><ele>390.0</ele><time>2026-05-06T08:50:49Z</time></trkpt><trkpt lat="43.08914622134065" lon="-0.05104063705613397"><ele>390.0</ele><time>2026-05-06T08:50:52Z</time></trkpt><trkpt lat="43.089119425024876" lon="-0.050942934777883475"><ele>390.0</ele><time>2026-05-06T08:50:55Z</time></trkpt><trkpt lat="43.08909321581665" lon="-0.050853452080757644"><ele>390.0</ele><time>2026-05-06T08:50:58Z</time></trkpt><trkpt lat="43.089066003682696" lon="-0.05075255376063605"><ele>390.0</ele><time>2026-05-06T08:51:02Z</time></trkpt><trkpt lat="43.08904166674332" lon="-0.05065897536128003"><ele>390.0</ele><time>2026-05-06T08:51:06Z</time></trkpt><trkpt lat="43.08901976681299" lon="-0.050567289951832926"><ele>390.0</ele><time>2026-05-06T08:51:10Z</time></trkpt><trkpt lat="43.088994003224556" lon="-0.05048008145352447"><ele>390.0</ele><time>2026-05-06T08:51:14Z</time></trkpt><trkpt lat="43.08896920760747" lon="-0.050387824094224806"><ele>389.7142857142857</ele><time>2026-05-06T08:51:18Z</time></trkpt><trkpt lat="43.08894698935799" lon="-0.05029439297578754"><ele>389.42857142857144</ele><time>2026-05-06T08:51:21.999Z</time></trkpt><trkpt lat="43.08893171924043" lon="-0.05019889071222024"><ele>389.1428571428571</ele><time>2026-05-06T08:51:25.999Z</time></trkpt><trkpt lat="43.088913730386736" lon="-0.050101487244911556"><ele>388.8571428571429</ele><time>2026-05-06T08:51:29.999Z</time></trkpt><trkpt lat="43.088906805119535" lon="-0.05000548063509715"><ele>388.5714285714286</ele><time>2026-05-06T08:51:33.999Z</time></trkpt><trkpt lat="43.088895183042226" lon="-0.04991029588091302"><ele>388.2857142857143</ele><time>2026-05-06T08:51:37.999Z</time></trkpt><trkpt lat="43.08889345569429" lon="-0.04981062451780682"><ele>388.0</ele><time>2026-05-06T08:51:41.999Z</time></trkpt><trkpt lat="43.0888959481447" lon="-0.049716981519659954"><ele>389.2857142857143</ele><time>2026-05-06T08:51:45.999Z</time></trkpt><trkpt lat="43.08890404497833" lon="-0.04961524565037822"><ele>390.5714285714286</ele><time>2026-05-06T08:51:50Z</time></trkpt><trkpt lat="43.08890602355336" lon="-0.049512141795925044"><ele>391.8571428571429</ele><time>2026-05-06T08:51:54Z</time></trkpt><trkpt lat="43.088905944091536" lon="-0.049413662272483304"><ele>393.1428571428571</ele><time>2026-05-06T08:51:58Z</time></trkpt><trkpt lat="43.08892664631045" lon="-0.04931878943040822"><ele>394.42857142857144</ele><time>2026-05-06T08:52:02Z</time></trkpt><trkpt lat="43.08894703810142" lon="-0.049219800137106764"><ele>395.7142857142857</ele><time>2026-05-06T08:52:06Z</time></trkpt><trkpt lat="43.088959265193694" lon="-0.049115857223520985"><ele>397.0</ele><time>2026-05-06T08:52:10Z</time></trkpt><trkpt lat="43.08897927466242" lon="-0.04900723862211015"><ele>397.83333333333337</ele><time>2026-05-06T08:52:14Z</time></trkpt><trkpt lat="43.08900294748075" lon="-0.048903410829997364"><ele>398.6666666666667</ele><time>2026-05-06T08:52:18Z</time></trkpt><trkpt lat="43.08904674464849" lon="-0.04880965588250288"><ele>399.5</ele><time>2026-05-06T08:52:22Z</time></trkpt><trkpt lat="43.08909691184744" lon="-0.048719063062474685"><ele>400.33333333333337</ele><time>2026-05-06T08:52:26Z</time></trkpt><trkpt lat="43.089142520928974" lon="-0.04862804258298574"><ele>401.1666666666667</ele><time>2026-05-06T08:52:30Z</time></trkpt><trkpt lat="43.089200689731555" lon="-0.04855240656183384"><ele>402.0</ele><time>2026-05-06T08:52:34Z</time></trkpt><trkpt lat="43.08926111043588" lon="-0.048479686184500326"><ele>402.1428571428571</ele><time>2026-05-06T08:52:38Z</time></trkpt><trkpt lat="43.08931715490502" lon="-0.04839456312742323"><ele>402.28571428571433</ele><time>2026-05-06T08:52:42Z</time></trkpt><trkpt lat="43.08936648496394" lon="-0.048306689906425206"><ele>402.42857142857144</ele><time>2026-05-06T08:52:46Z</time></trkpt><trkpt lat="43.08939715852762" lon="-0.048205105707340414"><ele>402.57142857142856</ele><time>2026-05-06T08:52:50Z</time></trkpt><trkpt lat="43.089460642188826" lon="-0.048185145293275465"><ele>402.71428571428567</ele><time>2026-05-06T08:56:58Z</time></trkpt><trkpt lat="43.08943253734481" lon="-0.04810402672429928"><ele>402.8571428571429</ele><time>2026-05-06T08:58:19Z</time></trkpt><trkpt lat="43.089458925365996" lon="-0.04802125523096659"><ele>403.0</ele><time>2026-05-06T08:58:24Z</time></trkpt><trkpt lat="43.08948799112992" lon="-0.047916012357228414"><ele>403.42857142857144</ele><time>2026-05-06T08:58:28Z</time></trkpt><trkpt lat="43.08951343367987" lon="-0.047813027995902084"><ele>403.85714285714283</ele><time>2026-05-06T08:58:31Z</time></trkpt><trkpt lat="43.089538957053286" lon="-0.04769646697383322"><ele>404.2857142857143</ele><time>2026-05-06T08:58:34Z</time></trkpt><trkpt lat="43.08952924079976" lon="-0.04760850642670496"><ele>404.7142857142857</ele><time>2026-05-06T08:58:36Z</time></trkpt><trkpt lat="43.08949160802119" lon="-0.047524214753116446"><ele>405.1428571428571</ele><time>2026-05-06T08:58:38Z</time></trkpt><trkpt lat="43.08943152733024" lon="-0.047459698749611395"><ele>405.57142857142856</ele><time>2026-05-06T08:58:40Z</time></trkpt><trkpt lat="43.089383416481795" lon="-0.047395960289587216"><ele>406.0</ele><time>2026-05-06T08:58:42Z</time></trkpt><trkpt lat="43.089376577746805" lon="-0.047305697464497705"><ele>406.0</ele><time>2026-05-06T08:58:44Z</time></trkpt><trkpt lat="43.0893573281204" lon="-0.04720911072303266"><ele>406.0</ele><time>2026-05-06T08:58:46Z</time></trkpt><trkpt lat="43.089346674996904" lon="-0.04711584612399753"><ele>406.0</ele><time>2026-05-06T08:58:48Z</time></trkpt><trkpt lat="43.08935019984638" lon="-0.047017892177044836"><ele>406.0</ele><time>2026-05-06T08:58:50Z</time></trkpt><trkpt lat="43.089364471245624" lon="-0.04691856661294975"><ele>406.0</ele><time>2026-05-06T08:58:52Z</time></trkpt><trkpt lat="43.089387634974734" lon="-0.0468189338652137"><ele>406.0</ele><time>2026-05-06T08:58:54Z</time></trkpt><trkpt lat="43.08942411820887" lon="-0.04672834419832621"><ele>406.0</ele><time>2026-05-06T08:58:56Z</time></trkpt><trkpt lat="43.08947299875703" lon="-0.046645593959933146"><ele>405.85714285714283</ele><time>2026-05-06T08:58:58Z</time></trkpt><trkpt lat="43.089510277805616" lon="-0.046566765937012"><ele>405.7142857142857</ele><time>2026-05-06T08:59:00Z</time></trkpt><trkpt lat="43.08954750942211" lon="-0.04648150557622758"><ele>405.57142857142856</ele><time>2026-05-06T08:59:02Z</time></trkpt><trkpt lat="43.08958623434215" lon="-0.046397662044330934"><ele>405.42857142857144</ele><time>2026-05-06T08:59:04Z</time></trkpt><trkpt lat="43.08960711148298" lon="-0.04631474065447184"><ele>405.2857142857143</ele><time>2026-05-06T08:59:06Z</time></trkpt><trkpt lat="43.089604528756695" lon="-0.046207608332515415"><ele>405.1428571428571</ele><time>2026-05-06T08:59:09Z</time></trkpt><trkpt lat="43.08953020660702" lon="-0.046170437688547436"><ele>405.0</ele><time>2026-05-06T08:59:12Z</time></trkpt><trkpt lat="43.089452773967245" lon="-0.04615940584439205"><ele>404.99999999999994</ele><time>2026-05-06T08:59:16Z</time></trkpt><trkpt lat="43.089380004283846" lon="-0.046143485405083194"><ele>405.0</ele><time>2026-05-06T08:59:21Z</time></trkpt><trkpt lat="43.08932674230554" lon="-0.046084253836075596"><ele>405.0</ele><time>2026-05-06T08:59:25Z</time></trkpt><trkpt lat="43.08933581595594" lon="-0.04599076919592801"><ele>405.0</ele><time>2026-05-06T08:59:29Z</time></trkpt><trkpt lat="43.089400652905425" lon="-0.04591844827001973"><ele>405.0</ele><time>2026-05-06T08:59:31.999Z</time></trkpt><trkpt lat="43.08944150046132" lon="-0.0458460100815423"><ele>404.99999999999994</ele><time>2026-05-06T08:59:33.999Z</time></trkpt><trkpt lat="43.089495072039746" lon="-0.045769102818027485"><ele>405.0</ele><time>2026-05-06T08:59:35.999Z</time></trkpt><trkpt lat="43.08955902776147" lon="-0.04568038276978988"><ele>404.6</ele><time>2026-05-06T08:59:37.999Z</time></trkpt><trkpt lat="43.08962956020501" lon="-0.04558604790117332"><ele>404.2</ele><time>2026-05-06T08:59:39.999Z</time></trkpt><trkpt lat="43.08969896000209" lon="-0.04548319652112844"><ele>403.79999999999995</ele><time>2026-05-06T08:59:41.999Z</time></trkpt><trkpt lat="43.08976881248121" lon="-0.04538539490584614"><ele>403.4</ele><time>2026-05-06T08:59:43.999Z</time></trkpt><trkpt lat="43.08983667082159" lon="-0.04529266381994512"><ele>403.0</ele><time>2026-05-06T08:59:45.999Z</time></trkpt><trkpt lat="43.08989717244355" lon="-0.04519454989132045"><ele>402.79999999999995</ele><time>2026-05-06T08:59:47.999Z</time></trkpt><trkpt lat="43.08994940172561" lon="-0.04509319982990955"><ele>402.6</ele><time>2026-05-06T08:59:49.999Z</time></trkpt><trkpt lat="43.08999931741977" lon="-0.044988001254083906"><ele>402.4</ele><time>2026-05-06T08:59:51.999Z</time></trkpt><trkpt lat="43.09005229349243" lon="-0.04488123476380204"><ele>402.20000000000005</ele><time>2026-05-06T08:59:53.999Z</time></trkpt><trkpt lat="43.090111918696635" lon="-0.044778415417054795"><ele>402.0</ele><time>2026-05-06T08:59:55.999Z</time></trkpt><trkpt lat="43.09016621168129" lon="-0.044665131238708064"><ele>402.0</ele><time>2026-05-06T08:59:57.999Z</time></trkpt><trkpt lat="43.090219691640414" lon="-0.04455563936500499"><ele>402.0</ele><time>2026-05-06T08:59:59.999Z</time></trkpt><trkpt lat="43.09026701257113" lon="-0.044440555544770596"><ele>402.0</ele><time>2026-05-06T09:00:01.999Z</time></trkpt><trkpt lat="43.09031307479056" lon="-0.044326171077057365"><ele>402.0</ele><time>2026-05-06T09:00:03.999Z</time></trkpt><trkpt lat="43.09037590683287" lon="-0.044221545279835024"><ele>402.0</ele><time>2026-05-06T09:00:05.999Z</time></trkpt><trkpt lat="43.09043425345059" lon="-0.044122201266346625"><ele>402.0</ele><time>2026-05-06T09:00:07.999Z</time></trkpt><trkpt lat="43.090474516239" lon="-0.04404890756451707"><ele>402.0</ele><time>2026-05-06T09:00:10.999Z</time></trkpt><trkpt lat="43.09046155121551" lon="-0.043958885822990436"><ele>402.0</ele><time>2026-05-06T09:00:14Z</time></trkpt><trkpt lat="43.09046455701181" lon="-0.044051884179138044"><ele>402.0</ele><time>2026-05-06T09:00:19Z</time></trkpt><trkpt lat="43.09041495586235" lon="-0.04413829734946531"><ele>402.0</ele><time>2026-05-06T09:00:21Z</time></trkpt><trkpt lat="43.09037643897099" lon="-0.044230369400515376"><ele>402.0</ele><time>2026-05-06T09:00:23Z</time></trkpt><trkpt lat="43.0903349708717" lon="-0.044320900691634996"><ele>402.0</ele><time>2026-05-06T09:00:25Z</time></trkpt><trkpt lat="43.0902895817396" lon="-0.04440928594142988"><ele>402.0</ele><time>2026-05-06T09:00:27Z</time></trkpt><trkpt lat="43.09024639359167" lon="-0.04450033913486781"><ele>402.0</ele><time>2026-05-06T09:00:29Z</time></trkpt><trkpt lat="43.09020666802038" lon="-0.04459578005123466"><ele>402.0</ele><time>2026-05-06T09:00:31Z</time></trkpt><trkpt lat="43.09016327944402" lon="-0.044690534603945134"><ele>402.0</ele><time>2026-05-06T09:00:33Z</time></trkpt><trkpt lat="43.09011616847189" lon="-0.044784471708576024"><ele>402.0</ele><time>2026-05-06T09:00:35Z</time></trkpt><trkpt lat="43.09006822431913" lon="-0.0448765155765375"><ele>402.0</ele><time>2026-05-06T09:00:37Z</time></trkpt><trkpt lat="43.090019456809074" lon="-0.04497030747519225"><ele>402.0</ele><time>2026-05-06T09:00:39Z</time></trkpt><trkpt lat="43.08996555288153" lon="-0.045060259670854266"><ele>402.0</ele><time>2026-05-06T09:00:41Z</time></trkpt><trkpt lat="43.08991446898366" lon="-0.04514967537783307"><ele>402.0</ele><time>2026-05-06T09:00:43Z</time></trkpt><trkpt lat="43.089859314314" lon="-0.04524305731975238"><ele>402.0</ele><time>2026-05-06T09:00:45Z</time></trkpt><trkpt lat="43.089802855138174" lon="-0.04533669960964769"><ele>402.0</ele><time>2026-05-06T09:00:47Z</time></trkpt><trkpt lat="43.089740878174254" lon="-0.045423656750214335"><ele>402.0</ele><time>2026-05-06T09:00:49Z</time></trkpt><trkpt lat="43.08967901574464" lon="-0.04550620740465244"><ele>402.1666666666667</ele><time>2026-05-06T09:00:51Z</time></trkpt><trkpt lat="43.089621149839736" lon="-0.04559784390304134"><ele>402.33333333333337</ele><time>2026-05-06T09:00:53Z</time></trkpt><trkpt lat="43.08956218572303" lon="-0.045680269744418495"><ele>402.5</ele><time>2026-05-06T09:00:55Z</time></trkpt><trkpt lat="43.08950566048996" lon="-0.045763279577750414"><ele>402.6666666666667</ele><time>2026-05-06T09:00:57Z</time></trkpt><trkpt lat="43.0894502890496" lon="-0.0458382836830098"><ele>402.83333333333337</ele><time>2026-05-06T09:00:59Z</time></trkpt><trkpt lat="43.089403900447415" lon="-0.04591703114826283"><ele>403.0</ele><time>2026-05-06T09:01:01Z</time></trkpt><trkpt lat="43.08935086653462" lon="-0.04596932511782224"><ele>403.00000000000006</ele><time>2026-05-06T09:01:03Z</time></trkpt><trkpt lat="43.08931600655038" lon="-0.0460710284708853"><ele>403.0</ele><time>2026-05-06T09:01:06Z</time></trkpt><trkpt lat="43.08940203449772" lon="-0.04608226476515791"><ele>403.0</ele><time>2026-05-06T09:01:09Z</time></trkpt><trkpt lat="43.08947760340025" lon="-0.04600236194863884"><ele>403.0</ele><time>2026-05-06T09:01:12Z</time></trkpt><trkpt lat="43.08953623592891" lon="-0.0459269183525946"><ele>403.00000000000006</ele><time>2026-05-06T09:01:14Z</time></trkpt><trkpt lat="43.089595307001424" lon="-0.045840791388324156"><ele>403.0</ele><time>2026-05-06T09:01:16Z</time></trkpt><trkpt lat="43.08966023194859" lon="-0.04575353264381169"><ele>403.0</ele><time>2026-05-06T09:01:18Z</time></trkpt><trkpt lat="43.0897268978294" lon="-0.04565694319559195"><ele>403.0</ele><time>2026-05-06T09:01:20Z</time></trkpt><trkpt lat="43.08979907751864" lon="-0.0455586651740889"><ele>403.0</ele><time>2026-05-06T09:01:22Z</time></trkpt><trkpt lat="43.08986946527419" lon="-0.04545320629288855"><ele>403.0</ele><time>2026-05-06T09:01:24Z</time></trkpt><trkpt lat="43.089942145426626" lon="-0.045344144367973696"><ele>403.0</ele><time>2026-05-06T09:01:26Z</time></trkpt><trkpt lat="43.09000580079372" lon="-0.045222486169584235"><ele>402.75</ele><time>2026-05-06T09:01:28Z</time></trkpt><trkpt lat="43.09007475557371" lon="-0.045101376000745506"><ele>402.5</ele><time>2026-05-06T09:01:29.999Z</time></trkpt><trkpt lat="43.09000690766901" lon="-0.044944327203714766"><ele>402.25</ele><time>2026-05-06T09:01:30.999Z</time></trkpt><trkpt lat="43.09006755120156" lon="-0.04481942256427948"><ele>402.0</ele><time>2026-05-06T09:01:32.999Z</time></trkpt><trkpt lat="43.09013050356621" lon="-0.04468724221447544"><ele>401.75</ele><time>2026-05-06T09:01:34.999Z</time></trkpt><trkpt lat="43.09019318148409" lon="-0.04455348607188118"><ele>401.5</ele><time>2026-05-06T09:01:36.999Z</time></trkpt><trkpt lat="43.09025758423121" lon="-0.044414074120605065"><ele>401.25</ele><time>2026-05-06T09:01:38.999Z</time></trkpt><trkpt lat="43.09032253795708" lon="-0.04427346940684727"><ele>401.0</ele><time>2026-05-06T09:01:40.999Z</time></trkpt><trkpt lat="43.09038354825899" lon="-0.04414140100773003"><ele>401.25</ele><time>2026-05-06T09:01:42.999Z</time></trkpt><trkpt lat="43.09044412539607" lon="-0.044010270249434234"><ele>401.5</ele><time>2026-05-06T09:01:44.999Z</time></trkpt><trkpt lat="43.090506693610884" lon="-0.04387482570762538"><ele>401.75</ele><time>2026-05-06T09:01:46.999Z</time></trkpt><trkpt lat="43.090571331309114" lon="-0.043734899519548204"><ele>402.0</ele><time>2026-05-06T09:01:48.999Z</time></trkpt><trkpt lat="43.090635572173305" lon="-0.04359583238902431"><ele>401.5</ele><time>2026-05-06T09:01:50.999Z</time></trkpt><trkpt lat="43.09076843831448" lon="-0.04361576662615645"><ele>401.0</ele><time>2026-05-06T09:01:51.999Z</time></trkpt><trkpt lat="43.090830814613525" lon="-0.043475317825385225"><ele>400.5</ele><time>2026-05-06T09:01:53.999Z</time></trkpt><trkpt lat="43.09089448576291" lon="-0.043336073155838414"><ele>400.0</ele><time>2026-05-06T09:01:55.999Z</time></trkpt><trkpt lat="43.09095602909198" lon="-0.04319947910811246"><ele>400.0</ele><time>2026-05-06T09:01:57.999Z</time></trkpt><trkpt lat="43.09101605008158" lon="-0.043056445912048"><ele>400.0</ele><time>2026-05-06T09:01:59.999Z</time></trkpt><trkpt lat="43.091076850732826" lon="-0.0429124701628508"><ele>400.0</ele><time>2026-05-06T09:02:01.999Z</time></trkpt><trkpt lat="43.09114148903062" lon="-0.04277134389708728"><ele>400.0</ele><time>2026-05-06T09:02:03.999Z</time></trkpt><trkpt lat="43.09120833463269" lon="-0.04263387620036687"><ele>400.0</ele><time>2026-05-06T09:02:05.999Z</time></trkpt><trkpt lat="43.09127944191534" lon="-0.04249873024781876"><ele>400.0</ele><time>2026-05-06T09:02:07.999Z</time></trkpt><trkpt lat="43.09134820042818" lon="-0.04236485384422706"><ele>400.0</ele><time>2026-05-06T09:02:09.999Z</time></trkpt><trkpt lat="43.091418040889685" lon="-0.042235996023044814"><ele>400.0</ele><time>2026-05-06T09:02:11.999Z</time></trkpt><trkpt lat="43.09148870548702" lon="-0.04211409920171222"><ele>400.2</ele><time>2026-05-06T09:02:13.999Z</time></trkpt><trkpt lat="43.09155981890913" lon="-0.041998604640158685"><ele>400.4</ele><time>2026-05-06T09:02:15.999Z</time></trkpt><trkpt lat="43.091631362889686" lon="-0.04188701695504026"><ele>400.6</ele><time>2026-05-06T09:02:17.999Z</time></trkpt><trkpt lat="43.09169609544561" lon="-0.041779328813224874"><ele>400.8</ele><time>2026-05-06T09:02:20Z</time></trkpt><trkpt lat="43.09176418644575" lon="-0.04168726915397061"><ele>401.0</ele><time>2026-05-06T09:02:22Z</time></trkpt><trkpt lat="43.09183301245847" lon="-0.04157675204263998"><ele>402.4</ele><time>2026-05-06T09:02:24Z</time></trkpt><trkpt lat="43.09190615753581" lon="-0.04147743336717558"><ele>403.8</ele><time>2026-05-06T09:02:26Z</time></trkpt><trkpt lat="43.091981453397345" lon="-0.041388588747844145"><ele>405.2</ele><time>2026-05-06T09:02:28Z</time></trkpt><trkpt lat="43.09205459839061" lon="-0.04129589889858683"><ele>406.59999999999997</ele><time>2026-05-06T09:02:30Z</time></trkpt><trkpt lat="43.09213120197669" lon="-0.04120231668888251"><ele>408.0</ele><time>2026-05-06T09:02:32Z</time></trkpt><trkpt lat="43.092210106371255" lon="-0.04111524496666323"><ele>408.0</ele><time>2026-05-06T09:02:34Z</time></trkpt><trkpt lat="43.092286488644156" lon="-0.041022612041049095"><ele>408.0</ele><time>2026-05-06T09:02:36Z</time></trkpt><trkpt lat="43.09236462252233" lon="-0.04093055673004938"><ele>408.0</ele><time>2026-05-06T09:02:38Z</time></trkpt><trkpt lat="43.092442687193" lon="-0.04084178471942045"><ele>408.0</ele><time>2026-05-06T09:02:40Z</time></trkpt><trkpt lat="43.09251971630175" lon="-0.04075261753147116"><ele>408.0</ele><time>2026-05-06T09:02:42Z</time></trkpt><trkpt lat="43.09259880601788" lon="-0.040663691918731"><ele>407.79999999999995</ele><time>2026-05-06T09:02:44Z</time></trkpt><trkpt lat="43.092677173703095" lon="-0.04057401083464735"><ele>407.6</ele><time>2026-05-06T09:02:46Z</time></trkpt><trkpt lat="43.09275526209423" lon="-0.04048540574690512"><ele>407.4</ele><time>2026-05-06T09:02:48Z</time></trkpt><trkpt lat="43.0928321862428" lon="-0.04039394864232597"><ele>407.20000000000005</ele><time>2026-05-06T09:02:50Z</time></trkpt><trkpt lat="43.09291263536757" lon="-0.04030557314283235"><ele>407.0</ele><time>2026-05-06T09:02:52Z</time></trkpt><trkpt lat="43.0929909459676" lon="-0.04021816154540713"><ele>407.0</ele><time>2026-05-06T09:02:54Z</time></trkpt><trkpt lat="43.09307091261309" lon="-0.04012834912244161"><ele>407.0</ele><time>2026-05-06T09:02:56Z</time></trkpt><trkpt lat="43.09314756024639" lon="-0.04003850560276065"><ele>407.0</ele><time>2026-05-06T09:02:58Z</time></trkpt><trkpt lat="43.09322128952528" lon="-0.039942041457831395"><ele>407.0</ele><time>2026-05-06T09:03:00Z</time></trkpt><trkpt lat="43.09329399854391" lon="-0.03984658420364714"><ele>407.0</ele><time>2026-05-06T09:03:02Z</time></trkpt><trkpt lat="43.093363733078014" lon="-0.039746435942749764"><ele>406.20000000000005</ele><time>2026-05-06T09:03:04Z</time></trkpt><trkpt lat="43.09343405574902" lon="-0.039638556066193605"><ele>405.4</ele><time>2026-05-06T09:03:06Z</time></trkpt><trkpt lat="43.09350475440011" lon="-0.039530122587670545"><ele>404.6</ele><time>2026-05-06T09:03:08Z</time></trkpt><trkpt lat="43.093570981476" lon="-0.03941695716973789"><ele>403.79999999999995</ele><time>2026-05-06T09:03:10Z</time></trkpt><trkpt lat="43.093634412927884" lon="-0.03930149897784696"><ele>403.0</ele><time>2026-05-06T09:03:12Z</time></trkpt><trkpt lat="43.09369438108634" lon="-0.03918275494572853"><ele>405.59999999999997</ele><time>2026-05-06T09:03:14Z</time></trkpt><trkpt lat="43.093752330098226" lon="-0.039061232755907796"><ele>408.2</ele><time>2026-05-06T09:03:16Z</time></trkpt><trkpt lat="43.09381080336354" lon="-0.03893526003640355"><ele>410.8</ele><time>2026-05-06T09:03:18Z</time></trkpt><trkpt lat="43.093864511706236" lon="-0.03880901418350232"><ele>413.4</ele><time>2026-05-06T09:03:20Z</time></trkpt><trkpt lat="43.09391674490775" lon="-0.03867970807340875"><ele>416.0</ele><time>2026-05-06T09:03:22Z</time></trkpt><trkpt lat="43.093964959407" lon="-0.03855106499395548"><ele>416.0</ele><time>2026-05-06T09:03:24Z</time></trkpt><trkpt lat="43.09401366698699" lon="-0.03842047416637472"><ele>416.0</ele><time>2026-05-06T09:03:26Z</time></trkpt><trkpt lat="43.09392425589279" lon="-0.038287511972030175"><ele>416.0</ele><time>2026-05-06T09:03:27Z</time></trkpt><trkpt lat="43.09396407345949" lon="-0.03815546573338993"><ele>416.0</ele><time>2026-05-06T09:03:29Z</time></trkpt><trkpt lat="43.09400329619318" lon="-0.03801799822547722"><ele>414.8</ele><time>2026-05-06T09:03:30.999Z</time></trkpt><trkpt lat="43.09403621184473" lon="-0.0378857691482169"><ele>413.6</ele><time>2026-05-06T09:03:32.999Z</time></trkpt><trkpt lat="43.09406559683687" lon="-0.037749741057880405"><ele>412.4</ele><time>2026-05-06T09:03:34.999Z</time></trkpt><trkpt lat="43.09409199375703" lon="-0.037611040539082076"><ele>411.2</ele><time>2026-05-06T09:03:36.999Z</time></trkpt><trkpt lat="43.09411377698337" lon="-0.03746952548886036"><ele>410.0</ele><time>2026-05-06T09:03:38.999Z</time></trkpt><trkpt lat="43.094132881993986" lon="-0.03732450050533787"><ele>409.6</ele><time>2026-05-06T09:03:40.999Z</time></trkpt><trkpt lat="43.09414671413959" lon="-0.037186888607149644"><ele>409.2</ele><time>2026-05-06T09:03:42.999Z</time></trkpt><trkpt lat="43.094158874454315" lon="-0.037039979085507706"><ele>408.79999999999995</ele><time>2026-05-06T09:03:44.999Z</time></trkpt><trkpt lat="43.09416861111516" lon="-0.03689726618696451"><ele>408.4</ele><time>2026-05-06T09:03:46.999Z</time></trkpt><trkpt lat="43.09417682237703" lon="-0.03674778781327624"><ele>408.0</ele><time>2026-05-06T09:03:48.999Z</time></trkpt><trkpt lat="43.09418278387169" lon="-0.036602162450533535"><ele>407.79999999999995</ele><time>2026-05-06T09:03:50.999Z</time></trkpt><trkpt lat="43.09418758158891" lon="-0.036449811684704285"><ele>407.6</ele><time>2026-05-06T09:03:52.999Z</time></trkpt><trkpt lat="43.09418904478362" lon="-0.03630292830244639"><ele>407.4</ele><time>2026-05-06T09:03:54.999Z</time></trkpt><trkpt lat="43.094188035218664" lon="-0.036162658579869236"><ele>407.20000000000005</ele><time>2026-05-06T09:03:56.999Z</time></trkpt><trkpt lat="43.09418332281173" lon="-0.036027592758689414"><ele>407.0</ele><time>2026-05-06T09:03:58.999Z</time></trkpt><trkpt lat="43.09417513964946" lon="-0.03589300448636542"><ele>407.40000000000003</ele><time>2026-05-06T09:04:00.999Z</time></trkpt><trkpt lat="43.09416590254126" lon="-0.03575227795243394"><ele>407.8</ele><time>2026-05-06T09:04:02.999Z</time></trkpt><trkpt lat="43.09415696241539" lon="-0.035601136955901475"><ele>408.2</ele><time>2026-05-06T09:04:04.999Z</time></trkpt><trkpt lat="43.0941493421482" lon="-0.035458302018364994"><ele>408.6</ele><time>2026-05-06T09:04:06.999Z</time></trkpt><trkpt lat="43.09414166235039" lon="-0.035314351022074614"><ele>409.0</ele><time>2026-05-06T09:04:08.999Z</time></trkpt><trkpt lat="43.09413407484096" lon="-0.035169452925850886"><ele>409.0</ele><time>2026-05-06T09:04:10.999Z</time></trkpt><trkpt lat="43.09412712993479" lon="-0.03503004724959582"><ele>409.0</ele><time>2026-05-06T09:04:12.999Z</time></trkpt><trkpt lat="43.094120406668644" lon="-0.03488091000400869"><ele>409.0</ele><time>2026-05-06T09:04:14.999Z</time></trkpt><trkpt lat="43.094115198565305" lon="-0.03473888058849409"><ele>409.0</ele><time>2026-05-06T09:04:16.999Z</time></trkpt><trkpt lat="43.09411354610596" lon="-0.03465050458049882"><ele>409.0</ele><time>2026-05-06T09:04:17.999Z</time></trkpt><trkpt lat="43.094111548571924" lon="-0.03449438545856959"><ele>410.0</ele><time>2026-05-06T09:04:19.999Z</time></trkpt><trkpt lat="43.094111478622224" lon="-0.03432654776216562"><ele>411.0</ele><time>2026-05-06T09:04:21.999Z</time></trkpt><trkpt lat="43.09411458727779" lon="-0.034232799125072995"><ele>412.0</ele><time>2026-05-06T09:04:22.999Z</time></trkpt><trkpt lat="43.094119897320034" lon="-0.03413788357687997"><ele>413.0</ele><time>2026-05-06T09:04:23.999Z</time></trkpt><trkpt lat="43.09460220597088" lon="-0.034063702461078954"><ele>413.4</ele><time>2026-05-06T09:04:26Z</time></trkpt><trkpt lat="43.09462120207519" lon="-0.03392669402951957"><ele>413.79999999999995</ele><time>2026-05-06T09:04:28Z</time></trkpt><trkpt lat="43.094642042044775" lon="-0.03378775914099767"><ele>414.2</ele><time>2026-05-06T09:04:30Z</time></trkpt><trkpt lat="43.09466728049479" lon="-0.03365061565620554"><ele>414.6</ele><time>2026-05-06T09:04:32Z</time></trkpt><trkpt lat="43.09469411334117" lon="-0.033512809595616505"><ele>415.0</ele><time>2026-05-06T09:04:34Z</time></trkpt><trkpt lat="43.094643919109096" lon="-0.03340597839032699"><ele>417.4</ele><time>2026-05-06T09:04:35Z</time></trkpt><trkpt lat="43.094684763419" lon="-0.03327893056451631"><ele>419.8</ele><time>2026-05-06T09:04:37Z</time></trkpt><trkpt lat="43.0947240423913" lon="-0.03315494223083443"><ele>422.20000000000005</ele><time>2026-05-06T09:04:39Z</time></trkpt><trkpt lat="43.094761557489846" lon="-0.03302841211046248"><ele>424.6</ele><time>2026-05-06T09:04:41Z</time></trkpt><trkpt lat="43.09479840050714" lon="-0.032901919162737804"><ele>427.0</ele><time>2026-05-06T09:04:43Z</time></trkpt><trkpt lat="43.09483512883654" lon="-0.03277210343505533"><ele>427.0</ele><time>2026-05-06T09:04:45Z</time></trkpt><trkpt lat="43.094869330729075" lon="-0.0326512217915367"><ele>427.00000000000006</ele><time>2026-05-06T09:04:47Z</time></trkpt><trkpt lat="43.094902183362805" lon="-0.03253510890917678"><ele>427.00000000000006</ele><time>2026-05-06T09:04:49Z</time></trkpt><trkpt lat="43.09501630798384" lon="-0.03253366110804546"><ele>427.0</ele><time>2026-05-06T09:04:50Z</time></trkpt><trkpt lat="43.09505225076792" lon="-0.03243829811110308"><ele>427.0</ele><time>2026-05-06T09:04:53Z</time></trkpt><trkpt lat="43.09513353900058" lon="-0.03241715890778246"><ele>423.20000000000005</ele><time>2026-05-06T09:04:57Z</time></trkpt><trkpt lat="43.095188623626065" lon="-0.03246772430907585"><ele>419.40000000000003</ele><time>2026-05-06T09:04:59Z</time></trkpt><trkpt lat="43.09523706919954" lon="-0.032568284415501816"><ele>415.6</ele><time>2026-05-06T09:05:01Z</time></trkpt><trkpt lat="43.09527017466879" lon="-0.03269417993233583"><ele>411.79999999999995</ele><time>2026-05-06T09:05:03Z</time></trkpt><trkpt lat="43.0952836457583" lon="-0.032837775677257784"><ele>408.0</ele><time>2026-05-06T09:05:05Z</time></trkpt><trkpt lat="43.095285058051694" lon="-0.03299455183344065"><ele>408.0</ele><time>2026-05-06T09:05:07Z</time></trkpt><trkpt lat="43.095292109543664" lon="-0.0331622675162233"><ele>408.0</ele><time>2026-05-06T09:05:09Z</time></trkpt><trkpt lat="43.09530784584799" lon="-0.03332874990256099"><ele>408.0</ele><time>2026-05-06T09:05:11Z</time></trkpt><trkpt lat="43.095316144930855" lon="-0.03341498160356499"><ele>408.0</ele><time>2026-05-06T09:05:12Z</time></trkpt><trkpt lat="43.09534134107074" lon="-0.03358452187505601"><ele>408.0</ele><time>2026-05-06T09:05:14Z</time></trkpt><trkpt lat="43.0953696029832" lon="-0.03378516506954499"><ele>407.57142857142856</ele><time>2026-05-06T09:05:16Z</time></trkpt><trkpt lat="43.09538155882633" lon="-0.03388253545694708"><ele>407.14285714285717</ele><time>2026-05-06T09:05:17Z</time></trkpt><trkpt lat="43.095398694651486" lon="-0.03398068102031522"><ele>406.71428571428567</ele><time>2026-05-06T09:05:18Z</time></trkpt><trkpt lat="43.09541952028546" lon="-0.03407782974193327"><ele>406.2857142857143</ele><time>2026-05-06T09:05:19Z</time></trkpt><trkpt lat="43.09544390552804" lon="-0.03417072507435603"><ele>405.85714285714283</ele><time>2026-05-06T09:05:20Z</time></trkpt><trkpt lat="43.09546880231554" lon="-0.034263563773004754"><ele>405.4285714285714</ele><time>2026-05-06T09:05:21Z</time></trkpt><trkpt lat="43.09550759979683" lon="-0.034347837031706296"><ele>405.0</ele><time>2026-05-06T09:05:22Z</time></trkpt><trkpt lat="43.095559497201045" lon="-0.03441505117647496"><ele>404.5</ele><time>2026-05-06T09:05:23Z</time></trkpt><trkpt lat="43.09564614430806" lon="-0.03447723155313356"><ele>404.0</ele><time>2026-05-06T09:05:25Z</time></trkpt><trkpt lat="43.095801452963585" lon="-0.0343337984588596"><ele>403.5</ele><time>2026-05-06T09:05:29Z</time></trkpt><trkpt lat="43.09586150334242" lon="-0.03422551697836039"><ele>403.0</ele><time>2026-05-06T09:05:31Z</time></trkpt><trkpt lat="43.09591862142707" lon="-0.034123785644023456"><ele>403.0</ele><time>2026-05-06T09:05:33Z</time></trkpt><trkpt lat="43.095970614582924" lon="-0.03401037450587953"><ele>403.0</ele><time>2026-05-06T09:05:35Z</time></trkpt><trkpt lat="43.09602632136815" lon="-0.03389741115412803"><ele>403.0</ele><time>2026-05-06T09:05:37Z</time></trkpt><trkpt lat="43.09607945024503" lon="-0.03379222692016774"><ele>403.0</ele><time>2026-05-06T09:05:38.999Z</time></trkpt><trkpt lat="43.09613541436565" lon="-0.033680166271669004"><ele>403.0</ele><time>2026-05-06T09:05:40.999Z</time></trkpt><trkpt lat="43.09619781288638" lon="-0.03357200081742568"><ele>403.0</ele><time>2026-05-06T09:05:42.999Z</time></trkpt><trkpt lat="43.09626132066036" lon="-0.03347038612535072"><ele>403.0</ele><time>2026-05-06T09:05:44.999Z</time></trkpt><trkpt lat="43.0963266262923" lon="-0.03337085515460458"><ele>403.0</ele><time>2026-05-06T09:05:46.999Z</time></trkpt><trkpt lat="43.096395673115985" lon="-0.033271191096681696"><ele>403.0</ele><time>2026-05-06T09:05:48.999Z</time></trkpt><trkpt lat="43.09646990674813" lon="-0.03317424902307149"><ele>403.0</ele><time>2026-05-06T09:05:50.999Z</time></trkpt><trkpt lat="43.09654549157549" lon="-0.03308470523231316"><ele>402.79999999999995</ele><time>2026-05-06T09:05:52.999Z</time></trkpt><trkpt lat="43.096624339269994" lon="-0.032998827710598685"><ele>402.6</ele><time>2026-05-06T09:05:54.999Z</time></trkpt><trkpt lat="43.096705704573594" lon="-0.03291421114324958"><ele>402.4</ele><time>2026-05-06T09:05:56.999Z</time></trkpt><trkpt lat="43.096788026941674" lon="-0.03284858535593704"><ele>402.20000000000005</ele><time>2026-05-06T09:05:58.999Z</time></trkpt><trkpt lat="43.096881113397416" lon="-0.032777003680586336"><ele>402.0</ele><time>2026-05-06T09:06:00.999Z</time></trkpt><trkpt lat="43.0969671524884" lon="-0.032716801644483186"><ele>402.0</ele><time>2026-05-06T09:06:02.999Z</time></trkpt><trkpt lat="43.0970605384586" lon="-0.03266522543437637"><ele>402.0</ele><time>2026-05-06T09:06:04.999Z</time></trkpt><trkpt lat="43.097151751633085" lon="-0.03261266338035898"><ele>402.0</ele><time>2026-05-06T09:06:06.999Z</time></trkpt><trkpt lat="43.097247845164574" lon="-0.032559489774975685"><ele>402.0</ele><time>2026-05-06T09:06:08.999Z</time></trkpt><trkpt lat="43.09734049405355" lon="-0.032513833181970576"><ele>402.0</ele><time>2026-05-06T09:06:10.999Z</time></trkpt><trkpt lat="43.097430687612025" lon="-0.032465602430885185"><ele>402.40000000000003</ele><time>2026-05-06T09:06:12.999Z</time></trkpt><trkpt lat="43.09752127922409" lon="-0.03241422561544257"><ele>402.8</ele><time>2026-05-06T09:06:14.999Z</time></trkpt><trkpt lat="43.09760980497599" lon="-0.03236142559976031"><ele>403.2</ele><time>2026-05-06T09:06:16.999Z</time></trkpt><trkpt lat="43.09769961595843" lon="-0.032304545552685644"><ele>403.6</ele><time>2026-05-06T09:06:18.999Z</time></trkpt><trkpt lat="43.09777971285514" lon="-0.03223355327276769"><ele>404.0</ele><time>2026-05-06T09:06:20.999Z</time></trkpt><trkpt lat="43.097820109326605" lon="-0.032113595010325985"><ele>404.0</ele><time>2026-05-06T09:06:22.999Z</time></trkpt><trkpt lat="43.09785673025139" lon="-0.031998096409451164"><ele>404.0</ele><time>2026-05-06T09:06:24.999Z</time></trkpt><trkpt lat="43.09792193490686" lon="-0.031906588221291804"><ele>404.0</ele><time>2026-05-06T09:06:26.999Z</time></trkpt><trkpt lat="43.09801163587396" lon="-0.03186655332318593"><ele>404.0</ele><time>2026-05-06T09:06:28.999Z</time></trkpt><trkpt lat="43.098109687010975" lon="-0.031874066496254766"><ele>404.0</ele><time>2026-05-06T09:06:31Z</time></trkpt><trkpt lat="43.098187335068296" lon="-0.031963140601942996"><ele>403.6</ele><time>2026-05-06T09:06:33Z</time></trkpt><trkpt lat="43.098253356686016" lon="-0.03204539321813983"><ele>403.2</ele><time>2026-05-06T09:06:35Z</time></trkpt><trkpt lat="43.09835289571264" lon="-0.03194723042678006"><ele>402.8</ele><time>2026-05-06T09:06:36Z</time></trkpt><trkpt lat="43.0984462539323" lon="-0.03188400881621019"><ele>402.40000000000003</ele><time>2026-05-06T09:06:38Z</time></trkpt><trkpt lat="43.098540860592834" lon="-0.031828892877329436"><ele>402.0</ele><time>2026-05-06T09:06:40Z</time></trkpt><trkpt lat="43.09864083740112" lon="-0.031782898143459914"><ele>402.0</ele><time>2026-05-06T09:06:42Z</time></trkpt><trkpt lat="43.09873895535882" lon="-0.031728583625860875"><ele>402.0</ele><time>2026-05-06T09:06:44Z</time></trkpt><trkpt lat="43.098839243711666" lon="-0.03167088012511874"><ele>402.0</ele><time>2026-05-06T09:06:46Z</time></trkpt><trkpt lat="43.098938591061" lon="-0.031614597151208464"><ele>402.0</ele><time>2026-05-06T09:06:48Z</time></trkpt><trkpt lat="43.09903966376203" lon="-0.031561460076455314"><ele>402.0</ele><time>2026-05-06T09:06:50Z</time></trkpt><trkpt lat="43.099139664430524" lon="-0.03150741485730077"><ele>403.0</ele><time>2026-05-06T09:06:52Z</time></trkpt><trkpt lat="43.099239282781966" lon="-0.03145206647415377"><ele>404.0</ele><time>2026-05-06T09:06:54Z</time></trkpt><trkpt lat="43.09934213699127" lon="-0.03140235460200978"><ele>405.0</ele><time>2026-05-06T09:06:56Z</time></trkpt><trkpt lat="43.09944540458087" lon="-0.0313457909197108"><ele>406.0</ele><time>2026-05-06T09:06:58Z</time></trkpt><trkpt lat="43.09954050594263" lon="-0.03128793490050619"><ele>407.0</ele><time>2026-05-06T09:07:00Z</time></trkpt><trkpt lat="43.09963561043704" lon="-0.031227165575943742"><ele>407.0</ele><time>2026-05-06T09:07:02Z</time></trkpt><trkpt lat="43.099731469137" lon="-0.031167596542122537"><ele>407.0</ele><time>2026-05-06T09:07:04Z</time></trkpt><trkpt lat="43.09982696115918" lon="-0.03110486810328545"><ele>407.0</ele><time>2026-05-06T09:07:06Z</time></trkpt><trkpt lat="43.09992097416793" lon="-0.031049753643255983"><ele>407.0</ele><time>2026-05-06T09:07:08Z</time></trkpt><trkpt lat="43.10000939937685" lon="-0.030987296019909485"><ele>407.0</ele><time>2026-05-06T09:07:10Z</time></trkpt><trkpt lat="43.10009767596667" lon="-0.030914656310975258"><ele>407.8</ele><time>2026-05-06T09:07:12Z</time></trkpt><trkpt lat="43.10017644149554" lon="-0.030844474654617315"><ele>408.6</ele><time>2026-05-06T09:07:14Z</time></trkpt><trkpt lat="43.100261636782164" lon="-0.030772426597085876"><ele>409.40000000000003</ele><time>2026-05-06T09:07:16Z</time></trkpt><trkpt lat="43.100347116812294" lon="-0.03070887722302865"><ele>410.20000000000005</ele><time>2026-05-06T09:07:18Z</time></trkpt><trkpt lat="43.10042777471937" lon="-0.03063954486836876"><ele>411.0</ele><time>2026-05-06T09:07:20Z</time></trkpt><trkpt lat="43.10050879631531" lon="-0.030580155345870386"><ele>411.0</ele><time>2026-05-06T09:07:22Z</time></trkpt><trkpt lat="43.10059152101075" lon="-0.03054166330511855"><ele>411.0</ele><time>2026-05-06T09:07:24Z</time></trkpt><trkpt lat="43.100672203316336" lon="-0.030497268620246692"><ele>411.0</ele><time>2026-05-06T09:07:26Z</time></trkpt><trkpt lat="43.100752659527316" lon="-0.0304645614028073"><ele>411.0</ele><time>2026-05-06T09:07:28Z</time></trkpt><trkpt lat="43.100825985610165" lon="-0.030432924603839992"><ele>411.0</ele><time>2026-05-06T09:07:30Z</time></trkpt><trkpt lat="43.10089878875" lon="-0.030413655268998325"><ele>411.0</ele><time>2026-05-06T09:07:32Z</time></trkpt><trkpt lat="43.10097195344913" lon="-0.030397433171805884"><ele>411.0</ele><time>2026-05-06T09:07:34Z</time></trkpt><trkpt lat="43.10104565625573" lon="-0.03038516666935263"><ele>411.0</ele><time>2026-05-06T09:07:36Z</time></trkpt><trkpt lat="43.101117769600975" lon="-0.03038417736754175"><ele>411.0</ele><time>2026-05-06T09:07:38Z</time></trkpt><trkpt lat="43.1011889351441" lon="-0.030383975908157647"><ele>411.0</ele><time>2026-05-06T09:07:40Z</time></trkpt><trkpt lat="43.101256782229" lon="-0.03038527316807325"><ele>411.0</ele><time>2026-05-06T09:07:42Z</time></trkpt><trkpt lat="43.10132017942404" lon="-0.03039723330483457"><ele>411.0</ele><time>2026-05-06T09:07:44Z</time></trkpt><trkpt lat="43.10140949176386" lon="-0.030421692751701805"><ele>411.0</ele><time>2026-05-06T09:07:47Z</time></trkpt><trkpt lat="43.101472340549925" lon="-0.030434772425687255"><ele>411.0</ele><time>2026-05-06T09:07:49Z</time></trkpt><trkpt lat="43.101536919867755" lon="-0.03044071652482779"><ele>411.0</ele><time>2026-05-06T09:07:50.999Z</time></trkpt><trkpt lat="43.101630632305145" lon="-0.03043288956955287"><ele>411.0</ele><time>2026-05-06T09:07:53.999Z</time></trkpt><trkpt lat="43.10171983489345" lon="-0.030421384927744592"><ele>411.0</ele><time>2026-05-06T09:07:56.999Z</time></trkpt><trkpt lat="43.10180802855676" lon="-0.030395528921294768"><ele>411.0</ele><time>2026-05-06T09:07:59.999Z</time></trkpt><trkpt lat="43.101894934665026" lon="-0.030360492610047193"><ele>411.0</ele><time>2026-05-06T09:08:02.999Z</time></trkpt><trkpt lat="43.101976625782946" lon="-0.030316850000011317"><ele>410.8333333333333</ele><time>2026-05-06T09:08:05.999Z</time></trkpt><trkpt lat="43.102055414370525" lon="-0.030263680414184375"><ele>410.66666666666663</ele><time>2026-05-06T09:08:08.999Z</time></trkpt><trkpt lat="43.102133275782194" lon="-0.03020081642224525"><ele>410.5</ele><time>2026-05-06T09:08:11.999Z</time></trkpt><trkpt lat="43.10218696346864" lon="-0.03015314360261252"><ele>410.3333333333333</ele><time>2026-05-06T09:08:13.999Z</time></trkpt><trkpt lat="43.10223784437904" lon="-0.030098100086871547"><ele>410.16666666666663</ele><time>2026-05-06T09:08:15.999Z</time></trkpt><trkpt lat="43.102287034450846" lon="-0.030028820374503076"><ele>410.0</ele><time>2026-05-06T09:08:17.999Z</time></trkpt><trkpt lat="43.10233552687982" lon="-0.029954072496559504"><ele>409.99999999999994</ele><time>2026-05-06T09:08:19.999Z</time></trkpt><trkpt lat="43.102386179539174" lon="-0.02987469154669221"><ele>410.0</ele><time>2026-05-06T09:08:21.999Z</time></trkpt><trkpt lat="43.10243261898797" lon="-0.029786708027123875"><ele>410.0</ele><time>2026-05-06T09:08:23.999Z</time></trkpt><trkpt lat="43.10247626849916" lon="-0.029688740883331087"><ele>410.0</ele><time>2026-05-06T09:08:25.999Z</time></trkpt><trkpt lat="43.102519281627174" lon="-0.029584536724136093"><ele>409.99999999999994</ele><time>2026-05-06T09:08:27.999Z</time></trkpt><trkpt lat="43.10256080031321" lon="-0.029472951783747932"><ele>410.0</ele><time>2026-05-06T09:08:29.999Z</time></trkpt><trkpt lat="43.10259072186136" lon="-0.029344763061492925"><ele>410.5</ele><time>2026-05-06T09:08:31.999Z</time></trkpt><trkpt lat="43.102613932119176" lon="-0.02920517035862717"><ele>411.0</ele><time>2026-05-06T09:08:33.999Z</time></trkpt><trkpt lat="43.102640684634636" lon="-0.029053278575980272"><ele>411.5</ele><time>2026-05-06T09:08:35.999Z</time></trkpt><trkpt lat="43.10267270549442" lon="-0.028892758094062224"><ele>412.0</ele><time>2026-05-06T09:08:38Z</time></trkpt><trkpt lat="43.10270451755087" lon="-0.028727970623235028"><ele>412.00000000000006</ele><time>2026-05-06T09:08:40Z</time></trkpt><trkpt lat="43.102722008049966" lon="-0.028644454681369197"><ele>412.0</ele><time>2026-05-06T09:08:41Z</time></trkpt><trkpt lat="43.10273516080807" lon="-0.028559089482198857"><ele>412.0</ele><time>2026-05-06T09:08:42Z</time></trkpt><trkpt lat="43.102752378416696" lon="-0.028470870931370056"><ele>412.0</ele><time>2026-05-06T09:08:43Z</time></trkpt><trkpt lat="43.10276298740514" lon="-0.02838297597200639"><ele>412.00000000000006</ele><time>2026-05-06T09:08:44Z</time></trkpt><trkpt lat="43.102752194687746" lon="-0.028235095035281155"><ele>412.0</ele><time>2026-05-06T09:08:46Z</time></trkpt><trkpt lat="43.10265261023875" lon="-0.028128335421748214"><ele>412.0</ele><time>2026-05-06T09:08:48Z</time></trkpt><trkpt lat="43.10258371716871" lon="-0.02803824242366909"><ele>412.0</ele><time>2026-05-06T09:08:50Z</time></trkpt><trkpt lat="43.102579577164754" lon="-0.027904763563557096"><ele>412.0</ele><time>2026-05-06T09:08:52Z</time></trkpt><trkpt lat="43.10257058331378" lon="-0.027738034938371552"><ele>412.0</ele><time>2026-05-06T09:08:54Z</time></trkpt><trkpt lat="43.102688529392374" lon="-0.027685819667861326"><ele>412.0</ele><time>2026-05-06T09:08:56Z</time></trkpt><trkpt lat="43.10274892546922" lon="-0.02758881495233424"><ele>412.0</ele><time>2026-05-06T09:08:58Z</time></trkpt><trkpt lat="43.10268512048555" lon="-0.02742843435084283"><ele>412.0</ele><time>2026-05-06T09:09:00Z</time></trkpt><trkpt lat="43.1027108554066" lon="-0.02731193382842456"><ele>412.0</ele><time>2026-05-06T09:09:02Z</time></trkpt><trkpt lat="43.10273461477707" lon="-0.027196105509393467"><ele>412.0</ele><time>2026-05-06T09:09:04Z</time></trkpt><trkpt lat="43.10274211598001" lon="-0.027086093595251715"><ele>412.0</ele><time>2026-05-06T09:09:06Z</time></trkpt><trkpt lat="43.102722920398655" lon="-0.02695896306840867"><ele>412.0</ele><time>2026-05-06T09:09:08Z</time></trkpt><trkpt lat="43.10269370044235" lon="-0.026831367087922584"><ele>412.0</ele><time>2026-05-06T09:09:10Z</time></trkpt><trkpt lat="43.10266486253268" lon="-0.026704657329837615"><ele>412.0</ele><time>2026-05-06T09:09:12Z</time></trkpt><trkpt lat="43.10261820595898" lon="-0.02658113020056305"><ele>412.0</ele><time>2026-05-06T09:09:14Z</time></trkpt><trkpt lat="43.102587375979944" lon="-0.026452780994227043"><ele>412.0</ele><time>2026-05-06T09:09:16Z</time></trkpt><trkpt lat="43.102554265688816" lon="-0.026319158985493474"><ele>412.20000000000005</ele><time>2026-05-06T09:09:18Z</time></trkpt><trkpt lat="43.10252096183621" lon="-0.0261859707866305"><ele>412.4</ele><time>2026-05-06T09:09:20Z</time></trkpt><trkpt lat="43.102498909529146" lon="-0.026038098415949496"><ele>412.6</ele><time>2026-05-06T09:09:22Z</time></trkpt><trkpt lat="43.10246028950908" lon="-0.025897111150065478"><ele>412.79999999999995</ele><time>2026-05-06T09:09:24Z</time></trkpt><trkpt lat="43.10242565418713" lon="-0.025752696530608032"><ele>413.0</ele><time>2026-05-06T09:09:26Z</time></trkpt><trkpt lat="43.10238874160818" lon="-0.02562313098953272"><ele>412.2</ele><time>2026-05-06T09:09:28Z</time></trkpt><trkpt lat="43.102357437379226" lon="-0.025472528768032167"><ele>411.4</ele><time>2026-05-06T09:09:30Z</time></trkpt><trkpt lat="43.10231948256554" lon="-0.025330817140954146"><ele>410.59999999999997</ele><time>2026-05-06T09:09:32Z</time></trkpt><trkpt lat="43.102269502173" lon="-0.025202065239214626"><ele>409.79999999999995</ele><time>2026-05-06T09:09:34Z</time></trkpt><trkpt lat="43.1022350479139" lon="-0.02505908066801212"><ele>409.0</ele><time>2026-05-06T09:09:36Z</time></trkpt><trkpt lat="43.10220288974669" lon="-0.024917109839855317"><ele>409.0</ele><time>2026-05-06T09:09:38Z</time></trkpt><trkpt lat="43.102171411885735" lon="-0.024778142360807182"><ele>409.0</ele><time>2026-05-06T09:09:40Z</time></trkpt><trkpt lat="43.10214247440438" lon="-0.024650390108250944"><ele>409.0</ele><time>2026-05-06T09:09:42Z</time></trkpt><trkpt lat="43.102111289915676" lon="-0.024511622850361653"><ele>409.0</ele><time>2026-05-06T09:09:44Z</time></trkpt><trkpt lat="43.102097450295226" lon="-0.024370951977003865"><ele>409.0</ele><time>2026-05-06T09:09:46Z</time></trkpt><trkpt lat="43.10206312024909" lon="-0.024230246501944996"><ele>409.4</ele><time>2026-05-06T09:09:48Z</time></trkpt><trkpt lat="43.1020340783082" lon="-0.024098325717289606"><ele>409.79999999999995</ele><time>2026-05-06T09:09:50Z</time></trkpt><trkpt lat="43.10200802929839" lon="-0.0239655152380808"><ele>410.20000000000005</ele><time>2026-05-06T09:09:52Z</time></trkpt><trkpt lat="43.1019857626491" lon="-0.02382212547257665"><ele>410.6</ele><time>2026-05-06T09:09:54Z</time></trkpt><trkpt lat="43.10196957591342" lon="-0.023688469816579436"><ele>411.0</ele><time>2026-05-06T09:09:56Z</time></trkpt><trkpt lat="43.10194572456459" lon="-0.023564951307350958"><ele>411.0</ele><time>2026-05-06T09:09:58Z</time></trkpt><trkpt lat="43.10193728575015" lon="-0.023430753487326993"><ele>411.0</ele><time>2026-05-06T09:09:59.999Z</time></trkpt><trkpt lat="43.10194377971924" lon="-0.023291616191160214"><ele>411.0</ele><time>2026-05-06T09:10:01.999Z</time></trkpt><trkpt lat="43.10192319208782" lon="-0.02316340298730691"><ele>411.0</ele><time>2026-05-06T09:10:03.999Z</time></trkpt><trkpt lat="43.10191496554651" lon="-0.023040418003113895"><ele>411.0</ele><time>2026-05-06T09:10:05.999Z</time></trkpt><trkpt lat="43.10189631905442" lon="-0.022919632371517663"><ele>411.20000000000005</ele><time>2026-05-06T09:10:07.999Z</time></trkpt><trkpt lat="43.10186151318038" lon="-0.022822494930824423"><ele>411.40000000000003</ele><time>2026-05-06T09:10:09.999Z</time></trkpt><trkpt lat="43.101764954675545" lon="-0.02278653467973999"><ele>411.6</ele><time>2026-05-06T09:10:12.999Z</time></trkpt><trkpt lat="43.101684829532736" lon="-0.022772318149102567"><ele>411.8</ele><time>2026-05-06T09:10:14.999Z</time></trkpt><trkpt lat="43.10162303819856" lon="-0.02266453880425244"><ele>412.0</ele><time>2026-05-06T09:10:16.999Z</time></trkpt><trkpt lat="43.1015758363605" lon="-0.022532604324133346"><ele>411.6</ele><time>2026-05-06T09:10:18.999Z</time></trkpt><trkpt lat="43.10153919208404" lon="-0.022419151413761208"><ele>411.20000000000005</ele><time>2026-05-06T09:10:20.999Z</time></trkpt><trkpt lat="43.101499202214484" lon="-0.022308669546993686"><ele>410.8</ele><time>2026-05-06T09:10:22.999Z</time></trkpt><trkpt lat="43.101460916126" lon="-0.022189950363590356"><ele>410.4</ele><time>2026-05-06T09:10:24.999Z</time></trkpt><trkpt lat="43.10142457478499" lon="-0.022081512500697925"><ele>410.0</ele><time>2026-05-06T09:10:26.999Z</time></trkpt><trkpt lat="43.10138138651619" lon="-0.021953552090115635"><ele>410.0</ele><time>2026-05-06T09:10:28.999Z</time></trkpt><trkpt lat="43.101340031564526" lon="-0.02182681860064909"><ele>410.0</ele><time>2026-05-06T09:10:30.999Z</time></trkpt><trkpt lat="43.10129888170515" lon="-0.02169386107986313"><ele>410.0</ele><time>2026-05-06T09:10:32.999Z</time></trkpt><trkpt lat="43.101257293707405" lon="-0.021546324887977662"><ele>410.0</ele><time>2026-05-06T09:10:34.999Z</time></trkpt><trkpt lat="43.10121917559591" lon="-0.02141109847660048"><ele>410.0</ele><time>2026-05-06T09:10:36.999Z</time></trkpt><trkpt lat="43.10118112237462" lon="-0.021288370558442352"><ele>410.2</ele><time>2026-05-06T09:10:38.999Z</time></trkpt><trkpt lat="43.10115441119629" lon="-0.021158683017974973"><ele>410.4</ele><time>2026-05-06T09:10:40.999Z</time></trkpt><trkpt lat="43.10111165082027" lon="-0.021038049065948767"><ele>410.6</ele><time>2026-05-06T09:10:43Z</time></trkpt><trkpt lat="43.10106682957762" lon="-0.020912111195775553"><ele>410.8</ele><time>2026-05-06T09:10:45Z</time></trkpt><trkpt lat="43.101025491424934" lon="-0.020784937802067735"><ele>411.0</ele><time>2026-05-06T09:10:47Z</time></trkpt><trkpt lat="43.10098729950106" lon="-0.02065247731014522"><ele>411.0</ele><time>2026-05-06T09:10:49Z</time></trkpt><trkpt lat="43.1009490612884" lon="-0.020523794929290896"><ele>411.0</ele><time>2026-05-06T09:10:51Z</time></trkpt><trkpt lat="43.10092156284306" lon="-0.020380580329134552"><ele>411.0</ele><time>2026-05-06T09:10:53Z</time></trkpt><trkpt lat="43.100882047363896" lon="-0.020245377549886614"><ele>411.0</ele><time>2026-05-06T09:10:55Z</time></trkpt><trkpt lat="43.10084508153688" lon="-0.02010889797398103"><ele>411.0</ele><time>2026-05-06T09:10:57Z</time></trkpt><trkpt lat="43.10079985351467" lon="-0.019994864156739393"><ele>411.4</ele><time>2026-05-06T09:10:59Z</time></trkpt><trkpt lat="43.100761147421174" lon="-0.019865196822652444"><ele>411.8</ele><time>2026-05-06T09:11:01Z</time></trkpt><trkpt lat="43.10071407655162" lon="-0.019751687351901758"><ele>412.2</ele><time>2026-05-06T09:11:03Z</time></trkpt><trkpt lat="43.100684591318206" lon="-0.01962423975587686"><ele>412.59999999999997</ele><time>2026-05-06T09:11:05Z</time></trkpt><trkpt lat="43.10068715237748" lon="-0.019476358939745232"><ele>413.0</ele><time>2026-05-06T09:11:07Z</time></trkpt><trkpt lat="43.10072845656263" lon="-0.019330896098649783"><ele>413.0</ele><time>2026-05-06T09:11:09Z</time></trkpt><trkpt lat="43.10077390378056" lon="-0.01918679157882027"><ele>413.0</ele><time>2026-05-06T09:11:11Z</time></trkpt><trkpt lat="43.10082576988168" lon="-0.019046117858273755"><ele>413.0</ele><time>2026-05-06T09:11:13Z</time></trkpt><trkpt lat="43.10087191687971" lon="-0.018918706542351046"><ele>413.0</ele><time>2026-05-06T09:11:15Z</time></trkpt><trkpt lat="43.10091953301682" lon="-0.018785830575659926"><ele>413.0</ele><time>2026-05-06T09:11:17Z</time></trkpt><trkpt lat="43.100956263697775" lon="-0.018664903797507418"><ele>413.0</ele><time>2026-05-06T09:11:19Z</time></trkpt><trkpt lat="43.10096159650953" lon="-0.018530498415474102"><ele>413.0</ele><time>2026-05-06T09:11:21Z</time></trkpt><trkpt lat="43.100960706369854" lon="-0.018396183969984645"><ele>413.0</ele><time>2026-05-06T09:11:23Z</time></trkpt><trkpt lat="43.10094945515733" lon="-0.018265373507800914"><ele>413.0</ele><time>2026-05-06T09:11:25Z</time></trkpt><trkpt lat="43.10093345936738" lon="-0.018138230851943347"><ele>413.0</ele><time>2026-05-06T09:11:27Z</time></trkpt><trkpt lat="43.10090977516754" lon="-0.018009750595598645"><ele>413.0</ele><time>2026-05-06T09:11:29Z</time></trkpt><trkpt lat="43.10088332219908" lon="-0.017878853723189005"><ele>413.0</ele><time>2026-05-06T09:11:31Z</time></trkpt><trkpt lat="43.100853716907004" lon="-0.017744456498084794"><ele>413.0</ele><time>2026-05-06T09:11:33Z</time></trkpt><trkpt lat="43.1008237472197" lon="-0.01760837203581251"><ele>413.0</ele><time>2026-05-06T09:11:35Z</time></trkpt><trkpt lat="43.10079357328376" lon="-0.01746586304277421"><ele>413.0</ele><time>2026-05-06T09:11:37Z</time></trkpt><trkpt lat="43.10076499287708" lon="-0.017325129909123903"><ele>412.4</ele><time>2026-05-06T09:11:39Z</time></trkpt><trkpt lat="43.10074108115694" lon="-0.01718196741641671"><ele>411.79999999999995</ele><time>2026-05-06T09:11:41Z</time></trkpt><trkpt lat="43.10071827844439" lon="-0.01704043201028787"><ele>411.2</ele><time>2026-05-06T09:11:43Z</time></trkpt><trkpt lat="43.100701763652744" lon="-0.01688962410826638"><ele>410.6</ele><time>2026-05-06T09:11:45Z</time></trkpt><trkpt lat="43.10068118601052" lon="-0.016756766766685742"><ele>410.0</ele><time>2026-05-06T09:11:47Z</time></trkpt><trkpt lat="43.100653159541935" lon="-0.01662547635491182"><ele>409.8</ele><time>2026-05-06T09:11:49Z</time></trkpt><trkpt lat="43.100627619157606" lon="-0.01648401374586157"><ele>409.6</ele><time>2026-05-06T09:11:51Z</time></trkpt><trkpt lat="43.100601851030305" lon="-0.016345857058466206"><ele>409.4</ele><time>2026-05-06T09:11:53Z</time></trkpt><trkpt lat="43.10056950258612" lon="-0.01620697575291807"><ele>409.2</ele><time>2026-05-06T09:11:55Z</time></trkpt><trkpt lat="43.10054134817902" lon="-0.01607068648172124"><ele>409.0</ele><time>2026-05-06T09:11:57Z</time></trkpt><trkpt lat="43.100500899015316" lon="-0.015945752588234472"><ele>408.79999999999995</ele><time>2026-05-06T09:11:59Z</time></trkpt><trkpt lat="43.10047117525692" lon="-0.015808333947437764"><ele>408.59999999999997</ele><time>2026-05-06T09:12:01Z</time></trkpt><trkpt lat="43.10044427305834" lon="-0.015681249057322304"><ele>408.4</ele><time>2026-05-06T09:12:03Z</time></trkpt><trkpt lat="43.10040523719569" lon="-0.015552009581454997"><ele>408.2</ele><time>2026-05-06T09:12:05Z</time></trkpt><trkpt lat="43.10037401890357" lon="-0.015436702351889249"><ele>408.0</ele><time>2026-05-06T09:12:07Z</time></trkpt><trkpt lat="43.10035017300747" lon="-0.015349302279544147"><ele>408.0</ele><time>2026-05-06T09:12:07.999Z</time></trkpt><trkpt lat="43.100311466272906" lon="-0.015198073751295024"><ele>408.0</ele><time>2026-05-06T09:12:09.999Z</time></trkpt><trkpt lat="43.1002886587611" lon="-0.015049010409249317"><ele>408.0</ele><time>2026-05-06T09:12:11.999Z</time></trkpt><trkpt lat="43.100275056590874" lon="-0.014893693590483346"><ele>408.0</ele><time>2026-05-06T09:12:13.999Z</time></trkpt><trkpt lat="43.10028008478519" lon="-0.014747649466071601"><ele>408.0</ele><time>2026-05-06T09:12:15.999Z</time></trkpt><trkpt lat="43.10030422732937" lon="-0.014595022385055445"><ele>408.2</ele><time>2026-05-06T09:12:17.999Z</time></trkpt><trkpt lat="43.100347629162584" lon="-0.014452195868189157"><ele>408.4</ele><time>2026-05-06T09:12:19.999Z</time></trkpt><trkpt lat="43.100392101437464" lon="-0.014306252322122619"><ele>408.59999999999997</ele><time>2026-05-06T09:12:21.999Z</time></trkpt><trkpt lat="43.1004329222489" lon="-0.014160274145240613"><ele>408.79999999999995</ele><time>2026-05-06T09:12:23.999Z</time></trkpt><trkpt lat="43.10046161602872" lon="-0.01402230649797349"><ele>409.0</ele><time>2026-05-06T09:12:25.999Z</time></trkpt><trkpt lat="43.10047233782555" lon="-0.013871459691887906"><ele>409.2</ele><time>2026-05-06T09:12:27.999Z</time></trkpt><trkpt lat="43.1004493856626" lon="-0.013726337480082191"><ele>409.4</ele><time>2026-05-06T09:12:29.999Z</time></trkpt><trkpt lat="43.10044466190703" lon="-0.013578760020814795"><ele>409.6</ele><time>2026-05-06T09:12:31.999Z</time></trkpt><trkpt lat="43.10043170916539" lon="-0.013429547750953523"><ele>409.8</ele><time>2026-05-06T09:12:33.999Z</time></trkpt><trkpt lat="43.10043098542957" lon="-0.013291598838358305"><ele>410.0</ele><time>2026-05-06T09:12:35.999Z</time></trkpt><trkpt lat="43.10043790106114" lon="-0.013149296679487861"><ele>410.0</ele><time>2026-05-06T09:12:37.999Z</time></trkpt><trkpt lat="43.100445630516305" lon="-0.013006753616455327"><ele>410.0</ele><time>2026-05-06T09:12:39.999Z</time></trkpt><trkpt lat="43.10045174256537" lon="-0.012856227593720381"><ele>410.0</ele><time>2026-05-06T09:12:41.999Z</time></trkpt><trkpt lat="43.10046084768356" lon="-0.01270942096048073"><ele>410.0</ele><time>2026-05-06T09:12:43.999Z</time></trkpt><trkpt lat="43.1004634024477" lon="-0.012561217375785852"><ele>410.0</ele><time>2026-05-06T09:12:45.999Z</time></trkpt><trkpt lat="43.10046756638013" lon="-0.01240705897551732"><ele>409.25</ele><time>2026-05-06T09:12:47.999Z</time></trkpt><trkpt lat="43.10043692271254" lon="-0.012257679491138517"><ele>408.5</ele><time>2026-05-06T09:12:50Z</time></trkpt><trkpt lat="43.10041721252384" lon="-0.012098084997620225"><ele>407.75</ele><time>2026-05-06T09:12:52Z</time></trkpt><trkpt lat="43.10038761927352" lon="-0.01194714545735477"><ele>407.0</ele><time>2026-05-06T09:12:54Z</time></trkpt><trkpt lat="43.10037452787287" lon="-0.011787403556142476"><ele>407.0</ele><time>2026-05-06T09:12:56Z</time></trkpt><trkpt lat="43.100346783242024" lon="-0.011635184764712312"><ele>407.0</ele><time>2026-05-06T09:12:58Z</time></trkpt><trkpt lat="43.10033095561956" lon="-0.011473499332339685"><ele>407.0</ele><time>2026-05-06T09:13:00Z</time></trkpt><trkpt lat="43.10031165891625" lon="-0.011311774850075972"><ele>407.0</ele><time>2026-05-06T09:13:02Z</time></trkpt><trkpt lat="43.10031464312089" lon="-0.011220722999329047"><ele>407.0</ele><time>2026-05-06T09:13:03Z</time></trkpt><trkpt lat="43.100291144274486" lon="-0.011061984071076288"><ele>407.0</ele><time>2026-05-06T09:13:05Z</time></trkpt><trkpt lat="43.10025079128244" lon="-0.010916350187113814"><ele>407.0</ele><time>2026-05-06T09:13:07Z</time></trkpt><trkpt lat="43.100269868710804" lon="-0.010750930653282023"><ele>407.0</ele><time>2026-05-06T09:13:09Z</time></trkpt><trkpt lat="43.10033185770501" lon="-0.01059541701463784"><ele>407.0</ele><time>2026-05-06T09:13:11Z</time></trkpt><trkpt lat="43.10042048828883" lon="-0.010457766429828064"><ele>407.16666666666663</ele><time>2026-05-06T09:13:13Z</time></trkpt><trkpt lat="43.100483856480196" lon="-0.01030840693020674"><ele>407.3333333333333</ele><time>2026-05-06T09:13:15Z</time></trkpt><trkpt lat="43.10051324952783" lon="-0.010224500890064636"><ele>407.5</ele><time>2026-05-06T09:13:16Z</time></trkpt><trkpt lat="43.10053586470874" lon="-0.010143888741805794"><ele>407.66666666666663</ele><time>2026-05-06T09:13:17Z</time></trkpt><trkpt lat="43.10056420476351" lon="-0.009983372692141803"><ele>407.8333333333333</ele><time>2026-05-06T09:13:19Z</time></trkpt><trkpt lat="43.100587760677165" lon="-0.009903239079402947"><ele>408.0</ele><time>2026-05-06T09:13:20Z</time></trkpt><trkpt lat="43.10061932149854" lon="-0.009748097309224203"><ele>408.2</ele><time>2026-05-06T09:13:22Z</time></trkpt><trkpt lat="43.10064070320325" lon="-0.00966208536818314"><ele>408.4</ele><time>2026-05-06T09:13:23Z</time></trkpt><trkpt lat="43.10067655778963" lon="-0.009520125887700343"><ele>408.59999999999997</ele><time>2026-05-06T09:13:25Z</time></trkpt><trkpt lat="43.100712564960055" lon="-0.009444668622459126"><ele>408.79999999999995</ele><time>2026-05-06T09:13:26Z</time></trkpt><trkpt lat="43.10077069910202" lon="-0.009322500905659722"><ele>409.0</ele><time>2026-05-06T09:13:28Z</time></trkpt><trkpt lat="43.1008331216768" lon="-0.009197583654426314"><ele>409.0</ele><time>2026-05-06T09:13:30Z</time></trkpt><trkpt lat="43.10088329653779" lon="-0.009063716105786006"><ele>409.0</ele><time>2026-05-06T09:13:32Z</time></trkpt><trkpt lat="43.10089953119208" lon="-0.008850468974904381"><ele>409.0</ele><time>2026-05-06T09:13:35Z</time></trkpt><trkpt lat="43.10090996961643" lon="-0.008697253293264122"><ele>409.0</ele><time>2026-05-06T09:13:37Z</time></trkpt><trkpt lat="43.10092085303556" lon="-0.008551134141094631"><ele>409.0</ele><time>2026-05-06T09:13:39Z</time></trkpt><trkpt lat="43.10091996551223" lon="-0.008405586704246671"><ele>409.0</ele><time>2026-05-06T09:13:41Z</time></trkpt><trkpt lat="43.10094068322087" lon="-0.00825967282873106"><ele>409.0</ele><time>2026-05-06T09:13:43Z</time></trkpt><trkpt lat="43.10095196989349" lon="-0.008108538496189983"><ele>409.0</ele><time>2026-05-06T09:13:45Z</time></trkpt><trkpt lat="43.100951982119696" lon="-0.007952308189710806"><ele>409.0</ele><time>2026-05-06T09:13:47Z</time></trkpt><trkpt lat="43.100950656107216" lon="-0.007789959144262228"><ele>409.4</ele><time>2026-05-06T09:13:49Z</time></trkpt><trkpt lat="43.100952004790166" lon="-0.007702769277324169"><ele>409.79999999999995</ele><time>2026-05-06T09:13:50Z</time></trkpt><trkpt lat="43.100940778284006" lon="-0.007555049289523017"><ele>410.20000000000005</ele><time>2026-05-06T09:13:52Z</time></trkpt><trkpt lat="43.10092605771583" lon="-0.007402143312514999"><ele>410.6</ele><time>2026-05-06T09:13:54Z</time></trkpt><trkpt lat="43.100922354709795" lon="-0.007244959281955597"><ele>411.0</ele><time>2026-05-06T09:13:56Z</time></trkpt><trkpt lat="43.100930334409384" lon="-0.007106649019763919"><ele>411.0</ele><time>2026-05-06T09:13:58Z</time></trkpt><trkpt lat="43.10092239409144" lon="-0.006948394218140954"><ele>411.0</ele><time>2026-05-06T09:14:01Z</time></trkpt><trkpt lat="43.100938734977255" lon="-0.006832253718167244"><ele>411.0</ele><time>2026-05-06T09:14:02.999Z</time></trkpt><trkpt lat="43.100934078059815" lon="-0.006744009075487515"><ele>411.0</ele><time>2026-05-06T09:14:04.999Z</time></trkpt><trkpt lat="43.10101517238001" lon="-0.006461235390860497"><ele>411.0</ele><time>2026-05-06T09:14:06.999Z</time></trkpt><trkpt lat="43.10102473669867" lon="-0.0063191717879133615"><ele>411.0</ele><time>2026-05-06T09:14:08.999Z</time></trkpt><trkpt lat="43.10103846732261" lon="-0.006176123996457576"><ele>411.0</ele><time>2026-05-06T09:14:10.999Z</time></trkpt><trkpt lat="43.10103438571576" lon="-0.0060391771254377155"><ele>411.0</ele><time>2026-05-06T09:14:12.999Z</time></trkpt><trkpt lat="43.10103103997384" lon="-0.005903701998482424"><ele>411.0</ele><time>2026-05-06T09:14:14.999Z</time></trkpt><trkpt lat="43.10101470333944" lon="-0.005762541934031158"><ele>411.20000000000005</ele><time>2026-05-06T09:14:16.999Z</time></trkpt><trkpt lat="43.10101491516334" lon="-0.005622792403275973"><ele>411.40000000000003</ele><time>2026-05-06T09:14:18.999Z</time></trkpt><trkpt lat="43.10099308180961" lon="-0.0054975983654425905"><ele>411.6</ele><time>2026-05-06T09:14:20.999Z</time></trkpt><trkpt lat="43.1009605230473" lon="-0.005364649139317129"><ele>411.8</ele><time>2026-05-06T09:14:22.999Z</time></trkpt><trkpt lat="43.10092453321874" lon="-0.0052333732844239145"><ele>412.0</ele><time>2026-05-06T09:14:24.999Z</time></trkpt><trkpt lat="43.100889794161894" lon="-0.005094510754457343"><ele>412.6</ele><time>2026-05-06T09:14:26.999Z</time></trkpt><trkpt lat="43.100848580184596" lon="-0.004961449789152095"><ele>413.20000000000005</ele><time>2026-05-06T09:14:28.999Z</time></trkpt><trkpt lat="43.100829605460994" lon="-0.004829641331670331"><ele>413.8</ele><time>2026-05-06T09:14:30.999Z</time></trkpt><trkpt lat="43.10080920382679" lon="-0.0046964606929342095"><ele>414.4</ele><time>2026-05-06T09:14:32.999Z</time></trkpt><trkpt lat="43.10078418476004" lon="-0.0045753621307474904"><ele>415.0</ele><time>2026-05-06T09:14:34.999Z</time></trkpt><trkpt lat="43.10074590438833" lon="-0.004453944076267201"><ele>414.00000000000006</ele><time>2026-05-06T09:14:36.999Z</time></trkpt><trkpt lat="43.100705108543444" lon="-0.004341790182995092"><ele>413.0</ele><time>2026-05-06T09:14:38.999Z</time></trkpt><trkpt lat="43.100654960533085" lon="-0.004241930673327588"><ele>412.0</ele><time>2026-05-06T09:14:40.999Z</time></trkpt><trkpt lat="43.10061435972841" lon="-0.004154754607904795"><ele>411.0</ele><time>2026-05-06T09:14:42.999Z</time></trkpt><trkpt lat="43.10057110375462" lon="-0.004083624267279957"><ele>410.00000000000006</ele><time>2026-05-06T09:14:44.999Z</time></trkpt><trkpt lat="43.10053519713162" lon="-0.004011810670126099"><ele>409.0</ele><time>2026-05-06T09:14:47.999Z</time></trkpt><trkpt lat="43.10061125608629" lon="-0.003926680213763872"><ele>409.0</ele><time>2026-05-06T09:14:48.999Z</time></trkpt><trkpt lat="43.10065852666727" lon="-0.0038635500749244246"><ele>409.0</ele><time>2026-05-06T09:14:51.999Z</time></trkpt><trkpt lat="43.100690205825465" lon="-0.00377917569243585"><ele>409.0</ele><time>2026-05-06T09:14:56Z</time></trkpt><trkpt lat="43.10072382943742" lon="-0.003694937787543631"><ele>409.0</ele><time>2026-05-06T09:15:00Z</time></trkpt><trkpt lat="43.10076831459331" lon="-0.003633731943351517"><ele>409.0</ele><time>2026-05-06T09:15:03Z</time></trkpt><trkpt lat="43.10078702484307" lon="-0.0035321641849799905"><ele>409.0</ele><time>2026-05-06T09:15:07Z</time></trkpt><trkpt lat="43.10080087427406" lon="-0.0034337205619352413"><ele>409.0</ele><time>2026-05-06T09:15:11Z</time></trkpt><trkpt lat="43.10081929109827" lon="-0.00333798683900557"><ele>412.1428571428571</ele><time>2026-05-06T09:15:15Z</time></trkpt><trkpt lat="43.10083995435219" lon="-0.0032396918253467977"><ele>415.28571428571433</ele><time>2026-05-06T09:15:19Z</time></trkpt><trkpt lat="43.10083850030434" lon="-0.0031451610455644216"><ele>418.42857142857144</ele><time>2026-05-06T09:15:23Z</time></trkpt><trkpt lat="43.10085186958675" lon="-0.003051336843423834"><ele>421.57142857142856</ele><time>2026-05-06T09:15:27Z</time></trkpt><trkpt lat="43.10086310659698" lon="-0.0029590379483390447"><ele>424.71428571428567</ele><time>2026-05-06T09:15:31Z</time></trkpt><trkpt lat="43.10086151443808" lon="-0.0028509410353217005"><ele>427.8571428571429</ele><time>2026-05-06T09:15:36Z</time></trkpt><trkpt lat="43.10087384137103" lon="-0.0027655866941183687"><ele>431.0</ele><time>2026-05-06T09:15:40Z</time></trkpt><trkpt lat="43.100885225529936" lon="-0.002660257287979162"><ele>431.0</ele><time>2026-05-06T09:15:45Z</time></trkpt><trkpt lat="43.10089678930281" lon="-0.0025682828416400245"><ele>431.0</ele><time>2026-05-06T09:15:49Z</time></trkpt><trkpt lat="43.10090574189665" lon="-0.002481302313958516"><ele>431.0</ele><time>2026-05-06T09:15:53Z</time></trkpt><trkpt lat="43.10090778690001" lon="-0.002386310803839086"><ele>431.0</ele><time>2026-05-06T09:15:57Z</time></trkpt><trkpt lat="43.10091214852966" lon="-0.00229011163143888"><ele>431.0</ele><time>2026-05-06T09:16:01Z</time></trkpt><trkpt lat="43.100915720529265" lon="-0.0021881696872120978"><ele>431.0</ele><time>2026-05-06T09:16:05Z</time></trkpt><trkpt lat="43.1009169947694" lon="-0.0021019102654548506"><ele>431.0</ele><time>2026-05-06T09:16:08Z</time></trkpt><trkpt lat="43.10093173446071" lon="-0.0020172190933189756"><ele>430.49999999999994</ele><time>2026-05-06T09:16:11Z</time></trkpt><trkpt lat="43.10093826275988" lon="-0.0019031302699990202"><ele>430.0</ele><time>2026-05-06T09:16:15Z</time></trkpt><trkpt lat="43.1009579958617" lon="-0.0017905411757197225"><ele>429.5</ele><time>2026-05-06T09:16:18Z</time></trkpt><trkpt lat="43.100954299682265" lon="-0.001681810224910987"><ele>429.0</ele><time>2026-05-06T09:16:21Z</time></trkpt><trkpt lat="43.10094996951168" lon="-0.0015531360560021056"><ele>428.49999999999994</ele><time>2026-05-06T09:16:25Z</time></trkpt><trkpt lat="43.10094437404953" lon="-0.0014669882846928784"><ele>428.0</ele><time>2026-05-06T09:16:28Z</time></trkpt><trkpt lat="43.1009297502161" lon="-0.0013757222952003518"><ele>429.49999999999994</ele><time>2026-05-06T09:16:31Z</time></trkpt><trkpt lat="43.10091439190569" lon="-0.0012716957629158331"><ele>431.0</ele><time>2026-05-06T09:16:34Z</time></trkpt><trkpt lat="43.10091202876128" lon="-0.0011832334474332715"><ele>432.5</ele><time>2026-05-06T09:16:36Z</time></trkpt><trkpt lat="43.10087435332232" lon="-0.0010637661591767055"><ele>434.0</ele><time>2026-05-06T09:16:39.999Z</time></trkpt><trkpt lat="43.100855352670834" lon="-9.591665978792158E-4"><ele>435.49999999999994</ele><time>2026-05-06T09:16:42.999Z</time></trkpt><trkpt lat="43.10083749658641" lon="-8.580259351513832E-4"><ele>437.0</ele><time>2026-05-06T09:16:44.999Z</time></trkpt><trkpt lat="43.100812097994094" lon="-7.396811735350763E-4"><ele>438.49999999999994</ele><time>2026-05-06T09:16:47.999Z</time></trkpt><trkpt lat="43.100789641756506" lon="-6.119654349156357E-4"><ele>440.0</ele><time>2026-05-06T09:16:49.999Z</time></trkpt><trkpt lat="43.100780331703724" lon="-5.035867687348436E-4"><ele>441.5</ele><time>2026-05-06T09:16:52.999Z</time></trkpt><trkpt lat="43.10075402174788" lon="-3.8970739523894464E-4"><ele>443.0</ele><time>2026-05-06T09:16:55.999Z</time></trkpt><trkpt lat="43.10072238154599" lon="-2.851176774142372E-4"><ele>444.49999999999994</ele><time>2026-05-06T09:16:58.999Z</time></trkpt><trkpt lat="43.10070712108302" lon="-1.795727616420433E-4"><ele>446.0</ele><time>2026-05-06T09:17:02Z</time></trkpt><trkpt lat="43.10069300550142" lon="-8.550387907817348E-5"><ele>441.7142857142857</ele><time>2026-05-06T09:17:05Z</time></trkpt><trkpt lat="43.10067997987411" lon="1.6224075272109606E-6"><ele>437.42857142857144</ele><time>2026-05-06T09:17:08Z</time></trkpt><trkpt lat="43.100658400079354" lon="1.0570951638617331E-4"><ele>433.1428571428571</ele><time>2026-05-06T09:17:12Z</time></trkpt><trkpt lat="43.10064453343726" lon="2.1463243378716269E-4"><ele>428.8571428571429</ele><time>2026-05-06T09:17:16Z</time></trkpt><trkpt lat="43.10062586100455" lon="3.143839706036388E-4"><ele>424.5714285714286</ele><time>2026-05-06T09:17:20Z</time></trkpt><trkpt lat="43.10060555293658" lon="4.20370812865629E-4"><ele>420.2857142857143</ele><time>2026-05-06T09:17:23Z</time></trkpt><trkpt lat="43.100580094671805" lon="5.047454529246447E-4"><ele>416.0</ele><time>2026-05-06T09:17:26Z</time></trkpt><trkpt lat="43.10054634894437" lon="6.250498190933428E-4"><ele>416.0</ele><time>2026-05-06T09:17:30Z</time></trkpt><trkpt lat="43.10051698966643" lon="7.09933584996417E-4"><ele>416.0</ele><time>2026-05-06T09:17:34Z</time></trkpt><trkpt lat="43.100496831051316" lon="8.247700845044999E-4"><ele>416.0</ele><time>2026-05-06T09:17:38Z</time></trkpt><trkpt lat="43.10048008481778" lon="9.299138698913086E-4"><ele>416.0</ele><time>2026-05-06T09:17:41Z</time></trkpt><trkpt lat="43.100468247658355" lon="0.0010157590101181786"><ele>416.0</ele><time>2026-05-06T09:17:44Z</time></trkpt><trkpt lat="43.10045345873405" lon="0.001101415176196649"><ele>416.0</ele><time>2026-05-06T09:17:47Z</time></trkpt><trkpt lat="43.10043621617969" lon="0.0012126386885527747"><ele>416.0</ele><time>2026-05-06T09:17:51Z</time></trkpt><trkpt lat="43.10043778932874" lon="0.0013311407388841496"><ele>416.85714285714283</ele><time>2026-05-06T09:17:55Z</time></trkpt><trkpt lat="43.10040202812839" lon="0.001428122110932296"><ele>417.7142857142857</ele><time>2026-05-06T09:17:59Z</time></trkpt><trkpt lat="43.100367109160345" lon="0.0015209290745924625"><ele>418.57142857142856</ele><time>2026-05-06T09:18:03Z</time></trkpt><trkpt lat="43.10035261122733" lon="0.0016226805770278212"><ele>419.42857142857144</ele><time>2026-05-06T09:18:07Z</time></trkpt><trkpt lat="43.100338744829834" lon="0.0017113537121794388"><ele>420.28571428571433</ele><time>2026-05-06T09:18:10Z</time></trkpt><trkpt lat="43.10031185176868" lon="0.0018080713709250104"><ele>421.14285714285717</ele><time>2026-05-06T09:18:14Z</time></trkpt><trkpt lat="43.10030733631708" lon="0.00190631418798161"><ele>422.0</ele><time>2026-05-06T09:18:18Z</time></trkpt><trkpt lat="43.10033656666188" lon="0.0019894535649889944"><ele>421.99999999999994</ele><time>2026-05-06T09:18:22Z</time></trkpt><trkpt lat="43.10039199156996" lon="0.0020560401396472116"><ele>422.0</ele><time>2026-05-06T09:18:27Z</time></trkpt><trkpt lat="43.10045740533568" lon="0.0020706903302684693"><ele>422.0</ele><time>2026-05-06T09:19:15Z</time></trkpt><trkpt lat="43.10052700317957" lon="0.0018490726615883128"><ele>422.0</ele><time>2026-05-06T09:19:22Z</time></trkpt><trkpt lat="43.100569958352914" lon="0.0017849660318637582"><ele>421.99999999999994</ele><time>2026-05-06T09:19:25Z</time></trkpt><trkpt lat="43.100590869442584" lon="0.0016960610726982983"><ele>422.0</ele><time>2026-05-06T09:19:29Z</time></trkpt><trkpt lat="43.10062240307623" lon="0.0016039302721387756"><ele>422.0</ele><time>2026-05-06T09:19:33Z</time></trkpt><trkpt lat="43.10063323399483" lon="0.0015152089241878145"><ele>422.0</ele><time>2026-05-06T09:19:36Z</time></trkpt><trkpt lat="43.100665506336995" lon="0.0014400907436939818"><ele>422.0</ele><time>2026-05-06T09:19:40Z</time></trkpt><trkpt lat="43.10069741314379" lon="0.001357426294693677"><ele>422.0</ele><time>2026-05-06T09:19:43Z</time></trkpt><trkpt lat="43.10075085131185" lon="0.001311369219494105"><ele>422.0</ele><time>2026-05-06T09:19:47Z</time></trkpt><trkpt lat="43.10078301643698" lon="0.0012370814130798556"><ele>422.0</ele><time>2026-05-06T09:19:51Z</time></trkpt><trkpt lat="43.10081146776258" lon="0.0011436236266990011"><ele>422.0</ele><time>2026-05-06T09:19:55Z</time></trkpt><trkpt lat="43.100849223547804" lon="0.0010698222560048395"><ele>425.99999999999994</ele><time>2026-05-06T09:19:59Z</time></trkpt><trkpt lat="43.100908131090996" lon="0.0010012954013699459"><ele>430.0</ele><time>2026-05-06T09:20:04Z</time></trkpt><trkpt lat="43.100926435559856" lon="8.891134417752842E-4"><ele>434.0</ele><time>2026-05-06T09:20:09Z</time></trkpt><trkpt lat="43.10100812573661" lon="8.511363344750136E-4"><ele>438.0</ele><time>2026-05-06T09:20:13Z</time></trkpt><trkpt lat="43.101025199798535" lon="7.491036269806027E-4"><ele>441.99999999999994</ele><time>2026-05-06T09:20:17Z</time></trkpt><trkpt lat="43.10107107912778" lon="6.862867913721868E-4"><ele>446.0</ele><time>2026-05-06T09:20:21Z</time></trkpt><trkpt lat="43.10110643014711" lon="6.034130000528869E-4"><ele>446.0</ele><time>2026-05-06T09:20:25Z</time></trkpt><trkpt lat="43.10114522509564" lon="5.136731391921482E-4"><ele>446.0</ele><time>2026-05-06T09:20:29Z</time></trkpt><trkpt lat="43.10118704010868" lon="4.42050483024632E-4"><ele>446.0</ele><time>2026-05-06T09:20:33Z</time></trkpt><trkpt lat="43.10124481122234" lon="3.6481349636101367E-4"><ele>446.0</ele><time>2026-05-06T09:20:39Z</time></trkpt><trkpt lat="43.10124806899642" lon="2.7757219727533503E-4"><ele>446.0</ele><time>2026-05-06T09:20:42Z</time></trkpt><trkpt lat="43.10130872978134" lon="2.0276923342158037E-4"><ele>446.0</ele><time>2026-05-06T09:20:47Z</time></trkpt><trkpt lat="43.10131647649965" lon="1.1515055666561152E-4"><ele>446.0</ele><time>2026-05-06T09:20:49.999Z</time></trkpt><trkpt lat="43.101376167792964" lon="4.323802880992944E-5"><ele>446.0</ele><time>2026-05-06T09:20:54.999Z</time></trkpt><trkpt lat="43.1014182658168" lon="-2.2782730404788162E-5"><ele>446.0</ele><time>2026-05-06T09:20:58.999Z</time></trkpt><trkpt lat="43.101450235065556" lon="-1.2419292389834253E-4"><ele>446.0</ele><time>2026-05-06T09:21:02.999Z</time></trkpt><trkpt lat="43.10147794179288" lon="-2.072261585708249E-4"><ele>446.0</ele><time>2026-05-06T09:21:06.999Z</time></trkpt><trkpt lat="43.10151724618436" lon="-2.9302680270133823E-4"><ele>446.0</ele><time>2026-05-06T09:21:11.999Z</time></trkpt><trkpt lat="43.101558497363506" lon="-3.6274705207825644E-4"><ele>446.0</ele><time>2026-05-06T09:21:17Z</time></trkpt><trkpt lat="43.101595512586506" lon="-4.5229150914188177E-4"><ele>446.0</ele><time>2026-05-06T09:21:21Z</time></trkpt><trkpt lat="43.101603779132304" lon="-5.414061681980786E-4"><ele>449.7142857142857</ele><time>2026-05-06T09:21:24Z</time></trkpt><trkpt lat="43.10164609623891" lon="-6.169501666739767E-4"><ele>453.42857142857144</ele><time>2026-05-06T09:21:28Z</time></trkpt><trkpt lat="43.101665602791286" lon="-7.02957834229293E-4"><ele>457.1428571428571</ele><time>2026-05-06T09:21:32Z</time></trkpt><trkpt lat="43.10167712251398" lon="-7.893890276484259E-4"><ele>460.8571428571429</ele><time>2026-05-06T09:21:36Z</time></trkpt><trkpt lat="43.10171926416736" lon="-8.754846232937604E-4"><ele>464.5714285714286</ele><time>2026-05-06T09:21:41Z</time></trkpt><trkpt lat="43.101717729472085" lon="-9.626556521496695E-4"><ele>468.2857142857143</ele><time>2026-05-06T09:21:45Z</time></trkpt><trkpt lat="43.10177051752083" lon="-0.0010119725247667384"><ele>472.0</ele><time>2026-05-06T09:21:49Z</time></trkpt><trkpt lat="43.10175812761708" lon="-0.0011019569779348781"><ele>472.0</ele><time>2026-05-06T09:21:52Z</time></trkpt><trkpt lat="43.101823928734824" lon="-0.0011320042141138359"><ele>472.0</ele><time>2026-05-06T09:21:56Z</time></trkpt><trkpt lat="43.101815960572324" lon="-0.0012235272636150498"><ele>472.0</ele><time>2026-05-06T09:21:59Z</time></trkpt><trkpt lat="43.10186060471036" lon="-0.001286374733434091"><ele>472.0</ele><time>2026-05-06T09:22:03Z</time></trkpt><trkpt lat="43.10188680969737" lon="-0.0013816874169964874"><ele>472.0</ele><time>2026-05-06T09:22:08Z</time></trkpt><trkpt lat="43.10195541129841" lon="-0.0014262906303746656"><ele>472.0</ele><time>2026-05-06T09:22:13Z</time></trkpt><trkpt lat="43.101968460947404" lon="-0.0015109436436312265"><ele>472.0</ele><time>2026-05-06T09:22:16Z</time></trkpt><trkpt lat="43.102006653888225" lon="-0.001585017917840644"><ele>472.0</ele><time>2026-05-06T09:22:20Z</time></trkpt><trkpt lat="43.10206035924858" lon="-0.0016344173119717416"><ele>472.0</ele><time>2026-05-06T09:22:24Z</time></trkpt><trkpt lat="43.10207771807184" lon="-0.0017264560365761992"><ele>472.0</ele><time>2026-05-06T09:22:28Z</time></trkpt><trkpt lat="43.10214062078906" lon="-0.0017846552775581943"><ele>472.0</ele><time>2026-05-06T09:22:32Z</time></trkpt><trkpt lat="43.10216999036344" lon="-0.0018794206584154887"><ele>472.0</ele><time>2026-05-06T09:22:37Z</time></trkpt><trkpt lat="43.102218268735975" lon="-0.001937617997279508"><ele>472.0</ele><time>2026-05-06T09:22:41Z</time></trkpt><trkpt lat="43.10226972984474" lon="-0.0020001005058222225"><ele>472.0</ele><time>2026-05-06T09:22:46Z</time></trkpt><trkpt lat="43.102344017297746" lon="-0.002009364012715328"><ele>472.0</ele><time>2026-05-06T09:22:51Z</time></trkpt><trkpt lat="43.102356910227975" lon="-0.0019178992615207552"><ele>472.0</ele><time>2026-05-06T09:22:54.999Z</time></trkpt><trkpt lat="43.10235155154449" lon="-0.0018244206164135875"><ele>472.0</ele><time>2026-05-06T09:22:57.999Z</time></trkpt><trkpt lat="43.10234016211098" lon="-0.0017356514566647604"><ele>472.0</ele><time>2026-05-06T09:23:00.999Z</time></trkpt><trkpt lat="43.10231910686445" lon="-0.0016327973364326548"><ele>472.0</ele><time>2026-05-06T09:23:03.999Z</time></trkpt><trkpt lat="43.10230914767275" lon="-0.0015380740760863976"><ele>472.0</ele><time>2026-05-06T09:23:07.999Z</time></trkpt><trkpt lat="43.102305893974986" lon="-0.0014415358420058642"><ele>472.0</ele><time>2026-05-06T09:23:10.999Z</time></trkpt><trkpt lat="43.10227648639013" lon="-0.0013362918633316552"><ele>472.0</ele><time>2026-05-06T09:23:13.999Z</time></trkpt><trkpt lat="43.10224335225784" lon="-0.0012286894124872042"><ele>472.0</ele><time>2026-05-06T09:23:16.999Z</time></trkpt><trkpt lat="43.102234270889845" lon="-0.0011036358388374758"><ele>472.0</ele><time>2026-05-06T09:23:20Z</time></trkpt><trkpt lat="43.10222845853298" lon="-0.0010163839242268657"><ele>472.0</ele><time>2026-05-06T09:23:22Z</time></trkpt><trkpt lat="43.10222107922211" lon="-9.253262606685056E-4"><ele>472.0</ele><time>2026-05-06T09:23:24Z</time></trkpt><trkpt lat="43.10222961019368" lon="-8.294325042372372E-4"><ele>472.0</ele><time>2026-05-06T09:23:26Z</time></trkpt><trkpt lat="43.10226290714153" lon="-7.455651656695318E-4"><ele>472.0</ele><time>2026-05-06T09:23:27Z</time></trkpt><trkpt lat="43.10227515949571" lon="-6.485859089760558E-4"><ele>473.0</ele><time>2026-05-06T09:23:29Z</time></trkpt><trkpt lat="43.102289628980444" lon="-5.185202697362021E-4"><ele>474.00000000000006</ele><time>2026-05-06T09:23:31Z</time></trkpt><trkpt lat="43.10227233547815" lon="-3.7412779991095126E-4"><ele>475.00000000000006</ele><time>2026-05-06T09:23:33Z</time></trkpt><trkpt lat="43.102249636588866" lon="-2.3413142698039418E-4"><ele>476.0</ele><time>2026-05-06T09:23:35Z</time></trkpt><trkpt lat="43.10223483747709" lon="-1.0689223440527619E-4"><ele>477.0</ele><time>2026-05-06T09:23:37Z</time></trkpt><trkpt lat="43.10222478380491" lon="-4.788614211981927E-6"><ele>477.0</ele><time>2026-05-06T09:23:39Z</time></trkpt><trkpt lat="43.102212840219664" lon="9.794292441811156E-5"><ele>476.99999999999994</ele><time>2026-05-06T09:23:41Z</time></trkpt><trkpt lat="43.1022042394965" lon="1.9479072529402335E-4"><ele>477.0</ele><time>2026-05-06T09:23:43Z</time></trkpt><trkpt lat="43.10219824201674" lon="2.8875005625745084E-4"><ele>477.0</ele><time>2026-05-06T09:23:45Z</time></trkpt><trkpt lat="43.10218900677301" lon="3.741605750263206E-4"><ele>476.99999999999994</ele><time>2026-05-06T09:23:47Z</time></trkpt><trkpt lat="43.10218779396237" lon="5.040993949481026E-4"><ele>477.0</ele><time>2026-05-06T09:23:50Z</time></trkpt><trkpt lat="43.102184131309706" lon="5.924662309387045E-4"><ele>477.0</ele><time>2026-05-06T09:23:52Z</time></trkpt><trkpt lat="43.10218769654836" lon="7.197709893796707E-4"><ele>477.0</ele><time>2026-05-06T09:23:55Z</time></trkpt><trkpt lat="43.102202548459424" lon="8.066469291513581E-4"><ele>477.0</ele><time>2026-05-06T09:23:57Z</time></trkpt><trkpt lat="43.10226828569778" lon="8.920272986459541E-4"><ele>477.0</ele><time>2026-05-06T09:24:00Z</time></trkpt><trkpt lat="43.10231995149103" lon="9.79809249879266E-4"><ele>477.0</ele><time>2026-05-06T09:24:03Z</time></trkpt><trkpt lat="43.10239281337945" lon="0.0010047971455863646"><ele>477.0</ele><time>2026-05-06T09:24:06Z</time></trkpt><trkpt lat="43.102456920538856" lon="0.0010679541597879403"><ele>477.0</ele><time>2026-05-06T09:24:10Z</time></trkpt><trkpt lat="43.102520924395144" lon="0.0011210750560922801"><ele>480.6666666666667</ele><time>2026-05-06T09:24:13Z</time></trkpt><trkpt lat="43.102596168211704" lon="0.0011414083066264538"><ele>484.33333333333337</ele><time>2026-05-06T09:25:05.999Z</time></trkpt><trkpt lat="43.10267650853618" lon="0.001118121513331006"><ele>488.0</ele><time>2026-05-06T09:25:08.999Z</time></trkpt><trkpt lat="43.1027697209995" lon="0.0011255287584176921"><ele>491.6666666666667</ele><time>2026-05-06T09:25:10.999Z</time></trkpt><trkpt lat="43.10288376223384" lon="0.0011416298903799648"><ele>495.33333333333337</ele><time>2026-05-06T09:25:12.999Z</time></trkpt><trkpt lat="43.102947099550875" lon="0.0011500479723485872"><ele>499.0</ele><time>2026-05-06T09:25:13.999Z</time></trkpt><trkpt lat="43.10301728382945" lon="0.0011487339970774968"><ele>499.00000000000006</ele><time>2026-05-06T09:25:14.999Z</time></trkpt><trkpt lat="43.10308578754324" lon="0.0011589892280984538"><ele>499.0</ele><time>2026-05-06T09:25:15.999Z</time></trkpt><trkpt lat="43.103157472064716" lon="0.001166648211270753"><ele>499.00000000000006</ele><time>2026-05-06T09:25:16.999Z</time></trkpt><trkpt lat="43.10322918746496" lon="0.0011732627167256211"><ele>499.00000000000006</ele><time>2026-05-06T09:25:17.999Z</time></trkpt><trkpt lat="43.103301392673735" lon="0.0011845115879018171"><ele>499.0</ele><time>2026-05-06T09:25:18.999Z</time></trkpt><trkpt lat="43.10337480078876" lon="0.0011994487418479699"><ele>499.00000000000006</ele><time>2026-05-06T09:25:19.999Z</time></trkpt><trkpt lat="43.103451169133365" lon="0.001215144807620176"><ele>499.00000000000006</ele><time>2026-05-06T09:25:20.999Z</time></trkpt><trkpt lat="43.10352601497551" lon="0.001255868511238609"><ele>499.00000000000006</ele><time>2026-05-06T09:25:21.999Z</time></trkpt><trkpt lat="43.103596260047865" lon="0.0013007540688705133"><ele>499.0</ele><time>2026-05-06T09:25:22.999Z</time></trkpt><trkpt lat="43.10365979544528" lon="0.0013589311205157396"><ele>499.0</ele><time>2026-05-06T09:25:23.999Z</time></trkpt><trkpt lat="43.10371575820944" lon="0.0014149601916386358"><ele>499.0</ele><time>2026-05-06T09:25:24.999Z</time></trkpt><trkpt lat="43.10376841439819" lon="0.0014764900072617945"><ele>499.00000000000006</ele><time>2026-05-06T09:25:25.999Z</time></trkpt><trkpt lat="43.1038268463763" lon="0.0015274505283275387"><ele>499.0</ele><time>2026-05-06T09:25:26.999Z</time></trkpt><trkpt lat="43.10383855658376" lon="0.0017563978806848474"><ele>497.4</ele><time>2026-05-06T09:25:28.999Z</time></trkpt><trkpt lat="43.1038752959917" lon="0.0018803341411230282"><ele>495.79999999999995</ele><time>2026-05-06T09:25:29.999Z</time></trkpt><trkpt lat="43.10390907870792" lon="0.0019942965225538526"><ele>494.20000000000005</ele><time>2026-05-06T09:25:30.999Z</time></trkpt><trkpt lat="43.1039672884164" lon="0.0021146459653927406"><ele>492.6</ele><time>2026-05-06T09:25:31.999Z</time></trkpt><trkpt lat="43.10400485153677" lon="0.0022438895449674082"><ele>491.0</ele><time>2026-05-06T09:25:32.999Z</time></trkpt><trkpt lat="43.10405770886467" lon="0.002368634013214626"><ele>489.4</ele><time>2026-05-06T09:25:33.999Z</time></trkpt><trkpt lat="43.10411645175714" lon="0.002467336855792653"><ele>487.8</ele><time>2026-05-06T09:25:34.999Z</time></trkpt><trkpt lat="43.104175928139774" lon="0.002566986760142113"><ele>486.19999999999993</ele><time>2026-05-06T09:25:35.999Z</time></trkpt><trkpt lat="43.10424927428206" lon="0.0026758819365609024"><ele>484.59999999999997</ele><time>2026-05-06T09:25:36.999Z</time></trkpt><trkpt lat="43.10434213401779" lon="0.0027694483568902395"><ele>483.0</ele><time>2026-05-06T09:25:37.999Z</time></trkpt><trkpt lat="43.104437007996225" lon="0.002858393547529447"><ele>483.0</ele><time>2026-05-06T09:25:38.999Z</time></trkpt><trkpt lat="43.10453034992201" lon="0.0029597459234175384"><ele>483.0</ele><time>2026-05-06T09:25:39.999Z</time></trkpt><trkpt lat="43.104605711359625" lon="0.0030764060701486884"><ele>483.0</ele><time>2026-05-06T09:25:40.999Z</time></trkpt><trkpt lat="43.104675390191545" lon="0.0031978462059620255"><ele>483.0</ele><time>2026-05-06T09:25:41.999Z</time></trkpt><trkpt lat="43.104752509344095" lon="0.003314063459922526"><ele>483.0</ele><time>2026-05-06T09:25:42.999Z</time></trkpt><trkpt lat="43.10481433601162" lon="0.0034379381987721495"><ele>483.0</ele><time>2026-05-06T09:25:44Z</time></trkpt><trkpt lat="43.10487920407352" lon="0.003564122412732242"><ele>483.0</ele><time>2026-05-06T09:25:45Z</time></trkpt><trkpt lat="43.10494781652723" lon="0.003694748644469321"><ele>483.0</ele><time>2026-05-06T09:25:46Z</time></trkpt><trkpt lat="43.10503193275218" lon="0.003824599347559175"><ele>483.0</ele><time>2026-05-06T09:25:47Z</time></trkpt><trkpt lat="43.105104709448895" lon="0.003944563233148346"><ele>483.0</ele><time>2026-05-06T09:25:48Z</time></trkpt><trkpt lat="43.10517238126779" lon="0.0040600721946963585"><ele>483.0</ele><time>2026-05-06T09:25:49Z</time></trkpt><trkpt lat="43.10525206016779" lon="0.004177187286396709"><ele>483.0</ele><time>2026-05-06T09:25:50Z</time></trkpt><trkpt lat="43.105330800249355" lon="0.004295770608631246"><ele>479.25</ele><time>2026-05-06T09:25:51Z</time></trkpt><trkpt lat="43.10541605629597" lon="0.004409427745776624"><ele>475.5</ele><time>2026-05-06T09:25:52Z</time></trkpt><trkpt lat="43.10550743868971" lon="0.004523564847065368"><ele>471.75</ele><time>2026-05-06T09:25:53Z</time></trkpt><trkpt lat="43.105595808855696" lon="0.00464545787892064"><ele>468.0</ele><time>2026-05-06T09:25:54Z</time></trkpt><trkpt lat="43.10569989804007" lon="0.004760638800618039"><ele>469.25</ele><time>2026-05-06T09:25:55Z</time></trkpt><trkpt lat="43.1057951811335" lon="0.004894003019913906"><ele>470.5</ele><time>2026-05-06T09:25:56Z</time></trkpt><trkpt lat="43.105879477860235" lon="0.005053102951398101"><ele>471.75</ele><time>2026-05-06T09:25:57Z</time></trkpt><trkpt lat="43.10591967404855" lon="0.005241022182188519"><ele>473.0</ele><time>2026-05-06T09:25:58Z</time></trkpt><trkpt lat="43.105968764852676" lon="0.005415920454516934"><ele>470.25</ele><time>2026-05-06T09:25:59Z</time></trkpt><trkpt lat="43.10602754843567" lon="0.005579142917294091"><ele>467.5</ele><time>2026-05-06T09:26:00Z</time></trkpt><trkpt lat="43.1060751750256" lon="0.005743292145873056"><ele>464.75</ele><time>2026-05-06T09:26:01Z</time></trkpt><trkpt lat="43.1061237827881" lon="0.005898590686267646"><ele>462.0</ele><time>2026-05-06T09:26:02Z</time></trkpt><trkpt lat="43.1061747039765" lon="0.006048782571464408"><ele>460.5</ele><time>2026-05-06T09:26:03Z</time></trkpt><trkpt lat="43.1062228508848" lon="0.006191996076718412"><ele>459.0</ele><time>2026-05-06T09:26:04Z</time></trkpt><trkpt lat="43.10627441385627" lon="0.006333821342009595"><ele>457.5</ele><time>2026-05-06T09:26:05Z</time></trkpt><trkpt lat="43.106337456201224" lon="0.006465700821245188"><ele>456.0</ele><time>2026-05-06T09:26:06Z</time></trkpt><trkpt lat="43.1064005885315" lon="0.0065871221952747425"><ele>456.0</ele><time>2026-05-06T09:26:07Z</time></trkpt><trkpt lat="43.106467640830346" lon="0.006706589091114808"><ele>456.0</ele><time>2026-05-06T09:26:08Z</time></trkpt><trkpt lat="43.10654967185764" lon="0.006801018254788821"><ele>456.0</ele><time>2026-05-06T09:26:09Z</time></trkpt><trkpt lat="43.10663932332298" lon="0.00687944947973211"><ele>456.0</ele><time>2026-05-06T09:26:10Z</time></trkpt><trkpt lat="43.106726428217335" lon="0.006955380848170454"><ele>456.0</ele><time>2026-05-06T09:26:11Z</time></trkpt><trkpt lat="43.10681259601039" lon="0.007034383033711096"><ele>455.20000000000005</ele><time>2026-05-06T09:26:12Z</time></trkpt><trkpt lat="43.10688198724096" lon="0.0071301874223057855"><ele>454.40000000000003</ele><time>2026-05-06T09:26:13Z</time></trkpt><trkpt lat="43.106953499928174" lon="0.007224469596500715"><ele>453.6</ele><time>2026-05-06T09:26:14Z</time></trkpt><trkpt lat="43.107018466879246" lon="0.007324650564737268"><ele>452.8</ele><time>2026-05-06T09:26:15Z</time></trkpt><trkpt lat="43.107063311329625" lon="0.007436585521294179"><ele>452.0</ele><time>2026-05-06T09:26:16Z</time></trkpt><trkpt lat="43.107094927926795" lon="0.007549968875616115"><ele>450.99999999999994</ele><time>2026-05-06T09:26:17Z</time></trkpt><trkpt lat="43.1071209785929" lon="0.007660143725440851"><ele>450.0</ele><time>2026-05-06T09:26:18Z</time></trkpt><trkpt lat="43.10714836386026" lon="0.007760098410371504"><ele>449.0</ele><time>2026-05-06T09:26:19Z</time></trkpt><trkpt lat="43.107173286947315" lon="0.007855938403166557"><ele>448.0</ele><time>2026-05-06T09:26:20Z</time></trkpt><trkpt lat="43.10720349605724" lon="0.007948511379953746"><ele>446.99999999999994</ele><time>2026-05-06T09:26:21Z</time></trkpt><trkpt lat="43.10722927058718" lon="0.008036280163294635"><ele>446.0</ele><time>2026-05-06T09:26:22Z</time></trkpt><trkpt lat="43.10726269396634" lon="0.008123916648038064"><ele>445.99999999999994</ele><time>2026-05-06T09:26:23Z</time></trkpt><trkpt lat="43.10730549351526" lon="0.008206415658385535"><ele>446.0</ele><time>2026-05-06T09:26:24Z</time></trkpt><trkpt lat="43.10733187022888" lon="0.008294607177740998"><ele>446.0</ele><time>2026-05-06T09:26:25Z</time></trkpt><trkpt lat="43.10737176409974" lon="0.008385176336515043"><ele>446.0</ele><time>2026-05-06T09:26:26Z</time></trkpt><trkpt lat="43.10741092931505" lon="0.008469789610100626"><ele>445.99999999999994</ele><time>2026-05-06T09:26:27Z</time></trkpt><trkpt lat="43.10746047366378" lon="0.008552590818995658"><ele>446.0</ele><time>2026-05-06T09:26:28Z</time></trkpt><trkpt lat="43.10751548330703" lon="0.008633456497212722"><ele>448.8</ele><time>2026-05-06T09:26:29Z</time></trkpt><trkpt lat="43.10757489903989" lon="0.008714624801195156"><ele>451.6</ele><time>2026-05-06T09:26:30Z</time></trkpt><trkpt lat="43.107643905699" lon="0.008792638318684178"><ele>454.4</ele><time>2026-05-06T09:26:30.999Z</time></trkpt><trkpt lat="43.10773076561097" lon="0.00885785887660556"><ele>457.2</ele><time>2026-05-06T09:26:31.999Z</time></trkpt><trkpt lat="43.10782118180781" lon="0.008914551438981295"><ele>460.0</ele><time>2026-05-06T09:26:32.999Z</time></trkpt><trkpt lat="43.10791168957575" lon="0.008972091336209184"><ele>460.0</ele><time>2026-05-06T09:26:33.999Z</time></trkpt><trkpt lat="43.107998880711634" lon="0.009036334488904117"><ele>460.0</ele><time>2026-05-06T09:26:34.999Z</time></trkpt><trkpt lat="43.108089066197266" lon="0.009106300043457187"><ele>460.0</ele><time>2026-05-06T09:26:35.999Z</time></trkpt><trkpt lat="43.108179299034944" lon="0.009177385763649928"><ele>460.0</ele><time>2026-05-06T09:26:36.999Z</time></trkpt><trkpt lat="43.10827449393734" lon="0.009250115521632588"><ele>460.0</ele><time>2026-05-06T09:26:37.999Z</time></trkpt><trkpt lat="43.1083710301863" lon="0.009325460221069722"><ele>459.5</ele><time>2026-05-06T09:26:38.999Z</time></trkpt><trkpt lat="43.10847775154319" lon="0.009389413076046293"><ele>459.0</ele><time>2026-05-06T09:26:39.999Z</time></trkpt><trkpt lat="43.10857917130219" lon="0.009465193785193355"><ele>458.5</ele><time>2026-05-06T09:26:40.999Z</time></trkpt><trkpt lat="43.10868174949225" lon="0.009553496303538495"><ele>458.0</ele><time>2026-05-06T09:26:41.999Z</time></trkpt><trkpt lat="43.108784865310284" lon="0.009651858892365228"><ele>458.0</ele><time>2026-05-06T09:26:42.999Z</time></trkpt><trkpt lat="43.1088881298002" lon="0.009740706519029948"><ele>458.0</ele><time>2026-05-06T09:26:43.999Z</time></trkpt><trkpt lat="43.10899646910023" lon="0.009819224954278092"><ele>458.0</ele><time>2026-05-06T09:26:44.999Z</time></trkpt><trkpt lat="43.10910855098172" lon="0.009893599407816924"><ele>458.0</ele><time>2026-05-06T09:26:45.999Z</time></trkpt><trkpt lat="43.1092237192619" lon="0.00997249023142683"><ele>453.0</ele><time>2026-05-06T09:26:46.999Z</time></trkpt><trkpt lat="43.10933900507029" lon="0.010058636629199058"><ele>448.0</ele><time>2026-05-06T09:26:47.999Z</time></trkpt><trkpt lat="43.10945406612927" lon="0.010132749531204063"><ele>443.0</ele><time>2026-05-06T09:26:48.999Z</time></trkpt><trkpt lat="43.10955878562765" lon="0.010228616828408905"><ele>438.0</ele><time>2026-05-06T09:26:49.999Z</time></trkpt><trkpt lat="43.1096407576173" lon="0.010351063712568536"><ele>438.0</ele><time>2026-05-06T09:26:50.999Z</time></trkpt><trkpt lat="43.109695891561266" lon="0.010489085256996435"><ele>437.99999999999994</ele><time>2026-05-06T09:26:51.999Z</time></trkpt><trkpt lat="43.109735474686175" lon="0.010625843068431565"><ele>437.99999999999994</ele><time>2026-05-06T09:26:52.999Z</time></trkpt><trkpt lat="43.10976915683277" lon="0.01076316904662097"><ele>438.0</ele><time>2026-05-06T09:26:53.999Z</time></trkpt><trkpt lat="43.10981824238419" lon="0.010885543231450174"><ele>438.0</ele><time>2026-05-06T09:26:54.999Z</time></trkpt><trkpt lat="43.10987318337755" lon="0.011016933681155562"><ele>439.0</ele><time>2026-05-06T09:26:55.999Z</time></trkpt><trkpt lat="43.1099417195933" lon="0.011137730890641262"><ele>439.99999999999994</ele><time>2026-05-06T09:26:56.999Z</time></trkpt><trkpt lat="43.1100147116946" lon="0.01123990031664931"><ele>440.99999999999994</ele><time>2026-05-06T09:26:57.999Z</time></trkpt><trkpt lat="43.11009457072546" lon="0.011326401972288578"><ele>442.0</ele><time>2026-05-06T09:26:58.999Z</time></trkpt><trkpt lat="43.110175194462926" lon="0.011398330092892265"><ele>443.0</ele><time>2026-05-06T09:26:59.999Z</time></trkpt><trkpt lat="43.11025254919152" lon="0.011459795184126848"><ele>442.99999999999994</ele><time>2026-05-06T09:27:00.999Z</time></trkpt><trkpt lat="43.11032421922944" lon="0.011528069878306785"><ele>443.0</ele><time>2026-05-06T09:27:01.999Z</time></trkpt><trkpt lat="43.110381908598036" lon="0.011606026177323207"><ele>443.0</ele><time>2026-05-06T09:27:02.999Z</time></trkpt><trkpt lat="43.11043628023896" lon="0.011693911265016885"><ele>443.0</ele><time>2026-05-06T09:27:03.999Z</time></trkpt><trkpt lat="43.11047302967582" lon="0.01180419229320227"><ele>442.99999999999994</ele><time>2026-05-06T09:27:04.999Z</time></trkpt><trkpt lat="43.11050256215399" lon="0.011929001762976559"><ele>443.0</ele><time>2026-05-06T09:27:05.999Z</time></trkpt><trkpt lat="43.110519938230865" lon="0.012068802936401751"><ele>440.79999999999995</ele><time>2026-05-06T09:27:06.999Z</time></trkpt><trkpt lat="43.110554753303724" lon="0.01220441533023559"><ele>438.59999999999997</ele><time>2026-05-06T09:27:07.999Z</time></trkpt><trkpt lat="43.110574794465634" lon="0.012344627495604733"><ele>436.40000000000003</ele><time>2026-05-06T09:27:08.999Z</time></trkpt><trkpt lat="43.110618185967056" lon="0.012488461756499368"><ele>434.20000000000005</ele><time>2026-05-06T09:27:09.999Z</time></trkpt><trkpt lat="43.1106728565653" lon="0.012629580251204088"><ele>432.0</ele><time>2026-05-06T09:27:10.999Z</time></trkpt><trkpt lat="43.110743579813814" lon="0.012769971015747021"><ele>431.75</ele><time>2026-05-06T09:27:11.999Z</time></trkpt><trkpt lat="43.11083111540846" lon="0.012900108915328152"><ele>431.5</ele><time>2026-05-06T09:27:12.999Z</time></trkpt><trkpt lat="43.110935164289614" lon="0.013019587066124218"><ele>431.25</ele><time>2026-05-06T09:27:13.999Z</time></trkpt><trkpt lat="43.11104144390544" lon="0.013144437917597814"><ele>431.0</ele><time>2026-05-06T09:27:14.999Z</time></trkpt><trkpt lat="43.11115222608158" lon="0.013270688332928542"><ele>428.0</ele><time>2026-05-06T09:27:15.999Z</time></trkpt><trkpt lat="43.111254605260314" lon="0.013417225867620397"><ele>425.0</ele><time>2026-05-06T09:27:16.999Z</time></trkpt><trkpt lat="43.111342101187006" lon="0.013564949919257068"><ele>422.0</ele><time>2026-05-06T09:27:17.999Z</time></trkpt><trkpt lat="43.11141166895853" lon="0.013725215219591923"><ele>419.0</ele><time>2026-05-06T09:27:18.999Z</time></trkpt><trkpt lat="43.11146393889941" lon="0.013876293890224356"><ele>419.0</ele><time>2026-05-06T09:27:19.999Z</time></trkpt><trkpt lat="43.11152554062646" lon="0.014019282598124544"><ele>419.0</ele><time>2026-05-06T09:27:20.999Z</time></trkpt><trkpt lat="43.11157886610059" lon="0.014159486081093905"><ele>419.0</ele><time>2026-05-06T09:27:21.999Z</time></trkpt><trkpt lat="43.11162721909247" lon="0.014300333409123707"><ele>419.0</ele><time>2026-05-06T09:27:22.999Z</time></trkpt><trkpt lat="43.111655326758026" lon="0.01444001842547762"><ele>419.0</ele><time>2026-05-06T09:27:23.999Z</time></trkpt><trkpt lat="43.11168178998158" lon="0.014577698287220294"><ele>419.0</ele><time>2026-05-06T09:27:24.999Z</time></trkpt><trkpt lat="43.11171117290572" lon="0.01471184358762453"><ele>419.0</ele><time>2026-05-06T09:27:25.999Z</time></trkpt><trkpt lat="43.11174356530287" lon="0.01484174834942914"><ele>419.0</ele><time>2026-05-06T09:27:26.999Z</time></trkpt><trkpt lat="43.111785111127645" lon="0.01496849419932341"><ele>419.0</ele><time>2026-05-06T09:27:27.999Z</time></trkpt><trkpt lat="43.11182943366633" lon="0.01508902091054913"><ele>419.0</ele><time>2026-05-06T09:27:28.999Z</time></trkpt><trkpt lat="43.11188063367344" lon="0.0152051800021785"><ele>419.0</ele><time>2026-05-06T09:27:29.999Z</time></trkpt><trkpt lat="43.11193659926337" lon="0.01531892603584331"><ele>419.0</ele><time>2026-05-06T09:27:31Z</time></trkpt><trkpt lat="43.1119896676802" lon="0.015430922020966943"><ele>419.0</ele><time>2026-05-06T09:27:32Z</time></trkpt><trkpt lat="43.11204271299873" lon="0.015543914204464252"><ele>419.0</ele><time>2026-05-06T09:27:33Z</time></trkpt><trkpt lat="43.11209660446828" lon="0.015653765380905175"><ele>419.0</ele><time>2026-05-06T09:27:34Z</time></trkpt><trkpt lat="43.11214934033971" lon="0.01576374352352991"><ele>419.0</ele><time>2026-05-06T09:27:35Z</time></trkpt><trkpt lat="43.11220540668082" lon="0.015874129918316368"><ele>419.0</ele><time>2026-05-06T09:27:36Z</time></trkpt><trkpt lat="43.112269654592026" lon="0.01597521130329014"><ele>419.0</ele><time>2026-05-06T09:27:37Z</time></trkpt><trkpt lat="43.11233840579575" lon="0.016067472572598142"><ele>419.0</ele><time>2026-05-06T09:27:38Z</time></trkpt><trkpt lat="43.11240242822173" lon="0.016162846054012893"><ele>419.16666666666663</ele><time>2026-05-06T09:27:39Z</time></trkpt><trkpt lat="43.11245491764642" lon="0.016263169299886675"><ele>419.3333333333333</ele><time>2026-05-06T09:27:40Z</time></trkpt><trkpt lat="43.1124939837459" lon="0.016365853901028207"><ele>419.5</ele><time>2026-05-06T09:27:41Z</time></trkpt><trkpt lat="43.112527194525" lon="0.016464986563087498"><ele>419.66666666666663</ele><time>2026-05-06T09:27:42Z</time></trkpt><trkpt lat="43.11255761178346" lon="0.016555605474313062"><ele>419.8333333333333</ele><time>2026-05-06T09:27:43Z</time></trkpt><trkpt lat="43.112593933931834" lon="0.016631965456689157"><ele>420.0</ele><time>2026-05-06T09:27:44Z</time></trkpt><trkpt lat="43.11266603342705" lon="0.01676986656922465"><ele>419.0</ele><time>2026-05-06T09:27:46Z</time></trkpt><trkpt lat="43.112734318537704" lon="0.016895315475070415"><ele>418.0</ele><time>2026-05-06T09:27:48Z</time></trkpt><trkpt lat="43.112798490631036" lon="0.017009210596442642"><ele>417.0</ele><time>2026-05-06T09:27:50Z</time></trkpt><trkpt lat="43.1128508457336" lon="0.017118062427213122"><ele>416.0</ele><time>2026-05-06T09:27:52Z</time></trkpt><trkpt lat="43.112912544215085" lon="0.017209890122343287"><ele>415.0</ele><time>2026-05-06T09:27:54Z</time></trkpt><trkpt lat="43.112988989160975" lon="0.01731295643189712"><ele>415.0</ele><time>2026-05-06T09:27:56Z</time></trkpt><trkpt lat="43.11305910351008" lon="0.017410336072052595"><ele>415.0</ele><time>2026-05-06T09:27:58Z</time></trkpt><trkpt lat="43.11313052248926" lon="0.017517440404249445"><ele>415.0</ele><time>2026-05-06T09:28:00Z</time></trkpt><trkpt lat="43.11318737582727" lon="0.01766347937549591"><ele>415.0</ele><time>2026-05-06T09:28:02Z</time></trkpt><trkpt lat="43.11323731802829" lon="0.017814227743635325"><ele>415.0</ele><time>2026-05-06T09:28:04Z</time></trkpt><trkpt lat="43.11325602361773" lon="0.017981352940066978"><ele>415.00000000000006</ele><time>2026-05-06T09:28:06Z</time></trkpt><trkpt lat="43.11325744515575" lon="0.018069642553822814"><ele>415.0</ele><time>2026-05-06T09:28:07Z</time></trkpt><trkpt lat="43.11326326486219" lon="0.018246499957384945"><ele>415.0</ele><time>2026-05-06T09:28:09Z</time></trkpt><trkpt lat="43.11327558866821" lon="0.018345009405796718"><ele>415.0</ele><time>2026-05-06T09:28:10Z</time></trkpt><trkpt lat="43.113280103480726" lon="0.01845110408449389"><ele>415.00000000000006</ele><time>2026-05-06T09:28:11Z</time></trkpt><trkpt lat="43.11328508537028" lon="0.018560669214457665"><ele>415.0</ele><time>2026-05-06T09:28:12Z</time></trkpt><trkpt lat="43.11329063339078" lon="0.01867662869355617"><ele>415.00000000000006</ele><time>2026-05-06T09:28:13Z</time></trkpt><trkpt lat="43.11330229837092" lon="0.018794496390454708"><ele>415.0</ele><time>2026-05-06T09:28:14Z</time></trkpt><trkpt lat="43.113318431702574" lon="0.018912014830402134"><ele>415.0</ele><time>2026-05-06T09:28:15Z</time></trkpt><trkpt lat="43.113339034255254" lon="0.019031235407949418"><ele>415.0</ele><time>2026-05-06T09:28:16Z</time></trkpt><trkpt lat="43.113371598108955" lon="0.0191460058640829"><ele>415.00000000000006</ele><time>2026-05-06T09:28:17Z</time></trkpt><trkpt lat="43.11341395758952" lon="0.019254469074683114"><ele>415.0</ele><time>2026-05-06T09:28:18Z</time></trkpt><trkpt lat="43.1134671745654" lon="0.019352410252478566"><ele>413.4</ele><time>2026-05-06T09:28:19Z</time></trkpt><trkpt lat="43.11352284239176" lon="0.019447738578432936"><ele>411.8</ele><time>2026-05-06T09:28:20Z</time></trkpt><trkpt lat="43.11358630932927" lon="0.01953872336694901"><ele>410.20000000000005</ele><time>2026-05-06T09:28:21Z</time></trkpt><trkpt lat="43.11365625287661" lon="0.019630850824499117"><ele>408.6</ele><time>2026-05-06T09:28:22Z</time></trkpt><trkpt lat="43.113736763959764" lon="0.019721781844896386"><ele>407.0</ele><time>2026-05-06T09:28:23Z</time></trkpt><trkpt lat="43.11382735013982" lon="0.01980912870432694"><ele>407.0</ele><time>2026-05-06T09:28:24Z</time></trkpt><trkpt lat="43.11391884674817" lon="0.019892922465780387"><ele>407.0</ele><time>2026-05-06T09:28:25Z</time></trkpt><trkpt lat="43.1140127941546" lon="0.01997110729761801"><ele>407.0</ele><time>2026-05-06T09:28:26Z</time></trkpt><trkpt lat="43.11410516339158" lon="0.020051577609728293"><ele>407.0</ele><time>2026-05-06T09:28:27Z</time></trkpt><trkpt lat="43.114192358735174" lon="0.020123928539123426"><ele>407.0</ele><time>2026-05-06T09:28:28Z</time></trkpt><trkpt lat="43.11427834051138" lon="0.0201994124564942"><ele>406.40000000000003</ele><time>2026-05-06T09:28:29Z</time></trkpt><trkpt lat="43.11436288363157" lon="0.020270246249547572"><ele>405.8</ele><time>2026-05-06T09:28:30Z</time></trkpt><trkpt lat="43.11444385651491" lon="0.02034657298182935"><ele>405.2</ele><time>2026-05-06T09:28:31Z</time></trkpt><trkpt lat="43.114519569877366" lon="0.02042730027524474"><ele>404.6</ele><time>2026-05-06T09:28:32Z</time></trkpt><trkpt lat="43.11459396493524" lon="0.020500938151608323"><ele>404.0</ele><time>2026-05-06T09:28:33Z</time></trkpt><trkpt lat="43.114668334175775" lon="0.02056155154375203"><ele>403.99999999999994</ele><time>2026-05-06T09:28:34Z</time></trkpt><trkpt lat="43.11474029018387" lon="0.020622839038628413"><ele>404.0</ele><time>2026-05-06T09:28:35Z</time></trkpt><trkpt lat="43.11480849861238" lon="0.02068214951420671"><ele>404.0</ele><time>2026-05-06T09:28:36Z</time></trkpt><trkpt lat="43.114870483849145" lon="0.02074314205410924"><ele>404.0</ele><time>2026-05-06T09:28:37Z</time></trkpt><trkpt lat="43.114929414895705" lon="0.020801619605637173"><ele>403.99999999999994</ele><time>2026-05-06T09:28:38Z</time></trkpt><trkpt lat="43.115000912887574" lon="0.02093194574855224"><ele>404.0</ele><time>2026-05-06T09:28:40Z</time></trkpt><trkpt lat="43.115037553380475" lon="0.02106834771805591"><ele>404.2</ele><time>2026-05-06T09:28:42Z</time></trkpt><trkpt lat="43.11506219714943" lon="0.02121314328469749"><ele>404.4</ele><time>2026-05-06T09:28:44Z</time></trkpt><trkpt lat="43.115076777325186" lon="0.021297250890106596"><ele>404.6</ele><time>2026-05-06T09:28:45Z</time></trkpt><trkpt lat="43.115108410605906" lon="0.021431741340969316"><ele>404.8</ele><time>2026-05-06T09:28:47Z</time></trkpt><trkpt lat="43.11511339277728" lon="0.021549399089682182"><ele>405.0</ele><time>2026-05-06T09:28:49Z</time></trkpt><trkpt lat="43.11512781975329" lon="0.021670479726746607"><ele>405.0</ele><time>2026-05-06T09:28:51Z</time></trkpt><trkpt lat="43.11514974815858" lon="0.02179836786416405"><ele>405.0</ele><time>2026-05-06T09:28:53Z</time></trkpt><trkpt lat="43.11517902451996" lon="0.021922375962079146"><ele>405.0</ele><time>2026-05-06T09:28:55Z</time></trkpt><trkpt lat="43.11519294569305" lon="0.02204823799840085"><ele>405.0</ele><time>2026-05-06T09:28:57Z</time></trkpt><trkpt lat="43.11522434116601" lon="0.02216791083955401"><ele>405.0</ele><time>2026-05-06T09:28:59Z</time></trkpt><trkpt lat="43.11524754099355" lon="0.022298587082353927"><ele>405.0</ele><time>2026-05-06T09:29:01Z</time></trkpt><trkpt lat="43.11527195116619" lon="0.022446416600464092"><ele>405.0</ele><time>2026-05-06T09:29:05Z</time></trkpt><trkpt lat="43.115277881429286" lon="0.022600139222439784"><ele>405.0</ele><time>2026-05-06T09:29:06Z</time></trkpt><trkpt lat="43.11530443705258" lon="0.022688852361089827"><ele>405.0</ele><time>2026-05-06T09:29:07Z</time></trkpt><trkpt lat="43.115326578998854" lon="0.02277335648159274"><ele>405.0</ele><time>2026-05-06T09:29:08Z</time></trkpt><trkpt lat="43.11536498625687" lon="0.022920363649834748"><ele>404.6</ele><time>2026-05-06T09:29:10Z</time></trkpt><trkpt lat="43.11539759706646" lon="0.023055708508188708"><ele>404.2</ele><time>2026-05-06T09:29:12Z</time></trkpt><trkpt lat="43.115423970561295" lon="0.02319434537035568"><ele>403.79999999999995</ele><time>2026-05-06T09:29:14Z</time></trkpt><trkpt lat="43.115457971829926" lon="0.02334238493388914"><ele>403.4</ele><time>2026-05-06T09:29:16Z</time></trkpt><trkpt lat="43.11548343461201" lon="0.023478198722201592"><ele>403.0</ele><time>2026-05-06T09:29:18Z</time></trkpt><trkpt lat="43.115510651270704" lon="0.023619434721701874"><ele>402.4</ele><time>2026-05-06T09:29:20Z</time></trkpt><trkpt lat="43.11553865339501" lon="0.02377640661614803"><ele>401.79999999999995</ele><time>2026-05-06T09:29:22Z</time></trkpt><trkpt lat="43.11556700233707" lon="0.023923358390258203"><ele>401.2</ele><time>2026-05-06T09:29:24Z</time></trkpt><trkpt lat="43.11559963593079" lon="0.024062592393980075"><ele>400.6</ele><time>2026-05-06T09:29:26Z</time></trkpt><trkpt lat="43.11561879571493" lon="0.024147500214877174"><ele>400.0</ele><time>2026-05-06T09:29:27Z</time></trkpt><trkpt lat="43.115647884650265" lon="0.024291583674481382"><ele>399.6666666666667</ele><time>2026-05-06T09:29:29Z</time></trkpt><trkpt lat="43.11567233817678" lon="0.02444663423604592"><ele>399.33333333333337</ele><time>2026-05-06T09:29:31Z</time></trkpt><trkpt lat="43.11568884365828" lon="0.024530267002144588"><ele>399.0</ele><time>2026-05-06T09:29:32Z</time></trkpt><trkpt lat="43.11571466601523" lon="0.02469948048890368"><ele>398.66666666666663</ele><time>2026-05-06T09:29:34Z</time></trkpt><trkpt lat="43.11573279553147" lon="0.02479150971706833"><ele>398.3333333333333</ele><time>2026-05-06T09:29:35Z</time></trkpt><trkpt lat="43.115749463053774" lon="0.02488269368093482"><ele>398.0</ele><time>2026-05-06T09:29:36Z</time></trkpt><trkpt lat="43.11577058075117" lon="0.02498519668578994"><ele>398.99999999999994</ele><time>2026-05-06T09:29:37Z</time></trkpt><trkpt lat="43.115780932370654" lon="0.025079847228280053"><ele>400.0</ele><time>2026-05-06T09:29:38Z</time></trkpt><trkpt lat="43.115804764651536" lon="0.02517445231871377"><ele>401.0</ele><time>2026-05-06T09:29:39Z</time></trkpt><trkpt lat="43.1158216820044" lon="0.02525944454642863"><ele>402.0</ele><time>2026-05-06T09:29:40Z</time></trkpt><trkpt lat="43.11582688228228" lon="0.025420876170485367"><ele>402.99999999999994</ele><time>2026-05-06T09:29:42Z</time></trkpt><trkpt lat="43.115830017786564" lon="0.025508183555620897"><ele>404.0</ele><time>2026-05-06T09:29:43Z</time></trkpt><trkpt lat="43.11583863757752" lon="0.025599632303927568"><ele>404.0</ele><time>2026-05-06T09:29:44Z</time></trkpt><trkpt lat="43.11582323760082" lon="0.02574546603177433"><ele>404.0</ele><time>2026-05-06T09:29:46Z</time></trkpt><trkpt lat="43.1157721083958" lon="0.02588013566700142"><ele>404.0</ele><time>2026-05-06T09:29:48Z</time></trkpt><trkpt lat="43.11573437221455" lon="0.02604970123608203"><ele>404.0</ele><time>2026-05-06T09:29:50Z</time></trkpt><trkpt lat="43.115715231299745" lon="0.026142679853210452"><ele>404.0</ele><time>2026-05-06T09:29:51Z</time></trkpt><trkpt lat="43.11570012780828" lon="0.026237150049516177"><ele>403.1428571428571</ele><time>2026-05-06T09:29:52Z</time></trkpt><trkpt lat="43.11568906175865" lon="0.026327936759418448"><ele>402.2857142857143</ele><time>2026-05-06T09:29:53Z</time></trkpt><trkpt lat="43.11568359117286" lon="0.02641550378320579"><ele>401.42857142857144</ele><time>2026-05-06T09:29:54Z</time></trkpt><trkpt lat="43.11569771951116" lon="0.026511185852402534"><ele>400.57142857142856</ele><time>2026-05-06T09:29:55Z</time></trkpt><trkpt lat="43.11568062766537" lon="0.026603848861327273"><ele>399.7142857142857</ele><time>2026-05-06T09:29:56Z</time></trkpt><trkpt lat="43.11568647969714" lon="0.026699581674239383"><ele>398.85714285714283</ele><time>2026-05-06T09:29:57Z</time></trkpt><trkpt lat="43.11570947052552" lon="0.026797975140122963"><ele>398.0</ele><time>2026-05-06T09:29:58Z</time></trkpt><trkpt lat="43.115733379485334" lon="0.026982028216936065"><ele>398.49999999999994</ele><time>2026-05-06T09:30:00Z</time></trkpt><trkpt lat="43.11575080191024" lon="0.027078311662029116"><ele>399.0</ele><time>2026-05-06T09:30:01Z</time></trkpt><trkpt lat="43.115768211314965" lon="0.027174523076878187"><ele>399.5</ele><time>2026-05-06T09:30:02Z</time></trkpt><trkpt lat="43.11578562878255" lon="0.02726291212291953"><ele>400.0</ele><time>2026-05-06T09:30:03Z</time></trkpt><trkpt lat="43.1158035150939" lon="0.027356123106171294"><ele>400.49999999999994</ele><time>2026-05-06T09:30:04Z</time></trkpt><trkpt lat="43.115850060208" lon="0.02752291480328282"><ele>401.0</ele><time>2026-05-06T09:30:06Z</time></trkpt><trkpt lat="43.11586191037409" lon="0.0276106192898371"><ele>400.99999999999994</ele><time>2026-05-06T09:30:07Z</time></trkpt><trkpt lat="43.11587034435747" lon="0.027704390601391623"><ele>401.0</ele><time>2026-05-06T09:30:08Z</time></trkpt><trkpt lat="43.11588644381858" lon="0.027788289754501545"><ele>401.0</ele><time>2026-05-06T09:30:09Z</time></trkpt><trkpt lat="43.11591218481216" lon="0.027954582219269646"><ele>401.0</ele><time>2026-05-06T09:30:11Z</time></trkpt><trkpt lat="43.11593551188115" lon="0.028041465983731258"><ele>400.99999999999994</ele><time>2026-05-06T09:30:12Z</time></trkpt><trkpt lat="43.11595549956854" lon="0.02812329171594422"><ele>401.0</ele><time>2026-05-06T09:30:13Z</time></trkpt><trkpt lat="43.11598322783315" lon="0.028278306681342496"><ele>400.6</ele><time>2026-05-06T09:30:15Z</time></trkpt><trkpt lat="43.116010239292365" lon="0.028434350654882257"><ele>400.20000000000005</ele><time>2026-05-06T09:30:17Z</time></trkpt><trkpt lat="43.116036293164974" lon="0.028579585224318745"><ele>399.79999999999995</ele><time>2026-05-06T09:30:19Z</time></trkpt><trkpt lat="43.11607439186341" lon="0.02872683994126166"><ele>399.4</ele><time>2026-05-06T09:30:21Z</time></trkpt><trkpt lat="43.11610121365602" lon="0.028864440632125857"><ele>399.0</ele><time>2026-05-06T09:30:23Z</time></trkpt><trkpt lat="43.11612888222949" lon="0.02900246560690239"><ele>399.0</ele><time>2026-05-06T09:30:25Z</time></trkpt><trkpt lat="43.11616337091192" lon="0.02914228257072872"><ele>399.0</ele><time>2026-05-06T09:30:27Z</time></trkpt><trkpt lat="43.116198515732094" lon="0.02927964563701344"><ele>399.0</ele><time>2026-05-06T09:30:29Z</time></trkpt><trkpt lat="43.11623638646032" lon="0.029419163367733297"><ele>399.0</ele><time>2026-05-06T09:30:31Z</time></trkpt><trkpt lat="43.116273792934976" lon="0.029567095232150814"><ele>399.0</ele><time>2026-05-06T09:30:33Z</time></trkpt><trkpt lat="43.11631236117797" lon="0.02972162124634128"><ele>399.0</ele><time>2026-05-06T09:30:35Z</time></trkpt><trkpt lat="43.11635557439011" lon="0.029887679112137137"><ele>399.0</ele><time>2026-05-06T09:30:37Z</time></trkpt><trkpt lat="43.11637271686085" lon="0.029972399246825092"><ele>399.0</ele><time>2026-05-06T09:30:38Z</time></trkpt><trkpt lat="43.11639073129741" lon="0.03005947597693673"><ele>399.0</ele><time>2026-05-06T09:30:39Z</time></trkpt><trkpt lat="43.11641148836933" lon="0.03014638268594803"><ele>399.0</ele><time>2026-05-06T09:30:40Z</time></trkpt><trkpt lat="43.116437890086374" lon="0.03023742915566438"><ele>399.0</ele><time>2026-05-06T09:30:41Z</time></trkpt><trkpt lat="43.11645363157075" lon="0.030325581908715846"><ele>398.7142857142857</ele><time>2026-05-06T09:30:42Z</time></trkpt><trkpt lat="43.116478031559325" lon="0.030418332535126526"><ele>398.42857142857144</ele><time>2026-05-06T09:30:43Z</time></trkpt><trkpt lat="43.11649413977033" lon="0.030512414035659116"><ele>398.1428571428571</ele><time>2026-05-06T09:30:44Z</time></trkpt><trkpt lat="43.116512278125235" lon="0.03060942847150028"><ele>397.8571428571429</ele><time>2026-05-06T09:30:45Z</time></trkpt><trkpt lat="43.116524431103684" lon="0.030702946182496083"><ele>397.57142857142856</ele><time>2026-05-06T09:30:46Z</time></trkpt><trkpt lat="43.1165345069442" lon="0.03080160623350598"><ele>397.2857142857143</ele><time>2026-05-06T09:30:47Z</time></trkpt><trkpt lat="43.11653962953504" lon="0.030905520277755134"><ele>397.0</ele><time>2026-05-06T09:30:48Z</time></trkpt><trkpt lat="43.1165438965088" lon="0.031004668197117686"><ele>397.1666666666667</ele><time>2026-05-06T09:30:49Z</time></trkpt><trkpt lat="43.11655289183622" lon="0.031112084628913596"><ele>397.33333333333337</ele><time>2026-05-06T09:30:50Z</time></trkpt><trkpt lat="43.11655763629467" lon="0.03122028527515933"><ele>397.5</ele><time>2026-05-06T09:30:51Z</time></trkpt><trkpt lat="43.11656281942527" lon="0.03133360783716176"><ele>397.66666666666663</ele><time>2026-05-06T09:30:52Z</time></trkpt><trkpt lat="43.1165649871594" lon="0.03144703709284546"><ele>397.8333333333333</ele><time>2026-05-06T09:30:53Z</time></trkpt><trkpt lat="43.11656663589108" lon="0.03156395132786608"><ele>398.0</ele><time>2026-05-06T09:30:54Z</time></trkpt><trkpt lat="43.11657564189518" lon="0.031689012562888724"><ele>398.0</ele><time>2026-05-06T09:30:55Z</time></trkpt><trkpt lat="43.11658298488497" lon="0.031808649055127376"><ele>398.0</ele><time>2026-05-06T09:30:56Z</time></trkpt><trkpt lat="43.11658815283298" lon="0.03193236062338549"><ele>398.0</ele><time>2026-05-06T09:30:57Z</time></trkpt><trkpt lat="43.11660242102386" lon="0.03205873021938608"><ele>398.0</ele><time>2026-05-06T09:30:58Z</time></trkpt><trkpt lat="43.116614146972736" lon="0.03218101341534997"><ele>398.0</ele><time>2026-05-06T09:30:59Z</time></trkpt><trkpt lat="43.11662203984982" lon="0.032301823395827337"><ele>397.99999999999994</ele><time>2026-05-06T09:31:00Z</time></trkpt><trkpt lat="43.11663005563225" lon="0.03242216070938682"><ele>398.0</ele><time>2026-05-06T09:31:01Z</time></trkpt><trkpt lat="43.116642096816015" lon="0.03254074152181432"><ele>398.0</ele><time>2026-05-06T09:31:02Z</time></trkpt><trkpt lat="43.11665266970329" lon="0.03265319602490278"><ele>398.0</ele><time>2026-05-06T09:31:03Z</time></trkpt><trkpt lat="43.116661336305974" lon="0.03276713623362527"><ele>397.99999999999994</ele><time>2026-05-06T09:31:04Z</time></trkpt><trkpt lat="43.11667287187885" lon="0.03288328594499497"><ele>398.0</ele><time>2026-05-06T09:31:05Z</time></trkpt><trkpt lat="43.11667466710902" lon="0.03299362913523308"><ele>397.8333333333333</ele><time>2026-05-06T09:31:06Z</time></trkpt><trkpt lat="43.116675766200345" lon="0.03310337019782262"><ele>397.66666666666663</ele><time>2026-05-06T09:31:07Z</time></trkpt><trkpt lat="43.116672608797074" lon="0.033210256466109866"><ele>397.5</ele><time>2026-05-06T09:31:08Z</time></trkpt><trkpt lat="43.11666881062593" lon="0.033316715905132264"><ele>397.33333333333337</ele><time>2026-05-06T09:31:09Z</time></trkpt><trkpt lat="43.116667515728366" lon="0.03342438063018972"><ele>397.1666666666667</ele><time>2026-05-06T09:31:10Z</time></trkpt><trkpt lat="43.116668140208965" lon="0.0335354004141065"><ele>397.0</ele><time>2026-05-06T09:31:11Z</time></trkpt><trkpt lat="43.11666680289084" lon="0.03364863653214007"><ele>396.83333333333337</ele><time>2026-05-06T09:31:12Z</time></trkpt><trkpt lat="43.11666572794401" lon="0.03376033247461553"><ele>396.6666666666667</ele><time>2026-05-06T09:31:13Z</time></trkpt><trkpt lat="43.11666479384826" lon="0.033874948134369635"><ele>396.5</ele><time>2026-05-06T09:31:14Z</time></trkpt><trkpt lat="43.11666996001624" lon="0.033989942348672364"><ele>396.33333333333337</ele><time>2026-05-06T09:31:15Z</time></trkpt><trkpt lat="43.11667353839187" lon="0.034106594383669184"><ele>396.1666666666667</ele><time>2026-05-06T09:31:16Z</time></trkpt><trkpt lat="43.116680582551176" lon="0.03422342077946289"><ele>396.0</ele><time>2026-05-06T09:31:17Z</time></trkpt><trkpt lat="43.11669029806406" lon="0.03433943694500943"><ele>396.0</ele><time>2026-05-06T09:31:18Z</time></trkpt><trkpt lat="43.11670432498919" lon="0.034458223511867024"><ele>396.0</ele><time>2026-05-06T09:31:19Z</time></trkpt><trkpt lat="43.116721413758455" lon="0.034574477269531625"><ele>396.0</ele><time>2026-05-06T09:31:20Z</time></trkpt><trkpt lat="43.11673845433493" lon="0.0346917741314024"><ele>396.0</ele><time>2026-05-06T09:31:21Z</time></trkpt><trkpt lat="43.116760912871314" lon="0.03481150314175013"><ele>396.0</ele><time>2026-05-06T09:31:22Z</time></trkpt><trkpt lat="43.11678405801714" lon="0.034932865674331244"><ele>396.0</ele><time>2026-05-06T09:31:23Z</time></trkpt><trkpt lat="43.11680689654842" lon="0.03505323438364987"><ele>395.4</ele><time>2026-05-06T09:31:24Z</time></trkpt><trkpt lat="43.116830490514566" lon="0.03517621713319087"><ele>394.8</ele><time>2026-05-06T09:31:25Z</time></trkpt><trkpt lat="43.11685389181641" lon="0.035299157732370384"><ele>394.2</ele><time>2026-05-06T09:31:26Z</time></trkpt><trkpt lat="43.116876539036596" lon="0.03542402290615485"><ele>393.59999999999997</ele><time>2026-05-06T09:31:27Z</time></trkpt><trkpt lat="43.11689791080348" lon="0.035549300894417706"><ele>393.0</ele><time>2026-05-06T09:31:28Z</time></trkpt><trkpt lat="43.116918611601335" lon="0.035674594458453626"><ele>392.2</ele><time>2026-05-06T09:31:29Z</time></trkpt><trkpt lat="43.11694412970503" lon="0.03580770770320239"><ele>391.4</ele><time>2026-05-06T09:31:30Z</time></trkpt><trkpt lat="43.11697112180138" lon="0.03593919991673499"><ele>390.59999999999997</ele><time>2026-05-06T09:31:31Z</time></trkpt><trkpt lat="43.11699237058138" lon="0.03606643453519985"><ele>389.79999999999995</ele><time>2026-05-06T09:31:32Z</time></trkpt><trkpt lat="43.11701601614046" lon="0.03619268589547356"><ele>389.0</ele><time>2026-05-06T09:31:33Z</time></trkpt><trkpt lat="43.11705169414205" lon="0.03633635920407484"><ele>389.0</ele><time>2026-05-06T09:31:34Z</time></trkpt><trkpt lat="43.117087895740625" lon="0.03647527953764454"><ele>389.0</ele><time>2026-05-06T09:31:35Z</time></trkpt><trkpt lat="43.11712683416232" lon="0.03661538767090865"><ele>389.0</ele><time>2026-05-06T09:31:36Z</time></trkpt><trkpt lat="43.117169676869246" lon="0.036753901406978796"><ele>389.0</ele><time>2026-05-06T09:31:37Z</time></trkpt><trkpt lat="43.11722016811909" lon="0.03688411604682572"><ele>389.0</ele><time>2026-05-06T09:31:38Z</time></trkpt><trkpt lat="43.117276816212375" lon="0.03700731210994941"><ele>388.6</ele><time>2026-05-06T09:31:39Z</time></trkpt><trkpt lat="43.11733716194678" lon="0.037126741083569906"><ele>388.2</ele><time>2026-05-06T09:31:40Z</time></trkpt><trkpt lat="43.117396698133426" lon="0.03723756361844509"><ele>387.8</ele><time>2026-05-06T09:31:41Z</time></trkpt><trkpt lat="43.11745714559327" lon="0.0373437880153926"><ele>387.40000000000003</ele><time>2026-05-06T09:31:42Z</time></trkpt><trkpt lat="43.11751831133333" lon="0.03745365601149647"><ele>387.0</ele><time>2026-05-06T09:31:43Z</time></trkpt><trkpt lat="43.11757513925101" lon="0.03755633855465905"><ele>386.5</ele><time>2026-05-06T09:31:44Z</time></trkpt><trkpt lat="43.11762922272095" lon="0.037658082511369005"><ele>386.0</ele><time>2026-05-06T09:31:45Z</time></trkpt><trkpt lat="43.11768484565109" lon="0.03775566782917856"><ele>385.5</ele><time>2026-05-06T09:31:46Z</time></trkpt><trkpt lat="43.11773552674931" lon="0.037851841765337825"><ele>385.0</ele><time>2026-05-06T09:31:47Z</time></trkpt><trkpt lat="43.11777913253409" lon="0.03794667895314952"><ele>384.5</ele><time>2026-05-06T09:31:48Z</time></trkpt><trkpt lat="43.11783050045061" lon="0.038039111638149374"><ele>384.0</ele><time>2026-05-06T09:31:49Z</time></trkpt><trkpt lat="43.117880270387985" lon="0.03813406828885104"><ele>384.0</ele><time>2026-05-06T09:31:50Z</time></trkpt><trkpt lat="43.117927368054545" lon="0.038226839231785464"><ele>384.0</ele><time>2026-05-06T09:31:51Z</time></trkpt><trkpt lat="43.117974327463884" lon="0.038321839169190124"><ele>384.0</ele><time>2026-05-06T09:31:52Z</time></trkpt><trkpt lat="43.11801808723165" lon="0.038414484209890735"><ele>384.0</ele><time>2026-05-06T09:31:53Z</time></trkpt><trkpt lat="43.118063360313606" lon="0.03851460121592519"><ele>384.0</ele><time>2026-05-06T09:31:54Z</time></trkpt><trkpt lat="43.1181016676254" lon="0.038620773651440364"><ele>384.0</ele><time>2026-05-06T09:31:55Z</time></trkpt><trkpt lat="43.11813854603346" lon="0.03872895610310995"><ele>384.0</ele><time>2026-05-06T09:31:56Z</time></trkpt><trkpt lat="43.11818247546766" lon="0.0388339617369969"><ele>384.0</ele><time>2026-05-06T09:31:57Z</time></trkpt><trkpt lat="43.11824211224738" lon="0.03892822577911475"><ele>384.0</ele><time>2026-05-06T09:31:58Z</time></trkpt><trkpt lat="43.11831120107663" lon="0.039008249465740025"><ele>384.0</ele><time>2026-05-06T09:31:59Z</time></trkpt><trkpt lat="43.11839095587671" lon="0.03907017726296718"><ele>384.0</ele><time>2026-05-06T09:32:00Z</time></trkpt><trkpt lat="43.11847541486528" lon="0.03910194615264597"><ele>384.0</ele><time>2026-05-06T09:32:01Z</time></trkpt><trkpt lat="43.11855931000594" lon="0.03911861081025519"><ele>383.8333333333333</ele><time>2026-05-06T09:32:02Z</time></trkpt><trkpt lat="43.11864652529749" lon="0.03912403052973231"><ele>383.6666666666667</ele><time>2026-05-06T09:32:03Z</time></trkpt><trkpt lat="43.11872454119132" lon="0.03911593209191771"><ele>383.5</ele><time>2026-05-06T09:32:04Z</time></trkpt><trkpt lat="43.11879872300988" lon="0.03911219256035915"><ele>383.33333333333337</ele><time>2026-05-06T09:32:05Z</time></trkpt><trkpt lat="43.118882614995464" lon="0.039103708756926245"><ele>383.1666666666667</ele><time>2026-05-06T09:32:06Z</time></trkpt><trkpt lat="43.11896240954447" lon="0.03909300960133014"><ele>383.0</ele><time>2026-05-06T09:32:07Z</time></trkpt><trkpt lat="43.11904565117785" lon="0.03907980001550484"><ele>382.5</ele><time>2026-05-06T09:32:08Z</time></trkpt><trkpt lat="43.11912549729312" lon="0.03906430140516759"><ele>382.0</ele><time>2026-05-06T09:32:09Z</time></trkpt><trkpt lat="43.119205103409094" lon="0.039052281039901354"><ele>381.5</ele><time>2026-05-06T09:32:10Z</time></trkpt><trkpt lat="43.119281848110916" lon="0.039045794981958655"><ele>381.0</ele><time>2026-05-06T09:32:11Z</time></trkpt><trkpt lat="43.11935979503392" lon="0.03903466623056763"><ele>380.5</ele><time>2026-05-06T09:32:12Z</time></trkpt><trkpt lat="43.11943558961987" lon="0.03902022913758449"><ele>380.0</ele><time>2026-05-06T09:32:13Z</time></trkpt><trkpt lat="43.1195117114317" lon="0.0390029442173967"><ele>380.0</ele><time>2026-05-06T09:32:14Z</time></trkpt><trkpt lat="43.11958446918214" lon="0.03898956699700705"><ele>380.0</ele><time>2026-05-06T09:32:15Z</time></trkpt><trkpt lat="43.11965426869678" lon="0.038976373983199954"><ele>380.0</ele><time>2026-05-06T09:32:16Z</time></trkpt><trkpt lat="43.11972675073177" lon="0.038968649162692506"><ele>380.0</ele><time>2026-05-06T09:32:17Z</time></trkpt><trkpt lat="43.11979824074957" lon="0.038960140053458166"><ele>380.0</ele><time>2026-05-06T09:32:18Z</time></trkpt><trkpt lat="43.11986549591892" lon="0.038944134603434204"><ele>380.0</ele><time>2026-05-06T09:32:19Z</time></trkpt><trkpt lat="43.11992992509524" lon="0.038938147047672816"><ele>380.0</ele><time>2026-05-06T09:32:20Z</time></trkpt><trkpt lat="43.11999659004806" lon="0.03892528901843797"><ele>380.14285714285717</ele><time>2026-05-06T09:32:21Z</time></trkpt><trkpt lat="43.12006049275978" lon="0.038911527350246666"><ele>380.28571428571433</ele><time>2026-05-06T09:32:22Z</time></trkpt><trkpt lat="43.1201257338047" lon="0.038898752610224845"><ele>380.42857142857144</ele><time>2026-05-06T09:32:23Z</time></trkpt><trkpt lat="43.12019101677233" lon="0.03887584727611073"><ele>380.57142857142856</ele><time>2026-05-06T09:32:24Z</time></trkpt><trkpt lat="43.12025641058872" lon="0.0388519028073722"><ele>380.7142857142857</ele><time>2026-05-06T09:32:25Z</time></trkpt><trkpt lat="43.12032291833655" lon="0.038826554582232525"><ele>380.85714285714283</ele><time>2026-05-06T09:32:26Z</time></trkpt><trkpt lat="43.120393691875535" lon="0.03879080855297057"><ele>381.0</ele><time>2026-05-06T09:32:27Z</time></trkpt><trkpt lat="43.120458355015" lon="0.03876610982636413"><ele>381.0</ele><time>2026-05-06T09:32:28Z</time></trkpt><trkpt lat="43.1205232208397" lon="0.038751584038088364"><ele>381.0</ele><time>2026-05-06T09:32:29Z</time></trkpt><trkpt lat="43.12059067597852" lon="0.03872823809476468"><ele>381.0</ele><time>2026-05-06T09:32:30Z</time></trkpt><trkpt lat="43.12065440680618" lon="0.03871704828131586"><ele>381.0</ele><time>2026-05-06T09:32:31Z</time></trkpt><trkpt lat="43.12072511805242" lon="0.03870107151532025"><ele>381.0</ele><time>2026-05-06T09:32:32Z</time></trkpt><trkpt lat="43.12079491918959" lon="0.03868882971400342"><ele>381.0</ele><time>2026-05-06T09:32:33Z</time></trkpt><trkpt lat="43.120865486710095" lon="0.03867697937804577"><ele>381.0</ele><time>2026-05-06T09:32:34Z</time></trkpt><trkpt lat="43.120936207273395" lon="0.03867251165431056"><ele>381.0</ele><time>2026-05-06T09:32:35Z</time></trkpt><trkpt lat="43.1210132782738" lon="0.038664299840137556"><ele>381.0</ele><time>2026-05-06T09:32:36Z</time></trkpt><trkpt lat="43.12109454440956" lon="0.038660913456004815"><ele>381.0</ele><time>2026-05-06T09:32:37Z</time></trkpt><trkpt lat="43.12117898844471" lon="0.03867098753254743"><ele>381.0</ele><time>2026-05-06T09:32:38Z</time></trkpt><trkpt lat="43.12126131090461" lon="0.038691347302788726"><ele>381.0</ele><time>2026-05-06T09:32:39Z</time></trkpt><trkpt lat="43.12134755847121" lon="0.038715813289405016"><ele>381.0</ele><time>2026-05-06T09:32:40Z</time></trkpt><trkpt lat="43.1214350697903" lon="0.03874752134203886"><ele>381.0</ele><time>2026-05-06T09:32:41Z</time></trkpt><trkpt lat="43.12151144308743" lon="0.03879027993330964"><ele>381.0</ele><time>2026-05-06T09:32:42Z</time></trkpt><trkpt lat="43.12158361839597" lon="0.03884683126452834"><ele>381.0</ele><time>2026-05-06T09:32:43Z</time></trkpt><trkpt lat="43.12165606215448" lon="0.03890036492416325"><ele>381.0</ele><time>2026-05-06T09:32:44Z</time></trkpt><trkpt lat="43.12172612182976" lon="0.03895676515814817"><ele>381.0</ele><time>2026-05-06T09:32:45Z</time></trkpt><trkpt lat="43.12180698422299" lon="0.038997553259346576"><ele>381.0</ele><time>2026-05-06T09:32:46Z</time></trkpt><trkpt lat="43.121873872247285" lon="0.039049696530446515"><ele>379.8333333333333</ele><time>2026-05-06T09:32:47Z</time></trkpt><trkpt lat="43.1219266714132" lon="0.03910462923188706"><ele>378.6666666666667</ele><time>2026-05-06T09:32:48Z</time></trkpt><trkpt lat="43.12200128795045" lon="0.03915556169599882"><ele>377.5</ele><time>2026-05-06T09:32:49Z</time></trkpt><trkpt lat="43.12207143676423" lon="0.03920585149674433"><ele>376.33333333333337</ele><time>2026-05-06T09:32:50Z</time></trkpt><trkpt lat="43.122135356369704" lon="0.03925299248212919"><ele>375.1666666666667</ele><time>2026-05-06T09:32:51Z</time></trkpt><trkpt lat="43.12219914426179" lon="0.039302352396494954"><ele>374.0</ele><time>2026-05-06T09:32:52Z</time></trkpt><trkpt lat="43.122323209361" lon="0.03939661092206148"><ele>374.0</ele><time>2026-05-06T09:32:54Z</time></trkpt><trkpt lat="43.122391215497174" lon="0.039426201874786515"><ele>374.0</ele><time>2026-05-06T09:32:55Z</time></trkpt><trkpt lat="43.12250018470511" lon="0.03948405721542432"><ele>374.0</ele><time>2026-05-06T09:32:57Z</time></trkpt><trkpt lat="43.12256696944924" lon="0.039500042637638136"><ele>374.0</ele><time>2026-05-06T09:32:58Z</time></trkpt><trkpt lat="43.122679325450534" lon="0.0395337150451139"><ele>374.0</ele><time>2026-05-06T09:33:00Z</time></trkpt><trkpt lat="43.12278880037334" lon="0.03953227142785255"><ele>373.79999999999995</ele><time>2026-05-06T09:33:02Z</time></trkpt><trkpt lat="43.12289695627419" lon="0.039526104043886685"><ele>373.59999999999997</ele><time>2026-05-06T09:33:04Z</time></trkpt><trkpt lat="43.12300455889197" lon="0.03948022301019499"><ele>373.4</ele><time>2026-05-06T09:33:06Z</time></trkpt><trkpt lat="43.123108451321265" lon="0.039413870602665414"><ele>373.2</ele><time>2026-05-06T09:33:08Z</time></trkpt><trkpt lat="43.123212779408284" lon="0.03936109478031099"><ele>373.0</ele><time>2026-05-06T09:33:10Z</time></trkpt><trkpt lat="43.123327209557175" lon="0.039312705969512605"><ele>372.79999999999995</ele><time>2026-05-06T09:33:12Z</time></trkpt><trkpt lat="43.12343917352542" lon="0.03929189027874481"><ele>372.6</ele><time>2026-05-06T09:33:14Z</time></trkpt><trkpt lat="43.123547933102905" lon="0.03929920423590795"><ele>372.4</ele><time>2026-05-06T09:33:16Z</time></trkpt><trkpt lat="43.1236456579788" lon="0.039324059795747726"><ele>372.20000000000005</ele><time>2026-05-06T09:33:18Z</time></trkpt><trkpt lat="43.12375010079585" lon="0.03933518227972962"><ele>372.0</ele><time>2026-05-06T09:33:20Z</time></trkpt><trkpt lat="43.12384789045289" lon="0.0393514470017731"><ele>372.0</ele><time>2026-05-06T09:33:22Z</time></trkpt><trkpt lat="43.12394774548392" lon="0.03937216209920433"><ele>372.0</ele><time>2026-05-06T09:33:24Z</time></trkpt><trkpt lat="43.12403966633291" lon="0.039377125371282594"><ele>372.0</ele><time>2026-05-06T09:33:26Z</time></trkpt><trkpt lat="43.124124711159475" lon="0.039388585270367316"><ele>372.0</ele><time>2026-05-06T09:33:28Z</time></trkpt><trkpt lat="43.12422047189814" lon="0.03939311539903143"><ele>372.0</ele><time>2026-05-06T09:33:30Z</time></trkpt><trkpt lat="43.12431322499847" lon="0.039383688350422594"><ele>372.1666666666667</ele><time>2026-05-06T09:33:32Z</time></trkpt><trkpt lat="43.12439616979363" lon="0.03938286502360113"><ele>372.3333333333333</ele><time>2026-05-06T09:33:34Z</time></trkpt><trkpt lat="43.12448256393918" lon="0.03935724885008165"><ele>372.5</ele><time>2026-05-06T09:33:36Z</time></trkpt><trkpt lat="43.124576835310116" lon="0.03934056508555648"><ele>372.66666666666663</ele><time>2026-05-06T09:33:38Z</time></trkpt><trkpt lat="43.12466319218295" lon="0.03932296836683622"><ele>372.8333333333333</ele><time>2026-05-06T09:33:40Z</time></trkpt><trkpt lat="43.124750407403354" lon="0.03931900957431454"><ele>373.0</ele><time>2026-05-06T09:33:42Z</time></trkpt><trkpt lat="43.12484238868349" lon="0.039313500076682495"><ele>373.4</ele><time>2026-05-06T09:33:44Z</time></trkpt><trkpt lat="43.124936620799204" lon="0.03931820173835678"><ele>373.79999999999995</ele><time>2026-05-06T09:33:46Z</time></trkpt><trkpt lat="43.12503037045465" lon="0.03932342910896551"><ele>374.2</ele><time>2026-05-06T09:33:48Z</time></trkpt><trkpt lat="43.12513296887977" lon="0.03937111443979544"><ele>374.6</ele><time>2026-05-06T09:33:50Z</time></trkpt><trkpt lat="43.125216028789694" lon="0.03937473823563814"><ele>375.0</ele><time>2026-05-06T09:33:52Z</time></trkpt><trkpt lat="43.12530837974912" lon="0.0393934158069789"><ele>375.0</ele><time>2026-05-06T09:33:54Z</time></trkpt><trkpt lat="43.1253989696076" lon="0.03941458076088682"><ele>375.0</ele><time>2026-05-06T09:33:56Z</time></trkpt><trkpt lat="43.12549156198463" lon="0.039428213797996305"><ele>375.0</ele><time>2026-05-06T09:33:58Z</time></trkpt><trkpt lat="43.12558327888823" lon="0.039457862115993066"><ele>375.0</ele><time>2026-05-06T09:34:00Z</time></trkpt><trkpt lat="43.12567378740535" lon="0.03948452152256057"><ele>375.0</ele><time>2026-05-06T09:34:02Z</time></trkpt><trkpt lat="43.125768020586655" lon="0.03950662168706415"><ele>375.0</ele><time>2026-05-06T09:34:04Z</time></trkpt><trkpt lat="43.12585656511042" lon="0.039530616982727876"><ele>375.0</ele><time>2026-05-06T09:34:06Z</time></trkpt><trkpt lat="43.12594816617363" lon="0.03955265852940239"><ele>375.0</ele><time>2026-05-06T09:34:08Z</time></trkpt><trkpt lat="43.126077990914496" lon="0.039610670803156826"><ele>375.0</ele><time>2026-05-06T09:34:12Z</time></trkpt><trkpt lat="43.12614523523143" lon="0.03964950850715854"><ele>375.0</ele><time>2026-05-06T09:34:14Z</time></trkpt><trkpt lat="43.12621788492539" lon="0.03970233995345625"><ele>375.0</ele><time>2026-05-06T09:34:15Z</time></trkpt><trkpt lat="43.126309938191596" lon="0.03976482924979361"><ele>375.0</ele><time>2026-05-06T09:34:17Z</time></trkpt><trkpt lat="43.12637662679713" lon="0.03982404180303729"><ele>375.0</ele><time>2026-05-06T09:34:19Z</time></trkpt><trkpt lat="43.12646526072434" lon="0.03987278222670297"><ele>375.0</ele><time>2026-05-06T09:34:21Z</time></trkpt><trkpt lat="43.12654889835585" lon="0.03990011019034882"><ele>375.0</ele><time>2026-05-06T09:34:23Z</time></trkpt><trkpt lat="43.12661403816256" lon="0.03983260260855676"><ele>375.0</ele><time>2026-05-06T09:34:24Z</time></trkpt><trkpt lat="43.12667115474497" lon="0.039703111992081784"><ele>374.8</ele><time>2026-05-06T09:34:26Z</time></trkpt><trkpt lat="43.1267040667176" lon="0.03958071727477943"><ele>374.6</ele><time>2026-05-06T09:34:28Z</time></trkpt><trkpt lat="43.12675140177519" lon="0.03945041500265637"><ele>374.4</ele><time>2026-05-06T09:34:30Z</time></trkpt><trkpt lat="43.12684013715916" lon="0.039444124442817814"><ele>374.2</ele><time>2026-05-06T09:34:32Z</time></trkpt><trkpt lat="43.126904666546885" lon="0.03943809233323659"><ele>374.0</ele><time>2026-05-06T09:34:33Z</time></trkpt><trkpt lat="43.127026533199746" lon="0.03941645207104784"><ele>374.0</ele><time>2026-05-06T09:34:35Z</time></trkpt><trkpt lat="43.12712864325663" lon="0.03941669212869352"><ele>374.0</ele><time>2026-05-06T09:34:37Z</time></trkpt><trkpt lat="43.127243404429564" lon="0.039438527265820277"><ele>374.0</ele><time>2026-05-06T09:34:39Z</time></trkpt><trkpt lat="43.12730903639288" lon="0.03943731356597459"><ele>374.0</ele><time>2026-05-06T09:34:40Z</time></trkpt><trkpt lat="43.127419417831845" lon="0.03942156756899546"><ele>374.0</ele><time>2026-05-06T09:34:42Z</time></trkpt><trkpt lat="43.12753260818377" lon="0.03938712682732115"><ele>373.5</ele><time>2026-05-06T09:34:44Z</time></trkpt><trkpt lat="43.127650033090724" lon="0.03937574340516957"><ele>373.0</ele><time>2026-05-06T09:34:46Z</time></trkpt><trkpt lat="43.12776804162266" lon="0.039346096230123376"><ele>372.5</ele><time>2026-05-06T09:34:48Z</time></trkpt><trkpt lat="43.127873891643816" lon="0.039340535591468724"><ele>372.0</ele><time>2026-05-06T09:34:50Z</time></trkpt><trkpt lat="43.1279943102554" lon="0.03932913666899017"><ele>372.0</ele><time>2026-05-06T09:34:52Z</time></trkpt><trkpt lat="43.12811658688449" lon="0.039312157241349455"><ele>372.0</ele><time>2026-05-06T09:34:54Z</time></trkpt><trkpt lat="43.12822923228583" lon="0.03928997491423162"><ele>372.0</ele><time>2026-05-06T09:34:56Z</time></trkpt><trkpt lat="43.12834312464909" lon="0.0392846235374875"><ele>372.0</ele><time>2026-05-06T09:34:58Z</time></trkpt><trkpt lat="43.12845744581193" lon="0.039272742547248427"><ele>372.0</ele><time>2026-05-06T09:35:00Z</time></trkpt><trkpt lat="43.12857231160278" lon="0.03926223458442854"><ele>372.0</ele><time>2026-05-06T09:35:02Z</time></trkpt><trkpt lat="43.12868510509572" lon="0.039241778260360995"><ele>372.0</ele><time>2026-05-06T09:35:04Z</time></trkpt><trkpt lat="43.12879247892474" lon="0.03921805441738552"><ele>372.0</ele><time>2026-05-06T09:35:06Z</time></trkpt><trkpt lat="43.12885889667183" lon="0.039195476359802014"><ele>372.0</ele><time>2026-05-06T09:35:07Z</time></trkpt><trkpt lat="43.12895375657817" lon="0.03914401907807738"><ele>371.6</ele><time>2026-05-06T09:35:09Z</time></trkpt><trkpt lat="43.12904878994406" lon="0.03910250799363498"><ele>371.20000000000005</ele><time>2026-05-06T09:35:11Z</time></trkpt><trkpt lat="43.12915956209198" lon="0.03902782999370991"><ele>370.8</ele><time>2026-05-06T09:35:13Z</time></trkpt><trkpt lat="43.12925979598285" lon="0.03896029989649683"><ele>370.4</ele><time>2026-05-06T09:35:15Z</time></trkpt><trkpt lat="43.1293256177732" lon="0.038952531762726755"><ele>370.0</ele><time>2026-05-06T09:35:16Z</time></trkpt><trkpt lat="43.12938111222639" lon="0.038911262953634805"><ele>369.8</ele><time>2026-05-06T09:35:17Z</time></trkpt><trkpt lat="43.12948181054741" lon="0.03884368544719436"><ele>369.6</ele><time>2026-05-06T09:35:19Z</time></trkpt><trkpt lat="43.129586962848464" lon="0.03878630359559488"><ele>369.4</ele><time>2026-05-06T09:35:21Z</time></trkpt><trkpt lat="43.12968412952007" lon="0.03872286589825351"><ele>369.2</ele><time>2026-05-06T09:35:23Z</time></trkpt><trkpt lat="43.12976873518163" lon="0.038645445627591195"><ele>369.0</ele><time>2026-05-06T09:35:25Z</time></trkpt><trkpt lat="43.12984471168781" lon="0.03857336678355689"><ele>369.0</ele><time>2026-05-06T09:35:27Z</time></trkpt><trkpt lat="43.12993103218784" lon="0.038524310780094696"><ele>369.0</ele><time>2026-05-06T09:35:29Z</time></trkpt><trkpt lat="43.130022134924054" lon="0.03845973400892303"><ele>369.0</ele><time>2026-05-06T09:35:31Z</time></trkpt><trkpt lat="43.13010652540112" lon="0.038394420898788535"><ele>369.0</ele><time>2026-05-06T09:35:33Z</time></trkpt><trkpt lat="43.13018417886809" lon="0.03832259363136399"><ele>369.0</ele><time>2026-05-06T09:35:35Z</time></trkpt><trkpt lat="43.13028066955865" lon="0.03822448096908526"><ele>369.0</ele><time>2026-05-06T09:35:37Z</time></trkpt><trkpt lat="43.130372873691755" lon="0.038143826495324475"><ele>369.0</ele><time>2026-05-06T09:35:39Z</time></trkpt><trkpt lat="43.13045094578919" lon="0.03806309103213332"><ele>369.0</ele><time>2026-05-06T09:35:41Z</time></trkpt><trkpt lat="43.13052526196212" lon="0.037986094714438756"><ele>369.0</ele><time>2026-05-06T09:35:44Z</time></trkpt><trkpt lat="43.130584053251674" lon="0.03789130435642661"><ele>369.0</ele><time>2026-05-06T09:35:47Z</time></trkpt><trkpt lat="43.130672769641215" lon="0.03782965890691978"><ele>369.75</ele><time>2026-05-06T09:35:49Z</time></trkpt><trkpt lat="43.130737114774625" lon="0.037766782088410535"><ele>370.5</ele><time>2026-05-06T09:35:51Z</time></trkpt><trkpt lat="43.130837473650004" lon="0.03771587806546158"><ele>371.25</ele><time>2026-05-06T09:35:53Z</time></trkpt><trkpt lat="43.13102489722328" lon="0.0375571936215302"><ele>372.0</ele><time>2026-05-06T09:35:55Z</time></trkpt><trkpt lat="43.13111127571897" lon="0.037501362677921764"><ele>372.0</ele><time>2026-05-06T09:35:57Z</time></trkpt><trkpt lat="43.13121106148757" lon="0.037490274031923725"><ele>372.0</ele><time>2026-05-06T09:35:59Z</time></trkpt><trkpt lat="43.13128026497418" lon="0.03749701195253105"><ele>372.0</ele><time>2026-05-06T09:36:00Z</time></trkpt><trkpt lat="43.131400832712195" lon="0.037501979907644305"><ele>372.0</ele><time>2026-05-06T09:36:02Z</time></trkpt><trkpt lat="43.13151253996695" lon="0.037467115753244795"><ele>372.0</ele><time>2026-05-06T09:36:04Z</time></trkpt><trkpt lat="43.131576662701356" lon="0.037472085769991496"><ele>371.3333333333333</ele><time>2026-05-06T09:36:05Z</time></trkpt><trkpt lat="43.13163761073148" lon="0.03744204955855275"><ele>370.6666666666667</ele><time>2026-05-06T09:36:06Z</time></trkpt><trkpt lat="43.13175944331181" lon="0.037412459880913004"><ele>370.0</ele><time>2026-05-06T09:36:08Z</time></trkpt><trkpt lat="43.13182120877452" lon="0.03736848003297368"><ele>369.33333333333337</ele><time>2026-05-06T09:36:09Z</time></trkpt><trkpt lat="43.1318831256792" lon="0.03734359887738146"><ele>368.6666666666667</ele><time>2026-05-06T09:36:10Z</time></trkpt><trkpt lat="43.13199457132339" lon="0.03726111450292397"><ele>368.0</ele><time>2026-05-06T09:36:12Z</time></trkpt><trkpt lat="43.132118728507194" lon="0.03718453572868066"><ele>368.0</ele><time>2026-05-06T09:36:14Z</time></trkpt><trkpt lat="43.13217601392729" lon="0.037137598002232944"><ele>368.0</ele><time>2026-05-06T09:36:15Z</time></trkpt><trkpt lat="43.132277734147" lon="0.037072957966252526"><ele>368.0</ele><time>2026-05-06T09:36:17Z</time></trkpt><trkpt lat="43.132383166976034" lon="0.037002229984312726"><ele>368.0</ele><time>2026-05-06T09:36:19Z</time></trkpt><trkpt lat="43.132482005496435" lon="0.03690735826201129"><ele>368.0</ele><time>2026-05-06T09:36:21Z</time></trkpt><trkpt lat="43.13257833185386" lon="0.03684388781343221"><ele>368.0</ele><time>2026-05-06T09:36:23Z</time></trkpt><trkpt lat="43.13266804310792" lon="0.03676868701621398"><ele>368.0</ele><time>2026-05-06T09:36:25Z</time></trkpt><trkpt lat="43.13275742395742" lon="0.036702906049417124"><ele>368.0</ele><time>2026-05-06T09:36:27Z</time></trkpt><trkpt lat="43.132849903861" lon="0.0366341605679979"><ele>368.0</ele><time>2026-05-06T09:36:29Z</time></trkpt><trkpt lat="43.132936914995895" lon="0.036544206700882764"><ele>368.0</ele><time>2026-05-06T09:36:31Z</time></trkpt><trkpt lat="43.13302509763709" lon="0.03648380937292289"><ele>368.0</ele><time>2026-05-06T09:36:33Z</time></trkpt><trkpt lat="43.13311629748199" lon="0.036416184931471016"><ele>368.0</ele><time>2026-05-06T09:36:35Z</time></trkpt><trkpt lat="43.13320077681035" lon="0.03634829715538524"><ele>368.0</ele><time>2026-05-06T09:36:37Z</time></trkpt><trkpt lat="43.13328550540258" lon="0.03628468017177041"><ele>368.0</ele><time>2026-05-06T09:36:39Z</time></trkpt><trkpt lat="43.13336894005724" lon="0.03622398673447682"><ele>368.0</ele><time>2026-05-06T09:36:41Z</time></trkpt><trkpt lat="43.13345713965362" lon="0.036158811202838335"><ele>368.0</ele><time>2026-05-06T09:36:43Z</time></trkpt><trkpt lat="43.1335368510044" lon="0.03610288568368863"><ele>368.0</ele><time>2026-05-06T09:36:45Z</time></trkpt><trkpt lat="43.133611287272785" lon="0.03604465056323928"><ele>368.0</ele><time>2026-05-06T09:36:47Z</time></trkpt><trkpt lat="43.133689878507845" lon="0.03598214904068896"><ele>368.0</ele><time>2026-05-06T09:36:49Z</time></trkpt><trkpt lat="43.133771131098236" lon="0.03594251507144079"><ele>368.0</ele><time>2026-05-06T09:36:51Z</time></trkpt><trkpt lat="43.13384130381331" lon="0.03587786385375126"><ele>368.0</ele><time>2026-05-06T09:36:53Z</time></trkpt><trkpt lat="43.13391645678161" lon="0.03580960750916838"><ele>368.2</ele><time>2026-05-06T09:36:55Z</time></trkpt><trkpt lat="43.13399540050646" lon="0.03573910064221727"><ele>368.4</ele><time>2026-05-06T09:36:57Z</time></trkpt><trkpt lat="43.13407682356108" lon="0.03566191280408587"><ele>368.59999999999997</ele><time>2026-05-06T09:36:59Z</time></trkpt><trkpt lat="43.134158705130794" lon="0.035582433345624324"><ele>368.79999999999995</ele><time>2026-05-06T09:37:01Z</time></trkpt><trkpt lat="43.13424375462556" lon="0.03550643688209173"><ele>369.0</ele><time>2026-05-06T09:37:03Z</time></trkpt><trkpt lat="43.13432437862496" lon="0.0354390645118276"><ele>369.0</ele><time>2026-05-06T09:37:05Z</time></trkpt><trkpt lat="43.134419542381906" lon="0.035370776048034444"><ele>369.0</ele><time>2026-05-06T09:37:07Z</time></trkpt><trkpt lat="43.13451205522423" lon="0.035299209378925195"><ele>369.0</ele><time>2026-05-06T09:37:09Z</time></trkpt><trkpt lat="43.13460220892803" lon="0.03522879497461344"><ele>369.0</ele><time>2026-05-06T09:37:11Z</time></trkpt><trkpt lat="43.13471907524602" lon="0.035190324851264"><ele>369.0</ele><time>2026-05-06T09:37:14Z</time></trkpt><trkpt lat="43.13479201410765" lon="0.035156365584025774"><ele>369.25</ele><time>2026-05-06T09:37:15Z</time></trkpt><trkpt lat="43.134892470248516" lon="0.035084282792374036"><ele>369.5</ele><time>2026-05-06T09:37:17Z</time></trkpt><trkpt lat="43.134987773447065" lon="0.0350289416140452"><ele>369.75</ele><time>2026-05-06T09:37:19Z</time></trkpt><trkpt lat="43.13509537485062" lon="0.034940917772627936"><ele>370.0</ele><time>2026-05-06T09:37:21Z</time></trkpt><trkpt lat="43.13520143891713" lon="0.03487962088120881"><ele>369.2</ele><time>2026-05-06T09:37:23Z</time></trkpt><trkpt lat="43.135301736059674" lon="0.03482154762494864"><ele>368.4</ele><time>2026-05-06T09:37:25Z</time></trkpt><trkpt lat="43.13539734612368" lon="0.03475769936445183"><ele>367.6</ele><time>2026-05-06T09:37:27Z</time></trkpt><trkpt lat="43.13549524457247" lon="0.03470639386086393"><ele>366.8</ele><time>2026-05-06T09:37:29Z</time></trkpt><trkpt lat="43.13558615889212" lon="0.034660064024035694"><ele>366.0</ele><time>2026-05-06T09:37:31Z</time></trkpt><trkpt lat="43.13566919607793" lon="0.03459511707743141"><ele>366.20000000000005</ele><time>2026-05-06T09:37:33Z</time></trkpt><trkpt lat="43.13576200996959" lon="0.03452892503761658"><ele>366.40000000000003</ele><time>2026-05-06T09:37:35Z</time></trkpt><trkpt lat="43.13585151850627" lon="0.03444925663830812"><ele>366.6</ele><time>2026-05-06T09:37:37Z</time></trkpt><trkpt lat="43.135944685708" lon="0.034366152662341096"><ele>366.8</ele><time>2026-05-06T09:37:39Z</time></trkpt><trkpt lat="43.136043066828414" lon="0.034294363452595907"><ele>367.0</ele><time>2026-05-06T09:37:41Z</time></trkpt><trkpt lat="43.13614112301916" lon="0.03419629572956206"><ele>366.0</ele><time>2026-05-06T09:37:43Z</time></trkpt><trkpt lat="43.13623751326789" lon="0.03409162682554914"><ele>365.0</ele><time>2026-05-06T09:37:45Z</time></trkpt><trkpt lat="43.13632865107971" lon="0.0339802172336377"><ele>364.0</ele><time>2026-05-06T09:37:47Z</time></trkpt><trkpt lat="43.13638202075344" lon="0.03392087291742408"><ele>363.0</ele><time>2026-05-06T09:37:48Z</time></trkpt><trkpt lat="43.13647158875619" lon="0.03380872885890895"><ele>362.0</ele><time>2026-05-06T09:37:50Z</time></trkpt><trkpt lat="43.13655228643745" lon="0.03369571464430592"><ele>362.33333333333337</ele><time>2026-05-06T09:37:52Z</time></trkpt><trkpt lat="43.13658731062475" lon="0.03361930391750701"><ele>362.6666666666667</ele><time>2026-05-06T09:37:53Z</time></trkpt><trkpt lat="43.136644193591835" lon="0.03346532630372166"><ele>363.0</ele><time>2026-05-06T09:37:55Z</time></trkpt><trkpt lat="43.13666694599152" lon="0.033381704664297095"><ele>363.3333333333333</ele><time>2026-05-06T09:37:56Z</time></trkpt><trkpt lat="43.136688594869824" lon="0.03329298693211152"><ele>363.66666666666663</ele><time>2026-05-06T09:37:57Z</time></trkpt><trkpt lat="43.13670864546732" lon="0.033198293729357176"><ele>364.0</ele><time>2026-05-06T09:37:58Z</time></trkpt><trkpt lat="43.1367317082778" lon="0.03310961263688049"><ele>364.0</ele><time>2026-05-06T09:37:59Z</time></trkpt><trkpt lat="43.13675846145519" lon="0.03301562973380459"><ele>364.0</ele><time>2026-05-06T09:38:00Z</time></trkpt><trkpt lat="43.136783835004195" lon="0.03293415195431682"><ele>364.0</ele><time>2026-05-06T09:38:01Z</time></trkpt><trkpt lat="43.13681396478946" lon="0.03283423768527338"><ele>364.0</ele><time>2026-05-06T09:38:02Z</time></trkpt><trkpt lat="43.13684502418406" lon="0.03274662376429563"><ele>364.0</ele><time>2026-05-06T09:38:03Z</time></trkpt><trkpt lat="43.13688750145136" lon="0.03266595698697886"><ele>364.0</ele><time>2026-05-06T09:38:04Z</time></trkpt><trkpt lat="43.13692144698641" lon="0.03258195927310674"><ele>364.0</ele><time>2026-05-06T09:38:05Z</time></trkpt><trkpt lat="43.13695200198438" lon="0.03250187050209346"><ele>364.0</ele><time>2026-05-06T09:38:06Z</time></trkpt><trkpt lat="43.136994380793176" lon="0.03241991867772488"><ele>364.0</ele><time>2026-05-06T09:38:07Z</time></trkpt><trkpt lat="43.13703136936779" lon="0.032348534769997286"><ele>364.0</ele><time>2026-05-06T09:38:08Z</time></trkpt><trkpt lat="43.13706662306" lon="0.03227634700407952"><ele>364.0</ele><time>2026-05-06T09:38:09Z</time></trkpt><trkpt lat="43.13714558477352" lon="0.032145582130424954"><ele>364.0</ele><time>2026-05-06T09:38:11Z</time></trkpt><trkpt lat="43.137190148995636" lon="0.03207462424250513"><ele>364.0</ele><time>2026-05-06T09:38:12Z</time></trkpt><trkpt lat="43.13726631903991" lon="0.03194184475850856"><ele>364.0</ele><time>2026-05-06T09:38:14Z</time></trkpt><trkpt lat="43.137343595531426" lon="0.03183496189451605"><ele>364.0</ele><time>2026-05-06T09:38:16Z</time></trkpt><trkpt lat="43.137383308587054" lon="0.031762587010074686"><ele>364.0</ele><time>2026-05-06T09:38:17Z</time></trkpt><trkpt lat="43.13746152243056" lon="0.03161385309214619"><ele>364.0</ele><time>2026-05-06T09:38:19Z</time></trkpt><trkpt lat="43.13753491379612" lon="0.03150737206430472"><ele>364.0</ele><time>2026-05-06T09:38:21Z</time></trkpt><trkpt lat="43.13760622243153" lon="0.03139919296326678"><ele>363.4</ele><time>2026-05-06T09:38:23Z</time></trkpt><trkpt lat="43.137683926392725" lon="0.03128387115459036"><ele>362.79999999999995</ele><time>2026-05-06T09:38:25Z</time></trkpt><trkpt lat="43.137752236302106" lon="0.031186037734856897"><ele>362.20000000000005</ele><time>2026-05-06T09:38:27Z</time></trkpt><trkpt lat="43.137820723524065" lon="0.031100437396655797"><ele>361.6</ele><time>2026-05-06T09:38:29Z</time></trkpt><trkpt lat="43.13788947093441" lon="0.031008004970831102"><ele>361.0</ele><time>2026-05-06T09:38:31Z</time></trkpt><trkpt lat="43.137946277771704" lon="0.03096825570944908"><ele>361.0</ele><time>2026-05-06T09:38:34Z</time></trkpt><trkpt lat="43.138007375743285" lon="0.03091209917500893"><ele>361.0</ele><time>2026-05-06T09:38:35Z</time></trkpt><trkpt lat="43.13807168610969" lon="0.030811138657358073"><ele>361.0</ele><time>2026-05-06T09:38:37Z</time></trkpt><trkpt lat="43.138153346234475" lon="0.030751233910840222"><ele>361.0</ele><time>2026-05-06T09:38:40Z</time></trkpt><trkpt lat="43.138218943873554" lon="0.030653493440377415"><ele>361.0</ele><time>2026-05-06T09:38:42Z</time></trkpt><trkpt lat="43.13834464436748" lon="0.030440217117033163"><ele>361.20000000000005</ele><time>2026-05-06T09:38:44Z</time></trkpt><trkpt lat="43.138416597247996" lon="0.03033013628248226"><ele>361.40000000000003</ele><time>2026-05-06T09:38:46Z</time></trkpt><trkpt lat="43.138490207983764" lon="0.030218155307219205"><ele>361.6</ele><time>2026-05-06T09:38:48Z</time></trkpt><trkpt lat="43.13855368920132" lon="0.030102933959407226"><ele>361.8</ele><time>2026-05-06T09:38:50Z</time></trkpt><trkpt lat="43.13862043777119" lon="0.029979569056397724"><ele>362.0</ele><time>2026-05-06T09:38:52Z</time></trkpt><trkpt lat="43.138686523426976" lon="0.029856103709593563"><ele>362.0</ele><time>2026-05-06T09:38:54Z</time></trkpt><trkpt lat="43.13876045726471" lon="0.02972726201336674"><ele>362.0</ele><time>2026-05-06T09:38:56Z</time></trkpt><trkpt lat="43.13883296071863" lon="0.02959734245212305"><ele>362.0</ele><time>2026-05-06T09:38:58Z</time></trkpt><trkpt lat="43.13890881944703" lon="0.029481753357337832"><ele>362.0</ele><time>2026-05-06T09:39:00Z</time></trkpt><trkpt lat="43.13897654038617" lon="0.02935495911968219"><ele>362.0</ele><time>2026-05-06T09:39:02Z</time></trkpt><trkpt lat="43.13905451079862" lon="0.029268825695126732"><ele>362.0</ele><time>2026-05-06T09:39:04Z</time></trkpt><trkpt lat="43.139126243940474" lon="0.02914134607465924"><ele>362.0</ele><time>2026-05-06T09:39:06Z</time></trkpt><trkpt lat="43.13919610623282" lon="0.029038544412768517"><ele>362.0</ele><time>2026-05-06T09:39:08Z</time></trkpt><trkpt lat="43.13926596628077" lon="0.028922427171512704"><ele>362.0</ele><time>2026-05-06T09:39:10Z</time></trkpt><trkpt lat="43.13934294024074" lon="0.028796858189658672"><ele>361.8</ele><time>2026-05-06T09:39:12Z</time></trkpt><trkpt lat="43.1394151244154" lon="0.028692395498423805"><ele>361.6</ele><time>2026-05-06T09:39:14Z</time></trkpt><trkpt lat="43.139494156767086" lon="0.028606857371419776"><ele>361.40000000000003</ele><time>2026-05-06T09:39:16Z</time></trkpt><trkpt lat="43.13958321011934" lon="0.02851662721022415"><ele>361.20000000000005</ele><time>2026-05-06T09:39:18Z</time></trkpt><trkpt lat="43.13967733198409" lon="0.028462363269950247"><ele>361.0</ele><time>2026-05-06T09:39:20Z</time></trkpt><trkpt lat="43.13978155487129" lon="0.028429152565358246"><ele>361.0</ele><time>2026-05-06T09:39:22Z</time></trkpt><trkpt lat="43.139881291756616" lon="0.028399799494495784"><ele>361.0</ele><time>2026-05-06T09:39:24Z</time></trkpt><trkpt lat="43.1399821167329" lon="0.028360950680961772"><ele>361.0</ele><time>2026-05-06T09:39:26Z</time></trkpt><trkpt lat="43.14008664519988" lon="0.028315373438878275"><ele>361.0</ele><time>2026-05-06T09:39:28Z</time></trkpt><trkpt lat="43.14018354816073" lon="0.02824473792244632"><ele>361.0</ele><time>2026-05-06T09:39:30Z</time></trkpt><trkpt lat="43.14027661202135" lon="0.02816333459765494"><ele>361.0</ele><time>2026-05-06T09:39:32Z</time></trkpt><trkpt lat="43.140381923130676" lon="0.028072815374334776"><ele>361.0</ele><time>2026-05-06T09:39:34Z</time></trkpt><trkpt lat="43.14048735463669" lon="0.027991293918862358"><ele>361.0</ele><time>2026-05-06T09:39:36Z</time></trkpt><trkpt lat="43.14054335272749" lon="0.027949637893308128"><ele>361.0</ele><time>2026-05-06T09:39:37Z</time></trkpt><trkpt lat="43.14065351630207" lon="0.02788997401508983"><ele>361.0</ele><time>2026-05-06T09:39:39Z</time></trkpt><trkpt lat="43.14076386444996" lon="0.027836133974083323"><ele>360.8571428571429</ele><time>2026-05-06T09:39:41Z</time></trkpt><trkpt lat="43.14082355160682" lon="0.027801592389512596"><ele>360.71428571428567</ele><time>2026-05-06T09:39:42Z</time></trkpt><trkpt lat="43.1409374449957" lon="0.027751430159432173"><ele>360.57142857142856</ele><time>2026-05-06T09:39:44Z</time></trkpt><trkpt lat="43.14099750580195" lon="0.027719914123905787"><ele>360.42857142857144</ele><time>2026-05-06T09:39:45Z</time></trkpt><trkpt lat="43.14105792370031" lon="0.02769043975783091"><ele>360.28571428571433</ele><time>2026-05-06T09:39:46Z</time></trkpt><trkpt lat="43.14112042292818" lon="0.027670030382042594"><ele>360.1428571428571</ele><time>2026-05-06T09:39:47Z</time></trkpt><trkpt lat="43.14118382671064" lon="0.02764630553297778"><ele>360.0</ele><time>2026-05-06T09:39:48Z</time></trkpt><trkpt lat="43.141244232176376" lon="0.027620119361186607"><ele>360.0</ele><time>2026-05-06T09:39:49Z</time></trkpt><trkpt lat="43.141308030093434" lon="0.027583808835375413"><ele>360.0</ele><time>2026-05-06T09:39:50Z</time></trkpt><trkpt lat="43.14137188938427" lon="0.027554998077463547"><ele>360.0</ele><time>2026-05-06T09:39:51Z</time></trkpt><trkpt lat="43.14143326724054" lon="0.027520457742879225"><ele>360.0</ele><time>2026-05-06T09:39:52Z</time></trkpt><trkpt lat="43.14149418119524" lon="0.02749724851638529"><ele>360.0</ele><time>2026-05-06T09:39:53Z</time></trkpt><trkpt lat="43.141617935972775" lon="0.027435619376844186"><ele>360.0</ele><time>2026-05-06T09:39:54.999Z</time></trkpt><trkpt lat="43.14173109579595" lon="0.027365611040591386"><ele>360.0</ele><time>2026-05-06T09:39:56.999Z</time></trkpt><trkpt lat="43.14179086403809" lon="0.02733396655510284"><ele>360.0</ele><time>2026-05-06T09:39:57.999Z</time></trkpt><trkpt lat="43.14189557458016" lon="0.027267874845554107"><ele>360.0</ele><time>2026-05-06T09:39:59.999Z</time></trkpt><trkpt lat="43.14199820031561" lon="0.027189254268263144"><ele>360.0</ele><time>2026-05-06T09:40:01.999Z</time></trkpt><trkpt lat="43.14205455318567" lon="0.02714289575856568"><ele>360.0</ele><time>2026-05-06T09:40:02.999Z</time></trkpt><trkpt lat="43.14214842571841" lon="0.02706319478997147"><ele>360.0</ele><time>2026-05-06T09:40:04.999Z</time></trkpt><trkpt lat="43.14223053665122" lon="0.02693204664659372"><ele>360.0</ele><time>2026-05-06T09:40:07Z</time></trkpt><trkpt lat="43.14226152296984" lon="0.02685237165868459"><ele>360.0</ele><time>2026-05-06T09:40:08Z</time></trkpt><trkpt lat="43.14228633469573" lon="0.02677163885940626"><ele>360.0</ele><time>2026-05-06T09:40:09Z</time></trkpt><trkpt lat="43.14229770604641" lon="0.026675258415921978"><ele>360.0</ele><time>2026-05-06T09:40:10Z</time></trkpt><trkpt lat="43.142311419639576" lon="0.026586134832228835"><ele>360.0</ele><time>2026-05-06T09:40:11Z</time></trkpt><trkpt lat="43.142327046844926" lon="0.026498098758851"><ele>360.0</ele><time>2026-05-06T09:40:12Z</time></trkpt><trkpt lat="43.14234168061214" lon="0.026404272465490937"><ele>360.0</ele><time>2026-05-06T09:40:13Z</time></trkpt><trkpt lat="43.14235901251724" lon="0.026319764242908265"><ele>360.0</ele><time>2026-05-06T09:40:14Z</time></trkpt><trkpt lat="43.14238846712004" lon="0.026233696225040955"><ele>360.0</ele><time>2026-05-06T09:40:15Z</time></trkpt><trkpt lat="43.14248621326565" lon="0.02610183670296738"><ele>360.0</ele><time>2026-05-06T09:40:17Z</time></trkpt><trkpt lat="43.1425507821665" lon="0.026037537645462388"><ele>360.0</ele><time>2026-05-06T09:40:18Z</time></trkpt><trkpt lat="43.14261442262595" lon="0.026014731197648723"><ele>359.85714285714283</ele><time>2026-05-06T09:40:19Z</time></trkpt><trkpt lat="43.14267584528602" lon="0.02598671171767718"><ele>359.7142857142857</ele><time>2026-05-06T09:40:20Z</time></trkpt><trkpt lat="43.14274079959787" lon="0.025964466681838674"><ele>359.57142857142856</ele><time>2026-05-06T09:40:21Z</time></trkpt><trkpt lat="43.142807219024455" lon="0.02593919760528153"><ele>359.42857142857144</ele><time>2026-05-06T09:40:22Z</time></trkpt><trkpt lat="43.14286837193469" lon="0.02591272468561196"><ele>359.28571428571433</ele><time>2026-05-06T09:40:23Z</time></trkpt><trkpt lat="43.14293158033503" lon="0.025884736263775153"><ele>359.14285714285717</ele><time>2026-05-06T09:40:24Z</time></trkpt><trkpt lat="43.1429984946064" lon="0.02585541252071366"><ele>359.0</ele><time>2026-05-06T09:40:25Z</time></trkpt><trkpt lat="43.143064262051176" lon="0.02583569379991735"><ele>359.0</ele><time>2026-05-06T09:40:26Z</time></trkpt><trkpt lat="43.14313032020473" lon="0.025815658785198797"><ele>359.0</ele><time>2026-05-06T09:40:27Z</time></trkpt><trkpt lat="43.1431938928367" lon="0.025776603909940386"><ele>359.0</ele><time>2026-05-06T09:40:28Z</time></trkpt><trkpt lat="43.14325924423744" lon="0.02574190548945306"><ele>359.0</ele><time>2026-05-06T09:40:29Z</time></trkpt><trkpt lat="43.14332457587488" lon="0.025713188778260287"><ele>359.0</ele><time>2026-05-06T09:40:30Z</time></trkpt><trkpt lat="43.14338853401093" lon="0.025694379760007127"><ele>359.0</ele><time>2026-05-06T09:40:31Z</time></trkpt><trkpt lat="43.14345915688846" lon="0.02565220968072682"><ele>359.0</ele><time>2026-05-06T09:40:32Z</time></trkpt><trkpt lat="43.14352241803139" lon="0.025617540376896137"><ele>359.0</ele><time>2026-05-06T09:40:33Z</time></trkpt><trkpt lat="43.14358672198869" lon="0.025587105580962312"><ele>359.0</ele><time>2026-05-06T09:40:34Z</time></trkpt><trkpt lat="43.14365102169203" lon="0.02556032526774988"><ele>359.0</ele><time>2026-05-06T09:40:35Z</time></trkpt><trkpt lat="43.14371599194877" lon="0.025539673365832658"><ele>359.0</ele><time>2026-05-06T09:40:36Z</time></trkpt><trkpt lat="43.14377868859688" lon="0.025510957217433877"><ele>359.0</ele><time>2026-05-06T09:40:37Z</time></trkpt><trkpt lat="43.14384142729717" lon="0.025482906803120185"><ele>359.0</ele><time>2026-05-06T09:40:38Z</time></trkpt><trkpt lat="43.14390588871408" lon="0.025446437542654028"><ele>359.0</ele><time>2026-05-06T09:40:39Z</time></trkpt><trkpt lat="43.143967360264455" lon="0.025423648608742754"><ele>359.0</ele><time>2026-05-06T09:40:40Z</time></trkpt><trkpt lat="43.14403078014165" lon="0.02539944085285626"><ele>359.0</ele><time>2026-05-06T09:40:41Z</time></trkpt><trkpt lat="43.14409648866855" lon="0.025372618571780952"><ele>359.0</ele><time>2026-05-06T09:40:42Z</time></trkpt><trkpt lat="43.144157497775325" lon="0.02534573130747189"><ele>359.0</ele><time>2026-05-06T09:40:43Z</time></trkpt><trkpt lat="43.144224617701184" lon="0.025311161483261988"><ele>359.0</ele><time>2026-05-06T09:40:44Z</time></trkpt><trkpt lat="43.14428994462577" lon="0.02528085084962042"><ele>359.0</ele><time>2026-05-06T09:40:45Z</time></trkpt><trkpt lat="43.14435478734954" lon="0.025249416948748757"><ele>359.0</ele><time>2026-05-06T09:40:46Z</time></trkpt><trkpt lat="43.14442156223802" lon="0.025220437623393394"><ele>358.8571428571429</ele><time>2026-05-06T09:40:47Z</time></trkpt><trkpt lat="43.14448753734001" lon="0.025196108410208255"><ele>358.7142857142857</ele><time>2026-05-06T09:40:48Z</time></trkpt><trkpt lat="43.14455301148327" lon="0.025169549360739625"><ele>358.57142857142856</ele><time>2026-05-06T09:40:49Z</time></trkpt><trkpt lat="43.14461976356731" lon="0.025141484036253534"><ele>358.42857142857144</ele><time>2026-05-06T09:40:50Z</time></trkpt><trkpt lat="43.14468508553663" lon="0.02510721719547905"><ele>358.2857142857143</ele><time>2026-05-06T09:40:51Z</time></trkpt><trkpt lat="43.144750256688546" lon="0.02507139612014479"><ele>358.14285714285717</ele><time>2026-05-06T09:40:52Z</time></trkpt><trkpt lat="43.144815724004516" lon="0.02503755838209014"><ele>358.0</ele><time>2026-05-06T09:40:53Z</time></trkpt><trkpt lat="43.14487739799062" lon="0.025008688774965395"><ele>358.00000000000006</ele><time>2026-05-06T09:40:54Z</time></trkpt><trkpt lat="43.144939073646505" lon="0.02496862358261639"><ele>358.0</ele><time>2026-05-06T09:40:55Z</time></trkpt><trkpt lat="43.14499907942065" lon="0.02493486941823964"><ele>358.0</ele><time>2026-05-06T09:40:56Z</time></trkpt><trkpt lat="43.14506135669276" lon="0.024892794650610745"><ele>358.0</ele><time>2026-05-06T09:40:57Z</time></trkpt><trkpt lat="43.145124509617276" lon="0.024860291092228554"><ele>358.0</ele><time>2026-05-06T09:40:58Z</time></trkpt><trkpt lat="43.14518657726434" lon="0.02482350429297529"><ele>358.00000000000006</ele><time>2026-05-06T09:40:59Z</time></trkpt><trkpt lat="43.145246872267826" lon="0.024782100665385175"><ele>358.0</ele><time>2026-05-06T09:41:00Z</time></trkpt><trkpt lat="43.14530854599685" lon="0.024734571151756264"><ele>358.0</ele><time>2026-05-06T09:41:01Z</time></trkpt><trkpt lat="43.1454249930494" lon="0.024652409859385722"><ele>358.0</ele><time>2026-05-06T09:41:03Z</time></trkpt><trkpt lat="43.14548476942541" lon="0.024611626915601238"><ele>358.0</ele><time>2026-05-06T09:41:04Z</time></trkpt><trkpt lat="43.14554635970636" lon="0.02456958737727158"><ele>358.0</ele><time>2026-05-06T09:41:05Z</time></trkpt><trkpt lat="43.14560763416535" lon="0.02453754552102534"><ele>358.0</ele><time>2026-05-06T09:41:06Z</time></trkpt><trkpt lat="43.14566735154308" lon="0.024488144552323673"><ele>358.0</ele><time>2026-05-06T09:41:07Z</time></trkpt><trkpt lat="43.145729052548326" lon="0.024442596432170557"><ele>358.00000000000006</ele><time>2026-05-06T09:41:08Z</time></trkpt><trkpt lat="43.1457918160495" lon="0.024412300676094317"><ele>358.0</ele><time>2026-05-06T09:41:09Z</time></trkpt><trkpt lat="43.14585321410264" lon="0.02437813396270648"><ele>358.0</ele><time>2026-05-06T09:41:10Z</time></trkpt><trkpt lat="43.14591578690608" lon="0.024348713729471335"><ele>358.0</ele><time>2026-05-06T09:41:11Z</time></trkpt><trkpt lat="43.145978336929176" lon="0.024325825118701145"><ele>358.0</ele><time>2026-05-06T09:41:12Z</time></trkpt><trkpt lat="43.146042662573294" lon="0.02431332199467866"><ele>358.00000000000006</ele><time>2026-05-06T09:41:13Z</time></trkpt><trkpt lat="43.14610613759519" lon="0.024299531313531235"><ele>358.0</ele><time>2026-05-06T09:41:14Z</time></trkpt><trkpt lat="43.14622744689576" lon="0.024265970027227426"><ele>358.0</ele><time>2026-05-06T09:41:16Z</time></trkpt><trkpt lat="43.14629079825866" lon="0.02424733777677441"><ele>358.0</ele><time>2026-05-06T09:41:17Z</time></trkpt><trkpt lat="43.14635409816781" lon="0.024233850816819138"><ele>358.0</ele><time>2026-05-06T09:41:18Z</time></trkpt><trkpt lat="43.14641940399368" lon="0.024216707632566788"><ele>358.0</ele><time>2026-05-06T09:41:19Z</time></trkpt><trkpt lat="43.14648439165668" lon="0.024192054208478135"><ele>358.0</ele><time>2026-05-06T09:41:20Z</time></trkpt><trkpt lat="43.14660684085322" lon="0.024178069770445572"><ele>358.0</ele><time>2026-05-06T09:41:22Z</time></trkpt><trkpt lat="43.14667435500841" lon="0.024160377121415427"><ele>358.0</ele><time>2026-05-06T09:41:23Z</time></trkpt><trkpt lat="43.146742911376954" lon="0.024149427106235223"><ele>358.0</ele><time>2026-05-06T09:41:24Z</time></trkpt><trkpt lat="43.146861981979995" lon="0.024145093942540906"><ele>358.0</ele><time>2026-05-06T09:41:26Z</time></trkpt><trkpt lat="43.14692705333003" lon="0.024135236896480675"><ele>358.0</ele><time>2026-05-06T09:41:27Z</time></trkpt><trkpt lat="43.147054699440574" lon="0.02412959722372613"><ele>358.0</ele><time>2026-05-06T09:41:29Z</time></trkpt><trkpt lat="43.147173403520284" lon="0.0241376494309084"><ele>357.8333333333333</ele><time>2026-05-06T09:41:31Z</time></trkpt><trkpt lat="43.14723949286931" lon="0.024149082803032126"><ele>357.66666666666663</ele><time>2026-05-06T09:41:32Z</time></trkpt><trkpt lat="43.14735937873458" lon="0.0241857565134585"><ele>357.5</ele><time>2026-05-06T09:41:34Z</time></trkpt><trkpt lat="43.14742387981507" lon="0.024214245820627086"><ele>357.3333333333333</ele><time>2026-05-06T09:41:35Z</time></trkpt><trkpt lat="43.14748643846069" lon="0.02423496731155157"><ele>357.1666666666667</ele><time>2026-05-06T09:41:36Z</time></trkpt><trkpt lat="43.14760849712545" lon="0.024267680759227916"><ele>357.0</ele><time>2026-05-06T09:41:38Z</time></trkpt><trkpt lat="43.14767090206283" lon="0.024283614232830285"><ele>356.8</ele><time>2026-05-06T09:41:39Z</time></trkpt><trkpt lat="43.147793249443055" lon="0.02430283982513651"><ele>356.6</ele><time>2026-05-06T09:41:41Z</time></trkpt><trkpt lat="43.14785689724077" lon="0.024315313062801748"><ele>356.40000000000003</ele><time>2026-05-06T09:41:42Z</time></trkpt><trkpt lat="43.14791975772625" lon="0.024324040117719204"><ele>356.20000000000005</ele><time>2026-05-06T09:41:43Z</time></trkpt><trkpt lat="43.1480449607107" lon="0.02434050037995745"><ele>356.0</ele><time>2026-05-06T09:41:45Z</time></trkpt><trkpt lat="43.14817278202395" lon="0.024338963738094074"><ele>355.8</ele><time>2026-05-06T09:41:47Z</time></trkpt><trkpt lat="43.14829894755356" lon="0.024337041564296443"><ele>355.6</ele><time>2026-05-06T09:41:49Z</time></trkpt><trkpt lat="43.148366992798614" lon="0.024323372901264368"><ele>355.4</ele><time>2026-05-06T09:41:50Z</time></trkpt><trkpt lat="43.14843004067146" lon="0.024305630406776853"><ele>355.2</ele><time>2026-05-06T09:41:50.999Z</time></trkpt><trkpt lat="43.148552891452994" lon="0.02426046479516726"><ele>355.0</ele><time>2026-05-06T09:41:52.999Z</time></trkpt><trkpt lat="43.14861843268202" lon="0.024236422384065856"><ele>355.0</ele><time>2026-05-06T09:41:53.999Z</time></trkpt><trkpt lat="43.148683456082225" lon="0.024208028076583354"><ele>355.0</ele><time>2026-05-06T09:41:54.999Z</time></trkpt><trkpt lat="43.14874655373511" lon="0.024183466218581133"><ele>355.0</ele><time>2026-05-06T09:41:55.999Z</time></trkpt><trkpt lat="43.14881817999406" lon="0.024162257681573204"><ele>355.0</ele><time>2026-05-06T09:41:56.999Z</time></trkpt><trkpt lat="43.14888374263627" lon="0.02414343905440194"><ele>355.0</ele><time>2026-05-06T09:41:57.999Z</time></trkpt><trkpt lat="43.14895949857008" lon="0.024131116253416286"><ele>355.0</ele><time>2026-05-06T09:41:58.999Z</time></trkpt><trkpt lat="43.14902742780944" lon="0.024114783466756266"><ele>355.0</ele><time>2026-05-06T09:41:59.999Z</time></trkpt><trkpt lat="43.14910034099543" lon="0.02412077043596915"><ele>355.0</ele><time>2026-05-06T09:42:00.999Z</time></trkpt><trkpt lat="43.14917291488159" lon="0.024118496296608827"><ele>355.0</ele><time>2026-05-06T09:42:01.999Z</time></trkpt><trkpt lat="43.14924087113785" lon="0.024122567389086615"><ele>355.0</ele><time>2026-05-06T09:42:02.999Z</time></trkpt><trkpt lat="43.149315735849655" lon="0.02413817662639835"><ele>355.0</ele><time>2026-05-06T09:42:03.999Z</time></trkpt><trkpt lat="43.149384498443574" lon="0.024147470842696257"><ele>355.0</ele><time>2026-05-06T09:42:04.999Z</time></trkpt><trkpt lat="43.14945056112521" lon="0.024155897971486137"><ele>355.0</ele><time>2026-05-06T09:42:05.999Z</time></trkpt><trkpt lat="43.14951866323466" lon="0.024167506478597924"><ele>355.0</ele><time>2026-05-06T09:42:06.999Z</time></trkpt><trkpt lat="43.14959149627902" lon="0.024175117414401724"><ele>355.0</ele><time>2026-05-06T09:42:07.999Z</time></trkpt><trkpt lat="43.14965994827343" lon="0.024180562412370852"><ele>355.0</ele><time>2026-05-06T09:42:08.999Z</time></trkpt><trkpt lat="43.149729938657224" lon="0.02419242172509991"><ele>355.0</ele><time>2026-05-06T09:42:09.999Z</time></trkpt><trkpt lat="43.149794401720136" lon="0.024200204265343375"><ele>355.0</ele><time>2026-05-06T09:42:10.999Z</time></trkpt><trkpt lat="43.14986365797124" lon="0.024202375137977857"><ele>355.0</ele><time>2026-05-06T09:42:11.999Z</time></trkpt><trkpt lat="43.14999523720563" lon="0.02422670204791454"><ele>355.0</ele><time>2026-05-06T09:42:14Z</time></trkpt><trkpt lat="43.15007308647288" lon="0.024240244102616756"><ele>355.0</ele><time>2026-05-06T09:42:15Z</time></trkpt><trkpt lat="43.15019989272144" lon="0.02424970089926423"><ele>355.0</ele><time>2026-05-06T09:42:17Z</time></trkpt><trkpt lat="43.15032941174519" lon="0.024263278125098972"><ele>355.0</ele><time>2026-05-06T09:42:19Z</time></trkpt><trkpt lat="43.15039407869653" lon="0.02427892590923242"><ele>355.0</ele><time>2026-05-06T09:42:20Z</time></trkpt><trkpt lat="43.150464321188394" lon="0.024279037882871418"><ele>355.0</ele><time>2026-05-06T09:42:21Z</time></trkpt><trkpt lat="43.150535331686854" lon="0.02428693325943474"><ele>355.0</ele><time>2026-05-06T09:42:22Z</time></trkpt><trkpt lat="43.15060684537195" lon="0.02430024262047764"><ele>355.0</ele><time>2026-05-06T09:42:23Z</time></trkpt><trkpt lat="43.15067731089112" lon="0.02431633050308308"><ele>355.0</ele><time>2026-05-06T09:42:24Z</time></trkpt><trkpt lat="43.15074269802893" lon="0.024337595357984486"><ele>355.0</ele><time>2026-05-06T09:42:25Z</time></trkpt><trkpt lat="43.15085904589883" lon="0.024399133526942573"><ele>355.0</ele><time>2026-05-06T09:42:27Z</time></trkpt><trkpt lat="43.15092159712967" lon="0.024371439528759885"><ele>355.0</ele><time>2026-05-06T09:42:28Z</time></trkpt><trkpt lat="43.150985876939636" lon="0.024345980994446435"><ele>354.75</ele><time>2026-05-06T09:42:29Z</time></trkpt><trkpt lat="43.15111572173257" lon="0.024306389392852155"><ele>354.5</ele><time>2026-05-06T09:42:31Z</time></trkpt><trkpt lat="43.151226088577104" lon="0.024291858274259902"><ele>354.25</ele><time>2026-05-06T09:42:33Z</time></trkpt><trkpt lat="43.15132433058048" lon="0.024257433762182243"><ele>354.0</ele><time>2026-05-06T09:42:35Z</time></trkpt><trkpt lat="43.15143944195313" lon="0.024264923598990313"><ele>354.25</ele><time>2026-05-06T09:42:37Z</time></trkpt><trkpt lat="43.151558205588664" lon="0.02426257250958858"><ele>354.5</ele><time>2026-05-06T09:42:39Z</time></trkpt><trkpt lat="43.15167510429024" lon="0.0242675893644315"><ele>354.75</ele><time>2026-05-06T09:42:41Z</time></trkpt><trkpt lat="43.15178555663189" lon="0.024248184963239345"><ele>355.0</ele><time>2026-05-06T09:42:43Z</time></trkpt><trkpt lat="43.15190019033565" lon="0.024276515491751385"><ele>355.0</ele><time>2026-05-06T09:42:45Z</time></trkpt><trkpt lat="43.15199927545193" lon="0.02435591556201604"><ele>355.0</ele><time>2026-05-06T09:42:47Z</time></trkpt><trkpt lat="43.15207471089515" lon="0.024484561321245303"><ele>355.0</ele><time>2026-05-06T09:42:49Z</time></trkpt><trkpt lat="43.152154584398744" lon="0.02457244337512091"><ele>355.0</ele><time>2026-05-06T09:42:51Z</time></trkpt><trkpt lat="43.15224569973774" lon="0.02467431750419555"><ele>355.0</ele><time>2026-05-06T09:42:53Z</time></trkpt><trkpt lat="43.15230443503272" lon="0.024805925000959184"><ele>355.0</ele><time>2026-05-06T09:42:55Z</time></trkpt><trkpt lat="43.15234718668131" lon="0.02487026894505113"><ele>355.0</ele><time>2026-05-06T09:42:56Z</time></trkpt><trkpt lat="43.15240960141603" lon="0.02490636328986438"><ele>355.0</ele><time>2026-05-06T09:42:57Z</time></trkpt><trkpt lat="43.152523866194684" lon="0.0249443991330948"><ele>355.0</ele><time>2026-05-06T09:42:59Z</time></trkpt><trkpt lat="43.15258661231872" lon="0.024921643569491378"><ele>355.0</ele><time>2026-05-06T09:43:00Z</time></trkpt><trkpt lat="43.15269685823461" lon="0.024932297544465402"><ele>355.0</ele><time>2026-05-06T09:43:02Z</time></trkpt><trkpt lat="43.152760682997695" lon="0.024935725711225966"><ele>355.0</ele><time>2026-05-06T09:43:03Z</time></trkpt><trkpt lat="43.15287141869237" lon="0.02495405437182565"><ele>355.0</ele><time>2026-05-06T09:43:05Z</time></trkpt><trkpt lat="43.152984209849656" lon="0.024962538469578504"><ele>355.0</ele><time>2026-05-06T09:43:07Z</time></trkpt><trkpt lat="43.153074063117465" lon="0.02503429501063136"><ele>355.0</ele><time>2026-05-06T09:43:09Z</time></trkpt><trkpt lat="43.15319068057391" lon="0.025034769806184194"><ele>354.8</ele><time>2026-05-06T09:43:11Z</time></trkpt><trkpt lat="43.15330172847127" lon="0.02500186357558794"><ele>354.6</ele><time>2026-05-06T09:43:13Z</time></trkpt><trkpt lat="43.15336297004498" lon="0.024965932775324336"><ele>354.4</ele><time>2026-05-06T09:43:14Z</time></trkpt><trkpt lat="43.15347706098414" lon="0.024928074117268842"><ele>354.2</ele><time>2026-05-06T09:43:16Z</time></trkpt><trkpt lat="43.15358972655663" lon="0.02488278677312793"><ele>354.0</ele><time>2026-05-06T09:43:18Z</time></trkpt><trkpt lat="43.153705751816915" lon="0.024857336729643378"><ele>354.0</ele><time>2026-05-06T09:43:20Z</time></trkpt><trkpt lat="43.15381827185361" lon="0.024852775028452078"><ele>354.0</ele><time>2026-05-06T09:43:22Z</time></trkpt><trkpt lat="43.15393423253958" lon="0.024822095304335247"><ele>354.0</ele><time>2026-05-06T09:43:24Z</time></trkpt><trkpt lat="43.154037068704234" lon="0.024834847157446417"><ele>354.0</ele><time>2026-05-06T09:43:26Z</time></trkpt><trkpt lat="43.15413296134333" lon="0.024875094160514383"><ele>354.0</ele><time>2026-05-06T09:43:28Z</time></trkpt><trkpt lat="43.15419422418159" lon="0.02491096111603801"><ele>354.0</ele><time>2026-05-06T09:43:29Z</time></trkpt><trkpt lat="43.15429040604367" lon="0.024962384337960986"><ele>354.0</ele><time>2026-05-06T09:43:31Z</time></trkpt><trkpt lat="43.15440798007714" lon="0.025030555873252407"><ele>354.0</ele><time>2026-05-06T09:43:34Z</time></trkpt><trkpt lat="43.15453895284542" lon="0.025070788217457014"><ele>354.0</ele><time>2026-05-06T09:43:36Z</time></trkpt><trkpt lat="43.15462459427565" lon="0.025099542595648262"><ele>354.0</ele><time>2026-05-06T09:43:38Z</time></trkpt><trkpt lat="43.1547134794888" lon="0.02514215778653193"><ele>354.0</ele><time>2026-05-06T09:43:40Z</time></trkpt><trkpt lat="43.154787346708495" lon="0.0252233974020064"><ele>354.0</ele><time>2026-05-06T09:43:42Z</time></trkpt><trkpt lat="43.154880080720204" lon="0.02525709070231173"><ele>354.0</ele><time>2026-05-06T09:43:44Z</time></trkpt><trkpt lat="43.15496896397996" lon="0.025210386288050612"><ele>354.0</ele><time>2026-05-06T09:43:46Z</time></trkpt><trkpt lat="43.15504478987844" lon="0.025125674787509236"><ele>353.8333333333333</ele><time>2026-05-06T09:43:48Z</time></trkpt><trkpt lat="43.155116035834325" lon="0.025048508069951212"><ele>353.6666666666667</ele><time>2026-05-06T09:43:49.999Z</time></trkpt><trkpt lat="43.155197778384746" lon="0.024998441331436055"><ele>353.5</ele><time>2026-05-06T09:43:51.999Z</time></trkpt><trkpt lat="43.155289317742195" lon="0.024940052669165227"><ele>353.33333333333337</ele><time>2026-05-06T09:43:53.999Z</time></trkpt><trkpt lat="43.15536196009055" lon="0.024887811808519438"><ele>353.1666666666667</ele><time>2026-05-06T09:43:55.999Z</time></trkpt><trkpt lat="43.15542987339702" lon="0.02487705407519437"><ele>353.0</ele><time>2026-05-06T09:43:57.999Z</time></trkpt><trkpt lat="43.15551517866018" lon="0.024766362258125167"><ele>353.0</ele><time>2026-05-06T09:43:59.999Z</time></trkpt><trkpt lat="43.15557365994036" lon="0.024703575119375678"><ele>353.0</ele><time>2026-05-06T09:44:01.999Z</time></trkpt><trkpt lat="43.1556375899224" lon="0.024661051761597327"><ele>353.0</ele><time>2026-05-06T09:44:03.999Z</time></trkpt><trkpt lat="43.15573436772355" lon="0.024619243980407875"><ele>353.0</ele><time>2026-05-06T09:44:05.999Z</time></trkpt><trkpt lat="43.1557968214311" lon="0.024580314676656067"><ele>353.0</ele><time>2026-05-06T09:44:07.999Z</time></trkpt><trkpt lat="43.15585932469563" lon="0.0245181147762988"><ele>353.0</ele><time>2026-05-06T09:44:09.999Z</time></trkpt><trkpt lat="43.155923418859125" lon="0.02445437431855667"><ele>353.1666666666667</ele><time>2026-05-06T09:44:11.999Z</time></trkpt><trkpt lat="43.15599525201212" lon="0.024392744738220066"><ele>353.33333333333337</ele><time>2026-05-06T09:44:13.999Z</time></trkpt><trkpt lat="43.15608085591084" lon="0.02432455798241896"><ele>353.5</ele><time>2026-05-06T09:44:16.999Z</time></trkpt><trkpt lat="43.15616122228966" lon="0.024257246381331646"><ele>353.6666666666667</ele><time>2026-05-06T09:44:21Z</time></trkpt><trkpt lat="43.156230852332655" lon="0.024260470304751102"><ele>353.8333333333333</ele><time>2026-05-06T09:44:23Z</time></trkpt><trkpt lat="43.15631383760341" lon="0.024277800538104268"><ele>354.0</ele><time>2026-05-06T09:44:26Z</time></trkpt><trkpt lat="43.156403162214204" lon="0.024265260380058492"><ele>354.0</ele><time>2026-05-06T09:44:29Z</time></trkpt><trkpt lat="43.15647195913201" lon="0.024227393807900913"><ele>354.0</ele><time>2026-05-06T09:44:31Z</time></trkpt><trkpt lat="43.15654492837516" lon="0.024203749562175636"><ele>354.0</ele><time>2026-05-06T09:44:33Z</time></trkpt><trkpt lat="43.1566197939387" lon="0.024169604858756445"><ele>354.0</ele><time>2026-05-06T09:44:35Z</time></trkpt><trkpt lat="43.15669983484679" lon="0.02414730438860312"><ele>354.0</ele><time>2026-05-06T09:44:37Z</time></trkpt><trkpt lat="43.15677659934816" lon="0.024112331818743015"><ele>354.0</ele><time>2026-05-06T09:44:38Z</time></trkpt><trkpt lat="43.15685233356854" lon="0.024064886756684008"><ele>354.2</ele><time>2026-05-06T09:44:40Z</time></trkpt><trkpt lat="43.15693715865482" lon="0.02405893144229853"><ele>354.4</ele><time>2026-05-06T09:44:42Z</time></trkpt><trkpt lat="43.15700775340303" lon="0.024043583845632616"><ele>354.6</ele><time>2026-05-06T09:44:44Z</time></trkpt><trkpt lat="43.15713115151055" lon="0.024063019999087484"><ele>354.8</ele><time>2026-05-06T09:44:47Z</time></trkpt><trkpt lat="43.15722348834344" lon="0.024083380854791683"><ele>355.0</ele><time>2026-05-06T09:44:49Z</time></trkpt><trkpt lat="43.15733867395376" lon="0.024075367959539556"><ele>355.0</ele><time>2026-05-06T09:44:52Z</time></trkpt><trkpt lat="43.15746090935926" lon="0.02409873298436108"><ele>355.0</ele><time>2026-05-06T09:44:54Z</time></trkpt><trkpt lat="43.15753019210324" lon="0.024082395969446207"><ele>355.0</ele><time>2026-05-06T09:44:55Z</time></trkpt><trkpt lat="43.157628202727665" lon="0.024069453196389954"><ele>355.0</ele><time>2026-05-06T09:44:57Z</time></trkpt><trkpt lat="43.15774206865667" lon="0.02408552789067148"><ele>355.0</ele><time>2026-05-06T09:45:00Z</time></trkpt><trkpt lat="43.15785515785821" lon="0.024079669525493477"><ele>355.0</ele><time>2026-05-06T09:45:02Z</time></trkpt><trkpt lat="43.157942412602694" lon="0.024074770312570107"><ele>355.0</ele><time>2026-05-06T09:45:04Z</time></trkpt><trkpt lat="43.158023585392755" lon="0.02407340212635536"><ele>355.0</ele><time>2026-05-06T09:45:06Z</time></trkpt><trkpt lat="43.15814506486731" lon="0.024085107018771326"><ele>355.0</ele><time>2026-05-06T09:45:08Z</time></trkpt><trkpt lat="43.15827024517963" lon="0.024070846421445486"><ele>355.0</ele><time>2026-05-06T09:45:10Z</time></trkpt><trkpt lat="43.15838514099925" lon="0.024064044557327892"><ele>354.8</ele><time>2026-05-06T09:45:12Z</time></trkpt><trkpt lat="43.158500978308226" lon="0.02406402823903566"><ele>354.6</ele><time>2026-05-06T09:45:14Z</time></trkpt><trkpt lat="43.15857736757798" lon="0.024070835368299896"><ele>354.4</ele><time>2026-05-06T09:45:16Z</time></trkpt><trkpt lat="43.158705698262615" lon="0.024077226490097223"><ele>354.2</ele><time>2026-05-06T09:45:18Z</time></trkpt><trkpt lat="43.158826536698406" lon="0.024073651171586802"><ele>354.0</ele><time>2026-05-06T09:45:20Z</time></trkpt><trkpt lat="43.15889096092786" lon="0.024076657439319856"><ele>354.0</ele><time>2026-05-06T09:45:21Z</time></trkpt><trkpt lat="43.15900546057881" lon="0.02409036325801427"><ele>354.0</ele><time>2026-05-06T09:45:23Z</time></trkpt><trkpt lat="43.159125824539295" lon="0.024118032082476742"><ele>354.0</ele><time>2026-05-06T09:45:25Z</time></trkpt><trkpt lat="43.15923927165849" lon="0.024150429343056192"><ele>354.0</ele><time>2026-05-06T09:45:27Z</time></trkpt><trkpt lat="43.15935432299392" lon="0.024186413975104522"><ele>353.75</ele><time>2026-05-06T09:45:29Z</time></trkpt><trkpt lat="43.15947042319668" lon="0.02421869384835498"><ele>353.5</ele><time>2026-05-06T09:45:31Z</time></trkpt><trkpt lat="43.15958095697016" lon="0.024251297967568267"><ele>353.25</ele><time>2026-05-06T09:45:33Z</time></trkpt><trkpt lat="43.159698514422416" lon="0.024289387612717907"><ele>353.0</ele><time>2026-05-06T09:45:35Z</time></trkpt><trkpt lat="43.15981393413255" lon="0.02430769865189011"><ele>352.5</ele><time>2026-05-06T09:45:37Z</time></trkpt><trkpt lat="43.15993353251613" lon="0.02433421773100392"><ele>352.0</ele><time>2026-05-06T09:45:39Z</time></trkpt><trkpt lat="43.16005019407423" lon="0.024349720129023738"><ele>351.5</ele><time>2026-05-06T09:45:41Z</time></trkpt><trkpt lat="43.160160766408445" lon="0.02436427275935337"><ele>351.0</ele><time>2026-05-06T09:45:43Z</time></trkpt><trkpt lat="43.16027674295814" lon="0.024366179309753877"><ele>351.0</ele><time>2026-05-06T09:45:45Z</time></trkpt><trkpt lat="43.16040060014874" lon="0.024358013955592197"><ele>351.0</ele><time>2026-05-06T09:45:47Z</time></trkpt><trkpt lat="43.160515635757456" lon="0.02435477539420909"><ele>351.0</ele><time>2026-05-06T09:45:49Z</time></trkpt><trkpt lat="43.160626236605054" lon="0.024346413482114825"><ele>351.0</ele><time>2026-05-06T09:45:50.999Z</time></trkpt><trkpt lat="43.16073350127013" lon="0.02434742251799012"><ele>351.20000000000005</ele><time>2026-05-06T09:45:52.999Z</time></trkpt><trkpt lat="43.160850121827465" lon="0.0243589893566124"><ele>351.40000000000003</ele><time>2026-05-06T09:45:54.999Z</time></trkpt><trkpt lat="43.16095768303616" lon="0.024380490193258584"><ele>351.6</ele><time>2026-05-06T09:45:56.999Z</time></trkpt><trkpt lat="43.16106483093313" lon="0.024413647512235206"><ele>351.8</ele><time>2026-05-06T09:45:58.999Z</time></trkpt><trkpt lat="43.16116210871392" lon="0.02444977285864191"><ele>352.0</ele><time>2026-05-06T09:46:00.999Z</time></trkpt><trkpt lat="43.16127092897552" lon="0.02448921259438095"><ele>352.0</ele><time>2026-05-06T09:46:02.999Z</time></trkpt><trkpt lat="43.16136452132929" lon="0.024526802375878457"><ele>352.0</ele><time>2026-05-06T09:46:04.999Z</time></trkpt><trkpt lat="43.16147461956397" lon="0.024538335315089664"><ele>352.0</ele><time>2026-05-06T09:46:06.999Z</time></trkpt><trkpt lat="43.16158940506272" lon="0.02457984944541695"><ele>352.0</ele><time>2026-05-06T09:46:08.999Z</time></trkpt><trkpt lat="43.161700896019376" lon="0.024609632208087293"><ele>352.0</ele><time>2026-05-06T09:46:10.999Z</time></trkpt><trkpt lat="43.161811508948794" lon="0.024618052104520127"><ele>352.0</ele><time>2026-05-06T09:46:12.999Z</time></trkpt><trkpt lat="43.1619230853216" lon="0.024620311743471485"><ele>352.0</ele><time>2026-05-06T09:46:14.999Z</time></trkpt><trkpt lat="43.162040363655514" lon="0.024612279721641435"><ele>352.0</ele><time>2026-05-06T09:46:16.999Z</time></trkpt><trkpt lat="43.16221439691721" lon="0.024606335894304526"><ele>352.0</ele><time>2026-05-06T09:46:19.999Z</time></trkpt><trkpt lat="43.16233525684297" lon="0.024593065235895425"><ele>352.0</ele><time>2026-05-06T09:46:21.999Z</time></trkpt><trkpt lat="43.16257327620458" lon="0.024603735296767945"><ele>352.0</ele><time>2026-05-06T09:46:26Z</time></trkpt><trkpt lat="43.162687205921614" lon="0.024600719528170542"><ele>352.0</ele><time>2026-05-06T09:46:28Z</time></trkpt><trkpt lat="43.162750650404625" lon="0.024590350051128352"><ele>352.0</ele><time>2026-05-06T09:46:29Z</time></trkpt><trkpt lat="43.162868575293196" lon="0.024581375712063838"><ele>352.0</ele><time>2026-05-06T09:46:31Z</time></trkpt><trkpt lat="43.162931156032045" lon="0.024569626492077903"><ele>352.0</ele><time>2026-05-06T09:46:32Z</time></trkpt><trkpt lat="43.16305972799297" lon="0.024568419173804954"><ele>352.0</ele><time>2026-05-06T09:46:34Z</time></trkpt><trkpt lat="43.16312630965246" lon="0.024565577311469317"><ele>352.0</ele><time>2026-05-06T09:46:35Z</time></trkpt><trkpt lat="43.163243998916904" lon="0.024563517653371565"><ele>352.0</ele><time>2026-05-06T09:46:37Z</time></trkpt><trkpt lat="43.163308663451225" lon="0.024552872069524587"><ele>352.0</ele><time>2026-05-06T09:46:38Z</time></trkpt><trkpt lat="43.16342991695287" lon="0.0245415326001056"><ele>352.0</ele><time>2026-05-06T09:46:40Z</time></trkpt><trkpt lat="43.16349380514217" lon="0.024536613343539158"><ele>352.0</ele><time>2026-05-06T09:46:41Z</time></trkpt><trkpt lat="43.16355886119668" lon="0.02452741884377697"><ele>352.0</ele><time>2026-05-06T09:46:42Z</time></trkpt><trkpt lat="43.16368021840903" lon="0.024531065653834585"><ele>352.0</ele><time>2026-05-06T09:46:44Z</time></trkpt><trkpt lat="43.16379712616147" lon="0.024522795852313775"><ele>352.0</ele><time>2026-05-06T09:46:46Z</time></trkpt><trkpt lat="43.163859586483284" lon="0.024508338361887257"><ele>352.0</ele><time>2026-05-06T09:46:47Z</time></trkpt><trkpt lat="43.16397135669702" lon="0.024504560049492856"><ele>351.75</ele><time>2026-05-06T09:46:49Z</time></trkpt><trkpt lat="43.16409309222958" lon="0.02449030694673167"><ele>351.5</ele><time>2026-05-06T09:46:51Z</time></trkpt><trkpt lat="43.16421013246484" lon="0.02449444299569942"><ele>351.25</ele><time>2026-05-06T09:46:53Z</time></trkpt><trkpt lat="43.16433320256296" lon="0.024473247425534587"><ele>351.0</ele><time>2026-05-06T09:46:55Z</time></trkpt><trkpt lat="43.16445041913625" lon="0.0244743460384239"><ele>351.0</ele><time>2026-05-06T09:46:57Z</time></trkpt><trkpt lat="43.164567425378884" lon="0.024463268821982395"><ele>351.0</ele><time>2026-05-06T09:46:59Z</time></trkpt><trkpt lat="43.16468512412502" lon="0.024469663974840673"><ele>351.0</ele><time>2026-05-06T09:47:01Z</time></trkpt><trkpt lat="43.16480101532139" lon="0.024472354599819484"><ele>351.0</ele><time>2026-05-06T09:47:03Z</time></trkpt><trkpt lat="43.164917165857425" lon="0.024497114363546457"><ele>350.5</ele><time>2026-05-06T09:47:05Z</time></trkpt><trkpt lat="43.165031234438295" lon="0.02450561547691122"><ele>350.0</ele><time>2026-05-06T09:47:07Z</time></trkpt><trkpt lat="43.16514339937988" lon="0.02452238537725995"><ele>349.5</ele><time>2026-05-06T09:47:09Z</time></trkpt><trkpt lat="43.165260826782415" lon="0.024540541220774783"><ele>349.0</ele><time>2026-05-06T09:47:11Z</time></trkpt><trkpt lat="43.1653781920343" lon="0.02455538341250642"><ele>349.0</ele><time>2026-05-06T09:47:13Z</time></trkpt><trkpt lat="43.165490754887145" lon="0.02456413398112737"><ele>349.0</ele><time>2026-05-06T09:47:15Z</time></trkpt><trkpt lat="43.16561525156812" lon="0.024568692692853743"><ele>349.0</ele><time>2026-05-06T09:47:17Z</time></trkpt><trkpt lat="43.16574006937695" lon="0.024574849127603025"><ele>349.0</ele><time>2026-05-06T09:47:19Z</time></trkpt><trkpt lat="43.16585720689415" lon="0.024584483991158826"><ele>348.75</ele><time>2026-05-06T09:47:21Z</time></trkpt><trkpt lat="43.165978245846084" lon="0.024590926738530042"><ele>348.5</ele><time>2026-05-06T09:47:23Z</time></trkpt><trkpt lat="43.16610312901159" lon="0.024591089342669827"><ele>348.25</ele><time>2026-05-06T09:47:25Z</time></trkpt><trkpt lat="43.166220822277076" lon="0.0245890807681044"><ele>348.0</ele><time>2026-05-06T09:47:27Z</time></trkpt><trkpt lat="43.166330996435185" lon="0.02459803250563412"><ele>348.0</ele><time>2026-05-06T09:47:29Z</time></trkpt><trkpt lat="43.16644791605656" lon="0.024596976879386646"><ele>348.0</ele><time>2026-05-06T09:47:31Z</time></trkpt><trkpt lat="43.16656453296301" lon="0.02459420321811238"><ele>348.0</ele><time>2026-05-06T09:47:33Z</time></trkpt><trkpt lat="43.16667658878805" lon="0.024581899286017193"><ele>348.0</ele><time>2026-05-06T09:47:35Z</time></trkpt><trkpt lat="43.16679319811538" lon="0.024572269414840957"><ele>348.0</ele><time>2026-05-06T09:47:37Z</time></trkpt><trkpt lat="43.166910700165595" lon="0.02455112780075985"><ele>348.0</ele><time>2026-05-06T09:47:39Z</time></trkpt><trkpt lat="43.16702823614929" lon="0.02452787040196676"><ele>348.0</ele><time>2026-05-06T09:47:41Z</time></trkpt><trkpt lat="43.16714315934761" lon="0.024511299287164563"><ele>348.0</ele><time>2026-05-06T09:47:43Z</time></trkpt><trkpt lat="43.16725647979408" lon="0.02449270053400442"><ele>347.79999999999995</ele><time>2026-05-06T09:47:45Z</time></trkpt><trkpt lat="43.1673677996265" lon="0.024474533448169373"><ele>347.6</ele><time>2026-05-06T09:47:47Z</time></trkpt><trkpt lat="43.16747923676949" lon="0.024453600226521984"><ele>347.4</ele><time>2026-05-06T09:47:49Z</time></trkpt><trkpt lat="43.16758847950592" lon="0.02443419162477818"><ele>347.20000000000005</ele><time>2026-05-06T09:47:51Z</time></trkpt><trkpt lat="43.16770041645227" lon="0.02441916970615355"><ele>347.0</ele><time>2026-05-06T09:47:53Z</time></trkpt><trkpt lat="43.16779228574178" lon="0.024405594278317882"><ele>347.0</ele><time>2026-05-06T09:47:55Z</time></trkpt><trkpt lat="43.16789327226431" lon="0.0243749981785589"><ele>347.0</ele><time>2026-05-06T09:47:57Z</time></trkpt><trkpt lat="43.16798337223713" lon="0.024302874987755962"><ele>347.0</ele><time>2026-05-06T09:47:59Z</time></trkpt><trkpt lat="43.16808449301009" lon="0.02425059865958208"><ele>347.0</ele><time>2026-05-06T09:48:01Z</time></trkpt><trkpt lat="43.168181215031986" lon="0.02418789798991771"><ele>347.0</ele><time>2026-05-06T09:48:03Z</time></trkpt><trkpt lat="43.16828500196849" lon="0.024130047801860365"><ele>347.25</ele><time>2026-05-06T09:48:04.999Z</time></trkpt><trkpt lat="43.168387051761556" lon="0.024052401342082298"><ele>347.5</ele><time>2026-05-06T09:48:06.999Z</time></trkpt><trkpt lat="43.16848821327076" lon="0.023962735529389552"><ele>347.75</ele><time>2026-05-06T09:48:08.999Z</time></trkpt><trkpt lat="43.16859404187483" lon="0.02388539988721656"><ele>348.0</ele><time>2026-05-06T09:48:10.999Z</time></trkpt><trkpt lat="43.16869874718883" lon="0.02380355651178508"><ele>348.0</ele><time>2026-05-06T09:48:12.999Z</time></trkpt><trkpt lat="43.16881667386204" lon="0.02373391805656553"><ele>348.0</ele><time>2026-05-06T09:48:14.999Z</time></trkpt><trkpt lat="43.168931455760145" lon="0.023666239627401373"><ele>348.0</ele><time>2026-05-06T09:48:16.999Z</time></trkpt><trkpt lat="43.16900099858249" lon="0.023662606751737755"><ele>348.0</ele><time>2026-05-06T09:48:17.999Z</time></trkpt><trkpt lat="43.169115035523674" lon="0.02360906012530938"><ele>348.0</ele><time>2026-05-06T09:48:19.999Z</time></trkpt><trkpt lat="43.16922852266712" lon="0.023554193636577174"><ele>347.4</ele><time>2026-05-06T09:48:21.999Z</time></trkpt><trkpt lat="43.16934417819566" lon="0.02351474730201616"><ele>346.79999999999995</ele><time>2026-05-06T09:48:23.999Z</time></trkpt><trkpt lat="43.16945627717864" lon="0.02347989256961622"><ele>346.2</ele><time>2026-05-06T09:48:25.999Z</time></trkpt><trkpt lat="43.16956167511563" lon="0.023448112471548797"><ele>345.6</ele><time>2026-05-06T09:48:27.999Z</time></trkpt><trkpt lat="43.16966351139774" lon="0.023411237857798094"><ele>345.0</ele><time>2026-05-06T09:48:29.999Z</time></trkpt><trkpt lat="43.169760578948" lon="0.023383815289313093"><ele>345.0</ele><time>2026-05-06T09:48:32Z</time></trkpt><trkpt lat="43.169870522001865" lon="0.02336966265627109"><ele>345.0</ele><time>2026-05-06T09:48:35Z</time></trkpt><trkpt lat="43.170035814844056" lon="0.02329997797854363"><ele>345.0</ele><time>2026-05-06T09:48:38Z</time></trkpt><trkpt lat="43.170128076224664" lon="0.02328283380713308"><ele>345.0</ele><time>2026-05-06T09:48:40Z</time></trkpt><trkpt lat="43.17022370446711" lon="0.023270045727320207"><ele>345.4</ele><time>2026-05-06T09:48:42Z</time></trkpt><trkpt lat="43.170320523094944" lon="0.02325020431285803"><ele>345.8</ele><time>2026-05-06T09:48:44Z</time></trkpt><trkpt lat="43.17041727132175" lon="0.02322842013884633"><ele>346.20000000000005</ele><time>2026-05-06T09:48:46Z</time></trkpt><trkpt lat="43.170512803993475" lon="0.023213248547428962"><ele>346.6</ele><time>2026-05-06T09:48:48Z</time></trkpt><trkpt lat="43.17061290120621" lon="0.023183267646896027"><ele>347.0</ele><time>2026-05-06T09:48:50Z</time></trkpt><trkpt lat="43.170711795761086" lon="0.023151102766728052"><ele>347.40000000000003</ele><time>2026-05-06T09:48:52Z</time></trkpt><trkpt lat="43.17081017618645" lon="0.02313606532095315"><ele>347.8</ele><time>2026-05-06T09:48:54Z</time></trkpt><trkpt lat="43.17091484653513" lon="0.023119570201841813"><ele>348.2</ele><time>2026-05-06T09:48:56Z</time></trkpt><trkpt lat="43.171019305450336" lon="0.02312989702859174"><ele>348.6</ele><time>2026-05-06T09:48:58Z</time></trkpt><trkpt lat="43.171123006591294" lon="0.02311186792373887"><ele>349.0</ele><time>2026-05-06T09:49:00Z</time></trkpt><trkpt lat="43.17122431223116" lon="0.023104555581491333"><ele>349.0</ele><time>2026-05-06T09:49:02Z</time></trkpt><trkpt lat="43.17132768788787" lon="0.02309669497822002"><ele>349.0</ele><time>2026-05-06T09:49:04Z</time></trkpt><trkpt lat="43.171433085036035" lon="0.023094718946355817"><ele>349.0</ele><time>2026-05-06T09:49:06Z</time></trkpt><trkpt lat="43.17153979197329" lon="0.023095319137680342"><ele>349.0</ele><time>2026-05-06T09:49:08Z</time></trkpt><trkpt lat="43.171653961232" lon="0.023099293694056618"><ele>349.0</ele><time>2026-05-06T09:49:10Z</time></trkpt><trkpt lat="43.17176593243203" lon="0.023094395370034736"><ele>349.75</ele><time>2026-05-06T09:49:12Z</time></trkpt><trkpt lat="43.17187837930285" lon="0.02307695886616598"><ele>350.5</ele><time>2026-05-06T09:49:14Z</time></trkpt><trkpt lat="43.17198884108789" lon="0.023032135576703625"><ele>351.25</ele><time>2026-05-06T09:49:16Z</time></trkpt><trkpt lat="43.17209755997219" lon="0.022985268745659666"><ele>352.0</ele><time>2026-05-06T09:49:18Z</time></trkpt><trkpt lat="43.172198000087185" lon="0.022920014697331306"><ele>352.0</ele><time>2026-05-06T09:49:20Z</time></trkpt><trkpt lat="43.17230378486063" lon="0.022882798201243924"><ele>352.0</ele><time>2026-05-06T09:49:22Z</time></trkpt><trkpt lat="43.172393382420516" lon="0.022812478080468872"><ele>352.0</ele><time>2026-05-06T09:49:24Z</time></trkpt><trkpt lat="43.172491560762545" lon="0.022746123757724314"><ele>352.0</ele><time>2026-05-06T09:49:26Z</time></trkpt><trkpt lat="43.17262803193612" lon="0.022624770815059148"><ele>351.6</ele><time>2026-05-06T09:49:29Z</time></trkpt><trkpt lat="43.17272218587808" lon="0.02256657949269284"><ele>351.20000000000005</ele><time>2026-05-06T09:49:31Z</time></trkpt><trkpt lat="43.17280897102926" lon="0.022493164845707604"><ele>350.8</ele><time>2026-05-06T09:49:33Z</time></trkpt><trkpt lat="43.17289950045695" lon="0.022444562672801562"><ele>350.4</ele><time>2026-05-06T09:49:35Z</time></trkpt><trkpt lat="43.17297325858913" lon="0.022384205411096144"><ele>350.0</ele><time>2026-05-06T09:49:37Z</time></trkpt><trkpt lat="43.17304629748141" lon="0.022342895143663857"><ele>349.83333333333337</ele><time>2026-05-06T09:49:39Z</time></trkpt><trkpt lat="43.173108614681254" lon="0.02230841272498166"><ele>349.6666666666667</ele><time>2026-05-06T09:49:41Z</time></trkpt><trkpt lat="43.17318973748476" lon="0.022251110290110773"><ele>349.5</ele><time>2026-05-06T09:49:43Z</time></trkpt><trkpt lat="43.173270218594915" lon="0.022192730361664775"><ele>349.3333333333333</ele><time>2026-05-06T09:49:45Z</time></trkpt><trkpt lat="43.173351501851144" lon="0.022131161020814985"><ele>349.16666666666663</ele><time>2026-05-06T09:49:47Z</time></trkpt><trkpt lat="43.17344589723832" lon="0.022092283090690643"><ele>349.0</ele><time>2026-05-06T09:49:49Z</time></trkpt><trkpt lat="43.17352233349534" lon="0.02203064550865471"><ele>349.0</ele><time>2026-05-06T09:49:51Z</time></trkpt><trkpt lat="43.17359539635508" lon="0.021978567272729038"><ele>349.0</ele><time>2026-05-06T09:49:53Z</time></trkpt><trkpt lat="43.17367345579415" lon="0.021919963049477357"><ele>349.0</ele><time>2026-05-06T09:49:55Z</time></trkpt><trkpt lat="43.17375177171515" lon="0.021868647474503036"><ele>349.0</ele><time>2026-05-06T09:49:57Z</time></trkpt><trkpt lat="43.17382414848189" lon="0.021799706472531745"><ele>349.0</ele><time>2026-05-06T09:49:59Z</time></trkpt><trkpt lat="43.17388803942357" lon="0.02172222303875893"><ele>349.0</ele><time>2026-05-06T09:50:01Z</time></trkpt><trkpt lat="43.17395171893503" lon="0.021614271292179642"><ele>349.0</ele><time>2026-05-06T09:50:03Z</time></trkpt><trkpt lat="43.174016159104966" lon="0.021512362924186956"><ele>349.0</ele><time>2026-05-06T09:50:05Z</time></trkpt><trkpt lat="43.17407530703429" lon="0.02140581375506582"><ele>349.0</ele><time>2026-05-06T09:50:07Z</time></trkpt><trkpt lat="43.17413396174537" lon="0.021306653851604955"><ele>349.0</ele><time>2026-05-06T09:50:09Z</time></trkpt><trkpt lat="43.174184423543814" lon="0.02121635589379738"><ele>349.0</ele><time>2026-05-06T09:50:11Z</time></trkpt><trkpt lat="43.17422741675528" lon="0.021147766023734926"><ele>349.0</ele><time>2026-05-06T09:50:13Z</time></trkpt><trkpt lat="43.174274089784895" lon="0.021067305115649613"><ele>349.0</ele><time>2026-05-06T09:50:14Z</time></trkpt><trkpt lat="43.174335567490495" lon="0.020971877232398333"><ele>349.0</ele><time>2026-05-06T09:50:16Z</time></trkpt><trkpt lat="43.174386842121876" lon="0.020862039243183295"><ele>349.0</ele><time>2026-05-06T09:50:18Z</time></trkpt><trkpt lat="43.174445993715615" lon="0.020772782244464622"><ele>349.0</ele><time>2026-05-06T09:50:20Z</time></trkpt><trkpt lat="43.17449439413011" lon="0.020695421092406574"><ele>349.0</ele><time>2026-05-06T09:50:22Z</time></trkpt><trkpt lat="43.17454777518861" lon="0.020597802078717288"><ele>349.0</ele><time>2026-05-06T09:50:23.999Z</time></trkpt><trkpt lat="43.17458239800515" lon="0.020507522606216567"><ele>349.16666666666663</ele><time>2026-05-06T09:50:25.999Z</time></trkpt><trkpt lat="43.17463249589389" lon="0.02043467956924068"><ele>349.3333333333333</ele><time>2026-05-06T09:50:27.999Z</time></trkpt><trkpt lat="43.174675124176765" lon="0.0203576432785973"><ele>349.5</ele><time>2026-05-06T09:50:29.999Z</time></trkpt><trkpt lat="43.174716059055406" lon="0.020277172703480697"><ele>349.6666666666667</ele><time>2026-05-06T09:50:31.999Z</time></trkpt><trkpt lat="43.17478680479004" lon="0.02019307740920394"><ele>349.83333333333337</ele><time>2026-05-06T09:50:34.999Z</time></trkpt><trkpt lat="43.17483858711273" lon="0.020124731199569704"><ele>350.0</ele><time>2026-05-06T09:50:37Z</time></trkpt><trkpt lat="43.17489656747458" lon="0.020070948806940724"><ele>350.0</ele><time>2026-05-06T09:50:39Z</time></trkpt><trkpt lat="43.17495503512803" lon="0.020025871467834022"><ele>350.0</ele><time>2026-05-06T09:50:41Z</time></trkpt><trkpt lat="43.175045064659166" lon="0.01999569352483897"><ele>350.0</ele><time>2026-05-06T09:50:43Z</time></trkpt><trkpt lat="43.175107467262315" lon="0.01995702832591292"><ele>350.0</ele><time>2026-05-06T09:50:45Z</time></trkpt><trkpt lat="43.17520353110934" lon="0.019976604877537232"><ele>350.0</ele><time>2026-05-06T09:50:47Z</time></trkpt><trkpt lat="43.17529672971927" lon="0.019905190741200552"><ele>350.0</ele><time>2026-05-06T09:50:49Z</time></trkpt><trkpt lat="43.175382906707206" lon="0.019858158405194056"><ele>350.1666666666667</ele><time>2026-05-06T09:50:51Z</time></trkpt><trkpt lat="43.17545240533234" lon="0.01978807156431541"><ele>350.33333333333337</ele><time>2026-05-06T09:50:53Z</time></trkpt><trkpt lat="43.1755223950835" lon="0.019736406003059818"><ele>350.5</ele><time>2026-05-06T09:50:55Z</time></trkpt><trkpt lat="43.175582994970625" lon="0.01967321116256952"><ele>350.6666666666667</ele><time>2026-05-06T09:50:57Z</time></trkpt><trkpt lat="43.175651640459286" lon="0.019644559233652013"><ele>350.8333333333333</ele><time>2026-05-06T09:50:59Z</time></trkpt><trkpt lat="43.17574207755329" lon="0.01961302078368339"><ele>351.0</ele><time>2026-05-06T09:51:01Z</time></trkpt><trkpt lat="43.17582678409572" lon="0.019596392242784783"><ele>351.4</ele><time>2026-05-06T09:51:03Z</time></trkpt><trkpt lat="43.17591851256824" lon="0.019571948489197657"><ele>351.8</ele><time>2026-05-06T09:51:05Z</time></trkpt><trkpt lat="43.17600167063022" lon="0.01955849991264712"><ele>352.2</ele><time>2026-05-06T09:51:07Z</time></trkpt><trkpt lat="43.17608811947268" lon="0.019553553093082144"><ele>352.59999999999997</ele><time>2026-05-06T09:51:09Z</time></trkpt><trkpt lat="43.17618091424565" lon="0.019544867827943537"><ele>353.0</ele><time>2026-05-06T09:51:11Z</time></trkpt><trkpt lat="43.176279726504724" lon="0.019569319151504144"><ele>353.0</ele><time>2026-05-06T09:51:13Z</time></trkpt><trkpt lat="43.17635975805062" lon="0.019609146240503722"><ele>353.0</ele><time>2026-05-06T09:51:15Z</time></trkpt><trkpt lat="43.17642621506198" lon="0.019625833912926386"><ele>353.0</ele><time>2026-05-06T09:51:16Z</time></trkpt><trkpt lat="43.17652119092527" lon="0.0196811222214543"><ele>353.0</ele><time>2026-05-06T09:51:18Z</time></trkpt><trkpt lat="43.17663764492635" lon="0.019743120391074478"><ele>353.0</ele><time>2026-05-06T09:51:21Z</time></trkpt><trkpt lat="43.176706187306195" lon="0.01976129868474141"><ele>352.59999999999997</ele><time>2026-05-06T09:51:24Z</time></trkpt><trkpt lat="43.17685407605937" lon="0.01983306879948794"><ele>352.2</ele><time>2026-05-06T09:51:26Z</time></trkpt><trkpt lat="43.17692351790629" lon="0.01985711641462754"><ele>351.8</ele><time>2026-05-06T09:51:27Z</time></trkpt><trkpt lat="43.17701892024344" lon="0.01988776719618058"><ele>351.4</ele><time>2026-05-06T09:51:29Z</time></trkpt><trkpt lat="43.17710105481124" lon="0.019897894785193788"><ele>351.0</ele><time>2026-05-06T09:51:31Z</time></trkpt><trkpt lat="43.1771928151038" lon="0.019891088281714486"><ele>351.0</ele><time>2026-05-06T09:51:33Z</time></trkpt><trkpt lat="43.17725702016169" lon="0.0199046640940307"><ele>351.0</ele><time>2026-05-06T09:51:35Z</time></trkpt><trkpt lat="43.17739223979838" lon="0.01988413986980585"><ele>351.0</ele><time>2026-05-06T09:51:36Z</time></trkpt><trkpt lat="43.17749227470299" lon="0.019876199525738103"><ele>351.0</ele><time>2026-05-06T09:51:38Z</time></trkpt><trkpt lat="43.17758463262052" lon="0.019883927752817967"><ele>351.0</ele><time>2026-05-06T09:51:40Z</time></trkpt><trkpt lat="43.17768327282017" lon="0.019867639426216895"><ele>351.20000000000005</ele><time>2026-05-06T09:51:42Z</time></trkpt><trkpt lat="43.17778856534569" lon="0.01983676037359977"><ele>351.40000000000003</ele><time>2026-05-06T09:51:44Z</time></trkpt><trkpt lat="43.17789862513123" lon="0.019790412204302027"><ele>351.6</ele><time>2026-05-06T09:51:46Z</time></trkpt><trkpt lat="43.17801091657332" lon="0.019794369872201987"><ele>351.8</ele><time>2026-05-06T09:51:48Z</time></trkpt><trkpt lat="43.17811972664671" lon="0.019755058413966083"><ele>352.0</ele><time>2026-05-06T09:51:50Z</time></trkpt><trkpt lat="43.1782314342403" lon="0.019734406608068644"><ele>351.6</ele><time>2026-05-06T09:51:52Z</time></trkpt><trkpt lat="43.17834209198671" lon="0.019700256153716553"><ele>351.20000000000005</ele><time>2026-05-06T09:51:54Z</time></trkpt><trkpt lat="43.17846186168474" lon="0.019655500633171327"><ele>350.8</ele><time>2026-05-06T09:51:56Z</time></trkpt><trkpt lat="43.17857665125785" lon="0.019600392645535168"><ele>350.4</ele><time>2026-05-06T09:51:58Z</time></trkpt><trkpt lat="43.17863911965523" lon="0.01956976609257663"><ele>350.0</ele><time>2026-05-06T09:51:59Z</time></trkpt><trkpt lat="43.17875040141911" lon="0.01950921055128066"><ele>350.0</ele><time>2026-05-06T09:52:01Z</time></trkpt><trkpt lat="43.17886129634311" lon="0.019444290778936137"><ele>350.0</ele><time>2026-05-06T09:52:03Z</time></trkpt><trkpt lat="43.1789217479132" lon="0.019412260124936402"><ele>350.0</ele><time>2026-05-06T09:52:04Z</time></trkpt><trkpt lat="43.17897837991841" lon="0.019371333216879706"><ele>350.0</ele><time>2026-05-06T09:52:05Z</time></trkpt><trkpt lat="43.17909316567693" lon="0.019292275866784635"><ele>350.0</ele><time>2026-05-06T09:52:07Z</time></trkpt><trkpt lat="43.17920607032936" lon="0.019223600045287247"><ele>350.0</ele><time>2026-05-06T09:52:09Z</time></trkpt><trkpt lat="43.17932149784449" lon="0.019152265561942824"><ele>350.0</ele><time>2026-05-06T09:52:11Z</time></trkpt><trkpt lat="43.17943166864316" lon="0.019077091526919363"><ele>350.0</ele><time>2026-05-06T09:52:13Z</time></trkpt><trkpt lat="43.179544182701044" lon="0.01899910271217977"><ele>350.0</ele><time>2026-05-06T09:52:15Z</time></trkpt><trkpt lat="43.17960231374814" lon="0.018962836849162303"><ele>350.0</ele><time>2026-05-06T09:52:16Z</time></trkpt><trkpt lat="43.17971189861215" lon="0.018896422977056584"><ele>350.0</ele><time>2026-05-06T09:52:18Z</time></trkpt><trkpt lat="43.17982220043773" lon="0.01882143425596352"><ele>350.0</ele><time>2026-05-06T09:52:20Z</time></trkpt><trkpt lat="43.17993708863976" lon="0.018756518779344665"><ele>350.0</ele><time>2026-05-06T09:52:22Z</time></trkpt><trkpt lat="43.17999474953166" lon="0.018720145397881832"><ele>350.0</ele><time>2026-05-06T09:52:23Z</time></trkpt><trkpt lat="43.18010787120119" lon="0.01865298497068161"><ele>350.0</ele><time>2026-05-06T09:52:25Z</time></trkpt><trkpt lat="43.18021581246412" lon="0.018571438964949092"><ele>350.0</ele><time>2026-05-06T09:52:27Z</time></trkpt><trkpt lat="43.18031766303619" lon="0.018507600534558067"><ele>350.0</ele><time>2026-05-06T09:52:28.999Z</time></trkpt><trkpt lat="43.18041781032004" lon="0.018445068481722462"><ele>350.0</ele><time>2026-05-06T09:52:30.999Z</time></trkpt><trkpt lat="43.1805285450039" lon="0.018375179933557757"><ele>350.0</ele><time>2026-05-06T09:52:32.999Z</time></trkpt><trkpt lat="43.1806355919881" lon="0.01831603280901467"><ele>349.8</ele><time>2026-05-06T09:52:34.999Z</time></trkpt><trkpt lat="43.18069189834058" lon="0.01827329050948672"><ele>349.6</ele><time>2026-05-06T09:52:35.999Z</time></trkpt><trkpt lat="43.18079469349797" lon="0.01819367664650306"><ele>349.4</ele><time>2026-05-06T09:52:37.999Z</time></trkpt><trkpt lat="43.180899148938785" lon="0.018143320562708537"><ele>349.2</ele><time>2026-05-06T09:52:39.999Z</time></trkpt><trkpt lat="43.18100254462684" lon="0.018070284231318547"><ele>349.0</ele><time>2026-05-06T09:52:41.999Z</time></trkpt><trkpt lat="43.18110997912481" lon="0.01800864843422994"><ele>349.0</ele><time>2026-05-06T09:52:44Z</time></trkpt><trkpt lat="43.1812094276062" lon="0.01795258965472174"><ele>349.0</ele><time>2026-05-06T09:52:46Z</time></trkpt><trkpt lat="43.18130605431809" lon="0.01789840421036132"><ele>349.0</ele><time>2026-05-06T09:52:48Z</time></trkpt><trkpt lat="43.18136454998421" lon="0.017865566439288015"><ele>349.0</ele><time>2026-05-06T09:52:49Z</time></trkpt><trkpt lat="43.18147552039778" lon="0.01781156453279743"><ele>349.0</ele><time>2026-05-06T09:52:51Z</time></trkpt><trkpt lat="43.18152977838698" lon="0.017767777434332995"><ele>348.8333333333333</ele><time>2026-05-06T09:52:52Z</time></trkpt><trkpt lat="43.181587637300524" lon="0.017727971388343797"><ele>348.66666666666663</ele><time>2026-05-06T09:52:53Z</time></trkpt><trkpt lat="43.18170558024429" lon="0.017661660639064634"><ele>348.5</ele><time>2026-05-06T09:52:55Z</time></trkpt><trkpt lat="43.18176471569486" lon="0.01760719910532346"><ele>348.3333333333333</ele><time>2026-05-06T09:52:56Z</time></trkpt><trkpt lat="43.18182610618901" lon="0.01755868951902254"><ele>348.1666666666667</ele><time>2026-05-06T09:52:57Z</time></trkpt><trkpt lat="43.1818874630521" lon="0.01752351218558658"><ele>348.0</ele><time>2026-05-06T09:52:58Z</time></trkpt><trkpt lat="43.18195163287155" lon="0.017475647727702083"><ele>347.85714285714283</ele><time>2026-05-06T09:52:59Z</time></trkpt><trkpt lat="43.18200881606788" lon="0.01742381743991195"><ele>347.7142857142857</ele><time>2026-05-06T09:53:00Z</time></trkpt><trkpt lat="43.182079641265126" lon="0.01737621883614938"><ele>347.57142857142856</ele><time>2026-05-06T09:53:01Z</time></trkpt><trkpt lat="43.182145474876265" lon="0.01734129389368262"><ele>347.42857142857144</ele><time>2026-05-06T09:53:02Z</time></trkpt><trkpt lat="43.18221334678471" lon="0.017292038941778682"><ele>347.2857142857143</ele><time>2026-05-06T09:53:03Z</time></trkpt><trkpt lat="43.18227952935198" lon="0.01723850977928007"><ele>347.14285714285717</ele><time>2026-05-06T09:53:04Z</time></trkpt><trkpt lat="43.18234453314267" lon="0.017188063972065775"><ele>347.0</ele><time>2026-05-06T09:53:05Z</time></trkpt><trkpt lat="43.18241284013924" lon="0.017142622533141045"><ele>347.0</ele><time>2026-05-06T09:53:06Z</time></trkpt><trkpt lat="43.18247881611285" lon="0.01709698995254555"><ele>347.0</ele><time>2026-05-06T09:53:07Z</time></trkpt><trkpt lat="43.18254638135827" lon="0.017048507683643785"><ele>347.0</ele><time>2026-05-06T09:53:08Z</time></trkpt><trkpt lat="43.182617922286326" lon="0.017001519920504624"><ele>347.0</ele><time>2026-05-06T09:53:09Z</time></trkpt><trkpt lat="43.18269423927893" lon="0.016958494601962817"><ele>347.0</ele><time>2026-05-06T09:53:10Z</time></trkpt><trkpt lat="43.182766547344315" lon="0.01690637436576028"><ele>347.0</ele><time>2026-05-06T09:53:11Z</time></trkpt><trkpt lat="43.182834038681854" lon="0.016852243495462892"><ele>347.0</ele><time>2026-05-06T09:53:12Z</time></trkpt><trkpt lat="43.18290757637124" lon="0.016798724940409203"><ele>347.0</ele><time>2026-05-06T09:53:13Z</time></trkpt><trkpt lat="43.182979391849024" lon="0.01675114913284367"><ele>347.0</ele><time>2026-05-06T09:53:14Z</time></trkpt><trkpt lat="43.183053094462196" lon="0.016704135434637103"><ele>347.0</ele><time>2026-05-06T09:53:15Z</time></trkpt><trkpt lat="43.18312750329932" lon="0.016652397671061123"><ele>347.0</ele><time>2026-05-06T09:53:16Z</time></trkpt><trkpt lat="43.18320223721376" lon="0.01660311381603542"><ele>347.0</ele><time>2026-05-06T09:53:17Z</time></trkpt><trkpt lat="43.183275367251134" lon="0.01655165971835679"><ele>346.33333333333337</ele><time>2026-05-06T09:53:18Z</time></trkpt><trkpt lat="43.183349194273354" lon="0.016498389617667565"><ele>345.6666666666667</ele><time>2026-05-06T09:53:19Z</time></trkpt><trkpt lat="43.183420233413784" lon="0.016447122924898357"><ele>345.0</ele><time>2026-05-06T09:53:20Z</time></trkpt><trkpt lat="43.183490896012316" lon="0.016397725921472147"><ele>344.3333333333333</ele><time>2026-05-06T09:53:21Z</time></trkpt><trkpt lat="43.18356035659057" lon="0.016355211813425682"><ele>343.66666666666663</ele><time>2026-05-06T09:53:22Z</time></trkpt><trkpt lat="43.18363119478277" lon="0.016308167961982856"><ele>343.0</ele><time>2026-05-06T09:53:23Z</time></trkpt><trkpt lat="43.183699970921964" lon="0.016256225413348976"><ele>343.0</ele><time>2026-05-06T09:53:24Z</time></trkpt><trkpt lat="43.183764419155196" lon="0.016210038231388477"><ele>343.0</ele><time>2026-05-06T09:53:25Z</time></trkpt><trkpt lat="43.18383403148995" lon="0.01615842676526599"><ele>343.0</ele><time>2026-05-06T09:53:26Z</time></trkpt><trkpt lat="43.18389918636476" lon="0.016125612868378065"><ele>343.0</ele><time>2026-05-06T09:53:27Z</time></trkpt><trkpt lat="43.18396105595975" lon="0.016083795133193905"><ele>343.0</ele><time>2026-05-06T09:53:28Z</time></trkpt><trkpt lat="43.18402477145675" lon="0.016042676904553736"><ele>343.0</ele><time>2026-05-06T09:53:29Z</time></trkpt><trkpt lat="43.184086182731576" lon="0.015996498566116478"><ele>343.0</ele><time>2026-05-06T09:53:30Z</time></trkpt><trkpt lat="43.18414959987823" lon="0.0159537579028504"><ele>343.25</ele><time>2026-05-06T09:53:31Z</time></trkpt><trkpt lat="43.184264239079845" lon="0.015868190025464638"><ele>343.5</ele><time>2026-05-06T09:53:33Z</time></trkpt><trkpt lat="43.18437431407684" lon="0.015821258442220144"><ele>343.75</ele><time>2026-05-06T09:53:35Z</time></trkpt><trkpt lat="43.184476505396105" lon="0.015760182659413514"><ele>344.0</ele><time>2026-05-06T09:53:37Z</time></trkpt><trkpt lat="43.18456372944719" lon="0.015708667396597563"><ele>344.4</ele><time>2026-05-06T09:53:39Z</time></trkpt><trkpt lat="43.184656210715936" lon="0.015667697533462602"><ele>344.79999999999995</ele><time>2026-05-06T09:53:41Z</time></trkpt><trkpt lat="43.18474553143659" lon="0.015627064753096356"><ele>345.20000000000005</ele><time>2026-05-06T09:53:43Z</time></trkpt><trkpt lat="43.18483515719024" lon="0.015618963059169176"><ele>345.6</ele><time>2026-05-06T09:53:45Z</time></trkpt><trkpt lat="43.184931492388536" lon="0.015616912219636039"><ele>346.0</ele><time>2026-05-06T09:53:47Z</time></trkpt><trkpt lat="43.18502993396057" lon="0.01559222219951739"><ele>346.4</ele><time>2026-05-06T09:53:49Z</time></trkpt><trkpt lat="43.18511924724191" lon="0.015529863795722425"><ele>346.8</ele><time>2026-05-06T09:53:51Z</time></trkpt><trkpt lat="43.185255584732126" lon="0.015500456941782238"><ele>347.2</ele><time>2026-05-06T09:53:54Z</time></trkpt><trkpt lat="43.18533750095618" lon="0.015504546376786001"><ele>347.59999999999997</ele><time>2026-05-06T09:53:56Z</time></trkpt><trkpt lat="43.18542010512799" lon="0.015543224490415272"><ele>348.0</ele><time>2026-05-06T09:53:59Z</time></trkpt><trkpt lat="43.185566827305266" lon="0.015603595453779085"><ele>348.0</ele><time>2026-05-06T09:54:01Z</time></trkpt><trkpt lat="43.18568579707342" lon="0.015629500580722572"><ele>348.0</ele><time>2026-05-06T09:54:03Z</time></trkpt><trkpt lat="43.185787929447116" lon="0.01563407984723916"><ele>348.0</ele><time>2026-05-06T09:54:05Z</time></trkpt><trkpt lat="43.18589057042961" lon="0.01564966928763988"><ele>348.0</ele><time>2026-05-06T09:54:07Z</time></trkpt><trkpt lat="43.185997096382174" lon="0.015659177161760917"><ele>348.0</ele><time>2026-05-06T09:54:09Z</time></trkpt><trkpt lat="43.1860979704629" lon="0.015635579648886743"><ele>348.0</ele><time>2026-05-06T09:54:11Z</time></trkpt><trkpt lat="43.186189651552404" lon="0.01564235631056077"><ele>348.0</ele><time>2026-05-06T09:54:13Z</time></trkpt><trkpt lat="43.18627691083297" lon="0.015636987864344053"><ele>348.0</ele><time>2026-05-06T09:54:15Z</time></trkpt><trkpt lat="43.18636944846899" lon="0.015631655524016963"><ele>348.0</ele><time>2026-05-06T09:54:17Z</time></trkpt><trkpt lat="43.18647211451932" lon="0.015607132974449042"><ele>348.0</ele><time>2026-05-06T09:54:19Z</time></trkpt><trkpt lat="43.1865749818925" lon="0.015586109069240238"><ele>348.0</ele><time>2026-05-06T09:54:21Z</time></trkpt><trkpt lat="43.18668519004912" lon="0.015586051752028889"><ele>348.0</ele><time>2026-05-06T09:54:24Z</time></trkpt><trkpt lat="43.18683088702359" lon="0.015526831228179053"><ele>348.0</ele><time>2026-05-06T09:54:26Z</time></trkpt><trkpt lat="43.18693928067069" lon="0.015504481201485839"><ele>348.0</ele><time>2026-05-06T09:54:28Z</time></trkpt><trkpt lat="43.1870469043021" lon="0.01548277205424396"><ele>348.0</ele><time>2026-05-06T09:54:30Z</time></trkpt><trkpt lat="43.18715541914072" lon="0.015462609637597676"><ele>348.0</ele><time>2026-05-06T09:54:32Z</time></trkpt><trkpt lat="43.18726442579203" lon="0.01544450470781771"><ele>348.0</ele><time>2026-05-06T09:54:34Z</time></trkpt><trkpt lat="43.187378942144775" lon="0.015421880838258089"><ele>348.0</ele><time>2026-05-06T09:54:36Z</time></trkpt><trkpt lat="43.187493140816386" lon="0.015397841735962758"><ele>347.4</ele><time>2026-05-06T09:54:38Z</time></trkpt><trkpt lat="43.18760796509974" lon="0.015374447717412804"><ele>346.79999999999995</ele><time>2026-05-06T09:54:40Z</time></trkpt><trkpt lat="43.18772668021356" lon="0.015347069229598113"><ele>346.2</ele><time>2026-05-06T09:54:42Z</time></trkpt><trkpt lat="43.18784411882778" lon="0.01533107490602509"><ele>345.6</ele><time>2026-05-06T09:54:43.999Z</time></trkpt><trkpt lat="43.187911181347026" lon="0.015330777855806882"><ele>345.0</ele><time>2026-05-06T09:54:44.999Z</time></trkpt><trkpt lat="43.18803195848328" lon="0.015295684191950765"><ele>345.0</ele><time>2026-05-06T09:54:46.999Z</time></trkpt><trkpt lat="43.188145162286425" lon="0.015287959843340863"><ele>345.0</ele><time>2026-05-06T09:54:49Z</time></trkpt><trkpt lat="43.188255022350376" lon="0.01525100539550755"><ele>345.0</ele><time>2026-05-06T09:54:51Z</time></trkpt><trkpt lat="43.18831701059885" lon="0.015224174928297241"><ele>345.0</ele><time>2026-05-06T09:54:52Z</time></trkpt><trkpt lat="43.18842407472289" lon="0.015166428645201131"><ele>345.0</ele><time>2026-05-06T09:54:54Z</time></trkpt><trkpt lat="43.18847855949279" lon="0.015122334801843822"><ele>345.0</ele><time>2026-05-06T09:54:55Z</time></trkpt><trkpt lat="43.188585552441296" lon="0.01505710955388071"><ele>345.0</ele><time>2026-05-06T09:54:57Z</time></trkpt><trkpt lat="43.188695423623834" lon="0.014996248379145722"><ele>345.0</ele><time>2026-05-06T09:54:59Z</time></trkpt><trkpt lat="43.188802147195624" lon="0.014907440880593493"><ele>345.0</ele><time>2026-05-06T09:55:01Z</time></trkpt><trkpt lat="43.18890912717157" lon="0.014836312307128797"><ele>345.0</ele><time>2026-05-06T09:55:03Z</time></trkpt><trkpt lat="43.189010694497505" lon="0.01476207915917377"><ele>345.0</ele><time>2026-05-06T09:55:05Z</time></trkpt><trkpt lat="43.18911153032248" lon="0.014690450779581211"><ele>345.0</ele><time>2026-05-06T09:55:07Z</time></trkpt><trkpt lat="43.189213583428916" lon="0.014620330040033687"><ele>345.0</ele><time>2026-05-06T09:55:09Z</time></trkpt><trkpt lat="43.189321331718936" lon="0.01455871181971531"><ele>345.0</ele><time>2026-05-06T09:55:11Z</time></trkpt><trkpt lat="43.18943124870511" lon="0.014489607384481391"><ele>345.0</ele><time>2026-05-06T09:55:13Z</time></trkpt><trkpt lat="43.18953929227988" lon="0.014437968102592253"><ele>345.0</ele><time>2026-05-06T09:55:15Z</time></trkpt><trkpt lat="43.18964795913515" lon="0.01439887189267922"><ele>345.0</ele><time>2026-05-06T09:55:17Z</time></trkpt><trkpt lat="43.18975143833783" lon="0.014360083317765634"><ele>344.75</ele><time>2026-05-06T09:55:19Z</time></trkpt><trkpt lat="43.18985945003697" lon="0.01435152510039538"><ele>344.5</ele><time>2026-05-06T09:55:21Z</time></trkpt><trkpt lat="43.18996817403425" lon="0.014344163872269845"><ele>344.25</ele><time>2026-05-06T09:55:23Z</time></trkpt><trkpt lat="43.190092686929376" lon="0.014338947862887691"><ele>344.0</ele><time>2026-05-06T09:55:25Z</time></trkpt><trkpt lat="43.1902148310481" lon="0.014325954941787032"><ele>344.0</ele><time>2026-05-06T09:55:27Z</time></trkpt><trkpt lat="43.1903331846772" lon="0.014313700230913102"><ele>344.0</ele><time>2026-05-06T09:55:29Z</time></trkpt><trkpt lat="43.19044961126916" lon="0.014287394946293684"><ele>344.0</ele><time>2026-05-06T09:55:31Z</time></trkpt><trkpt lat="43.190562324060444" lon="0.014259364945855108"><ele>344.0</ele><time>2026-05-06T09:55:33Z</time></trkpt><trkpt lat="43.190676950562164" lon="0.014205607041864516"><ele>344.0</ele><time>2026-05-06T09:55:35Z</time></trkpt><trkpt lat="43.19078249590115" lon="0.014158098366757445"><ele>344.0</ele><time>2026-05-06T09:55:37Z</time></trkpt><trkpt lat="43.19084175016136" lon="0.014124665364389426"><ele>344.0</ele><time>2026-05-06T09:55:38Z</time></trkpt><trkpt lat="43.19095325996925" lon="0.01405961166741426"><ele>344.0</ele><time>2026-05-06T09:55:40Z</time></trkpt><trkpt lat="43.191056043767496" lon="0.014009100511068382"><ele>344.0</ele><time>2026-05-06T09:55:42Z</time></trkpt><trkpt lat="43.19116560826392" lon="0.013977783285257615"><ele>343.79999999999995</ele><time>2026-05-06T09:55:44Z</time></trkpt><trkpt lat="43.19128042701817" lon="0.013946791852828528"><ele>343.59999999999997</ele><time>2026-05-06T09:55:46Z</time></trkpt><trkpt lat="43.19138984652855" lon="0.013932817870920372"><ele>343.4</ele><time>2026-05-06T09:55:48Z</time></trkpt><trkpt lat="43.191453440235826" lon="0.013923742004614636"><ele>343.2</ele><time>2026-05-06T09:55:49Z</time></trkpt><trkpt lat="43.191565309564496" lon="0.013914087466039199"><ele>343.0</ele><time>2026-05-06T09:55:51Z</time></trkpt><trkpt lat="43.19168146975729" lon="0.013917288751226818"><ele>343.0</ele><time>2026-05-06T09:55:53Z</time></trkpt><trkpt lat="43.19179020723512" lon="0.013951674193176323"><ele>343.0</ele><time>2026-05-06T09:55:55Z</time></trkpt><trkpt lat="43.191907222397056" lon="0.013962967390326776"><ele>343.0</ele><time>2026-05-06T09:55:57Z</time></trkpt><trkpt lat="43.19201882870109" lon="0.013991735932441862"><ele>343.0</ele><time>2026-05-06T09:55:59Z</time></trkpt><trkpt lat="43.1921324097529" lon="0.014026505746364985"><ele>343.0</ele><time>2026-05-06T09:56:01Z</time></trkpt><trkpt lat="43.19223361000959" lon="0.014090152283173616"><ele>343.0</ele><time>2026-05-06T09:56:03Z</time></trkpt><trkpt lat="43.19234531617864" lon="0.014164260436965366"><ele>343.0</ele><time>2026-05-06T09:56:05Z</time></trkpt><trkpt lat="43.192457096247104" lon="0.014249205545303185"><ele>343.0</ele><time>2026-05-06T09:56:07Z</time></trkpt><trkpt lat="43.1925593692773" lon="0.014325089459207815"><ele>342.75</ele><time>2026-05-06T09:56:09Z</time></trkpt><trkpt lat="43.19267160078038" lon="0.014397132836105678"><ele>342.5</ele><time>2026-05-06T09:56:11Z</time></trkpt><trkpt lat="43.19278409219941" lon="0.014453316156065566"><ele>342.25</ele><time>2026-05-06T09:56:13Z</time></trkpt><trkpt lat="43.19289697984227" lon="0.01450872547662054"><ele>342.0</ele><time>2026-05-06T09:56:15Z</time></trkpt><trkpt lat="43.19301369155679" lon="0.014555833982551288"><ele>342.0</ele><time>2026-05-06T09:56:17Z</time></trkpt><trkpt lat="43.19313549267872" lon="0.014611719675778428"><ele>342.0</ele><time>2026-05-06T09:56:19Z</time></trkpt><trkpt lat="43.19319635496751" lon="0.01464155191665347"><ele>342.0</ele><time>2026-05-06T09:56:20Z</time></trkpt><trkpt lat="43.19326344066824" lon="0.01467740860457518"><ele>342.0</ele><time>2026-05-06T09:56:21Z</time></trkpt><trkpt lat="43.1933298978036" lon="0.014719087068958997"><ele>342.0</ele><time>2026-05-06T09:56:22Z</time></trkpt><trkpt lat="43.19339874033397" lon="0.01475307288076351"><ele>342.0</ele><time>2026-05-06T09:56:23Z</time></trkpt><trkpt lat="43.193468667361735" lon="0.014784396217147661"><ele>341.57142857142856</ele><time>2026-05-06T09:56:24Z</time></trkpt><trkpt lat="43.193540639858014" lon="0.014814965164109767"><ele>341.1428571428571</ele><time>2026-05-06T09:56:25Z</time></trkpt><trkpt lat="43.19360992453993" lon="0.014849702488339825"><ele>340.71428571428567</ele><time>2026-05-06T09:56:26Z</time></trkpt><trkpt lat="43.19367714727247" lon="0.014875929429444736"><ele>340.2857142857143</ele><time>2026-05-06T09:56:27Z</time></trkpt><trkpt lat="43.19374431679589" lon="0.014904216682547726"><ele>339.8571428571429</ele><time>2026-05-06T09:56:28Z</time></trkpt><trkpt lat="43.19381332191346" lon="0.014935435261232108"><ele>339.4285714285714</ele><time>2026-05-06T09:56:29Z</time></trkpt><trkpt lat="43.19388241940091" lon="0.014963573635968048"><ele>339.0</ele><time>2026-05-06T09:56:30Z</time></trkpt><trkpt lat="43.193953928969634" lon="0.014986280692040275"><ele>338.5</ele><time>2026-05-06T09:56:31Z</time></trkpt><trkpt lat="43.194019960306456" lon="0.015008231836753603"><ele>338.0</ele><time>2026-05-06T09:56:32Z</time></trkpt><trkpt lat="43.1940886867152" lon="0.015017842559129848"><ele>337.5</ele><time>2026-05-06T09:56:33Z</time></trkpt><trkpt lat="43.19415415982206" lon="0.015031532098586962"><ele>337.0</ele><time>2026-05-06T09:56:34Z</time></trkpt><trkpt lat="43.1942179086825" lon="0.015047388079044053"><ele>336.5</ele><time>2026-05-06T09:56:35Z</time></trkpt><trkpt lat="43.19430828994504" lon="0.015091736015488588"><ele>336.0</ele><time>2026-05-06T09:56:37Z</time></trkpt><trkpt lat="43.194314688725974" lon="0.015229832106024481"><ele>336.0</ele><time>2026-05-06T09:56:39Z</time></trkpt><trkpt lat="43.19436217464327" lon="0.015334206426634698"><ele>336.0</ele><time>2026-05-06T09:56:41Z</time></trkpt><trkpt lat="43.19441033175729" lon="0.01543856571289887"><ele>336.0</ele><time>2026-05-06T09:56:43Z</time></trkpt><trkpt lat="43.19446676038047" lon="0.01554713016224631"><ele>336.0</ele><time>2026-05-06T09:56:45Z</time></trkpt><trkpt lat="43.194522271963315" lon="0.015661236626606845"><ele>336.0</ele><time>2026-05-06T09:56:47Z</time></trkpt><trkpt lat="43.19457226980857" lon="0.015780260891326076"><ele>336.0</ele><time>2026-05-06T09:56:49Z</time></trkpt><trkpt lat="43.1946299739995" lon="0.015892379582425592"><ele>336.0</ele><time>2026-05-06T09:56:51Z</time></trkpt><trkpt lat="43.194684319604875" lon="0.016009793888149538"><ele>336.0</ele><time>2026-05-06T09:56:53Z</time></trkpt><trkpt lat="43.194739027512966" lon="0.016127155458722474"><ele>336.0</ele><time>2026-05-06T09:56:55Z</time></trkpt><trkpt lat="43.19482426485131" lon="0.016213478970428765"><ele>336.0</ele><time>2026-05-06T09:56:57Z</time></trkpt><trkpt lat="43.19490490393877" lon="0.01630181777752207"><ele>335.6</ele><time>2026-05-06T09:56:59Z</time></trkpt><trkpt lat="43.19500239961645" lon="0.01637629291937186"><ele>335.20000000000005</ele><time>2026-05-06T09:57:01Z</time></trkpt><trkpt lat="43.195108395323594" lon="0.016442201349911208"><ele>334.79999999999995</ele><time>2026-05-06T09:57:03Z</time></trkpt><trkpt lat="43.195199909236635" lon="0.01651424972978754"><ele>334.4</ele><time>2026-05-06T09:57:05Z</time></trkpt><trkpt lat="43.19529654422452" lon="0.0165885525677707"><ele>334.0</ele><time>2026-05-06T09:57:07Z</time></trkpt><trkpt lat="43.195387130310344" lon="0.016676400477013183"><ele>333.79999999999995</ele><time>2026-05-06T09:57:09Z</time></trkpt><trkpt lat="43.19546334227396" lon="0.0167760122284401"><ele>333.59999999999997</ele><time>2026-05-06T09:57:11Z</time></trkpt><trkpt lat="43.195542281286265" lon="0.016870722052680174"><ele>333.4</ele><time>2026-05-06T09:57:13Z</time></trkpt><trkpt lat="43.195625249540264" lon="0.01697429620467361"><ele>333.2</ele><time>2026-05-06T09:57:15Z</time></trkpt><trkpt lat="43.19570465984185" lon="0.017074002296281702"><ele>333.0</ele><time>2026-05-06T09:57:17Z</time></trkpt><trkpt lat="43.19579234110988" lon="0.01718104476585666"><ele>333.0</ele><time>2026-05-06T09:57:19Z</time></trkpt><trkpt lat="43.19588100296055" lon="0.01728237000386176"><ele>333.0</ele><time>2026-05-06T09:57:21Z</time></trkpt><trkpt lat="43.19596797352152" lon="0.017378553583662883"><ele>333.0</ele><time>2026-05-06T09:57:23Z</time></trkpt><trkpt lat="43.196044045571064" lon="0.017500903521307322"><ele>333.0</ele><time>2026-05-06T09:57:25Z</time></trkpt><trkpt lat="43.1960876695928" lon="0.017567517533408895"><ele>333.0</ele><time>2026-05-06T09:57:26Z</time></trkpt><trkpt lat="43.1961745028304" lon="0.017671688058289666"><ele>333.0</ele><time>2026-05-06T09:57:28Z</time></trkpt><trkpt lat="43.196224108827124" lon="0.017726301718027044"><ele>333.0</ele><time>2026-05-06T09:57:29Z</time></trkpt><trkpt lat="43.19632597304148" lon="0.017826728378877818"><ele>333.0</ele><time>2026-05-06T09:57:31Z</time></trkpt><trkpt lat="43.19642880095277" lon="0.017916248800707753"><ele>333.0</ele><time>2026-05-06T09:57:33Z</time></trkpt><trkpt lat="43.1965227400417" lon="0.01798954933138137"><ele>333.0</ele><time>2026-05-06T09:57:35Z</time></trkpt><trkpt lat="43.19659497208456" lon="0.018056140417791612"><ele>333.0</ele><time>2026-05-06T09:57:37Z</time></trkpt><trkpt lat="43.19665852007647" lon="0.018115029834739782"><ele>333.0</ele><time>2026-05-06T09:57:39Z</time></trkpt><trkpt lat="43.19670559726728" lon="0.018196830938829938"><ele>333.0</ele><time>2026-05-06T09:57:42Z</time></trkpt><trkpt lat="43.1967501953174" lon="0.018284281755701275"><ele>333.0</ele><time>2026-05-06T09:57:46Z</time></trkpt><trkpt lat="43.19680356179321" lon="0.018500887027936053"><ele>333.0</ele><time>2026-05-06T09:57:47Z</time></trkpt><trkpt lat="43.19692009390278" lon="0.0181833682402451"><ele>333.0</ele><time>2026-05-06T09:57:48Z</time></trkpt><trkpt lat="43.19698719462364" lon="0.018159654683596614"><ele>333.0</ele><time>2026-05-06T09:57:50Z</time></trkpt><trkpt lat="43.19706001610661" lon="0.018181493774737347"><ele>333.0</ele><time>2026-05-06T09:57:53Z</time></trkpt><trkpt lat="43.19712830910379" lon="0.018215158854013584"><ele>333.0</ele><time>2026-05-06T09:57:56Z</time></trkpt><trkpt lat="43.197201697471606" lon="0.01827599074197262"><ele>333.0</ele><time>2026-05-06T09:57:59Z</time></trkpt><trkpt lat="43.19728985308097" lon="0.018344955360297344"><ele>333.0</ele><time>2026-05-06T09:58:02Z</time></trkpt><trkpt lat="43.19736385832114" lon="0.01840428295927126"><ele>332.79999999999995</ele><time>2026-05-06T09:58:04Z</time></trkpt><trkpt lat="43.19744563683144" lon="0.018453711859712566"><ele>332.6</ele><time>2026-05-06T09:58:06Z</time></trkpt><trkpt lat="43.19752196318165" lon="0.018516557637842816"><ele>332.4</ele><time>2026-05-06T09:58:08Z</time></trkpt><trkpt lat="43.19760624050391" lon="0.018574532216773375"><ele>332.20000000000005</ele><time>2026-05-06T09:58:10Z</time></trkpt><trkpt lat="43.19768291660804" lon="0.018645075859558196"><ele>332.0</ele><time>2026-05-06T09:58:12Z</time></trkpt><trkpt lat="43.19776673801925" lon="0.018721810748853818"><ele>332.0</ele><time>2026-05-06T09:58:14Z</time></trkpt><trkpt lat="43.19784443632614" lon="0.018805615242356553"><ele>332.0</ele><time>2026-05-06T09:58:16Z</time></trkpt><trkpt lat="43.19792917903054" lon="0.018887220247065743"><ele>332.0</ele><time>2026-05-06T09:58:18Z</time></trkpt><trkpt lat="43.198018467123674" lon="0.018963257679977533"><ele>332.0</ele><time>2026-05-06T09:58:20Z</time></trkpt><trkpt lat="43.19809732851743" lon="0.019046764730057817"><ele>332.0</ele><time>2026-05-06T09:58:22Z</time></trkpt><trkpt lat="43.198183300550696" lon="0.019139245354167087"><ele>331.75</ele><time>2026-05-06T09:58:24Z</time></trkpt><trkpt lat="43.198263308159554" lon="0.019226802090674133"><ele>331.5</ele><time>2026-05-06T09:58:26Z</time></trkpt><trkpt lat="43.19823873370971" lon="0.01942131915732618"><ele>331.25</ele><time>2026-05-06T09:58:27Z</time></trkpt><trkpt lat="43.19833087401289" lon="0.019486785050461846"><ele>331.0</ele><time>2026-05-06T09:58:29Z</time></trkpt><trkpt lat="43.19841946710705" lon="0.01955257479648534"><ele>331.0</ele><time>2026-05-06T09:58:32Z</time></trkpt><trkpt lat="43.19847914022739" lon="0.01958544254928729"><ele>331.0</ele><time>2026-05-06T09:58:37Z</time></trkpt><trkpt lat="43.198554706800216" lon="0.019489349797386202"><ele>331.0</ele><time>2026-05-06T09:58:57Z</time></trkpt><trkpt lat="43.19852318638978" lon="0.019613244275091365"><ele>331.0</ele><time>2026-05-06T09:59:03Z</time></trkpt><trkpt lat="43.198534940878524" lon="0.019698082563769745"><ele>331.0</ele><time>2026-05-06T09:59:05Z</time></trkpt><trkpt lat="43.19862139018881" lon="0.019735879558029187"><ele>331.0</ele><time>2026-05-06T09:59:07Z</time></trkpt><trkpt lat="43.198693850590985" lon="0.0197680200868682"><ele>331.0</ele><time>2026-05-06T09:59:09Z</time></trkpt><trkpt lat="43.198762556661485" lon="0.01981020046510198"><ele>331.0</ele><time>2026-05-06T09:59:11Z</time></trkpt><trkpt lat="43.198828587276324" lon="0.019843863939116"><ele>331.0</ele><time>2026-05-06T09:59:13Z</time></trkpt><trkpt lat="43.19888952997248" lon="0.01986625406562017"><ele>331.0</ele><time>2026-05-06T09:59:15Z</time></trkpt><trkpt lat="43.19894220499261" lon="0.019915723303314814"><ele>331.0</ele><time>2026-05-06T09:59:18Z</time></trkpt><trkpt lat="43.1989855886995" lon="0.020000657720666254"><ele>331.0</ele><time>2026-05-06T09:59:21Z</time></trkpt><trkpt lat="43.199045810202215" lon="0.020074663445945266"><ele>331.0</ele><time>2026-05-06T09:59:25Z</time></trkpt><trkpt lat="43.199113753784445" lon="0.020111083382158206"><ele>330.5</ele><time>2026-05-06T09:59:28Z</time></trkpt><trkpt lat="43.199200645129494" lon="0.020171247871042977"><ele>330.0</ele><time>2026-05-06T09:59:31Z</time></trkpt><trkpt lat="43.199255283255255" lon="0.02023300098095966"><ele>329.5</ele><time>2026-05-06T09:59:33Z</time></trkpt><trkpt lat="43.19931916488971" lon="0.020303769214314784"><ele>329.0</ele><time>2026-05-06T09:59:35Z</time></trkpt><trkpt lat="43.19938707361204" lon="0.020374136731743722"><ele>328.5</ele><time>2026-05-06T09:59:37Z</time></trkpt><trkpt lat="43.19944351700025" lon="0.020442932982417276"><ele>328.0</ele><time>2026-05-06T09:59:39Z</time></trkpt><trkpt lat="43.19951147351315" lon="0.020517204243676326"><ele>328.0</ele><time>2026-05-06T09:59:41Z</time></trkpt><trkpt lat="43.199571021743445" lon="0.020607349534267082"><ele>328.0</ele><time>2026-05-06T09:59:43Z</time></trkpt><trkpt lat="43.199614301579814" lon="0.020678261283022838"><ele>328.0</ele><time>2026-05-06T09:59:45Z</time></trkpt><trkpt lat="43.199573899102546" lon="0.02078843588447987"><ele>328.0</ele><time>2026-05-06T09:59:47Z</time></trkpt><trkpt lat="43.19952759364352" lon="0.02088699582570372"><ele>328.0</ele><time>2026-05-06T09:59:49Z</time></trkpt><trkpt lat="43.19949913364128" lon="0.020996045328365593"><ele>328.0</ele><time>2026-05-06T09:59:51Z</time></trkpt><trkpt lat="43.19949938132069" lon="0.021103371904723313"><ele>328.0</ele><time>2026-05-06T09:59:53Z</time></trkpt><trkpt lat="43.199492790787396" lon="0.021221389867443652"><ele>328.0</ele><time>2026-05-06T09:59:55Z</time></trkpt><trkpt lat="43.199483189365154" lon="0.021334092922981995"><ele>328.0</ele><time>2026-05-06T09:59:57Z</time></trkpt><trkpt lat="43.19946549226558" lon="0.021462444337489704"><ele>328.0</ele><time>2026-05-06T09:59:59Z</time></trkpt><trkpt lat="43.199455206640685" lon="0.021581304596333405"><ele>328.0</ele><time>2026-05-06T10:00:01Z</time></trkpt><trkpt lat="43.19942653791514" lon="0.021699954836917498"><ele>328.0</ele><time>2026-05-06T10:00:03Z</time></trkpt><trkpt lat="43.19941480664526" lon="0.021808744760992076"><ele>327.79999999999995</ele><time>2026-05-06T10:00:05Z</time></trkpt><trkpt lat="43.19940003159353" lon="0.021947018299426444"><ele>327.6</ele><time>2026-05-06T10:00:07Z</time></trkpt><trkpt lat="43.19935892880343" lon="0.022053967279363408"><ele>327.4</ele><time>2026-05-06T10:00:09Z</time></trkpt><trkpt lat="43.19932943290965" lon="0.0221657418473179"><ele>327.20000000000005</ele><time>2026-05-06T10:00:11Z</time></trkpt><trkpt lat="43.199324505309804" lon="0.022293230812661026"><ele>327.0</ele><time>2026-05-06T10:00:13Z</time></trkpt><trkpt lat="43.19932199957728" lon="0.022421585626487477"><ele>327.40000000000003</ele><time>2026-05-06T10:00:15Z</time></trkpt><trkpt lat="43.19932465232324" lon="0.02254625487280982"><ele>327.8</ele><time>2026-05-06T10:00:17Z</time></trkpt><trkpt lat="43.19933203856906" lon="0.022672093041580275"><ele>328.2</ele><time>2026-05-06T10:00:19Z</time></trkpt><trkpt lat="43.199348761752645" lon="0.022798841506610004"><ele>328.6</ele><time>2026-05-06T10:00:21Z</time></trkpt><trkpt lat="43.199371724561345" lon="0.022919468630251603"><ele>329.0</ele><time>2026-05-06T10:00:23Z</time></trkpt><trkpt lat="43.19939742105703" lon="0.023037668330791326"><ele>329.0</ele><time>2026-05-06T10:00:25Z</time></trkpt><trkpt lat="43.199418388467684" lon="0.023148986809950336"><ele>329.0</ele><time>2026-05-06T10:00:27Z</time></trkpt><trkpt lat="43.1994261146291" lon="0.023270084968380393"><ele>329.0</ele><time>2026-05-06T10:00:29Z</time></trkpt><trkpt lat="43.1994298920163" lon="0.023377504655774765"><ele>329.0</ele><time>2026-05-06T10:00:31Z</time></trkpt><trkpt lat="43.19943461936785" lon="0.023491358858388205"><ele>329.0</ele><time>2026-05-06T10:00:33Z</time></trkpt><trkpt lat="43.1994653856945" lon="0.023573780368708053"><ele>329.0</ele><time>2026-05-06T10:00:35Z</time></trkpt><trkpt lat="43.19955212965738" lon="0.023601322667308234"><ele>329.0</ele><time>2026-05-06T10:00:37Z</time></trkpt><trkpt lat="43.19962548132007" lon="0.0236000344087612"><ele>329.0</ele><time>2026-05-06T10:00:39Z</time></trkpt><trkpt lat="43.19971033315201" lon="0.023572700428266126"><ele>329.0</ele><time>2026-05-06T10:00:41Z</time></trkpt><trkpt lat="43.19979493425326" lon="0.023588071063340755"><ele>329.0</ele><time>2026-05-06T10:00:43Z</time></trkpt><trkpt lat="43.1998889289586" lon="0.02356824238065194"><ele>329.0</ele><time>2026-05-06T10:00:45Z</time></trkpt><trkpt lat="43.199969046480156" lon="0.023583705381702697"><ele>329.0</ele><time>2026-05-06T10:00:47Z</time></trkpt><trkpt lat="43.200064248886584" lon="0.02360654412058276"><ele>328.79999999999995</ele><time>2026-05-06T10:00:49Z</time></trkpt><trkpt lat="43.20015571256668" lon="0.02361623221616502"><ele>328.59999999999997</ele><time>2026-05-06T10:00:51Z</time></trkpt><trkpt lat="43.200251552732105" lon="0.023671045133721237"><ele>328.4</ele><time>2026-05-06T10:00:53Z</time></trkpt><trkpt lat="43.20034074042859" lon="0.02370049105594776"><ele>328.2</ele><time>2026-05-06T10:00:55Z</time></trkpt><trkpt lat="43.2004210750578" lon="0.02369803509247747"><ele>328.0</ele><time>2026-05-06T10:00:57Z</time></trkpt><trkpt lat="43.20050812838903" lon="0.023671564418483393"><ele>328.0</ele><time>2026-05-06T10:00:59Z</time></trkpt><trkpt lat="43.20058265031309" lon="0.02367307038564369"><ele>328.0</ele><time>2026-05-06T10:01:01Z</time></trkpt><trkpt lat="43.20066180011154" lon="0.02367116528885387"><ele>328.0</ele><time>2026-05-06T10:01:04Z</time></trkpt><trkpt lat="43.200737424268326" lon="0.02366638875964363"><ele>328.0</ele><time>2026-05-06T10:01:08Z</time></trkpt><trkpt lat="43.20081009857074" lon="0.02368511329051327"><ele>328.0</ele><time>2026-05-06T10:01:11Z</time></trkpt><trkpt lat="43.20086904250129" lon="0.02363532642424634"><ele>328.0</ele><time>2026-05-06T10:01:12Z</time></trkpt><trkpt lat="43.200941575339314" lon="0.02357810666260666"><ele>328.16666666666663</ele><time>2026-05-06T10:01:14Z</time></trkpt><trkpt lat="43.201001884674504" lon="0.023514051073227717"><ele>328.3333333333333</ele><time>2026-05-06T10:01:16Z</time></trkpt><trkpt lat="43.20107152250431" lon="0.023479567700401036"><ele>328.5</ele><time>2026-05-06T10:01:18Z</time></trkpt><trkpt lat="43.201137729321935" lon="0.023462042730477646"><ele>328.6666666666667</ele><time>2026-05-06T10:01:19Z</time></trkpt><trkpt lat="43.20123989289007" lon="0.023412252629851218"><ele>328.83333333333337</ele><time>2026-05-06T10:01:21Z</time></trkpt><trkpt lat="43.20129394289801" lon="0.02335024654147942"><ele>329.0</ele><time>2026-05-06T10:01:23Z</time></trkpt><trkpt lat="43.20129927502174" lon="0.023259568109535708"><ele>329.0</ele><time>2026-05-06T10:01:24Z</time></trkpt><trkpt lat="43.2013179731374" lon="0.023110219654263728"><ele>329.0</ele><time>2026-05-06T10:01:26Z</time></trkpt><trkpt lat="43.2013390492523" lon="0.022964174374257216"><ele>329.0</ele><time>2026-05-06T10:01:28Z</time></trkpt><trkpt lat="43.20134923017471" lon="0.022818201804680322"><ele>329.0</ele><time>2026-05-06T10:01:30Z</time></trkpt><trkpt lat="43.20135107332604" lon="0.022681924251022872"><ele>329.0</ele><time>2026-05-06T10:01:32Z</time></trkpt><trkpt lat="43.20134800865616" lon="0.022549231741103508"><ele>329.0</ele><time>2026-05-06T10:01:34Z</time></trkpt><trkpt lat="43.20136403576084" lon="0.022436985363132347"><ele>329.0</ele><time>2026-05-06T10:01:36Z</time></trkpt><trkpt lat="43.201430987119764" lon="0.02238468932870476"><ele>329.0</ele><time>2026-05-06T10:01:38Z</time></trkpt><trkpt lat="43.20150763542043" lon="0.022413878044649404"><ele>329.0</ele><time>2026-05-06T10:01:40Z</time></trkpt><trkpt lat="43.201597925886325" lon="0.022425262069716793"><ele>329.0</ele><time>2026-05-06T10:01:42Z</time></trkpt><trkpt lat="43.201663167660826" lon="0.022484733276953058"><ele>329.0</ele><time>2026-05-06T10:01:44Z</time></trkpt><trkpt lat="43.2017482792286" lon="0.02249470256207304"><ele>328.79999999999995</ele><time>2026-05-06T10:01:46Z</time></trkpt><trkpt lat="43.20182442272379" lon="0.022492538161975877"><ele>328.59999999999997</ele><time>2026-05-06T10:01:48Z</time></trkpt><trkpt lat="43.201918653111356" lon="0.022456581659532012"><ele>328.4</ele><time>2026-05-06T10:01:50Z</time></trkpt><trkpt lat="43.201995883855275" lon="0.02244674426335853"><ele>328.2</ele><time>2026-05-06T10:01:52Z</time></trkpt><trkpt lat="43.202089430847955" lon="0.022407553332648066"><ele>328.0</ele><time>2026-05-06T10:01:54Z</time></trkpt><trkpt lat="43.20219645817393" lon="0.022426203441720596"><ele>328.0</ele><time>2026-05-06T10:01:56Z</time></trkpt><trkpt lat="43.202265179217754" lon="0.022548393613216127"><ele>328.0</ele><time>2026-05-06T10:01:58Z</time></trkpt><trkpt lat="43.202337381605915" lon="0.02266770183451031"><ele>328.0</ele><time>2026-05-06T10:02:00Z</time></trkpt><trkpt lat="43.20239896423645" lon="0.022773607994860782"><ele>328.0</ele><time>2026-05-06T10:02:02Z</time></trkpt><trkpt lat="43.202467208498184" lon="0.022877175799516397"><ele>328.0</ele><time>2026-05-06T10:02:04Z</time></trkpt><trkpt lat="43.20253291614896" lon="0.022998767803526936"><ele>328.2</ele><time>2026-05-06T10:02:06Z</time></trkpt><trkpt lat="43.20259277018535" lon="0.02310235030918757"><ele>328.4</ele><time>2026-05-06T10:02:08Z</time></trkpt><trkpt lat="43.2026244627517" lon="0.0232439534068155"><ele>328.59999999999997</ele><time>2026-05-06T10:02:10Z</time></trkpt><trkpt lat="43.20262067078942" lon="0.023380191512358418"><ele>328.79999999999995</ele><time>2026-05-06T10:02:12Z</time></trkpt><trkpt lat="43.20265279313768" lon="0.023513514472324696"><ele>329.0</ele><time>2026-05-06T10:02:14Z</time></trkpt><trkpt lat="43.202716273776964" lon="0.023637762958367455"><ele>328.6</ele><time>2026-05-06T10:02:16Z</time></trkpt><trkpt lat="43.202771085554424" lon="0.02377172950820515"><ele>328.2</ele><time>2026-05-06T10:02:18Z</time></trkpt><trkpt lat="43.20283048842119" lon="0.02391015640888092"><ele>327.8</ele><time>2026-05-06T10:02:20Z</time></trkpt><trkpt lat="43.202884534765" lon="0.024059599512400227"><ele>327.40000000000003</ele><time>2026-05-06T10:02:22Z</time></trkpt><trkpt lat="43.20291015100897" lon="0.02414224194752456"><ele>327.0</ele><time>2026-05-06T10:02:23Z</time></trkpt><trkpt lat="43.202947493679325" lon="0.024292359006681082"><ele>326.75</ele><time>2026-05-06T10:02:25Z</time></trkpt><trkpt lat="43.20298620820789" lon="0.024436680725589403"><ele>326.5</ele><time>2026-05-06T10:02:27Z</time></trkpt><trkpt lat="43.203049789540145" lon="0.02456615690897275"><ele>326.25</ele><time>2026-05-06T10:02:29Z</time></trkpt><trkpt lat="43.20314338980852" lon="0.024667769674087757"><ele>326.0</ele><time>2026-05-06T10:02:31Z</time></trkpt><trkpt lat="43.20324785156242" lon="0.024731440834361483"><ele>326.0</ele><time>2026-05-06T10:02:33Z</time></trkpt><trkpt lat="43.20334964629969" lon="0.02477792909775005"><ele>326.0</ele><time>2026-05-06T10:02:35Z</time></trkpt><trkpt lat="43.2034482677301" lon="0.024830845737945872"><ele>326.0</ele><time>2026-05-06T10:02:37Z</time></trkpt><trkpt lat="43.20353047521148" lon="0.02490157710068575"><ele>326.0</ele><time>2026-05-06T10:02:41Z</time></trkpt><trkpt lat="43.203594194750096" lon="0.02494441456303675"><ele>326.0</ele><time>2026-05-06T10:02:43Z</time></trkpt><trkpt lat="43.203810388896386" lon="0.025028906950829384"><ele>326.0</ele><time>2026-05-06T10:02:44Z</time></trkpt><trkpt lat="43.20391018159502" lon="0.02509878027592573"><ele>326.0</ele><time>2026-05-06T10:02:46Z</time></trkpt><trkpt lat="43.204007108305404" lon="0.025158132424499376"><ele>326.0</ele><time>2026-05-06T10:02:48Z</time></trkpt><trkpt lat="43.20409949006184" lon="0.025214304163200533"><ele>326.0</ele><time>2026-05-06T10:02:50Z</time></trkpt><trkpt lat="43.2041473357719" lon="0.02530263889977155"><ele>326.0</ele><time>2026-05-06T10:02:52Z</time></trkpt><trkpt lat="43.20417154554863" lon="0.0254156943332243"><ele>326.0</ele><time>2026-05-06T10:02:54Z</time></trkpt><trkpt lat="43.20420503157479" lon="0.025535212262158977"><ele>326.0</ele><time>2026-05-06T10:02:56Z</time></trkpt><trkpt lat="43.20428482218936" lon="0.025640453263506956"><ele>326.0</ele><time>2026-05-06T10:02:58Z</time></trkpt><trkpt lat="43.204384715523496" lon="0.025697192807498378"><ele>326.0</ele><time>2026-05-06T10:03:00Z</time></trkpt><trkpt lat="43.20448686524088" lon="0.02574539756649821"><ele>326.0</ele><time>2026-05-06T10:03:02Z</time></trkpt><trkpt lat="43.204602707388105" lon="0.025791709849662763"><ele>325.8</ele><time>2026-05-06T10:03:04Z</time></trkpt><trkpt lat="43.204696727154705" lon="0.025833187355640008"><ele>325.6</ele><time>2026-05-06T10:03:06Z</time></trkpt><trkpt lat="43.204822883616224" lon="0.02586813505085607"><ele>325.4</ele><time>2026-05-06T10:03:09Z</time></trkpt><trkpt lat="43.20493182843544" lon="0.025904088555876326"><ele>325.2</ele><time>2026-05-06T10:03:11Z</time></trkpt><trkpt lat="43.205010083697694" lon="0.025941007443474672"><ele>325.0</ele><time>2026-05-06T10:03:12Z</time></trkpt><trkpt lat="43.20507120918857" lon="0.025968755719160096"><ele>325.0</ele><time>2026-05-06T10:03:13Z</time></trkpt><trkpt lat="43.20518366211148" lon="0.02604839287485538"><ele>325.0</ele><time>2026-05-06T10:03:15Z</time></trkpt><trkpt lat="43.20528000142535" lon="0.026152903307273625"><ele>325.0</ele><time>2026-05-06T10:03:17Z</time></trkpt><trkpt lat="43.205329882510426" lon="0.026210467576941208"><ele>325.0</ele><time>2026-05-06T10:03:18Z</time></trkpt><trkpt lat="43.205404490250714" lon="0.026342157557098168"><ele>325.0</ele><time>2026-05-06T10:03:20Z</time></trkpt><trkpt lat="43.20547808265933" lon="0.026483231759324107"><ele>325.0</ele><time>2026-05-06T10:03:22Z</time></trkpt><trkpt lat="43.20555998209726" lon="0.026613777946094413"><ele>325.0</ele><time>2026-05-06T10:03:24Z</time></trkpt><trkpt lat="43.20559478752301" lon="0.026687178924757537"><ele>325.0</ele><time>2026-05-06T10:03:25Z</time></trkpt><trkpt lat="43.20566142729688" lon="0.026818257270205946"><ele>325.0</ele><time>2026-05-06T10:03:27Z</time></trkpt><trkpt lat="43.20569860702944" lon="0.026889352267067748"><ele>325.0</ele><time>2026-05-06T10:03:28Z</time></trkpt><trkpt lat="43.20578578770402" lon="0.027009600731301084"><ele>324.8333333333333</ele><time>2026-05-06T10:03:30Z</time></trkpt><trkpt lat="43.205891039862664" lon="0.027113740559949553"><ele>324.66666666666663</ele><time>2026-05-06T10:03:32Z</time></trkpt><trkpt lat="43.205947463372496" lon="0.027163515078457687"><ele>324.5</ele><time>2026-05-06T10:03:33Z</time></trkpt><trkpt lat="43.20600469267521" lon="0.02720506544501514"><ele>324.3333333333333</ele><time>2026-05-06T10:03:34Z</time></trkpt><trkpt lat="43.20606003067796" lon="0.027247505755192917"><ele>324.1666666666667</ele><time>2026-05-06T10:03:35Z</time></trkpt><trkpt lat="43.206123501284026" lon="0.02727777165618601"><ele>324.0</ele><time>2026-05-06T10:03:36Z</time></trkpt><trkpt lat="43.20618562799322" lon="0.02730805367691732"><ele>324.0</ele><time>2026-05-06T10:03:37Z</time></trkpt><trkpt lat="43.206248765617" lon="0.027339601633266094"><ele>324.0</ele><time>2026-05-06T10:03:38Z</time></trkpt><trkpt lat="43.20636000416328" lon="0.027385810035495253"><ele>324.0</ele><time>2026-05-06T10:03:40Z</time></trkpt><trkpt lat="43.20642353053001" lon="0.027411811885842876"><ele>324.0</ele><time>2026-05-06T10:03:41Z</time></trkpt><trkpt lat="43.20648370015411" lon="0.027441846910989037"><ele>324.0</ele><time>2026-05-06T10:03:42Z</time></trkpt><trkpt lat="43.20654610383363" lon="0.02747055762643528"><ele>324.0</ele><time>2026-05-06T10:03:43Z</time></trkpt><trkpt lat="43.20665948339194" lon="0.02752786918415834"><ele>324.0</ele><time>2026-05-06T10:03:45Z</time></trkpt><trkpt lat="43.20672493553353" lon="0.027546648143244527"><ele>324.0</ele><time>2026-05-06T10:03:46Z</time></trkpt><trkpt lat="43.20683876471771" lon="0.027603871920485516"><ele>324.0</ele><time>2026-05-06T10:03:48Z</time></trkpt><trkpt lat="43.20695363922393" lon="0.027643739979291437"><ele>324.0</ele><time>2026-05-06T10:03:50Z</time></trkpt><trkpt lat="43.20707053308272" lon="0.02769123888197315"><ele>324.0</ele><time>2026-05-06T10:03:52Z</time></trkpt><trkpt lat="43.20713401347256" lon="0.027708919768758014"><ele>324.0</ele><time>2026-05-06T10:03:53Z</time></trkpt><trkpt lat="43.20725279790208" lon="0.027752272924152475"><ele>324.0</ele><time>2026-05-06T10:03:55Z</time></trkpt><trkpt lat="43.20736645109931" lon="0.027786212837802835"><ele>324.0</ele><time>2026-05-06T10:03:57Z</time></trkpt><trkpt lat="43.20743237810868" lon="0.027809794076841837"><ele>324.0</ele><time>2026-05-06T10:03:58Z</time></trkpt><trkpt lat="43.20752173783925" lon="0.027825851526844327"><ele>324.0</ele><time>2026-05-06T10:03:59Z</time></trkpt><trkpt lat="43.2076340465672" lon="0.027849158008644074"><ele>324.0</ele><time>2026-05-06T10:04:01Z</time></trkpt><trkpt lat="43.20775284911981" lon="0.027869812649759924"><ele>324.0</ele><time>2026-05-06T10:04:03Z</time></trkpt><trkpt lat="43.20787669840612" lon="0.027886036848451798"><ele>324.0</ele><time>2026-05-06T10:04:05Z</time></trkpt><trkpt lat="43.20794149125302" lon="0.02789693411950337"><ele>324.0</ele><time>2026-05-06T10:04:06Z</time></trkpt><trkpt lat="43.208058087767" lon="0.02793277407147258"><ele>324.0</ele><time>2026-05-06T10:04:08Z</time></trkpt><trkpt lat="43.20817292590675" lon="0.02797158881210238"><ele>323.75</ele><time>2026-05-06T10:04:10Z</time></trkpt><trkpt lat="43.208283080769604" lon="0.028003534677947764"><ele>323.5</ele><time>2026-05-06T10:04:12Z</time></trkpt><trkpt lat="43.20839714624819" lon="0.02804541571363213"><ele>323.25</ele><time>2026-05-06T10:04:14Z</time></trkpt><trkpt lat="43.20850318332133" lon="0.028088111076626815"><ele>323.0</ele><time>2026-05-06T10:04:16Z</time></trkpt><trkpt lat="43.20860685475997" lon="0.028131695571425582"><ele>323.0</ele><time>2026-05-06T10:04:18Z</time></trkpt><trkpt lat="43.208714655046464" lon="0.028172998288575387"><ele>323.0</ele><time>2026-05-06T10:04:20Z</time></trkpt><trkpt lat="43.208819638783645" lon="0.028231487852857153"><ele>323.0</ele><time>2026-05-06T10:04:22Z</time></trkpt><trkpt lat="43.20891684927506" lon="0.028324713986154874"><ele>323.0</ele><time>2026-05-06T10:04:24Z</time></trkpt><trkpt lat="43.20903148396501" lon="0.028382103250631303"><ele>323.0</ele><time>2026-05-06T10:04:26Z</time></trkpt><trkpt lat="43.20913293744606" lon="0.02845383062715068"><ele>323.0</ele><time>2026-05-06T10:04:28Z</time></trkpt><trkpt lat="43.20923429140984" lon="0.028535947869200766"><ele>323.0</ele><time>2026-05-06T10:04:30Z</time></trkpt><trkpt lat="43.209334962205844" lon="0.028619607625850776"><ele>323.0</ele><time>2026-05-06T10:04:32Z</time></trkpt><trkpt lat="43.2093921420382" lon="0.02865961444863012"><ele>323.0</ele><time>2026-05-06T10:04:33Z</time></trkpt><trkpt lat="43.2094982122485" lon="0.02872707427991384"><ele>323.0</ele><time>2026-05-06T10:04:35Z</time></trkpt><trkpt lat="43.20959372889687" lon="0.02879968343801867"><ele>323.0</ele><time>2026-05-06T10:04:37Z</time></trkpt><trkpt lat="43.20969232420925" lon="0.02886746170914795"><ele>323.0</ele><time>2026-05-06T10:04:39Z</time></trkpt><trkpt lat="43.2097885301648" lon="0.028937243120160917"><ele>323.0</ele><time>2026-05-06T10:04:41Z</time></trkpt><trkpt lat="43.209900709381415" lon="0.02900275476040762"><ele>322.75</ele><time>2026-05-06T10:04:43Z</time></trkpt><trkpt lat="43.21001105998128" lon="0.029043824471920308"><ele>322.5</ele><time>2026-05-06T10:04:45Z</time></trkpt><trkpt lat="43.2101163625173" lon="0.02909847820554637"><ele>322.25</ele><time>2026-05-06T10:04:47Z</time></trkpt><trkpt lat="43.21022800828778" lon="0.029158851105034047"><ele>322.0</ele><time>2026-05-06T10:04:49Z</time></trkpt><trkpt lat="43.21033457346046" lon="0.029238874518325072"><ele>321.8333333333333</ele><time>2026-05-06T10:04:51Z</time></trkpt><trkpt lat="43.21044285529139" lon="0.02933217865331186"><ele>321.66666666666663</ele><time>2026-05-06T10:04:53Z</time></trkpt><trkpt lat="43.210499272289475" lon="0.02938659771686731"><ele>321.5</ele><time>2026-05-06T10:04:54Z</time></trkpt><trkpt lat="43.210547434792346" lon="0.02944460645098317"><ele>321.3333333333333</ele><time>2026-05-06T10:04:55Z</time></trkpt><trkpt lat="43.2105974370255" lon="0.02949887701008493"><ele>321.1666666666667</ele><time>2026-05-06T10:04:56Z</time></trkpt><trkpt lat="43.21064843981261" lon="0.029558053823728878"><ele>321.0</ele><time>2026-05-06T10:04:57Z</time></trkpt><trkpt lat="43.21074535011345" lon="0.029658923586561727"><ele>321.0</ele><time>2026-05-06T10:04:59Z</time></trkpt><trkpt lat="43.210847929311164" lon="0.029753406490930147"><ele>321.0</ele><time>2026-05-06T10:05:01Z</time></trkpt><trkpt lat="43.210947461305494" lon="0.029846279331702974"><ele>321.0</ele><time>2026-05-06T10:05:03Z</time></trkpt><trkpt lat="43.211045379920584" lon="0.02994413109623708"><ele>321.0</ele><time>2026-05-06T10:05:05Z</time></trkpt><trkpt lat="43.211139251397185" lon="0.030036503348552717"><ele>321.0</ele><time>2026-05-06T10:05:07Z</time></trkpt><trkpt lat="43.211238610139304" lon="0.03011778188779592"><ele>321.0</ele><time>2026-05-06T10:05:09Z</time></trkpt><trkpt lat="43.21132637897972" lon="0.030195686724397194"><ele>321.0</ele><time>2026-05-06T10:05:11Z</time></trkpt><trkpt lat="43.21138456813871" lon="0.030231801642660084"><ele>321.0</ele><time>2026-05-06T10:05:12Z</time></trkpt><trkpt lat="43.21148564995347" lon="0.030318210449433954"><ele>321.0</ele><time>2026-05-06T10:05:14Z</time></trkpt><trkpt lat="43.21158527723996" lon="0.030394765192640852"><ele>320.8</ele><time>2026-05-06T10:05:16Z</time></trkpt><trkpt lat="43.21169430448239" lon="0.03046516379717062"><ele>320.6</ele><time>2026-05-06T10:05:18Z</time></trkpt><trkpt lat="43.21178489604678" lon="0.030553491449556307"><ele>320.4</ele><time>2026-05-06T10:05:20Z</time></trkpt><trkpt lat="43.211874573855674" lon="0.03064430399622319"><ele>320.2</ele><time>2026-05-06T10:05:22Z</time></trkpt><trkpt lat="43.21192746849382" lon="0.030693202273925663"><ele>320.0</ele><time>2026-05-06T10:05:23Z</time></trkpt><trkpt lat="43.21198099062428" lon="0.030738995414557407"><ele>320.0</ele><time>2026-05-06T10:05:24Z</time></trkpt><trkpt lat="43.21208713162601" lon="0.03080777287846434"><ele>320.0</ele><time>2026-05-06T10:05:26Z</time></trkpt><trkpt lat="43.212188732450834" lon="0.030886973081421916"><ele>320.0</ele><time>2026-05-06T10:05:28Z</time></trkpt><trkpt lat="43.21227774595448" lon="0.03097755361756223"><ele>320.0</ele><time>2026-05-06T10:05:30Z</time></trkpt><trkpt lat="43.2123606033534" lon="0.031068858986871246"><ele>319.8</ele><time>2026-05-06T10:05:32Z</time></trkpt><trkpt lat="43.2124270844482" lon="0.031167669530632748"><ele>319.6</ele><time>2026-05-06T10:05:34Z</time></trkpt><trkpt lat="43.212492232535915" lon="0.031226224368033823"><ele>319.4</ele><time>2026-05-06T10:05:36Z</time></trkpt><trkpt lat="43.21253967377884" lon="0.03129829501809173"><ele>319.2</ele><time>2026-05-06T10:05:40Z</time></trkpt><trkpt lat="43.21244078336798" lon="0.03146535575998292"><ele>319.0</ele><time>2026-05-06T10:05:43Z</time></trkpt><trkpt lat="43.2124794211398" lon="0.031394758395388134"><ele>319.0</ele><time>2026-05-06T10:13:32Z</time></trkpt><trkpt lat="43.21252285740949" lon="0.03131935974851783"><ele>319.0</ele><time>2026-05-06T10:13:35Z</time></trkpt><trkpt lat="43.21257228820788" lon="0.031224133183200987"><ele>319.0</ele><time>2026-05-06T10:13:38Z</time></trkpt><trkpt lat="43.21261185322957" lon="0.03115520971993345"><ele>319.0</ele><time>2026-05-06T10:13:40Z</time></trkpt><trkpt lat="43.21264482110206" lon="0.031078706412503394"><ele>319.0</ele><time>2026-05-06T10:13:42Z</time></trkpt><trkpt lat="43.21267824039364" lon="0.030994829385196904"><ele>319.0</ele><time>2026-05-06T10:13:44Z</time></trkpt><trkpt lat="43.2127152114413" lon="0.030915539007206914"><ele>319.0</ele><time>2026-05-06T10:13:46Z</time></trkpt><trkpt lat="43.21274950546248" lon="0.030842073722093553"><ele>319.16666666666663</ele><time>2026-05-06T10:13:48Z</time></trkpt><trkpt lat="43.21279020725416" lon="0.030761613803351864"><ele>319.3333333333333</ele><time>2026-05-06T10:13:50Z</time></trkpt><trkpt lat="43.21283079434722" lon="0.030674710743177375"><ele>319.5</ele><time>2026-05-06T10:13:52Z</time></trkpt><trkpt lat="43.21287587779889" lon="0.030577586568488486"><ele>319.6666666666667</ele><time>2026-05-06T10:13:54Z</time></trkpt><trkpt lat="43.21292271201108" lon="0.030482073989947362"><ele>319.83333333333337</ele><time>2026-05-06T10:13:56Z</time></trkpt><trkpt lat="43.21298304997879" lon="0.030414363690697076"><ele>320.0</ele><time>2026-05-06T10:13:58Z</time></trkpt><trkpt lat="43.21307857196863" lon="0.030437851632280293"><ele>320.0</ele><time>2026-05-06T10:14:00Z</time></trkpt><trkpt lat="43.21314329712128" lon="0.03054179840415629"><ele>320.0</ele><time>2026-05-06T10:14:02Z</time></trkpt><trkpt lat="43.21321861485602" lon="0.030642682572467706"><ele>320.0</ele><time>2026-05-06T10:14:04Z</time></trkpt><trkpt lat="43.213299678054085" lon="0.03073909370579655"><ele>320.0</ele><time>2026-05-06T10:14:06Z</time></trkpt><trkpt lat="43.213385653536605" lon="0.03084428455780561"><ele>320.0</ele><time>2026-05-06T10:14:08Z</time></trkpt><trkpt lat="43.2134787295424" lon="0.030944623409037704"><ele>319.6</ele><time>2026-05-06T10:14:10Z</time></trkpt><trkpt lat="43.21357100734434" lon="0.031051355484535585"><ele>319.2</ele><time>2026-05-06T10:14:12Z</time></trkpt><trkpt lat="43.21362344575954" lon="0.031103084825782296"><ele>318.8</ele><time>2026-05-06T10:14:13Z</time></trkpt><trkpt lat="43.21371984817244" lon="0.03120403358349646"><ele>318.4</ele><time>2026-05-06T10:14:15Z</time></trkpt><trkpt lat="43.2138111873219" lon="0.031305545561818526"><ele>318.0</ele><time>2026-05-06T10:14:17Z</time></trkpt><trkpt lat="43.21391137890397" lon="0.031401501377992865"><ele>318.0</ele><time>2026-05-06T10:14:19Z</time></trkpt><trkpt lat="43.213965564784516" lon="0.03145572929160649"><ele>318.0</ele><time>2026-05-06T10:14:20Z</time></trkpt><trkpt lat="43.214019090285866" lon="0.03151893644123763"><ele>318.0</ele><time>2026-05-06T10:14:21Z</time></trkpt><trkpt lat="43.21407418044372" lon="0.031572108659069044"><ele>318.0</ele><time>2026-05-06T10:14:22Z</time></trkpt><trkpt lat="43.2141284347677" lon="0.03162103665415803"><ele>318.0</ele><time>2026-05-06T10:14:23Z</time></trkpt><trkpt lat="43.214183300450266" lon="0.031669660507954125"><ele>318.0</ele><time>2026-05-06T10:14:24Z</time></trkpt><trkpt lat="43.214240866693245" lon="0.03171317672298337"><ele>318.0</ele><time>2026-05-06T10:14:25Z</time></trkpt><trkpt lat="43.214306906292904" lon="0.03176218840204654"><ele>318.4285714285714</ele><time>2026-05-06T10:14:26Z</time></trkpt><trkpt lat="43.21434989105939" lon="0.03186915635363269"><ele>318.8571428571429</ele><time>2026-05-06T10:14:27Z</time></trkpt><trkpt lat="43.21440919690652" lon="0.03192727495213746"><ele>319.2857142857143</ele><time>2026-05-06T10:14:28Z</time></trkpt><trkpt lat="43.21446604528779" lon="0.03198147742951457"><ele>319.71428571428567</ele><time>2026-05-06T10:14:29Z</time></trkpt><trkpt lat="43.21452439694452" lon="0.032038636214821205"><ele>320.1428571428571</ele><time>2026-05-06T10:14:30Z</time></trkpt><trkpt lat="43.214584212091744" lon="0.032095470881205464"><ele>320.57142857142856</ele><time>2026-05-06T10:14:31Z</time></trkpt><trkpt lat="43.21464274852614" lon="0.03215485234915692"><ele>321.0</ele><time>2026-05-06T10:14:32Z</time></trkpt><trkpt lat="43.214700306458965" lon="0.03221365536509991"><ele>320.99999999999994</ele><time>2026-05-06T10:14:33Z</time></trkpt><trkpt lat="43.21475469322368" lon="0.03227126770337001"><ele>321.0</ele><time>2026-05-06T10:14:34Z</time></trkpt><trkpt lat="43.214810817061256" lon="0.03233034603656136"><ele>321.0</ele><time>2026-05-06T10:14:35Z</time></trkpt><trkpt lat="43.2148677929512" lon="0.032389552942038664"><ele>321.0</ele><time>2026-05-06T10:14:36Z</time></trkpt><trkpt lat="43.21492598347092" lon="0.03244658939973902"><ele>321.0</ele><time>2026-05-06T10:14:37Z</time></trkpt><trkpt lat="43.21498428246471" lon="0.0325026739689053"><ele>320.99999999999994</ele><time>2026-05-06T10:14:38Z</time></trkpt><trkpt lat="43.21504096699263" lon="0.03255853617272243"><ele>321.0</ele><time>2026-05-06T10:14:39Z</time></trkpt><trkpt lat="43.21509709353444" lon="0.032615282652500965"><ele>320.1666666666667</ele><time>2026-05-06T10:14:40Z</time></trkpt><trkpt lat="43.21515038308103" lon="0.03266513578970159"><ele>319.3333333333333</ele><time>2026-05-06T10:14:41Z</time></trkpt><trkpt lat="43.21520337995905" lon="0.03271488496562981"><ele>318.5</ele><time>2026-05-06T10:14:42Z</time></trkpt><trkpt lat="43.21530388900322" lon="0.03281326745256638"><ele>317.66666666666663</ele><time>2026-05-06T10:14:44Z</time></trkpt><trkpt lat="43.215356688610036" lon="0.032860888309713496"><ele>316.8333333333333</ele><time>2026-05-06T10:14:45Z</time></trkpt><trkpt lat="43.21541010773744" lon="0.032907292619899865"><ele>316.0</ele><time>2026-05-06T10:14:46Z</time></trkpt><trkpt lat="43.21551549662474" lon="0.03299678257846783"><ele>316.0</ele><time>2026-05-06T10:14:48Z</time></trkpt><trkpt lat="43.21557163423509" lon="0.033037005657865576"><ele>316.0</ele><time>2026-05-06T10:14:49Z</time></trkpt><trkpt lat="43.21567639470253" lon="0.033115693238060614"><ele>316.0</ele><time>2026-05-06T10:14:51Z</time></trkpt><trkpt lat="43.21577983231089" lon="0.03319789141477892"><ele>316.0</ele><time>2026-05-06T10:14:53Z</time></trkpt><trkpt lat="43.21588649375831" lon="0.03326496726795946"><ele>316.0</ele><time>2026-05-06T10:14:55Z</time></trkpt><trkpt lat="43.2159946653365" lon="0.03334374187093346"><ele>315.8</ele><time>2026-05-06T10:14:57Z</time></trkpt><trkpt lat="43.21605246600798" lon="0.03337943720772291"><ele>315.6</ele><time>2026-05-06T10:14:58Z</time></trkpt><trkpt lat="43.216164291425315" lon="0.03344423985502666"><ele>315.4</ele><time>2026-05-06T10:15:00Z</time></trkpt><trkpt lat="43.216278450742955" lon="0.03351925295472698"><ele>315.2</ele><time>2026-05-06T10:15:02Z</time></trkpt><trkpt lat="43.216337744155176" lon="0.0335584085702371"><ele>315.0</ele><time>2026-05-06T10:15:03Z</time></trkpt><trkpt lat="43.21645134244643" lon="0.033624421859436815"><ele>315.14285714285717</ele><time>2026-05-06T10:15:05Z</time></trkpt><trkpt lat="43.21650942312781" lon="0.03366356167616558"><ele>315.2857142857143</ele><time>2026-05-06T10:15:06Z</time></trkpt><trkpt lat="43.21657056863808" lon="0.03370023129167655"><ele>315.42857142857144</ele><time>2026-05-06T10:15:07Z</time></trkpt><trkpt lat="43.216630791898254" lon="0.03373262351966333"><ele>315.57142857142856</ele><time>2026-05-06T10:15:08Z</time></trkpt><trkpt lat="43.216690581057904" lon="0.03376324372734678"><ele>315.7142857142857</ele><time>2026-05-06T10:15:09Z</time></trkpt><trkpt lat="43.2167498892641" lon="0.033795790147958076"><ele>315.8571428571429</ele><time>2026-05-06T10:15:10Z</time></trkpt><trkpt lat="43.21681012891211" lon="0.03382807876842662"><ele>316.0</ele><time>2026-05-06T10:15:11Z</time></trkpt><trkpt lat="43.21692470063067" lon="0.033889508106277375"><ele>316.00000000000006</ele><time>2026-05-06T10:15:13Z</time></trkpt><trkpt lat="43.21698291919592" lon="0.03392260224815417"><ele>316.0</ele><time>2026-05-06T10:15:14Z</time></trkpt><trkpt lat="43.21704234720697" lon="0.03395542816039501"><ele>316.0</ele><time>2026-05-06T10:15:15Z</time></trkpt><trkpt lat="43.21710115114209" lon="0.03398759640112099"><ele>316.0</ele><time>2026-05-06T10:15:16Z</time></trkpt><trkpt lat="43.21716001257065" lon="0.03402208303810545"><ele>316.0</ele><time>2026-05-06T10:15:17Z</time></trkpt><trkpt lat="43.21721951700604" lon="0.03405770423544646"><ele>316.00000000000006</ele><time>2026-05-06T10:15:18Z</time></trkpt><trkpt lat="43.21728003224154" lon="0.03408942808407424"><ele>316.0</ele><time>2026-05-06T10:15:19Z</time></trkpt><trkpt lat="43.21733962218461" lon="0.034127497161794716"><ele>315.8571428571429</ele><time>2026-05-06T10:15:20Z</time></trkpt><trkpt lat="43.217400166896596" lon="0.034164420476568126"><ele>315.7142857142857</ele><time>2026-05-06T10:15:21Z</time></trkpt><trkpt lat="43.2174616783609" lon="0.03419892223651456"><ele>315.57142857142856</ele><time>2026-05-06T10:15:22Z</time></trkpt><trkpt lat="43.21752128130426" lon="0.03423187895340853"><ele>315.42857142857144</ele><time>2026-05-06T10:15:23Z</time></trkpt><trkpt lat="43.21758107871206" lon="0.03427010712664786"><ele>315.2857142857143</ele><time>2026-05-06T10:15:24Z</time></trkpt><trkpt lat="43.21764421436727" lon="0.03430252133705164"><ele>315.14285714285717</ele><time>2026-05-06T10:15:25Z</time></trkpt><trkpt lat="43.217706179297195" lon="0.03433226177935383"><ele>315.0</ele><time>2026-05-06T10:15:26Z</time></trkpt><trkpt lat="43.21776640360807" lon="0.0343638881858429"><ele>315.0</ele><time>2026-05-06T10:15:27Z</time></trkpt><trkpt lat="43.21782745379219" lon="0.03439865462507989"><ele>315.0</ele><time>2026-05-06T10:15:28Z</time></trkpt><trkpt lat="43.21788719198345" lon="0.03443396488673419"><ele>315.0</ele><time>2026-05-06T10:15:29Z</time></trkpt><trkpt lat="43.21794852879509" lon="0.03446674009728928"><ele>315.0</ele><time>2026-05-06T10:15:30Z</time></trkpt><trkpt lat="43.21806330504855" lon="0.034528330086947306"><ele>315.0</ele><time>2026-05-06T10:15:32Z</time></trkpt><trkpt lat="43.218172758008734" lon="0.03458854273043734"><ele>315.0</ele><time>2026-05-06T10:15:34Z</time></trkpt><trkpt lat="43.218279968060656" lon="0.034651260697006636"><ele>314.6</ele><time>2026-05-06T10:15:36Z</time></trkpt><trkpt lat="43.21838796191547" lon="0.0347116509644624"><ele>314.2</ele><time>2026-05-06T10:15:38Z</time></trkpt><trkpt lat="43.21849926972661" lon="0.03477475228132575"><ele>313.8</ele><time>2026-05-06T10:15:40Z</time></trkpt><trkpt lat="43.21861410187876" lon="0.0348430090666249"><ele>313.4</ele><time>2026-05-06T10:15:42Z</time></trkpt><trkpt lat="43.21867349557774" lon="0.03487636534907822"><ele>313.0</ele><time>2026-05-06T10:15:43Z</time></trkpt><trkpt lat="43.21873281624232" lon="0.03490711535106897"><ele>313.0</ele><time>2026-05-06T10:15:44Z</time></trkpt><trkpt lat="43.21884593345708" lon="0.03496907202692268"><ele>313.0</ele><time>2026-05-06T10:15:46Z</time></trkpt><trkpt lat="43.21895636576478" lon="0.03503243529541295"><ele>313.0</ele><time>2026-05-06T10:15:48Z</time></trkpt><trkpt lat="43.21906478690389" lon="0.035093600730056886"><ele>313.0</ele><time>2026-05-06T10:15:50Z</time></trkpt><trkpt lat="43.21916195030753" lon="0.03519143365913016"><ele>313.0</ele><time>2026-05-06T10:15:52Z</time></trkpt><trkpt lat="43.219207678559464" lon="0.035262061272805824"><ele>313.0</ele><time>2026-05-06T10:15:53Z</time></trkpt><trkpt lat="43.21923960006925" lon="0.03534531761274387"><ele>313.0</ele><time>2026-05-06T10:15:54Z</time></trkpt><trkpt lat="43.2192529213541" lon="0.03543564987478744"><ele>313.0</ele><time>2026-05-06T10:15:55Z</time></trkpt><trkpt lat="43.2192546327885" lon="0.03552816162772869"><ele>313.0</ele><time>2026-05-06T10:15:56Z</time></trkpt><trkpt lat="43.21924641411375" lon="0.03561499771546876"><ele>313.0</ele><time>2026-05-06T10:15:57Z</time></trkpt><trkpt lat="43.21921948793138" lon="0.03577800486615745"><ele>313.25</ele><time>2026-05-06T10:15:59Z</time></trkpt><trkpt lat="43.219187626763585" lon="0.0359353919929732"><ele>313.5</ele><time>2026-05-06T10:16:01Z</time></trkpt><trkpt lat="43.219162113305394" lon="0.03609903923413686"><ele>313.75</ele><time>2026-05-06T10:16:03Z</time></trkpt><trkpt lat="43.2191289634587" lon="0.03625954351299527"><ele>314.0</ele><time>2026-05-06T10:16:05Z</time></trkpt><trkpt lat="43.21909390846833" lon="0.03642247050267147"><ele>314.0</ele><time>2026-05-06T10:16:07Z</time></trkpt><trkpt lat="43.21905282250859" lon="0.03658534366519759"><ele>314.0</ele><time>2026-05-06T10:16:09Z</time></trkpt><trkpt lat="43.21903326159727" lon="0.03667000509720091"><ele>314.0</ele><time>2026-05-06T10:16:10Z</time></trkpt><trkpt lat="43.21901418853506" lon="0.036754039062413216"><ele>314.0</ele><time>2026-05-06T10:16:11Z</time></trkpt><trkpt lat="43.2189929398486" lon="0.036839826242962566"><ele>314.0</ele><time>2026-05-06T10:16:12Z</time></trkpt><trkpt lat="43.21897101684037" lon="0.0369298906294941"><ele>314.0</ele><time>2026-05-06T10:16:13Z</time></trkpt><trkpt lat="43.21894844766238" lon="0.037020400685227044"><ele>313.85714285714283</ele><time>2026-05-06T10:16:14Z</time></trkpt><trkpt lat="43.21892533311479" lon="0.037110226506255395"><ele>313.7142857142857</ele><time>2026-05-06T10:16:15Z</time></trkpt><trkpt lat="43.21890101816705" lon="0.03720202277281162"><ele>313.57142857142856</ele><time>2026-05-06T10:16:16Z</time></trkpt><trkpt lat="43.21887519104943" lon="0.03729130789625345"><ele>313.42857142857144</ele><time>2026-05-06T10:16:17Z</time></trkpt><trkpt lat="43.21884857069588" lon="0.037382317618270815"><ele>313.2857142857143</ele><time>2026-05-06T10:16:18Z</time></trkpt><trkpt lat="43.218821976146735" lon="0.037473676251925644"><ele>313.1428571428571</ele><time>2026-05-06T10:16:19Z</time></trkpt><trkpt lat="43.21879435359084" lon="0.03756506757208585"><ele>313.0</ele><time>2026-05-06T10:16:20Z</time></trkpt><trkpt lat="43.21876347241614" lon="0.03765718744872603"><ele>313.0</ele><time>2026-05-06T10:16:21Z</time></trkpt><trkpt lat="43.21873095315423" lon="0.03774843431936095"><ele>313.0</ele><time>2026-05-06T10:16:22Z</time></trkpt><trkpt lat="43.21870076054876" lon="0.03784322634759889"><ele>313.0</ele><time>2026-05-06T10:16:23Z</time></trkpt><trkpt lat="43.21868630992898" lon="0.0379468077103373"><ele>313.0</ele><time>2026-05-06T10:16:24Z</time></trkpt><trkpt lat="43.21868760697413" lon="0.03805194848640369"><ele>313.0</ele><time>2026-05-06T10:16:25Z</time></trkpt><trkpt lat="43.21869801445845" lon="0.038155489513109535"><ele>313.0</ele><time>2026-05-06T10:16:26Z</time></trkpt><trkpt lat="43.21871841977916" lon="0.03825907885904565"><ele>312.66666666666663</ele><time>2026-05-06T10:16:27Z</time></trkpt><trkpt lat="43.218754057763746" lon="0.03835186622651025"><ele>312.3333333333333</ele><time>2026-05-06T10:16:28Z</time></trkpt><trkpt lat="43.2187935220544" lon="0.0384431297507275"><ele>312.0</ele><time>2026-05-06T10:16:29Z</time></trkpt><trkpt lat="43.21883064876838" lon="0.0385358272084984"><ele>311.6666666666667</ele><time>2026-05-06T10:16:30Z</time></trkpt><trkpt lat="43.21887003101806" lon="0.03862876174569183"><ele>311.33333333333337</ele><time>2026-05-06T10:16:31Z</time></trkpt><trkpt lat="43.218910731719156" lon="0.03872083796986441"><ele>311.0</ele><time>2026-05-06T10:16:32Z</time></trkpt><trkpt lat="43.21895083238443" lon="0.03881609201914446"><ele>310.83333333333337</ele><time>2026-05-06T10:16:33Z</time></trkpt><trkpt lat="43.218989938576506" lon="0.038909350753360085"><ele>310.6666666666667</ele><time>2026-05-06T10:16:34Z</time></trkpt><trkpt lat="43.219028264879874" lon="0.03900163836137398"><ele>310.5</ele><time>2026-05-06T10:16:35Z</time></trkpt><trkpt lat="43.21906624929006" lon="0.03909409074330968"><ele>310.3333333333333</ele><time>2026-05-06T10:16:36Z</time></trkpt><trkpt lat="43.21909960493453" lon="0.039186323731946186"><ele>310.16666666666663</ele><time>2026-05-06T10:16:37Z</time></trkpt><trkpt lat="43.219133228949694" lon="0.039280138740639875"><ele>310.0</ele><time>2026-05-06T10:16:38Z</time></trkpt><trkpt lat="43.2191663687344" lon="0.039369364488713"><ele>310.0</ele><time>2026-05-06T10:16:39Z</time></trkpt><trkpt lat="43.21920216851957" lon="0.03945751720543799"><ele>310.0</ele><time>2026-05-06T10:16:40Z</time></trkpt><trkpt lat="43.21923366798619" lon="0.03954642268743723"><ele>310.0</ele><time>2026-05-06T10:16:41Z</time></trkpt><trkpt lat="43.219264556736086" lon="0.03963654211792166"><ele>310.0</ele><time>2026-05-06T10:16:42Z</time></trkpt><trkpt lat="43.2192916026499" lon="0.03972746633547333"><ele>310.0</ele><time>2026-05-06T10:16:43Z</time></trkpt><trkpt lat="43.2193172190941" lon="0.03982018756447302"><ele>310.0</ele><time>2026-05-06T10:16:44Z</time></trkpt><trkpt lat="43.21934170055148" lon="0.03991467496289426"><ele>310.0</ele><time>2026-05-06T10:16:45Z</time></trkpt><trkpt lat="43.219356501235104" lon="0.040013655668485394"><ele>310.14285714285717</ele><time>2026-05-06T10:16:46Z</time></trkpt><trkpt lat="43.219365640296914" lon="0.04011054634074189"><ele>310.2857142857143</ele><time>2026-05-06T10:16:47Z</time></trkpt><trkpt lat="43.21936956487019" lon="0.040211506598040445"><ele>310.42857142857144</ele><time>2026-05-06T10:16:48Z</time></trkpt><trkpt lat="43.21936692076067" lon="0.04031023422363355"><ele>310.57142857142856</ele><time>2026-05-06T10:16:49Z</time></trkpt><trkpt lat="43.219359765635154" lon="0.04040850090723087"><ele>310.7142857142857</ele><time>2026-05-06T10:16:50Z</time></trkpt><trkpt lat="43.21934924162271" lon="0.04050537576096079"><ele>310.85714285714283</ele><time>2026-05-06T10:16:51Z</time></trkpt><trkpt lat="43.219335451469625" lon="0.04059991397585002"><ele>311.0</ele><time>2026-05-06T10:16:52Z</time></trkpt><trkpt lat="43.219300919187084" lon="0.04068271788958121"><ele>311.0</ele><time>2026-05-06T10:16:53Z</time></trkpt><trkpt lat="43.21927786251833" lon="0.04076677549169175"><ele>311.0</ele><time>2026-05-06T10:16:54Z</time></trkpt><trkpt lat="43.21922371140114" lon="0.040920023640800475"><ele>311.0</ele><time>2026-05-06T10:16:56Z</time></trkpt><trkpt lat="43.21916507246141" lon="0.04106763997327026"><ele>311.0</ele><time>2026-05-06T10:16:58Z</time></trkpt><trkpt lat="43.21909274728353" lon="0.04118895615550229"><ele>311.0</ele><time>2026-05-06T10:17:00Z</time></trkpt><trkpt lat="43.21900793646251" lon="0.041292567336953356"><ele>310.6666666666667</ele><time>2026-05-06T10:17:02Z</time></trkpt><trkpt lat="43.21890912118339" lon="0.04137783400545332"><ele>310.33333333333337</ele><time>2026-05-06T10:17:04Z</time></trkpt><trkpt lat="43.21885146275446" lon="0.041412840487308186"><ele>310.0</ele><time>2026-05-06T10:17:05Z</time></trkpt><trkpt lat="43.218731498123425" lon="0.04147638224780718"><ele>309.6666666666667</ele><time>2026-05-06T10:17:07Z</time></trkpt><trkpt lat="43.218668298825946" lon="0.04151096512564693"><ele>309.3333333333333</ele><time>2026-05-06T10:17:08Z</time></trkpt><trkpt lat="43.21861178990782" lon="0.04156431103994084"><ele>309.0</ele><time>2026-05-06T10:17:09Z</time></trkpt><trkpt lat="43.21856068216666" lon="0.04161672460431203"><ele>309.28571428571433</ele><time>2026-05-06T10:17:10Z</time></trkpt><trkpt lat="43.218512786190566" lon="0.04167630669902734"><ele>309.57142857142856</ele><time>2026-05-06T10:17:11Z</time></trkpt><trkpt lat="43.21846516127808" lon="0.04173733524042949"><ele>309.8571428571429</ele><time>2026-05-06T10:17:12Z</time></trkpt><trkpt lat="43.21841476845407" lon="0.04179466199336914"><ele>310.14285714285717</ele><time>2026-05-06T10:17:13Z</time></trkpt><trkpt lat="43.21836044357443" lon="0.041842407242532305"><ele>310.42857142857144</ele><time>2026-05-06T10:17:14Z</time></trkpt><trkpt lat="43.21831147082618" lon="0.04189774828313598"><ele>310.7142857142857</ele><time>2026-05-06T10:17:15Z</time></trkpt><trkpt lat="43.2182378077136" lon="0.04202976873725376"><ele>311.0</ele><time>2026-05-06T10:17:17Z</time></trkpt><trkpt lat="43.21821627756849" lon="0.042112632577443875"><ele>311.0</ele><time>2026-05-06T10:17:18Z</time></trkpt><trkpt lat="43.218213937556214" lon="0.04228227414111652"><ele>311.0</ele><time>2026-05-06T10:17:20Z</time></trkpt><trkpt lat="43.21826824984653" lon="0.042435410671641915"><ele>311.0</ele><time>2026-05-06T10:17:22Z</time></trkpt><trkpt lat="43.21830722126422" lon="0.04259422832179901"><ele>311.0</ele><time>2026-05-06T10:17:24Z</time></trkpt><trkpt lat="43.21834679884742" lon="0.04275767725726548"><ele>311.0</ele><time>2026-05-06T10:17:26Z</time></trkpt><trkpt lat="43.2183851033351" lon="0.04291051986795486"><ele>311.0</ele><time>2026-05-06T10:17:28Z</time></trkpt><trkpt lat="43.21841988293615" lon="0.04306805809568343"><ele>311.0</ele><time>2026-05-06T10:17:30Z</time></trkpt><trkpt lat="43.21844548230629" lon="0.04315010639401846"><ele>311.0</ele><time>2026-05-06T10:17:31Z</time></trkpt><trkpt lat="43.21849009017296" lon="0.04330450673343106"><ele>311.0</ele><time>2026-05-06T10:17:33Z</time></trkpt><trkpt lat="43.21851423880406" lon="0.04338480114434145"><ele>310.8</ele><time>2026-05-06T10:17:34Z</time></trkpt><trkpt lat="43.21855475665294" lon="0.043544345723910374"><ele>310.6</ele><time>2026-05-06T10:17:36Z</time></trkpt><trkpt lat="43.21859609619307" lon="0.04370315423940183"><ele>310.4</ele><time>2026-05-06T10:17:38Z</time></trkpt><trkpt lat="43.218646186898845" lon="0.04386045481231222"><ele>310.2</ele><time>2026-05-06T10:17:40Z</time></trkpt><trkpt lat="43.21867110019204" lon="0.043939891262253804"><ele>310.0</ele><time>2026-05-06T10:17:41Z</time></trkpt><trkpt lat="43.218715610559975" lon="0.04409067204855897"><ele>310.75</ele><time>2026-05-06T10:17:43Z</time></trkpt><trkpt lat="43.21875539813523" lon="0.0442473404272978"><ele>311.5</ele><time>2026-05-06T10:17:45Z</time></trkpt><trkpt lat="43.218797585849146" lon="0.04440169348698181"><ele>312.25</ele><time>2026-05-06T10:17:47Z</time></trkpt><trkpt lat="43.21883422926791" lon="0.04455540817516288"><ele>313.0</ele><time>2026-05-06T10:17:49Z</time></trkpt><trkpt lat="43.21887883507174" lon="0.0447073590522213"><ele>313.0</ele><time>2026-05-06T10:17:51Z</time></trkpt><trkpt lat="43.218923037195474" lon="0.04486078822547795"><ele>313.0</ele><time>2026-05-06T10:17:53Z</time></trkpt><trkpt lat="43.218952765259836" lon="0.0450226891810255"><ele>313.0</ele><time>2026-05-06T10:17:55Z</time></trkpt><trkpt lat="43.21899006549355" lon="0.04518050423850097"><ele>313.0</ele><time>2026-05-06T10:17:57Z</time></trkpt><trkpt lat="43.21902451678191" lon="0.04532626572379089"><ele>312.25</ele><time>2026-05-06T10:17:59Z</time></trkpt><trkpt lat="43.219088654785395" lon="0.04545952754509382"><ele>311.5</ele><time>2026-05-06T10:18:01Z</time></trkpt><trkpt lat="43.21915034993152" lon="0.04560008064974035"><ele>310.75</ele><time>2026-05-06T10:18:03Z</time></trkpt><trkpt lat="43.21924294506246" lon="0.04568667635091046"><ele>310.0</ele><time>2026-05-06T10:18:05Z</time></trkpt><trkpt lat="43.21934889973789" lon="0.0457033761442991"><ele>310.0</ele><time>2026-05-06T10:18:07Z</time></trkpt><trkpt lat="43.219444238156655" lon="0.04566002376124713"><ele>310.0</ele><time>2026-05-06T10:18:09Z</time></trkpt><trkpt lat="43.219537874222944" lon="0.04563866283321884"><ele>310.0</ele><time>2026-05-06T10:18:11Z</time></trkpt><trkpt lat="43.219621532082435" lon="0.04573644073319064"><ele>310.0</ele><time>2026-05-06T10:18:13Z</time></trkpt><trkpt lat="43.219642228776706" lon="0.04585000612809536"><ele>310.0</ele><time>2026-05-06T10:18:15Z</time></trkpt><trkpt lat="43.219650748103014" lon="0.045969954754999494"><ele>310.0</ele><time>2026-05-06T10:18:17Z</time></trkpt><trkpt lat="43.21966910240529" lon="0.04609257671346628"><ele>310.0</ele><time>2026-05-06T10:18:19Z</time></trkpt><trkpt lat="43.219684335934126" lon="0.0462069768624595"><ele>310.0</ele><time>2026-05-06T10:18:21Z</time></trkpt><trkpt lat="43.219754649923644" lon="0.04630910454544955"><ele>310.0</ele><time>2026-05-06T10:18:23Z</time></trkpt><trkpt lat="43.2198126023351" lon="0.04643267285275314"><ele>310.0</ele><time>2026-05-06T10:18:25Z</time></trkpt><trkpt lat="43.21986257197227" lon="0.04656051080344463"><ele>309.4</ele><time>2026-05-06T10:18:27Z</time></trkpt><trkpt lat="43.21990088425947" lon="0.046697046363254176"><ele>308.8</ele><time>2026-05-06T10:18:29Z</time></trkpt><trkpt lat="43.21995015665486" lon="0.04682367081494822"><ele>308.2</ele><time>2026-05-06T10:18:31Z</time></trkpt><trkpt lat="43.2200058750932" lon="0.04694111636799696"><ele>307.6</ele><time>2026-05-06T10:18:33Z</time></trkpt><trkpt lat="43.22005872527092" lon="0.04704879858757009"><ele>307.0</ele><time>2026-05-06T10:18:35Z</time></trkpt><trkpt lat="43.220118108637344" lon="0.04715786130257823"><ele>307.0</ele><time>2026-05-06T10:18:37Z</time></trkpt><trkpt lat="43.220192091893324" lon="0.04722806188062692"><ele>307.0</ele><time>2026-05-06T10:18:39Z</time></trkpt><trkpt lat="43.220259289378596" lon="0.04733451953516304"><ele>307.0</ele><time>2026-05-06T10:18:41Z</time></trkpt><trkpt lat="43.220337259214865" lon="0.04743707417560603"><ele>307.0</ele><time>2026-05-06T10:18:43Z</time></trkpt><trkpt lat="43.22039918190071" lon="0.04755428243094214"><ele>307.0</ele><time>2026-05-06T10:18:45Z</time></trkpt><trkpt lat="43.22047283935408" lon="0.04766898923665186"><ele>306.8</ele><time>2026-05-06T10:18:47Z</time></trkpt><trkpt lat="43.22054366315452" lon="0.047781563070110195"><ele>306.6</ele><time>2026-05-06T10:18:49Z</time></trkpt><trkpt lat="43.220598195873784" lon="0.047909915981602456"><ele>306.40000000000003</ele><time>2026-05-06T10:18:51Z</time></trkpt><trkpt lat="43.22062522250141" lon="0.048057003169942304"><ele>306.2</ele><time>2026-05-06T10:18:53Z</time></trkpt><trkpt lat="43.22063626617219" lon="0.04820086955101903"><ele>306.0</ele><time>2026-05-06T10:18:55Z</time></trkpt><trkpt lat="43.22066807362096" lon="0.04833987172543289"><ele>305.8</ele><time>2026-05-06T10:18:57Z</time></trkpt><trkpt lat="43.22073112475806" lon="0.04846268904474445"><ele>305.6</ele><time>2026-05-06T10:18:59Z</time></trkpt><trkpt lat="43.22077551121364" lon="0.04859348793910256"><ele>305.4</ele><time>2026-05-06T10:19:01Z</time></trkpt><trkpt lat="43.22076822482831" lon="0.048749705696989"><ele>305.2</ele><time>2026-05-06T10:19:03Z</time></trkpt><trkpt lat="43.22076844377233" lon="0.04890738258646608"><ele>305.0</ele><time>2026-05-06T10:19:05Z</time></trkpt><trkpt lat="43.220787212676754" lon="0.04907285867833609"><ele>305.33333333333337</ele><time>2026-05-06T10:19:07Z</time></trkpt><trkpt lat="43.220809449418276" lon="0.04915447056955636"><ele>305.6666666666667</ele><time>2026-05-06T10:19:08Z</time></trkpt><trkpt lat="43.220841610062365" lon="0.04923093024169505"><ele>306.0</ele><time>2026-05-06T10:19:09Z</time></trkpt><trkpt lat="43.22088123255417" lon="0.04930105966502104"><ele>306.3333333333333</ele><time>2026-05-06T10:19:10Z</time></trkpt><trkpt lat="43.22091810275832" lon="0.04937514287273321"><ele>306.66666666666663</ele><time>2026-05-06T10:19:11Z</time></trkpt><trkpt lat="43.220995171701176" lon="0.04951953598666066"><ele>307.0</ele><time>2026-05-06T10:19:13Z</time></trkpt><trkpt lat="43.22102836878051" lon="0.049598046907779525"><ele>307.0</ele><time>2026-05-06T10:19:14Z</time></trkpt><trkpt lat="43.22105806058196" lon="0.04967739678016963"><ele>307.0</ele><time>2026-05-06T10:19:15Z</time></trkpt><trkpt lat="43.22108500006761" lon="0.04975775430986663"><ele>307.0</ele><time>2026-05-06T10:19:16Z</time></trkpt><trkpt lat="43.221148353260084" lon="0.04990023960511588"><ele>307.0</ele><time>2026-05-06T10:19:18Z</time></trkpt><trkpt lat="43.22120369972027" lon="0.05000516787412305"><ele>307.0</ele><time>2026-05-06T10:19:20Z</time></trkpt><trkpt lat="43.22115521660306" lon="0.049926501284826834"><ele>307.0</ele><time>2026-05-06T10:19:50Z</time></trkpt><trkpt lat="43.2212291268081" lon="0.04991450476748322"><ele>307.0</ele><time>2026-05-06T10:20:01Z</time></trkpt><trkpt lat="43.221295213131484" lon="0.04993765165900692"><ele>307.0</ele><time>2026-05-06T10:20:05Z</time></trkpt><trkpt lat="43.22136294045283" lon="0.049952774892539485"><ele>307.0</ele><time>2026-05-06T10:20:09Z</time></trkpt><trkpt lat="43.22144068536198" lon="0.04991706087202692"><ele>307.0</ele><time>2026-05-06T10:20:12Z</time></trkpt><trkpt lat="43.22150920758501" lon="0.049865857138395656"><ele>307.0</ele><time>2026-05-06T10:20:15Z</time></trkpt><trkpt lat="43.2215712338776" lon="0.04981429307172088"><ele>307.0</ele><time>2026-05-06T10:20:18Z</time></trkpt><trkpt lat="43.221622533314786" lon="0.04970784441159552"><ele>307.0</ele><time>2026-05-06T10:20:21Z</time></trkpt><trkpt lat="43.22170237892844" lon="0.04971956190840435"><ele>307.0</ele><time>2026-05-06T10:20:25Z</time></trkpt><trkpt lat="43.221733170688545" lon="0.04961885957032389"><ele>307.0</ele><time>2026-05-06T10:20:30Z</time></trkpt><trkpt lat="43.221709495407445" lon="0.04952761521741729"><ele>307.0</ele><time>2026-05-06T10:20:33Z</time></trkpt><trkpt lat="43.22174360369317" lon="0.04942417113446256"><ele>307.0</ele><time>2026-05-06T10:20:36Z</time></trkpt><trkpt lat="43.22176254467287" lon="0.049322026517054314"><ele>307.0</ele><time>2026-05-06T10:20:39Z</time></trkpt><trkpt lat="43.221786769917095" lon="0.04921224108007682"><ele>306.66666666666663</ele><time>2026-05-06T10:20:43Z</time></trkpt><trkpt lat="43.22181487259672" lon="0.04910012463188744"><ele>306.3333333333333</ele><time>2026-05-06T10:20:47Z</time></trkpt><trkpt lat="43.22184968988445" lon="0.04899940846770202"><ele>306.0</ele><time>2026-05-06T10:20:51Z</time></trkpt><trkpt lat="43.22190055143138" lon="0.04890501714591354"><ele>305.6666666666667</ele><time>2026-05-06T10:20:55Z</time></trkpt><trkpt lat="43.22194784867979" lon="0.0488382978338821"><ele>305.33333333333337</ele><time>2026-05-06T10:20:59Z</time></trkpt><trkpt lat="43.22201826052425" lon="0.048819564254675867"><ele>305.0</ele><time>2026-05-06T10:21:03Z</time></trkpt><trkpt lat="43.22208504081534" lon="0.048816314698127125"><ele>305.0</ele><time>2026-05-06T10:21:06Z</time></trkpt><trkpt lat="43.22215173540892" lon="0.04882678083855612"><ele>305.0</ele><time>2026-05-06T10:21:10Z</time></trkpt><trkpt lat="43.22222728496247" lon="0.04879468192243496"><ele>305.0</ele><time>2026-05-06T10:21:46Z</time></trkpt><trkpt lat="43.22222138655944" lon="0.04888989627469"><ele>305.0</ele><time>2026-05-06T10:23:35Z</time></trkpt><trkpt lat="43.22222296419728" lon="0.04897928840264583"><ele>305.0</ele><time>2026-05-06T10:23:38Z</time></trkpt><trkpt lat="43.22220739854813" lon="0.049089424542395795"><ele>305.0</ele><time>2026-05-06T10:23:41Z</time></trkpt><trkpt lat="43.222195047182446" lon="0.049208424982555544"><ele>305.33333333333337</ele><time>2026-05-06T10:23:44Z</time></trkpt><trkpt lat="43.22218285443097" lon="0.04931344810976057"><ele>305.6666666666667</ele><time>2026-05-06T10:23:47Z</time></trkpt><trkpt lat="43.22217075464708" lon="0.049410981021816784"><ele>306.0</ele><time>2026-05-06T10:23:50Z</time></trkpt><trkpt lat="43.222155060355156" lon="0.04953127641665933"><ele>306.3333333333333</ele><time>2026-05-06T10:23:53Z</time></trkpt><trkpt lat="43.22214406765279" lon="0.04962439453428883"><ele>306.66666666666663</ele><time>2026-05-06T10:23:55Z</time></trkpt><trkpt lat="43.222173705914564" lon="0.04972512276497023"><ele>307.0</ele><time>2026-05-06T10:23:57Z</time></trkpt><trkpt lat="43.222167787590145" lon="0.049816802415769856"><ele>307.0</ele><time>2026-05-06T10:23:59Z</time></trkpt><trkpt lat="43.222162187570966" lon="0.04990922963447557"><ele>307.0</ele><time>2026-05-06T10:24:01Z</time></trkpt><trkpt lat="43.22215616401296" lon="0.05000933839414509"><ele>307.0</ele><time>2026-05-06T10:24:03Z</time></trkpt><trkpt lat="43.22214996203691" lon="0.050112412939694956"><ele>307.0</ele><time>2026-05-06T10:24:05Z</time></trkpt><trkpt lat="43.22214372367294" lon="0.05021609204120579"><ele>307.0</ele><time>2026-05-06T10:24:07Z</time></trkpt><trkpt lat="43.22213857925039" lon="0.05031700089644847"><ele>307.0</ele><time>2026-05-06T10:24:09Z</time></trkpt><trkpt lat="43.222132847744184" lon="0.05044070584126838"><ele>307.4</ele><time>2026-05-06T10:24:12Z</time></trkpt><trkpt lat="43.22194846547627" lon="0.05044931494428486"><ele>307.79999999999995</ele><time>2026-05-06T10:24:17Z</time></trkpt><trkpt lat="43.22187423801672" lon="0.05043949558618439"><ele>308.2</ele><time>2026-05-06T10:24:19Z</time></trkpt><trkpt lat="43.221801854380786" lon="0.050452684607540016"><ele>308.59999999999997</ele><time>2026-05-06T10:24:21Z</time></trkpt><trkpt lat="43.2217129831367" lon="0.050480273695597384"><ele>309.0</ele><time>2026-05-06T10:24:24Z</time></trkpt><trkpt lat="43.22164678635231" lon="0.050498325615759426"><ele>309.00000000000006</ele><time>2026-05-06T10:24:26Z</time></trkpt><trkpt lat="43.221583623738894" lon="0.05051263659892658"><ele>309.0</ele><time>2026-05-06T10:24:28Z</time></trkpt><trkpt lat="43.22151601070738" lon="0.05051963759918557"><ele>309.0</ele><time>2026-05-06T10:24:30Z</time></trkpt><trkpt lat="43.221419488922365" lon="0.050518015292286444"><ele>309.0</ele><time>2026-05-06T10:24:33Z</time></trkpt><trkpt lat="43.221354517507" lon="0.050507102858098805"><ele>309.0</ele><time>2026-05-06T10:24:35Z</time></trkpt><trkpt lat="43.221286456675436" lon="0.05050373861859626"><ele>309.00000000000006</ele><time>2026-05-06T10:24:37Z</time></trkpt><trkpt lat="43.221207488344724" lon="0.050554085675290995"><ele>309.0</ele><time>2026-05-06T10:24:40Z</time></trkpt><trkpt lat="43.221207184871176" lon="0.0506559557584453"><ele>309.00000000000006</ele><time>2026-05-06T10:24:43Z</time></trkpt><trkpt lat="43.221284413718486" lon="0.05069052973817877"><ele>309.0</ele><time>2026-05-06T10:24:46Z</time></trkpt><trkpt lat="43.22135562913321" lon="0.05069284174522792"><ele>309.0</ele><time>2026-05-06T10:24:49Z</time></trkpt><trkpt lat="43.22142387195165" lon="0.05070236139136504"><ele>309.0</ele><time>2026-05-06T10:24:52Z</time></trkpt><trkpt lat="43.2214959395215" lon="0.05069730376177305"><ele>309.0</ele><time>2026-05-06T10:24:55Z</time></trkpt><trkpt lat="43.22156743520003" lon="0.050703178913764725"><ele>309.00000000000006</ele><time>2026-05-06T10:24:58Z</time></trkpt><trkpt lat="43.221650162243456" lon="0.05069226253278772"><ele>309.0</ele><time>2026-05-06T10:25:01Z</time></trkpt><trkpt lat="43.22172506116259" lon="0.05065951972032762"><ele>309.0</ele><time>2026-05-06T10:25:04Z</time></trkpt><trkpt lat="43.22180506664367" lon="0.05064392485134734"><ele>309.0</ele><time>2026-05-06T10:25:07Z</time></trkpt><trkpt lat="43.2218869590853" lon="0.050628993874843105"><ele>309.0</ele><time>2026-05-06T10:25:10Z</time></trkpt><trkpt lat="43.22196820431849" lon="0.050615973200956184"><ele>309.0</ele><time>2026-05-06T10:25:13Z</time></trkpt><trkpt lat="43.22205005225801" lon="0.0506151397887964"><ele>309.0</ele><time>2026-05-06T10:25:16Z</time></trkpt><trkpt lat="43.22213301034272" lon="0.05059516111482494"><ele>309.0</ele><time>2026-05-06T10:25:19Z</time></trkpt><trkpt lat="43.22222227144917" lon="0.05058934572192053"><ele>309.0</ele><time>2026-05-06T10:25:22Z</time></trkpt><trkpt lat="43.22228714153473" lon="0.050582830763105"><ele>309.0</ele><time>2026-05-06T10:25:24Z</time></trkpt><trkpt lat="43.22235503820348" lon="0.050576929443754796"><ele>309.0</ele><time>2026-05-06T10:25:26Z</time></trkpt><trkpt lat="43.22242968831759" lon="0.05057026174188587"><ele>309.0</ele><time>2026-05-06T10:25:28Z</time></trkpt><trkpt lat="43.22252047647156" lon="0.05055063252161082"><ele>309.0</ele><time>2026-05-06T10:25:30Z</time></trkpt><trkpt lat="43.22262282478492" lon="0.05052664872457408"><ele>309.0</ele><time>2026-05-06T10:25:32Z</time></trkpt><trkpt lat="43.22273517078002" lon="0.05050900540955691"><ele>309.0</ele><time>2026-05-06T10:25:34Z</time></trkpt><trkpt lat="43.222800171554105" lon="0.050486577299172566"><ele>309.0</ele><time>2026-05-06T10:25:35Z</time></trkpt><trkpt lat="43.22286844157111" lon="0.05046382147649788"><ele>309.0</ele><time>2026-05-06T10:25:36Z</time></trkpt><trkpt lat="43.222980549217475" lon="0.05042960550294631"><ele>309.0</ele><time>2026-05-06T10:25:38Z</time></trkpt><trkpt lat="43.22304698718126" lon="0.05040988025760644"><ele>309.0</ele><time>2026-05-06T10:25:39Z</time></trkpt><trkpt lat="43.22311577532741" lon="0.050391012579153995"><ele>309.0</ele><time>2026-05-06T10:25:40Z</time></trkpt><trkpt lat="43.22318677780794" lon="0.050373618919995866"><ele>308.8333333333333</ele><time>2026-05-06T10:25:41Z</time></trkpt><trkpt lat="43.22326010951284" lon="0.05033576650539482"><ele>308.6666666666667</ele><time>2026-05-06T10:25:42Z</time></trkpt><trkpt lat="43.22333696648981" lon="0.05032448055501332"><ele>308.5</ele><time>2026-05-06T10:25:43Z</time></trkpt><trkpt lat="43.22341467363437" lon="0.05031689993505081"><ele>308.33333333333337</ele><time>2026-05-06T10:25:44Z</time></trkpt><trkpt lat="43.223485052847174" lon="0.05031202058843496"><ele>308.1666666666667</ele><time>2026-05-06T10:25:45Z</time></trkpt><trkpt lat="43.223596799448586" lon="0.05032340279105826"><ele>308.0</ele><time>2026-05-06T10:25:47Z</time></trkpt><trkpt lat="43.22368165259397" lon="0.050316164078359434"><ele>308.0</ele><time>2026-05-06T10:25:49Z</time></trkpt><trkpt lat="43.22370582753492" lon="0.05049570083212059"><ele>308.0</ele><time>2026-05-06T10:25:51Z</time></trkpt><trkpt lat="43.22376494820186" lon="0.0506029981782957"><ele>308.0</ele><time>2026-05-06T10:25:53Z</time></trkpt><trkpt lat="43.223812450015004" lon="0.050729615523300395"><ele>308.0</ele><time>2026-05-06T10:25:55Z</time></trkpt><trkpt lat="43.223870075922676" lon="0.050843544138334064"><ele>308.0</ele><time>2026-05-06T10:25:57Z</time></trkpt><trkpt lat="43.22392497675657" lon="0.05096832680037633"><ele>308.0</ele><time>2026-05-06T10:25:59Z</time></trkpt><trkpt lat="43.22397925843059" lon="0.051085997109056695"><ele>308.0</ele><time>2026-05-06T10:26:01Z</time></trkpt><trkpt lat="43.22403273168626" lon="0.0512057934416224"><ele>308.0</ele><time>2026-05-06T10:26:03Z</time></trkpt><trkpt lat="43.224085880019935" lon="0.05133117144208107"><ele>308.0</ele><time>2026-05-06T10:26:05Z</time></trkpt><trkpt lat="43.22414207461484" lon="0.05145214369899265"><ele>308.0</ele><time>2026-05-06T10:26:07Z</time></trkpt><trkpt lat="43.22419947797081" lon="0.051575818841241294"><ele>308.6</ele><time>2026-05-06T10:26:09Z</time></trkpt><trkpt lat="43.22425364556584" lon="0.05170486413706499"><ele>309.20000000000005</ele><time>2026-05-06T10:26:11Z</time></trkpt><trkpt lat="43.22430794274814" lon="0.05182909416000794"><ele>309.8</ele><time>2026-05-06T10:26:13Z</time></trkpt><trkpt lat="43.22436688865507" lon="0.05194743113835417"><ele>310.40000000000003</ele><time>2026-05-06T10:26:15Z</time></trkpt><trkpt lat="43.22441974028446" lon="0.05206763865389419"><ele>311.0</ele><time>2026-05-06T10:26:17Z</time></trkpt><trkpt lat="43.22447425604534" lon="0.05218763279046268"><ele>311.0</ele><time>2026-05-06T10:26:19Z</time></trkpt><trkpt lat="43.22452671353236" lon="0.05230745096027308"><ele>311.0</ele><time>2026-05-06T10:26:21Z</time></trkpt><trkpt lat="43.22458599596243" lon="0.05242190182425966"><ele>311.0</ele><time>2026-05-06T10:26:23Z</time></trkpt><trkpt lat="43.22463934095704" lon="0.05254325340382231"><ele>311.0</ele><time>2026-05-06T10:26:25Z</time></trkpt><trkpt lat="43.22469177627871" lon="0.052661632118634207"><ele>311.0</ele><time>2026-05-06T10:26:27Z</time></trkpt><trkpt lat="43.2247475836979" lon="0.05277903314806538"><ele>311.0</ele><time>2026-05-06T10:26:29Z</time></trkpt><trkpt lat="43.22482404500899" lon="0.052885687811211404"><ele>311.0</ele><time>2026-05-06T10:26:31Z</time></trkpt><trkpt lat="43.224899608413956" lon="0.05298598945004358"><ele>311.0</ele><time>2026-05-06T10:26:33Z</time></trkpt><trkpt lat="43.22496814852952" lon="0.05308582821628451"><ele>311.0</ele><time>2026-05-06T10:26:35Z</time></trkpt><trkpt lat="43.22503863682412" lon="0.05319112527801712"><ele>311.0</ele><time>2026-05-06T10:26:37Z</time></trkpt><trkpt lat="43.22510955004181" lon="0.05329808590441569"><ele>310.75</ele><time>2026-05-06T10:26:39Z</time></trkpt><trkpt lat="43.22519515991847" lon="0.0534009863742886"><ele>310.5</ele><time>2026-05-06T10:26:41Z</time></trkpt><trkpt lat="43.22528279954565" lon="0.0535006392934727"><ele>310.25</ele><time>2026-05-06T10:26:43Z</time></trkpt><trkpt lat="43.22536565882275" lon="0.05360504057561209"><ele>310.0</ele><time>2026-05-06T10:26:45Z</time></trkpt><trkpt lat="43.22545026589656" lon="0.05371018159622577"><ele>310.0</ele><time>2026-05-06T10:26:47Z</time></trkpt><trkpt lat="43.22554012495454" lon="0.05381161439422522"><ele>310.0</ele><time>2026-05-06T10:26:49Z</time></trkpt><trkpt lat="43.225627164850316" lon="0.05391699510263959"><ele>310.0</ele><time>2026-05-06T10:26:51Z</time></trkpt><trkpt lat="43.22571386660885" lon="0.05401209367377801"><ele>310.0</ele><time>2026-05-06T10:26:53Z</time></trkpt><trkpt lat="43.2258105799471" lon="0.054109480359225706"><ele>310.25</ele><time>2026-05-06T10:26:55Z</time></trkpt><trkpt lat="43.22590951087841" lon="0.05420768822307142"><ele>310.5</ele><time>2026-05-06T10:26:57Z</time></trkpt><trkpt lat="43.22600810071593" lon="0.054306780444742075"><ele>310.75</ele><time>2026-05-06T10:26:59Z</time></trkpt><trkpt lat="43.22610512281585" lon="0.05440722892155792"><ele>311.0</ele><time>2026-05-06T10:27:01Z</time></trkpt><trkpt lat="43.2262063097613" lon="0.05450951719228863"><ele>311.0</ele><time>2026-05-06T10:27:03Z</time></trkpt><trkpt lat="43.226256468010945" lon="0.054562179749632886"><ele>311.0</ele><time>2026-05-06T10:27:04Z</time></trkpt><trkpt lat="43.22630822627042" lon="0.054613434685354505"><ele>311.0</ele><time>2026-05-06T10:27:05Z</time></trkpt><trkpt lat="43.22636140096425" lon="0.054666014649737145"><ele>311.0</ele><time>2026-05-06T10:27:06Z</time></trkpt><trkpt lat="43.22641059773437" lon="0.054722916022152866"><ele>311.0</ele><time>2026-05-06T10:27:07Z</time></trkpt><trkpt lat="43.226464017613765" lon="0.05477545438328952"><ele>311.0</ele><time>2026-05-06T10:27:08Z</time></trkpt><trkpt lat="43.22651729657952" lon="0.054827363716262"><ele>311.0</ele><time>2026-05-06T10:27:09Z</time></trkpt><trkpt lat="43.226618900669855" lon="0.054933014190647673"><ele>311.1428571428571</ele><time>2026-05-06T10:27:11Z</time></trkpt><trkpt lat="43.226670309121275" lon="0.0549878007315747"><ele>311.28571428571433</ele><time>2026-05-06T10:27:12Z</time></trkpt><trkpt lat="43.22672091626756" lon="0.05504210259099672"><ele>311.42857142857144</ele><time>2026-05-06T10:27:13Z</time></trkpt><trkpt lat="43.22677406742865" lon="0.055099638056422116"><ele>311.57142857142856</ele><time>2026-05-06T10:27:14Z</time></trkpt><trkpt lat="43.22682794280018" lon="0.055153038203561364"><ele>311.71428571428567</ele><time>2026-05-06T10:27:15Z</time></trkpt><trkpt lat="43.22687978954729" lon="0.0552094934544537"><ele>311.8571428571429</ele><time>2026-05-06T10:27:16Z</time></trkpt><trkpt lat="43.22693210836979" lon="0.05526514121710898"><ele>312.0</ele><time>2026-05-06T10:27:17Z</time></trkpt><trkpt lat="43.22698623541974" lon="0.055320955949540125"><ele>312.0</ele><time>2026-05-06T10:27:18Z</time></trkpt><trkpt lat="43.22703992629703" lon="0.05537631875800523"><ele>312.0</ele><time>2026-05-06T10:27:19Z</time></trkpt><trkpt lat="43.22709219442155" lon="0.05543340298736171"><ele>312.0</ele><time>2026-05-06T10:27:20Z</time></trkpt><trkpt lat="43.2271442057499" lon="0.05549263096077878"><ele>312.0</ele><time>2026-05-06T10:27:21Z</time></trkpt><trkpt lat="43.227197123866574" lon="0.055548570266098364"><ele>312.0</ele><time>2026-05-06T10:27:22Z</time></trkpt><trkpt lat="43.22725217011503" lon="0.05560252592228024"><ele>312.0</ele><time>2026-05-06T10:27:23Z</time></trkpt><trkpt lat="43.22730202444015" lon="0.05565945548093199"><ele>312.0</ele><time>2026-05-06T10:27:24Z</time></trkpt><trkpt lat="43.227354145190645" lon="0.055718380780452346"><ele>311.8571428571429</ele><time>2026-05-06T10:27:25Z</time></trkpt><trkpt lat="43.22740549265799" lon="0.0557745127201639"><ele>311.71428571428567</ele><time>2026-05-06T10:27:26Z</time></trkpt><trkpt lat="43.22745448549754" lon="0.05583175317408786"><ele>311.57142857142856</ele><time>2026-05-06T10:27:27Z</time></trkpt><trkpt lat="43.22750366934622" lon="0.05588987792302254"><ele>311.42857142857144</ele><time>2026-05-06T10:27:28Z</time></trkpt><trkpt lat="43.22755444778828" lon="0.05594680221833382"><ele>311.28571428571433</ele><time>2026-05-06T10:27:29Z</time></trkpt><trkpt lat="43.227605741215896" lon="0.0560042709440931"><ele>311.1428571428571</ele><time>2026-05-06T10:27:30Z</time></trkpt><trkpt lat="43.22765508442177" lon="0.05606473256916"><ele>311.0</ele><time>2026-05-06T10:27:31Z</time></trkpt><trkpt lat="43.227703382206215" lon="0.05612126883915761"><ele>311.0</ele><time>2026-05-06T10:27:32Z</time></trkpt><trkpt lat="43.22780103833575" lon="0.056229327095394896"><ele>311.0</ele><time>2026-05-06T10:27:34Z</time></trkpt><trkpt lat="43.22787812444124" lon="0.05631908013850247"><ele>311.0</ele><time>2026-05-06T10:27:36Z</time></trkpt><trkpt lat="43.22792490302652" lon="0.056386528303306184"><ele>311.0</ele><time>2026-05-06T10:27:39Z</time></trkpt><trkpt lat="43.22797336427143" lon="0.056441968641489405"><ele>311.0</ele><time>2026-05-06T10:28:26Z</time></trkpt><trkpt lat="43.22801132531517" lon="0.05651692640347689"><ele>311.0</ele><time>2026-05-06T10:28:28Z</time></trkpt><trkpt lat="43.22806093482421" lon="0.056589030185913436"><ele>310.8</ele><time>2026-05-06T10:28:30Z</time></trkpt><trkpt lat="43.228127526977275" lon="0.05665495247609198"><ele>310.6</ele><time>2026-05-06T10:28:32Z</time></trkpt><trkpt lat="43.22819686505695" lon="0.05674255190688003"><ele>310.4</ele><time>2026-05-06T10:28:34Z</time></trkpt><trkpt lat="43.22826069061372" lon="0.056851208664714194"><ele>310.2</ele><time>2026-05-06T10:28:36Z</time></trkpt><trkpt lat="43.228332362820645" lon="0.05695745014797063"><ele>310.0</ele><time>2026-05-06T10:28:38Z</time></trkpt><trkpt lat="43.228405047554574" lon="0.05706426974255203"><ele>310.0</ele><time>2026-05-06T10:28:40Z</time></trkpt><trkpt lat="43.22847936786652" lon="0.057168927992369285"><ele>310.0</ele><time>2026-05-06T10:28:42Z</time></trkpt><trkpt lat="43.228551326303155" lon="0.057277738103974046"><ele>310.0</ele><time>2026-05-06T10:28:44Z</time></trkpt><trkpt lat="43.22862983233629" lon="0.05738012904373518"><ele>310.0</ele><time>2026-05-06T10:28:46Z</time></trkpt><trkpt lat="43.22870991601765" lon="0.057484189208066534"><ele>310.0</ele><time>2026-05-06T10:28:48Z</time></trkpt><trkpt lat="43.22877927904756" lon="0.057598023140863513"><ele>310.0</ele><time>2026-05-06T10:28:50Z</time></trkpt><trkpt lat="43.22884121453592" lon="0.05772167702816685"><ele>310.0</ele><time>2026-05-06T10:28:52Z</time></trkpt><trkpt lat="43.2289027153691" lon="0.05783133425221553"><ele>310.0</ele><time>2026-05-06T10:28:54Z</time></trkpt><trkpt lat="43.22896768992024" lon="0.05793964783071051"><ele>310.0</ele><time>2026-05-06T10:28:56Z</time></trkpt><trkpt lat="43.2290361484732" lon="0.05805303607138491"><ele>310.0</ele><time>2026-05-06T10:28:58Z</time></trkpt><trkpt lat="43.229103201170965" lon="0.05816653140002565"><ele>310.0</ele><time>2026-05-06T10:29:00Z</time></trkpt><trkpt lat="43.22917000227201" lon="0.05827902916829431"><ele>310.0</ele><time>2026-05-06T10:29:02Z</time></trkpt><trkpt lat="43.22924654269538" lon="0.05838816800588843"><ele>310.0</ele><time>2026-05-06T10:29:04Z</time></trkpt><trkpt lat="43.22931778318726" lon="0.05850876688893823"><ele>310.0</ele><time>2026-05-06T10:29:06Z</time></trkpt><trkpt lat="43.22938868689222" lon="0.05862940888166891"><ele>310.0</ele><time>2026-05-06T10:29:08Z</time></trkpt><trkpt lat="43.22945908685061" lon="0.05875372674795388"><ele>310.0</ele><time>2026-05-06T10:29:10Z</time></trkpt><trkpt lat="43.22953088317856" lon="0.058881175914603914"><ele>310.0</ele><time>2026-05-06T10:29:12Z</time></trkpt><trkpt lat="43.22959296750889" lon="0.05901439115980522"><ele>310.0</ele><time>2026-05-06T10:29:14Z</time></trkpt><trkpt lat="43.22962768876714" lon="0.05917013200651634"><ele>310.0</ele><time>2026-05-06T10:29:16Z</time></trkpt><trkpt lat="43.22957791415939" lon="0.05932976305349867"><ele>310.25</ele><time>2026-05-06T10:29:18Z</time></trkpt><trkpt lat="43.22959454984152" lon="0.059417668004877494"><ele>310.5</ele><time>2026-05-06T10:29:20Z</time></trkpt><trkpt lat="43.229783607086674" lon="0.059321831443988116"><ele>310.75</ele><time>2026-05-06T10:29:21Z</time></trkpt><trkpt lat="43.22988642477462" lon="0.05949108313983797"><ele>311.0</ele><time>2026-05-06T10:29:23Z</time></trkpt><trkpt lat="43.229957134202735" lon="0.05962164631477163"><ele>311.0</ele><time>2026-05-06T10:29:25Z</time></trkpt><trkpt lat="43.23003061674451" lon="0.059741898906967385"><ele>311.0</ele><time>2026-05-06T10:29:27Z</time></trkpt><trkpt lat="43.2301040286275" lon="0.05987177359891116"><ele>311.0</ele><time>2026-05-06T10:29:29Z</time></trkpt><trkpt lat="43.230187948892414" lon="0.05998907514894375"><ele>311.0</ele><time>2026-05-06T10:29:31Z</time></trkpt><trkpt lat="43.23027747833164" lon="0.06010142846888435"><ele>311.0</ele><time>2026-05-06T10:29:33Z</time></trkpt><trkpt lat="43.23036623567888" lon="0.060220611272763146"><ele>311.0</ele><time>2026-05-06T10:29:35Z</time></trkpt><trkpt lat="43.23045189696736" lon="0.0603479777633641"><ele>311.0</ele><time>2026-05-06T10:29:37Z</time></trkpt><trkpt lat="43.23054659556635" lon="0.06047083399699334"><ele>311.0</ele><time>2026-05-06T10:29:39Z</time></trkpt><trkpt lat="43.23059124134998" lon="0.06053410276699153"><ele>311.0</ele><time>2026-05-06T10:29:40Z</time></trkpt><trkpt lat="43.23063527489139" lon="0.06059865349456012"><ele>311.0</ele><time>2026-05-06T10:29:41Z</time></trkpt><trkpt lat="43.23072805635516" lon="0.060711927811233385"><ele>311.0</ele><time>2026-05-06T10:29:43Z</time></trkpt><trkpt lat="43.230823373390294" lon="0.06081945464799559"><ele>311.0</ele><time>2026-05-06T10:29:45Z</time></trkpt><trkpt lat="43.23086940819359" lon="0.06088130246255688"><ele>311.0</ele><time>2026-05-06T10:29:46Z</time></trkpt><trkpt lat="43.23091920184584" lon="0.06094093520486175"><ele>311.0</ele><time>2026-05-06T10:29:47Z</time></trkpt><trkpt lat="43.23097301377443" lon="0.060990512184749865"><ele>311.0</ele><time>2026-05-06T10:29:48Z</time></trkpt><trkpt lat="43.231021834890925" lon="0.061048961495601656"><ele>311.0</ele><time>2026-05-06T10:29:49Z</time></trkpt><trkpt lat="43.2310702573198" lon="0.061107628126407985"><ele>311.0</ele><time>2026-05-06T10:29:50Z</time></trkpt><trkpt lat="43.23111844308929" lon="0.06116415603095499"><ele>311.0</ele><time>2026-05-06T10:29:51Z</time></trkpt><trkpt lat="43.2312177122523" lon="0.06126637064068757"><ele>311.0</ele><time>2026-05-06T10:29:53Z</time></trkpt><trkpt lat="43.23131098712994" lon="0.06136904478045643"><ele>311.0</ele><time>2026-05-06T10:29:55Z</time></trkpt><trkpt lat="43.231400129275805" lon="0.061473045302574046"><ele>310.8</ele><time>2026-05-06T10:29:57Z</time></trkpt><trkpt lat="43.23149219979527" lon="0.06156335070803865"><ele>310.6</ele><time>2026-05-06T10:29:58.999Z</time></trkpt><trkpt lat="43.231591107672415" lon="0.06161515568578126"><ele>310.4</ele><time>2026-05-06T10:30:00.999Z</time></trkpt><trkpt lat="43.23169798997361" lon="0.061587169789122376"><ele>310.2</ele><time>2026-05-06T10:30:02.999Z</time></trkpt><trkpt lat="43.23181096576397" lon="0.06156778825306408"><ele>310.0</ele><time>2026-05-06T10:30:04.999Z</time></trkpt><trkpt lat="43.231926456717595" lon="0.061549049943253234"><ele>310.0</ele><time>2026-05-06T10:30:06.999Z</time></trkpt><trkpt lat="43.232048096992294" lon="0.061527847622443094"><ele>310.0</ele><time>2026-05-06T10:30:08.999Z</time></trkpt><trkpt lat="43.23211053342838" lon="0.06151311118805975"><ele>310.0</ele><time>2026-05-06T10:30:09.999Z</time></trkpt><trkpt lat="43.23223126881674" lon="0.061492739329961146"><ele>310.0</ele><time>2026-05-06T10:30:11.999Z</time></trkpt><trkpt lat="43.23229509497017" lon="0.061483209154858956"><ele>310.0</ele><time>2026-05-06T10:30:12.999Z</time></trkpt><trkpt lat="43.23241185579953" lon="0.06147510395680166"><ele>310.6</ele><time>2026-05-06T10:30:14.999Z</time></trkpt><trkpt lat="43.232517918190304" lon="0.06145114458576065"><ele>311.2</ele><time>2026-05-06T10:30:16.999Z</time></trkpt><trkpt lat="43.232626877521206" lon="0.061422741396033174"><ele>311.8</ele><time>2026-05-06T10:30:18.999Z</time></trkpt><trkpt lat="43.23272937027553" lon="0.06137229100942148"><ele>312.4</ele><time>2026-05-06T10:30:20.999Z</time></trkpt><trkpt lat="43.23279250811317" lon="0.06136380351519516"><ele>313.0</ele><time>2026-05-06T10:30:21.999Z</time></trkpt><trkpt lat="43.232860629779445" lon="0.06136885821617516"><ele>313.0</ele><time>2026-05-06T10:30:22.999Z</time></trkpt><trkpt lat="43.23289925622924" lon="0.06145516327275157"><ele>313.0</ele><time>2026-05-06T10:30:23.999Z</time></trkpt><trkpt lat="43.23297683154717" lon="0.06156789266061152"><ele>313.0</ele><time>2026-05-06T10:30:25.999Z</time></trkpt><trkpt lat="43.23300166751131" lon="0.06174439692721423"><ele>313.0</ele><time>2026-05-06T10:30:27.999Z</time></trkpt><trkpt lat="43.232999944190134" lon="0.06190675479376835"><ele>313.0</ele><time>2026-05-06T10:30:29.999Z</time></trkpt><trkpt lat="43.23302564017677" lon="0.06206321453942224"><ele>313.0</ele><time>2026-05-06T10:30:32Z</time></trkpt><trkpt lat="43.233002373248404" lon="0.06215078503066257"><ele>313.0</ele><time>2026-05-06T10:30:33Z</time></trkpt><trkpt lat="43.23299849469852" lon="0.06231181364213917"><ele>313.0</ele><time>2026-05-06T10:30:35Z</time></trkpt><trkpt lat="43.2329950488034" lon="0.06247283489432611"><ele>313.0</ele><time>2026-05-06T10:30:37Z</time></trkpt><trkpt lat="43.23299257297804" lon="0.06263432438073435"><ele>313.0</ele><time>2026-05-06T10:30:39Z</time></trkpt><trkpt lat="43.2329879161161" lon="0.06279494580443656"><ele>313.0</ele><time>2026-05-06T10:30:41Z</time></trkpt><trkpt lat="43.232982963274665" lon="0.06296016354181648"><ele>313.0</ele><time>2026-05-06T10:30:43Z</time></trkpt><trkpt lat="43.23297765916306" lon="0.06312380315134797"><ele>313.0</ele><time>2026-05-06T10:30:45Z</time></trkpt><trkpt lat="43.23297504727492" lon="0.06328634263387967"><ele>313.0</ele><time>2026-05-06T10:30:47Z</time></trkpt><trkpt lat="43.23297238016746" lon="0.06345405116536404"><ele>312.75</ele><time>2026-05-06T10:30:49Z</time></trkpt><trkpt lat="43.23294723540511" lon="0.06361742835517208"><ele>312.5</ele><time>2026-05-06T10:30:51Z</time></trkpt><trkpt lat="43.23291348296189" lon="0.06377518517837602"><ele>312.25</ele><time>2026-05-06T10:30:53Z</time></trkpt><trkpt lat="43.23288166691997" lon="0.06393176589935518"><ele>312.0</ele><time>2026-05-06T10:30:55Z</time></trkpt><trkpt lat="43.23284866848962" lon="0.06409481478873416"><ele>311.6</ele><time>2026-05-06T10:30:57Z</time></trkpt><trkpt lat="43.23282050685655" lon="0.06424941892973061"><ele>311.2</ele><time>2026-05-06T10:30:59Z</time></trkpt><trkpt lat="43.232782138800154" lon="0.06439239728032602"><ele>310.8</ele><time>2026-05-06T10:31:01Z</time></trkpt><trkpt lat="43.23271426831582" lon="0.06451272599860619"><ele>310.4</ele><time>2026-05-06T10:31:03Z</time></trkpt><trkpt lat="43.23265935011483" lon="0.06463870942148521"><ele>310.0</ele><time>2026-05-06T10:31:05Z</time></trkpt><trkpt lat="43.23261592163637" lon="0.0647586047881417"><ele>310.0</ele><time>2026-05-06T10:31:07Z</time></trkpt><trkpt lat="43.23256898447497" lon="0.06488112892217443"><ele>310.0</ele><time>2026-05-06T10:31:09Z</time></trkpt><trkpt lat="43.23253592846855" lon="0.06496783741407937"><ele>310.0</ele><time>2026-05-06T10:31:11Z</time></trkpt><trkpt lat="43.23250027211855" lon="0.0650697269901488"><ele>310.0</ele><time>2026-05-06T10:31:14Z</time></trkpt><trkpt lat="43.23246067020821" lon="0.06514137553461763"><ele>310.0</ele><time>2026-05-06T10:31:16Z</time></trkpt><trkpt lat="43.23240323262178" lon="0.0652240717122107"><ele>310.0</ele><time>2026-05-06T10:31:18Z</time></trkpt><trkpt lat="43.23237332111676" lon="0.06532570412599562"><ele>310.66666666666663</ele><time>2026-05-06T10:31:20Z</time></trkpt><trkpt lat="43.232375559545744" lon="0.06542020470729532"><ele>311.3333333333333</ele><time>2026-05-06T10:31:22Z</time></trkpt><trkpt lat="43.232371819243895" lon="0.06552664366028121"><ele>312.0</ele><time>2026-05-06T10:31:24Z</time></trkpt><trkpt lat="43.23235636612229" lon="0.06565503446510056"><ele>312.6666666666667</ele><time>2026-05-06T10:31:26Z</time></trkpt><trkpt lat="43.2323594819246" lon="0.0657930778430352"><ele>313.33333333333337</ele><time>2026-05-06T10:31:28Z</time></trkpt><trkpt lat="43.23235917292339" lon="0.06593152791625702"><ele>314.0</ele><time>2026-05-06T10:31:30Z</time></trkpt><trkpt lat="43.232358182419816" lon="0.06608076516594852"><ele>314.0</ele><time>2026-05-06T10:31:32Z</time></trkpt><trkpt lat="43.2323553425059" lon="0.06622786360221782"><ele>314.0</ele><time>2026-05-06T10:31:34Z</time></trkpt><trkpt lat="43.2323409556957" lon="0.06637511079697858"><ele>314.0</ele><time>2026-05-06T10:31:36Z</time></trkpt><trkpt lat="43.23232970446501" lon="0.06651679524905227"><ele>314.0</ele><time>2026-05-06T10:31:38Z</time></trkpt><trkpt lat="43.232326549429594" lon="0.06666277793297336"><ele>314.0</ele><time>2026-05-06T10:31:40Z</time></trkpt><trkpt lat="43.23230748034146" lon="0.06681125327138705"><ele>313.8</ele><time>2026-05-06T10:31:42Z</time></trkpt><trkpt lat="43.23228763841651" lon="0.06695687508484377"><ele>313.59999999999997</ele><time>2026-05-06T10:31:44Z</time></trkpt><trkpt lat="43.23227671406698" lon="0.06710291352814891"><ele>313.4</ele><time>2026-05-06T10:31:46Z</time></trkpt><trkpt lat="43.23225968888914" lon="0.06725207529597253"><ele>313.2</ele><time>2026-05-06T10:31:48Z</time></trkpt><trkpt lat="43.2322413585497" lon="0.06739595916713999"><ele>313.0</ele><time>2026-05-06T10:31:50Z</time></trkpt><trkpt lat="43.232226702604656" lon="0.06754096514789572"><ele>313.0</ele><time>2026-05-06T10:31:51.999Z</time></trkpt><trkpt lat="43.23221022696824" lon="0.06768643943704825"><ele>313.0</ele><time>2026-05-06T10:31:53.999Z</time></trkpt><trkpt lat="43.23218710378261" lon="0.06783269358455268"><ele>313.0</ele><time>2026-05-06T10:31:55.999Z</time></trkpt><trkpt lat="43.2321719052094" lon="0.06798050072110451"><ele>313.0</ele><time>2026-05-06T10:31:57.999Z</time></trkpt><trkpt lat="43.23215534561012" lon="0.06812696517477437"><ele>313.0</ele><time>2026-05-06T10:31:59.999Z</time></trkpt><trkpt lat="43.2321398489298" lon="0.06827137181053339"><ele>313.2</ele><time>2026-05-06T10:32:01.999Z</time></trkpt><trkpt lat="43.232124823190816" lon="0.0684112753427771"><ele>313.4</ele><time>2026-05-06T10:32:03.999Z</time></trkpt><trkpt lat="43.23210587239302" lon="0.0685560047523182"><ele>313.59999999999997</ele><time>2026-05-06T10:32:05.999Z</time></trkpt><trkpt lat="43.23208963878549" lon="0.06870137353709746"><ele>313.8</ele><time>2026-05-06T10:32:07.999Z</time></trkpt><trkpt lat="43.232074874632964" lon="0.0688411303134122"><ele>314.0</ele><time>2026-05-06T10:32:09.999Z</time></trkpt><trkpt lat="43.23206400120089" lon="0.06897724184347356"><ele>313.59999999999997</ele><time>2026-05-06T10:32:11.999Z</time></trkpt><trkpt lat="43.23205683201135" lon="0.06911968518770285"><ele>313.2</ele><time>2026-05-06T10:32:13.999Z</time></trkpt><trkpt lat="43.23205381114952" lon="0.0692692530637465"><ele>312.79999999999995</ele><time>2026-05-06T10:32:15.999Z</time></trkpt><trkpt lat="43.23205643621057" lon="0.0694125956558868"><ele>312.4</ele><time>2026-05-06T10:32:17.999Z</time></trkpt><trkpt lat="43.23205855673341" lon="0.06955578581901686"><ele>312.0</ele><time>2026-05-06T10:32:19.999Z</time></trkpt><trkpt lat="43.232057524872374" lon="0.06970380858541153"><ele>312.0</ele><time>2026-05-06T10:32:21.999Z</time></trkpt><trkpt lat="43.23205932526122" lon="0.06983664643837466"><ele>312.0</ele><time>2026-05-06T10:32:23.999Z</time></trkpt><trkpt lat="43.23204873256076" lon="0.06996342031475196"><ele>312.0</ele><time>2026-05-06T10:32:25.999Z</time></trkpt><trkpt lat="43.23206648260048" lon="0.07010188727867961"><ele>312.0</ele><time>2026-05-06T10:32:27.999Z</time></trkpt><trkpt lat="43.23211602187118" lon="0.07020723882093068"><ele>312.0</ele><time>2026-05-06T10:32:29.999Z</time></trkpt><trkpt lat="43.23217258357496" lon="0.07029644839647496"><ele>312.3333333333333</ele><time>2026-05-06T10:32:31.999Z</time></trkpt><trkpt lat="43.23222547104113" lon="0.07039245531428895"><ele>312.6666666666667</ele><time>2026-05-06T10:32:33.999Z</time></trkpt><trkpt lat="43.232267031678916" lon="0.07050669721068721"><ele>313.0</ele><time>2026-05-06T10:32:35.999Z</time></trkpt><trkpt lat="43.23229030582329" lon="0.07061857616723087"><ele>313.33333333333337</ele><time>2026-05-06T10:32:38Z</time></trkpt><trkpt lat="43.23227100722335" lon="0.07072712298352994"><ele>313.6666666666667</ele><time>2026-05-06T10:32:40Z</time></trkpt><trkpt lat="43.23228798558701" lon="0.0708483286641272"><ele>314.0</ele><time>2026-05-06T10:32:42Z</time></trkpt><trkpt lat="43.23226094038789" lon="0.07097404151969117"><ele>314.5</ele><time>2026-05-06T10:32:44Z</time></trkpt><trkpt lat="43.23223732798476" lon="0.07108892045592181"><ele>315.0</ele><time>2026-05-06T10:32:46Z</time></trkpt><trkpt lat="43.23220970711849" lon="0.07120639740675809"><ele>315.5</ele><time>2026-05-06T10:32:48Z</time></trkpt><trkpt lat="43.23218489092331" lon="0.07132203179922265"><ele>316.0</ele><time>2026-05-06T10:32:50Z</time></trkpt><trkpt lat="43.23216339528729" lon="0.07144360946412795"><ele>316.5</ele><time>2026-05-06T10:32:52Z</time></trkpt><trkpt lat="43.23214313541341" lon="0.07155685830105467"><ele>317.0</ele><time>2026-05-06T10:32:54Z</time></trkpt><trkpt lat="43.2321268217924" lon="0.07167264789236694"><ele>317.0</ele><time>2026-05-06T10:32:56Z</time></trkpt><trkpt lat="43.23210788206645" lon="0.07177656152443608"><ele>317.0</ele><time>2026-05-06T10:32:58Z</time></trkpt><trkpt lat="43.2320860748844" lon="0.07187251457214716"><ele>317.0</ele><time>2026-05-06T10:33:00Z</time></trkpt><trkpt lat="43.23206444529923" lon="0.07196474151612074"><ele>317.0</ele><time>2026-05-06T10:33:02Z</time></trkpt><trkpt lat="43.23204047660644" lon="0.07207011476632709"><ele>317.0</ele><time>2026-05-06T10:33:05Z</time></trkpt><trkpt lat="43.23200557316259" lon="0.0721506560645488"><ele>317.0</ele><time>2026-05-06T10:33:19Z</time></trkpt><trkpt lat="43.23198535669295" lon="0.07226381436341808"><ele>317.0</ele><time>2026-05-06T10:33:22Z</time></trkpt><trkpt lat="43.23196489461634" lon="0.072363976981976"><ele>317.0</ele><time>2026-05-06T10:33:24Z</time></trkpt><trkpt lat="43.2319360102643" lon="0.0724816332113363"><ele>317.0</ele><time>2026-05-06T10:33:26Z</time></trkpt><trkpt lat="43.23189832305293" lon="0.07259383644473731"><ele>317.0</ele><time>2026-05-06T10:33:28Z</time></trkpt><trkpt lat="43.231863915752804" lon="0.07271212687337839"><ele>317.0</ele><time>2026-05-06T10:33:30Z</time></trkpt><trkpt lat="43.231829028104684" lon="0.07282453524375122"><ele>317.0</ele><time>2026-05-06T10:33:32Z</time></trkpt><trkpt lat="43.231798400386296" lon="0.07295657427630226"><ele>317.0</ele><time>2026-05-06T10:33:34Z</time></trkpt><trkpt lat="43.23176742336137" lon="0.07309909158146136"><ele>317.0</ele><time>2026-05-06T10:33:36Z</time></trkpt><trkpt lat="43.23172511415939" lon="0.07322622397910471"><ele>317.0</ele><time>2026-05-06T10:33:38Z</time></trkpt><trkpt lat="43.231671392065266" lon="0.07332398783729978"><ele>317.0</ele><time>2026-05-06T10:33:40Z</time></trkpt><trkpt lat="43.23163999435399" lon="0.07343006175754624"><ele>317.0</ele><time>2026-05-06T10:33:42Z</time></trkpt><trkpt lat="43.231628634913804" lon="0.07352883750474382"><ele>317.2</ele><time>2026-05-06T10:33:44Z</time></trkpt><trkpt lat="43.23175056519809" lon="0.07355745221295754"><ele>317.4</ele><time>2026-05-06T10:33:46Z</time></trkpt><trkpt lat="43.23181562962491" lon="0.07358903080890385"><ele>317.6</ele><time>2026-05-06T10:33:48Z</time></trkpt><trkpt lat="43.23189890465371" lon="0.07358536331109387"><ele>317.8</ele><time>2026-05-06T10:33:50Z</time></trkpt><trkpt lat="43.23198600123057" lon="0.0735930115116851"><ele>318.0</ele><time>2026-05-06T10:33:52Z</time></trkpt><trkpt lat="43.23207272673877" lon="0.07360004753949154"><ele>318.0</ele><time>2026-05-06T10:33:54Z</time></trkpt><trkpt lat="43.23215427638611" lon="0.07360505996021428"><ele>318.0</ele><time>2026-05-06T10:33:56Z</time></trkpt><trkpt lat="43.232238724729605" lon="0.07363288048705283"><ele>318.0</ele><time>2026-05-06T10:33:58Z</time></trkpt><trkpt lat="43.232331534790895" lon="0.07364316054759469"><ele>318.0</ele><time>2026-05-06T10:34:00Z</time></trkpt><trkpt lat="43.23241468985565" lon="0.07365515927437087"><ele>318.0</ele><time>2026-05-06T10:34:02Z</time></trkpt><trkpt lat="43.23249881944541" lon="0.07368945288230964"><ele>318.0</ele><time>2026-05-06T10:34:04Z</time></trkpt><trkpt lat="43.2325471212531" lon="0.0737831459409415"><ele>318.2</ele><time>2026-05-06T10:34:06Z</time></trkpt><trkpt lat="43.23259107307779" lon="0.0738528588525364"><ele>318.4</ele><time>2026-05-06T10:34:08Z</time></trkpt><trkpt lat="43.23251043811003" lon="0.07410078969355056"><ele>318.59999999999997</ele><time>2026-05-06T10:34:13.999Z</time></trkpt><trkpt lat="43.2324724235099" lon="0.07419294860429057"><ele>318.8</ele><time>2026-05-06T10:34:15.999Z</time></trkpt><trkpt lat="43.23242519771767" lon="0.07429378791056991"><ele>319.0</ele><time>2026-05-06T10:34:17.999Z</time></trkpt><trkpt lat="43.23237343438883" lon="0.07440961047813861"><ele>318.59999999999997</ele><time>2026-05-06T10:34:19.999Z</time></trkpt><trkpt lat="43.23232641551934" lon="0.07453697989373348"><ele>318.2</ele><time>2026-05-06T10:34:21.999Z</time></trkpt><trkpt lat="43.23228769530673" lon="0.07466848096912973"><ele>317.79999999999995</ele><time>2026-05-06T10:34:23.999Z</time></trkpt><trkpt lat="43.232254338019054" lon="0.07479902859084672"><ele>317.4</ele><time>2026-05-06T10:34:25.999Z</time></trkpt><trkpt lat="43.23220991369458" lon="0.07492472901571488"><ele>317.0</ele><time>2026-05-06T10:34:27.999Z</time></trkpt><trkpt lat="43.23217751130025" lon="0.07505149836035888"><ele>317.0</ele><time>2026-05-06T10:34:29.999Z</time></trkpt><trkpt lat="43.23213400041019" lon="0.0751737980701617"><ele>317.0</ele><time>2026-05-06T10:34:31.999Z</time></trkpt><trkpt lat="43.232082834145416" lon="0.07529160441520268"><ele>317.0</ele><time>2026-05-06T10:34:33.999Z</time></trkpt><trkpt lat="43.23204092990051" lon="0.07542223732078725"><ele>317.0</ele><time>2026-05-06T10:34:35.999Z</time></trkpt><trkpt lat="43.23200218472336" lon="0.07556027451233498"><ele>317.0</ele><time>2026-05-06T10:34:37.999Z</time></trkpt><trkpt lat="43.2319717938098" lon="0.07568633714675614"><ele>317.2</ele><time>2026-05-06T10:34:39.999Z</time></trkpt><trkpt lat="43.23194883330506" lon="0.07581466444589656"><ele>317.4</ele><time>2026-05-06T10:34:41.999Z</time></trkpt><trkpt lat="43.2319285166961" lon="0.07594112417448688"><ele>317.6</ele><time>2026-05-06T10:34:44Z</time></trkpt><trkpt lat="43.23191270575594" lon="0.07606315272239868"><ele>317.8</ele><time>2026-05-06T10:34:46Z</time></trkpt><trkpt lat="43.23189100528963" lon="0.07617834449808085"><ele>318.0</ele><time>2026-05-06T10:34:48Z</time></trkpt><trkpt lat="43.231881376770176" lon="0.07629461956052305"><ele>318.0</ele><time>2026-05-06T10:34:50Z</time></trkpt><trkpt lat="43.23185941221032" lon="0.07640219226889373"><ele>318.0</ele><time>2026-05-06T10:34:52Z</time></trkpt><trkpt lat="43.23183802019582" lon="0.076511033347083"><ele>318.0</ele><time>2026-05-06T10:34:54Z</time></trkpt><trkpt lat="43.23184422184829" lon="0.07662600151472138"><ele>318.0</ele><time>2026-05-06T10:34:56Z</time></trkpt><trkpt lat="43.23185034788369" lon="0.07674627443817365"><ele>318.0</ele><time>2026-05-06T10:34:58Z</time></trkpt><trkpt lat="43.23186760121939" lon="0.07686850139652625"><ele>318.0</ele><time>2026-05-06T10:35:00Z</time></trkpt><trkpt lat="43.23189299656821" lon="0.07698793730592708"><ele>318.0</ele><time>2026-05-06T10:35:02Z</time></trkpt><trkpt lat="43.231926104660026" lon="0.07711257688997322"><ele>318.0</ele><time>2026-05-06T10:35:04Z</time></trkpt><trkpt lat="43.231965347410956" lon="0.07723204355107093"><ele>318.0</ele><time>2026-05-06T10:35:06Z</time></trkpt><trkpt lat="43.23199062482324" lon="0.07735935137841557"><ele>318.0</ele><time>2026-05-06T10:35:08Z</time></trkpt><trkpt lat="43.23202298459285" lon="0.07747866939480817"><ele>318.0</ele><time>2026-05-06T10:35:10Z</time></trkpt><trkpt lat="43.23205060283446" lon="0.07759092936245245"><ele>318.0</ele><time>2026-05-06T10:35:12Z</time></trkpt><trkpt lat="43.23221529214552" lon="0.0776325895156753"><ele>318.0</ele><time>2026-05-06T10:35:15Z</time></trkpt><trkpt lat="43.23229060570502" lon="0.07762455851683614"><ele>318.0</ele><time>2026-05-06T10:35:17Z</time></trkpt><trkpt lat="43.23238905178652" lon="0.07761263222540553"><ele>318.0</ele><time>2026-05-06T10:35:20Z</time></trkpt><trkpt lat="43.23246821061645" lon="0.07759893211536534"><ele>318.0</ele><time>2026-05-06T10:35:22Z</time></trkpt><trkpt lat="43.23254031311364" lon="0.07761353722939365"><ele>318.0</ele><time>2026-05-06T10:35:24Z</time></trkpt><trkpt lat="43.23261782993822" lon="0.0776200026105984"><ele>318.0</ele><time>2026-05-06T10:35:26Z</time></trkpt><trkpt lat="43.232688547739144" lon="0.0776316420322965"><ele>318.0</ele><time>2026-05-06T10:35:28Z</time></trkpt><trkpt lat="43.232759953205395" lon="0.0776566276568486"><ele>318.0</ele><time>2026-05-06T10:35:32Z</time></trkpt><trkpt lat="43.232824052373886" lon="0.0776543274002163"><ele>318.0</ele><time>2026-05-06T10:35:36Z</time></trkpt><trkpt lat="43.232887392999864" lon="0.07765857754327352"><ele>318.0</ele><time>2026-05-06T10:35:40Z</time></trkpt><trkpt lat="43.232817353172486" lon="0.0776240054501999"><ele>318.0</ele><time>2026-05-06T10:38:29.999Z</time></trkpt><trkpt lat="43.23282200562167" lon="0.07748277000786416"><ele>317.85714285714283</ele><time>2026-05-06T10:38:40.999Z</time></trkpt><trkpt lat="43.23282629215457" lon="0.07739605462378527"><ele>317.7142857142857</ele><time>2026-05-06T10:38:46.999Z</time></trkpt><trkpt lat="43.232815534705246" lon="0.07730312575987408"><ele>317.57142857142856</ele><time>2026-05-06T10:38:52.999Z</time></trkpt><trkpt lat="43.23283516355002" lon="0.07721327320328349"><ele>317.42857142857144</ele><time>2026-05-06T10:38:58Z</time></trkpt><trkpt lat="43.23285144388725" lon="0.07712474225946744"><ele>317.2857142857143</ele><time>2026-05-06T10:39:04Z</time></trkpt><trkpt lat="43.232846282697565" lon="0.07703222847793642"><ele>317.14285714285717</ele><time>2026-05-06T10:39:09Z</time></trkpt><trkpt lat="43.23284914828862" lon="0.07693401409787178"><ele>317.0</ele><time>2026-05-06T10:39:15Z</time></trkpt><trkpt lat="43.232881372033106" lon="0.07684779564868009"><ele>317.0</ele><time>2026-05-06T10:39:20Z</time></trkpt><trkpt lat="43.23290853772839" lon="0.07675764969791159"><ele>317.0</ele><time>2026-05-06T10:39:25Z</time></trkpt><trkpt lat="43.23293167810678" lon="0.07667054913366346"><ele>317.0</ele><time>2026-05-06T10:39:30Z</time></trkpt><trkpt lat="43.23294021064623" lon="0.07658159671091685"><ele>317.0</ele><time>2026-05-06T10:39:36Z</time></trkpt><trkpt lat="43.232952459166725" lon="0.07648054574665111"><ele>317.0</ele><time>2026-05-06T10:39:43Z</time></trkpt><trkpt lat="43.23296760081673" lon="0.0763810571808711"><ele>317.0</ele><time>2026-05-06T10:39:49Z</time></trkpt><trkpt lat="43.2329511813769" lon="0.07628696176437706"><ele>317.0</ele><time>2026-05-06T10:39:54Z</time></trkpt><trkpt lat="43.2329455220256" lon="0.07619157456727797"><ele>317.0</ele><time>2026-05-06T10:39:59Z</time></trkpt><trkpt lat="43.23296012007426" lon="0.07610491295633362"><ele>317.0</ele><time>2026-05-06T10:40:04Z</time></trkpt><trkpt lat="43.23297052010626" lon="0.07601906212457625"><ele>317.0</ele><time>2026-05-06T10:40:09Z</time></trkpt><trkpt lat="43.232980853677496" lon="0.07591923133158844"><ele>317.0</ele><time>2026-05-06T10:40:15Z</time></trkpt><trkpt lat="43.2329784212936" lon="0.07581565076200475"><ele>317.0</ele><time>2026-05-06T10:40:21Z</time></trkpt><trkpt lat="43.23295949506281" lon="0.07573235889751508"><ele>317.0</ele><time>2026-05-06T10:40:26Z</time></trkpt><trkpt lat="43.23295529969877" lon="0.0756430597643731"><ele>317.0</ele><time>2026-05-06T10:40:31Z</time></trkpt><trkpt lat="43.2329656380876" lon="0.0755503744866078"><ele>317.0</ele><time>2026-05-06T10:40:37Z</time></trkpt><trkpt lat="43.23300230919029" lon="0.07546282924666996"><ele>317.0</ele><time>2026-05-06T10:40:43Z</time></trkpt><trkpt lat="43.233032082820614" lon="0.07538127665713357"><ele>317.0</ele><time>2026-05-06T10:40:48Z</time></trkpt><trkpt lat="43.233046188656246" lon="0.07528681285340562"><ele>317.0</ele><time>2026-05-06T10:40:54Z</time></trkpt><trkpt lat="43.233051002906855" lon="0.07519876494852278"><ele>317.0</ele><time>2026-05-06T10:40:59Z</time></trkpt><trkpt lat="43.23304913515577" lon="0.07509619263445977"><ele>317.0</ele><time>2026-05-06T10:41:05Z</time></trkpt><trkpt lat="43.233036587274306" lon="0.07499519801062626"><ele>317.0</ele><time>2026-05-06T10:41:10Z</time></trkpt><trkpt lat="43.233023865101615" lon="0.07490395767602116"><ele>317.0</ele><time>2026-05-06T10:41:15Z</time></trkpt><trkpt lat="43.23304050117178" lon="0.0748165495270996"><ele>317.0</ele><time>2026-05-06T10:41:20Z</time></trkpt><trkpt lat="43.23305683657127" lon="0.07473172481083648"><ele>317.0</ele><time>2026-05-06T10:41:25Z</time></trkpt><trkpt lat="43.23305380732188" lon="0.07464247942616979"><ele>317.0</ele><time>2026-05-06T10:41:30Z</time></trkpt><trkpt lat="43.23305424375694" lon="0.07454804041499946"><ele>317.0</ele><time>2026-05-06T10:41:36Z</time></trkpt><trkpt lat="43.23308494370109" lon="0.07446633945628232"><ele>317.0</ele><time>2026-05-06T10:41:42Z</time></trkpt><trkpt lat="43.23307735246207" lon="0.07436680457055499"><ele>317.0</ele><time>2026-05-06T10:41:49Z</time></trkpt><trkpt lat="43.233020671498174" lon="0.07432257147684491"><ele>317.0</ele><time>2026-05-06T10:41:53Z</time></trkpt><trkpt lat="43.23294977598057" lon="0.07431637804679235"><ele>317.0</ele><time>2026-05-06T10:41:58Z</time></trkpt><trkpt lat="43.23287886974099" lon="0.07430665047986923"><ele>317.0</ele><time>2026-05-06T10:42:03Z</time></trkpt><trkpt lat="43.232816820726484" lon="0.07426421658870812"><ele>317.0</ele><time>2026-05-06T10:42:08Z</time></trkpt><trkpt lat="43.232754248148304" lon="0.07423896261746882"><ele>317.0</ele><time>2026-05-06T10:42:16Z</time></trkpt><trkpt lat="43.23270985731391" lon="0.07430041119189769"><ele>317.0</ele><time>2026-05-06T10:42:38Z</time></trkpt><trkpt lat="43.23284216501824" lon="0.07428443759507991"><ele>317.0</ele><time>2026-05-06T10:49:28Z</time></trkpt><trkpt lat="43.23277654755876" lon="0.07427197975939273"><ele>317.0</ele><time>2026-05-06T10:52:41Z</time></trkpt><trkpt lat="43.23271053158031" lon="0.0742583875178389"><ele>317.0</ele><time>2026-05-06T10:53:07Z</time></trkpt><trkpt lat="43.23283000603305" lon="0.07421167470928719"><ele>317.0</ele><time>2026-05-06T10:53:33Z</time></trkpt><trkpt lat="43.23291384890688" lon="0.07423751684012285"><ele>317.0</ele><time>2026-05-06T10:53:36Z</time></trkpt><trkpt lat="43.23300290535029" lon="0.07425783536830273"><ele>317.0</ele><time>2026-05-06T10:53:39Z</time></trkpt><trkpt lat="43.23315383861677" lon="0.07427947994216862"><ele>316.83333333333337</ele><time>2026-05-06T10:53:44Z</time></trkpt><trkpt lat="43.2332284312158" lon="0.07433325407062137"><ele>316.6666666666667</ele><time>2026-05-06T10:53:47Z</time></trkpt><trkpt lat="43.23329217152238" lon="0.07436679021149713"><ele>316.5</ele><time>2026-05-06T10:53:49Z</time></trkpt><trkpt lat="43.23335767523196" lon="0.07439183569633132"><ele>316.3333333333333</ele><time>2026-05-06T10:53:51Z</time></trkpt><trkpt lat="43.23342039867486" lon="0.07443807293709437"><ele>316.16666666666663</ele><time>2026-05-06T10:53:53Z</time></trkpt><trkpt lat="43.23350858885877" lon="0.0744808377152789"><ele>316.0</ele><time>2026-05-06T10:53:55Z</time></trkpt><trkpt lat="43.23359465830075" lon="0.07456766417301298"><ele>316.0</ele><time>2026-05-06T10:53:58Z</time></trkpt><trkpt lat="43.233632968019556" lon="0.07466731744353884"><ele>316.0</ele><time>2026-05-06T10:54:00Z</time></trkpt><trkpt lat="43.2336412663296" lon="0.07476403489299625"><ele>316.0</ele><time>2026-05-06T10:54:02Z</time></trkpt><trkpt lat="43.2336401772272" lon="0.07485993437235852"><ele>316.0</ele><time>2026-05-06T10:54:04Z</time></trkpt><trkpt lat="43.23364419613371" lon="0.07496857341315097"><ele>316.0</ele><time>2026-05-06T10:54:06Z</time></trkpt><trkpt lat="43.23362314768601" lon="0.07512075528616743"><ele>316.0</ele><time>2026-05-06T10:54:08Z</time></trkpt><trkpt lat="43.23361640123336" lon="0.07523762739279277"><ele>316.2</ele><time>2026-05-06T10:54:10Z</time></trkpt><trkpt lat="43.23361820214083" lon="0.0753662224531282"><ele>316.40000000000003</ele><time>2026-05-06T10:54:12Z</time></trkpt><trkpt lat="43.2336048937033" lon="0.07549861319294573"><ele>316.6</ele><time>2026-05-06T10:54:14Z</time></trkpt><trkpt lat="43.23357636813086" lon="0.07562909479684458"><ele>316.8</ele><time>2026-05-06T10:54:16Z</time></trkpt><trkpt lat="43.23357136851109" lon="0.07573154383517156"><ele>317.0</ele><time>2026-05-06T10:54:18Z</time></trkpt><trkpt lat="43.23355794459997" lon="0.07585021976646843"><ele>317.0</ele><time>2026-05-06T10:54:20Z</time></trkpt><trkpt lat="43.23355404052471" lon="0.07599013263228929"><ele>317.0</ele><time>2026-05-06T10:54:22Z</time></trkpt><trkpt lat="43.23354791753439" lon="0.07611778684160077"><ele>317.0</ele><time>2026-05-06T10:54:24Z</time></trkpt><trkpt lat="43.23353177441825" lon="0.07623962483841969"><ele>317.0</ele><time>2026-05-06T10:54:26Z</time></trkpt><trkpt lat="43.23351942151414" lon="0.0763615382229274"><ele>317.0</ele><time>2026-05-06T10:54:28Z</time></trkpt><trkpt lat="43.23351797739479" lon="0.07647390486619539"><ele>317.0</ele><time>2026-05-06T10:54:30Z</time></trkpt><trkpt lat="43.23350832355298" lon="0.07657815806958602"><ele>317.0</ele><time>2026-05-06T10:54:32Z</time></trkpt><trkpt lat="43.233506699455205" lon="0.07669907200758556"><ele>317.0</ele><time>2026-05-06T10:54:34Z</time></trkpt><trkpt lat="43.233494013365934" lon="0.07684239632926944"><ele>317.0</ele><time>2026-05-06T10:54:36Z</time></trkpt><trkpt lat="43.2334868182368" lon="0.07699299400974399"><ele>317.0</ele><time>2026-05-06T10:54:38Z</time></trkpt><trkpt lat="43.23348300014765" lon="0.07711609834418606"><ele>316.83333333333337</ele><time>2026-05-06T10:54:40Z</time></trkpt><trkpt lat="43.233475781237765" lon="0.07724296761125696"><ele>316.6666666666667</ele><time>2026-05-06T10:54:42Z</time></trkpt><trkpt lat="43.233466096831464" lon="0.07736511747546997"><ele>316.5</ele><time>2026-05-06T10:54:44Z</time></trkpt><trkpt lat="43.233457188848426" lon="0.0775023513934953"><ele>316.3333333333333</ele><time>2026-05-06T10:54:46Z</time></trkpt><trkpt lat="43.233449827374464" lon="0.07761488634111423"><ele>316.16666666666663</ele><time>2026-05-06T10:54:48Z</time></trkpt><trkpt lat="43.23349894409789" lon="0.0777079382182951"><ele>316.0</ele><time>2026-05-06T10:54:50Z</time></trkpt><trkpt lat="43.23358721713011" lon="0.0777262380953029"><ele>315.6</ele><time>2026-05-06T10:54:52Z</time></trkpt><trkpt lat="43.23366248805668" lon="0.07773083373938232"><ele>315.20000000000005</ele><time>2026-05-06T10:54:54Z</time></trkpt><trkpt lat="43.233755561210444" lon="0.07774943433192084"><ele>314.79999999999995</ele><time>2026-05-06T10:54:56Z</time></trkpt><trkpt lat="43.23385353939474" lon="0.07776341003897663"><ele>314.4</ele><time>2026-05-06T10:54:58Z</time></trkpt><trkpt lat="43.23396037803229" lon="0.0777964866599427"><ele>314.0</ele><time>2026-05-06T10:55:00Z</time></trkpt><trkpt lat="43.23403535770992" lon="0.07778626220836113"><ele>314.0</ele><time>2026-05-06T10:55:02Z</time></trkpt><trkpt lat="43.23413326955421" lon="0.07781014040220639"><ele>314.0</ele><time>2026-05-06T10:55:04Z</time></trkpt><trkpt lat="43.23422615892847" lon="0.07780438060678936"><ele>314.0</ele><time>2026-05-06T10:55:06Z</time></trkpt><trkpt lat="43.234313796232335" lon="0.07780477965370738"><ele>314.0</ele><time>2026-05-06T10:55:08Z</time></trkpt><trkpt lat="43.23442300939238" lon="0.07780775413390882"><ele>314.0</ele><time>2026-05-06T10:55:10Z</time></trkpt><trkpt lat="43.23452218538001" lon="0.0778184231151333"><ele>314.0</ele><time>2026-05-06T10:55:12Z</time></trkpt><trkpt lat="43.23459805810496" lon="0.07784437861629637"><ele>314.0</ele><time>2026-05-06T10:55:14Z</time></trkpt><trkpt lat="43.234704119937014" lon="0.07786798354446749"><ele>314.0</ele><time>2026-05-06T10:55:16Z</time></trkpt><trkpt lat="43.23477164406485" lon="0.07787499370332127"><ele>314.0</ele><time>2026-05-06T10:55:17Z</time></trkpt><trkpt lat="43.23482070472258" lon="0.07793066840348199"><ele>314.0</ele><time>2026-05-06T10:55:18Z</time></trkpt><trkpt lat="43.234916619586365" lon="0.07793321623529204"><ele>314.0</ele><time>2026-05-06T10:55:20Z</time></trkpt><trkpt lat="43.234984278357324" lon="0.07787857382553157"><ele>314.0</ele><time>2026-05-06T10:55:21Z</time></trkpt><trkpt lat="43.2351013940327" lon="0.07789407053735434"><ele>314.0</ele><time>2026-05-06T10:55:23Z</time></trkpt><trkpt lat="43.23520843464114" lon="0.07790823412384583"><ele>314.0</ele><time>2026-05-06T10:55:25Z</time></trkpt><trkpt lat="43.23532223956851" lon="0.0779476885913508"><ele>314.0</ele><time>2026-05-06T10:55:27Z</time></trkpt><trkpt lat="43.235426585605495" lon="0.07799408314242051"><ele>314.0</ele><time>2026-05-06T10:55:29Z</time></trkpt><trkpt lat="43.235535841116686" lon="0.07800773605107052"><ele>314.0</ele><time>2026-05-06T10:55:31Z</time></trkpt><trkpt lat="43.23565069803351" lon="0.07802009795075938"><ele>314.0</ele><time>2026-05-06T10:55:33Z</time></trkpt><trkpt lat="43.235759851038615" lon="0.07804376954127151"><ele>314.0</ele><time>2026-05-06T10:55:35Z</time></trkpt><trkpt lat="43.23587373469025" lon="0.07804815651997907"><ele>314.0</ele><time>2026-05-06T10:55:37Z</time></trkpt><trkpt lat="43.23598858894588" lon="0.07805462473255777"><ele>313.59999999999997</ele><time>2026-05-06T10:55:39Z</time></trkpt><trkpt lat="43.23609393485305" lon="0.0780803139324297"><ele>313.2</ele><time>2026-05-06T10:55:41Z</time></trkpt><trkpt lat="43.23621618579567" lon="0.07807981869679897"><ele>312.79999999999995</ele><time>2026-05-06T10:55:43Z</time></trkpt><trkpt lat="43.23632832055392" lon="0.0780996241740605"><ele>312.4</ele><time>2026-05-06T10:55:45Z</time></trkpt><trkpt lat="43.23638504674759" lon="0.0780617813265261"><ele>312.0</ele><time>2026-05-06T10:55:46Z</time></trkpt><trkpt lat="43.236449620220526" lon="0.07807004099104377"><ele>311.8</ele><time>2026-05-06T10:55:47Z</time></trkpt><trkpt lat="43.236513873499156" lon="0.07807825969487152"><ele>311.6</ele><time>2026-05-06T10:55:48Z</time></trkpt><trkpt lat="43.23657791201521" lon="0.07808652358685923"><ele>311.40000000000003</ele><time>2026-05-06T10:55:49Z</time></trkpt><trkpt lat="43.23668988628292" lon="0.07810082045311426"><ele>311.2</ele><time>2026-05-06T10:55:51Z</time></trkpt><trkpt lat="43.23680402402322" lon="0.07811507077004982"><ele>311.0</ele><time>2026-05-06T10:55:53Z</time></trkpt><trkpt lat="43.23692623912437" lon="0.07813032956100652"><ele>311.0</ele><time>2026-05-06T10:55:55Z</time></trkpt><trkpt lat="43.2370437125736" lon="0.07814499635645873"><ele>311.0</ele><time>2026-05-06T10:55:57Z</time></trkpt><trkpt lat="43.23715249829678" lon="0.07815857846675339"><ele>311.0</ele><time>2026-05-06T10:55:59Z</time></trkpt><trkpt lat="43.23721978638898" lon="0.07816698727247619"><ele>311.0</ele><time>2026-05-06T10:56:00Z</time></trkpt><trkpt lat="43.237275160308975" lon="0.07821267307866919"><ele>311.0</ele><time>2026-05-06T10:56:01Z</time></trkpt><trkpt lat="43.237344350910696" lon="0.07822618112854936"><ele>311.0</ele><time>2026-05-06T10:56:02Z</time></trkpt><trkpt lat="43.237465859916014" lon="0.07819780026330905"><ele>311.6</ele><time>2026-05-06T10:56:04Z</time></trkpt><trkpt lat="43.23752945034653" lon="0.07820576299075942"><ele>312.20000000000005</ele><time>2026-05-06T10:56:05Z</time></trkpt><trkpt lat="43.237657392275175" lon="0.07825245910153163"><ele>312.79999999999995</ele><time>2026-05-06T10:56:07Z</time></trkpt><trkpt lat="43.2377742647455" lon="0.07828963772254814"><ele>313.4</ele><time>2026-05-06T10:56:09Z</time></trkpt><trkpt lat="43.2378491963889" lon="0.07828058307563153"><ele>314.0</ele><time>2026-05-06T10:56:10Z</time></trkpt><trkpt lat="43.237914695053625" lon="0.07828341288260354"><ele>314.0</ele><time>2026-05-06T10:56:11Z</time></trkpt><trkpt lat="43.2380216685241" lon="0.07832146784025398"><ele>314.0</ele><time>2026-05-06T10:56:13Z</time></trkpt><trkpt lat="43.23809486645604" lon="0.07832221295953729"><ele>314.0</ele><time>2026-05-06T10:56:14Z</time></trkpt><trkpt lat="43.23816157809658" lon="0.07833691983387199"><ele>314.0</ele><time>2026-05-06T10:56:15Z</time></trkpt><trkpt lat="43.238268998593156" lon="0.07836558949376767"><ele>314.0</ele><time>2026-05-06T10:56:17Z</time></trkpt><trkpt lat="43.2383825383585" lon="0.07839060011772839"><ele>314.0</ele><time>2026-05-06T10:56:19Z</time></trkpt><trkpt lat="43.23848636518853" lon="0.07842616954874547"><ele>314.0</ele><time>2026-05-06T10:56:21Z</time></trkpt><trkpt lat="43.238577374382906" lon="0.07848736665979782"><ele>314.0</ele><time>2026-05-06T10:56:23Z</time></trkpt><trkpt lat="43.23865812216853" lon="0.0784945041789292"><ele>314.0</ele><time>2026-05-06T10:56:25Z</time></trkpt><trkpt lat="43.23865106413752" lon="0.07858789587787918"><ele>314.0</ele><time>2026-05-06T10:56:30Z</time></trkpt><trkpt lat="43.23866132185348" lon="0.07867951832559945"><ele>314.0</ele><time>2026-05-06T10:56:33Z</time></trkpt><trkpt lat="43.23867131499364" lon="0.07879228380890775"><ele>314.0</ele><time>2026-05-06T10:56:35Z</time></trkpt><trkpt lat="43.23866890343632" lon="0.07890212171493312"><ele>314.0</ele><time>2026-05-06T10:56:37Z</time></trkpt><trkpt lat="43.238660945580854" lon="0.07903224138097363"><ele>314.0</ele><time>2026-05-06T10:56:39Z</time></trkpt><trkpt lat="43.238652812370205" lon="0.07915281133254695"><ele>314.0</ele><time>2026-05-06T10:56:41Z</time></trkpt><trkpt lat="43.238629292706555" lon="0.07924745449353177"><ele>314.0</ele><time>2026-05-06T10:56:43Z</time></trkpt><trkpt lat="43.238645260477234" lon="0.07938110900729015"><ele>314.0</ele><time>2026-05-06T10:56:45Z</time></trkpt><trkpt lat="43.238642942736526" lon="0.07951496815004672"><ele>313.2</ele><time>2026-05-06T10:56:47Z</time></trkpt><trkpt lat="43.23863531567156" lon="0.0796481104838738"><ele>312.4</ele><time>2026-05-06T10:56:49Z</time></trkpt><trkpt lat="43.23861901013212" lon="0.07977328173708388"><ele>311.6</ele><time>2026-05-06T10:56:51Z</time></trkpt><trkpt lat="43.238620988375125" lon="0.07991740859786857"><ele>310.8</ele><time>2026-05-06T10:56:53Z</time></trkpt><trkpt lat="43.23861529716629" lon="0.08003648396701929"><ele>310.0</ele><time>2026-05-06T10:56:55Z</time></trkpt><trkpt lat="43.23859297080816" lon="0.08016143520553944"><ele>309.8</ele><time>2026-05-06T10:56:57Z</time></trkpt><trkpt lat="43.238574543823866" lon="0.08028376650072899"><ele>309.6</ele><time>2026-05-06T10:56:59Z</time></trkpt><trkpt lat="43.23857002067528" lon="0.08042654526631694"><ele>309.4</ele><time>2026-05-06T10:57:01Z</time></trkpt><trkpt lat="43.2385581712565" lon="0.08055537545838343"><ele>309.2</ele><time>2026-05-06T10:57:03Z</time></trkpt><trkpt lat="43.2385211316028" lon="0.08067080069582075"><ele>309.0</ele><time>2026-05-06T10:57:05Z</time></trkpt><trkpt lat="43.23850783213998" lon="0.08078957381643173"><ele>309.0</ele><time>2026-05-06T10:57:07Z</time></trkpt><trkpt lat="43.23849231220785" lon="0.08090829043967857"><ele>309.0</ele><time>2026-05-06T10:57:09Z</time></trkpt><trkpt lat="43.2384564277454" lon="0.0810144501324337"><ele>309.0</ele><time>2026-05-06T10:57:11Z</time></trkpt><trkpt lat="43.23843969209789" lon="0.08112046216323411"><ele>309.0</ele><time>2026-05-06T10:57:13Z</time></trkpt><trkpt lat="43.2384301254329" lon="0.08121729660733107"><ele>309.0</ele><time>2026-05-06T10:57:15Z</time></trkpt><trkpt lat="43.23841404551706" lon="0.08131248784898569"><ele>309.0</ele><time>2026-05-06T10:57:17Z</time></trkpt><trkpt lat="43.23841432894019" lon="0.08142562231664623"><ele>309.00000000000006</ele><time>2026-05-06T10:57:20Z</time></trkpt><trkpt lat="43.238457430057544" lon="0.0815007577284267"><ele>309.0</ele><time>2026-05-06T10:57:31Z</time></trkpt><trkpt lat="43.23842529745115" lon="0.08158508085517487"><ele>309.0</ele><time>2026-05-06T10:57:34Z</time></trkpt><trkpt lat="43.23840016905556" lon="0.08166900638937707"><ele>309.0</ele><time>2026-05-06T10:57:36Z</time></trkpt><trkpt lat="43.238382297131686" lon="0.08177114264633799"><ele>309.0</ele><time>2026-05-06T10:57:38Z</time></trkpt><trkpt lat="43.23835684166758" lon="0.08187870718183371"><ele>309.00000000000006</ele><time>2026-05-06T10:57:40Z</time></trkpt><trkpt lat="43.23834260225933" lon="0.08198046745939433"><ele>309.0</ele><time>2026-05-06T10:57:42Z</time></trkpt><trkpt lat="43.238331056247844" lon="0.08210403932743864"><ele>309.0</ele><time>2026-05-06T10:57:44Z</time></trkpt><trkpt lat="43.23830016333357" lon="0.08222615516700713"><ele>309.0</ele><time>2026-05-06T10:57:46Z</time></trkpt><trkpt lat="43.23826595869035" lon="0.08231729699426275"><ele>309.0</ele><time>2026-05-06T10:57:48Z</time></trkpt><trkpt lat="43.23822300408176" lon="0.08242317774350454"><ele>309.0</ele><time>2026-05-06T10:57:50Z</time></trkpt><trkpt lat="43.23815302933667" lon="0.0825201544140155"><ele>309.0</ele><time>2026-05-06T10:57:52Z</time></trkpt><trkpt lat="43.23808044110991" lon="0.0826212248983583"><ele>309.0</ele><time>2026-05-06T10:57:54Z</time></trkpt><trkpt lat="43.23800265519417" lon="0.08271400898899009"><ele>309.0</ele><time>2026-05-06T10:57:56Z</time></trkpt><trkpt lat="43.237918241668275" lon="0.08278356860241354"><ele>309.0</ele><time>2026-05-06T10:57:58Z</time></trkpt><trkpt lat="43.23784457841462" lon="0.08286730550235837"><ele>309.0</ele><time>2026-05-06T10:58:00Z</time></trkpt><trkpt lat="43.23774878909911" lon="0.08291003388650976"><ele>309.0</ele><time>2026-05-06T10:58:02Z</time></trkpt><trkpt lat="43.23766502159414" lon="0.0829690900065117"><ele>309.0</ele><time>2026-05-06T10:58:04Z</time></trkpt><trkpt lat="43.23758615755581" lon="0.0830122229239119"><ele>309.0</ele><time>2026-05-06T10:58:06Z</time></trkpt><trkpt lat="43.23748418168067" lon="0.08306683613594858"><ele>309.0</ele><time>2026-05-06T10:58:08Z</time></trkpt><trkpt lat="43.23739544596271" lon="0.08312730046952116"><ele>309.0</ele><time>2026-05-06T10:58:10Z</time></trkpt><trkpt lat="43.23729242036344" lon="0.08317848294276207"><ele>309.0</ele><time>2026-05-06T10:58:12Z</time></trkpt><trkpt lat="43.237196508739515" lon="0.08323623921058906"><ele>309.2</ele><time>2026-05-06T10:58:14Z</time></trkpt><trkpt lat="43.23710245630114" lon="0.08330867400893845"><ele>309.4</ele><time>2026-05-06T10:58:16Z</time></trkpt><trkpt lat="43.237006230848465" lon="0.08336163339053554"><ele>309.6</ele><time>2026-05-06T10:58:18Z</time></trkpt><trkpt lat="43.23691577926972" lon="0.08341300976321783"><ele>309.8</ele><time>2026-05-06T10:58:20Z</time></trkpt><trkpt lat="43.23684863031724" lon="0.08345424599066559"><ele>310.0</ele><time>2026-05-06T10:58:22Z</time></trkpt><trkpt lat="43.23677322739273" lon="0.08350672761867181"><ele>310.0</ele><time>2026-05-06T10:58:25Z</time></trkpt><trkpt lat="43.236531169433135" lon="0.08359719571181645"><ele>310.0</ele><time>2026-05-06T10:58:28Z</time></trkpt><trkpt lat="43.23643235418527" lon="0.08362917371147349"><ele>310.0</ele><time>2026-05-06T10:58:30Z</time></trkpt><trkpt lat="43.236331504218654" lon="0.08367848360609159"><ele>310.2</ele><time>2026-05-06T10:58:32Z</time></trkpt><trkpt lat="43.23623441075739" lon="0.08372339649492813"><ele>310.4</ele><time>2026-05-06T10:58:34Z</time></trkpt><trkpt lat="43.23613848711568" lon="0.08374925052994053"><ele>310.6</ele><time>2026-05-06T10:58:36Z</time></trkpt><trkpt lat="43.23604477063291" lon="0.08369192395055813"><ele>310.8</ele><time>2026-05-06T10:58:38Z</time></trkpt><trkpt lat="43.23594683448238" lon="0.08369678023423739"><ele>311.0</ele><time>2026-05-06T10:58:40Z</time></trkpt><trkpt lat="43.23592385501204" lon="0.08384644934723717"><ele>311.0</ele><time>2026-05-06T10:58:41Z</time></trkpt><trkpt lat="43.23584077096139" lon="0.0837863830559445"><ele>311.0</ele><time>2026-05-06T10:58:42Z</time></trkpt><trkpt lat="43.23579273868131" lon="0.08397966411791057"><ele>311.0</ele><time>2026-05-06T10:58:44Z</time></trkpt><trkpt lat="43.23571844998284" lon="0.08409405552759049"><ele>311.0</ele><time>2026-05-06T10:58:46Z</time></trkpt><trkpt lat="43.23564250450087" lon="0.08422915338110289"><ele>311.6</ele><time>2026-05-06T10:58:48Z</time></trkpt><trkpt lat="43.23554985323215" lon="0.08436957936401808"><ele>312.20000000000005</ele><time>2026-05-06T10:58:50Z</time></trkpt><trkpt lat="43.23548933124048" lon="0.08447129409347778"><ele>312.79999999999995</ele><time>2026-05-06T10:58:52Z</time></trkpt><trkpt lat="43.235428922657974" lon="0.08450273906280394"><ele>313.4</ele><time>2026-05-06T10:58:55Z</time></trkpt><trkpt lat="43.23538415490258" lon="0.0845679214719285"><ele>314.0</ele><time>2026-05-06T10:58:57Z</time></trkpt><trkpt lat="43.23530802397219" lon="0.08466360971762918"><ele>314.0</ele><time>2026-05-06T10:58:59Z</time></trkpt><trkpt lat="43.2352414674824" lon="0.0847474855252718"><ele>314.0</ele><time>2026-05-06T10:59:01Z</time></trkpt><trkpt lat="43.23518471350606" lon="0.0848442576795654"><ele>314.0</ele><time>2026-05-06T10:59:03Z</time></trkpt><trkpt lat="43.23510872106276" lon="0.08487431904421655"><ele>314.0</ele><time>2026-05-06T10:59:05Z</time></trkpt><trkpt lat="43.23508278540699" lon="0.08499653789991131"><ele>314.0</ele><time>2026-05-06T10:59:07Z</time></trkpt><trkpt lat="43.23511821926558" lon="0.08510832175363828"><ele>314.0</ele><time>2026-05-06T10:59:09Z</time></trkpt><trkpt lat="43.23515611454403" lon="0.08522780526640185"><ele>313.83333333333337</ele><time>2026-05-06T10:59:11Z</time></trkpt><trkpt lat="43.235201143897605" lon="0.08529184307444107"><ele>313.6666666666667</ele><time>2026-05-06T10:59:12Z</time></trkpt><trkpt lat="43.23525727734879" lon="0.08540814570501619"><ele>313.5</ele><time>2026-05-06T10:59:14Z</time></trkpt><trkpt lat="43.23531049778663" lon="0.08554465647022035"><ele>313.3333333333333</ele><time>2026-05-06T10:59:16Z</time></trkpt><trkpt lat="43.23535047783336" lon="0.08566967445463548"><ele>313.16666666666663</ele><time>2026-05-06T10:59:18Z</time></trkpt><trkpt lat="43.23536661385772" lon="0.08575350918432204"><ele>313.0</ele><time>2026-05-06T10:59:20Z</time></trkpt><trkpt lat="43.235432556809194" lon="0.08581513335883253"><ele>312.8</ele><time>2026-05-06T10:59:22Z</time></trkpt><trkpt lat="43.235497073953134" lon="0.0859078946488685"><ele>312.6</ele><time>2026-05-06T10:59:24Z</time></trkpt><trkpt lat="43.23556994253559" lon="0.08599421086955975"><ele>312.4</ele><time>2026-05-06T10:59:26Z</time></trkpt><trkpt lat="43.23564626735941" lon="0.08609021936390933"><ele>312.2</ele><time>2026-05-06T10:59:28Z</time></trkpt><trkpt lat="43.2357253683395" lon="0.08622543748058129"><ele>312.0</ele><time>2026-05-06T10:59:30Z</time></trkpt><trkpt lat="43.235804354323506" lon="0.08632462816010568"><ele>311.8</ele><time>2026-05-06T10:59:32Z</time></trkpt><trkpt lat="43.23585698969826" lon="0.08640436972526128"><ele>311.6</ele><time>2026-05-06T10:59:33Z</time></trkpt><trkpt lat="43.23595041311266" lon="0.08648051060561876"><ele>311.40000000000003</ele><time>2026-05-06T10:59:35Z</time></trkpt><trkpt lat="43.236024988013156" lon="0.08659647369672348"><ele>311.2</ele><time>2026-05-06T10:59:38Z</time></trkpt><trkpt lat="43.2360981711225" lon="0.08671399325490149"><ele>311.0</ele><time>2026-05-06T10:59:41Z</time></trkpt><trkpt lat="43.2361403947374" lon="0.08683951745048284"><ele>310.83333333333337</ele><time>2026-05-06T10:59:43Z</time></trkpt><trkpt lat="43.23614591406768" lon="0.08699079261278707"><ele>310.6666666666667</ele><time>2026-05-06T10:59:45Z</time></trkpt><trkpt lat="43.23608053387697" lon="0.08701803393857661"><ele>310.5</ele><time>2026-05-06T10:59:46Z</time></trkpt><trkpt lat="43.23599376432114" lon="0.08703731722542464"><ele>310.3333333333333</ele><time>2026-05-06T10:59:48Z</time></trkpt><trkpt lat="43.23591772062961" lon="0.08709021788355487"><ele>310.16666666666663</ele><time>2026-05-06T10:59:50Z</time></trkpt><trkpt lat="43.23584791034744" lon="0.08715940947750056"><ele>310.0</ele><time>2026-05-06T10:59:52Z</time></trkpt><trkpt lat="43.23576112024294" lon="0.08720103567249497"><ele>310.0</ele><time>2026-05-06T10:59:54Z</time></trkpt><trkpt lat="43.23568194343837" lon="0.08725248220757388"><ele>310.0</ele><time>2026-05-06T10:59:56Z</time></trkpt><trkpt lat="43.23560101623382" lon="0.08731970017113141"><ele>310.0</ele><time>2026-05-06T10:59:58Z</time></trkpt><trkpt lat="43.23553258011528" lon="0.08740685385429592"><ele>310.0</ele><time>2026-05-06T11:00:00Z</time></trkpt><trkpt lat="43.235454179104266" lon="0.08743771352483948"><ele>310.0</ele><time>2026-05-06T11:00:02Z</time></trkpt><trkpt lat="43.23536579033607" lon="0.08749407780461411"><ele>310.3333333333333</ele><time>2026-05-06T11:00:04Z</time></trkpt><trkpt lat="43.23529214132475" lon="0.0875661736577353"><ele>310.66666666666663</ele><time>2026-05-06T11:00:06Z</time></trkpt><trkpt lat="43.23519683615398" lon="0.08763923963611682"><ele>311.0</ele><time>2026-05-06T11:00:08Z</time></trkpt><trkpt lat="43.23514251147192" lon="0.08768671748606925"><ele>311.3333333333333</ele><time>2026-05-06T11:00:10Z</time></trkpt><trkpt lat="43.23507594346439" lon="0.08772902585281928"><ele>311.6666666666667</ele><time>2026-05-06T11:00:12Z</time></trkpt><trkpt lat="43.23499722018919" lon="0.0877808243864916"><ele>312.0</ele><time>2026-05-06T11:00:14Z</time></trkpt><trkpt lat="43.234909759998885" lon="0.0878279989365258"><ele>312.0</ele><time>2026-05-06T11:00:16Z</time></trkpt><trkpt lat="43.234836464721134" lon="0.08789538992894046"><ele>312.0</ele><time>2026-05-06T11:00:18Z</time></trkpt><trkpt lat="43.23474078096172" lon="0.08795456485890263"><ele>312.0</ele><time>2026-05-06T11:00:20Z</time></trkpt><trkpt lat="43.23465279630046" lon="0.08802498423618944"><ele>312.0</ele><time>2026-05-06T11:00:22Z</time></trkpt><trkpt lat="43.234582505830524" lon="0.08810340590698953"><ele>312.0</ele><time>2026-05-06T11:00:24Z</time></trkpt><trkpt lat="43.234499390133685" lon="0.08816947628669747"><ele>312.0</ele><time>2026-05-06T11:00:26Z</time></trkpt><trkpt lat="43.23440528525202" lon="0.0882092711050686"><ele>312.0</ele><time>2026-05-06T11:00:28Z</time></trkpt><trkpt lat="43.23432046274573" lon="0.0882867982739718"><ele>312.0</ele><time>2026-05-06T11:00:30Z</time></trkpt><trkpt lat="43.23423029017668" lon="0.08837103260236796"><ele>312.0</ele><time>2026-05-06T11:00:32Z</time></trkpt><trkpt lat="43.23413496718151" lon="0.08843359904707941"><ele>312.0</ele><time>2026-05-06T11:00:34Z</time></trkpt><trkpt lat="43.23405254322796" lon="0.08849847553685126"><ele>312.0</ele><time>2026-05-06T11:00:36Z</time></trkpt><trkpt lat="43.23398301470531" lon="0.08853787433870737"><ele>312.0</ele><time>2026-05-06T11:00:38Z</time></trkpt><trkpt lat="43.23391650002396" lon="0.08858537773381375"><ele>312.0</ele><time>2026-05-06T11:00:40Z</time></trkpt><trkpt lat="43.23368724573315" lon="0.08866344859227214"><ele>312.0</ele><time>2026-05-06T11:00:42Z</time></trkpt><trkpt lat="43.233584233626054" lon="0.08863640755172118"><ele>312.0</ele><time>2026-05-06T11:00:44Z</time></trkpt><trkpt lat="43.2334891619601" lon="0.08859638161493696"><ele>312.0</ele><time>2026-05-06T11:00:46Z</time></trkpt><trkpt lat="43.23339639320292" lon="0.08855231805770204"><ele>312.0</ele><time>2026-05-06T11:00:48Z</time></trkpt><trkpt lat="43.233307813001566" lon="0.0885201374870361"><ele>312.0</ele><time>2026-05-06T11:00:50Z</time></trkpt><trkpt lat="43.23321295909147" lon="0.08849368586308522"><ele>312.0</ele><time>2026-05-06T11:00:52Z</time></trkpt><trkpt lat="43.23311122977487" lon="0.0884853036407724"><ele>312.25</ele><time>2026-05-06T11:00:54Z</time></trkpt><trkpt lat="43.23300692985034" lon="0.08850970249838858"><ele>312.5</ele><time>2026-05-06T11:00:56Z</time></trkpt><trkpt lat="43.23289245118428" lon="0.08857024527649106"><ele>312.75</ele><time>2026-05-06T11:00:58Z</time></trkpt><trkpt lat="43.23278036755088" lon="0.08866256700628856"><ele>313.0</ele><time>2026-05-06T11:01:00Z</time></trkpt><trkpt lat="43.232671347397186" lon="0.08870516028733404"><ele>313.0</ele><time>2026-05-06T11:01:02Z</time></trkpt><trkpt lat="43.23260317768318" lon="0.08872653447196756"><ele>313.0</ele><time>2026-05-06T11:01:03Z</time></trkpt><trkpt lat="43.23248772851645" lon="0.08876433113976002"><ele>313.0</ele><time>2026-05-06T11:01:05Z</time></trkpt><trkpt lat="43.23242147638658" lon="0.08877770645973819"><ele>313.0</ele><time>2026-05-06T11:01:06Z</time></trkpt><trkpt lat="43.2323554356145" lon="0.08878718597282408"><ele>313.0</ele><time>2026-05-06T11:01:07Z</time></trkpt><trkpt lat="43.23228856892245" lon="0.08879891434219903"><ele>313.0</ele><time>2026-05-06T11:01:08Z</time></trkpt><trkpt lat="43.23221422678022" lon="0.08882979756625144"><ele>313.3333333333333</ele><time>2026-05-06T11:01:10Z</time></trkpt><trkpt lat="43.23216478725724" lon="0.08888987531233154"><ele>313.66666666666663</ele><time>2026-05-06T11:01:13Z</time></trkpt><trkpt lat="43.23209096900609" lon="0.08889777459369656"><ele>314.0</ele><time>2026-05-06T11:01:15Z</time></trkpt><trkpt lat="43.232025136276256" lon="0.08900965887721032"><ele>314.3333333333333</ele><time>2026-05-06T11:01:18Z</time></trkpt><trkpt lat="43.23196119838215" lon="0.08902906769129372"><ele>314.6666666666667</ele><time>2026-05-06T11:01:20Z</time></trkpt><trkpt lat="43.23186502141834" lon="0.08901524817799844"><ele>315.0</ele><time>2026-05-06T11:01:22Z</time></trkpt><trkpt lat="43.23180052007349" lon="0.0890297517611359"><ele>315.0</ele><time>2026-05-06T11:01:24Z</time></trkpt><trkpt lat="43.23172612089759" lon="0.08905479307186148"><ele>315.0</ele><time>2026-05-06T11:01:26Z</time></trkpt><trkpt lat="43.23165273696384" lon="0.08907228082132142"><ele>315.0</ele><time>2026-05-06T11:01:28Z</time></trkpt><trkpt lat="43.23153678281751" lon="0.08909775312634237"><ele>315.0</ele><time>2026-05-06T11:01:31Z</time></trkpt><trkpt lat="43.23146871404943" lon="0.08912534554679545"><ele>315.0</ele><time>2026-05-06T11:01:33Z</time></trkpt><trkpt lat="43.23138596234276" lon="0.08911633093194352"><ele>315.0</ele><time>2026-05-06T11:01:35Z</time></trkpt><trkpt lat="43.23130152087103" lon="0.08914660516906688"><ele>314.8333333333333</ele><time>2026-05-06T11:01:37Z</time></trkpt><trkpt lat="43.23123426866346" lon="0.08915077373296768"><ele>314.6666666666667</ele><time>2026-05-06T11:01:39Z</time></trkpt><trkpt lat="43.231147389442675" lon="0.0891661528477738"><ele>314.5</ele><time>2026-05-06T11:01:41Z</time></trkpt><trkpt lat="43.23108427733359" lon="0.08919766390741665"><ele>314.33333333333337</ele><time>2026-05-06T11:01:44Z</time></trkpt><trkpt lat="43.23101861973827" lon="0.08921014985748667"><ele>314.1666666666667</ele><time>2026-05-06T11:01:46Z</time></trkpt><trkpt lat="43.23093703297576" lon="0.089233944134965"><ele>314.0</ele><time>2026-05-06T11:01:47Z</time></trkpt><trkpt lat="43.23085220955438" lon="0.089248494516672"><ele>314.0</ele><time>2026-05-06T11:01:48Z</time></trkpt><trkpt lat="43.23076664336943" lon="0.0892768991812955"><ele>314.0</ele><time>2026-05-06T11:01:49Z</time></trkpt><trkpt lat="43.23068578650351" lon="0.0892988968813522"><ele>314.0</ele><time>2026-05-06T11:01:50Z</time></trkpt><trkpt lat="43.23060131166919" lon="0.08933585403827723"><ele>314.0</ele><time>2026-05-06T11:01:51Z</time></trkpt><trkpt lat="43.23050720886503" lon="0.08938420312469274"><ele>314.0</ele><time>2026-05-06T11:01:52Z</time></trkpt><trkpt lat="43.23043743983651" lon="0.0894136143022945"><ele>314.0</ele><time>2026-05-06T11:01:53Z</time></trkpt><trkpt lat="43.230361471821794" lon="0.08946176911735268"><ele>314.25</ele><time>2026-05-06T11:01:53.999Z</time></trkpt><trkpt lat="43.23018948425936" lon="0.0895493083161261"><ele>314.5</ele><time>2026-05-06T11:01:55.999Z</time></trkpt><trkpt lat="43.23008664385473" lon="0.08960831469254492"><ele>314.75</ele><time>2026-05-06T11:01:57.999Z</time></trkpt><trkpt lat="43.2299968115087" lon="0.08965012063521736"><ele>315.0</ele><time>2026-05-06T11:01:59.999Z</time></trkpt><trkpt lat="43.22994295187286" lon="0.08969541527330147"><ele>315.0</ele><time>2026-05-06T11:02:02Z</time></trkpt><trkpt lat="43.2298911157665" lon="0.0897602330425759"><ele>315.0</ele><time>2026-05-06T11:02:04Z</time></trkpt><trkpt lat="43.229842442072105" lon="0.08982990958559259"><ele>315.0</ele><time>2026-05-06T11:02:05Z</time></trkpt><trkpt lat="43.229757482945864" lon="0.08992138548710474"><ele>315.0</ele><time>2026-05-06T11:02:08Z</time></trkpt><trkpt lat="43.229688519329954" lon="0.08997794885441968"><ele>315.0</ele><time>2026-05-06T11:02:10Z</time></trkpt><trkpt lat="43.22963084838967" lon="0.09001512950498566"><ele>315.0</ele><time>2026-05-06T11:02:11Z</time></trkpt><trkpt lat="43.22956963918139" lon="0.09009726104513112"><ele>315.4</ele><time>2026-05-06T11:02:13Z</time></trkpt><trkpt lat="43.22948700834169" lon="0.09013965719072313"><ele>315.8</ele><time>2026-05-06T11:02:15Z</time></trkpt><trkpt lat="43.22937217557527" lon="0.09016254358051586"><ele>316.2</ele><time>2026-05-06T11:02:17Z</time></trkpt><trkpt lat="43.22929899912797" lon="0.09020524049152978"><ele>316.6</ele><time>2026-05-06T11:02:19Z</time></trkpt><trkpt lat="43.229200437350855" lon="0.0902677285951123"><ele>317.0</ele><time>2026-05-06T11:02:23Z</time></trkpt><trkpt lat="43.22909247675527" lon="0.09031870281599771"><ele>317.0</ele><time>2026-05-06T11:02:25Z</time></trkpt><trkpt lat="43.22904560498474" lon="0.09042050434554025"><ele>317.0</ele><time>2026-05-06T11:02:27Z</time></trkpt><trkpt lat="43.22864866655807" lon="0.09071314190573282"><ele>317.0</ele><time>2026-05-06T11:02:29Z</time></trkpt><trkpt lat="43.22865423978233" lon="0.09080291644291913"><ele>317.0</ele><time>2026-05-06T11:02:30Z</time></trkpt><trkpt lat="43.22867436960466" lon="0.09088972210051348"><ele>317.0</ele><time>2026-05-06T11:02:31Z</time></trkpt><trkpt lat="43.2286965304072" lon="0.0909708434152563"><ele>317.0</ele><time>2026-05-06T11:02:32Z</time></trkpt><trkpt lat="43.22875115395398" lon="0.09111887818966569"><ele>317.0</ele><time>2026-05-06T11:02:34Z</time></trkpt><trkpt lat="43.22878230406422" lon="0.09119552211493252"><ele>317.0</ele><time>2026-05-06T11:02:35Z</time></trkpt><trkpt lat="43.22883511004344" lon="0.09134523444966548"><ele>317.0</ele><time>2026-05-06T11:02:37Z</time></trkpt><trkpt lat="43.22886366582517" lon="0.09148746427314866"><ele>317.0</ele><time>2026-05-06T11:02:39Z</time></trkpt><trkpt lat="43.22886560348905" lon="0.09162843659887997"><ele>317.0</ele><time>2026-05-06T11:02:41Z</time></trkpt><trkpt lat="43.2288528879214" lon="0.09176147225987415"><ele>317.0</ele><time>2026-05-06T11:02:43Z</time></trkpt><trkpt lat="43.22884229275209" lon="0.0918879548836311"><ele>317.0</ele><time>2026-05-06T11:02:45Z</time></trkpt><trkpt lat="43.22883334455461" lon="0.09199902528080742"><ele>317.0</ele><time>2026-05-06T11:02:47Z</time></trkpt><trkpt lat="43.228824492511194" lon="0.09211549972656874"><ele>317.0</ele><time>2026-05-06T11:02:49Z</time></trkpt><trkpt lat="43.22882894903831" lon="0.09220172976126062"><ele>317.0</ele><time>2026-05-06T11:02:50Z</time></trkpt><trkpt lat="43.228803897140246" lon="0.0923365360126513"><ele>317.0</ele><time>2026-05-06T11:02:54Z</time></trkpt><trkpt lat="43.22877275896321" lon="0.09242635920996829"><ele>317.0</ele><time>2026-05-06T11:02:56Z</time></trkpt><trkpt lat="43.22878180121284" lon="0.0925339120115708"><ele>317.0</ele><time>2026-05-06T11:02:58Z</time></trkpt><trkpt lat="43.22875536974427" lon="0.0926188016336977"><ele>317.0</ele><time>2026-05-06T11:03:00Z</time></trkpt><trkpt lat="43.22877405117959" lon="0.09272320865889783"><ele>317.0</ele><time>2026-05-06T11:03:02Z</time></trkpt><trkpt lat="43.22878148312291" lon="0.09281565616700631"><ele>317.0</ele><time>2026-05-06T11:03:04Z</time></trkpt><trkpt lat="43.22876969169665" lon="0.09290379519003378"><ele>317.0</ele><time>2026-05-06T11:03:05Z</time></trkpt><trkpt lat="43.228688155338425" lon="0.0929240485136503"><ele>317.0</ele><time>2026-05-06T11:03:07Z</time></trkpt><trkpt lat="43.22863145093437" lon="0.09296479733228505"><ele>317.0</ele><time>2026-05-06T11:03:09Z</time></trkpt><trkpt lat="43.22856707780507" lon="0.09300246628218412"><ele>317.0</ele><time>2026-05-06T11:03:11Z</time></trkpt><trkpt lat="43.22849140713625" lon="0.09305972965444816"><ele>317.0</ele><time>2026-05-06T11:03:13Z</time></trkpt><trkpt lat="43.22839575538301" lon="0.0931111775579466"><ele>317.0</ele><time>2026-05-06T11:03:15Z</time></trkpt><trkpt lat="43.22831986580969" lon="0.09315767516959085"><ele>317.0</ele><time>2026-05-06T11:03:18Z</time></trkpt><trkpt lat="43.22823465190945" lon="0.09320774079949135"><ele>317.0</ele><time>2026-05-06T11:03:21Z</time></trkpt><trkpt lat="43.22816299028758" lon="0.09323440928053861"><ele>317.0</ele><time>2026-05-06T11:03:23Z</time></trkpt><trkpt lat="43.22785376447979" lon="0.09333658796739819"><ele>317.4</ele><time>2026-05-06T11:03:26Z</time></trkpt><trkpt lat="43.22776758202469" lon="0.09337264748285284"><ele>317.79999999999995</ele><time>2026-05-06T11:03:28Z</time></trkpt><trkpt lat="43.227682144456416" lon="0.0934062348576597"><ele>318.2</ele><time>2026-05-06T11:03:30Z</time></trkpt><trkpt lat="43.2275950004322" lon="0.09344170556031867"><ele>318.59999999999997</ele><time>2026-05-06T11:03:32Z</time></trkpt><trkpt lat="43.22750104811785" lon="0.09347831844796221"><ele>319.0</ele><time>2026-05-06T11:03:34Z</time></trkpt><trkpt lat="43.227404568862234" lon="0.09351235103301649"><ele>319.0</ele><time>2026-05-06T11:03:36Z</time></trkpt><trkpt lat="43.22730895025891" lon="0.0935451490803284"><ele>319.0</ele><time>2026-05-06T11:03:38Z</time></trkpt><trkpt lat="43.227212787041" lon="0.0935815778273573"><ele>319.0</ele><time>2026-05-06T11:03:40Z</time></trkpt><trkpt lat="43.22711760479549" lon="0.09362096199667323"><ele>319.0</ele><time>2026-05-06T11:03:42Z</time></trkpt><trkpt lat="43.22701962674418" lon="0.09366237344549806"><ele>319.0</ele><time>2026-05-06T11:03:44Z</time></trkpt><trkpt lat="43.22692940575722" lon="0.09370314428448248"><ele>319.0</ele><time>2026-05-06T11:03:46Z</time></trkpt><trkpt lat="43.22683607314384" lon="0.0937465074286516"><ele>319.0</ele><time>2026-05-06T11:03:48Z</time></trkpt><trkpt lat="43.226765730532875" lon="0.09376628861772475"><ele>319.0</ele><time>2026-05-06T11:03:51Z</time></trkpt><trkpt lat="43.22658016153162" lon="0.09381059277267673"><ele>319.0</ele><time>2026-05-06T11:03:53Z</time></trkpt><trkpt lat="43.22647857085879" lon="0.093828421271892"><ele>319.2</ele><time>2026-05-06T11:03:55Z</time></trkpt><trkpt lat="43.22637634688211" lon="0.09383777635817757"><ele>319.4</ele><time>2026-05-06T11:03:56.999Z</time></trkpt><trkpt lat="43.22627571690377" lon="0.0938406181468393"><ele>319.6</ele><time>2026-05-06T11:03:58.999Z</time></trkpt><trkpt lat="43.22617785830392" lon="0.09384380082038624"><ele>319.8</ele><time>2026-05-06T11:04:00.999Z</time></trkpt><trkpt lat="43.22607594099808" lon="0.09385325434558153"><ele>320.0</ele><time>2026-05-06T11:04:02.999Z</time></trkpt><trkpt lat="43.22597564131995" lon="0.09386706827096532"><ele>320.0</ele><time>2026-05-06T11:04:04.999Z</time></trkpt><trkpt lat="43.22587023668758" lon="0.09387711467958733"><ele>320.0</ele><time>2026-05-06T11:04:07Z</time></trkpt><trkpt lat="43.22576464759585" lon="0.0938859675038895"><ele>320.0</ele><time>2026-05-06T11:04:09Z</time></trkpt><trkpt lat="43.22565692397401" lon="0.09389521557919207"><ele>320.0</ele><time>2026-05-06T11:04:11Z</time></trkpt><trkpt lat="43.225593635162916" lon="0.09392737563219641"><ele>320.0</ele><time>2026-05-06T11:04:12Z</time></trkpt><trkpt lat="43.22549587225128" lon="0.09391170293373086"><ele>320.1666666666667</ele><time>2026-05-06T11:04:14Z</time></trkpt><trkpt lat="43.2253869731958" lon="0.09393771894756295"><ele>320.33333333333337</ele><time>2026-05-06T11:04:16Z</time></trkpt><trkpt lat="43.22530219177109" lon="0.09396167750003487"><ele>320.5</ele><time>2026-05-06T11:04:20Z</time></trkpt><trkpt lat="43.22523650653252" lon="0.09394673232481843"><ele>320.6666666666667</ele><time>2026-05-06T11:04:22Z</time></trkpt><trkpt lat="43.22514656911804" lon="0.0939697214766688"><ele>320.8333333333333</ele><time>2026-05-06T11:04:25Z</time></trkpt><trkpt lat="43.225076623106446" lon="0.09398608428877726"><ele>321.0</ele><time>2026-05-06T11:04:27Z</time></trkpt><trkpt lat="43.22489123712092" lon="0.09403213380424749"><ele>321.0</ele><time>2026-05-06T11:04:30Z</time></trkpt><trkpt lat="43.224810323277595" lon="0.0940339341316498"><ele>321.0</ele><time>2026-05-06T11:04:31Z</time></trkpt><trkpt lat="43.224732608570626" lon="0.09403048565843744"><ele>321.0</ele><time>2026-05-06T11:04:32Z</time></trkpt><trkpt lat="43.22466248475134" lon="0.09403737968676469"><ele>321.0</ele><time>2026-05-06T11:04:33Z</time></trkpt><trkpt lat="43.22459482674703" lon="0.0940539950551132"><ele>321.0</ele><time>2026-05-06T11:04:34Z</time></trkpt><trkpt lat="43.22452786680907" lon="0.09406399030797381"><ele>321.0</ele><time>2026-05-06T11:04:35Z</time></trkpt><trkpt lat="43.22438432824113" lon="0.094090649364661"><ele>321.3333333333333</ele><time>2026-05-06T11:04:37Z</time></trkpt><trkpt lat="43.224292360836934" lon="0.09410362591601258"><ele>321.6666666666667</ele><time>2026-05-06T11:04:38Z</time></trkpt><trkpt lat="43.22422563139483" lon="0.09411661640563783"><ele>322.0</ele><time>2026-05-06T11:04:39Z</time></trkpt><trkpt lat="43.22416191787538" lon="0.09413833337633347"><ele>322.33333333333337</ele><time>2026-05-06T11:04:40Z</time></trkpt><trkpt lat="43.224068680878666" lon="0.09416430077377003"><ele>322.6666666666667</ele><time>2026-05-06T11:04:42Z</time></trkpt><trkpt lat="43.22396315053784" lon="0.09415756378504705"><ele>323.0</ele><time>2026-05-06T11:04:44Z</time></trkpt><trkpt lat="43.22386981158675" lon="0.09412768101198249"><ele>323.0</ele><time>2026-05-06T11:04:46Z</time></trkpt><trkpt lat="43.22381735207651" lon="0.09419675052973983"><ele>323.0</ele><time>2026-05-06T11:04:48Z</time></trkpt><trkpt lat="43.22380290522215" lon="0.09428957523246088"><ele>323.0</ele><time>2026-05-06T11:04:49Z</time></trkpt><trkpt lat="43.22371332804454" lon="0.09428644295694222"><ele>323.0</ele><time>2026-05-06T11:04:50Z</time></trkpt><trkpt lat="43.223740362026085" lon="0.09444559568551435"><ele>323.0</ele><time>2026-05-06T11:04:52Z</time></trkpt><trkpt lat="43.22381899527997" lon="0.09457450334819914"><ele>323.0</ele><time>2026-05-06T11:04:54Z</time></trkpt><trkpt lat="43.223877845765166" lon="0.0946996257346045"><ele>323.0</ele><time>2026-05-06T11:04:56Z</time></trkpt><trkpt lat="43.223919723738156" lon="0.09482718169068052"><ele>323.0</ele><time>2026-05-06T11:04:58Z</time></trkpt><trkpt lat="43.223934547017585" lon="0.09496210200848929"><ele>323.0</ele><time>2026-05-06T11:05:00Z</time></trkpt><trkpt lat="43.22393398375546" lon="0.09505229530484234"><ele>323.0</ele><time>2026-05-06T11:05:01Z</time></trkpt><trkpt lat="43.22394163403152" lon="0.09514421269550777"><ele>323.0</ele><time>2026-05-06T11:05:02Z</time></trkpt><trkpt lat="43.22394129883772" lon="0.09532418261420986"><ele>323.1666666666667</ele><time>2026-05-06T11:05:04Z</time></trkpt><trkpt lat="43.22394858684764" lon="0.09542776091589568"><ele>323.33333333333337</ele><time>2026-05-06T11:05:05Z</time></trkpt><trkpt lat="43.22394919266325" lon="0.09554867248888346"><ele>323.5</ele><time>2026-05-06T11:05:06Z</time></trkpt><trkpt lat="43.22395384310181" lon="0.0956669835814283"><ele>323.6666666666667</ele><time>2026-05-06T11:05:07Z</time></trkpt><trkpt lat="43.223958043504005" lon="0.09578546980241068"><ele>323.8333333333333</ele><time>2026-05-06T11:05:08Z</time></trkpt><trkpt lat="43.223965539870996" lon="0.0959054863772053"><ele>324.0</ele><time>2026-05-06T11:05:09Z</time></trkpt><trkpt lat="43.223984152467274" lon="0.09606116327690051"><ele>324.0</ele><time>2026-05-06T11:05:10Z</time></trkpt><trkpt lat="43.223986955524225" lon="0.09619836540999417"><ele>324.0</ele><time>2026-05-06T11:05:11Z</time></trkpt><trkpt lat="43.22398902256502" lon="0.09633647760591511"><ele>324.0</ele><time>2026-05-06T11:05:12Z</time></trkpt><trkpt lat="43.22398467734689" lon="0.09647303622324357"><ele>324.0</ele><time>2026-05-06T11:05:13Z</time></trkpt><trkpt lat="43.223970918004895" lon="0.09660561598577043"><ele>324.0</ele><time>2026-05-06T11:05:14Z</time></trkpt><trkpt lat="43.22398629191292" lon="0.09670304833836872"><ele>324.0</ele><time>2026-05-06T11:05:15Z</time></trkpt><trkpt lat="43.223996495830534" lon="0.09680725640668424"><ele>324.0</ele><time>2026-05-06T11:05:16Z</time></trkpt><trkpt lat="43.22400319844622" lon="0.09697603969757894"><ele>324.0</ele><time>2026-05-06T11:05:18Z</time></trkpt><trkpt lat="43.22399211848773" lon="0.09706194030559676"><ele>324.0</ele><time>2026-05-06T11:05:19Z</time></trkpt><trkpt lat="43.223979866068795" lon="0.09722227980596254"><ele>324.0</ele><time>2026-05-06T11:05:21Z</time></trkpt><trkpt lat="43.22396487690634" lon="0.09735929879914827"><ele>324.4</ele><time>2026-05-06T11:05:23Z</time></trkpt><trkpt lat="43.22396191550019" lon="0.09753225421423309"><ele>324.79999999999995</ele><time>2026-05-06T11:05:25Z</time></trkpt><trkpt lat="43.22396569679841" lon="0.09762017847357646"><ele>325.20000000000005</ele><time>2026-05-06T11:05:26Z</time></trkpt><trkpt lat="43.223953658488774" lon="0.09778140888319901"><ele>325.6</ele><time>2026-05-06T11:05:28Z</time></trkpt><trkpt lat="43.223951886890006" lon="0.09793228349723439"><ele>326.0</ele><time>2026-05-06T11:05:30Z</time></trkpt><trkpt lat="43.223952075892726" lon="0.09808497780654554"><ele>326.0</ele><time>2026-05-06T11:05:32Z</time></trkpt><trkpt lat="43.22395564030638" lon="0.09822947198246275"><ele>326.0</ele><time>2026-05-06T11:05:34Z</time></trkpt><trkpt lat="43.223955724726295" lon="0.09838086290669805"><ele>326.0</ele><time>2026-05-06T11:05:36Z</time></trkpt><trkpt lat="43.22396601071166" lon="0.09853576008473319"><ele>326.0</ele><time>2026-05-06T11:05:39Z</time></trkpt><trkpt lat="43.22396458898073" lon="0.09864475137879473"><ele>326.0</ele><time>2026-05-06T11:05:40Z</time></trkpt><trkpt lat="43.22395458008936" lon="0.09878781854894374"><ele>326.0</ele><time>2026-05-06T11:05:42Z</time></trkpt><trkpt lat="43.223939741032304" lon="0.09891839482531303"><ele>326.0</ele><time>2026-05-06T11:05:44Z</time></trkpt><trkpt lat="43.22394573620838" lon="0.09904655687317693"><ele>326.0</ele><time>2026-05-06T11:05:46Z</time></trkpt><trkpt lat="43.223969885077345" lon="0.09912886351145797"><ele>326.0</ele><time>2026-05-06T11:05:47Z</time></trkpt><trkpt lat="43.223961409208606" lon="0.09928107337889085"><ele>326.0</ele><time>2026-05-06T11:05:49Z</time></trkpt><trkpt lat="43.22395679643127" lon="0.09943438926411229"><ele>326.0</ele><time>2026-05-06T11:05:51Z</time></trkpt><trkpt lat="43.22396519621492" lon="0.09959867395074466"><ele>326.0</ele><time>2026-05-06T11:05:53Z</time></trkpt><trkpt lat="43.22396690006365" lon="0.09974898859406206"><ele>326.0</ele><time>2026-05-06T11:05:55Z</time></trkpt><trkpt lat="43.2239591024375" lon="0.09991079626862613"><ele>326.0</ele><time>2026-05-06T11:05:57Z</time></trkpt><trkpt lat="43.22395758474291" lon="0.10007263229817384"><ele>326.0</ele><time>2026-05-06T11:05:59Z</time></trkpt><trkpt lat="43.22395898294428" lon="0.10022931244178143"><ele>326.0</ele><time>2026-05-06T11:06:01Z</time></trkpt><trkpt lat="43.22396241290618" lon="0.10039661741976363"><ele>326.0</ele><time>2026-05-06T11:06:03Z</time></trkpt><trkpt lat="43.223961612258684" lon="0.10055984540391935"><ele>326.0</ele><time>2026-05-06T11:06:04.999Z</time></trkpt><trkpt lat="43.22396276351488" lon="0.10072607738496193"><ele>326.0</ele><time>2026-05-06T11:06:06.999Z</time></trkpt><trkpt lat="43.2239649997704" lon="0.10088057755878939"><ele>326.0</ele><time>2026-05-06T11:06:08.999Z</time></trkpt><trkpt lat="43.22396710613629" lon="0.10104779239501308"><ele>326.0</ele><time>2026-05-06T11:06:10.999Z</time></trkpt><trkpt lat="43.22396801439051" lon="0.10119596373923913"><ele>326.0</ele><time>2026-05-06T11:06:13Z</time></trkpt><trkpt lat="43.22396571131076" lon="0.1013349984404583"><ele>326.0</ele><time>2026-05-06T11:06:15Z</time></trkpt><trkpt lat="43.22396868109289" lon="0.10146739194705448"><ele>326.0</ele><time>2026-05-06T11:06:17Z</time></trkpt><trkpt lat="43.22398751151811" lon="0.1015769818033033"><ele>326.0</ele><time>2026-05-06T11:06:19Z</time></trkpt><trkpt lat="43.22397726566017" lon="0.1016702404297922"><ele>326.0</ele><time>2026-05-06T11:06:21Z</time></trkpt><trkpt lat="43.22397851374608" lon="0.10176809352253377"><ele>326.0</ele><time>2026-05-06T11:06:50Z</time></trkpt><trkpt lat="43.224040760789194" lon="0.101843856604655"><ele>326.0</ele><time>2026-05-06T11:07:07Z</time></trkpt><trkpt lat="43.22413512094926" lon="0.10185045837082954"><ele>326.0</ele><time>2026-05-06T11:07:10Z</time></trkpt><trkpt lat="43.22421357812569" lon="0.10179385920476279"><ele>326.20000000000005</ele><time>2026-05-06T11:07:12Z</time></trkpt><trkpt lat="43.22428644716752" lon="0.10172040469506786"><ele>326.40000000000003</ele><time>2026-05-06T11:07:14Z</time></trkpt><trkpt lat="43.22435660332039" lon="0.10165193323832446"><ele>326.6</ele><time>2026-05-06T11:07:16Z</time></trkpt><trkpt lat="43.22444618205998" lon="0.10159510947757916"><ele>326.8</ele><time>2026-05-06T11:07:18Z</time></trkpt><trkpt lat="43.22453974082903" lon="0.10158283296400199"><ele>327.0</ele><time>2026-05-06T11:07:20Z</time></trkpt><trkpt lat="43.2246171917882" lon="0.10165826328603249"><ele>327.0</ele><time>2026-05-06T11:07:22Z</time></trkpt><trkpt lat="43.224640522751706" lon="0.10179543543197704"><ele>327.0</ele><time>2026-05-06T11:07:24Z</time></trkpt><trkpt lat="43.22462875899789" lon="0.10193523051533708"><ele>327.0</ele><time>2026-05-06T11:07:26Z</time></trkpt><trkpt lat="43.224634584360295" lon="0.10207820969704529"><ele>327.0</ele><time>2026-05-06T11:07:28Z</time></trkpt><trkpt lat="43.224620176704654" lon="0.10223140155415979"><ele>327.0</ele><time>2026-05-06T11:07:30Z</time></trkpt><trkpt lat="43.22462088160714" lon="0.10239512695340995"><ele>327.0</ele><time>2026-05-06T11:07:32Z</time></trkpt><trkpt lat="43.22461806354123" lon="0.10248190711717425"><ele>327.0</ele><time>2026-05-06T11:07:33Z</time></trkpt><trkpt lat="43.22461328537037" lon="0.10265181745688728"><ele>327.0</ele><time>2026-05-06T11:07:35Z</time></trkpt><trkpt lat="43.22461101366432" lon="0.10281705428872068"><ele>327.0</ele><time>2026-05-06T11:07:37Z</time></trkpt><trkpt lat="43.224606454287276" lon="0.10298816292615591"><ele>327.0</ele><time>2026-05-06T11:07:39Z</time></trkpt><trkpt lat="43.22461121136238" lon="0.1030825485892422"><ele>327.0</ele><time>2026-05-06T11:07:40Z</time></trkpt><trkpt lat="43.22461264315021" lon="0.10317421335949833"><ele>327.0</ele><time>2026-05-06T11:07:41Z</time></trkpt><trkpt lat="43.22461495928601" lon="0.10326501780267215"><ele>327.0</ele><time>2026-05-06T11:07:42Z</time></trkpt><trkpt lat="43.2246533863867" lon="0.10345294471931857"><ele>327.0</ele><time>2026-05-06T11:07:44Z</time></trkpt><trkpt lat="43.224692305009" lon="0.1035418194275842"><ele>327.0</ele><time>2026-05-06T11:07:45Z</time></trkpt><trkpt lat="43.22473767516818" lon="0.10362219463956164"><ele>327.0</ele><time>2026-05-06T11:07:46Z</time></trkpt><trkpt lat="43.224787012069584" lon="0.10368913824956948"><ele>326.5</ele><time>2026-05-06T11:07:47Z</time></trkpt><trkpt lat="43.22483929992854" lon="0.10375280454009313"><ele>326.0</ele><time>2026-05-06T11:07:48Z</time></trkpt><trkpt lat="43.22489068406949" lon="0.1038157452256964"><ele>325.5</ele><time>2026-05-06T11:07:49Z</time></trkpt><trkpt lat="43.224945256992626" lon="0.10386888117647326"><ele>325.0</ele><time>2026-05-06T11:07:50Z</time></trkpt><trkpt lat="43.22500875026499" lon="0.10390659790402149"><ele>324.5</ele><time>2026-05-06T11:07:51Z</time></trkpt><trkpt lat="43.22507202982076" lon="0.1039219324390852"><ele>324.0</ele><time>2026-05-06T11:07:52Z</time></trkpt><trkpt lat="43.225196174796324" lon="0.10393170168304422"><ele>324.0</ele><time>2026-05-06T11:07:54Z</time></trkpt><trkpt lat="43.22531491537078" lon="0.10391029581354887"><ele>324.0</ele><time>2026-05-06T11:07:56Z</time></trkpt><trkpt lat="43.225377974541686" lon="0.1039084361347447"><ele>324.0</ele><time>2026-05-06T11:07:57Z</time></trkpt><trkpt lat="43.22549613102229" lon="0.10389533393480894"><ele>324.0</ele><time>2026-05-06T11:07:59Z</time></trkpt><trkpt lat="43.225611402469674" lon="0.10388861585889864"><ele>324.0</ele><time>2026-05-06T11:08:01Z</time></trkpt><trkpt lat="43.22572791713286" lon="0.10387619541729422"><ele>324.2</ele><time>2026-05-06T11:08:03Z</time></trkpt><trkpt lat="43.22584323372941" lon="0.10386592936164056"><ele>324.4</ele><time>2026-05-06T11:08:05Z</time></trkpt><trkpt lat="43.22595195037401" lon="0.10386616245871044"><ele>324.6</ele><time>2026-05-06T11:08:07Z</time></trkpt><trkpt lat="43.226005049238" lon="0.10381870157794958"><ele>324.8</ele><time>2026-05-06T11:08:08Z</time></trkpt><trkpt lat="43.22611233457881" lon="0.1038078925059328"><ele>325.0</ele><time>2026-05-06T11:08:10Z</time></trkpt><trkpt lat="43.226217486012985" lon="0.10383381754713651"><ele>325.0</ele><time>2026-05-06T11:08:12Z</time></trkpt><trkpt lat="43.22632316859991" lon="0.10381608982777901"><ele>325.0</ele><time>2026-05-06T11:08:14Z</time></trkpt><trkpt lat="43.2264365897909" lon="0.10380700448104953"><ele>325.0</ele><time>2026-05-06T11:08:15.999Z</time></trkpt><trkpt lat="43.226501206521164" lon="0.10379303985718517"><ele>325.0</ele><time>2026-05-06T11:08:16.999Z</time></trkpt><trkpt lat="43.226594949181404" lon="0.1037517459702075"><ele>325.0</ele><time>2026-05-06T11:08:19Z</time></trkpt><trkpt lat="43.2266314089919" lon="0.1036723820888772"><ele>324.8</ele><time>2026-05-06T11:08:20Z</time></trkpt><trkpt lat="43.226695200953415" lon="0.10354070345256387"><ele>324.6</ele><time>2026-05-06T11:08:22Z</time></trkpt><trkpt lat="43.226753560349586" lon="0.10341805260517696"><ele>324.4</ele><time>2026-05-06T11:08:24Z</time></trkpt><trkpt lat="43.226801204890414" lon="0.10335556346708843"><ele>324.2</ele><time>2026-05-06T11:08:25Z</time></trkpt><trkpt lat="43.226912329760815" lon="0.10329760485601121"><ele>324.0</ele><time>2026-05-06T11:08:27Z</time></trkpt><trkpt lat="43.22703293808969" lon="0.10328447039037633"><ele>324.0</ele><time>2026-05-06T11:08:29Z</time></trkpt><trkpt lat="43.22714556673478" lon="0.10327535061021023"><ele>324.0</ele><time>2026-05-06T11:08:31Z</time></trkpt><trkpt lat="43.22725905539271" lon="0.10326956001184745"><ele>324.0</ele><time>2026-05-06T11:08:33Z</time></trkpt><trkpt lat="43.22736935930644" lon="0.10326752062625562"><ele>324.0</ele><time>2026-05-06T11:08:35Z</time></trkpt><trkpt lat="43.22747444141182" lon="0.10327287669925629"><ele>324.0</ele><time>2026-05-06T11:08:37Z</time></trkpt><trkpt lat="43.22759140673732" lon="0.1032712346307825"><ele>324.0</ele><time>2026-05-06T11:08:39Z</time></trkpt><trkpt lat="43.227705815213326" lon="0.10327202538106954"><ele>324.0</ele><time>2026-05-06T11:08:41Z</time></trkpt><trkpt lat="43.227814471184914" lon="0.10327578582817444"><ele>324.0</ele><time>2026-05-06T11:08:43Z</time></trkpt><trkpt lat="43.22788089896196" lon="0.10326699793843078"><ele>324.0</ele><time>2026-05-06T11:08:44Z</time></trkpt><trkpt lat="43.22794475994404" lon="0.1032663463181988"><ele>324.0</ele><time>2026-05-06T11:08:45Z</time></trkpt><trkpt lat="43.22805967068073" lon="0.10326161871401293"><ele>324.0</ele><time>2026-05-06T11:08:47Z</time></trkpt><trkpt lat="43.22817239504815" lon="0.10325055850750255"><ele>324.0</ele><time>2026-05-06T11:08:49Z</time></trkpt><trkpt lat="43.22827439666367" lon="0.10325410290428177"><ele>324.0</ele><time>2026-05-06T11:08:51Z</time></trkpt><trkpt lat="43.22836410702525" lon="0.10325323563638354"><ele>324.0</ele><time>2026-05-06T11:08:53Z</time></trkpt><trkpt lat="43.22844919162333" lon="0.10323148296353564"><ele>324.0</ele><time>2026-05-06T11:08:55Z</time></trkpt><trkpt lat="43.22851613133199" lon="0.10323334301193149"><ele>324.0</ele><time>2026-05-06T11:08:59Z</time></trkpt><trkpt lat="43.22848791717768" lon="0.10339746347884025"><ele>324.0</ele><time>2026-05-06T11:09:02Z</time></trkpt><trkpt lat="43.22845988797347" lon="0.10349700147803233"><ele>324.0</ele><time>2026-05-06T11:09:04Z</time></trkpt><trkpt lat="43.22842905864627" lon="0.10360143423957763"><ele>324.0</ele><time>2026-05-06T11:09:06Z</time></trkpt><trkpt lat="43.22840202654198" lon="0.10371264700560129"><ele>324.0</ele><time>2026-05-06T11:09:08Z</time></trkpt><trkpt lat="43.22835035202912" lon="0.1038365756339832"><ele>324.0</ele><time>2026-05-06T11:09:10Z</time></trkpt><trkpt lat="43.22834236314035" lon="0.1039614342184558"><ele>324.0</ele><time>2026-05-06T11:09:12Z</time></trkpt><trkpt lat="43.22832670572932" lon="0.10409560153985284"><ele>324.0</ele><time>2026-05-06T11:09:14Z</time></trkpt><trkpt lat="43.228314514511716" lon="0.10424302487912847"><ele>324.0</ele><time>2026-05-06T11:09:16Z</time></trkpt><trkpt lat="43.228301157549865" lon="0.10437921855202748"><ele>324.0</ele><time>2026-05-06T11:09:18Z</time></trkpt><trkpt lat="43.22829310971052" lon="0.10452164581750806"><ele>323.79999999999995</ele><time>2026-05-06T11:09:20Z</time></trkpt><trkpt lat="43.22830560548016" lon="0.10466264997591268"><ele>323.59999999999997</ele><time>2026-05-06T11:09:22Z</time></trkpt><trkpt lat="43.22829290131727" lon="0.10481143313536423"><ele>323.4</ele><time>2026-05-06T11:09:24Z</time></trkpt><trkpt lat="43.22829894521028" lon="0.10496212422909681"><ele>323.2</ele><time>2026-05-06T11:09:26Z</time></trkpt><trkpt lat="43.22831921936577" lon="0.1051200981357038"><ele>323.0</ele><time>2026-05-06T11:09:29Z</time></trkpt><trkpt lat="43.22832641557867" lon="0.10521054595035655"><ele>323.0</ele><time>2026-05-06T11:09:30Z</time></trkpt><trkpt lat="43.2283228956699" lon="0.10535331721289179"><ele>323.0</ele><time>2026-05-06T11:09:32Z</time></trkpt><trkpt lat="43.22831771491481" lon="0.10548613592269944"><ele>323.0</ele><time>2026-05-06T11:09:34Z</time></trkpt><trkpt lat="43.228308880232596" lon="0.10561079147008474"><ele>323.0</ele><time>2026-05-06T11:09:36Z</time></trkpt><trkpt lat="43.228292086705075" lon="0.10572948000641551"><ele>323.0</ele><time>2026-05-06T11:09:38Z</time></trkpt><trkpt lat="43.22833034611982" lon="0.10589281809650311"><ele>323.0</ele><time>2026-05-06T11:09:40Z</time></trkpt><trkpt lat="43.22835096897303" lon="0.10603910942548415"><ele>323.0</ele><time>2026-05-06T11:09:42Z</time></trkpt><trkpt lat="43.2283541605736" lon="0.10612969701082127"><ele>323.0</ele><time>2026-05-06T11:09:43Z</time></trkpt><trkpt lat="43.22835943101839" lon="0.1062163686526993"><ele>323.0</ele><time>2026-05-06T11:09:44Z</time></trkpt><trkpt lat="43.228372286909014" lon="0.10638233229367815"><ele>323.0</ele><time>2026-05-06T11:09:46Z</time></trkpt><trkpt lat="43.228383991719014" lon="0.10653402703420954"><ele>323.2</ele><time>2026-05-06T11:09:48Z</time></trkpt><trkpt lat="43.22839484331881" lon="0.10667696404677537"><ele>323.4</ele><time>2026-05-06T11:09:50Z</time></trkpt><trkpt lat="43.228416565821604" lon="0.1068357196511476"><ele>323.59999999999997</ele><time>2026-05-06T11:09:52Z</time></trkpt><trkpt lat="43.22843421232735" lon="0.10692023633194157"><ele>323.79999999999995</ele><time>2026-05-06T11:09:53Z</time></trkpt><trkpt lat="43.22846033335728" lon="0.10709117247760536"><ele>324.0</ele><time>2026-05-06T11:09:55Z</time></trkpt><trkpt lat="43.22846081549643" lon="0.10718026039132306"><ele>324.0</ele><time>2026-05-06T11:09:56Z</time></trkpt><trkpt lat="43.22846824767978" lon="0.10727523397605696"><ele>324.0</ele><time>2026-05-06T11:09:57Z</time></trkpt><trkpt lat="43.22848421304824" lon="0.10745442827424787"><ele>324.0</ele><time>2026-05-06T11:09:59Z</time></trkpt><trkpt lat="43.22848665590746" lon="0.10754184096678295"><ele>324.0</ele><time>2026-05-06T11:10:00Z</time></trkpt><trkpt lat="43.228487912050404" lon="0.10763282529740366"><ele>324.0</ele><time>2026-05-06T11:10:01Z</time></trkpt><trkpt lat="43.2284964657888" lon="0.10771860821192483"><ele>324.0</ele><time>2026-05-06T11:10:02Z</time></trkpt><trkpt lat="43.22851050223855" lon="0.10788468687771809"><ele>323.79999999999995</ele><time>2026-05-06T11:10:04Z</time></trkpt><trkpt lat="43.228509914740016" lon="0.10797119247039097"><ele>323.59999999999997</ele><time>2026-05-06T11:10:05Z</time></trkpt><trkpt lat="43.228512749106116" lon="0.10805811024768291"><ele>323.4</ele><time>2026-05-06T11:10:06Z</time></trkpt><trkpt lat="43.22851914854395" lon="0.10822500836661646"><ele>323.2</ele><time>2026-05-06T11:10:08Z</time></trkpt><trkpt lat="43.228534683078806" lon="0.10839023057451955"><ele>323.0</ele><time>2026-05-06T11:10:10Z</time></trkpt><trkpt lat="43.22854222312495" lon="0.10855236060918785"><ele>323.0</ele><time>2026-05-06T11:10:12Z</time></trkpt><trkpt lat="43.228548815108965" lon="0.10863842045115861"><ele>323.0</ele><time>2026-05-06T11:10:13Z</time></trkpt><trkpt lat="43.228564367123816" lon="0.10872763041691852"><ele>323.0</ele><time>2026-05-06T11:10:14Z</time></trkpt><trkpt lat="43.22855766255691" lon="0.10882151292226569"><ele>323.0</ele><time>2026-05-06T11:10:15Z</time></trkpt><trkpt lat="43.228574117462365" lon="0.10898726964740843"><ele>323.0</ele><time>2026-05-06T11:10:17Z</time></trkpt><trkpt lat="43.22857580122261" lon="0.10915907563318959"><ele>323.0</ele><time>2026-05-06T11:10:19Z</time></trkpt><trkpt lat="43.22858836240872" lon="0.10924717764149709"><ele>323.0</ele><time>2026-05-06T11:10:20Z</time></trkpt><trkpt lat="43.228599759790214" lon="0.1093386650996356"><ele>323.0</ele><time>2026-05-06T11:10:21Z</time></trkpt><trkpt lat="43.22860448090375" lon="0.10951158463272391"><ele>323.0</ele><time>2026-05-06T11:10:23Z</time></trkpt><trkpt lat="43.22862016864756" lon="0.10960847666909149"><ele>323.0</ele><time>2026-05-06T11:10:24Z</time></trkpt><trkpt lat="43.22863124251791" lon="0.10969965212956709"><ele>323.0</ele><time>2026-05-06T11:10:25Z</time></trkpt><trkpt lat="43.22865663934602" lon="0.10986683436501189"><ele>323.25</ele><time>2026-05-06T11:10:27Z</time></trkpt><trkpt lat="43.22866919378515" lon="0.11002971917897814"><ele>323.5</ele><time>2026-05-06T11:10:29Z</time></trkpt><trkpt lat="43.22868557050862" lon="0.11020062385375977"><ele>323.75</ele><time>2026-05-06T11:10:31Z</time></trkpt><trkpt lat="43.22869850614313" lon="0.11035996392863746"><ele>324.0</ele><time>2026-05-06T11:10:33Z</time></trkpt><trkpt lat="43.228711681677105" lon="0.11053275175221784"><ele>324.0</ele><time>2026-05-06T11:10:35Z</time></trkpt><trkpt lat="43.22873756001265" lon="0.11070324707329675"><ele>324.0</ele><time>2026-05-06T11:10:37Z</time></trkpt><trkpt lat="43.22874705924927" lon="0.11079665891849087"><ele>324.0</ele><time>2026-05-06T11:10:38Z</time></trkpt><trkpt lat="43.228760074679855" lon="0.11095922312227086"><ele>324.0</ele><time>2026-05-06T11:10:40Z</time></trkpt><trkpt lat="43.22876257298655" lon="0.11105357256225977"><ele>324.0</ele><time>2026-05-06T11:10:41Z</time></trkpt><trkpt lat="43.22877489755703" lon="0.11114059929387747"><ele>324.0</ele><time>2026-05-06T11:10:42Z</time></trkpt><trkpt lat="43.22877860236173" lon="0.11123056549239028"><ele>324.0</ele><time>2026-05-06T11:10:43Z</time></trkpt><trkpt lat="43.22878230833809" lon="0.11138884671453053"><ele>324.0</ele><time>2026-05-06T11:10:45Z</time></trkpt><trkpt lat="43.228789356076206" lon="0.11148310507900136"><ele>324.0</ele><time>2026-05-06T11:10:46Z</time></trkpt><trkpt lat="43.22879882601308" lon="0.11157862838123499"><ele>324.0</ele><time>2026-05-06T11:10:47Z</time></trkpt><trkpt lat="43.228795417071005" lon="0.11167826718746714"><ele>324.0</ele><time>2026-05-06T11:10:48Z</time></trkpt><trkpt lat="43.22881292786957" lon="0.11184290273861999"><ele>324.0</ele><time>2026-05-06T11:10:50Z</time></trkpt><trkpt lat="43.228821943105295" lon="0.11195014180328546"><ele>323.79999999999995</ele><time>2026-05-06T11:10:51Z</time></trkpt><trkpt lat="43.228844953125225" lon="0.11211774069234405"><ele>323.59999999999997</ele><time>2026-05-06T11:10:53Z</time></trkpt><trkpt lat="43.22884900758394" lon="0.11220426295761574"><ele>323.4</ele><time>2026-05-06T11:10:54Z</time></trkpt><trkpt lat="43.2288599415796" lon="0.11237881864237902"><ele>323.2</ele><time>2026-05-06T11:10:56Z</time></trkpt><trkpt lat="43.2288704137704" lon="0.11246574176564501"><ele>323.0</ele><time>2026-05-06T11:10:57Z</time></trkpt><trkpt lat="43.22887029589335" lon="0.11263730979798371"><ele>322.83333333333337</ele><time>2026-05-06T11:10:59Z</time></trkpt><trkpt lat="43.22888120402528" lon="0.11272535660451176"><ele>322.6666666666667</ele><time>2026-05-06T11:11:00Z</time></trkpt><trkpt lat="43.228887352039145" lon="0.11281443515458937"><ele>322.5</ele><time>2026-05-06T11:11:01Z</time></trkpt><trkpt lat="43.22889713451757" lon="0.11290104202295435"><ele>322.3333333333333</ele><time>2026-05-06T11:11:02Z</time></trkpt><trkpt lat="43.22890457317071" lon="0.1129889868706706"><ele>322.16666666666663</ele><time>2026-05-06T11:11:03Z</time></trkpt><trkpt lat="43.228922108688195" lon="0.11316812660006438"><ele>322.0</ele><time>2026-05-06T11:11:05Z</time></trkpt><trkpt lat="43.228928039561744" lon="0.11325479457074618"><ele>322.0</ele><time>2026-05-06T11:11:06Z</time></trkpt><trkpt lat="43.22893530291512" lon="0.11342975306345968"><ele>322.0</ele><time>2026-05-06T11:11:08Z</time></trkpt><trkpt lat="43.22894268507917" lon="0.113520221995155"><ele>322.0</ele><time>2026-05-06T11:11:09Z</time></trkpt><trkpt lat="43.22895419153566" lon="0.1136074514458678"><ele>322.0</ele><time>2026-05-06T11:11:10Z</time></trkpt><trkpt lat="43.22896735325201" lon="0.11369907437028247"><ele>322.0</ele><time>2026-05-06T11:11:11Z</time></trkpt><trkpt lat="43.22897980864535" lon="0.11379000356194005"><ele>322.0</ele><time>2026-05-06T11:11:12Z</time></trkpt><trkpt lat="43.2289865538623" lon="0.11395834999491046"><ele>322.20000000000005</ele><time>2026-05-06T11:11:14Z</time></trkpt><trkpt lat="43.22899760628392" lon="0.11412216281911296"><ele>322.4</ele><time>2026-05-06T11:11:16Z</time></trkpt><trkpt lat="43.22900457613311" lon="0.11427458975479604"><ele>322.6</ele><time>2026-05-06T11:11:18Z</time></trkpt><trkpt lat="43.22901577653747" lon="0.11436261037687329"><ele>322.79999999999995</ele><time>2026-05-06T11:11:19Z</time></trkpt><trkpt lat="43.22902858497998" lon="0.11453714935603969"><ele>323.0</ele><time>2026-05-06T11:11:21Z</time></trkpt><trkpt lat="43.22903088464809" lon="0.11463275023983116"><ele>323.00000000000006</ele><time>2026-05-06T11:11:22Z</time></trkpt><trkpt lat="43.229043904342156" lon="0.11471897082149032"><ele>323.0</ele><time>2026-05-06T11:11:23Z</time></trkpt><trkpt lat="43.22905025232341" lon="0.11480848853076393"><ele>323.0</ele><time>2026-05-06T11:11:24Z</time></trkpt><trkpt lat="43.22905773547846" lon="0.11489795198235694"><ele>323.0</ele><time>2026-05-06T11:11:25Z</time></trkpt><trkpt lat="43.22906421524576" lon="0.11498772706470256"><ele>323.0</ele><time>2026-05-06T11:11:26Z</time></trkpt><trkpt lat="43.229074517566985" lon="0.11507595879236598"><ele>323.00000000000006</ele><time>2026-05-06T11:11:27Z</time></trkpt><trkpt lat="43.22908232124001" lon="0.11516277165725373"><ele>323.0</ele><time>2026-05-06T11:11:28Z</time></trkpt><trkpt lat="43.22909316942306" lon="0.11524983416169844"><ele>323.0</ele><time>2026-05-06T11:11:29Z</time></trkpt><trkpt lat="43.22910006853589" lon="0.11541108271518985"><ele>323.0</ele><time>2026-05-06T11:11:31Z</time></trkpt><trkpt lat="43.229113223654096" lon="0.11557932165988202"><ele>323.0</ele><time>2026-05-06T11:11:33Z</time></trkpt><trkpt lat="43.229126651790956" lon="0.11573550869133396"><ele>323.0</ele><time>2026-05-06T11:11:35Z</time></trkpt><trkpt lat="43.22913880513673" lon="0.11589485069537526"><ele>323.0</ele><time>2026-05-06T11:11:37Z</time></trkpt><trkpt lat="43.22914989772971" lon="0.11598350144786507"><ele>323.0</ele><time>2026-05-06T11:11:38Z</time></trkpt><trkpt lat="43.22914352765071" lon="0.11615090955290824"><ele>323.0</ele><time>2026-05-06T11:11:40Z</time></trkpt><trkpt lat="43.22914968837515" lon="0.11631063805900578"><ele>323.0</ele><time>2026-05-06T11:11:42Z</time></trkpt><trkpt lat="43.2291637070731" lon="0.11647876218493235"><ele>323.0</ele><time>2026-05-06T11:11:44Z</time></trkpt><trkpt lat="43.22917906428123" lon="0.11663543629510958"><ele>323.5</ele><time>2026-05-06T11:11:46Z</time></trkpt><trkpt lat="43.22919288497895" lon="0.11679223178098945"><ele>324.0</ele><time>2026-05-06T11:11:48Z</time></trkpt><trkpt lat="43.22921985520928" lon="0.11695194492410695"><ele>324.5</ele><time>2026-05-06T11:11:50Z</time></trkpt><trkpt lat="43.22923441275488" lon="0.11710498508576589"><ele>325.0</ele><time>2026-05-06T11:11:52Z</time></trkpt><trkpt lat="43.229251347417616" lon="0.11726722192946899"><ele>325.8</ele><time>2026-05-06T11:11:54Z</time></trkpt><trkpt lat="43.22926406189817" lon="0.11741767169151283"><ele>326.6</ele><time>2026-05-06T11:11:56Z</time></trkpt><trkpt lat="43.2292745000372" lon="0.11757040810797184"><ele>327.4</ele><time>2026-05-06T11:11:58Z</time></trkpt><trkpt lat="43.22928645270766" lon="0.11765760253405042"><ele>328.2</ele><time>2026-05-06T11:11:59Z</time></trkpt><trkpt lat="43.22930030933059" lon="0.1178115717263821"><ele>329.0</ele><time>2026-05-06T11:12:01Z</time></trkpt><trkpt lat="43.22930675283384" lon="0.11795287120339508"><ele>329.0</ele><time>2026-05-06T11:12:03Z</time></trkpt><trkpt lat="43.22930838429228" lon="0.11809234897289755"><ele>329.0</ele><time>2026-05-06T11:12:05Z</time></trkpt><trkpt lat="43.22927552192603" lon="0.11821678415513706"><ele>329.0</ele><time>2026-05-06T11:12:09Z</time></trkpt><trkpt lat="43.22924180732338" lon="0.11829966205181369"><ele>329.0</ele><time>2026-05-06T11:12:11Z</time></trkpt><trkpt lat="43.22921710746389" lon="0.11839512612018088"><ele>329.0</ele><time>2026-05-06T11:12:14Z</time></trkpt><trkpt lat="43.2291889658566" lon="0.11848300529445831"><ele>329.0</ele><time>2026-05-06T11:12:16Z</time></trkpt><trkpt lat="43.22914301884955" lon="0.11854323864211336"><ele>328.6666666666667</ele><time>2026-05-06T11:12:18Z</time></trkpt><trkpt lat="43.22909603257087" lon="0.11863335243346461"><ele>328.33333333333337</ele><time>2026-05-06T11:12:21Z</time></trkpt><trkpt lat="43.22903785953722" lon="0.1187125674206254"><ele>328.0</ele><time>2026-05-06T11:12:24Z</time></trkpt><trkpt lat="43.22899262040022" lon="0.11878378539685577"><ele>327.6666666666667</ele><time>2026-05-06T11:12:26Z</time></trkpt><trkpt lat="43.22892027706069" lon="0.11884300605536201"><ele>327.3333333333333</ele><time>2026-05-06T11:12:29Z</time></trkpt><trkpt lat="43.228874864335005" lon="0.11891776988120727"><ele>327.0</ele><time>2026-05-06T11:12:31Z</time></trkpt><trkpt lat="43.22879673475792" lon="0.11898044317084332"><ele>327.0</ele><time>2026-05-06T11:12:34Z</time></trkpt><trkpt lat="43.22874097564126" lon="0.11903760753897204"><ele>327.0</ele><time>2026-05-06T11:12:36Z</time></trkpt><trkpt lat="43.22867488667129" lon="0.11909221628839319"><ele>327.0</ele><time>2026-05-06T11:12:39Z</time></trkpt><trkpt lat="43.228615045050546" lon="0.11914884827761404"><ele>327.0</ele><time>2026-05-06T11:12:41Z</time></trkpt><trkpt lat="43.22856157477644" lon="0.1192121706098859"><ele>327.0</ele><time>2026-05-06T11:12:43Z</time></trkpt><trkpt lat="43.22849932634832" lon="0.1192631544629109"><ele>327.0</ele><time>2026-05-06T11:12:45Z</time></trkpt><trkpt lat="43.22845263551639" lon="0.11934551281255955"><ele>327.0</ele><time>2026-05-06T11:12:47Z</time></trkpt><trkpt lat="43.228399790370304" lon="0.11939698185651114"><ele>328.0</ele><time>2026-05-06T11:12:49Z</time></trkpt><trkpt lat="43.22834822545462" lon="0.11945600255991909"><ele>329.0</ele><time>2026-05-06T11:12:51Z</time></trkpt><trkpt lat="43.228298211749234" lon="0.11950956395058791"><ele>330.0</ele><time>2026-05-06T11:12:53Z</time></trkpt><trkpt lat="43.228234492859954" lon="0.11954716326148955"><ele>331.0</ele><time>2026-05-06T11:12:56Z</time></trkpt><trkpt lat="43.228171377475526" lon="0.11958544329122485"><ele>332.0</ele><time>2026-05-06T11:12:59Z</time></trkpt><trkpt lat="43.2281137794848" lon="0.11963398548648041"><ele>333.0</ele><time>2026-05-06T11:13:02Z</time></trkpt><trkpt lat="43.22806090264592" lon="0.11968112722117914"><ele>334.0</ele><time>2026-05-06T11:13:05Z</time></trkpt><trkpt lat="43.22798667637899" lon="0.11972831232264278"><ele>334.0</ele><time>2026-05-06T11:13:09Z</time></trkpt><trkpt lat="43.22790944159447" lon="0.11978262529147593"><ele>334.0</ele><time>2026-05-06T11:13:13Z</time></trkpt><trkpt lat="43.227813989396545" lon="0.11983227535856394"><ele>334.0</ele><time>2026-05-06T11:13:17Z</time></trkpt><trkpt lat="43.22774974241812" lon="0.11986175088281896"><ele>334.0</ele><time>2026-05-06T11:13:20Z</time></trkpt><trkpt lat="43.22765932328342" lon="0.11990199715253291"><ele>334.0</ele><time>2026-05-06T11:13:23Z</time></trkpt><trkpt lat="43.22759334648493" lon="0.11993424794982298"><ele>334.0</ele><time>2026-05-06T11:13:26Z</time></trkpt><trkpt lat="43.227510385942104" lon="0.119982492968087"><ele>334.8333333333333</ele><time>2026-05-06T11:13:29Z</time></trkpt><trkpt lat="43.22745587692842" lon="0.12003598470453496"><ele>335.66666666666663</ele><time>2026-05-06T11:13:32Z</time></trkpt><trkpt lat="43.227361718270316" lon="0.12007977651294194"><ele>336.5</ele><time>2026-05-06T11:13:35Z</time></trkpt><trkpt lat="43.22731079955345" lon="0.12013524276349222"><ele>337.3333333333333</ele><time>2026-05-06T11:13:37Z</time></trkpt><trkpt lat="43.22724180307206" lon="0.12017252827075224"><ele>338.1666666666667</ele><time>2026-05-06T11:13:40Z</time></trkpt><trkpt lat="43.22715142788046" lon="0.12024443208903303"><ele>339.0</ele><time>2026-05-06T11:13:43Z</time></trkpt><trkpt lat="43.227086533807025" lon="0.12029509710716502"><ele>339.0</ele><time>2026-05-06T11:13:46Z</time></trkpt><trkpt lat="43.22700517652519" lon="0.1203879260218862"><ele>339.0</ele><time>2026-05-06T11:13:49Z</time></trkpt><trkpt lat="43.226917255797886" lon="0.12044314513666095"><ele>339.0</ele><time>2026-05-06T11:13:53Z</time></trkpt><trkpt lat="43.22685225183688" lon="0.12050052371641903"><ele>339.0</ele><time>2026-05-06T11:13:56Z</time></trkpt><trkpt lat="43.22677489078963" lon="0.12054952444369035"><ele>339.0</ele><time>2026-05-06T11:13:59Z</time></trkpt><trkpt lat="43.226714908322066" lon="0.12059526669051578"><ele>339.0</ele><time>2026-05-06T11:14:02Z</time></trkpt><trkpt lat="43.22666129780767" lon="0.1206636249456577"><ele>339.0</ele><time>2026-05-06T11:14:04Z</time></trkpt><trkpt lat="43.226579286686054" lon="0.12072912807379532"><ele>339.0</ele><time>2026-05-06T11:14:07Z</time></trkpt><trkpt lat="43.22649812259576" lon="0.1207707974699439"><ele>339.0</ele><time>2026-05-06T11:14:10Z</time></trkpt><trkpt lat="43.22642381947876" lon="0.1208211283536206"><ele>339.0</ele><time>2026-05-06T11:14:13Z</time></trkpt><trkpt lat="43.22635070278463" lon="0.12085894710919516"><ele>339.0</ele><time>2026-05-06T11:14:15Z</time></trkpt><trkpt lat="43.22627870030534" lon="0.12088333750897835"><ele>339.0</ele><time>2026-05-06T11:14:18Z</time></trkpt><trkpt lat="43.22617314079494" lon="0.12093804633422377"><ele>339.8333333333333</ele><time>2026-05-06T11:14:21Z</time></trkpt><trkpt lat="43.226099209754565" lon="0.1210159631661602"><ele>340.6666666666667</ele><time>2026-05-06T11:14:25Z</time></trkpt><trkpt lat="43.22603505185256" lon="0.12103966571037901"><ele>341.5</ele><time>2026-05-06T11:14:28Z</time></trkpt><trkpt lat="43.225975363029725" lon="0.12108401808497272"><ele>342.33333333333337</ele><time>2026-05-06T11:14:30Z</time></trkpt><trkpt lat="43.22591536035929" lon="0.12112609205683876"><ele>343.1666666666667</ele><time>2026-05-06T11:14:32Z</time></trkpt><trkpt lat="43.22582870499633" lon="0.12118146274038738"><ele>344.0</ele><time>2026-05-06T11:14:35Z</time></trkpt><trkpt lat="43.225759307869" lon="0.12122119770236817"><ele>344.0</ele><time>2026-05-06T11:14:38Z</time></trkpt><trkpt lat="43.225677147679676" lon="0.12129169267831662"><ele>344.0</ele><time>2026-05-06T11:14:41Z</time></trkpt><trkpt lat="43.22558554111559" lon="0.12135728291284514"><ele>344.0</ele><time>2026-05-06T11:14:45Z</time></trkpt><trkpt lat="43.22551731348744" lon="0.12138472990858626"><ele>344.0</ele><time>2026-05-06T11:14:47Z</time></trkpt><trkpt lat="43.22545418112706" lon="0.12140885125333448"><ele>344.0</ele><time>2026-05-06T11:14:49Z</time></trkpt><trkpt lat="43.22536572105286" lon="0.12146877420369935"><ele>344.0</ele><time>2026-05-06T11:14:52Z</time></trkpt><trkpt lat="43.225299555024264" lon="0.12150582802831744"><ele>343.6666666666667</ele><time>2026-05-06T11:14:55Z</time></trkpt><trkpt lat="43.22522389778472" lon="0.12152165260656017"><ele>343.33333333333337</ele><time>2026-05-06T11:14:58Z</time></trkpt><trkpt lat="43.22514267748376" lon="0.12154704616918079"><ele>343.0</ele><time>2026-05-06T11:15:01Z</time></trkpt><trkpt lat="43.22507487604632" lon="0.12157484502508116"><ele>342.6666666666667</ele><time>2026-05-06T11:15:04Z</time></trkpt><trkpt lat="43.22496921771362" lon="0.12160651658138501"><ele>342.3333333333333</ele><time>2026-05-06T11:15:07Z</time></trkpt><trkpt lat="43.2249019965223" lon="0.12160653984701694"><ele>342.0</ele><time>2026-05-06T11:15:09Z</time></trkpt><trkpt lat="43.22483595617222" lon="0.12160079796310577"><ele>343.8333333333333</ele><time>2026-05-06T11:15:11Z</time></trkpt><trkpt lat="43.22474955057714" lon="0.12164089576344321"><ele>345.6666666666667</ele><time>2026-05-06T11:15:14Z</time></trkpt><trkpt lat="43.224673164401864" lon="0.12166577570789822"><ele>347.5</ele><time>2026-05-06T11:15:16Z</time></trkpt><trkpt lat="43.22458872317425" lon="0.12168109051806555"><ele>349.33333333333337</ele><time>2026-05-06T11:15:19Z</time></trkpt><trkpt lat="43.224521690113555" lon="0.12171271935667766"><ele>351.1666666666667</ele><time>2026-05-06T11:15:21Z</time></trkpt><trkpt lat="43.22444772587615" lon="0.12176270351028307"><ele>353.0</ele><time>2026-05-06T11:15:24Z</time></trkpt><trkpt lat="43.22438153310694" lon="0.12181629724294558"><ele>353.0</ele><time>2026-05-06T11:15:26Z</time></trkpt><trkpt lat="43.22430953563489" lon="0.12186136863933417"><ele>353.0</ele><time>2026-05-06T11:15:29Z</time></trkpt><trkpt lat="43.22425207923281" lon="0.12190634321319907"><ele>353.0</ele><time>2026-05-06T11:15:31Z</time></trkpt><trkpt lat="43.22420043711354" lon="0.12195712160762535"><ele>353.0</ele><time>2026-05-06T11:15:33Z</time></trkpt><trkpt lat="43.22413115924277" lon="0.12205225791254645"><ele>353.0</ele><time>2026-05-06T11:15:36Z</time></trkpt><trkpt lat="43.22408504960909" lon="0.12213326616262181"><ele>353.0</ele><time>2026-05-06T11:15:38Z</time></trkpt><trkpt lat="43.22402329305068" lon="0.12220957797531339"><ele>353.0</ele><time>2026-05-06T11:15:41Z</time></trkpt><trkpt lat="43.22396188896715" lon="0.12225022755498169"><ele>353.0</ele><time>2026-05-06T11:15:44Z</time></trkpt><trkpt lat="43.22388859614273" lon="0.12228698571281398"><ele>353.0</ele><time>2026-05-06T11:15:47Z</time></trkpt><trkpt lat="43.22380412067567" lon="0.12230744908805781"><ele>353.0</ele><time>2026-05-06T11:15:50Z</time></trkpt><trkpt lat="43.22373923002961" lon="0.12233141835434662"><ele>353.0</ele><time>2026-05-06T11:15:53Z</time></trkpt><trkpt lat="43.22365268558152" lon="0.1223399623598203"><ele>353.0</ele><time>2026-05-06T11:15:56Z</time></trkpt><trkpt lat="43.223587773062285" lon="0.12234426267695785"><ele>353.0</ele><time>2026-05-06T11:15:59Z</time></trkpt><trkpt lat="43.223499475311414" lon="0.12238362938054399"><ele>353.0</ele><time>2026-05-06T11:16:02Z</time></trkpt><trkpt lat="43.22343662504192" lon="0.12240642450047316"><ele>353.0</ele><time>2026-05-06T11:16:05Z</time></trkpt><trkpt lat="43.22334903130527" lon="0.12243886530055648"><ele>353.0</ele><time>2026-05-06T11:16:08Z</time></trkpt><trkpt lat="43.22325290951229" lon="0.12245848074891312"><ele>353.0</ele><time>2026-05-06T11:16:12Z</time></trkpt><trkpt lat="43.22318761515232" lon="0.12248969664036219"><ele>353.0</ele><time>2026-05-06T11:16:15Z</time></trkpt><trkpt lat="43.223105367320635" lon="0.12249056091786584"><ele>356.33333333333337</ele><time>2026-05-06T11:16:18Z</time></trkpt><trkpt lat="43.22302987071212" lon="0.12251899721749247"><ele>359.6666666666667</ele><time>2026-05-06T11:16:21Z</time></trkpt><trkpt lat="43.222948740017415" lon="0.12257577401602773"><ele>363.0</ele><time>2026-05-06T11:16:24Z</time></trkpt><trkpt lat="43.22287405413655" lon="0.12261384164039012"><ele>366.3333333333333</ele><time>2026-05-06T11:16:27Z</time></trkpt><trkpt lat="43.22279058347116" lon="0.12262090943110668"><ele>369.66666666666663</ele><time>2026-05-06T11:16:30Z</time></trkpt><trkpt lat="43.22270941004317" lon="0.12264400041859831"><ele>373.0</ele><time>2026-05-06T11:16:33Z</time></trkpt><trkpt lat="43.22263101168035" lon="0.12265128390833681"><ele>373.0</ele><time>2026-05-06T11:16:36Z</time></trkpt><trkpt lat="43.22256094078459" lon="0.12266571731368545"><ele>373.0</ele><time>2026-05-06T11:16:39Z</time></trkpt><trkpt lat="43.22248079629251" lon="0.12272969610038251"><ele>373.0</ele><time>2026-05-06T11:16:42Z</time></trkpt><trkpt lat="43.2224117664228" lon="0.12273637746264388"><ele>373.0</ele><time>2026-05-06T11:16:44Z</time></trkpt><trkpt lat="43.22234865992471" lon="0.12276559051235617"><ele>373.0</ele><time>2026-05-06T11:16:46Z</time></trkpt><trkpt lat="43.222302259956145" lon="0.12282499088084761"><ele>373.0</ele><time>2026-05-06T11:16:48Z</time></trkpt><trkpt lat="43.22228161730502" lon="0.12292090983761574"><ele>373.0</ele><time>2026-05-06T11:16:51Z</time></trkpt><trkpt lat="43.22231518288666" lon="0.1230039917382594"><ele>373.0</ele><time>2026-05-06T11:16:54Z</time></trkpt><trkpt lat="43.2223929747797" lon="0.12303864415377717"><ele>373.0</ele><time>2026-05-06T11:16:57Z</time></trkpt><trkpt lat="43.22247901870824" lon="0.12305897435551168"><ele>373.0</ele><time>2026-05-06T11:17:01Z</time></trkpt><trkpt lat="43.222573036123215" lon="0.12306876871697597"><ele>373.0</ele><time>2026-05-06T11:17:04Z</time></trkpt><trkpt lat="43.22274508879419" lon="0.12308102796718222"><ele>373.0</ele><time>2026-05-06T11:17:12Z</time></trkpt><trkpt lat="43.222812364392716" lon="0.12307916095959896"><ele>373.0</ele><time>2026-05-06T11:17:15Z</time></trkpt><trkpt lat="43.222895515758616" lon="0.12307979317056932"><ele>373.0</ele><time>2026-05-06T11:17:18Z</time></trkpt><trkpt lat="43.222981968469675" lon="0.12309327334704076"><ele>373.0</ele><time>2026-05-06T11:17:21Z</time></trkpt><trkpt lat="43.22307545663066" lon="0.12310669898181197"><ele>373.0</ele><time>2026-05-06T11:17:25Z</time></trkpt><trkpt lat="43.2231668599545" lon="0.12312792999574959"><ele>373.0</ele><time>2026-05-06T11:17:29Z</time></trkpt><trkpt lat="43.22323719996574" lon="0.12314225303146092"><ele>373.0</ele><time>2026-05-06T11:17:32Z</time></trkpt><trkpt lat="43.22332739270687" lon="0.12317202283746002"><ele>373.16666666666663</ele><time>2026-05-06T11:17:35Z</time></trkpt><trkpt lat="43.22339054801982" lon="0.12318903874817798"><ele>373.3333333333333</ele><time>2026-05-06T11:17:38Z</time></trkpt><trkpt lat="43.223492664799394" lon="0.123235209184708"><ele>373.5</ele><time>2026-05-06T11:17:41Z</time></trkpt><trkpt lat="43.22356487729706" lon="0.12325573788701925"><ele>373.6666666666667</ele><time>2026-05-06T11:17:44Z</time></trkpt><trkpt lat="43.22364020943828" lon="0.12330009360129453"><ele>373.83333333333337</ele><time>2026-05-06T11:17:47Z</time></trkpt><trkpt lat="43.22370805976571" lon="0.12335222618136854"><ele>374.0</ele><time>2026-05-06T11:17:50Z</time></trkpt><trkpt lat="43.22378183005073" lon="0.12341536388448415"><ele>375.83333333333337</ele><time>2026-05-06T11:17:53Z</time></trkpt><trkpt lat="43.223837983625224" lon="0.12347264576593056"><ele>377.6666666666667</ele><time>2026-05-06T11:17:56Z</time></trkpt><trkpt lat="43.2239368133551" lon="0.12350152990768636"><ele>379.5</ele><time>2026-05-06T11:17:59Z</time></trkpt><trkpt lat="43.22400449168025" lon="0.12353982323844584"><ele>381.33333333333337</ele><time>2026-05-06T11:18:02Z</time></trkpt><trkpt lat="43.22408699351588" lon="0.12362958029978754"><ele>383.1666666666667</ele><time>2026-05-06T11:18:05Z</time></trkpt><trkpt lat="43.22414467452065" lon="0.1236795684728241"><ele>385.0</ele><time>2026-05-06T11:18:08Z</time></trkpt><trkpt lat="43.22420499551989" lon="0.12372666793314688"><ele>385.00000000000006</ele><time>2026-05-06T11:18:10Z</time></trkpt><trkpt lat="43.22426058907501" lon="0.12377613685516196"><ele>385.0</ele><time>2026-05-06T11:18:12Z</time></trkpt><trkpt lat="43.224325203919506" lon="0.12381264091905145"><ele>385.0</ele><time>2026-05-06T11:18:14Z</time></trkpt><trkpt lat="43.224380883833966" lon="0.12385934961950516"><ele>385.0</ele><time>2026-05-06T11:18:16Z</time></trkpt><trkpt lat="43.22443240042808" lon="0.12393663679318617"><ele>385.00000000000006</ele><time>2026-05-06T11:18:18Z</time></trkpt><trkpt lat="43.22450407736447" lon="0.12402219672641963"><ele>385.0</ele><time>2026-05-06T11:18:20Z</time></trkpt><trkpt lat="43.224574316516666" lon="0.1240784211706536"><ele>385.50000000000006</ele><time>2026-05-06T11:18:22Z</time></trkpt><trkpt lat="43.224632447595404" lon="0.12413192159879413"><ele>386.0</ele><time>2026-05-06T11:18:24Z</time></trkpt><trkpt lat="43.224687888425265" lon="0.12418533155643836"><ele>386.5</ele><time>2026-05-06T11:18:26Z</time></trkpt><trkpt lat="43.22475099404388" lon="0.12424905158148682"><ele>387.0</ele><time>2026-05-06T11:18:28Z</time></trkpt><trkpt lat="43.224824465700095" lon="0.12432430663747408"><ele>387.50000000000006</ele><time>2026-05-06T11:18:31Z</time></trkpt><trkpt lat="43.22490644756067" lon="0.12441129623134099"><ele>388.0</ele><time>2026-05-06T11:18:34Z</time></trkpt><trkpt lat="43.224976884662645" lon="0.12449917165021995"><ele>388.0</ele><time>2026-05-06T11:18:37Z</time></trkpt><trkpt lat="43.22507215939469" lon="0.12461469380208223"><ele>388.0</ele><time>2026-05-06T11:18:39Z</time></trkpt><trkpt lat="43.22517226138707" lon="0.124675273480822"><ele>388.0</ele><time>2026-05-06T11:18:40Z</time></trkpt><trkpt lat="43.22524604133267" lon="0.12476563385483504"><ele>388.0</ele><time>2026-05-06T11:18:42Z</time></trkpt><trkpt lat="43.225325364905636" lon="0.12485998348318374"><ele>388.0</ele><time>2026-05-06T11:18:44Z</time></trkpt><trkpt lat="43.22542138571978" lon="0.12497227581198932"><ele>387.33333333333337</ele><time>2026-05-06T11:18:46Z</time></trkpt><trkpt lat="43.2254706862234" lon="0.12503290114130214"><ele>386.6666666666667</ele><time>2026-05-06T11:18:47Z</time></trkpt><trkpt lat="43.22552060042676" lon="0.1250932508555539"><ele>386.0</ele><time>2026-05-06T11:18:48Z</time></trkpt><trkpt lat="43.22557693791278" lon="0.12515494284142253"><ele>385.33333333333337</ele><time>2026-05-06T11:18:49Z</time></trkpt><trkpt lat="43.22564054953704" lon="0.12521790247678372"><ele>384.6666666666667</ele><time>2026-05-06T11:18:50Z</time></trkpt><trkpt lat="43.22572917322496" lon="0.12527397838854087"><ele>384.0</ele><time>2026-05-06T11:18:51Z</time></trkpt><trkpt lat="43.225794357393745" lon="0.12532393932950509"><ele>384.0</ele><time>2026-05-06T11:18:52Z</time></trkpt><trkpt lat="43.22588217564414" lon="0.12536049008839079"><ele>384.0</ele><time>2026-05-06T11:18:53Z</time></trkpt><trkpt lat="43.22597164013101" lon="0.1253959533358292"><ele>384.0</ele><time>2026-05-06T11:18:54Z</time></trkpt><trkpt lat="43.22606517021594" lon="0.12540052503135785"><ele>384.0</ele><time>2026-05-06T11:18:55Z</time></trkpt><trkpt lat="43.22615409775439" lon="0.12541466516084723"><ele>384.0</ele><time>2026-05-06T11:18:56Z</time></trkpt><trkpt lat="43.226248645698945" lon="0.1254357495816011"><ele>384.0</ele><time>2026-05-06T11:18:57Z</time></trkpt><trkpt lat="43.226342270728864" lon="0.12547116745759346"><ele>384.0</ele><time>2026-05-06T11:18:58Z</time></trkpt><trkpt lat="43.22643930619382" lon="0.1254917087801786"><ele>384.0</ele><time>2026-05-06T11:18:59Z</time></trkpt><trkpt lat="43.2265104699313" lon="0.12555557152657656"><ele>384.0</ele><time>2026-05-06T11:19:00Z</time></trkpt><trkpt lat="43.226612631484144" lon="0.1255784186970331"><ele>384.0</ele><time>2026-05-06T11:19:01Z</time></trkpt><trkpt lat="43.22671072247899" lon="0.1256257236906568"><ele>383.6</ele><time>2026-05-06T11:19:02Z</time></trkpt><trkpt lat="43.226807185278524" lon="0.12568118440873075"><ele>383.2</ele><time>2026-05-06T11:19:03Z</time></trkpt><trkpt lat="43.22690318105075" lon="0.12574452243653994"><ele>382.8</ele><time>2026-05-06T11:19:04Z</time></trkpt><trkpt lat="43.22699743238392" lon="0.12581732386695554"><ele>382.40000000000003</ele><time>2026-05-06T11:19:05Z</time></trkpt><trkpt lat="43.227085820640134" lon="0.12589483002396726"><ele>382.0</ele><time>2026-05-06T11:19:06Z</time></trkpt><trkpt lat="43.2271768992022" lon="0.1259744151792087"><ele>381.20000000000005</ele><time>2026-05-06T11:19:07Z</time></trkpt><trkpt lat="43.227266142039255" lon="0.12606397280751278"><ele>380.4</ele><time>2026-05-06T11:19:08Z</time></trkpt><trkpt lat="43.22734515035538" lon="0.12616929301355273"><ele>379.6</ele><time>2026-05-06T11:19:09Z</time></trkpt><trkpt lat="43.227411781948284" lon="0.12628707334389241"><ele>378.79999999999995</ele><time>2026-05-06T11:19:10Z</time></trkpt><trkpt lat="43.227480386326334" lon="0.12640523901011377"><ele>378.0</ele><time>2026-05-06T11:19:11Z</time></trkpt><trkpt lat="43.22753433661611" lon="0.12653765391623745"><ele>376.2</ele><time>2026-05-06T11:19:12Z</time></trkpt><trkpt lat="43.22758605414915" lon="0.126671363953896"><ele>374.4</ele><time>2026-05-06T11:19:13Z</time></trkpt><trkpt lat="43.227634865039434" lon="0.1268079052919839"><ele>372.59999999999997</ele><time>2026-05-06T11:19:14Z</time></trkpt><trkpt lat="43.2276820440822" lon="0.12694526548701765"><ele>370.79999999999995</ele><time>2026-05-06T11:19:15Z</time></trkpt><trkpt lat="43.22771807187283" lon="0.12708640485900918"><ele>369.0</ele><time>2026-05-06T11:19:16Z</time></trkpt><trkpt lat="43.227749274655835" lon="0.12723102982380752"><ele>369.0</ele><time>2026-05-06T11:19:17Z</time></trkpt><trkpt lat="43.22777357542774" lon="0.12737930304388265"><ele>369.0</ele><time>2026-05-06T11:19:18Z</time></trkpt><trkpt lat="43.227794626846226" lon="0.12752370710124716"><ele>369.0</ele><time>2026-05-06T11:19:19Z</time></trkpt><trkpt lat="43.227816047199646" lon="0.1276717039429493"><ele>369.0</ele><time>2026-05-06T11:19:20Z</time></trkpt><trkpt lat="43.22784374558297" lon="0.1278186176985492"><ele>369.0</ele><time>2026-05-06T11:19:21Z</time></trkpt><trkpt lat="43.22786784102891" lon="0.12796376137862078"><ele>368.0</ele><time>2026-05-06T11:19:22Z</time></trkpt><trkpt lat="43.22789065380182" lon="0.1281104687764179"><ele>367.0</ele><time>2026-05-06T11:19:23Z</time></trkpt><trkpt lat="43.227915131955626" lon="0.12825827188777653"><ele>366.0</ele><time>2026-05-06T11:19:24Z</time></trkpt><trkpt lat="43.22793684608266" lon="0.12839886258482683"><ele>365.0</ele><time>2026-05-06T11:19:25Z</time></trkpt><trkpt lat="43.22796230227849" lon="0.1285465270998207"><ele>364.0</ele><time>2026-05-06T11:19:26Z</time></trkpt><trkpt lat="43.227985342496645" lon="0.12868181280732982"><ele>363.6</ele><time>2026-05-06T11:19:27Z</time></trkpt><trkpt lat="43.22800562159368" lon="0.12882506929244375"><ele>363.2</ele><time>2026-05-06T11:19:28Z</time></trkpt><trkpt lat="43.22802638159341" lon="0.12896470708076174"><ele>362.8</ele><time>2026-05-06T11:19:29Z</time></trkpt><trkpt lat="43.2280452398573" lon="0.12909281692249108"><ele>362.40000000000003</ele><time>2026-05-06T11:19:30Z</time></trkpt><trkpt lat="43.228075251564576" lon="0.12920952547147702"><ele>362.0</ele><time>2026-05-06T11:19:31Z</time></trkpt><trkpt lat="43.22809329031435" lon="0.1293297602556011"><ele>362.0</ele><time>2026-05-06T11:19:32Z</time></trkpt><trkpt lat="43.22811129711099" lon="0.1294586520543684"><ele>362.0</ele><time>2026-05-06T11:19:33Z</time></trkpt><trkpt lat="43.22812605016077" lon="0.12957991135467423"><ele>362.0</ele><time>2026-05-06T11:19:34Z</time></trkpt><trkpt lat="43.22814674208655" lon="0.1297063314179191"><ele>362.0</ele><time>2026-05-06T11:19:35Z</time></trkpt><trkpt lat="43.22816235521525" lon="0.12983192658417297"><ele>362.0</ele><time>2026-05-06T11:19:36Z</time></trkpt><trkpt lat="43.22817855043531" lon="0.1299591917414496"><ele>362.20000000000005</ele><time>2026-05-06T11:19:37Z</time></trkpt><trkpt lat="43.22819650844852" lon="0.1300889045470994"><ele>362.4</ele><time>2026-05-06T11:19:38Z</time></trkpt><trkpt lat="43.22821954313013" lon="0.13021807725121418"><ele>362.6</ele><time>2026-05-06T11:19:39Z</time></trkpt><trkpt lat="43.228235941609725" lon="0.13034801929837697"><ele>362.79999999999995</ele><time>2026-05-06T11:19:40Z</time></trkpt><trkpt lat="43.22826523951865" lon="0.1304834592064414"><ele>363.0</ele><time>2026-05-06T11:19:41Z</time></trkpt><trkpt lat="43.228287229241914" lon="0.13062278544365505"><ele>362.0</ele><time>2026-05-06T11:19:42Z</time></trkpt><trkpt lat="43.22830669213932" lon="0.13075267595087653"><ele>361.0</ele><time>2026-05-06T11:19:43Z</time></trkpt><trkpt lat="43.228327562474284" lon="0.13088487210903652"><ele>360.0</ele><time>2026-05-06T11:19:44Z</time></trkpt><trkpt lat="43.22834905040607" lon="0.13102553009647488"><ele>359.0</ele><time>2026-05-06T11:19:45Z</time></trkpt><trkpt lat="43.228372955098955" lon="0.1311661567791294"><ele>358.0</ele><time>2026-05-06T11:19:46Z</time></trkpt><trkpt lat="43.228397730760236" lon="0.13130755872775376"><ele>358.0</ele><time>2026-05-06T11:19:47Z</time></trkpt><trkpt lat="43.22842419216838" lon="0.1314479945110362"><ele>358.0</ele><time>2026-05-06T11:19:48Z</time></trkpt><trkpt lat="43.22844556377676" lon="0.13159157415802444"><ele>358.0</ele><time>2026-05-06T11:19:49Z</time></trkpt><trkpt lat="43.22846671450166" lon="0.1317356500593233"><ele>358.0</ele><time>2026-05-06T11:19:50Z</time></trkpt><trkpt lat="43.22848832073354" lon="0.1318804062644429"><ele>358.0</ele><time>2026-05-06T11:19:51Z</time></trkpt><trkpt lat="43.22851319021142" lon="0.13202753486062294"><ele>357.4</ele><time>2026-05-06T11:19:52Z</time></trkpt><trkpt lat="43.228538552024226" lon="0.13217403729904265"><ele>356.79999999999995</ele><time>2026-05-06T11:19:53Z</time></trkpt><trkpt lat="43.228558814386936" lon="0.13232445547447455"><ele>356.2</ele><time>2026-05-06T11:19:54Z</time></trkpt><trkpt lat="43.228584498225246" lon="0.13247074147012122"><ele>355.6</ele><time>2026-05-06T11:19:55Z</time></trkpt><trkpt lat="43.228608354605825" lon="0.1326224144321986"><ele>355.0</ele><time>2026-05-06T11:19:56Z</time></trkpt><trkpt lat="43.22863073988264" lon="0.1327726301457285"><ele>354.6</ele><time>2026-05-06T11:19:57Z</time></trkpt><trkpt lat="43.2286578877222" lon="0.13291969578948445"><ele>354.2</ele><time>2026-05-06T11:19:58Z</time></trkpt><trkpt lat="43.22868131254492" lon="0.13306825995389687"><ele>353.79999999999995</ele><time>2026-05-06T11:19:59Z</time></trkpt><trkpt lat="43.228701896736" lon="0.13321908645147518"><ele>353.4</ele><time>2026-05-06T11:20:00Z</time></trkpt><trkpt lat="43.22872693860263" lon="0.1333672254786245"><ele>353.0</ele><time>2026-05-06T11:20:01Z</time></trkpt><trkpt lat="43.228752672292195" lon="0.13351632013923068"><ele>352.4</ele><time>2026-05-06T11:20:02Z</time></trkpt><trkpt lat="43.228778959737724" lon="0.13366574904198714"><ele>351.79999999999995</ele><time>2026-05-06T11:20:03Z</time></trkpt><trkpt lat="43.228799156447074" lon="0.1338183994045282"><ele>351.2</ele><time>2026-05-06T11:20:04Z</time></trkpt><trkpt lat="43.22881887808847" lon="0.13396710467225822"><ele>350.6</ele><time>2026-05-06T11:20:05Z</time></trkpt><trkpt lat="43.22884153767072" lon="0.13411358275309987"><ele>350.0</ele><time>2026-05-06T11:20:06Z</time></trkpt><trkpt lat="43.22886562139" lon="0.1342588051923971"><ele>349.25</ele><time>2026-05-06T11:20:07Z</time></trkpt><trkpt lat="43.228888441518066" lon="0.13440905406857662"><ele>348.5</ele><time>2026-05-06T11:20:08Z</time></trkpt><trkpt lat="43.228910957392685" lon="0.13456074946426744"><ele>347.75</ele><time>2026-05-06T11:20:09Z</time></trkpt><trkpt lat="43.2289311759151" lon="0.1347170100353676"><ele>347.0</ele><time>2026-05-06T11:20:10Z</time></trkpt><trkpt lat="43.22895340849391" lon="0.13486741095801957"><ele>347.0</ele><time>2026-05-06T11:20:11Z</time></trkpt><trkpt lat="43.228975489866954" lon="0.13501645560285516"><ele>347.0</ele><time>2026-05-06T11:20:12Z</time></trkpt><trkpt lat="43.22899717999626" lon="0.13516248067240266"><ele>347.0</ele><time>2026-05-06T11:20:13Z</time></trkpt><trkpt lat="43.22901630346974" lon="0.13531337135841867"><ele>347.0</ele><time>2026-05-06T11:20:14Z</time></trkpt><trkpt lat="43.229035078449925" lon="0.13546198162554546"><ele>347.0</ele><time>2026-05-06T11:20:15Z</time></trkpt><trkpt lat="43.22904453639516" lon="0.1356115275552532"><ele>346.25</ele><time>2026-05-06T11:20:16Z</time></trkpt><trkpt lat="43.229057583140296" lon="0.13576559012956024"><ele>345.5</ele><time>2026-05-06T11:20:17Z</time></trkpt><trkpt lat="43.22907532365979" lon="0.13592254034802742"><ele>344.75</ele><time>2026-05-06T11:20:18Z</time></trkpt><trkpt lat="43.22909161545238" lon="0.13607745374290764"><ele>344.0</ele><time>2026-05-06T11:20:19Z</time></trkpt><trkpt lat="43.22910758775733" lon="0.13623355752079996"><ele>344.0</ele><time>2026-05-06T11:20:20Z</time></trkpt><trkpt lat="43.229121946644796" lon="0.136386415652292"><ele>344.0</ele><time>2026-05-06T11:20:21Z</time></trkpt><trkpt lat="43.229140407579074" lon="0.13653987528707795"><ele>344.0</ele><time>2026-05-06T11:20:22Z</time></trkpt><trkpt lat="43.229158320541984" lon="0.13669154327473362"><ele>344.0</ele><time>2026-05-06T11:20:23Z</time></trkpt><trkpt lat="43.22917173564934" lon="0.136845316253232"><ele>343.25</ele><time>2026-05-06T11:20:24Z</time></trkpt><trkpt lat="43.2291875824512" lon="0.13700031245426242"><ele>342.5</ele><time>2026-05-06T11:20:25Z</time></trkpt><trkpt lat="43.22920752983946" lon="0.13715302234515386"><ele>341.75</ele><time>2026-05-06T11:20:26Z</time></trkpt><trkpt lat="43.229232437322786" lon="0.13731127924891595"><ele>341.0</ele><time>2026-05-06T11:20:27Z</time></trkpt><trkpt lat="43.22924388857674" lon="0.13746270053797457"><ele>340.75</ele><time>2026-05-06T11:20:28Z</time></trkpt><trkpt lat="43.229255389342654" lon="0.13762012302443324"><ele>340.5</ele><time>2026-05-06T11:20:29Z</time></trkpt><trkpt lat="43.22927654990167" lon="0.13777454458556007"><ele>340.25</ele><time>2026-05-06T11:20:30Z</time></trkpt><trkpt lat="43.22929013567702" lon="0.13793365243610461"><ele>340.0</ele><time>2026-05-06T11:20:31Z</time></trkpt><trkpt lat="43.22930614304843" lon="0.13808949101683615"><ele>339.4</ele><time>2026-05-06T11:20:32Z</time></trkpt><trkpt lat="43.22932262824451" lon="0.13824627866632833"><ele>338.8</ele><time>2026-05-06T11:20:33Z</time></trkpt><trkpt lat="43.22933719663205" lon="0.1384003258908394"><ele>338.20000000000005</ele><time>2026-05-06T11:20:34Z</time></trkpt><trkpt lat="43.22935152502808" lon="0.1385488130977321"><ele>337.6</ele><time>2026-05-06T11:20:35Z</time></trkpt><trkpt lat="43.22936534851618" lon="0.13869892573094353"><ele>337.0</ele><time>2026-05-06T11:20:36Z</time></trkpt><trkpt lat="43.229377301076894" lon="0.13884805024950947"><ele>337.0</ele><time>2026-05-06T11:20:37Z</time></trkpt><trkpt lat="43.22939947146698" lon="0.13899618261366964"><ele>337.0</ele><time>2026-05-06T11:20:38Z</time></trkpt><trkpt lat="43.22941415160669" lon="0.1391433012877552"><ele>337.0</ele><time>2026-05-06T11:20:39Z</time></trkpt><trkpt lat="43.22942919419926" lon="0.13928833081501565"><ele>337.0</ele><time>2026-05-06T11:20:40Z</time></trkpt><trkpt lat="43.22944135086326" lon="0.13942144008658572"><ele>337.0</ele><time>2026-05-06T11:20:41Z</time></trkpt><trkpt lat="43.22945548300176" lon="0.13954952567431925"><ele>336.8333333333333</ele><time>2026-05-06T11:20:42Z</time></trkpt><trkpt lat="43.22946625943452" lon="0.13967396084916925"><ele>336.66666666666663</ele><time>2026-05-06T11:20:43Z</time></trkpt><trkpt lat="43.229479464372496" lon="0.1397911649621447"><ele>336.5</ele><time>2026-05-06T11:20:44Z</time></trkpt><trkpt lat="43.22950753926424" lon="0.13990009466943754"><ele>336.3333333333333</ele><time>2026-05-06T11:20:45Z</time></trkpt><trkpt lat="43.22951758489823" lon="0.13999931468194107"><ele>336.1666666666667</ele><time>2026-05-06T11:20:46Z</time></trkpt><trkpt lat="43.229525793689334" lon="0.14008844841287266"><ele>336.0</ele><time>2026-05-06T11:20:47Z</time></trkpt><trkpt lat="43.22953174623067" lon="0.14024615449384603"><ele>337.5</ele><time>2026-05-06T11:20:49Z</time></trkpt><trkpt lat="43.22953994745987" lon="0.1403727153852232"><ele>339.0</ele><time>2026-05-06T11:20:51Z</time></trkpt><trkpt lat="43.229545219368276" lon="0.1404802248566211"><ele>340.5</ele><time>2026-05-06T11:20:53Z</time></trkpt><trkpt lat="43.22955911193111" lon="0.14057996088924815"><ele>342.0</ele><time>2026-05-06T11:20:55Z</time></trkpt><trkpt lat="43.22957321051252" lon="0.1406754721162688"><ele>343.5</ele><time>2026-05-06T11:20:57Z</time></trkpt><trkpt lat="43.229566504074256" lon="0.1407625988842942"><ele>345.0</ele><time>2026-05-06T11:20:59Z</time></trkpt><trkpt lat="43.22956634917251" lon="0.14088229192525423"><ele>346.0</ele><time>2026-05-06T11:21:02Z</time></trkpt><trkpt lat="43.22954915991453" lon="0.14099868320364967"><ele>347.0</ele><time>2026-05-06T11:21:05Z</time></trkpt><trkpt lat="43.22952066093743" lon="0.14110149660522794"><ele>348.0</ele><time>2026-05-06T11:21:09Z</time></trkpt><trkpt lat="43.22947871577012" lon="0.14119014661334212"><ele>349.0</ele><time>2026-05-06T11:21:12Z</time></trkpt><trkpt lat="43.229418901614395" lon="0.14123016225058846"><ele>350.0</ele><time>2026-05-06T11:21:15Z</time></trkpt><trkpt lat="43.229359245491885" lon="0.14126951155929668"><ele>351.0</ele><time>2026-05-06T11:21:18Z</time></trkpt><trkpt lat="43.22929300179025" lon="0.14129102120547857"><ele>352.0</ele><time>2026-05-06T11:21:21Z</time></trkpt><trkpt lat="43.22922225094482" lon="0.14127756649309126"><ele>352.0</ele><time>2026-05-06T11:21:26Z</time></trkpt><trkpt lat="43.22915671266758" lon="0.14125070270764847"><ele>352.0</ele><time>2026-05-06T11:21:29Z</time></trkpt><trkpt lat="43.22906867292171" lon="0.14122276699403657"><ele>352.0</ele><time>2026-05-06T11:21:32Z</time></trkpt><trkpt lat="43.22899005066458" lon="0.14121124370656396"><ele>352.0</ele><time>2026-05-06T11:21:35Z</time></trkpt><trkpt lat="43.228914823998835" lon="0.14120108108637025"><ele>352.0</ele><time>2026-05-06T11:21:38Z</time></trkpt><trkpt lat="43.228842427623604" lon="0.14119929540605441"><ele>352.0</ele><time>2026-05-06T11:21:41Z</time></trkpt><trkpt lat="43.22875882830395" lon="0.14117959177127826"><ele>352.3333333333333</ele><time>2026-05-06T11:21:44Z</time></trkpt><trkpt lat="43.228683014306775" lon="0.14117275574665436"><ele>352.66666666666663</ele><time>2026-05-06T11:21:48Z</time></trkpt><trkpt lat="43.22860582109056" lon="0.1411218479776887"><ele>353.0</ele><time>2026-05-06T11:21:51Z</time></trkpt><trkpt lat="43.22853697435343" lon="0.14113781485598126"><ele>353.3333333333333</ele><time>2026-05-06T11:21:54Z</time></trkpt><trkpt lat="43.228462403922705" lon="0.14112246727390185"><ele>353.6666666666667</ele><time>2026-05-06T11:21:58Z</time></trkpt><trkpt lat="43.22836975769675" lon="0.14111963091223442"><ele>354.0</ele><time>2026-05-06T11:22:01Z</time></trkpt><trkpt lat="43.22830597724154" lon="0.14109047918224923"><ele>354.0</ele><time>2026-05-06T11:22:03Z</time></trkpt><trkpt lat="43.22823198313159" lon="0.1411156543074228"><ele>354.0</ele><time>2026-05-06T11:22:07Z</time></trkpt><trkpt lat="43.22815521554313" lon="0.14113424887581133"><ele>354.0</ele><time>2026-05-06T11:22:10Z</time></trkpt><trkpt lat="43.22807768480338" lon="0.14115152398385836"><ele>354.0</ele><time>2026-05-06T11:22:13Z</time></trkpt><trkpt lat="43.22800879868028" lon="0.14119642339134936"><ele>354.0</ele><time>2026-05-06T11:22:16Z</time></trkpt><trkpt lat="43.227938190994536" lon="0.14123797246198355"><ele>354.0</ele><time>2026-05-06T11:22:19Z</time></trkpt><trkpt lat="43.22787061722652" lon="0.14129648026360025"><ele>353.2857142857143</ele><time>2026-05-06T11:22:22Z</time></trkpt><trkpt lat="43.22781217442045" lon="0.1413684690984484"><ele>352.57142857142856</ele><time>2026-05-06T11:22:25Z</time></trkpt><trkpt lat="43.22775760579963" lon="0.14143038404629843"><ele>351.85714285714283</ele><time>2026-05-06T11:22:28Z</time></trkpt><trkpt lat="43.227702916872836" lon="0.14149744809237222"><ele>351.1428571428571</ele><time>2026-05-06T11:22:31Z</time></trkpt><trkpt lat="43.22765762152336" lon="0.1415789042348211"><ele>350.42857142857144</ele><time>2026-05-06T11:22:34Z</time></trkpt><trkpt lat="43.227614844565586" lon="0.14165779549750745"><ele>349.71428571428567</ele><time>2026-05-06T11:22:37Z</time></trkpt><trkpt lat="43.22756942170762" lon="0.14172127152691927"><ele>349.0</ele><time>2026-05-06T11:22:40Z</time></trkpt><trkpt lat="43.22752502875396" lon="0.14179084359475103"><ele>349.5</ele><time>2026-05-06T11:22:43Z</time></trkpt><trkpt lat="43.227475471301176" lon="0.1418617542449938"><ele>350.0</ele><time>2026-05-06T11:22:47Z</time></trkpt><trkpt lat="43.227421953571806" lon="0.1419284288448426"><ele>350.5</ele><time>2026-05-06T11:22:51Z</time></trkpt><trkpt lat="43.227367217018674" lon="0.1419871035459617"><ele>351.0</ele><time>2026-05-06T11:22:54Z</time></trkpt><trkpt lat="43.22731173693502" lon="0.14206629780458985"><ele>351.5</ele><time>2026-05-06T11:22:58Z</time></trkpt><trkpt lat="43.22726084480108" lon="0.14213419933486032"><ele>352.0</ele><time>2026-05-06T11:23:01Z</time></trkpt><trkpt lat="43.22720392575291" lon="0.1422304546490532"><ele>352.0</ele><time>2026-05-06T11:23:05Z</time></trkpt><trkpt lat="43.22714524425369" lon="0.14231604417497637"><ele>352.0</ele><time>2026-05-06T11:23:09Z</time></trkpt><trkpt lat="43.22708274046073" lon="0.14239544257833578"><ele>352.0</ele><time>2026-05-06T11:23:12Z</time></trkpt><trkpt lat="43.22700695617715" lon="0.14249021699173126"><ele>352.0</ele><time>2026-05-06T11:23:16Z</time></trkpt><trkpt lat="43.22695482256413" lon="0.14254745581840259"><ele>352.0</ele><time>2026-05-06T11:23:19Z</time></trkpt><trkpt lat="43.2269087293794" lon="0.14263541835048557"><ele>352.0</ele><time>2026-05-06T11:23:22Z</time></trkpt><trkpt lat="43.22685260850365" lon="0.14270424980656965"><ele>353.57142857142856</ele><time>2026-05-06T11:23:25Z</time></trkpt><trkpt lat="43.226799478416716" lon="0.14278694365863673"><ele>355.1428571428571</ele><time>2026-05-06T11:23:28Z</time></trkpt><trkpt lat="43.226765892657745" lon="0.1428727804967699"><ele>356.71428571428567</ele><time>2026-05-06T11:23:31Z</time></trkpt><trkpt lat="43.226745752821714" lon="0.1429650432057534"><ele>358.2857142857143</ele><time>2026-05-06T11:23:34Z</time></trkpt><trkpt lat="43.22677843661205" lon="0.14304684088454253"><ele>359.85714285714283</ele><time>2026-05-06T11:23:36Z</time></trkpt><trkpt lat="43.22682581761195" lon="0.14310760097613276"><ele>361.4285714285714</ele><time>2026-05-06T11:23:40Z</time></trkpt><trkpt lat="43.22689381052598" lon="0.1431289890648468"><ele>363.0</ele><time>2026-05-06T11:23:43Z</time></trkpt><trkpt lat="43.22697157531534" lon="0.14308613476431967"><ele>362.99999999999994</ele><time>2026-05-06T11:23:46Z</time></trkpt><trkpt lat="43.227017153580434" lon="0.14301648259415725"><ele>363.0</ele><time>2026-05-06T11:23:48Z</time></trkpt><trkpt lat="43.227082203637636" lon="0.14293908577874412"><ele>363.0</ele><time>2026-05-06T11:23:51Z</time></trkpt><trkpt lat="43.22712239436353" lon="0.14286895625167284"><ele>363.0</ele><time>2026-05-06T11:23:53Z</time></trkpt><trkpt lat="43.227179709410116" lon="0.14281521974607006"><ele>363.0</ele><time>2026-05-06T11:23:56Z</time></trkpt><trkpt lat="43.22722474591488" lon="0.1427235133632207"><ele>362.99999999999994</ele><time>2026-05-06T11:23:59Z</time></trkpt><trkpt lat="43.22728304540326" lon="0.14267422766208654"><ele>363.0</ele><time>2026-05-06T11:24:01Z</time></trkpt><trkpt lat="43.227348188891966" lon="0.1425898484297516"><ele>362.8333333333333</ele><time>2026-05-06T11:24:05Z</time></trkpt><trkpt lat="43.22740940528906" lon="0.1425545594915456"><ele>362.6666666666667</ele><time>2026-05-06T11:24:08Z</time></trkpt><trkpt lat="43.22747848155185" lon="0.14251107826876652"><ele>362.5</ele><time>2026-05-06T11:24:10Z</time></trkpt><trkpt lat="43.2275597214427" lon="0.14247563433539334"><ele>362.33333333333337</ele><time>2026-05-06T11:24:12Z</time></trkpt><trkpt lat="43.22762820586912" lon="0.1424064492957679"><ele>362.1666666666667</ele><time>2026-05-06T11:24:14Z</time></trkpt><trkpt lat="43.2277301122004" lon="0.14237092766124426"><ele>362.0</ele><time>2026-05-06T11:24:16Z</time></trkpt><trkpt lat="43.227810757764416" lon="0.14235418108174186"><ele>362.0</ele><time>2026-05-06T11:24:18Z</time></trkpt><trkpt lat="43.22789115560018" lon="0.14237536091969608"><ele>362.0</ele><time>2026-05-06T11:24:20Z</time></trkpt><trkpt lat="43.22795809339941" lon="0.14241353462978926"><ele>362.0</ele><time>2026-05-06T11:24:22Z</time></trkpt><trkpt lat="43.22800507233379" lon="0.14249650576089565"><ele>362.0</ele><time>2026-05-06T11:24:24Z</time></trkpt><trkpt lat="43.228049289435674" lon="0.14260224610108901"><ele>362.0</ele><time>2026-05-06T11:24:27Z</time></trkpt><trkpt lat="43.22808656469022" lon="0.14270013693033426"><ele>362.0</ele><time>2026-05-06T11:24:30Z</time></trkpt><trkpt lat="43.22810421013565" lon="0.14278721458235916"><ele>364.0</ele><time>2026-05-06T11:24:33Z</time></trkpt><trkpt lat="43.22813846468794" lon="0.14289571895399505"><ele>366.0</ele><time>2026-05-06T11:24:36Z</time></trkpt><trkpt lat="43.22819180407316" lon="0.14298476337885374"><ele>368.0</ele><time>2026-05-06T11:24:39Z</time></trkpt><trkpt lat="43.22825135338724" lon="0.1430882305574887"><ele>370.0</ele><time>2026-05-06T11:24:42Z</time></trkpt><trkpt lat="43.22833479161522" lon="0.14317051279527662"><ele>372.0</ele><time>2026-05-06T11:24:45Z</time></trkpt><trkpt lat="43.22838258042417" lon="0.14323827909804815"><ele>374.0</ele><time>2026-05-06T11:24:47Z</time></trkpt><trkpt lat="43.22845157903344" lon="0.1433218600421001"><ele>376.0</ele><time>2026-05-06T11:24:50Z</time></trkpt><trkpt lat="43.228506936545344" lon="0.14338778199367264"><ele>378.0</ele><time>2026-05-06T11:24:52Z</time></trkpt><trkpt lat="43.228565744082154" lon="0.14343914353248471"><ele>380.0</ele><time>2026-05-06T11:24:54Z</time></trkpt><trkpt lat="43.22861669286296" lon="0.14354279557350852"><ele>382.0</ele><time>2026-05-06T11:24:57Z</time></trkpt><trkpt lat="43.22867622572054" lon="0.14360155779979905"><ele>383.99999999999994</ele><time>2026-05-06T11:24:59Z</time></trkpt><trkpt lat="43.22871220166222" lon="0.14368927452419727"><ele>386.0</ele><time>2026-05-06T11:25:01Z</time></trkpt><trkpt lat="43.22874925321346" lon="0.14377951966440589"><ele>385.99999999999994</ele><time>2026-05-06T11:25:04Z</time></trkpt><trkpt lat="43.22879274220914" lon="0.1438806366494348"><ele>386.0</ele><time>2026-05-06T11:25:07Z</time></trkpt><trkpt lat="43.22882756582939" lon="0.14400538315781986"><ele>386.0</ele><time>2026-05-06T11:25:10Z</time></trkpt><trkpt lat="43.22885283724564" lon="0.14411523938262877"><ele>386.0</ele><time>2026-05-06T11:25:13Z</time></trkpt><trkpt lat="43.22886294983903" lon="0.1442142719530673"><ele>385.99999999999994</ele><time>2026-05-06T11:25:16Z</time></trkpt><trkpt lat="43.22886795571189" lon="0.14430168035054167"><ele>386.0</ele><time>2026-05-06T11:25:18Z</time></trkpt><trkpt lat="43.22887251033755" lon="0.14440895643180615"><ele>386.99999999999994</ele><time>2026-05-06T11:25:21Z</time></trkpt><trkpt lat="43.22887864280673" lon="0.14452190831899134"><ele>388.0</ele><time>2026-05-06T11:25:24Z</time></trkpt><trkpt lat="43.228874205620876" lon="0.14466159121436964"><ele>389.0</ele><time>2026-05-06T11:25:27Z</time></trkpt><trkpt lat="43.22887545296799" lon="0.14476663696777825"><ele>390.0</ele><time>2026-05-06T11:25:30Z</time></trkpt><trkpt lat="43.22887609112616" lon="0.14487444480858647"><ele>390.99999999999994</ele><time>2026-05-06T11:25:32Z</time></trkpt><trkpt lat="43.22886392870906" lon="0.14497253398434162"><ele>392.0</ele><time>2026-05-06T11:25:35Z</time></trkpt><trkpt lat="43.228865873405596" lon="0.14506546524177286"><ele>391.99999999999994</ele><time>2026-05-06T11:25:37Z</time></trkpt><trkpt lat="43.22888031638298" lon="0.14517360471287788"><ele>392.0</ele><time>2026-05-06T11:25:39Z</time></trkpt><trkpt lat="43.22889198345963" lon="0.14527577639850514"><ele>392.0</ele><time>2026-05-06T11:25:42Z</time></trkpt><trkpt lat="43.228884633026695" lon="0.14540807587009644"><ele>392.0</ele><time>2026-05-06T11:25:46Z</time></trkpt><trkpt lat="43.22888355960577" lon="0.1455019263916684"><ele>391.99999999999994</ele><time>2026-05-06T11:25:48Z</time></trkpt><trkpt lat="43.22887243652518" lon="0.14560540157467652"><ele>392.0</ele><time>2026-05-06T11:25:50Z</time></trkpt><trkpt lat="43.22884772368422" lon="0.14569440385969945"><ele>391.40000000000003</ele><time>2026-05-06T11:25:53Z</time></trkpt><trkpt lat="43.22885409337232" lon="0.14580853104418331"><ele>390.8</ele><time>2026-05-06T11:25:56Z</time></trkpt><trkpt lat="43.22886123924095" lon="0.1459428157582515"><ele>390.2</ele><time>2026-05-06T11:25:59Z</time></trkpt><trkpt lat="43.22885575844428" lon="0.14608981118449268"><ele>389.6</ele><time>2026-05-06T11:26:01Z</time></trkpt><trkpt lat="43.22885710150809" lon="0.14623218349796963"><ele>389.0</ele><time>2026-05-06T11:26:03Z</time></trkpt><trkpt lat="43.2288461638991" lon="0.1463783563735281"><ele>389.0</ele><time>2026-05-06T11:26:05Z</time></trkpt><trkpt lat="43.22882725778482" lon="0.14651986686190416"><ele>389.0</ele><time>2026-05-06T11:26:07Z</time></trkpt><trkpt lat="43.228831409102376" lon="0.14660812839766726"><ele>389.0</ele><time>2026-05-06T11:26:08Z</time></trkpt><trkpt lat="43.22882926588459" lon="0.14677392047101392"><ele>389.0</ele><time>2026-05-06T11:26:10Z</time></trkpt><trkpt lat="43.228828967527015" lon="0.1469411030645091"><ele>389.0</ele><time>2026-05-06T11:26:12Z</time></trkpt><trkpt lat="43.22882720632564" lon="0.14702945943811827"><ele>388.16666666666663</ele><time>2026-05-06T11:26:13Z</time></trkpt><trkpt lat="43.22882772613367" lon="0.14712516497775696"><ele>387.3333333333333</ele><time>2026-05-06T11:26:14Z</time></trkpt><trkpt lat="43.22882605087085" lon="0.14722187603937903"><ele>386.5</ele><time>2026-05-06T11:26:15Z</time></trkpt><trkpt lat="43.22882765012335" lon="0.14732290047773305"><ele>385.66666666666663</ele><time>2026-05-06T11:26:16Z</time></trkpt><trkpt lat="43.22882754444635" lon="0.14743113929565949"><ele>384.8333333333333</ele><time>2026-05-06T11:26:17Z</time></trkpt><trkpt lat="43.22882978581849" lon="0.14754205862574196"><ele>384.0</ele><time>2026-05-06T11:26:18Z</time></trkpt><trkpt lat="43.22883360049784" lon="0.14765115335572"><ele>382.6666666666667</ele><time>2026-05-06T11:26:19Z</time></trkpt><trkpt lat="43.228836554817455" lon="0.14776250124616314"><ele>381.3333333333333</ele><time>2026-05-06T11:26:20Z</time></trkpt><trkpt lat="43.228840315327275" lon="0.14787805447569682"><ele>380.0</ele><time>2026-05-06T11:26:21Z</time></trkpt><trkpt lat="43.228841689629604" lon="0.1479949098561578"><ele>378.66666666666663</ele><time>2026-05-06T11:26:22Z</time></trkpt><trkpt lat="43.22884260119463" lon="0.1481149005240396"><ele>377.3333333333333</ele><time>2026-05-06T11:26:23Z</time></trkpt><trkpt lat="43.22884714991855" lon="0.1482386137925603"><ele>376.0</ele><time>2026-05-06T11:26:24Z</time></trkpt><trkpt lat="43.22885280888327" lon="0.14836576851617445"><ele>375.0</ele><time>2026-05-06T11:26:25Z</time></trkpt><trkpt lat="43.22885978906821" lon="0.14849591286375313"><ele>374.0</ele><time>2026-05-06T11:26:26Z</time></trkpt><trkpt lat="43.228863473325156" lon="0.14862920613660163"><ele>373.0</ele><time>2026-05-06T11:26:27Z</time></trkpt><trkpt lat="43.22886981577712" lon="0.14876276182390963"><ele>372.0</ele><time>2026-05-06T11:26:28Z</time></trkpt><trkpt lat="43.22887458255297" lon="0.14889889438486506"><ele>371.0</ele><time>2026-05-06T11:26:29Z</time></trkpt><trkpt lat="43.22887769286451" lon="0.14903646300671203"><ele>370.6</ele><time>2026-05-06T11:26:30Z</time></trkpt><trkpt lat="43.22888290905741" lon="0.14917723091801513"><ele>370.20000000000005</ele><time>2026-05-06T11:26:31Z</time></trkpt><trkpt lat="43.2288876693892" lon="0.14932230668769367"><ele>369.79999999999995</ele><time>2026-05-06T11:26:32Z</time></trkpt><trkpt lat="43.22888871260328" lon="0.14946797824166114"><ele>369.4</ele><time>2026-05-06T11:26:33Z</time></trkpt><trkpt lat="43.22889164766775" lon="0.14961633960665852"><ele>369.0</ele><time>2026-05-06T11:26:34Z</time></trkpt><trkpt lat="43.22889145371313" lon="0.14976790323586928"><ele>368.0</ele><time>2026-05-06T11:26:35Z</time></trkpt><trkpt lat="43.22889008494215" lon="0.14991819356583275"><ele>367.0</ele><time>2026-05-06T11:26:36Z</time></trkpt><trkpt lat="43.22888626140997" lon="0.1500673277970358"><ele>366.0</ele><time>2026-05-06T11:26:37Z</time></trkpt><trkpt lat="43.22888103680361" lon="0.15021500158064238"><ele>365.0</ele><time>2026-05-06T11:26:38Z</time></trkpt><trkpt lat="43.22887265753748" lon="0.15036636516700447"><ele>364.0</ele><time>2026-05-06T11:26:39Z</time></trkpt><trkpt lat="43.228843328652886" lon="0.1505171946237856"><ele>364.0</ele><time>2026-05-06T11:26:40Z</time></trkpt><trkpt lat="43.22882561601148" lon="0.15066548601000415"><ele>364.0</ele><time>2026-05-06T11:26:41Z</time></trkpt><trkpt lat="43.22880770292365" lon="0.15081793987151007"><ele>364.0</ele><time>2026-05-06T11:26:42Z</time></trkpt><trkpt lat="43.228788333623484" lon="0.15097232201513466"><ele>364.0</ele><time>2026-05-06T11:26:43Z</time></trkpt><trkpt lat="43.22878116701174" lon="0.1511259927312773"><ele>364.0</ele><time>2026-05-06T11:26:44Z</time></trkpt><trkpt lat="43.22874001442563" lon="0.15127629268107645"><ele>363.0</ele><time>2026-05-06T11:26:45Z</time></trkpt><trkpt lat="43.228711975658264" lon="0.15143330977227973"><ele>362.0</ele><time>2026-05-06T11:26:46Z</time></trkpt><trkpt lat="43.22868256292373" lon="0.15159050198816432"><ele>361.0</ele><time>2026-05-06T11:26:47Z</time></trkpt><trkpt lat="43.22865364875301" lon="0.15174385744878136"><ele>360.0</ele><time>2026-05-06T11:26:48Z</time></trkpt><trkpt lat="43.22862480869328" lon="0.15189681983375442"><ele>360.0</ele><time>2026-05-06T11:26:49Z</time></trkpt><trkpt lat="43.22859590214232" lon="0.1520501348747398"><ele>360.0</ele><time>2026-05-06T11:26:50Z</time></trkpt><trkpt lat="43.22856815822164" lon="0.15219836888852067"><ele>360.0</ele><time>2026-05-06T11:26:51Z</time></trkpt><trkpt lat="43.228540062434575" lon="0.1523508463676501"><ele>360.0</ele><time>2026-05-06T11:26:52Z</time></trkpt><trkpt lat="43.22852794003418" lon="0.15250697061184657"><ele>360.0</ele><time>2026-05-06T11:26:53Z</time></trkpt><trkpt lat="43.228496454930884" lon="0.15265366137559847"><ele>360.0</ele><time>2026-05-06T11:26:54Z</time></trkpt><trkpt lat="43.22846912565367" lon="0.1528061015010595"><ele>360.0</ele><time>2026-05-06T11:26:55Z</time></trkpt><trkpt lat="43.22844389864262" lon="0.15295642276019156"><ele>360.0</ele><time>2026-05-06T11:26:56Z</time></trkpt><trkpt lat="43.2284166622475" lon="0.15310064296668716"><ele>360.0</ele><time>2026-05-06T11:26:57Z</time></trkpt><trkpt lat="43.22841029416712" lon="0.15325632059232322"><ele>360.0</ele><time>2026-05-06T11:26:58Z</time></trkpt><trkpt lat="43.228407685439045" lon="0.15341014057073807"><ele>360.0</ele><time>2026-05-06T11:26:59Z</time></trkpt><trkpt lat="43.22840316362425" lon="0.1535591645867756"><ele>360.0</ele><time>2026-05-06T11:27:00Z</time></trkpt><trkpt lat="43.228403678253244" lon="0.1537114408600746"><ele>360.0</ele><time>2026-05-06T11:27:01Z</time></trkpt><trkpt lat="43.22840395383097" lon="0.15386860513693412"><ele>360.0</ele><time>2026-05-06T11:27:02Z</time></trkpt><trkpt lat="43.22840018258779" lon="0.15400699914951158"><ele>359.6</ele><time>2026-05-06T11:27:03Z</time></trkpt><trkpt lat="43.22840317590836" lon="0.1541627464892453"><ele>359.2</ele><time>2026-05-06T11:27:04Z</time></trkpt><trkpt lat="43.22840486621925" lon="0.15431130703959"><ele>358.79999999999995</ele><time>2026-05-06T11:27:05Z</time></trkpt><trkpt lat="43.228408527422765" lon="0.15445743431395742"><ele>358.4</ele><time>2026-05-06T11:27:06Z</time></trkpt><trkpt lat="43.22840766406615" lon="0.15459976017685992"><ele>358.0</ele><time>2026-05-06T11:27:07Z</time></trkpt><trkpt lat="43.22841213208112" lon="0.15474358491102058"><ele>357.4</ele><time>2026-05-06T11:27:08Z</time></trkpt><trkpt lat="43.228417156464445" lon="0.15488815748216148"><ele>356.79999999999995</ele><time>2026-05-06T11:27:09Z</time></trkpt><trkpt lat="43.22842558681638" lon="0.1550342096462223"><ele>356.2</ele><time>2026-05-06T11:27:10Z</time></trkpt><trkpt lat="43.228439152818424" lon="0.155180983775544"><ele>355.6</ele><time>2026-05-06T11:27:11Z</time></trkpt><trkpt lat="43.22844910334887" lon="0.15532599504546316"><ele>355.0</ele><time>2026-05-06T11:27:12Z</time></trkpt><trkpt lat="43.22845853861083" lon="0.15546756792513558"><ele>355.0</ele><time>2026-05-06T11:27:13Z</time></trkpt><trkpt lat="43.22847007982515" lon="0.1556099943628825"><ele>355.0</ele><time>2026-05-06T11:27:14Z</time></trkpt><trkpt lat="43.228481213578725" lon="0.1557604575268936"><ele>355.0</ele><time>2026-05-06T11:27:15Z</time></trkpt><trkpt lat="43.22849009338359" lon="0.15590853306229155"><ele>355.0</ele><time>2026-05-06T11:27:16Z</time></trkpt><trkpt lat="43.22850385886941" lon="0.15605580109815262"><ele>355.0</ele><time>2026-05-06T11:27:17Z</time></trkpt><trkpt lat="43.22852241334294" lon="0.1561966594755618"><ele>354.4</ele><time>2026-05-06T11:27:18Z</time></trkpt><trkpt lat="43.228535831364944" lon="0.15634345537711744"><ele>353.8</ele><time>2026-05-06T11:27:19Z</time></trkpt><trkpt lat="43.228550123373914" lon="0.15648749733605027"><ele>353.20000000000005</ele><time>2026-05-06T11:27:20Z</time></trkpt><trkpt lat="43.22855978430998" lon="0.1566329211421836"><ele>352.6</ele><time>2026-05-06T11:27:21Z</time></trkpt><trkpt lat="43.228568195662035" lon="0.15677636220147279"><ele>352.0</ele><time>2026-05-06T11:27:22Z</time></trkpt><trkpt lat="43.22857236660312" lon="0.1569184240429575"><ele>351.40000000000003</ele><time>2026-05-06T11:27:23Z</time></trkpt><trkpt lat="43.22857800792509" lon="0.15705507526675988"><ele>350.8</ele><time>2026-05-06T11:27:24Z</time></trkpt><trkpt lat="43.228583428807475" lon="0.1571944896839194"><ele>350.2</ele><time>2026-05-06T11:27:25Z</time></trkpt><trkpt lat="43.22858830357988" lon="0.15733095156235297"><ele>349.6</ele><time>2026-05-06T11:27:26Z</time></trkpt><trkpt lat="43.228591526427046" lon="0.15746542097803753"><ele>349.0</ele><time>2026-05-06T11:27:27Z</time></trkpt><trkpt lat="43.22859482159826" lon="0.15759851723983473"><ele>348.4</ele><time>2026-05-06T11:27:28Z</time></trkpt><trkpt lat="43.2285963213382" lon="0.15773431571483737"><ele>347.79999999999995</ele><time>2026-05-06T11:27:29Z</time></trkpt><trkpt lat="43.228599428894974" lon="0.1578679240755479"><ele>347.20000000000005</ele><time>2026-05-06T11:27:30Z</time></trkpt><trkpt lat="43.22860070695934" lon="0.15800122113228196"><ele>346.6</ele><time>2026-05-06T11:27:31Z</time></trkpt><trkpt lat="43.22858524882511" lon="0.15814431588528158"><ele>346.0</ele><time>2026-05-06T11:27:32Z</time></trkpt><trkpt lat="43.22860152010903" lon="0.15828107310188824"><ele>346.0</ele><time>2026-05-06T11:27:33Z</time></trkpt><trkpt lat="43.2285909194266" lon="0.15841578160783742"><ele>346.0</ele><time>2026-05-06T11:27:34Z</time></trkpt><trkpt lat="43.22859137653972" lon="0.15855422005493178"><ele>346.0</ele><time>2026-05-06T11:27:35Z</time></trkpt><trkpt lat="43.22858884672575" lon="0.1586910562502822"><ele>346.0</ele><time>2026-05-06T11:27:36Z</time></trkpt><trkpt lat="43.228582024105286" lon="0.15882481682236968"><ele>346.0</ele><time>2026-05-06T11:27:37Z</time></trkpt><trkpt lat="43.22856977731147" lon="0.1589599116153099"><ele>345.8</ele><time>2026-05-06T11:27:38Z</time></trkpt><trkpt lat="43.2285579378085" lon="0.15909596922428035"><ele>345.6</ele><time>2026-05-06T11:27:39Z</time></trkpt><trkpt lat="43.228546002941634" lon="0.15923355600367786"><ele>345.4</ele><time>2026-05-06T11:27:40Z</time></trkpt><trkpt lat="43.22854139505943" lon="0.15936578848665522"><ele>345.2</ele><time>2026-05-06T11:27:41Z</time></trkpt><trkpt lat="43.228527518538975" lon="0.15949983230509412"><ele>345.0</ele><time>2026-05-06T11:27:42Z</time></trkpt><trkpt lat="43.22851844777533" lon="0.15963272373428633"><ele>345.0</ele><time>2026-05-06T11:27:43Z</time></trkpt><trkpt lat="43.22851423165722" lon="0.15976614336130182"><ele>345.0</ele><time>2026-05-06T11:27:44Z</time></trkpt><trkpt lat="43.228504904189606" lon="0.15989817501891848"><ele>345.0</ele><time>2026-05-06T11:27:45Z</time></trkpt><trkpt lat="43.22849622053922" lon="0.16002889427493053"><ele>345.0</ele><time>2026-05-06T11:27:46Z</time></trkpt><trkpt lat="43.22848769943102" lon="0.16015723606611332"><ele>345.0</ele><time>2026-05-06T11:27:47Z</time></trkpt><trkpt lat="43.22847622630937" lon="0.16029071482295923"><ele>344.8</ele><time>2026-05-06T11:27:48Z</time></trkpt><trkpt lat="43.22846106020875" lon="0.16041896388999788"><ele>344.6</ele><time>2026-05-06T11:27:49Z</time></trkpt><trkpt lat="43.22844972030856" lon="0.16055257677816523"><ele>344.4</ele><time>2026-05-06T11:27:50Z</time></trkpt><trkpt lat="43.2284433070549" lon="0.16068305534215305"><ele>344.2</ele><time>2026-05-06T11:27:51Z</time></trkpt><trkpt lat="43.22843132038314" lon="0.1608104061618016"><ele>344.0</ele><time>2026-05-06T11:27:52Z</time></trkpt><trkpt lat="43.228421363216356" lon="0.16093647529201321"><ele>343.6</ele><time>2026-05-06T11:27:53Z</time></trkpt><trkpt lat="43.228410925544246" lon="0.16106395194521642"><ele>343.2</ele><time>2026-05-06T11:27:54Z</time></trkpt><trkpt lat="43.2284012711342" lon="0.16118902643458521"><ele>342.8</ele><time>2026-05-06T11:27:55Z</time></trkpt><trkpt lat="43.22839119908907" lon="0.16131246654000408"><ele>342.40000000000003</ele><time>2026-05-06T11:27:56Z</time></trkpt><trkpt lat="43.22838168811865" lon="0.16143479743701047"><ele>342.0</ele><time>2026-05-06T11:27:57Z</time></trkpt><trkpt lat="43.22837479562576" lon="0.16155780661403427"><ele>341.8333333333333</ele><time>2026-05-06T11:27:58Z</time></trkpt><trkpt lat="43.22836449891806" lon="0.1616802246525322"><ele>341.6666666666667</ele><time>2026-05-06T11:27:59Z</time></trkpt><trkpt lat="43.22835598789188" lon="0.16180329765085172"><ele>341.5</ele><time>2026-05-06T11:28:00Z</time></trkpt><trkpt lat="43.228346175414785" lon="0.1619254602710889"><ele>341.33333333333337</ele><time>2026-05-06T11:28:01Z</time></trkpt><trkpt lat="43.22833368311361" lon="0.16204776461566123"><ele>341.1666666666667</ele><time>2026-05-06T11:28:02Z</time></trkpt><trkpt lat="43.228320212827136" lon="0.162167644643964"><ele>341.0</ele><time>2026-05-06T11:28:03Z</time></trkpt><trkpt lat="43.22831086100577" lon="0.16229053614703495"><ele>341.1666666666667</ele><time>2026-05-06T11:28:04Z</time></trkpt><trkpt lat="43.228302163336046" lon="0.1624115793242684"><ele>341.33333333333337</ele><time>2026-05-06T11:28:05Z</time></trkpt><trkpt lat="43.228294566704" lon="0.1625312008769012"><ele>341.5</ele><time>2026-05-06T11:28:06Z</time></trkpt><trkpt lat="43.228281249842425" lon="0.16265319232866857"><ele>341.6666666666667</ele><time>2026-05-06T11:28:07Z</time></trkpt><trkpt lat="43.22827050155428" lon="0.16277462222616398"><ele>341.8333333333333</ele><time>2026-05-06T11:28:08Z</time></trkpt><trkpt lat="43.228262842268805" lon="0.16289365941054176"><ele>342.0</ele><time>2026-05-06T11:28:09Z</time></trkpt><trkpt lat="43.228255699668495" lon="0.16301337881468342"><ele>342.0</ele><time>2026-05-06T11:28:10Z</time></trkpt><trkpt lat="43.228248380813554" lon="0.16313346701792336"><ele>342.0</ele><time>2026-05-06T11:28:11Z</time></trkpt><trkpt lat="43.22823771240606" lon="0.16325010496355563"><ele>342.0</ele><time>2026-05-06T11:28:12Z</time></trkpt><trkpt lat="43.22822591047457" lon="0.16336364664340203"><ele>342.0</ele><time>2026-05-06T11:28:13Z</time></trkpt><trkpt lat="43.22821666240278" lon="0.16348176897755218"><ele>342.0</ele><time>2026-05-06T11:28:14Z</time></trkpt><trkpt lat="43.22820445133525" lon="0.16359847874736008"><ele>342.0</ele><time>2026-05-06T11:28:15Z</time></trkpt><trkpt lat="43.22819692991061" lon="0.16371109274298004"><ele>342.0</ele><time>2026-05-06T11:28:16Z</time></trkpt><trkpt lat="43.22819168063092" lon="0.1638264258154639"><ele>342.0</ele><time>2026-05-06T11:28:17Z</time></trkpt><trkpt lat="43.22816616475266" lon="0.16393895359253563"><ele>342.0</ele><time>2026-05-06T11:28:18Z</time></trkpt><trkpt lat="43.22815762424844" lon="0.16404191413249983"><ele>342.0</ele><time>2026-05-06T11:28:19Z</time></trkpt><trkpt lat="43.22814859362359" lon="0.16415078332951047"><ele>342.0</ele><time>2026-05-06T11:28:20Z</time></trkpt><trkpt lat="43.22813935442861" lon="0.1642612260109416"><ele>342.0</ele><time>2026-05-06T11:28:21Z</time></trkpt><trkpt lat="43.22814620740362" lon="0.1643660463381896"><ele>340.1666666666667</ele><time>2026-05-06T11:28:22Z</time></trkpt><trkpt lat="43.228140040889514" lon="0.16447359261074881"><ele>338.3333333333333</ele><time>2026-05-06T11:28:23Z</time></trkpt><trkpt lat="43.22812612483342" lon="0.16458156557711484"><ele>336.5</ele><time>2026-05-06T11:28:24Z</time></trkpt><trkpt lat="43.22811694509505" lon="0.16468252123510274"><ele>334.66666666666663</ele><time>2026-05-06T11:28:25Z</time></trkpt><trkpt lat="43.228110273202155" lon="0.16478637985785818"><ele>332.8333333333333</ele><time>2026-05-06T11:28:26Z</time></trkpt><trkpt lat="43.22810208060784" lon="0.16488528101755534"><ele>331.0</ele><time>2026-05-06T11:28:27Z</time></trkpt><trkpt lat="43.22809165877479" lon="0.16498455312606716"><ele>330.8571428571429</ele><time>2026-05-06T11:28:28Z</time></trkpt><trkpt lat="43.2280819427159" lon="0.16508192609467712"><ele>330.7142857142857</ele><time>2026-05-06T11:28:29Z</time></trkpt><trkpt lat="43.22807596740081" lon="0.16517840232306338"><ele>330.57142857142856</ele><time>2026-05-06T11:28:30Z</time></trkpt><trkpt lat="43.228067445075645" lon="0.16527578475641738"><ele>330.42857142857144</ele><time>2026-05-06T11:28:31Z</time></trkpt><trkpt lat="43.22804566011799" lon="0.16536999466627533"><ele>330.2857142857143</ele><time>2026-05-06T11:28:32Z</time></trkpt><trkpt lat="43.22803784863461" lon="0.16546427457253357"><ele>330.14285714285717</ele><time>2026-05-06T11:28:33Z</time></trkpt><trkpt lat="43.22802994028333" lon="0.16555962205343586"><ele>330.0</ele><time>2026-05-06T11:28:34Z</time></trkpt><trkpt lat="43.22802201145619" lon="0.16565521642050585"><ele>330.14285714285717</ele><time>2026-05-06T11:28:35Z</time></trkpt><trkpt lat="43.22801386181616" lon="0.16575347301785887"><ele>330.2857142857143</ele><time>2026-05-06T11:28:36Z</time></trkpt><trkpt lat="43.22800589631967" lon="0.16584950948725474"><ele>330.42857142857144</ele><time>2026-05-06T11:28:37Z</time></trkpt><trkpt lat="43.22799804175931" lon="0.1659442084576499"><ele>330.57142857142856</ele><time>2026-05-06T11:28:38Z</time></trkpt><trkpt lat="43.22799001862022" lon="0.16604093988955565"><ele>330.7142857142857</ele><time>2026-05-06T11:28:39Z</time></trkpt><trkpt lat="43.227982121283546" lon="0.1661361545892039"><ele>330.8571428571429</ele><time>2026-05-06T11:28:40Z</time></trkpt><trkpt lat="43.22797408802342" lon="0.16623300803038044"><ele>331.0</ele><time>2026-05-06T11:28:41Z</time></trkpt><trkpt lat="43.22796600948228" lon="0.16633040744198394"><ele>331.0</ele><time>2026-05-06T11:28:42Z</time></trkpt><trkpt lat="43.22797524652723" lon="0.16642777417170646"><ele>331.0</ele><time>2026-05-06T11:28:43Z</time></trkpt><trkpt lat="43.22796518818544" lon="0.1665211808149559"><ele>331.0</ele><time>2026-05-06T11:28:44Z</time></trkpt><trkpt lat="43.22795877922004" lon="0.16661840362895441"><ele>331.0</ele><time>2026-05-06T11:28:45Z</time></trkpt><trkpt lat="43.22795088608248" lon="0.16671741997967313"><ele>331.0</ele><time>2026-05-06T11:28:46Z</time></trkpt><trkpt lat="43.227946255337926" lon="0.16681722814874395"><ele>331.0</ele><time>2026-05-06T11:28:47Z</time></trkpt><trkpt lat="43.22793684729839" lon="0.16692091843988124"><ele>331.0</ele><time>2026-05-06T11:28:48Z</time></trkpt><trkpt lat="43.227932145689365" lon="0.16702403030918078"><ele>331.16666666666663</ele><time>2026-05-06T11:28:49Z</time></trkpt><trkpt lat="43.22793627654108" lon="0.1671323806118658"><ele>331.3333333333333</ele><time>2026-05-06T11:28:50Z</time></trkpt><trkpt lat="43.22794446125598" lon="0.16724141549153845"><ele>331.5</ele><time>2026-05-06T11:28:51Z</time></trkpt><trkpt lat="43.22795531237755" lon="0.16735644637090225"><ele>331.6666666666667</ele><time>2026-05-06T11:28:52Z</time></trkpt><trkpt lat="43.22796600688173" lon="0.16747323064974887"><ele>331.83333333333337</ele><time>2026-05-06T11:28:53Z</time></trkpt><trkpt lat="43.227969007998254" lon="0.1675897560939995"><ele>332.0</ele><time>2026-05-06T11:28:54Z</time></trkpt><trkpt lat="43.22797696835019" lon="0.16769910663151769"><ele>332.0</ele><time>2026-05-06T11:28:55Z</time></trkpt><trkpt lat="43.22797903895214" lon="0.16782742966880182"><ele>332.0</ele><time>2026-05-06T11:28:56Z</time></trkpt><trkpt lat="43.227969073632345" lon="0.16795678657038265"><ele>332.0</ele><time>2026-05-06T11:28:57Z</time></trkpt><trkpt lat="43.227957715071895" lon="0.16808760770558084"><ele>332.0</ele><time>2026-05-06T11:28:58Z</time></trkpt><trkpt lat="43.227920426695725" lon="0.16821421856941612"><ele>332.0</ele><time>2026-05-06T11:28:59Z</time></trkpt><trkpt lat="43.22788831440939" lon="0.16833913282872282"><ele>331.8</ele><time>2026-05-06T11:29:00Z</time></trkpt><trkpt lat="43.227847450721875" lon="0.16847332194418876"><ele>331.6</ele><time>2026-05-06T11:29:01Z</time></trkpt><trkpt lat="43.227813266871046" lon="0.16861106866879377"><ele>331.40000000000003</ele><time>2026-05-06T11:29:02Z</time></trkpt><trkpt lat="43.227783401244025" lon="0.16875520230445518"><ele>331.20000000000005</ele><time>2026-05-06T11:29:03Z</time></trkpt><trkpt lat="43.227764847134594" lon="0.16890359831616664"><ele>331.0</ele><time>2026-05-06T11:29:04Z</time></trkpt><trkpt lat="43.227756619729455" lon="0.1690401362098044"><ele>330.20000000000005</ele><time>2026-05-06T11:29:05Z</time></trkpt><trkpt lat="43.22776621940108" lon="0.16918003603136897"><ele>329.40000000000003</ele><time>2026-05-06T11:29:06Z</time></trkpt><trkpt lat="43.22778092549114" lon="0.16932385579849865"><ele>328.6</ele><time>2026-05-06T11:29:07Z</time></trkpt><trkpt lat="43.2278005094841" lon="0.16947120471083893"><ele>327.8</ele><time>2026-05-06T11:29:08Z</time></trkpt><trkpt lat="43.22781661937165" lon="0.16961852054035828"><ele>327.0</ele><time>2026-05-06T11:29:09Z</time></trkpt><trkpt lat="43.227835108995635" lon="0.16976362580351023"><ele>326.40000000000003</ele><time>2026-05-06T11:29:10Z</time></trkpt><trkpt lat="43.22784866737388" lon="0.16990956144294447"><ele>325.8</ele><time>2026-05-06T11:29:11Z</time></trkpt><trkpt lat="43.22785907126987" lon="0.17005856597882568"><ele>325.2</ele><time>2026-05-06T11:29:12Z</time></trkpt><trkpt lat="43.22787451524327" lon="0.17020583099932918"><ele>324.6</ele><time>2026-05-06T11:29:13Z</time></trkpt><trkpt lat="43.227893531092306" lon="0.1703519979244169"><ele>324.0</ele><time>2026-05-06T11:29:14Z</time></trkpt><trkpt lat="43.22790663236846" lon="0.1704968859845207"><ele>324.0</ele><time>2026-05-06T11:29:15Z</time></trkpt><trkpt lat="43.22792505171151" lon="0.17064587762495503"><ele>324.0</ele><time>2026-05-06T11:29:16Z</time></trkpt><trkpt lat="43.227943133241915" lon="0.1707973046848693"><ele>324.0</ele><time>2026-05-06T11:29:17Z</time></trkpt><trkpt lat="43.227961478303996" lon="0.170947223314905"><ele>324.0</ele><time>2026-05-06T11:29:18Z</time></trkpt><trkpt lat="43.2279769470556" lon="0.17109578311192786"><ele>324.0</ele><time>2026-05-06T11:29:19Z</time></trkpt><trkpt lat="43.22799092445527" lon="0.17124361671827096"><ele>323.6</ele><time>2026-05-06T11:29:20Z</time></trkpt><trkpt lat="43.22800537685675" lon="0.17138985253045197"><ele>323.2</ele><time>2026-05-06T11:29:21Z</time></trkpt><trkpt lat="43.228019789626856" lon="0.17154094667110348"><ele>322.8</ele><time>2026-05-06T11:29:22Z</time></trkpt><trkpt lat="43.22803314130532" lon="0.1716890940587096"><ele>322.40000000000003</ele><time>2026-05-06T11:29:23Z</time></trkpt><trkpt lat="43.228045951692515" lon="0.17183650241170814"><ele>322.0</ele><time>2026-05-06T11:29:24Z</time></trkpt><trkpt lat="43.22806064400532" lon="0.17198341250865032"><ele>321.40000000000003</ele><time>2026-05-06T11:29:25Z</time></trkpt><trkpt lat="43.22807091925919" lon="0.1721273674966115"><ele>320.8</ele><time>2026-05-06T11:29:26Z</time></trkpt><trkpt lat="43.228086078848555" lon="0.1722695097849764"><ele>320.2</ele><time>2026-05-06T11:29:27Z</time></trkpt><trkpt lat="43.228100820569296" lon="0.17240879772761442"><ele>319.6</ele><time>2026-05-06T11:29:28Z</time></trkpt><trkpt lat="43.228118224833075" lon="0.17255034750686693"><ele>319.0</ele><time>2026-05-06T11:29:29Z</time></trkpt><trkpt lat="43.2281317914715" lon="0.17269209988788728"><ele>318.59999999999997</ele><time>2026-05-06T11:29:30Z</time></trkpt><trkpt lat="43.22814598389005" lon="0.17282637321400568"><ele>318.2</ele><time>2026-05-06T11:29:31Z</time></trkpt><trkpt lat="43.228167211210184" lon="0.1729645151991534"><ele>317.79999999999995</ele><time>2026-05-06T11:29:32Z</time></trkpt><trkpt lat="43.228177432017894" lon="0.1731026871668466"><ele>317.4</ele><time>2026-05-06T11:29:33Z</time></trkpt><trkpt lat="43.22818980029303" lon="0.1732397934610757"><ele>317.0</ele><time>2026-05-06T11:29:34Z</time></trkpt><trkpt lat="43.228205759237056" lon="0.17337928772161507"><ele>316.8</ele><time>2026-05-06T11:29:35Z</time></trkpt><trkpt lat="43.22822051992598" lon="0.17351693923158812"><ele>316.6</ele><time>2026-05-06T11:29:36Z</time></trkpt><trkpt lat="43.22823314351985" lon="0.17365488131936999"><ele>316.40000000000003</ele><time>2026-05-06T11:29:37Z</time></trkpt><trkpt lat="43.22824325510634" lon="0.17378700100983402"><ele>316.2</ele><time>2026-05-06T11:29:38Z</time></trkpt><trkpt lat="43.228252491678425" lon="0.17391808036385634"><ele>316.0</ele><time>2026-05-06T11:29:39Z</time></trkpt><trkpt lat="43.22828224814288" lon="0.17403789757056073"><ele>315.8</ele><time>2026-05-06T11:29:40Z</time></trkpt><trkpt lat="43.228271492608165" lon="0.17418247793931796"><ele>315.6</ele><time>2026-05-06T11:29:41Z</time></trkpt><trkpt lat="43.22828358277365" lon="0.17431528611207597"><ele>315.4</ele><time>2026-05-06T11:29:42Z</time></trkpt><trkpt lat="43.22829768429098" lon="0.17444429043925616"><ele>315.2</ele><time>2026-05-06T11:29:43Z</time></trkpt><trkpt lat="43.22830973465621" lon="0.1745714467952125"><ele>315.0</ele><time>2026-05-06T11:29:44Z</time></trkpt><trkpt lat="43.2283261264276" lon="0.17469638808660212"><ele>315.0</ele><time>2026-05-06T11:29:45Z</time></trkpt><trkpt lat="43.22834219642795" lon="0.17482282026790275"><ele>315.0</ele><time>2026-05-06T11:29:46Z</time></trkpt><trkpt lat="43.228354252884216" lon="0.17495079275643752"><ele>315.0</ele><time>2026-05-06T11:29:47Z</time></trkpt><trkpt lat="43.22836583826375" lon="0.17507695866266132"><ele>315.0</ele><time>2026-05-06T11:29:48Z</time></trkpt><trkpt lat="43.22837812685864" lon="0.17520236566088998"><ele>315.0</ele><time>2026-05-06T11:29:49Z</time></trkpt><trkpt lat="43.22838932146826" lon="0.17532689079450006"><ele>314.8</ele><time>2026-05-06T11:29:50Z</time></trkpt><trkpt lat="43.22840223607914" lon="0.1754502791658634"><ele>314.6</ele><time>2026-05-06T11:29:51Z</time></trkpt><trkpt lat="43.22840657275167" lon="0.17557516091555744"><ele>314.4</ele><time>2026-05-06T11:29:52Z</time></trkpt><trkpt lat="43.228418057617986" lon="0.17569639163224932"><ele>314.2</ele><time>2026-05-06T11:29:53Z</time></trkpt><trkpt lat="43.22842360112726" lon="0.17582202635503583"><ele>314.0</ele><time>2026-05-06T11:29:54Z</time></trkpt><trkpt lat="43.22842192608456" lon="0.17594521604445806"><ele>313.5</ele><time>2026-05-06T11:29:55Z</time></trkpt><trkpt lat="43.228409148251714" lon="0.17606371250819597"><ele>313.0</ele><time>2026-05-06T11:29:56Z</time></trkpt><trkpt lat="43.228397768260606" lon="0.17618768883774558"><ele>312.5</ele><time>2026-05-06T11:29:57Z</time></trkpt><trkpt lat="43.228384913914944" lon="0.17630245659854804"><ele>312.0</ele><time>2026-05-06T11:29:58Z</time></trkpt><trkpt lat="43.22837132975494" lon="0.17642617763031013"><ele>311.5</ele><time>2026-05-06T11:29:59Z</time></trkpt><trkpt lat="43.22835923521055" lon="0.1765476061070033"><ele>311.0</ele><time>2026-05-06T11:30:00Z</time></trkpt><trkpt lat="43.22834785656727" lon="0.17666838697860388"><ele>310.40000000000003</ele><time>2026-05-06T11:30:01Z</time></trkpt><trkpt lat="43.22833826297598" lon="0.1767935329062237"><ele>309.8</ele><time>2026-05-06T11:30:02Z</time></trkpt><trkpt lat="43.22832813642389" lon="0.17691671418570573"><ele>309.20000000000005</ele><time>2026-05-06T11:30:03Z</time></trkpt><trkpt lat="43.22831478208757" lon="0.1770385246832169"><ele>308.6</ele><time>2026-05-06T11:30:04Z</time></trkpt><trkpt lat="43.22830196862201" lon="0.17716307891253572"><ele>308.0</ele><time>2026-05-06T11:30:05Z</time></trkpt><trkpt lat="43.22829504813358" lon="0.1772884076389183"><ele>307.6</ele><time>2026-05-06T11:30:06Z</time></trkpt><trkpt lat="43.228290639055125" lon="0.17741117698708347"><ele>307.20000000000005</ele><time>2026-05-06T11:30:07Z</time></trkpt><trkpt lat="43.22829128177852" lon="0.17753547953998564"><ele>306.8</ele><time>2026-05-06T11:30:08Z</time></trkpt><trkpt lat="43.228290930093976" lon="0.17765836651232852"><ele>306.40000000000003</ele><time>2026-05-06T11:30:09Z</time></trkpt><trkpt lat="43.22829871116944" lon="0.17778210684085544"><ele>306.0</ele><time>2026-05-06T11:30:10Z</time></trkpt><trkpt lat="43.22831183849444" lon="0.17790424115410622"><ele>306.0</ele><time>2026-05-06T11:30:11Z</time></trkpt><trkpt lat="43.22832480461107" lon="0.1780246733558644"><ele>306.0</ele><time>2026-05-06T11:30:12Z</time></trkpt><trkpt lat="43.228334838871675" lon="0.17814621199189307"><ele>306.0</ele><time>2026-05-06T11:30:13Z</time></trkpt><trkpt lat="43.22834587537721" lon="0.17827118576806555"><ele>306.0</ele><time>2026-05-06T11:30:14Z</time></trkpt><trkpt lat="43.22836202012824" lon="0.17839370555700426"><ele>306.0</ele><time>2026-05-06T11:30:15Z</time></trkpt><trkpt lat="43.22838198281878" lon="0.178515991265201"><ele>305.8</ele><time>2026-05-06T11:30:16Z</time></trkpt><trkpt lat="43.22840118821054" lon="0.17864076894559291"><ele>305.6</ele><time>2026-05-06T11:30:17Z</time></trkpt><trkpt lat="43.22843022223577" lon="0.1787617591723743"><ele>305.4</ele><time>2026-05-06T11:30:18Z</time></trkpt><trkpt lat="43.228459137547645" lon="0.17888020222156106"><ele>305.2</ele><time>2026-05-06T11:30:19Z</time></trkpt><trkpt lat="43.2284897020416" lon="0.17899833869147752"><ele>305.0</ele><time>2026-05-06T11:30:20Z</time></trkpt><trkpt lat="43.22851751766462" lon="0.17911407631873497"><ele>305.0</ele><time>2026-05-06T11:30:21Z</time></trkpt><trkpt lat="43.22854948117243" lon="0.1792340136106316"><ele>305.0</ele><time>2026-05-06T11:30:22Z</time></trkpt><trkpt lat="43.228580507378865" lon="0.17934888071913366"><ele>305.0</ele><time>2026-05-06T11:30:23Z</time></trkpt><trkpt lat="43.22861198338419" lon="0.1794636316582228"><ele>305.0</ele><time>2026-05-06T11:30:24Z</time></trkpt><trkpt lat="43.228644972495225" lon="0.17957629675665662"><ele>305.0</ele><time>2026-05-06T11:30:25Z</time></trkpt><trkpt lat="43.22867237311947" lon="0.1796880264726171"><ele>305.0</ele><time>2026-05-06T11:30:26Z</time></trkpt><trkpt lat="43.22869666138887" lon="0.17980547796479557"><ele>304.6666666666667</ele><time>2026-05-06T11:30:27Z</time></trkpt><trkpt lat="43.22872188483512" lon="0.17991412069843754"><ele>304.33333333333337</ele><time>2026-05-06T11:30:28Z</time></trkpt><trkpt lat="43.22875248973713" lon="0.1800252050231811"><ele>304.0</ele><time>2026-05-06T11:30:29Z</time></trkpt><trkpt lat="43.228781639077624" lon="0.18013865237397728"><ele>303.6666666666667</ele><time>2026-05-06T11:30:30Z</time></trkpt><trkpt lat="43.22880820273436" lon="0.18025249728736367"><ele>303.3333333333333</ele><time>2026-05-06T11:30:31Z</time></trkpt><trkpt lat="43.228837330330144" lon="0.18036573446088963"><ele>303.0</ele><time>2026-05-06T11:30:32Z</time></trkpt><trkpt lat="43.228868662353406" lon="0.18047130774151587"><ele>303.0</ele><time>2026-05-06T11:30:33Z</time></trkpt><trkpt lat="43.22890012448933" lon="0.1805769902545903"><ele>303.0</ele><time>2026-05-06T11:30:34Z</time></trkpt><trkpt lat="43.22893175899219" lon="0.18068640452092918"><ele>303.0</ele><time>2026-05-06T11:30:35Z</time></trkpt><trkpt lat="43.22896018087497" lon="0.1807936379092689"><ele>303.0</ele><time>2026-05-06T11:30:36Z</time></trkpt><trkpt lat="43.22899740398465" lon="0.18089467708560714"><ele>303.0</ele><time>2026-05-06T11:30:37Z</time></trkpt><trkpt lat="43.22903020251775" lon="0.18099827598510634"><ele>303.0</ele><time>2026-05-06T11:30:38Z</time></trkpt><trkpt lat="43.22906270641009" lon="0.18110133150275406"><ele>302.6666666666667</ele><time>2026-05-06T11:30:39Z</time></trkpt><trkpt lat="43.229099972697306" lon="0.18120277442328883"><ele>302.3333333333333</ele><time>2026-05-06T11:30:40Z</time></trkpt><trkpt lat="43.229132282762144" lon="0.18130371120568758"><ele>302.0</ele><time>2026-05-06T11:30:41Z</time></trkpt><trkpt lat="43.22916396755666" lon="0.1814069355183932"><ele>301.66666666666663</ele><time>2026-05-06T11:30:42Z</time></trkpt><trkpt lat="43.22919565769986" lon="0.18151532582864396"><ele>301.3333333333333</ele><time>2026-05-06T11:30:43Z</time></trkpt><trkpt lat="43.22922502216278" lon="0.18162521515102042"><ele>301.0</ele><time>2026-05-06T11:30:44Z</time></trkpt><trkpt lat="43.229255072725586" lon="0.1817375673171035"><ele>300.8333333333333</ele><time>2026-05-06T11:30:45Z</time></trkpt><trkpt lat="43.229273023583865" lon="0.181851153174516"><ele>300.66666666666663</ele><time>2026-05-06T11:30:46Z</time></trkpt><trkpt lat="43.22929171990137" lon="0.18196859648322847"><ele>300.5</ele><time>2026-05-06T11:30:47Z</time></trkpt><trkpt lat="43.22931601151379" lon="0.1820787782161226"><ele>300.3333333333333</ele><time>2026-05-06T11:30:48Z</time></trkpt><trkpt lat="43.22933429562629" lon="0.18218941123590562"><ele>300.1666666666667</ele><time>2026-05-06T11:30:49Z</time></trkpt><trkpt lat="43.22935558875264" lon="0.1822979781270461"><ele>300.0</ele><time>2026-05-06T11:30:50Z</time></trkpt><trkpt lat="43.229379928494325" lon="0.18240472239864175"><ele>299.6666666666667</ele><time>2026-05-06T11:30:51Z</time></trkpt><trkpt lat="43.22940468692209" lon="0.18250871653289769"><ele>299.3333333333333</ele><time>2026-05-06T11:30:52Z</time></trkpt><trkpt lat="43.22943254269646" lon="0.18260954696016515"><ele>299.0</ele><time>2026-05-06T11:30:53Z</time></trkpt><trkpt lat="43.22945603507715" lon="0.182709238539705"><ele>298.66666666666663</ele><time>2026-05-06T11:30:54Z</time></trkpt><trkpt lat="43.2294800074651" lon="0.18280679223639099"><ele>298.3333333333333</ele><time>2026-05-06T11:30:55Z</time></trkpt><trkpt lat="43.22950521528284" lon="0.1829019040450881"><ele>298.0</ele><time>2026-05-06T11:30:56Z</time></trkpt><trkpt lat="43.229525664154835" lon="0.18300084616476306"><ele>298.0</ele><time>2026-05-06T11:30:57Z</time></trkpt><trkpt lat="43.22955066936002" lon="0.18309642060771816"><ele>298.0</ele><time>2026-05-06T11:30:58Z</time></trkpt><trkpt lat="43.22957322259501" lon="0.18319795345572126"><ele>298.0</ele><time>2026-05-06T11:30:59Z</time></trkpt><trkpt lat="43.22959335977139" lon="0.18329464613604338"><ele>298.0</ele><time>2026-05-06T11:31:00Z</time></trkpt><trkpt lat="43.22961398819562" lon="0.18338995026276592"><ele>298.0</ele><time>2026-05-06T11:31:01Z</time></trkpt><trkpt lat="43.22962934619686" lon="0.18348267850482025"><ele>298.0</ele><time>2026-05-06T11:31:02Z</time></trkpt><trkpt lat="43.22965223824427" lon="0.18357335596545912"><ele>298.0</ele><time>2026-05-06T11:31:03Z</time></trkpt><trkpt lat="43.22967628740495" lon="0.1836648704951402"><ele>297.8333333333333</ele><time>2026-05-06T11:31:04Z</time></trkpt><trkpt lat="43.22970098536225" lon="0.1837713085329953"><ele>297.66666666666663</ele><time>2026-05-06T11:31:05Z</time></trkpt><trkpt lat="43.229734209862755" lon="0.18387158084049632"><ele>297.5</ele><time>2026-05-06T11:31:06Z</time></trkpt><trkpt lat="43.22976438475852" lon="0.18396941976731815"><ele>297.3333333333333</ele><time>2026-05-06T11:31:07Z</time></trkpt><trkpt lat="43.2297916984995" lon="0.18407260613470358"><ele>297.1666666666667</ele><time>2026-05-06T11:31:08Z</time></trkpt><trkpt lat="43.2298174450551" lon="0.18416379989642184"><ele>297.0</ele><time>2026-05-06T11:31:09Z</time></trkpt><trkpt lat="43.22985008029926" lon="0.18426040256617063"><ele>297.0</ele><time>2026-05-06T11:31:10Z</time></trkpt><trkpt lat="43.229880392948075" lon="0.18435962086646884"><ele>297.0</ele><time>2026-05-06T11:31:11Z</time></trkpt><trkpt lat="43.22991454381981" lon="0.18445357672141002"><ele>297.0</ele><time>2026-05-06T11:31:12Z</time></trkpt><trkpt lat="43.22994053768975" lon="0.18453478127503226"><ele>297.0</ele><time>2026-05-06T11:31:13Z</time></trkpt><trkpt lat="43.22998802500871" lon="0.18467270032143984"><ele>297.0</ele><time>2026-05-06T11:31:15Z</time></trkpt><trkpt lat="43.23001727925488" lon="0.18475122405764707"><ele>297.0</ele><time>2026-05-06T11:31:16Z</time></trkpt><trkpt lat="43.23004243190833" lon="0.18487380363697611"><ele>297.0</ele><time>2026-05-06T11:31:18Z</time></trkpt><trkpt lat="43.23007789367751" lon="0.18495762452765857"><ele>297.0</ele><time>2026-05-06T11:31:21Z</time></trkpt><trkpt lat="43.23008820749949" lon="0.18504804377604916"><ele>297.0</ele><time>2026-05-06T11:34:12Z</time></trkpt><trkpt lat="43.230167348981844" lon="0.18506436731212283"><ele>297.0</ele><time>2026-05-06T11:34:17Z</time></trkpt><trkpt lat="43.23021184075469" lon="0.1851346250533494"><ele>297.0</ele><time>2026-05-06T11:34:19Z</time></trkpt><trkpt lat="43.2302360169066" lon="0.1852425335578681"><ele>297.0</ele><time>2026-05-06T11:34:21Z</time></trkpt><trkpt lat="43.23028622827808" lon="0.18535104436874156"><ele>297.0</ele><time>2026-05-06T11:34:23Z</time></trkpt><trkpt lat="43.23035349122925" lon="0.18546602184037692"><ele>297.0</ele><time>2026-05-06T11:34:25Z</time></trkpt><trkpt lat="43.230424510429785" lon="0.18559651813954522"><ele>297.0</ele><time>2026-05-06T11:34:27Z</time></trkpt><trkpt lat="43.230498995502856" lon="0.18573915841209296"><ele>297.0</ele><time>2026-05-06T11:34:29Z</time></trkpt><trkpt lat="43.230545445097256" lon="0.18581062706227366"><ele>297.0</ele><time>2026-05-06T11:34:30Z</time></trkpt><trkpt lat="43.230588678381935" lon="0.18588172299866654"><ele>297.0</ele><time>2026-05-06T11:34:31Z</time></trkpt><trkpt lat="43.23063418269535" lon="0.18596245773183337"><ele>297.0</ele><time>2026-05-06T11:34:32Z</time></trkpt><trkpt lat="43.23068265286193" lon="0.186040208998651"><ele>297.0</ele><time>2026-05-06T11:34:33Z</time></trkpt><trkpt lat="43.23073433491361" lon="0.18612181578875295"><ele>297.0</ele><time>2026-05-06T11:34:34Z</time></trkpt><trkpt lat="43.230777809883975" lon="0.18620766700184896"><ele>297.0</ele><time>2026-05-06T11:34:35Z</time></trkpt><trkpt lat="43.23082796823671" lon="0.1862990038739599"><ele>297.0</ele><time>2026-05-06T11:34:36Z</time></trkpt><trkpt lat="43.230878364315146" lon="0.18638693462944278"><ele>296.3333333333333</ele><time>2026-05-06T11:34:37Z</time></trkpt><trkpt lat="43.23092953307227" lon="0.18647574050559376"><ele>295.6666666666667</ele><time>2026-05-06T11:34:38Z</time></trkpt><trkpt lat="43.23098144179109" lon="0.1865659274316375"><ele>295.0</ele><time>2026-05-06T11:34:39Z</time></trkpt><trkpt lat="43.23103512179043" lon="0.18666111651499934"><ele>294.33333333333337</ele><time>2026-05-06T11:34:40Z</time></trkpt><trkpt lat="43.23109234947314" lon="0.18675793345243905"><ele>293.6666666666667</ele><time>2026-05-06T11:34:41Z</time></trkpt><trkpt lat="43.23114623834374" lon="0.18685851932125247"><ele>293.0</ele><time>2026-05-06T11:34:42Z</time></trkpt><trkpt lat="43.23120664089223" lon="0.18695673930242906"><ele>292.8</ele><time>2026-05-06T11:34:43Z</time></trkpt><trkpt lat="43.231265731537576" lon="0.18705288208419454"><ele>292.6</ele><time>2026-05-06T11:34:44Z</time></trkpt><trkpt lat="43.23132529485585" lon="0.1871533214539016"><ele>292.4</ele><time>2026-05-06T11:34:45Z</time></trkpt><trkpt lat="43.23138086043745" lon="0.18725525647353297"><ele>292.2</ele><time>2026-05-06T11:34:46Z</time></trkpt><trkpt lat="43.231437956513965" lon="0.1873544661090582"><ele>292.0</ele><time>2026-05-06T11:34:47Z</time></trkpt><trkpt lat="43.23149221474756" lon="0.18745695155112835"><ele>291.0</ele><time>2026-05-06T11:34:48Z</time></trkpt><trkpt lat="43.23155513250963" lon="0.18755184902941502"><ele>290.0</ele><time>2026-05-06T11:34:49Z</time></trkpt><trkpt lat="43.23161478078937" lon="0.18765145483716192"><ele>289.0</ele><time>2026-05-06T11:34:50Z</time></trkpt><trkpt lat="43.23167131198603" lon="0.18775180276878"><ele>288.0</ele><time>2026-05-06T11:34:51Z</time></trkpt><trkpt lat="43.23172930973044" lon="0.18784862989940276"><ele>287.0</ele><time>2026-05-06T11:34:52Z</time></trkpt><trkpt lat="43.2317885219448" lon="0.18794470736302724"><ele>287.0</ele><time>2026-05-06T11:34:53Z</time></trkpt><trkpt lat="43.23184628172787" lon="0.18803868445304867"><ele>287.0</ele><time>2026-05-06T11:34:54Z</time></trkpt><trkpt lat="43.231901606053036" lon="0.1881374025249826"><ele>287.0</ele><time>2026-05-06T11:34:55Z</time></trkpt><trkpt lat="43.231959309615554" lon="0.1882300054852052"><ele>287.0</ele><time>2026-05-06T11:34:56Z</time></trkpt><trkpt lat="43.232015285880834" lon="0.18832281600949483"><ele>287.0</ele><time>2026-05-06T11:34:57Z</time></trkpt><trkpt lat="43.232068922636984" lon="0.18841655742189153"><ele>287.0</ele><time>2026-05-06T11:34:58Z</time></trkpt><trkpt lat="43.232122931228155" lon="0.18850590751355448"><ele>286.83333333333337</ele><time>2026-05-06T11:34:59Z</time></trkpt><trkpt lat="43.23217495439528" lon="0.18859601982819246"><ele>286.6666666666667</ele><time>2026-05-06T11:35:00Z</time></trkpt><trkpt lat="43.232226532623" lon="0.18868506950675848"><ele>286.5</ele><time>2026-05-06T11:35:01Z</time></trkpt><trkpt lat="43.23227685914931" lon="0.18877494924954374"><ele>286.3333333333333</ele><time>2026-05-06T11:35:02Z</time></trkpt><trkpt lat="43.23233619972858" lon="0.18886529865458662"><ele>286.16666666666663</ele><time>2026-05-06T11:35:03Z</time></trkpt><trkpt lat="43.23238463212628" lon="0.1889444954938168"><ele>286.0</ele><time>2026-05-06T11:35:04Z</time></trkpt><trkpt lat="43.232432910180535" lon="0.18902804404028645"><ele>285.99999999999994</ele><time>2026-05-06T11:35:05Z</time></trkpt><trkpt lat="43.23248101163513" lon="0.18911286358549986"><ele>286.0</ele><time>2026-05-06T11:35:06Z</time></trkpt><trkpt lat="43.23252553781635" lon="0.18919459279396705"><ele>286.0</ele><time>2026-05-06T11:35:07Z</time></trkpt><trkpt lat="43.23256917661277" lon="0.1892756996608483"><ele>286.0</ele><time>2026-05-06T11:35:08Z</time></trkpt><trkpt lat="43.23261657127136" lon="0.1893551740235237"><ele>286.0</ele><time>2026-05-06T11:35:09Z</time></trkpt><trkpt lat="43.232658540768405" lon="0.1894339447346542"><ele>285.99999999999994</ele><time>2026-05-06T11:35:10Z</time></trkpt><trkpt lat="43.232700073773586" lon="0.18950852800691045"><ele>286.0</ele><time>2026-05-06T11:35:11Z</time></trkpt><trkpt lat="43.23273627887333" lon="0.18959072705905874"><ele>286.0</ele><time>2026-05-06T11:35:12Z</time></trkpt><trkpt lat="43.23277517045804" lon="0.18966665257997786"><ele>286.0</ele><time>2026-05-06T11:35:13Z</time></trkpt><trkpt lat="43.23282602256448" lon="0.18973984054866874"><ele>286.0</ele><time>2026-05-06T11:35:14Z</time></trkpt><trkpt lat="43.23287381098683" lon="0.189811680327105"><ele>286.0</ele><time>2026-05-06T11:35:15Z</time></trkpt><trkpt lat="43.23291509198442" lon="0.18987850445946491"><ele>286.0</ele><time>2026-05-06T11:35:16Z</time></trkpt><trkpt lat="43.23296242383845" lon="0.18994864338609102"><ele>286.0</ele><time>2026-05-06T11:35:17Z</time></trkpt><trkpt lat="43.233041727916735" lon="0.19008742726458294"><ele>286.2857142857143</ele><time>2026-05-06T11:35:19Z</time></trkpt><trkpt lat="43.233092661482594" lon="0.19015169265850823"><ele>286.57142857142856</ele><time>2026-05-06T11:35:20Z</time></trkpt><trkpt lat="43.23313381136122" lon="0.19023886719922503"><ele>286.8571428571429</ele><time>2026-05-06T11:35:21Z</time></trkpt><trkpt lat="43.233172919385396" lon="0.1903172467258561"><ele>287.1428571428571</ele><time>2026-05-06T11:35:22Z</time></trkpt><trkpt lat="43.23321783224496" lon="0.19040230396355254"><ele>287.42857142857144</ele><time>2026-05-06T11:35:23Z</time></trkpt><trkpt lat="43.23325213791744" lon="0.19048576745780255"><ele>287.7142857142857</ele><time>2026-05-06T11:35:24Z</time></trkpt><trkpt lat="43.23329053718301" lon="0.19055933707234338"><ele>288.0</ele><time>2026-05-06T11:35:25Z</time></trkpt><trkpt lat="43.233363805286544" lon="0.19070330913695488"><ele>288.1666666666667</ele><time>2026-05-06T11:35:27Z</time></trkpt><trkpt lat="43.2334227688676" lon="0.19077571842392888"><ele>288.3333333333333</ele><time>2026-05-06T11:35:28Z</time></trkpt><trkpt lat="43.23348726507212" lon="0.19091277796728723"><ele>288.5</ele><time>2026-05-06T11:35:30Z</time></trkpt><trkpt lat="43.23352224795832" lon="0.19099675870125127"><ele>288.66666666666663</ele><time>2026-05-06T11:35:31Z</time></trkpt><trkpt lat="43.23356177390707" lon="0.19107236145624681"><ele>288.8333333333333</ele><time>2026-05-06T11:35:32Z</time></trkpt><trkpt lat="43.233599227151124" lon="0.1911465300581382"><ele>289.0</ele><time>2026-05-06T11:35:33Z</time></trkpt><trkpt lat="43.23364524055401" lon="0.19120925430787067"><ele>289.0</ele><time>2026-05-06T11:35:34Z</time></trkpt><trkpt lat="43.23370790059973" lon="0.19127995498236644"><ele>289.0</ele><time>2026-05-06T11:35:35Z</time></trkpt><trkpt lat="43.233760331803985" lon="0.19135160793027592"><ele>289.0</ele><time>2026-05-06T11:35:36Z</time></trkpt><trkpt lat="43.23379897902546" lon="0.19143575821334058"><ele>289.0</ele><time>2026-05-06T11:35:37Z</time></trkpt><trkpt lat="43.23383994431362" lon="0.19150912054319927"><ele>289.0</ele><time>2026-05-06T11:35:38Z</time></trkpt><trkpt lat="43.233919322929" lon="0.19165448500766097"><ele>289.0</ele><time>2026-05-06T11:35:40Z</time></trkpt><trkpt lat="43.234010818905155" lon="0.19177190167854727"><ele>288.8</ele><time>2026-05-06T11:35:42Z</time></trkpt><trkpt lat="43.234044224509546" lon="0.1918544064951"><ele>288.59999999999997</ele><time>2026-05-06T11:35:43Z</time></trkpt><trkpt lat="43.234086996028346" lon="0.1919278637686069"><ele>288.4</ele><time>2026-05-06T11:35:44Z</time></trkpt><trkpt lat="43.23417044717395" lon="0.1920640528440804"><ele>288.2</ele><time>2026-05-06T11:35:46Z</time></trkpt><trkpt lat="43.23421151265081" lon="0.1921380826269029"><ele>288.0</ele><time>2026-05-06T11:35:47Z</time></trkpt><trkpt lat="43.234294106441034" lon="0.1922679859478174"><ele>287.6</ele><time>2026-05-06T11:35:49Z</time></trkpt><trkpt lat="43.23433773213937" lon="0.19235201280161085"><ele>287.20000000000005</ele><time>2026-05-06T11:35:50Z</time></trkpt><trkpt lat="43.234407779111166" lon="0.19248499075932723"><ele>286.8</ele><time>2026-05-06T11:35:52Z</time></trkpt><trkpt lat="43.234457454089075" lon="0.19256395047770308"><ele>286.40000000000003</ele><time>2026-05-06T11:35:53Z</time></trkpt><trkpt lat="43.234493320185116" lon="0.19264254009234688"><ele>286.0</ele><time>2026-05-06T11:35:54Z</time></trkpt><trkpt lat="43.23458657661432" lon="0.19276691951376904"><ele>286.0</ele><time>2026-05-06T11:35:56Z</time></trkpt><trkpt lat="43.23462511650504" lon="0.1928624580991184"><ele>286.0</ele><time>2026-05-06T11:35:57Z</time></trkpt><trkpt lat="43.23467386246946" lon="0.19295044211549342"><ele>286.0</ele><time>2026-05-06T11:35:58Z</time></trkpt><trkpt lat="43.234714218806225" lon="0.1930292596691315"><ele>286.0</ele><time>2026-05-06T11:35:59Z</time></trkpt><trkpt lat="43.234767633743985" lon="0.1930983315623335"><ele>286.0</ele><time>2026-05-06T11:36:00Z</time></trkpt><trkpt lat="43.23483265566358" lon="0.1932021888825823"><ele>286.0</ele><time>2026-05-06T11:36:01Z</time></trkpt><trkpt lat="43.23490283514907" lon="0.1933445165812152"><ele>285.71428571428567</ele><time>2026-05-06T11:36:03Z</time></trkpt><trkpt lat="43.23492039194124" lon="0.19343065914705537"><ele>285.42857142857144</ele><time>2026-05-06T11:36:04Z</time></trkpt><trkpt lat="43.23494320290564" lon="0.19351233972319815"><ele>285.1428571428571</ele><time>2026-05-06T11:36:05Z</time></trkpt><trkpt lat="43.234970242747664" lon="0.1936061757981175"><ele>284.85714285714283</ele><time>2026-05-06T11:36:06Z</time></trkpt><trkpt lat="43.2349901030681" lon="0.19371006022835185"><ele>284.57142857142856</ele><time>2026-05-06T11:36:07Z</time></trkpt><trkpt lat="43.235001698512804" lon="0.1938082626984427"><ele>284.2857142857143</ele><time>2026-05-06T11:36:08Z</time></trkpt><trkpt lat="43.23500184982997" lon="0.1939027083270253"><ele>284.0</ele><time>2026-05-06T11:36:09Z</time></trkpt><trkpt lat="43.23500104190445" lon="0.1940054715103967"><ele>283.1428571428571</ele><time>2026-05-06T11:36:10Z</time></trkpt><trkpt lat="43.234994889923" lon="0.19410099030784064"><ele>282.2857142857143</ele><time>2026-05-06T11:36:11Z</time></trkpt><trkpt lat="43.234977748190836" lon="0.19419695329004388"><ele>281.42857142857144</ele><time>2026-05-06T11:36:12Z</time></trkpt><trkpt lat="43.23496557432757" lon="0.19428526608873084"><ele>280.57142857142856</ele><time>2026-05-06T11:36:13Z</time></trkpt><trkpt lat="43.234950865683324" lon="0.19437888565574926"><ele>279.7142857142857</ele><time>2026-05-06T11:36:14Z</time></trkpt><trkpt lat="43.23493817334102" lon="0.19447432218395286"><ele>278.85714285714283</ele><time>2026-05-06T11:36:15Z</time></trkpt><trkpt lat="43.234922610377915" lon="0.1945640221858875"><ele>278.0</ele><time>2026-05-06T11:36:16Z</time></trkpt><trkpt lat="43.23491146812249" lon="0.19465339574170895"><ele>278.0</ele><time>2026-05-06T11:36:17Z</time></trkpt><trkpt lat="43.23490029699727" lon="0.19474262488179236"><ele>278.0</ele><time>2026-05-06T11:36:18Z</time></trkpt><trkpt lat="43.23489032783208" lon="0.19483934666486744"><ele>278.0</ele><time>2026-05-06T11:36:19Z</time></trkpt><trkpt lat="43.23488021983511" lon="0.19493130649585713"><ele>278.0</ele><time>2026-05-06T11:36:20Z</time></trkpt><trkpt lat="43.23487109739117" lon="0.1950236902732887"><ele>278.0</ele><time>2026-05-06T11:36:21Z</time></trkpt><trkpt lat="43.23486601282433" lon="0.19517626468841393"><ele>278.0</ele><time>2026-05-06T11:36:23Z</time></trkpt><trkpt lat="43.234879665838776" lon="0.19533032542031642"><ele>277.8</ele><time>2026-05-06T11:36:25Z</time></trkpt><trkpt lat="43.23489191325688" lon="0.19547983850479492"><ele>277.6</ele><time>2026-05-06T11:36:27Z</time></trkpt><trkpt lat="43.23490940944375" lon="0.19562805780545794"><ele>277.4</ele><time>2026-05-06T11:36:29Z</time></trkpt><trkpt lat="43.23494356237632" lon="0.19576658174241068"><ele>277.2</ele><time>2026-05-06T11:36:31Z</time></trkpt><trkpt lat="43.23497538933222" lon="0.19590128620117495"><ele>277.0</ele><time>2026-05-06T11:36:33Z</time></trkpt><trkpt lat="43.23500677230296" lon="0.1960363718481111"><ele>276.8</ele><time>2026-05-06T11:36:35Z</time></trkpt><trkpt lat="43.235041639831245" lon="0.19617002554489235"><ele>276.6</ele><time>2026-05-06T11:36:37Z</time></trkpt><trkpt lat="43.23507989474989" lon="0.19630470819488896"><ele>276.40000000000003</ele><time>2026-05-06T11:36:39Z</time></trkpt><trkpt lat="43.23511503296766" lon="0.19644760033873723"><ele>276.2</ele><time>2026-05-06T11:36:41Z</time></trkpt><trkpt lat="43.23515729130579" lon="0.1965994748686031"><ele>276.0</ele><time>2026-05-06T11:36:43Z</time></trkpt><trkpt lat="43.23519908632605" lon="0.19675985185231645"><ele>275.75</ele><time>2026-05-06T11:36:45Z</time></trkpt><trkpt lat="43.23524715971264" lon="0.19692232872089402"><ele>275.5</ele><time>2026-05-06T11:36:47Z</time></trkpt><trkpt lat="43.23528866102992" lon="0.19706240853432586"><ele>275.25</ele><time>2026-05-06T11:36:49Z</time></trkpt><trkpt lat="43.2353206734127" lon="0.19719552816085617"><ele>275.0</ele><time>2026-05-06T11:36:51Z</time></trkpt><trkpt lat="43.23523838866722" lon="0.19730211757061533"><ele>274.83333333333337</ele><time>2026-05-06T11:36:54Z</time></trkpt><trkpt lat="43.235183849835416" lon="0.19735188179489355"><ele>274.6666666666667</ele><time>2026-05-06T11:36:56Z</time></trkpt><trkpt lat="43.23512375856509" lon="0.1974317613943512"><ele>274.5</ele><time>2026-05-06T11:36:59Z</time></trkpt><trkpt lat="43.235057423574546" lon="0.19747993010021322"><ele>274.3333333333333</ele><time>2026-05-06T11:37:03Z</time></trkpt><trkpt lat="43.234995769910874" lon="0.19754851329050482"><ele>274.16666666666663</ele><time>2026-05-06T11:37:06Z</time></trkpt><trkpt lat="43.234953695938614" lon="0.1976286970767683"><ele>274.0</ele><time>2026-05-06T11:37:09Z</time></trkpt><trkpt lat="43.2349353101921" lon="0.19774375856520232"><ele>274.00000000000006</ele><time>2026-05-06T11:37:13Z</time></trkpt><trkpt lat="43.23488429097882" lon="0.19765540958325206"><ele>274.0</ele><time>2026-05-06T11:37:16Z</time></trkpt><trkpt lat="43.23484856305943" lon="0.19757443452731677"><ele>274.0</ele><time>2026-05-06T11:37:19Z</time></trkpt><trkpt lat="43.23479618461786" lon="0.19751303098092815"><ele>274.0</ele><time>2026-05-06T11:37:22Z</time></trkpt><trkpt lat="43.234733439717424" lon="0.19743441469266793"><ele>274.0</ele><time>2026-05-06T11:37:26Z</time></trkpt><trkpt lat="43.234700094725866" lon="0.19734499956803342"><ele>274.00000000000006</ele><time>2026-05-06T11:37:30Z</time></trkpt><trkpt lat="43.23463809481774" lon="0.19732516676304862"><ele>274.0</ele><time>2026-05-06T11:37:52Z</time></trkpt><trkpt lat="43.23468718534548" lon="0.19738347154851202"><ele>274.00000000000006</ele><time>2026-05-06T11:53:26Z</time></trkpt><trkpt lat="43.23473471923084" lon="0.1974444308527254"><ele>274.0</ele><time>2026-05-06T11:53:33Z</time></trkpt><trkpt lat="43.234789739245215" lon="0.19750269137303522"><ele>274.0</ele><time>2026-05-06T11:53:40Z</time></trkpt><trkpt lat="43.23485535755912" lon="0.197538620547269"><ele>274.0</ele><time>2026-05-06T11:53:47Z</time></trkpt><trkpt lat="43.23491713188544" lon="0.19755869309297014"><ele>274.0</ele><time>2026-05-06T11:53:53Z</time></trkpt><trkpt lat="43.23497172184003" lon="0.1975020740033675"><ele>274.00000000000006</ele><time>2026-05-06T11:53:59Z</time></trkpt><trkpt lat="43.23501216643203" lon="0.19741830317737463"><ele>274.0</ele><time>2026-05-06T11:54:06Z</time></trkpt><trkpt lat="43.23504186947227" lon="0.19733719975449865"><ele>274.00000000000006</ele><time>2026-05-06T11:54:13Z</time></trkpt><trkpt lat="43.23509023027252" lon="0.19727540631864468"><ele>274.0</ele><time>2026-05-06T11:54:30Z</time></trkpt><trkpt lat="43.23515035107722" lon="0.19723875289534062"><ele>274.0</ele><time>2026-05-06T11:54:37Z</time></trkpt><trkpt lat="43.23512056632381" lon="0.19732376519888842"><ele>274.0</ele><time>2026-05-06T11:55:17Z</time></trkpt><trkpt lat="43.2350543731968" lon="0.19733290164735245"><ele>274.0</ele><time>2026-05-06T11:59:14Z</time></trkpt><trkpt lat="43.234998114146784" lon="0.1973920985825074"><ele>274.00000000000006</ele><time>2026-05-06T11:59:20Z</time></trkpt><trkpt lat="43.234948471584566" lon="0.19745871831364"><ele>274.0</ele><time>2026-05-06T11:59:26Z</time></trkpt><trkpt lat="43.23488479167217" lon="0.19749851293410647"><ele>274.0</ele><time>2026-05-06T11:59:32Z</time></trkpt><trkpt lat="43.234791138940864" lon="0.19744336766573253"><ele>274.0</ele><time>2026-05-06T11:59:53Z</time></trkpt><trkpt lat="43.23473027252599" lon="0.1974097910593589"><ele>274.0</ele><time>2026-05-06T12:00:00Z</time></trkpt><trkpt lat="43.23467774280137" lon="0.19734956950338944"><ele>274.0</ele><time>2026-05-06T12:00:07Z</time></trkpt><trkpt lat="43.23469605719949" lon="0.19744684849075883"><ele>274.0</ele><time>2026-05-06T12:02:53.999Z</time></trkpt><trkpt lat="43.23475179840983" lon="0.19748891341778432"><ele>274.0</ele><time>2026-05-06T12:02:57Z</time></trkpt><trkpt lat="43.234831918314555" lon="0.19755215918991983"><ele>274.00000000000006</ele><time>2026-05-06T12:03:01Z</time></trkpt><trkpt lat="43.234859597476664" lon="0.19763881428750169"><ele>274.0</ele><time>2026-05-06T12:03:04Z</time></trkpt><trkpt lat="43.234912013816256" lon="0.1977235919103129"><ele>274.0</ele><time>2026-05-06T12:03:08Z</time></trkpt><trkpt lat="43.23499282891458" lon="0.19769069731324396"><ele>274.0</ele><time>2026-05-06T12:03:12Z</time></trkpt><trkpt lat="43.235056079023316" lon="0.19767654576456622"><ele>274.0</ele><time>2026-05-06T12:03:15Z</time></trkpt><trkpt lat="43.235119355042606" lon="0.19763352049924326"><ele>274.00000000000006</ele><time>2026-05-06T12:03:18Z</time></trkpt><trkpt lat="43.23514500485769" lon="0.19753061439223363"><ele>274.0</ele><time>2026-05-06T12:03:21Z</time></trkpt><trkpt lat="43.23516547878965" lon="0.1974326295880369"><ele>274.0</ele><time>2026-05-06T12:03:24Z</time></trkpt><trkpt lat="43.235240095834634" lon="0.19736771462364935"><ele>274.0</ele><time>2026-05-06T12:03:27Z</time></trkpt><trkpt lat="43.23531599276063" lon="0.19729290670273084"><ele>274.0</ele><time>2026-05-06T12:03:30Z</time></trkpt><trkpt lat="43.235382155697934" lon="0.1972857849559318"><ele>274.0</ele><time>2026-05-06T12:03:32Z</time></trkpt><trkpt lat="43.23544150595776" lon="0.19736106223351965"><ele>274.0</ele><time>2026-05-06T12:03:34Z</time></trkpt><trkpt lat="43.235481994875" lon="0.19747123443078676"><ele>274.0</ele><time>2026-05-06T12:03:36Z</time></trkpt><trkpt lat="43.23554601413553" lon="0.19757636888554714"><ele>274.0</ele><time>2026-05-06T12:03:38Z</time></trkpt><trkpt lat="43.23558962289724" lon="0.1977139992306381"><ele>274.0</ele><time>2026-05-06T12:03:40Z</time></trkpt><trkpt lat="43.23566314348331" lon="0.19784303590658334"><ele>274.0</ele><time>2026-05-06T12:03:42Z</time></trkpt><trkpt lat="43.235695857906165" lon="0.1979224367258262"><ele>274.0</ele><time>2026-05-06T12:03:43Z</time></trkpt><trkpt lat="43.23573108412555" lon="0.19799475713375517"><ele>274.0</ele><time>2026-05-06T12:03:44Z</time></trkpt><trkpt lat="43.235767205547795" lon="0.19806820352001847"><ele>274.0</ele><time>2026-05-06T12:03:45Z</time></trkpt><trkpt lat="43.235804384274026" lon="0.19814839262160114"><ele>273.3333333333333</ele><time>2026-05-06T12:03:46Z</time></trkpt><trkpt lat="43.23584227915129" lon="0.19822998983033524"><ele>272.66666666666663</ele><time>2026-05-06T12:03:47Z</time></trkpt><trkpt lat="43.23588270100095" lon="0.19831363541352165"><ele>272.0</ele><time>2026-05-06T12:03:48Z</time></trkpt><trkpt lat="43.23592480020997" lon="0.19840296636292004"><ele>271.3333333333333</ele><time>2026-05-06T12:03:49Z</time></trkpt><trkpt lat="43.23596254184021" lon="0.19849288324641423"><ele>270.6666666666667</ele><time>2026-05-06T12:03:50Z</time></trkpt><trkpt lat="43.236006865185445" lon="0.1985835201447418"><ele>270.0</ele><time>2026-05-06T12:03:51Z</time></trkpt><trkpt lat="43.23605466456725" lon="0.1986746922887818"><ele>270.0</ele><time>2026-05-06T12:03:52Z</time></trkpt><trkpt lat="43.236100359689765" lon="0.1987703957496001"><ele>270.0</ele><time>2026-05-06T12:03:53Z</time></trkpt><trkpt lat="43.23615114386266" lon="0.19886896180775343"><ele>270.0</ele><time>2026-05-06T12:03:54Z</time></trkpt><trkpt lat="43.23620525228558" lon="0.19897546884212283"><ele>270.0</ele><time>2026-05-06T12:03:55Z</time></trkpt><trkpt lat="43.23626251470323" lon="0.19908870975819473"><ele>270.0</ele><time>2026-05-06T12:03:56Z</time></trkpt><trkpt lat="43.23632038665577" lon="0.19920447262062455"><ele>270.2</ele><time>2026-05-06T12:03:57Z</time></trkpt><trkpt lat="43.236368378060455" lon="0.19934017882829222"><ele>270.4</ele><time>2026-05-06T12:03:58Z</time></trkpt><trkpt lat="43.23642900237417" lon="0.19946600754931507"><ele>270.6</ele><time>2026-05-06T12:03:59Z</time></trkpt><trkpt lat="43.23648698639032" lon="0.19958635618563958"><ele>270.8</ele><time>2026-05-06T12:04:00Z</time></trkpt><trkpt lat="43.23655421056188" lon="0.19972384466758492"><ele>271.0</ele><time>2026-05-06T12:04:01Z</time></trkpt><trkpt lat="43.236643178210414" lon="0.19987038041955837"><ele>271.0</ele><time>2026-05-06T12:04:03Z</time></trkpt><trkpt lat="43.23669527195671" lon="0.19997818367009623"><ele>271.0</ele><time>2026-05-06T12:04:04Z</time></trkpt><trkpt lat="43.236741275395" lon="0.20009040995286803"><ele>271.0</ele><time>2026-05-06T12:04:05Z</time></trkpt><trkpt lat="43.23679594210819" lon="0.20019778623715442"><ele>271.0</ele><time>2026-05-06T12:04:06Z</time></trkpt><trkpt lat="43.23685409832908" lon="0.20030348507584617"><ele>271.0</ele><time>2026-05-06T12:04:07Z</time></trkpt><trkpt lat="43.23690504416206" lon="0.20041068421008051"><ele>271.0</ele><time>2026-05-06T12:04:08Z</time></trkpt><trkpt lat="43.236956178393875" lon="0.2005149578012085"><ele>271.0</ele><time>2026-05-06T12:04:09Z</time></trkpt><trkpt lat="43.23701033022344" lon="0.2006161626828177"><ele>271.0</ele><time>2026-05-06T12:04:10Z</time></trkpt><trkpt lat="43.23706176975513" lon="0.2007158878345968"><ele>271.0</ele><time>2026-05-06T12:04:11Z</time></trkpt><trkpt lat="43.237113460966" lon="0.20081611801319685"><ele>271.0</ele><time>2026-05-06T12:04:12Z</time></trkpt><trkpt lat="43.23715749542599" lon="0.20091702829953892"><ele>271.0</ele><time>2026-05-06T12:04:13Z</time></trkpt><trkpt lat="43.237211982935484" lon="0.20100850301122408"><ele>272.5</ele><time>2026-05-06T12:04:14Z</time></trkpt><trkpt lat="43.23726795748986" lon="0.20109729512816069"><ele>274.0</ele><time>2026-05-06T12:04:15Z</time></trkpt><trkpt lat="43.23732223929349" lon="0.20118585032404154"><ele>275.5</ele><time>2026-05-06T12:04:16Z</time></trkpt><trkpt lat="43.23737786723632" lon="0.20127348897588465"><ele>277.0</ele><time>2026-05-06T12:04:17Z</time></trkpt><trkpt lat="43.23743562786515" lon="0.20135797969441482"><ele>278.5</ele><time>2026-05-06T12:04:18Z</time></trkpt><trkpt lat="43.23749199039064" lon="0.20143727780673315"><ele>280.0</ele><time>2026-05-06T12:04:19Z</time></trkpt><trkpt lat="43.23755059200428" lon="0.2015123339397538"><ele>277.0</ele><time>2026-05-06T12:04:20Z</time></trkpt><trkpt lat="43.237611506781334" lon="0.20158307908005887"><ele>274.0</ele><time>2026-05-06T12:04:21Z</time></trkpt><trkpt lat="43.237674312947284" lon="0.20165269310084585"><ele>271.0</ele><time>2026-05-06T12:04:22Z</time></trkpt><trkpt lat="43.23773613854233" lon="0.2017179975046247"><ele>268.0</ele><time>2026-05-06T12:04:23Z</time></trkpt><trkpt lat="43.237795706524295" lon="0.2017918425568847"><ele>265.0</ele><time>2026-05-06T12:04:24Z</time></trkpt><trkpt lat="43.23785845263295" lon="0.20185346761859527"><ele>262.0</ele><time>2026-05-06T12:04:25Z</time></trkpt><trkpt lat="43.23791491518327" lon="0.2019319981171062"><ele>262.0</ele><time>2026-05-06T12:04:26Z</time></trkpt><trkpt lat="43.23796564049114" lon="0.20201309770736853"><ele>262.0</ele><time>2026-05-06T12:04:27Z</time></trkpt><trkpt lat="43.23800124432493" lon="0.20211213825770394"><ele>262.0</ele><time>2026-05-06T12:04:28Z</time></trkpt><trkpt lat="43.23805185200028" lon="0.20218932918074017"><ele>262.0</ele><time>2026-05-06T12:04:29Z</time></trkpt><trkpt lat="43.23808146770471" lon="0.20228625319639"><ele>262.0</ele><time>2026-05-06T12:04:29.999Z</time></trkpt><trkpt lat="43.23811814462682" lon="0.20238118461381024"><ele>262.0</ele><time>2026-05-06T12:04:30.999Z</time></trkpt><trkpt lat="43.238152809306314" lon="0.20247364112898236"><ele>263.8333333333333</ele><time>2026-05-06T12:04:31.999Z</time></trkpt><trkpt lat="43.23818642147337" lon="0.20256431193492877"><ele>265.66666666666663</ele><time>2026-05-06T12:04:32.999Z</time></trkpt><trkpt lat="43.23821604663549" lon="0.20266041900658083"><ele>267.5</ele><time>2026-05-06T12:04:33.999Z</time></trkpt><trkpt lat="43.238250592005556" lon="0.2027545010788551"><ele>269.3333333333333</ele><time>2026-05-06T12:04:34.999Z</time></trkpt><trkpt lat="43.23827962958272" lon="0.20284798495119083"><ele>271.1666666666667</ele><time>2026-05-06T12:04:35.999Z</time></trkpt><trkpt lat="43.2383025192823" lon="0.20295806187134033"><ele>273.0</ele><time>2026-05-06T12:04:36.999Z</time></trkpt><trkpt lat="43.23833596010815" lon="0.20305578365965313"><ele>273.0</ele><time>2026-05-06T12:04:37.999Z</time></trkpt><trkpt lat="43.23836533068988" lon="0.20315657868063594"><ele>273.0</ele><time>2026-05-06T12:04:38.999Z</time></trkpt><trkpt lat="43.23838166152329" lon="0.2032539610761653"><ele>273.0</ele><time>2026-05-06T12:04:39.999Z</time></trkpt><trkpt lat="43.238407489729425" lon="0.20336168718515563"><ele>273.0</ele><time>2026-05-06T12:04:40.999Z</time></trkpt><trkpt lat="43.23843242785284" lon="0.2034661943193805"><ele>273.0</ele><time>2026-05-06T12:04:41.999Z</time></trkpt><trkpt lat="43.238457166723904" lon="0.20356417602998556"><ele>273.0</ele><time>2026-05-06T12:04:42.999Z</time></trkpt><trkpt lat="43.23847761332216" lon="0.20366853043588212"><ele>271.1666666666667</ele><time>2026-05-06T12:04:43.999Z</time></trkpt><trkpt lat="43.23850072715145" lon="0.2037714887349506"><ele>269.3333333333333</ele><time>2026-05-06T12:04:44.999Z</time></trkpt><trkpt lat="43.23852105144456" lon="0.20388414052497722"><ele>267.5</ele><time>2026-05-06T12:04:45.999Z</time></trkpt><trkpt lat="43.23855481932253" lon="0.20397922260975002"><ele>265.66666666666663</ele><time>2026-05-06T12:04:46.999Z</time></trkpt><trkpt lat="43.23858440428073" lon="0.20408772257630442"><ele>263.8333333333333</ele><time>2026-05-06T12:04:47.999Z</time></trkpt><trkpt lat="43.23861276587846" lon="0.20419608675396433"><ele>262.0</ele><time>2026-05-06T12:04:48.999Z</time></trkpt><trkpt lat="43.23865167648222" lon="0.20431110684487036"><ele>260.66666666666663</ele><time>2026-05-06T12:04:49.999Z</time></trkpt><trkpt lat="43.238691527695956" lon="0.2043882057256424"><ele>259.3333333333333</ele><time>2026-05-06T12:04:50.999Z</time></trkpt><trkpt lat="43.23872783106939" lon="0.20448904698170162"><ele>258.0</ele><time>2026-05-06T12:04:51.999Z</time></trkpt><trkpt lat="43.23876959943499" lon="0.20459492156195125"><ele>256.6666666666667</ele><time>2026-05-06T12:04:52.999Z</time></trkpt><trkpt lat="43.23881010872627" lon="0.2046821682156847"><ele>255.33333333333334</ele><time>2026-05-06T12:04:53.999Z</time></trkpt><trkpt lat="43.23884962742869" lon="0.20477406366018902"><ele>254.0</ele><time>2026-05-06T12:04:54.999Z</time></trkpt><trkpt lat="43.238894282555385" lon="0.2048712032665392"><ele>253.33333333333334</ele><time>2026-05-06T12:04:55.999Z</time></trkpt><trkpt lat="43.238931898145275" lon="0.20496840844533568"><ele>252.66666666666669</ele><time>2026-05-06T12:04:56.999Z</time></trkpt><trkpt lat="43.23897032008873" lon="0.2050593881266851"><ele>252.0</ele><time>2026-05-06T12:04:57.999Z</time></trkpt><trkpt lat="43.23900730584193" lon="0.20515947757352"><ele>251.33333333333331</ele><time>2026-05-06T12:04:58.999Z</time></trkpt><trkpt lat="43.23904572864592" lon="0.20526408628969767"><ele>250.66666666666666</ele><time>2026-05-06T12:04:59.999Z</time></trkpt><trkpt lat="43.23908250259827" lon="0.2053626253186316"><ele>250.0</ele><time>2026-05-06T12:05:01Z</time></trkpt><trkpt lat="43.23912036218249" lon="0.20546232749874924"><ele>251.66666666666666</ele><time>2026-05-06T12:05:02Z</time></trkpt><trkpt lat="43.23915814723558" lon="0.2055654874840692"><ele>253.33333333333331</ele><time>2026-05-06T12:05:03Z</time></trkpt><trkpt lat="43.23919082907906" lon="0.20566494473047478"><ele>255.0</ele><time>2026-05-06T12:05:04Z</time></trkpt><trkpt lat="43.2392279177944" lon="0.20576780257563082"><ele>256.6666666666667</ele><time>2026-05-06T12:05:05Z</time></trkpt><trkpt lat="43.23926174199413" lon="0.20586921117122575"><ele>258.33333333333337</ele><time>2026-05-06T12:05:06Z</time></trkpt><trkpt lat="43.23929451367379" lon="0.20596774989780262"><ele>260.0</ele><time>2026-05-06T12:05:07Z</time></trkpt><trkpt lat="43.23932955837248" lon="0.20607409296392382"><ele>260.0</ele><time>2026-05-06T12:05:08Z</time></trkpt><trkpt lat="43.23935931954632" lon="0.20618517728905247"><ele>260.0</ele><time>2026-05-06T12:05:09Z</time></trkpt><trkpt lat="43.23938678894777" lon="0.2062868154826076"><ele>260.0</ele><time>2026-05-06T12:05:10Z</time></trkpt><trkpt lat="43.23941895684843" lon="0.20640192392729156"><ele>260.0</ele><time>2026-05-06T12:05:11Z</time></trkpt><trkpt lat="43.23944642405848" lon="0.20650410334690825"><ele>260.0</ele><time>2026-05-06T12:05:12Z</time></trkpt><trkpt lat="43.23947742308943" lon="0.20662133723976536"><ele>260.0</ele><time>2026-05-06T12:05:13Z</time></trkpt><trkpt lat="43.239510590136334" lon="0.2067323748600877"><ele>258.33333333333337</ele><time>2026-05-06T12:05:14Z</time></trkpt><trkpt lat="43.23954155298934" lon="0.20684634450844255"><ele>256.6666666666667</ele><time>2026-05-06T12:05:15Z</time></trkpt><trkpt lat="43.23957864369792" lon="0.20695056188106545"><ele>255.0</ele><time>2026-05-06T12:05:16Z</time></trkpt><trkpt lat="43.23961447057806" lon="0.2070643568410681"><ele>253.33333333333331</ele><time>2026-05-06T12:05:17Z</time></trkpt><trkpt lat="43.23964812521682" lon="0.20717444319919925"><ele>251.66666666666666</ele><time>2026-05-06T12:05:18Z</time></trkpt><trkpt lat="43.239679114036036" lon="0.20728950221439615"><ele>250.0</ele><time>2026-05-06T12:05:19Z</time></trkpt><trkpt lat="43.23970512463668" lon="0.20740675256229632"><ele>249.16666666666666</ele><time>2026-05-06T12:05:20Z</time></trkpt><trkpt lat="43.23972925787215" lon="0.20752578408841413"><ele>248.33333333333331</ele><time>2026-05-06T12:05:21Z</time></trkpt><trkpt lat="43.239749242375176" lon="0.20764445804731588"><ele>247.5</ele><time>2026-05-06T12:05:22Z</time></trkpt><trkpt lat="43.23976953736219" lon="0.20776276945637248"><ele>246.66666666666669</ele><time>2026-05-06T12:05:23Z</time></trkpt><trkpt lat="43.23978501861847" lon="0.2078780553943698"><ele>245.83333333333334</ele><time>2026-05-06T12:05:24Z</time></trkpt><trkpt lat="43.239797811127445" lon="0.20799269936417517"><ele>245.0</ele><time>2026-05-06T12:05:25Z</time></trkpt><trkpt lat="43.23981793698579" lon="0.20810759768604148"><ele>247.33333333333334</ele><time>2026-05-06T12:05:26Z</time></trkpt><trkpt lat="43.23983585153946" lon="0.20822139354688332"><ele>249.66666666666669</ele><time>2026-05-06T12:05:27Z</time></trkpt><trkpt lat="43.239866504600805" lon="0.20833254388700337"><ele>252.0</ele><time>2026-05-06T12:05:28Z</time></trkpt><trkpt lat="43.23989114390906" lon="0.2084437169333475"><ele>254.33333333333331</ele><time>2026-05-06T12:05:29Z</time></trkpt><trkpt lat="43.23991318994453" lon="0.20856211433743202"><ele>256.66666666666663</ele><time>2026-05-06T12:05:30Z</time></trkpt><trkpt lat="43.23993458151899" lon="0.2086732861016773"><ele>259.0</ele><time>2026-05-06T12:05:31Z</time></trkpt><trkpt lat="43.23995487306828" lon="0.20878805624883018"><ele>259.0</ele><time>2026-05-06T12:05:32Z</time></trkpt><trkpt lat="43.2399773115275" lon="0.20890042089253863"><ele>259.0</ele><time>2026-05-06T12:05:33Z</time></trkpt><trkpt lat="43.23999587149671" lon="0.20901598723069537"><ele>259.0</ele><time>2026-05-06T12:05:34Z</time></trkpt><trkpt lat="43.24001081669059" lon="0.20913005179510427"><ele>259.0</ele><time>2026-05-06T12:05:35Z</time></trkpt><trkpt lat="43.24002928350095" lon="0.20924604997085175"><ele>259.0</ele><time>2026-05-06T12:05:36Z</time></trkpt><trkpt lat="43.24004318201985" lon="0.20935996060176842"><ele>259.0</ele><time>2026-05-06T12:05:37Z</time></trkpt><trkpt lat="43.240060280342476" lon="0.20947290888252781"><ele>257.3333333333333</ele><time>2026-05-06T12:05:38Z</time></trkpt><trkpt lat="43.24007714724281" lon="0.20958777039979962"><ele>255.66666666666666</ele><time>2026-05-06T12:05:39Z</time></trkpt><trkpt lat="43.240097099349235" lon="0.20970363604674153"><ele>254.0</ele><time>2026-05-06T12:05:40Z</time></trkpt><trkpt lat="43.24011501274774" lon="0.20982225829277867"><ele>252.33333333333331</ele><time>2026-05-06T12:05:41Z</time></trkpt><trkpt lat="43.240132165926575" lon="0.20994373956824203"><ele>250.66666666666666</ele><time>2026-05-06T12:05:42Z</time></trkpt><trkpt lat="43.240148303924414" lon="0.2100652001661579"><ele>249.0</ele><time>2026-05-06T12:05:43Z</time></trkpt><trkpt lat="43.2401687500688" lon="0.2101852852960809"><ele>248.2</ele><time>2026-05-06T12:05:44Z</time></trkpt><trkpt lat="43.240190184702165" lon="0.21031238208277758"><ele>247.39999999999998</ele><time>2026-05-06T12:05:45Z</time></trkpt><trkpt lat="43.24020929540392" lon="0.21043493110673406"><ele>246.6</ele><time>2026-05-06T12:05:46Z</time></trkpt><trkpt lat="43.24023310296395" lon="0.21055889554457372"><ele>245.8</ele><time>2026-05-06T12:05:47Z</time></trkpt><trkpt lat="43.24025384067403" lon="0.210681843862568"><ele>245.0</ele><time>2026-05-06T12:05:48Z</time></trkpt><trkpt lat="43.240271629740846" lon="0.21080357549770262"><ele>244.6</ele><time>2026-05-06T12:05:49Z</time></trkpt><trkpt lat="43.24029569825775" lon="0.21093190787194385"><ele>244.2</ele><time>2026-05-06T12:05:50Z</time></trkpt><trkpt lat="43.24031690645247" lon="0.21106022841200983"><ele>243.8</ele><time>2026-05-06T12:05:51Z</time></trkpt><trkpt lat="43.240337296918355" lon="0.21118967922491344"><ele>243.4</ele><time>2026-05-06T12:05:52Z</time></trkpt><trkpt lat="43.24035447280885" lon="0.21131135918862584"><ele>243.0</ele><time>2026-05-06T12:05:53Z</time></trkpt><trkpt lat="43.240374706425435" lon="0.2114401170221803"><ele>242.2</ele><time>2026-05-06T12:05:54Z</time></trkpt><trkpt lat="43.240396172457125" lon="0.21157178748650599"><ele>241.4</ele><time>2026-05-06T12:05:55Z</time></trkpt><trkpt lat="43.240415825258985" lon="0.21170455460715873"><ele>240.59999999999997</ele><time>2026-05-06T12:05:56Z</time></trkpt><trkpt lat="43.24043601346382" lon="0.21183111054323575"><ele>239.79999999999998</ele><time>2026-05-06T12:05:57Z</time></trkpt><trkpt lat="43.2404567740945" lon="0.21197063396688187"><ele>239.0</ele><time>2026-05-06T12:05:58Z</time></trkpt><trkpt lat="43.240476498514845" lon="0.21210710366296165"><ele>239.0</ele><time>2026-05-06T12:05:59Z</time></trkpt><trkpt lat="43.240498331800914" lon="0.21223780635700729"><ele>238.99999999999997</ele><time>2026-05-06T12:06:00Z</time></trkpt><trkpt lat="43.2405189151647" lon="0.21237663539188142"><ele>238.99999999999997</ele><time>2026-05-06T12:06:01Z</time></trkpt><trkpt lat="43.240533967308174" lon="0.2125103938638198"><ele>239.0</ele><time>2026-05-06T12:06:02Z</time></trkpt><trkpt lat="43.24054507923966" lon="0.21264083987581342"><ele>239.0</ele><time>2026-05-06T12:06:03Z</time></trkpt><trkpt lat="43.2405583249181" lon="0.2127694364686708"><ele>238.6</ele><time>2026-05-06T12:06:04Z</time></trkpt><trkpt lat="43.24057192970119" lon="0.2129059636802649"><ele>238.2</ele><time>2026-05-06T12:06:05Z</time></trkpt><trkpt lat="43.240567728910904" lon="0.2130371335347049"><ele>237.79999999999998</ele><time>2026-05-06T12:06:06Z</time></trkpt><trkpt lat="43.240574252705194" lon="0.21316350472984466"><ele>237.39999999999998</ele><time>2026-05-06T12:06:07Z</time></trkpt><trkpt lat="43.24058068485717" lon="0.21329693014617304"><ele>237.0</ele><time>2026-05-06T12:06:08Z</time></trkpt><trkpt lat="43.240586528256884" lon="0.21341814279115615"><ele>237.2</ele><time>2026-05-06T12:06:09Z</time></trkpt><trkpt lat="43.24059300217554" lon="0.2135524344671508"><ele>237.39999999999998</ele><time>2026-05-06T12:06:10Z</time></trkpt><trkpt lat="43.24059900314787" lon="0.21367691584801585"><ele>237.60000000000002</ele><time>2026-05-06T12:06:11Z</time></trkpt><trkpt lat="43.2406051783668" lon="0.21380501164156443"><ele>237.8</ele><time>2026-05-06T12:06:12Z</time></trkpt><trkpt lat="43.24061131682977" lon="0.2139323448584879"><ele>238.0</ele><time>2026-05-06T12:06:13Z</time></trkpt><trkpt lat="43.24063298497423" lon="0.21405644523168135"><ele>238.0</ele><time>2026-05-06T12:06:14Z</time></trkpt><trkpt lat="43.24062324843174" lon="0.21417984817156274"><ele>238.0</ele><time>2026-05-06T12:06:15Z</time></trkpt><trkpt lat="43.240629299810216" lon="0.21430537502590322"><ele>238.0</ele><time>2026-05-06T12:06:16Z</time></trkpt><trkpt lat="43.24063535890826" lon="0.2144308433970316"><ele>238.0</ele><time>2026-05-06T12:06:17Z</time></trkpt><trkpt lat="43.24064136885598" lon="0.21455198860074803"><ele>238.0</ele><time>2026-05-06T12:06:18Z</time></trkpt><trkpt lat="43.24066394657504" lon="0.21467578047768804"><ele>237.99999999999997</ele><time>2026-05-06T12:06:19Z</time></trkpt><trkpt lat="43.240653576512834" lon="0.21479806384239872"><ele>238.0</ele><time>2026-05-06T12:06:20Z</time></trkpt><trkpt lat="43.240660025981924" lon="0.21492806882599957"><ele>238.0</ele><time>2026-05-06T12:06:21Z</time></trkpt><trkpt lat="43.240665711201956" lon="0.21504266836696007"><ele>238.0</ele><time>2026-05-06T12:06:22Z</time></trkpt><trkpt lat="43.2406716489086" lon="0.21516210372669822"><ele>237.99999999999997</ele><time>2026-05-06T12:06:23Z</time></trkpt><trkpt lat="43.240677873906186" lon="0.215284157714283"><ele>238.0</ele><time>2026-05-06T12:06:24Z</time></trkpt><trkpt lat="43.24068385365298" lon="0.21540140318945333"><ele>237.83333333333331</ele><time>2026-05-06T12:06:25Z</time></trkpt><trkpt lat="43.24068986822192" lon="0.21551933123359132"><ele>237.66666666666666</ele><time>2026-05-06T12:06:26Z</time></trkpt><trkpt lat="43.24071155760364" lon="0.21562966011651336"><ele>237.5</ele><time>2026-05-06T12:06:27Z</time></trkpt><trkpt lat="43.24071676535124" lon="0.21574354472888718"><ele>237.33333333333331</ele><time>2026-05-06T12:06:28Z</time></trkpt><trkpt lat="43.24072193894539" lon="0.2158573991107421"><ele>237.16666666666666</ele><time>2026-05-06T12:06:29Z</time></trkpt><trkpt lat="43.24072717391205" lon="0.2159709379422454"><ele>237.0</ele><time>2026-05-06T12:06:30Z</time></trkpt><trkpt lat="43.24073373354592" lon="0.21608559094193078"><ele>237.0</ele><time>2026-05-06T12:06:31Z</time></trkpt><trkpt lat="43.24073950764047" lon="0.21619478084703084"><ele>237.0</ele><time>2026-05-06T12:06:32Z</time></trkpt><trkpt lat="43.24074624927868" lon="0.2163099425805048"><ele>237.0</ele><time>2026-05-06T12:06:33Z</time></trkpt><trkpt lat="43.240751248600525" lon="0.2164236044226103"><ele>237.0</ele><time>2026-05-06T12:06:34Z</time></trkpt><trkpt lat="43.240755249944186" lon="0.21653964451818705"><ele>237.0</ele><time>2026-05-06T12:06:35Z</time></trkpt><trkpt lat="43.24076211369938" lon="0.21665056863877602"><ele>237.0</ele><time>2026-05-06T12:06:36Z</time></trkpt><trkpt lat="43.24076854885344" lon="0.2167683690030735"><ele>237.0</ele><time>2026-05-06T12:06:37Z</time></trkpt><trkpt lat="43.2407719786622" lon="0.21687597847464188"><ele>237.0</ele><time>2026-05-06T12:06:38Z</time></trkpt><trkpt lat="43.2407770574186" lon="0.21698631365953963"><ele>237.0</ele><time>2026-05-06T12:06:39Z</time></trkpt><trkpt lat="43.24078110503015" lon="0.2170990772541069"><ele>237.0</ele><time>2026-05-06T12:06:40Z</time></trkpt><trkpt lat="43.24078739285621" lon="0.21720894391568912"><ele>237.0</ele><time>2026-05-06T12:06:41Z</time></trkpt><trkpt lat="43.24079416080993" lon="0.21731381841892786"><ele>237.0</ele><time>2026-05-06T12:06:42Z</time></trkpt><trkpt lat="43.24080007010871" lon="0.21741945872890628"><ele>236.66666666666666</ele><time>2026-05-06T12:06:43Z</time></trkpt><trkpt lat="43.24080525698837" lon="0.21752850405769397"><ele>236.33333333333331</ele><time>2026-05-06T12:06:44Z</time></trkpt><trkpt lat="43.240808311942814" lon="0.21763745418303665"><ele>236.0</ele><time>2026-05-06T12:06:45Z</time></trkpt><trkpt lat="43.24080903043041" lon="0.21774607487869388"><ele>235.66666666666666</ele><time>2026-05-06T12:06:46Z</time></trkpt><trkpt lat="43.24081486623198" lon="0.2178540280680254"><ele>235.33333333333331</ele><time>2026-05-06T12:06:47Z</time></trkpt><trkpt lat="43.24082513746261" lon="0.2179667513376352"><ele>235.0</ele><time>2026-05-06T12:06:48Z</time></trkpt><trkpt lat="43.24083059637524" lon="0.21807734594558115"><ele>234.83333333333331</ele><time>2026-05-06T12:06:49Z</time></trkpt><trkpt lat="43.24083567901625" lon="0.2181846139340221"><ele>234.66666666666666</ele><time>2026-05-06T12:06:49.999Z</time></trkpt><trkpt lat="43.24083839043995" lon="0.2182917125746236"><ele>234.5</ele><time>2026-05-06T12:06:50.999Z</time></trkpt><trkpt lat="43.24084546654402" lon="0.21840066511298695"><ele>234.33333333333331</ele><time>2026-05-06T12:06:51.999Z</time></trkpt><trkpt lat="43.240855502643974" lon="0.21851145204897157"><ele>234.16666666666666</ele><time>2026-05-06T12:06:52.999Z</time></trkpt><trkpt lat="43.24086233677274" lon="0.2186252476370043"><ele>234.0</ele><time>2026-05-06T12:06:53.999Z</time></trkpt><trkpt lat="43.24086378319633" lon="0.21873390415473049"><ele>234.0</ele><time>2026-05-06T12:06:54.999Z</time></trkpt><trkpt lat="43.24086629454708" lon="0.21883974300014686"><ele>234.0</ele><time>2026-05-06T12:06:55.999Z</time></trkpt><trkpt lat="43.24087531679953" lon="0.21895023685555826"><ele>234.0</ele><time>2026-05-06T12:06:56.999Z</time></trkpt><trkpt lat="43.24088165405853" lon="0.21905824756685682"><ele>234.0</ele><time>2026-05-06T12:06:57.999Z</time></trkpt><trkpt lat="43.240886694231286" lon="0.2191630177501706"><ele>234.0</ele><time>2026-05-06T12:06:58.999Z</time></trkpt><trkpt lat="43.24089098025781" lon="0.21926652673824046"><ele>234.0</ele><time>2026-05-06T12:06:59.999Z</time></trkpt><trkpt lat="43.2408949471012" lon="0.21937193749341316"><ele>234.0</ele><time>2026-05-06T12:07:00.999Z</time></trkpt><trkpt lat="43.24089818959363" lon="0.21947445266482873"><ele>234.0</ele><time>2026-05-06T12:07:01.999Z</time></trkpt><trkpt lat="43.24090137750237" lon="0.21957803921090976"><ele>234.0</ele><time>2026-05-06T12:07:02.999Z</time></trkpt><trkpt lat="43.24090547185625" lon="0.2196823299419296"><ele>234.0</ele><time>2026-05-06T12:07:03.999Z</time></trkpt><trkpt lat="43.24091323982427" lon="0.2197859363531453"><ele>234.0</ele><time>2026-05-06T12:07:04.999Z</time></trkpt><trkpt lat="43.24091959808807" lon="0.21989133514951822"><ele>234.0</ele><time>2026-05-06T12:07:05.999Z</time></trkpt><trkpt lat="43.24092512346274" lon="0.21999328180411593"><ele>234.0</ele><time>2026-05-06T12:07:07Z</time></trkpt><trkpt lat="43.24092941978517" lon="0.22009042963802689"><ele>234.00000000000003</ele><time>2026-05-06T12:07:08Z</time></trkpt><trkpt lat="43.24093671816347" lon="0.22019060031218685"><ele>234.0</ele><time>2026-05-06T12:07:09Z</time></trkpt><trkpt lat="43.24094240006459" lon="0.22029294501272212"><ele>234.0</ele><time>2026-05-06T12:07:10Z</time></trkpt><trkpt lat="43.24094497705113" lon="0.22038850832653697"><ele>234.00000000000003</ele><time>2026-05-06T12:07:11Z</time></trkpt><trkpt lat="43.24094813494499" lon="0.22047716776828324"><ele>234.0</ele><time>2026-05-06T12:07:12Z</time></trkpt><trkpt lat="43.24095606115085" lon="0.22057120140777803"><ele>234.0</ele><time>2026-05-06T12:07:13Z</time></trkpt><trkpt lat="43.240957386877106" lon="0.22066786745319938"><ele>234.0</ele><time>2026-05-06T12:07:14Z</time></trkpt><trkpt lat="43.24094552080486" lon="0.22075549419098023"><ele>234.0</ele><time>2026-05-06T12:07:15Z</time></trkpt><trkpt lat="43.24093712148686" lon="0.22084381705757047"><ele>234.0</ele><time>2026-05-06T12:07:16Z</time></trkpt><trkpt lat="43.240926758245614" lon="0.22093112284674774"><ele>234.0</ele><time>2026-05-06T12:07:17Z</time></trkpt><trkpt lat="43.240942250323755" lon="0.22111179760564464"><ele>234.0</ele><time>2026-05-06T12:07:19Z</time></trkpt><trkpt lat="43.24095820021542" lon="0.22120524578562423"><ele>234.0</ele><time>2026-05-06T12:07:20Z</time></trkpt><trkpt lat="43.24097005995977" lon="0.22129726984788523"><ele>234.0</ele><time>2026-05-06T12:07:21Z</time></trkpt><trkpt lat="43.240982355627295" lon="0.22139091153845922"><ele>234.00000000000003</ele><time>2026-05-06T12:07:22Z</time></trkpt><trkpt lat="43.24099278069863" lon="0.2214888028544142"><ele>234.0</ele><time>2026-05-06T12:07:23Z</time></trkpt><trkpt lat="43.24100074586023" lon="0.22158461549882594"><ele>234.0</ele><time>2026-05-06T12:07:24Z</time></trkpt><trkpt lat="43.241004663480616" lon="0.22167892711099327"><ele>234.00000000000003</ele><time>2026-05-06T12:07:25Z</time></trkpt><trkpt lat="43.241011172653415" lon="0.22177261324566666"><ele>234.0</ele><time>2026-05-06T12:07:26Z</time></trkpt><trkpt lat="43.241016071322115" lon="0.2218682645052539"><ele>234.0</ele><time>2026-05-06T12:07:27Z</time></trkpt><trkpt lat="43.24102353472757" lon="0.22196690130797822"><ele>233.71428571428572</ele><time>2026-05-06T12:07:28Z</time></trkpt><trkpt lat="43.2410293624844" lon="0.22206242299065587"><ele>233.42857142857144</ele><time>2026-05-06T12:07:29Z</time></trkpt><trkpt lat="43.24103359932684" lon="0.22216090138697145"><ele>233.14285714285717</ele><time>2026-05-06T12:07:30Z</time></trkpt><trkpt lat="43.24103723557251" lon="0.22226107295344538"><ele>232.8571428571429</ele><time>2026-05-06T12:07:31Z</time></trkpt><trkpt lat="43.24104033197531" lon="0.22236244680046677"><ele>232.57142857142858</ele><time>2026-05-06T12:07:32Z</time></trkpt><trkpt lat="43.24104515125044" lon="0.22246672991993757"><ele>232.28571428571433</ele><time>2026-05-06T12:07:33Z</time></trkpt><trkpt lat="43.24105143843537" lon="0.22256497257981317"><ele>232.00000000000003</ele><time>2026-05-06T12:07:34Z</time></trkpt><trkpt lat="43.24105741104986" lon="0.2226630829609438"><ele>231.8571428571429</ele><time>2026-05-06T12:07:35Z</time></trkpt><trkpt lat="43.24106240737001" lon="0.22276355234601614"><ele>231.71428571428572</ele><time>2026-05-06T12:07:36Z</time></trkpt><trkpt lat="43.24106616265054" lon="0.22286623845282916"><ele>231.57142857142858</ele><time>2026-05-06T12:07:37Z</time></trkpt><trkpt lat="43.2410730736286" lon="0.22296614174327298"><ele>231.42857142857144</ele><time>2026-05-06T12:07:38Z</time></trkpt><trkpt lat="43.24107867692906" lon="0.22306337054564646"><ele>231.28571428571428</ele><time>2026-05-06T12:07:39Z</time></trkpt><trkpt lat="43.241083738020166" lon="0.2231621290462302"><ele>231.14285714285714</ele><time>2026-05-06T12:07:40Z</time></trkpt><trkpt lat="43.24108781948386" lon="0.22325852700752624"><ele>231.0</ele><time>2026-05-06T12:07:41Z</time></trkpt><trkpt lat="43.24108931426498" lon="0.22335737813156104"><ele>230.85714285714286</ele><time>2026-05-06T12:07:42Z</time></trkpt><trkpt lat="43.241091733529124" lon="0.22345885311347005"><ele>230.71428571428572</ele><time>2026-05-06T12:07:43Z</time></trkpt><trkpt lat="43.241098554113236" lon="0.22355967113875033"><ele>230.57142857142856</ele><time>2026-05-06T12:07:44Z</time></trkpt><trkpt lat="43.241105665057816" lon="0.22365959906477437"><ele>230.42857142857142</ele><time>2026-05-06T12:07:45Z</time></trkpt><trkpt lat="43.24111204804277" lon="0.22376337089096873"><ele>230.28571428571428</ele><time>2026-05-06T12:07:46Z</time></trkpt><trkpt lat="43.241119936044385" lon="0.22386453984141585"><ele>230.1428571428571</ele><time>2026-05-06T12:07:47Z</time></trkpt><trkpt lat="43.2411255308272" lon="0.22396763391625757"><ele>229.99999999999997</ele><time>2026-05-06T12:07:48Z</time></trkpt><trkpt lat="43.24113134092712" lon="0.22407163714394324"><ele>229.99999999999997</ele><time>2026-05-06T12:07:49Z</time></trkpt><trkpt lat="43.241137256256096" lon="0.22417400681920127"><ele>230.0</ele><time>2026-05-06T12:07:50Z</time></trkpt><trkpt lat="43.24114142838335" lon="0.22427538572454386"><ele>229.99999999999997</ele><time>2026-05-06T12:07:51Z</time></trkpt><trkpt lat="43.241145130266524" lon="0.22438220992058347"><ele>229.99999999999997</ele><time>2026-05-06T12:07:52Z</time></trkpt><trkpt lat="43.24115222526193" lon="0.22448132715319694"><ele>230.0</ele><time>2026-05-06T12:07:53Z</time></trkpt><trkpt lat="43.2411570496059" lon="0.22458041987763597"><ele>229.99999999999997</ele><time>2026-05-06T12:07:54Z</time></trkpt><trkpt lat="43.24115732147588" lon="0.22468387861136452"><ele>229.99999999999997</ele><time>2026-05-06T12:07:55Z</time></trkpt><trkpt lat="43.241161474876144" lon="0.22478767895143992"><ele>230.1428571428571</ele><time>2026-05-06T12:07:56Z</time></trkpt><trkpt lat="43.24116438897586" lon="0.22488539800341215"><ele>230.28571428571428</ele><time>2026-05-06T12:07:57Z</time></trkpt><trkpt lat="43.2411689043165" lon="0.22498868002942402"><ele>230.42857142857142</ele><time>2026-05-06T12:07:58Z</time></trkpt><trkpt lat="43.24117512488846" lon="0.2250885744569699"><ele>230.57142857142856</ele><time>2026-05-06T12:07:59Z</time></trkpt><trkpt lat="43.241181274202866" lon="0.22519159789916296"><ele>230.71428571428572</ele><time>2026-05-06T12:08:00Z</time></trkpt><trkpt lat="43.24118634268548" lon="0.22529701777780625"><ele>230.85714285714286</ele><time>2026-05-06T12:08:01Z</time></trkpt><trkpt lat="43.24119258646136" lon="0.2254003191396146"><ele>231.0</ele><time>2026-05-06T12:08:02Z</time></trkpt><trkpt lat="43.24119884077641" lon="0.22550525063243257"><ele>231.0</ele><time>2026-05-06T12:08:03Z</time></trkpt><trkpt lat="43.24120451320189" lon="0.22560987935346588"><ele>231.0</ele><time>2026-05-06T12:08:04Z</time></trkpt><trkpt lat="43.241210759975495" lon="0.22571338957930132"><ele>231.0</ele><time>2026-05-06T12:08:05Z</time></trkpt><trkpt lat="43.24121321645631" lon="0.22581691594894782"><ele>231.0</ele><time>2026-05-06T12:08:06Z</time></trkpt><trkpt lat="43.24121772649168" lon="0.22591713146124764"><ele>231.0</ele><time>2026-05-06T12:08:07Z</time></trkpt><trkpt lat="43.241224130481775" lon="0.2260142541019462"><ele>231.0</ele><time>2026-05-06T12:08:08Z</time></trkpt><trkpt lat="43.24122850190414" lon="0.2261096248023136"><ele>231.0</ele><time>2026-05-06T12:08:09Z</time></trkpt><trkpt lat="43.241232395974606" lon="0.2262038834325839"><ele>231.0</ele><time>2026-05-06T12:08:10Z</time></trkpt><trkpt lat="43.24123701707253" lon="0.2262942140214894"><ele>231.0</ele><time>2026-05-06T12:08:11Z</time></trkpt><trkpt lat="43.24124201036207" lon="0.22638046515409416"><ele>231.0</ele><time>2026-05-06T12:08:12Z</time></trkpt><trkpt lat="43.241245526780844" lon="0.22646723352319853"><ele>231.0</ele><time>2026-05-06T12:08:13Z</time></trkpt><trkpt lat="43.2412515522655" lon="0.22662621954200027"><ele>231.0</ele><time>2026-05-06T12:08:15Z</time></trkpt><trkpt lat="43.24125318270498" lon="0.22676409299554579"><ele>231.0</ele><time>2026-05-06T12:08:17Z</time></trkpt><trkpt lat="43.24127030751343" lon="0.22693808731874648"><ele>231.0</ele><time>2026-05-06T12:08:19Z</time></trkpt><trkpt lat="43.241278648436946" lon="0.22707839113008274"><ele>231.00000000000003</ele><time>2026-05-06T12:08:21Z</time></trkpt><trkpt lat="43.241285332696485" lon="0.22720536779062572"><ele>231.00000000000003</ele><time>2026-05-06T12:08:23Z</time></trkpt><trkpt lat="43.2412899744765" lon="0.22733452397576367"><ele>231.0</ele><time>2026-05-06T12:08:25Z</time></trkpt><trkpt lat="43.24129869682709" lon="0.22745074294782533"><ele>231.0</ele><time>2026-05-06T12:08:27Z</time></trkpt><trkpt lat="43.241304724563605" lon="0.22756961414044174"><ele>231.4</ele><time>2026-05-06T12:08:29Z</time></trkpt><trkpt lat="43.241309576700615" lon="0.22769421864033362"><ele>231.8</ele><time>2026-05-06T12:08:31Z</time></trkpt><trkpt lat="43.24131981006973" lon="0.227817612112859"><ele>232.20000000000002</ele><time>2026-05-06T12:08:33Z</time></trkpt><trkpt lat="43.241317611893884" lon="0.2279495337786227"><ele>232.60000000000002</ele><time>2026-05-06T12:08:35Z</time></trkpt><trkpt lat="43.241333613104786" lon="0.22808372503001142"><ele>233.0</ele><time>2026-05-06T12:08:37Z</time></trkpt><trkpt lat="43.241339029442" lon="0.2282255676414445"><ele>233.60000000000002</ele><time>2026-05-06T12:08:39Z</time></trkpt><trkpt lat="43.24134744502876" lon="0.22837371137117995"><ele>234.20000000000002</ele><time>2026-05-06T12:08:41Z</time></trkpt><trkpt lat="43.2413545645715" lon="0.2285079437553589"><ele>234.8</ele><time>2026-05-06T12:08:43Z</time></trkpt><trkpt lat="43.241358516095936" lon="0.22865361014474217"><ele>235.4</ele><time>2026-05-06T12:08:45Z</time></trkpt><trkpt lat="43.24136405211484" lon="0.22878158304622634"><ele>236.0</ele><time>2026-05-06T12:08:47Z</time></trkpt><trkpt lat="43.241366811254956" lon="0.22890817154600965"><ele>236.71428571428572</ele><time>2026-05-06T12:08:49Z</time></trkpt><trkpt lat="43.24136456323839" lon="0.2290313067070018"><ele>237.42857142857144</ele><time>2026-05-06T12:08:51Z</time></trkpt><trkpt lat="43.24136255131832" lon="0.2291432832971333"><ele>238.14285714285717</ele><time>2026-05-06T12:08:53Z</time></trkpt><trkpt lat="43.24135796612832" lon="0.22924420066314882"><ele>238.85714285714286</ele><time>2026-05-06T12:08:55Z</time></trkpt><trkpt lat="43.24135059247998" lon="0.22933606737423629"><ele>239.5714285714286</ele><time>2026-05-06T12:08:57Z</time></trkpt><trkpt lat="43.241349909114554" lon="0.22943053131153804"><ele>240.2857142857143</ele><time>2026-05-06T12:08:59Z</time></trkpt><trkpt lat="43.241345161795" lon="0.2295206989417711"><ele>241.0</ele><time>2026-05-06T12:09:01Z</time></trkpt><trkpt lat="43.24134471415057" lon="0.22961394676284722"><ele>241.0</ele><time>2026-05-06T12:09:03Z</time></trkpt><trkpt lat="43.241341482656814" lon="0.22970103473516038"><ele>241.00000000000003</ele><time>2026-05-06T12:09:05Z</time></trkpt><trkpt lat="43.24133790386829" lon="0.22979682040188398"><ele>241.0</ele><time>2026-05-06T12:09:07Z</time></trkpt><trkpt lat="43.24133616134495" lon="0.22989020017359527"><ele>241.0</ele><time>2026-05-06T12:09:09Z</time></trkpt><trkpt lat="43.241335220958064" lon="0.2299887028329774"><ele>241.00000000000003</ele><time>2026-05-06T12:09:11Z</time></trkpt><trkpt lat="43.24133731618923" lon="0.23008020153330913"><ele>241.0</ele><time>2026-05-06T12:09:13Z</time></trkpt><trkpt lat="43.24133987170939" lon="0.23016949526817695"><ele>241.0</ele><time>2026-05-06T12:09:15Z</time></trkpt><trkpt lat="43.2413400941" lon="0.2302600708918201"><ele>241.42857142857144</ele><time>2026-05-06T12:09:17Z</time></trkpt><trkpt lat="43.24134644173218" lon="0.23034669694836857"><ele>241.8571428571429</ele><time>2026-05-06T12:09:19Z</time></trkpt><trkpt lat="43.24133411604013" lon="0.23043417718400003"><ele>242.28571428571428</ele><time>2026-05-06T12:09:21Z</time></trkpt><trkpt lat="43.24135240963695" lon="0.23051706052490856"><ele>242.71428571428572</ele><time>2026-05-06T12:09:23Z</time></trkpt><trkpt lat="43.24135715248122" lon="0.2306476893798462"><ele>243.14285714285714</ele><time>2026-05-06T12:09:26Z</time></trkpt><trkpt lat="43.241354060057645" lon="0.23073468067699118"><ele>243.57142857142856</ele><time>2026-05-06T12:09:28Z</time></trkpt><trkpt lat="43.24135603062383" lon="0.23082491583377943"><ele>243.99999999999997</ele><time>2026-05-06T12:09:30Z</time></trkpt><trkpt lat="43.24135865987733" lon="0.23091962601164234"><ele>243.99999999999997</ele><time>2026-05-06T12:09:32Z</time></trkpt><trkpt lat="43.241361230434386" lon="0.23100607987281305"><ele>244.0</ele><time>2026-05-06T12:09:34Z</time></trkpt><trkpt lat="43.241367342005596" lon="0.23109857874924716"><ele>243.99999999999997</ele><time>2026-05-06T12:09:36Z</time></trkpt><trkpt lat="43.241368298160914" lon="0.23118816453866506"><ele>243.99999999999997</ele><time>2026-05-06T12:09:38Z</time></trkpt><trkpt lat="43.24136974409177" lon="0.23127902866720257"><ele>244.0</ele><time>2026-05-06T12:09:40Z</time></trkpt><trkpt lat="43.24137141688435" lon="0.23136835095043157"><ele>243.99999999999997</ele><time>2026-05-06T12:09:42Z</time></trkpt><trkpt lat="43.241375965389985" lon="0.2314576489263761"><ele>243.99999999999997</ele><time>2026-05-06T12:09:44Z</time></trkpt><trkpt lat="43.24137865537953" lon="0.23158774855564399"><ele>244.1428571428571</ele><time>2026-05-06T12:09:47Z</time></trkpt><trkpt lat="43.24138449810123" lon="0.23171549811157116"><ele>244.28571428571428</ele><time>2026-05-06T12:09:50Z</time></trkpt><trkpt lat="43.2413877730714" lon="0.2318032590902695"><ele>244.42857142857142</ele><time>2026-05-06T12:09:52Z</time></trkpt><trkpt lat="43.241390960828056" lon="0.23189420703339822"><ele>244.57142857142856</ele><time>2026-05-06T12:09:54Z</time></trkpt><trkpt lat="43.2413965099181" lon="0.23198429138197785"><ele>244.71428571428572</ele><time>2026-05-06T12:09:56Z</time></trkpt><trkpt lat="43.24139922375572" lon="0.232074711428292"><ele>244.85714285714286</ele><time>2026-05-06T12:09:58Z</time></trkpt><trkpt lat="43.241404940653034" lon="0.23216641700852264"><ele>245.0</ele><time>2026-05-06T12:10:00Z</time></trkpt><trkpt lat="43.24140899909556" lon="0.23225985873377958"><ele>245.16666666666669</ele><time>2026-05-06T12:10:02Z</time></trkpt><trkpt lat="43.24141201453781" lon="0.23235547341103885"><ele>245.33333333333334</ele><time>2026-05-06T12:10:04Z</time></trkpt><trkpt lat="43.24141490437092" lon="0.23244402165169062"><ele>245.5</ele><time>2026-05-06T12:10:06Z</time></trkpt><trkpt lat="43.24144937159184" lon="0.2323710280105735"><ele>245.66666666666669</ele><time>2026-05-06T12:10:11Z</time></trkpt><trkpt lat="43.24136800281134" lon="0.23235773035899315"><ele>245.83333333333334</ele><time>2026-05-06T12:10:13Z</time></trkpt><trkpt lat="43.24128037224193" lon="0.2323735565227672"><ele>246.0</ele><time>2026-05-06T12:10:15Z</time></trkpt><trkpt lat="43.24118425023143" lon="0.2323695321922049"><ele>246.0</ele><time>2026-05-06T12:10:17Z</time></trkpt><trkpt lat="43.241091249535245" lon="0.2323372827554774"><ele>246.00000000000003</ele><time>2026-05-06T12:10:19Z</time></trkpt><trkpt lat="43.24099874441062" lon="0.2323500560450541"><ele>246.00000000000003</ele><time>2026-05-06T12:10:21Z</time></trkpt><trkpt lat="43.24089906246836" lon="0.23231781497786616"><ele>246.0</ele><time>2026-05-06T12:10:23Z</time></trkpt><trkpt lat="43.240784351249424" lon="0.2323600504392144"><ele>246.0</ele><time>2026-05-06T12:10:25Z</time></trkpt><trkpt lat="43.24068495751353" lon="0.2324567215236864"><ele>246.0</ele><time>2026-05-06T12:10:27Z</time></trkpt><trkpt lat="43.24063958661271" lon="0.2326118567797369"><ele>246.00000000000003</ele><time>2026-05-06T12:10:29Z</time></trkpt><trkpt lat="43.240667884122466" lon="0.2327032807600009"><ele>246.00000000000003</ele><time>2026-05-06T12:10:30Z</time></trkpt><trkpt lat="43.240689059616706" lon="0.2328514156536719"><ele>246.0</ele><time>2026-05-06T12:10:32Z</time></trkpt><trkpt lat="43.2406116005422" lon="0.23295661305094736"><ele>246.0</ele><time>2026-05-06T12:10:34Z</time></trkpt><trkpt lat="43.240509681143614" lon="0.23300901404211763"><ele>245.60000000000002</ele><time>2026-05-06T12:10:36Z</time></trkpt><trkpt lat="43.24040604320198" lon="0.23305901211872265"><ele>245.20000000000002</ele><time>2026-05-06T12:10:38Z</time></trkpt><trkpt lat="43.24030174541457" lon="0.2331068933603898"><ele>244.79999999999998</ele><time>2026-05-06T12:10:40Z</time></trkpt><trkpt lat="43.240197787354404" lon="0.2331546186366962"><ele>244.39999999999998</ele><time>2026-05-06T12:10:42Z</time></trkpt><trkpt lat="43.240092550157954" lon="0.23320293110631565"><ele>244.0</ele><time>2026-05-06T12:10:44Z</time></trkpt><trkpt lat="43.23998785228545" lon="0.23324906997371217"><ele>244.0</ele><time>2026-05-06T12:10:46Z</time></trkpt><trkpt lat="43.23987989856165" lon="0.2332963635760732"><ele>243.99999999999997</ele><time>2026-05-06T12:10:48Z</time></trkpt><trkpt lat="43.23976734608561" lon="0.23334632782908374"><ele>243.99999999999997</ele><time>2026-05-06T12:10:50Z</time></trkpt><trkpt lat="43.23970078236572" lon="0.2333790591937017"><ele>244.0</ele><time>2026-05-06T12:10:51Z</time></trkpt><trkpt lat="43.23963023460716" lon="0.23341374965970338"><ele>244.0</ele><time>2026-05-06T12:10:52Z</time></trkpt><trkpt lat="43.239552540868175" lon="0.23345207590466635"><ele>243.39999999999998</ele><time>2026-05-06T12:10:53Z</time></trkpt><trkpt lat="43.239469725520436" lon="0.23349938158035535"><ele>242.79999999999998</ele><time>2026-05-06T12:10:54Z</time></trkpt><trkpt lat="43.23938336856449" lon="0.23355972528948957"><ele>242.20000000000002</ele><time>2026-05-06T12:10:55Z</time></trkpt><trkpt lat="43.239300947683105" lon="0.2336324720576598"><ele>241.60000000000002</ele><time>2026-05-06T12:10:56Z</time></trkpt><trkpt lat="43.239225991985926" lon="0.23371640093976745"><ele>241.0</ele><time>2026-05-06T12:10:57Z</time></trkpt><trkpt lat="43.239158722429494" lon="0.23380567307150835"><ele>240.99999999999997</ele><time>2026-05-06T12:10:58Z</time></trkpt><trkpt lat="43.2391024015689" lon="0.23388367548923444"><ele>241.0</ele><time>2026-05-06T12:10:59Z</time></trkpt><trkpt lat="43.23904187487368" lon="0.233923320279291"><ele>241.0</ele><time>2026-05-06T12:11:00Z</time></trkpt><trkpt lat="43.23897711205678" lon="0.23395856070664273"><ele>241.0</ele><time>2026-05-06T12:11:01Z</time></trkpt><trkpt lat="43.23890242580505" lon="0.2339280532079093"><ele>240.99999999999997</ele><time>2026-05-06T12:11:02Z</time></trkpt><trkpt lat="43.2388211907358" lon="0.2339271014124142"><ele>241.0</ele><time>2026-05-06T12:11:03Z</time></trkpt><trkpt lat="43.2387090697573" lon="0.23390891101985334"><ele>242.66666666666666</ele><time>2026-05-06T12:11:05Z</time></trkpt><trkpt lat="43.23861526865341" lon="0.23390114280877763"><ele>244.33333333333331</ele><time>2026-05-06T12:11:07Z</time></trkpt><trkpt lat="43.23853520979768" lon="0.23391850463384056"><ele>246.0</ele><time>2026-05-06T12:11:10Z</time></trkpt><trkpt lat="43.238473824846345" lon="0.23394083826146178"><ele>247.66666666666669</ele><time>2026-05-06T12:11:13Z</time></trkpt><trkpt lat="43.238398999566975" lon="0.23398887917670005"><ele>249.33333333333334</ele><time>2026-05-06T12:11:17Z</time></trkpt><trkpt lat="43.23832579398138" lon="0.23404804318024097"><ele>251.0</ele><time>2026-05-06T12:11:21Z</time></trkpt><trkpt lat="43.23827095735624" lon="0.23409411181535433"><ele>251.4285714285714</ele><time>2026-05-06T12:11:24Z</time></trkpt><trkpt lat="43.23821257050404" lon="0.23413151159815196"><ele>251.85714285714283</ele><time>2026-05-06T12:11:27Z</time></trkpt><trkpt lat="43.238155400901555" lon="0.23416924741716108"><ele>252.28571428571428</ele><time>2026-05-06T12:11:30Z</time></trkpt><trkpt lat="43.23809501129834" lon="0.23420454116120815"><ele>252.7142857142857</ele><time>2026-05-06T12:11:33Z</time></trkpt><trkpt lat="43.23802397527636" lon="0.23421856573137806"><ele>253.1428571428571</ele><time>2026-05-06T12:11:36Z</time></trkpt><trkpt lat="43.237955106956875" lon="0.23425348089284023"><ele>253.57142857142858</ele><time>2026-05-06T12:11:39Z</time></trkpt><trkpt lat="43.23789096532651" lon="0.23430710595668205"><ele>254.0</ele><time>2026-05-06T12:11:42Z</time></trkpt><trkpt lat="43.23782486961698" lon="0.23434142206082972"><ele>254.00000000000003</ele><time>2026-05-06T12:11:45Z</time></trkpt><trkpt lat="43.23774748360547" lon="0.23438042691186672"><ele>254.0</ele><time>2026-05-06T12:11:48Z</time></trkpt><trkpt lat="43.23766744596646" lon="0.23441517222444788"><ele>254.0</ele><time>2026-05-06T12:11:51Z</time></trkpt><trkpt lat="43.23758317635028" lon="0.23445768272624393"><ele>254.0</ele><time>2026-05-06T12:11:54Z</time></trkpt><trkpt lat="43.23749830725258" lon="0.23450777781342796"><ele>254.00000000000003</ele><time>2026-05-06T12:11:57Z</time></trkpt><trkpt lat="43.23742899303093" lon="0.23452058617301422"><ele>254.0</ele><time>2026-05-06T12:11:59Z</time></trkpt><trkpt lat="43.23736416581099" lon="0.23455452735473134"><ele>253.83333333333334</ele><time>2026-05-06T12:12:01Z</time></trkpt><trkpt lat="43.23729637253325" lon="0.2345905072601262"><ele>253.66666666666669</ele><time>2026-05-06T12:12:03Z</time></trkpt><trkpt lat="43.23723263375563" lon="0.23464908331183834"><ele>253.5</ele><time>2026-05-06T12:12:05Z</time></trkpt><trkpt lat="43.237155520091676" lon="0.234667824776437"><ele>253.33333333333331</ele><time>2026-05-06T12:12:07Z</time></trkpt><trkpt lat="43.23708140640734" lon="0.23471369223672597"><ele>253.16666666666666</ele><time>2026-05-06T12:12:09Z</time></trkpt><trkpt lat="43.23700699658794" lon="0.23475850903494863"><ele>253.0</ele><time>2026-05-06T12:12:11Z</time></trkpt><trkpt lat="43.23692825840539" lon="0.2348071870061939"><ele>253.49999999999997</ele><time>2026-05-06T12:12:13Z</time></trkpt><trkpt lat="43.23684629957624" lon="0.23485896962796213"><ele>254.0</ele><time>2026-05-06T12:12:15Z</time></trkpt><trkpt lat="43.23676333944481" lon="0.23491138490224114"><ele>254.5</ele><time>2026-05-06T12:12:17Z</time></trkpt><trkpt lat="43.23668442736812" lon="0.23496124252260914"><ele>255.0</ele><time>2026-05-06T12:12:19Z</time></trkpt><trkpt lat="43.236605816097075" lon="0.23501091011770306"><ele>255.49999999999997</ele><time>2026-05-06T12:12:21Z</time></trkpt><trkpt lat="43.23652233930646" lon="0.2350641840089708"><ele>256.0</ele><time>2026-05-06T12:12:23Z</time></trkpt><trkpt lat="43.23643715343187" lon="0.23511906674238947"><ele>256.0</ele><time>2026-05-06T12:12:25Z</time></trkpt><trkpt lat="43.236351156767334" lon="0.2351744717784152"><ele>256.0</ele><time>2026-05-06T12:12:27Z</time></trkpt><trkpt lat="43.23626225489805" lon="0.2352317485842478"><ele>256.0</ele><time>2026-05-06T12:12:29Z</time></trkpt><trkpt lat="43.236172949547424" lon="0.23530372907920863"><ele>256.0</ele><time>2026-05-06T12:12:31Z</time></trkpt><trkpt lat="43.2360781019963" lon="0.23536760204944956"><ele>256.0</ele><time>2026-05-06T12:12:33Z</time></trkpt><trkpt lat="43.23598397190539" lon="0.23542795872720712"><ele>256.0</ele><time>2026-05-06T12:12:35Z</time></trkpt><trkpt lat="43.23588815269117" lon="0.23548650808792274"><ele>256.0</ele><time>2026-05-06T12:12:37Z</time></trkpt><trkpt lat="43.23579185095916" lon="0.2355464540015931"><ele>256.0</ele><time>2026-05-06T12:12:39Z</time></trkpt><trkpt lat="43.23569525971578" lon="0.235615102712038"><ele>256.0</ele><time>2026-05-06T12:12:41Z</time></trkpt><trkpt lat="43.23559378605728" lon="0.23567715499022632"><ele>256.0</ele><time>2026-05-06T12:12:43Z</time></trkpt><trkpt lat="43.23549934952492" lon="0.2357369352469964"><ele>256.0</ele><time>2026-05-06T12:12:45Z</time></trkpt><trkpt lat="43.235402835126024" lon="0.23579661190305068"><ele>256.0</ele><time>2026-05-06T12:12:47Z</time></trkpt><trkpt lat="43.23530439458626" lon="0.23585841582958816"><ele>256.0</ele><time>2026-05-06T12:12:49Z</time></trkpt><trkpt lat="43.23520637693024" lon="0.23591877828864757"><ele>256.0</ele><time>2026-05-06T12:12:51Z</time></trkpt><trkpt lat="43.235114941790954" lon="0.23597858609927377"><ele>256.0</ele><time>2026-05-06T12:12:53Z</time></trkpt><trkpt lat="43.235020942862356" lon="0.23603771180150976"><ele>256.0</ele><time>2026-05-06T12:12:55Z</time></trkpt><trkpt lat="43.23492732620817" lon="0.23609864538979491"><ele>256.0</ele><time>2026-05-06T12:12:57Z</time></trkpt><trkpt lat="43.234840242446495" lon="0.23615894427452233"><ele>256.0</ele><time>2026-05-06T12:12:59Z</time></trkpt><trkpt lat="43.234749477885856" lon="0.2362109240790781"><ele>256.0</ele><time>2026-05-06T12:13:01Z</time></trkpt><trkpt lat="43.23466251601317" lon="0.2362602616551972"><ele>256.0</ele><time>2026-05-06T12:13:03Z</time></trkpt><trkpt lat="43.2345728499433" lon="0.23630358424408557"><ele>256.40000000000003</ele><time>2026-05-06T12:13:05Z</time></trkpt><trkpt lat="43.23448843821645" lon="0.23634628153842868"><ele>256.8</ele><time>2026-05-06T12:13:07Z</time></trkpt><trkpt lat="43.23439937365732" lon="0.23637364988688808"><ele>257.20000000000005</ele><time>2026-05-06T12:13:09Z</time></trkpt><trkpt lat="43.2343068230715" lon="0.23640411626437646"><ele>257.6</ele><time>2026-05-06T12:13:11Z</time></trkpt><trkpt lat="43.234213915006904" lon="0.23643760603847208"><ele>258.0</ele><time>2026-05-06T12:13:13Z</time></trkpt><trkpt lat="43.23411537388913" lon="0.23646673702810106"><ele>257.8</ele><time>2026-05-06T12:13:15Z</time></trkpt><trkpt lat="43.23401299905801" lon="0.23649677268295646"><ele>257.6</ele><time>2026-05-06T12:13:17Z</time></trkpt><trkpt lat="43.23391375658788" lon="0.23652418316726292"><ele>257.4</ele><time>2026-05-06T12:13:19Z</time></trkpt><trkpt lat="43.23380647433282" lon="0.2365549429301777"><ele>257.2</ele><time>2026-05-06T12:13:21Z</time></trkpt><trkpt lat="43.233690839921" lon="0.23658735465055084"><ele>257.0</ele><time>2026-05-06T12:13:23Z</time></trkpt><trkpt lat="43.23357226176265" lon="0.23662377734146603"><ele>257.0</ele><time>2026-05-06T12:13:25Z</time></trkpt><trkpt lat="43.23351040358773" lon="0.2366486035718489"><ele>257.0</ele><time>2026-05-06T12:13:26Z</time></trkpt><trkpt lat="43.23344802192702" lon="0.23667841665937783"><ele>257.0</ele><time>2026-05-06T12:13:27Z</time></trkpt><trkpt lat="43.233385064152685" lon="0.23670833097096294"><ele>257.0</ele><time>2026-05-06T12:13:28Z</time></trkpt><trkpt lat="43.23332227436264" lon="0.23675411271629113"><ele>257.0</ele><time>2026-05-06T12:13:29Z</time></trkpt><trkpt lat="43.233259261874075" lon="0.23681219477795643"><ele>257.0</ele><time>2026-05-06T12:13:30Z</time></trkpt><trkpt lat="43.23320327315968" lon="0.236889930339957"><ele>257.0</ele><time>2026-05-06T12:13:31Z</time></trkpt><trkpt lat="43.23316119709428" lon="0.23698031904422506"><ele>256.6666666666667</ele><time>2026-05-06T12:13:32Z</time></trkpt><trkpt lat="43.233125296939654" lon="0.23708380974482962"><ele>256.33333333333337</ele><time>2026-05-06T12:13:33Z</time></trkpt><trkpt lat="43.23309353367662" lon="0.2371952951585354"><ele>256.0</ele><time>2026-05-06T12:13:34Z</time></trkpt><trkpt lat="43.23306319803059" lon="0.2373113346024984"><ele>255.66666666666669</ele><time>2026-05-06T12:13:35Z</time></trkpt><trkpt lat="43.23302346533953" lon="0.23742516408891248"><ele>255.33333333333334</ele><time>2026-05-06T12:13:36Z</time></trkpt><trkpt lat="43.232968708300994" lon="0.2375323474731161"><ele>255.0</ele><time>2026-05-06T12:13:37Z</time></trkpt><trkpt lat="43.232924217119894" lon="0.23764759403423863"><ele>255.8</ele><time>2026-05-06T12:13:38Z</time></trkpt><trkpt lat="43.23287490723527" lon="0.2377604732040503"><ele>256.6</ele><time>2026-05-06T12:13:39Z</time></trkpt><trkpt lat="43.23283099907564" lon="0.23786883889678953"><ele>257.4</ele><time>2026-05-06T12:13:40Z</time></trkpt><trkpt lat="43.23274420483419" lon="0.23795031162841732"><ele>258.2</ele><time>2026-05-06T12:13:41Z</time></trkpt><trkpt lat="43.232648590326676" lon="0.23799346606700233"><ele>259.0</ele><time>2026-05-06T12:13:42Z</time></trkpt><trkpt lat="43.23254122041002" lon="0.2379515607696754"><ele>259.0</ele><time>2026-05-06T12:13:43Z</time></trkpt><trkpt lat="43.232449380056316" lon="0.23791694559541265"><ele>259.0</ele><time>2026-05-06T12:13:44Z</time></trkpt><trkpt lat="43.23237132692633" lon="0.237891269356984"><ele>259.0</ele><time>2026-05-06T12:13:45Z</time></trkpt><trkpt lat="43.23229642624409" lon="0.2378698725021284"><ele>259.0</ele><time>2026-05-06T12:13:46Z</time></trkpt><trkpt lat="43.23221774817538" lon="0.23786825224829936"><ele>259.0</ele><time>2026-05-06T12:13:47Z</time></trkpt><trkpt lat="43.23215155962545" lon="0.23784815636422063"><ele>259.0</ele><time>2026-05-06T12:13:48Z</time></trkpt><trkpt lat="43.23208214239075" lon="0.2378351978978125"><ele>258.59999999999997</ele><time>2026-05-06T12:13:49Z</time></trkpt><trkpt lat="43.232017470579066" lon="0.237817164979511"><ele>258.2</ele><time>2026-05-06T12:13:50Z</time></trkpt><trkpt lat="43.23189718744779" lon="0.23779087689552086"><ele>257.79999999999995</ele><time>2026-05-06T12:13:52Z</time></trkpt><trkpt lat="43.231793578306466" lon="0.23775362006901224"><ele>257.4</ele><time>2026-05-06T12:13:54Z</time></trkpt><trkpt lat="43.23168859384954" lon="0.23772416060775292"><ele>257.0</ele><time>2026-05-06T12:13:56Z</time></trkpt><trkpt lat="43.23159729022236" lon="0.23770660833942225"><ele>257.0</ele><time>2026-05-06T12:13:58Z</time></trkpt><trkpt lat="43.2315127162849" lon="0.23769255965879374"><ele>257.0</ele><time>2026-05-06T12:14:00Z</time></trkpt><trkpt lat="43.23143771783834" lon="0.23770718330208135"><ele>257.0</ele><time>2026-05-06T12:14:02Z</time></trkpt><trkpt lat="43.23137164191146" lon="0.2377267308266311"><ele>257.0</ele><time>2026-05-06T12:14:04Z</time></trkpt><trkpt lat="43.23131142865473" lon="0.23777024997182192"><ele>257.0</ele><time>2026-05-06T12:14:06Z</time></trkpt><trkpt lat="43.23124157310822" lon="0.2377932442829369"><ele>257.0</ele><time>2026-05-06T12:14:08Z</time></trkpt><trkpt lat="43.23119053404885" lon="0.23785365383938364"><ele>257.0</ele><time>2026-05-06T12:14:10Z</time></trkpt><trkpt lat="43.23112970669992" lon="0.23789677268552858"><ele>257.2857142857143</ele><time>2026-05-06T12:14:12Z</time></trkpt><trkpt lat="43.231070660777505" lon="0.23793542246706578"><ele>257.57142857142856</ele><time>2026-05-06T12:14:14Z</time></trkpt><trkpt lat="43.23101388540619" lon="0.2379843603262806"><ele>257.8571428571429</ele><time>2026-05-06T12:14:16Z</time></trkpt><trkpt lat="43.23095661089563" lon="0.23802525917206713"><ele>258.1428571428571</ele><time>2026-05-06T12:14:18Z</time></trkpt><trkpt lat="43.23089815458935" lon="0.23806278938393843"><ele>258.42857142857144</ele><time>2026-05-06T12:14:20Z</time></trkpt><trkpt lat="43.23081273269742" lon="0.23811527144808983"><ele>258.7142857142857</ele><time>2026-05-06T12:14:23Z</time></trkpt><trkpt lat="43.230753111803146" lon="0.23814731595733377"><ele>259.0</ele><time>2026-05-06T12:14:25Z</time></trkpt><trkpt lat="43.23068931644686" lon="0.23815659506813014"><ele>259.57142857142856</ele><time>2026-05-06T12:14:27Z</time></trkpt><trkpt lat="43.2306252589547" lon="0.238176826090203"><ele>260.1428571428571</ele><time>2026-05-06T12:14:29Z</time></trkpt><trkpt lat="43.23055707616024" lon="0.23819353846310207"><ele>260.7142857142857</ele><time>2026-05-06T12:14:31Z</time></trkpt><trkpt lat="43.23049385376258" lon="0.2382317474514464"><ele>261.2857142857143</ele><time>2026-05-06T12:14:33Z</time></trkpt><trkpt lat="43.23042448070288" lon="0.2382471647972623"><ele>261.85714285714283</ele><time>2026-05-06T12:14:35Z</time></trkpt><trkpt lat="43.23035464046627" lon="0.23825959428497098"><ele>262.42857142857144</ele><time>2026-05-06T12:14:37Z</time></trkpt><trkpt lat="43.23028009602148" lon="0.23827343200958956"><ele>263.0</ele><time>2026-05-06T12:14:39Z</time></trkpt><trkpt lat="43.23020635211583" lon="0.23829098877334362"><ele>263.0</ele><time>2026-05-06T12:14:41Z</time></trkpt><trkpt lat="43.2301323133908" lon="0.23830490695233292"><ele>263.0</ele><time>2026-05-06T12:14:43Z</time></trkpt><trkpt lat="43.23006072655603" lon="0.23832332815128768"><ele>263.0</ele><time>2026-05-06T12:14:45Z</time></trkpt><trkpt lat="43.22998774441904" lon="0.23832019266729468"><ele>263.0</ele><time>2026-05-06T12:14:47Z</time></trkpt><trkpt lat="43.22992012806591" lon="0.23835778102492555"><ele>263.0</ele><time>2026-05-06T12:14:49Z</time></trkpt><trkpt lat="43.229850954376175" lon="0.23835998508427636"><ele>263.0</ele><time>2026-05-06T12:14:51Z</time></trkpt><trkpt lat="43.22978557773642" lon="0.23838532857118822"><ele>263.0</ele><time>2026-05-06T12:14:53Z</time></trkpt><trkpt lat="43.229696231873746" lon="0.23839173095831598"><ele>263.0</ele><time>2026-05-06T12:14:56Z</time></trkpt><trkpt lat="43.22961949906129" lon="0.23841826817752126"><ele>263.0</ele><time>2026-05-06T12:14:59Z</time></trkpt><trkpt lat="43.22954931707903" lon="0.23840495675186996"><ele>263.0</ele><time>2026-05-06T12:15:03Z</time></trkpt><trkpt lat="43.22947460933846" lon="0.23838524338870548"><ele>263.0</ele><time>2026-05-06T12:15:08Z</time></trkpt><trkpt lat="43.22944902667507" lon="0.2382708275469692"><ele>263.0</ele><time>2026-05-06T12:15:12Z</time></trkpt><trkpt lat="43.229446364709425" lon="0.23815553012554033"><ele>263.0</ele><time>2026-05-06T12:15:15Z</time></trkpt><trkpt lat="43.22944729542541" lon="0.23805566927868463"><ele>263.0</ele><time>2026-05-06T12:15:18Z</time></trkpt><trkpt lat="43.22943527857053" lon="0.23795043242512406"><ele>263.0</ele><time>2026-05-06T12:15:21Z</time></trkpt><trkpt lat="43.229422167852015" lon="0.23786297219355693"><ele>263.0</ele><time>2026-05-06T12:15:23Z</time></trkpt><trkpt lat="43.229402844364216" lon="0.23775077043492032"><ele>263.0</ele><time>2026-05-06T12:15:25Z</time></trkpt><trkpt lat="43.22935892050845" lon="0.23763136598881626"><ele>263.0</ele><time>2026-05-06T12:15:27Z</time></trkpt><trkpt lat="43.22930203751534" lon="0.23750053430662357"><ele>263.0</ele><time>2026-05-06T12:15:29Z</time></trkpt><trkpt lat="43.22922586305915" lon="0.23737824170213193"><ele>262.1666666666667</ele><time>2026-05-06T12:15:31Z</time></trkpt><trkpt lat="43.22915512029509" lon="0.23724348369775775"><ele>261.33333333333337</ele><time>2026-05-06T12:15:33Z</time></trkpt><trkpt lat="43.229118822052314" lon="0.2371680438341354"><ele>260.5</ele><time>2026-05-06T12:15:34Z</time></trkpt><trkpt lat="43.22907450184275" lon="0.23709283084179958"><ele>259.6666666666667</ele><time>2026-05-06T12:15:35Z</time></trkpt><trkpt lat="43.22902349125089" lon="0.23701800052329777"><ele>258.8333333333333</ele><time>2026-05-06T12:15:36Z</time></trkpt><trkpt lat="43.22894251419608" lon="0.23691765003411677"><ele>258.0</ele><time>2026-05-06T12:15:37Z</time></trkpt><trkpt lat="43.22887338744112" lon="0.23682590981521184"><ele>257.4</ele><time>2026-05-06T12:15:38Z</time></trkpt><trkpt lat="43.22881411080283" lon="0.2367301659164141"><ele>256.8</ele><time>2026-05-06T12:15:39Z</time></trkpt><trkpt lat="43.22875872853724" lon="0.23662428103262706"><ele>256.2</ele><time>2026-05-06T12:15:40Z</time></trkpt><trkpt lat="43.22870014934402" lon="0.23652662367689584"><ele>255.6</ele><time>2026-05-06T12:15:41Z</time></trkpt><trkpt lat="43.2286412915205" lon="0.23643376727463158"><ele>255.0</ele><time>2026-05-06T12:15:42Z</time></trkpt><trkpt lat="43.22857627311575" lon="0.23634340914837026"><ele>254.16666666666666</ele><time>2026-05-06T12:15:43Z</time></trkpt><trkpt lat="43.22852002180063" lon="0.23625532028479"><ele>253.33333333333331</ele><time>2026-05-06T12:15:44Z</time></trkpt><trkpt lat="43.228466762712614" lon="0.23616738554854752"><ele>252.5</ele><time>2026-05-06T12:15:45Z</time></trkpt><trkpt lat="43.22841714689825" lon="0.23608010476490124"><ele>251.66666666666666</ele><time>2026-05-06T12:15:46Z</time></trkpt><trkpt lat="43.22837029971707" lon="0.23599436451823425"><ele>250.83333333333331</ele><time>2026-05-06T12:15:47Z</time></trkpt><trkpt lat="43.22833048290671" lon="0.23591520355444548"><ele>250.0</ele><time>2026-05-06T12:15:48Z</time></trkpt><trkpt lat="43.22827531376679" lon="0.23578390323574713"><ele>250.0</ele><time>2026-05-06T12:15:50Z</time></trkpt><trkpt lat="43.22822754180338" lon="0.23569267956236425"><ele>250.0</ele><time>2026-05-06T12:15:52Z</time></trkpt><trkpt lat="43.22819775427956" lon="0.23561188881811065"><ele>250.0</ele><time>2026-05-06T12:15:55Z</time></trkpt><trkpt lat="43.22805743101034" lon="0.23572689252944487"><ele>250.0</ele><time>2026-05-06T12:15:57Z</time></trkpt><trkpt lat="43.228020187314065" lon="0.23580609142817457"><ele>250.0</ele><time>2026-05-06T12:15:59Z</time></trkpt><trkpt lat="43.2279690816559" lon="0.23587151741573378"><ele>250.0</ele><time>2026-05-06T12:16:01Z</time></trkpt><trkpt lat="43.22790917971933" lon="0.23593168550907317"><ele>250.0</ele><time>2026-05-06T12:16:03Z</time></trkpt><trkpt lat="43.22782540939006" lon="0.23598299597282946"><ele>250.0</ele><time>2026-05-06T12:16:05Z</time></trkpt><trkpt lat="43.22773777126087" lon="0.23604255702793372"><ele>250.0</ele><time>2026-05-06T12:16:07Z</time></trkpt><trkpt lat="43.227647056512005" lon="0.23610487678980163"><ele>250.0</ele><time>2026-05-06T12:16:09Z</time></trkpt><trkpt lat="43.227557943969785" lon="0.23613770919866442"><ele>250.0</ele><time>2026-05-06T12:16:11Z</time></trkpt><trkpt lat="43.22746080203039" lon="0.236170901374083"><ele>250.0</ele><time>2026-05-06T12:16:13Z</time></trkpt><trkpt lat="43.227366340237126" lon="0.23620317778384628"><ele>250.0</ele><time>2026-05-06T12:16:15Z</time></trkpt><trkpt lat="43.22727528615167" lon="0.2362314095286307"><ele>250.0</ele><time>2026-05-06T12:16:17Z</time></trkpt><trkpt lat="43.227184757321176" lon="0.2362588557989936"><ele>250.0</ele><time>2026-05-06T12:16:19Z</time></trkpt><trkpt lat="43.22709301739464" lon="0.2362878766652651"><ele>250.0</ele><time>2026-05-06T12:16:21Z</time></trkpt><trkpt lat="43.22699930068513" lon="0.23631787243731994"><ele>250.0</ele><time>2026-05-06T12:16:23Z</time></trkpt><trkpt lat="43.22690371049455" lon="0.236348920096629"><ele>250.0</ele><time>2026-05-06T12:16:25Z</time></trkpt><trkpt lat="43.22680187555148" lon="0.23638205761541212"><ele>250.0</ele><time>2026-05-06T12:16:27Z</time></trkpt><trkpt lat="43.22668993083517" lon="0.23642390369236518"><ele>250.0</ele><time>2026-05-06T12:16:29Z</time></trkpt><trkpt lat="43.2265849735704" lon="0.2364728701905091"><ele>249.83333333333331</ele><time>2026-05-06T12:16:31Z</time></trkpt><trkpt lat="43.22647088069404" lon="0.2365309326995075"><ele>249.66666666666666</ele><time>2026-05-06T12:16:33Z</time></trkpt><trkpt lat="43.22635572008835" lon="0.23659661997368084"><ele>249.5</ele><time>2026-05-06T12:16:35Z</time></trkpt><trkpt lat="43.22629453609171" lon="0.2366315191170256"><ele>249.33333333333331</ele><time>2026-05-06T12:16:36Z</time></trkpt><trkpt lat="43.22623294210788" lon="0.23666665214717383"><ele>249.16666666666666</ele><time>2026-05-06T12:16:37Z</time></trkpt><trkpt lat="43.22617340594814" lon="0.23669918791195102"><ele>249.0</ele><time>2026-05-06T12:16:38Z</time></trkpt><trkpt lat="43.22611322013404" lon="0.2367321130971671"><ele>249.0</ele><time>2026-05-06T12:16:39Z</time></trkpt><trkpt lat="43.22604793258395" lon="0.2367678291943221"><ele>248.99999999999997</ele><time>2026-05-06T12:16:40Z</time></trkpt><trkpt lat="43.225985841911" lon="0.23680179644352337"><ele>249.0</ele><time>2026-05-06T12:16:41Z</time></trkpt><trkpt lat="43.225922934155456" lon="0.2368384010272744"><ele>249.0</ele><time>2026-05-06T12:16:42Z</time></trkpt><trkpt lat="43.225862561624616" lon="0.23687300402541825"><ele>248.99999999999997</ele><time>2026-05-06T12:16:43Z</time></trkpt><trkpt lat="43.225800532857036" lon="0.23690539285503398"><ele>249.0</ele><time>2026-05-06T12:16:44Z</time></trkpt><trkpt lat="43.225734425193096" lon="0.23693868679505023"><ele>249.0</ele><time>2026-05-06T12:16:45Z</time></trkpt><trkpt lat="43.22567145949828" lon="0.2369703984068252"><ele>248.57142857142856</ele><time>2026-05-06T12:16:46Z</time></trkpt><trkpt lat="43.225609210141386" lon="0.2369980060847845"><ele>248.1428571428571</ele><time>2026-05-06T12:16:47Z</time></trkpt><trkpt lat="43.22554473283123" lon="0.23702350727564922"><ele>247.71428571428572</ele><time>2026-05-06T12:16:48Z</time></trkpt><trkpt lat="43.22548128292829" lon="0.237046019191734"><ele>247.28571428571428</ele><time>2026-05-06T12:16:49Z</time></trkpt><trkpt lat="43.22541599398695" lon="0.23706750762314982"><ele>246.85714285714286</ele><time>2026-05-06T12:16:50Z</time></trkpt><trkpt lat="43.22535004110577" lon="0.23708923695324535"><ele>246.42857142857144</ele><time>2026-05-06T12:16:51Z</time></trkpt><trkpt lat="43.225287403754606" lon="0.2371119632284823"><ele>246.00000000000003</ele><time>2026-05-06T12:16:52Z</time></trkpt><trkpt lat="43.2251786103202" lon="0.23716013600845356"><ele>246.0</ele><time>2026-05-06T12:16:54Z</time></trkpt><trkpt lat="43.2251146213289" lon="0.23719491736180703"><ele>246.0</ele><time>2026-05-06T12:16:55Z</time></trkpt><trkpt lat="43.22501891091195" lon="0.23725348735204127"><ele>246.0</ele><time>2026-05-06T12:16:57Z</time></trkpt><trkpt lat="43.2249330133262" lon="0.2373078497915479"><ele>246.0</ele><time>2026-05-06T12:16:59Z</time></trkpt><trkpt lat="43.22485112978781" lon="0.23735709964470633"><ele>246.0</ele><time>2026-05-06T12:17:01Z</time></trkpt><trkpt lat="43.224774979548684" lon="0.23740677867620383"><ele>246.0</ele><time>2026-05-06T12:17:03Z</time></trkpt><trkpt lat="43.22470249834447" lon="0.2374538832333727"><ele>246.66666666666666</ele><time>2026-05-06T12:17:05Z</time></trkpt><trkpt lat="43.2246335678985" lon="0.2375216004376764"><ele>247.33333333333331</ele><time>2026-05-06T12:17:07Z</time></trkpt><trkpt lat="43.22455797518165" lon="0.23754320574073196"><ele>248.0</ele><time>2026-05-06T12:17:09Z</time></trkpt><trkpt lat="43.2244939293254" lon="0.2376035595430229"><ele>248.66666666666666</ele><time>2026-05-06T12:17:11Z</time></trkpt><trkpt lat="43.22442203869462" lon="0.23762926277284122"><ele>249.33333333333331</ele><time>2026-05-06T12:17:13Z</time></trkpt><trkpt lat="43.22435311265582" lon="0.23770199746901033"><ele>250.0</ele><time>2026-05-06T12:17:15Z</time></trkpt><trkpt lat="43.224270945286165" lon="0.2377462342051314"><ele>249.99999999999997</ele><time>2026-05-06T12:17:17Z</time></trkpt><trkpt lat="43.22420945592311" lon="0.23781008106731327"><ele>250.0</ele><time>2026-05-06T12:17:19Z</time></trkpt><trkpt lat="43.22415729596933" lon="0.23787231233964928"><ele>250.0</ele><time>2026-05-06T12:17:21Z</time></trkpt><trkpt lat="43.224090616012624" lon="0.2379701382045244"><ele>250.0</ele><time>2026-05-06T12:17:24Z</time></trkpt><trkpt lat="43.22402526415363" lon="0.23806721208842418"><ele>249.99999999999997</ele><time>2026-05-06T12:17:27Z</time></trkpt><trkpt lat="43.223980945942635" lon="0.23813034578419595"><ele>250.0</ele><time>2026-05-06T12:17:29Z</time></trkpt><trkpt lat="43.22391511312692" lon="0.2382182365759731"><ele>250.71428571428572</ele><time>2026-05-06T12:17:32Z</time></trkpt><trkpt lat="43.223846074071545" lon="0.23829729873641886"><ele>251.42857142857144</ele><time>2026-05-06T12:17:35Z</time></trkpt><trkpt lat="43.22378360831328" lon="0.23836160778525037"><ele>252.14285714285717</ele><time>2026-05-06T12:17:38Z</time></trkpt><trkpt lat="43.223723416975496" lon="0.23841625868050384"><ele>252.85714285714286</ele><time>2026-05-06T12:17:41Z</time></trkpt><trkpt lat="43.22366767444442" lon="0.2384638437640094"><ele>253.5714285714286</ele><time>2026-05-06T12:17:44Z</time></trkpt><trkpt lat="43.2236177495472" lon="0.2385180548977938"><ele>254.2857142857143</ele><time>2026-05-06T12:17:50Z</time></trkpt><trkpt lat="43.22355826842726" lon="0.2385798495899059"><ele>255.0</ele><time>2026-05-06T12:19:56Z</time></trkpt><trkpt lat="43.2235058694866" lon="0.23863336334332078"><ele>255.0</ele><time>2026-05-06T12:19:59Z</time></trkpt><trkpt lat="43.223434433217065" lon="0.23867752481712035"><ele>255.00000000000003</ele><time>2026-05-06T12:20:02Z</time></trkpt><trkpt lat="43.22335990129968" lon="0.23872892893517103"><ele>255.0</ele><time>2026-05-06T12:20:05Z</time></trkpt><trkpt lat="43.22329974036802" lon="0.23876259962043958"><ele>255.0</ele><time>2026-05-06T12:20:07Z</time></trkpt><trkpt lat="43.223234547323656" lon="0.2387904730102819"><ele>255.00000000000003</ele><time>2026-05-06T12:20:09Z</time></trkpt><trkpt lat="43.223167660334134" lon="0.23881892207358751"><ele>255.0</ele><time>2026-05-06T12:20:11Z</time></trkpt><trkpt lat="43.22309564606252" lon="0.23885555989794122"><ele>255.0</ele><time>2026-05-06T12:20:13Z</time></trkpt><trkpt lat="43.223019899398025" lon="0.23888652056907803"><ele>255.16666666666666</ele><time>2026-05-06T12:20:15Z</time></trkpt><trkpt lat="43.22294072354423" lon="0.23892270956739795"><ele>255.33333333333331</ele><time>2026-05-06T12:20:17Z</time></trkpt><trkpt lat="43.22285869632757" lon="0.2389503442968636"><ele>255.5</ele><time>2026-05-06T12:20:19Z</time></trkpt><trkpt lat="43.22277121519897" lon="0.23894625646101245"><ele>255.66666666666666</ele><time>2026-05-06T12:20:21Z</time></trkpt><trkpt lat="43.222690318401206" lon="0.2389731043546772"><ele>255.83333333333331</ele><time>2026-05-06T12:20:23Z</time></trkpt><trkpt lat="43.222624674268076" lon="0.23901609957064227"><ele>256.0</ele><time>2026-05-06T12:20:25Z</time></trkpt><trkpt lat="43.222552272876314" lon="0.23901891875727208"><ele>256.7142857142857</ele><time>2026-05-06T12:20:27Z</time></trkpt><trkpt lat="43.22248667071842" lon="0.23905688785913626"><ele>257.4285714285714</ele><time>2026-05-06T12:20:29Z</time></trkpt><trkpt lat="43.222419471626665" lon="0.2390793262034373"><ele>258.1428571428571</ele><time>2026-05-06T12:20:31Z</time></trkpt><trkpt lat="43.222356353840674" lon="0.2391027886076382"><ele>258.85714285714283</ele><time>2026-05-06T12:20:33Z</time></trkpt><trkpt lat="43.22229056946645" lon="0.239118445823286"><ele>259.57142857142856</ele><time>2026-05-06T12:20:35Z</time></trkpt><trkpt lat="43.22222368810544" lon="0.23913921981010405"><ele>260.2857142857143</ele><time>2026-05-06T12:20:37Z</time></trkpt><trkpt lat="43.22215186485332" lon="0.23913973880222195"><ele>261.0</ele><time>2026-05-06T12:20:39Z</time></trkpt><trkpt lat="43.22208153373266" lon="0.23918048745177273"><ele>261.0</ele><time>2026-05-06T12:20:41Z</time></trkpt><trkpt lat="43.22200006467921" lon="0.23918333486569815"><ele>261.0</ele><time>2026-05-06T12:20:43Z</time></trkpt><trkpt lat="43.2219212098653" lon="0.23921113399643554"><ele>261.0</ele><time>2026-05-06T12:20:45Z</time></trkpt><trkpt lat="43.22184153936071" lon="0.2392511312316825"><ele>261.0</ele><time>2026-05-06T12:20:47Z</time></trkpt><trkpt lat="43.22176366254071" lon="0.23931300245915244"><ele>261.0</ele><time>2026-05-06T12:20:49Z</time></trkpt><trkpt lat="43.22169093986875" lon="0.23939490902708907"><ele>261.0</ele><time>2026-05-06T12:20:51Z</time></trkpt><trkpt lat="43.22163072441417" lon="0.23949504601768612"><ele>261.0</ele><time>2026-05-06T12:20:53Z</time></trkpt><trkpt lat="43.22157249432361" lon="0.23958990848412454"><ele>261.0</ele><time>2026-05-06T12:20:55Z</time></trkpt><trkpt lat="43.22151519531979" lon="0.2396809768221487"><ele>261.0</ele><time>2026-05-06T12:20:57Z</time></trkpt><trkpt lat="43.22147125929249" lon="0.23978700273447615"><ele>261.0</ele><time>2026-05-06T12:20:59Z</time></trkpt><trkpt lat="43.2214061981027" lon="0.23987631965791503"><ele>261.0</ele><time>2026-05-06T12:21:01Z</time></trkpt><trkpt lat="43.22134231723815" lon="0.2399608715858275"><ele>261.0</ele><time>2026-05-06T12:21:03Z</time></trkpt><trkpt lat="43.22128416106536" lon="0.24004456355512954"><ele>261.1666666666667</ele><time>2026-05-06T12:21:05Z</time></trkpt><trkpt lat="43.22119889448231" lon="0.24005366892586613"><ele>261.3333333333333</ele><time>2026-05-06T12:21:07Z</time></trkpt><trkpt lat="43.22112616316964" lon="0.24008202383864158"><ele>261.5</ele><time>2026-05-06T12:21:09Z</time></trkpt><trkpt lat="43.22104819427062" lon="0.24010785417708438"><ele>261.66666666666663</ele><time>2026-05-06T12:21:11Z</time></trkpt><trkpt lat="43.220966918333986" lon="0.24013356370900305"><ele>261.8333333333333</ele><time>2026-05-06T12:21:13Z</time></trkpt><trkpt lat="43.220884327255796" lon="0.2401596892134949"><ele>262.0</ele><time>2026-05-06T12:21:15Z</time></trkpt><trkpt lat="43.22080399807809" lon="0.2401850992316334"><ele>262.0</ele><time>2026-05-06T12:21:17Z</time></trkpt><trkpt lat="43.22072251647681" lon="0.24021073502193704"><ele>262.0</ele><time>2026-05-06T12:21:19Z</time></trkpt><trkpt lat="43.22064002392256" lon="0.24023627820415674"><ele>262.0</ele><time>2026-05-06T12:21:21Z</time></trkpt><trkpt lat="43.22055084401766" lon="0.24026389209638735"><ele>262.0</ele><time>2026-05-06T12:21:23Z</time></trkpt><trkpt lat="43.220458753216704" lon="0.24028939034037433"><ele>262.0</ele><time>2026-05-06T12:21:25Z</time></trkpt><trkpt lat="43.22036506358311" lon="0.24030922575493133"><ele>262.0</ele><time>2026-05-06T12:21:27Z</time></trkpt><trkpt lat="43.22026310286245" lon="0.24032131599464038"><ele>261.6</ele><time>2026-05-06T12:21:29Z</time></trkpt><trkpt lat="43.22015568057811" lon="0.24032205455811603"><ele>261.2</ele><time>2026-05-06T12:21:31Z</time></trkpt><trkpt lat="43.220048864577045" lon="0.24031574365371486"><ele>260.8</ele><time>2026-05-06T12:21:33Z</time></trkpt><trkpt lat="43.21994601490494" lon="0.24030847953021195"><ele>260.4</ele><time>2026-05-06T12:21:35Z</time></trkpt><trkpt lat="43.21984711933466" lon="0.2403019115997632"><ele>260.0</ele><time>2026-05-06T12:21:37Z</time></trkpt><trkpt lat="43.21975281013309" lon="0.24029758140754678"><ele>259.4</ele><time>2026-05-06T12:21:39Z</time></trkpt><trkpt lat="43.219658981546225" lon="0.24029667155382284"><ele>258.8</ele><time>2026-05-06T12:21:41Z</time></trkpt><trkpt lat="43.21955858012593" lon="0.2402956979628025"><ele>258.2</ele><time>2026-05-06T12:21:43Z</time></trkpt><trkpt lat="43.219456939954185" lon="0.24029471235978123"><ele>257.6</ele><time>2026-05-06T12:21:45Z</time></trkpt><trkpt lat="43.219343803975804" lon="0.24031376393400805"><ele>257.0</ele><time>2026-05-06T12:21:47Z</time></trkpt><trkpt lat="43.219222781514176" lon="0.2403033939134181"><ele>257.0</ele><time>2026-05-06T12:21:49Z</time></trkpt><trkpt lat="43.21915740192077" lon="0.24029858452458952"><ele>257.0</ele><time>2026-05-06T12:21:50Z</time></trkpt><trkpt lat="43.21908689259174" lon="0.24028826301250808"><ele>257.0</ele><time>2026-05-06T12:21:51Z</time></trkpt><trkpt lat="43.219018478305884" lon="0.2402669998700735"><ele>257.0</ele><time>2026-05-06T12:21:52Z</time></trkpt><trkpt lat="43.218943381668694" lon="0.24025287998613715"><ele>257.0</ele><time>2026-05-06T12:21:53Z</time></trkpt><trkpt lat="43.21886523360401" lon="0.24024572588257634"><ele>257.0</ele><time>2026-05-06T12:21:54Z</time></trkpt><trkpt lat="43.21878461072542" lon="0.24021926969298804"><ele>257.0</ele><time>2026-05-06T12:21:55Z</time></trkpt><trkpt lat="43.21870188334846" lon="0.2402351358740477"><ele>256.83333333333337</ele><time>2026-05-06T12:21:56Z</time></trkpt><trkpt lat="43.21862053732008" lon="0.24021832891601957"><ele>256.6666666666667</ele><time>2026-05-06T12:21:57Z</time></trkpt><trkpt lat="43.21853921781188" lon="0.24020542540895753"><ele>256.5</ele><time>2026-05-06T12:21:58Z</time></trkpt><trkpt lat="43.218464427557" lon="0.24018477589202475"><ele>256.3333333333333</ele><time>2026-05-06T12:21:59Z</time></trkpt><trkpt lat="43.218393109748106" lon="0.24016966391649125"><ele>256.16666666666663</ele><time>2026-05-06T12:22:00Z</time></trkpt><trkpt lat="43.21832051636626" lon="0.24016298728497268"><ele>256.0</ele><time>2026-05-06T12:22:01Z</time></trkpt><trkpt lat="43.21824482450108" lon="0.24014075683090097"><ele>255.99999999999997</ele><time>2026-05-06T12:22:02Z</time></trkpt><trkpt lat="43.218166035304485" lon="0.24016006723707728"><ele>256.0</ele><time>2026-05-06T12:22:03Z</time></trkpt><trkpt lat="43.21808942842884" lon="0.24019271058359176"><ele>256.0</ele><time>2026-05-06T12:22:04Z</time></trkpt><trkpt lat="43.21801312756892" lon="0.2402410458671439"><ele>256.0</ele><time>2026-05-06T12:22:05Z</time></trkpt><trkpt lat="43.21793720090133" lon="0.2402992242584124"><ele>255.99999999999997</ele><time>2026-05-06T12:22:06Z</time></trkpt><trkpt lat="43.21785740489986" lon="0.2403647213642898"><ele>256.0</ele><time>2026-05-06T12:22:07Z</time></trkpt><trkpt lat="43.217778514656466" lon="0.24043311015438804"><ele>255.60000000000002</ele><time>2026-05-06T12:22:08Z</time></trkpt><trkpt lat="43.21770431501502" lon="0.24052268287282977"><ele>255.20000000000002</ele><time>2026-05-06T12:22:09Z</time></trkpt><trkpt lat="43.21761890681645" lon="0.24058907186941234"><ele>254.79999999999998</ele><time>2026-05-06T12:22:10Z</time></trkpt><trkpt lat="43.21753554249275" lon="0.2406651523781346"><ele>254.39999999999998</ele><time>2026-05-06T12:22:11Z</time></trkpt><trkpt lat="43.217454213093106" lon="0.2407475636401321"><ele>254.0</ele><time>2026-05-06T12:22:12Z</time></trkpt><trkpt lat="43.21738668031509" lon="0.24085342171422644"><ele>254.0</ele><time>2026-05-06T12:22:13Z</time></trkpt><trkpt lat="43.21733208825512" lon="0.24097762835478084"><ele>253.99999999999997</ele><time>2026-05-06T12:22:14Z</time></trkpt><trkpt lat="43.217278391125674" lon="0.2411013324068704"><ele>253.99999999999997</ele><time>2026-05-06T12:22:15Z</time></trkpt><trkpt lat="43.217259025740574" lon="0.2412353814204322"><ele>254.0</ele><time>2026-05-06T12:22:16Z</time></trkpt><trkpt lat="43.217239129724526" lon="0.24136133685877592"><ele>254.0</ele><time>2026-05-06T12:22:17Z</time></trkpt><trkpt lat="43.217214028894965" lon="0.24147574941735842"><ele>255.00000000000003</ele><time>2026-05-06T12:22:18Z</time></trkpt><trkpt lat="43.21717233978473" lon="0.2415665946971425"><ele>256.0</ele><time>2026-05-06T12:22:19Z</time></trkpt><trkpt lat="43.21710598921275" lon="0.24162189217446944"><ele>257.0</ele><time>2026-05-06T12:22:20Z</time></trkpt><trkpt lat="43.21702504944142" lon="0.24161952733711342"><ele>258.0</ele><time>2026-05-06T12:22:21Z</time></trkpt><trkpt lat="43.216958148749335" lon="0.24156122491990273"><ele>259.0</ele><time>2026-05-06T12:22:22Z</time></trkpt><trkpt lat="43.21690803084495" lon="0.2414931430787353"><ele>260.0</ele><time>2026-05-06T12:22:23Z</time></trkpt><trkpt lat="43.21689749649626" lon="0.2413990768597272"><ele>260.0</ele><time>2026-05-06T12:22:24Z</time></trkpt><trkpt lat="43.21689085891985" lon="0.2412387343045263"><ele>260.0</ele><time>2026-05-06T12:22:26Z</time></trkpt><trkpt lat="43.21688443672513" lon="0.24109387180809533"><ele>260.0</ele><time>2026-05-06T12:22:28Z</time></trkpt><trkpt lat="43.21686512880781" lon="0.24096708384290563"><ele>260.0</ele><time>2026-05-06T12:22:30Z</time></trkpt><trkpt lat="43.21684005004227" lon="0.24084982919969153"><ele>260.0</ele><time>2026-05-06T12:22:32Z</time></trkpt><trkpt lat="43.21680556887085" lon="0.24075097252999672"><ele>260.0</ele><time>2026-05-06T12:22:34Z</time></trkpt><trkpt lat="43.21676927883432" lon="0.24065931684625017"><ele>260.0</ele><time>2026-05-06T12:22:36Z</time></trkpt><trkpt lat="43.21672435846868" lon="0.24056364215269058"><ele>260.0</ele><time>2026-05-06T12:22:38Z</time></trkpt><trkpt lat="43.216681647643796" lon="0.24047363070415345"><ele>260.0</ele><time>2026-05-06T12:22:40Z</time></trkpt><trkpt lat="43.2166311928891" lon="0.2403787827039987"><ele>260.0</ele><time>2026-05-06T12:22:42Z</time></trkpt><trkpt lat="43.21657448986676" lon="0.24029139552367193"><ele>260.0</ele><time>2026-05-06T12:22:44Z</time></trkpt><trkpt lat="43.21651095184356" lon="0.2402149468113543"><ele>259.83333333333337</ele><time>2026-05-06T12:22:46Z</time></trkpt><trkpt lat="43.216451757733175" lon="0.24015076350795403"><ele>259.6666666666667</ele><time>2026-05-06T12:22:48Z</time></trkpt><trkpt lat="43.21638912445827" lon="0.24010738201230342"><ele>259.5</ele><time>2026-05-06T12:22:50Z</time></trkpt><trkpt lat="43.21630704228701" lon="0.24007283979778646"><ele>259.3333333333333</ele><time>2026-05-06T12:22:53Z</time></trkpt><trkpt lat="43.216230008504084" lon="0.24007343067688847"><ele>259.16666666666663</ele><time>2026-05-06T12:22:56Z</time></trkpt><trkpt lat="43.21614841966859" lon="0.2400664190731296"><ele>259.0</ele><time>2026-05-06T12:22:59Z</time></trkpt><trkpt lat="43.21606987763004" lon="0.24008633851275973"><ele>259.0</ele><time>2026-05-06T12:23:02Z</time></trkpt><trkpt lat="43.21598452596345" lon="0.24014543218371726"><ele>259.0</ele><time>2026-05-06T12:23:05Z</time></trkpt><trkpt lat="43.21591280647006" lon="0.24017100141012376"><ele>259.0</ele><time>2026-05-06T12:23:07Z</time></trkpt><trkpt lat="43.21583366342326" lon="0.24019303331067188"><ele>259.0</ele><time>2026-05-06T12:23:09Z</time></trkpt><trkpt lat="43.21574505227241" lon="0.24022371369609316"><ele>259.0</ele><time>2026-05-06T12:23:11Z</time></trkpt><trkpt lat="43.215652336973065" lon="0.24026001875265005"><ele>259.0</ele><time>2026-05-06T12:23:13Z</time></trkpt><trkpt lat="43.21555935890376" lon="0.24029464394982203"><ele>258.59999999999997</ele><time>2026-05-06T12:23:15Z</time></trkpt><trkpt lat="43.215466287784174" lon="0.24034556459619322"><ele>258.2</ele><time>2026-05-06T12:23:17Z</time></trkpt><trkpt lat="43.2153632332772" lon="0.240352193416748"><ele>257.79999999999995</ele><time>2026-05-06T12:23:19Z</time></trkpt><trkpt lat="43.21526766721353" lon="0.24039588812617874"><ele>257.4</ele><time>2026-05-06T12:23:21Z</time></trkpt><trkpt lat="43.21516747851515" lon="0.2404390460451361"><ele>257.0</ele><time>2026-05-06T12:23:23Z</time></trkpt><trkpt lat="43.21507124656275" lon="0.24047883455469685"><ele>257.0</ele><time>2026-05-06T12:23:25Z</time></trkpt><trkpt lat="43.21497770620172" lon="0.2405175103418865"><ele>257.0</ele><time>2026-05-06T12:23:27Z</time></trkpt><trkpt lat="43.21488588557929" lon="0.2405524478029659"><ele>257.0</ele><time>2026-05-06T12:23:29Z</time></trkpt><trkpt lat="43.214790165487145" lon="0.24058630484576682"><ele>257.0</ele><time>2026-05-06T12:23:31Z</time></trkpt><trkpt lat="43.21469204250831" lon="0.24061720181170268"><ele>257.0</ele><time>2026-05-06T12:23:33Z</time></trkpt><trkpt lat="43.21459381765115" lon="0.24064131189582572"><ele>257.2</ele><time>2026-05-06T12:23:35Z</time></trkpt><trkpt lat="43.214493101087086" lon="0.2406649831541016"><ele>257.4</ele><time>2026-05-06T12:23:37Z</time></trkpt><trkpt lat="43.214392526953205" lon="0.2406864730502209"><ele>257.6</ele><time>2026-05-06T12:23:39Z</time></trkpt><trkpt lat="43.21430025401463" lon="0.24070261952797695"><ele>257.8</ele><time>2026-05-06T12:23:41Z</time></trkpt><trkpt lat="43.21420394954686" lon="0.24071752506190838"><ele>258.0</ele><time>2026-05-06T12:23:43Z</time></trkpt><trkpt lat="43.2141041032906" lon="0.24073395352866217"><ele>258.0</ele><time>2026-05-06T12:23:45Z</time></trkpt><trkpt lat="43.21400932238138" lon="0.24075005239177202"><ele>258.0</ele><time>2026-05-06T12:23:47Z</time></trkpt><trkpt lat="43.21392399062798" lon="0.24076454627281996"><ele>258.0</ele><time>2026-05-06T12:23:49Z</time></trkpt><trkpt lat="43.21384115347908" lon="0.2407786164670505"><ele>258.0</ele><time>2026-05-06T12:23:51Z</time></trkpt><trkpt lat="43.213758353525975" lon="0.24079217919983983"><ele>258.0</ele><time>2026-05-06T12:23:53Z</time></trkpt><trkpt lat="43.213666470733315" lon="0.2408009686440547"><ele>258.0</ele><time>2026-05-06T12:23:55Z</time></trkpt><trkpt lat="43.21357636794629" lon="0.24083011347213995"><ele>258.0</ele><time>2026-05-06T12:23:57Z</time></trkpt><trkpt lat="43.21348627068635" lon="0.24080226404012908"><ele>258.0</ele><time>2026-05-06T12:23:59Z</time></trkpt><trkpt lat="43.21338384935796" lon="0.24081053976633413"><ele>258.0</ele><time>2026-05-06T12:24:01Z</time></trkpt><trkpt lat="43.213283242303895" lon="0.24077380294023087"><ele>258.0</ele><time>2026-05-06T12:24:03Z</time></trkpt><trkpt lat="43.213179258829086" lon="0.24075690586149148"><ele>258.0</ele><time>2026-05-06T12:24:05Z</time></trkpt><trkpt lat="43.2130814897098" lon="0.2407408389078815"><ele>258.0</ele><time>2026-05-06T12:24:07Z</time></trkpt><trkpt lat="43.212986196094874" lon="0.24073142656676366"><ele>258.0</ele><time>2026-05-06T12:24:09Z</time></trkpt><trkpt lat="43.212900254345264" lon="0.2407236768930586"><ele>258.0</ele><time>2026-05-06T12:24:11Z</time></trkpt><trkpt lat="43.21282497554171" lon="0.2407322135115877"><ele>258.0</ele><time>2026-05-06T12:24:13Z</time></trkpt><trkpt lat="43.212758598393904" lon="0.24075043932127735"><ele>258.0</ele><time>2026-05-06T12:24:16Z</time></trkpt><trkpt lat="43.21268590792664" lon="0.24076375965768976"><ele>258.0</ele><time>2026-05-06T12:28:25Z</time></trkpt><trkpt lat="43.212605983578605" lon="0.24076715550801261"><ele>258.0</ele><time>2026-05-06T12:28:29Z</time></trkpt><trkpt lat="43.21252704234414" lon="0.24078348375465158"><ele>258.0</ele><time>2026-05-06T12:28:32Z</time></trkpt><trkpt lat="43.21244398776734" lon="0.24080317831648942"><ele>258.0</ele><time>2026-05-06T12:28:35Z</time></trkpt><trkpt lat="43.21236468043435" lon="0.24082225423460052"><ele>258.0</ele><time>2026-05-06T12:28:38Z</time></trkpt><trkpt lat="43.21228155399909" lon="0.2408442476132556"><ele>258.0</ele><time>2026-05-06T12:28:41Z</time></trkpt><trkpt lat="43.21220355118959" lon="0.2408633643361319"><ele>258.0</ele><time>2026-05-06T12:28:44Z</time></trkpt><trkpt lat="43.21212824599593" lon="0.24090622644900136"><ele>258.3333333333333</ele><time>2026-05-06T12:28:47Z</time></trkpt><trkpt lat="43.21205085893148" lon="0.2409060593956915"><ele>258.6666666666667</ele><time>2026-05-06T12:28:50Z</time></trkpt><trkpt lat="43.21197089164903" lon="0.24094483203245004"><ele>259.0</ele><time>2026-05-06T12:28:53Z</time></trkpt><trkpt lat="43.2118892219454" lon="0.2409823107905981"><ele>259.33333333333337</ele><time>2026-05-06T12:28:56Z</time></trkpt><trkpt lat="43.211808398672964" lon="0.2410194011085058"><ele>259.6666666666667</ele><time>2026-05-06T12:28:59Z</time></trkpt><trkpt lat="43.21172131244023" lon="0.241059365537802"><ele>260.0</ele><time>2026-05-06T12:29:02Z</time></trkpt><trkpt lat="43.21166021607779" lon="0.24108943336662075"><ele>260.0</ele><time>2026-05-06T12:29:04Z</time></trkpt><trkpt lat="43.211571663752856" lon="0.24113350918799248"><ele>260.0</ele><time>2026-05-06T12:29:07Z</time></trkpt><trkpt lat="43.21148437326231" lon="0.24117721778828632"><ele>260.0</ele><time>2026-05-06T12:29:10Z</time></trkpt><trkpt lat="43.211424576639224" lon="0.24121002187309565"><ele>260.0</ele><time>2026-05-06T12:29:12Z</time></trkpt><trkpt lat="43.211365576867536" lon="0.2412475576481876"><ele>260.0</ele><time>2026-05-06T12:29:14Z</time></trkpt><trkpt lat="43.21130721732682" lon="0.24128795212249415"><ele>260.0</ele><time>2026-05-06T12:29:16Z</time></trkpt><trkpt lat="43.211245722867744" lon="0.2413326814840089"><ele>260.33333333333337</ele><time>2026-05-06T12:29:18Z</time></trkpt><trkpt lat="43.211187593895936" lon="0.2413839107083289"><ele>260.6666666666667</ele><time>2026-05-06T12:29:20Z</time></trkpt><trkpt lat="43.21113524124065" lon="0.24143712908417578"><ele>261.0</ele><time>2026-05-06T12:29:22Z</time></trkpt><trkpt lat="43.211061706266456" lon="0.24151593613010805"><ele>261.3333333333333</ele><time>2026-05-06T12:29:25Z</time></trkpt><trkpt lat="43.210988951782255" lon="0.2415930460339753"><ele>261.66666666666663</ele><time>2026-05-06T12:29:28Z</time></trkpt><trkpt lat="43.21093264767466" lon="0.24164622897675542"><ele>262.0</ele><time>2026-05-06T12:29:30Z</time></trkpt><trkpt lat="43.21086488968301" lon="0.2416897816812911"><ele>262.3333333333333</ele><time>2026-05-06T12:29:32Z</time></trkpt><trkpt lat="43.21078581983274" lon="0.24171710482272976"><ele>262.66666666666663</ele><time>2026-05-06T12:29:34Z</time></trkpt><trkpt lat="43.210702771644804" lon="0.24171994179798245"><ele>263.0</ele><time>2026-05-06T12:29:36Z</time></trkpt><trkpt lat="43.21060906110555" lon="0.24172169468620883"><ele>263.3333333333333</ele><time>2026-05-06T12:29:38Z</time></trkpt><trkpt lat="43.210516126252486" lon="0.2417228764363849"><ele>263.6666666666667</ele><time>2026-05-06T12:29:40Z</time></trkpt><trkpt lat="43.21042777438092" lon="0.24174595513881814"><ele>264.0</ele><time>2026-05-06T12:29:42Z</time></trkpt><trkpt lat="43.21034030827717" lon="0.24174264330368472"><ele>264.0</ele><time>2026-05-06T12:29:44Z</time></trkpt><trkpt lat="43.210252763733436" lon="0.2417470000585435"><ele>264.0</ele><time>2026-05-06T12:29:46Z</time></trkpt><trkpt lat="43.2101642353985" lon="0.24174873015080878"><ele>264.0</ele><time>2026-05-06T12:29:48Z</time></trkpt><trkpt lat="43.21007489141526" lon="0.2417486846226898"><ele>264.0</ele><time>2026-05-06T12:29:50Z</time></trkpt><trkpt lat="43.20998479833005" lon="0.2417323081187309"><ele>264.0</ele><time>2026-05-06T12:29:52Z</time></trkpt><trkpt lat="43.2098945024405" lon="0.24173485469632905"><ele>264.0</ele><time>2026-05-06T12:29:54Z</time></trkpt><trkpt lat="43.20980586213013" lon="0.24175318679646804"><ele>264.0</ele><time>2026-05-06T12:29:56Z</time></trkpt><trkpt lat="43.209720305186046" lon="0.24175216549005807"><ele>264.0</ele><time>2026-05-06T12:29:58Z</time></trkpt><trkpt lat="43.20963273851417" lon="0.2417572295368289"><ele>264.0</ele><time>2026-05-06T12:30:00Z</time></trkpt><trkpt lat="43.20954144100177" lon="0.2417641666225512"><ele>264.0</ele><time>2026-05-06T12:30:02Z</time></trkpt><trkpt lat="43.209444828246745" lon="0.24176664563081657"><ele>264.0</ele><time>2026-05-06T12:30:04Z</time></trkpt><trkpt lat="43.20934685512973" lon="0.24177079770900145"><ele>264.0</ele><time>2026-05-06T12:30:06Z</time></trkpt><trkpt lat="43.20924740898897" lon="0.2417755635132918"><ele>264.0</ele><time>2026-05-06T12:30:08Z</time></trkpt><trkpt lat="43.209142758262736" lon="0.24178809342786947"><ele>264.0</ele><time>2026-05-06T12:30:10Z</time></trkpt><trkpt lat="43.20903566745359" lon="0.2417950607931375"><ele>264.0</ele><time>2026-05-06T12:30:12Z</time></trkpt><trkpt lat="43.2089266405221" lon="0.24180970607393298"><ele>264.0</ele><time>2026-05-06T12:30:14Z</time></trkpt><trkpt lat="43.20882066868094" lon="0.24184229973246835"><ele>263.59999999999997</ele><time>2026-05-06T12:30:16Z</time></trkpt><trkpt lat="43.20870778901349" lon="0.24187570093979763"><ele>263.2</ele><time>2026-05-06T12:30:18Z</time></trkpt><trkpt lat="43.20861001928749" lon="0.24192964825417035"><ele>262.79999999999995</ele><time>2026-05-06T12:30:20Z</time></trkpt><trkpt lat="43.20851402157148" lon="0.24197139503863746"><ele>262.4</ele><time>2026-05-06T12:30:22Z</time></trkpt><trkpt lat="43.2084397717371" lon="0.24207040234491659"><ele>262.0</ele><time>2026-05-06T12:30:24Z</time></trkpt><trkpt lat="43.208354885839384" lon="0.24213626486875328"><ele>262.0</ele><time>2026-05-06T12:30:26Z</time></trkpt><trkpt lat="43.208289356626025" lon="0.24222677391138386"><ele>262.0</ele><time>2026-05-06T12:30:28Z</time></trkpt><trkpt lat="43.20823640704832" lon="0.24232682119985804"><ele>262.0</ele><time>2026-05-06T12:30:30Z</time></trkpt><trkpt lat="43.20818569292408" lon="0.24242924403945684"><ele>262.0</ele><time>2026-05-06T12:30:32Z</time></trkpt><trkpt lat="43.208136887052476" lon="0.2425296503961168"><ele>262.0</ele><time>2026-05-06T12:30:34Z</time></trkpt><trkpt lat="43.20808612588434" lon="0.24262980946261847"><ele>262.5</ele><time>2026-05-06T12:30:36Z</time></trkpt><trkpt lat="43.20803756385542" lon="0.24272399133056735"><ele>263.0</ele><time>2026-05-06T12:30:38Z</time></trkpt><trkpt lat="43.2079906860731" lon="0.24281490674356174"><ele>263.5</ele><time>2026-05-06T12:30:40Z</time></trkpt><trkpt lat="43.207946961162065" lon="0.24290231667856388"><ele>264.0</ele><time>2026-05-06T12:30:42Z</time></trkpt><trkpt lat="43.207906974425846" lon="0.24298463260457245"><ele>264.5</ele><time>2026-05-06T12:30:44Z</time></trkpt><trkpt lat="43.20786617562594" lon="0.24306862022374892"><ele>265.0</ele><time>2026-05-06T12:30:46Z</time></trkpt><trkpt lat="43.20783015318435" lon="0.24315132105735682"><ele>266.0</ele><time>2026-05-06T12:30:48Z</time></trkpt><trkpt lat="43.207792384925426" lon="0.2432269712643186"><ele>267.0</ele><time>2026-05-06T12:30:50Z</time></trkpt><trkpt lat="43.20775452815265" lon="0.2433031932948302"><ele>268.0</ele><time>2026-05-06T12:30:52Z</time></trkpt><trkpt lat="43.20771082865379" lon="0.24341272694493785"><ele>269.0</ele><time>2026-05-06T12:30:55Z</time></trkpt><trkpt lat="43.207666032112236" lon="0.24351899987751693"><ele>270.0</ele><time>2026-05-06T12:30:58Z</time></trkpt><trkpt lat="43.20761235358125" lon="0.24360951126059713"><ele>271.0</ele><time>2026-05-06T12:31:01Z</time></trkpt><trkpt lat="43.207536824310516" lon="0.24367278366997033"><ele>271.0</ele><time>2026-05-06T12:31:04Z</time></trkpt><trkpt lat="43.20747279769209" lon="0.2437651297569495"><ele>271.0</ele><time>2026-05-06T12:31:07Z</time></trkpt><trkpt lat="43.20742898335019" lon="0.2438284932864906"><ele>271.0</ele><time>2026-05-06T12:31:09Z</time></trkpt><trkpt lat="43.207386310763425" lon="0.24389271341674187"><ele>271.0</ele><time>2026-05-06T12:31:11Z</time></trkpt><trkpt lat="43.20734239376145" lon="0.24395880633177308"><ele>271.0</ele><time>2026-05-06T12:31:13Z</time></trkpt><trkpt lat="43.20729713312063" lon="0.24402331170986605"><ele>271.0</ele><time>2026-05-06T12:31:15Z</time></trkpt><trkpt lat="43.20722866807868" lon="0.24408774599542546"><ele>271.0</ele><time>2026-05-06T12:31:18Z</time></trkpt><trkpt lat="43.20713946136321" lon="0.2441245903587032"><ele>271.66666666666663</ele><time>2026-05-06T12:31:21Z</time></trkpt><trkpt lat="43.20704736342338" lon="0.24414628068538302"><ele>272.3333333333333</ele><time>2026-05-06T12:31:24Z</time></trkpt><trkpt lat="43.20698449621999" lon="0.24416031487946369"><ele>273.0</ele><time>2026-05-06T12:31:26Z</time></trkpt><trkpt lat="43.20689909867019" lon="0.2442021884388323"><ele>273.6666666666667</ele><time>2026-05-06T12:31:29Z</time></trkpt><trkpt lat="43.20680983731498" lon="0.24420053204152867"><ele>274.33333333333337</ele><time>2026-05-06T12:31:32Z</time></trkpt><trkpt lat="43.2067247534632" lon="0.24422263951009715"><ele>275.0</ele><time>2026-05-06T12:31:35Z</time></trkpt><trkpt lat="43.20664430852144" lon="0.2442519420602234"><ele>275.0</ele><time>2026-05-06T12:31:38Z</time></trkpt><trkpt lat="43.2065648821257" lon="0.24428994527067496"><ele>275.0</ele><time>2026-05-06T12:31:41Z</time></trkpt><trkpt lat="43.20648602097867" lon="0.2443363262034301"><ele>275.0</ele><time>2026-05-06T12:31:44Z</time></trkpt><trkpt lat="43.20643351693529" lon="0.24438956581981422"><ele>275.0</ele><time>2026-05-06T12:31:46Z</time></trkpt><trkpt lat="43.20637065411195" lon="0.24441740969566822"><ele>275.0</ele><time>2026-05-06T12:31:48Z</time></trkpt><trkpt lat="43.20628387902212" lon="0.2444585583990808"><ele>275.0</ele><time>2026-05-06T12:31:51Z</time></trkpt><trkpt lat="43.20619755974148" lon="0.2444965613147006"><ele>274.83333333333337</ele><time>2026-05-06T12:31:54Z</time></trkpt><trkpt lat="43.20610621032056" lon="0.2445269371539047"><ele>274.6666666666667</ele><time>2026-05-06T12:31:57Z</time></trkpt><trkpt lat="43.20601474943413" lon="0.24454851408035028"><ele>274.5</ele><time>2026-05-06T12:32:00Z</time></trkpt><trkpt lat="43.205951903297546" lon="0.24455953110806627"><ele>274.3333333333333</ele><time>2026-05-06T12:32:02Z</time></trkpt><trkpt lat="43.20588914465784" lon="0.24456891513493567"><ele>274.16666666666663</ele><time>2026-05-06T12:32:04Z</time></trkpt><trkpt lat="43.20579484304752" lon="0.2445684709839347"><ele>274.0</ele><time>2026-05-06T12:32:07Z</time></trkpt><trkpt lat="43.20572832702383" lon="0.2445673140922375"><ele>274.14285714285717</ele><time>2026-05-06T12:32:09Z</time></trkpt><trkpt lat="43.20565935728376" lon="0.24456592422468967"><ele>274.2857142857143</ele><time>2026-05-06T12:32:11Z</time></trkpt><trkpt lat="43.20558650692636" lon="0.2445614883410009"><ele>274.42857142857144</ele><time>2026-05-06T12:32:13Z</time></trkpt><trkpt lat="43.20551530541111" lon="0.2445361515700829"><ele>274.57142857142856</ele><time>2026-05-06T12:32:15Z</time></trkpt><trkpt lat="43.20544146188156" lon="0.2445324899071889"><ele>274.7142857142857</ele><time>2026-05-06T12:32:17Z</time></trkpt><trkpt lat="43.205367562165215" lon="0.2445280338424929"><ele>274.8571428571429</ele><time>2026-05-06T12:32:19Z</time></trkpt><trkpt lat="43.20529431203234" lon="0.2445254515086027"><ele>275.0</ele><time>2026-05-06T12:32:21Z</time></trkpt><trkpt lat="43.205218724681565" lon="0.24452337494304563"><ele>275.0</ele><time>2026-05-06T12:32:23Z</time></trkpt><trkpt lat="43.20514548943343" lon="0.24455939655061235"><ele>275.0</ele><time>2026-05-06T12:32:25Z</time></trkpt><trkpt lat="43.20507305634815" lon="0.24455635683082236"><ele>275.0</ele><time>2026-05-06T12:32:27Z</time></trkpt><trkpt lat="43.20499550561595" lon="0.24456348102007552"><ele>275.0</ele><time>2026-05-06T12:32:29Z</time></trkpt><trkpt lat="43.204915289598404" lon="0.2445547598412789"><ele>275.0</ele><time>2026-05-06T12:32:31Z</time></trkpt><trkpt lat="43.204833636352014" lon="0.2445130527131652"><ele>275.0</ele><time>2026-05-06T12:32:33Z</time></trkpt><trkpt lat="43.20475007662422" lon="0.24451193569582721"><ele>274.83333333333337</ele><time>2026-05-06T12:32:35Z</time></trkpt><trkpt lat="43.20467051794844" lon="0.2445146520379201"><ele>274.6666666666667</ele><time>2026-05-06T12:32:37Z</time></trkpt><trkpt lat="43.20459587461531" lon="0.24452363948388472"><ele>274.5</ele><time>2026-05-06T12:32:39Z</time></trkpt><trkpt lat="43.2045260372569" lon="0.244538007151746"><ele>274.3333333333333</ele><time>2026-05-06T12:32:41Z</time></trkpt><trkpt lat="43.204450913746804" lon="0.24455564924492845"><ele>274.16666666666663</ele><time>2026-05-06T12:32:43Z</time></trkpt><trkpt lat="43.20435981243243" lon="0.2445828546131039"><ele>274.0</ele><time>2026-05-06T12:32:45Z</time></trkpt><trkpt lat="43.204252589577365" lon="0.24461368353633997"><ele>274.0</ele><time>2026-05-06T12:32:47Z</time></trkpt><trkpt lat="43.20414148298232" lon="0.24464562910128"><ele>274.0</ele><time>2026-05-06T12:32:49Z</time></trkpt><trkpt lat="43.20405108771033" lon="0.2446817305170473"><ele>274.0</ele><time>2026-05-06T12:32:51Z</time></trkpt><trkpt lat="43.20395902197709" lon="0.24471859707467636"><ele>274.0</ele><time>2026-05-06T12:32:53Z</time></trkpt><trkpt lat="43.20386580641364" lon="0.24476480091095612"><ele>274.0</ele><time>2026-05-06T12:32:55Z</time></trkpt><trkpt lat="43.203773169193795" lon="0.2448181082748595"><ele>275.0</ele><time>2026-05-06T12:32:57Z</time></trkpt><trkpt lat="43.20368436869385" lon="0.24487229642035888"><ele>276.0</ele><time>2026-05-06T12:32:59Z</time></trkpt><trkpt lat="43.20359742221404" lon="0.2449265013598019"><ele>277.0</ele><time>2026-05-06T12:33:01Z</time></trkpt><trkpt lat="43.2035021532965" lon="0.24498715887434924"><ele>278.0</ele><time>2026-05-06T12:33:03Z</time></trkpt><trkpt lat="43.20340771113871" lon="0.24504728999477662"><ele>279.0</ele><time>2026-05-06T12:33:05Z</time></trkpt><trkpt lat="43.203316559203174" lon="0.2451048053376033"><ele>279.0</ele><time>2026-05-06T12:33:07Z</time></trkpt><trkpt lat="43.20322236417567" lon="0.24516281689006886"><ele>279.0</ele><time>2026-05-06T12:33:09Z</time></trkpt><trkpt lat="43.20312990467389" lon="0.24521975959492706"><ele>279.0</ele><time>2026-05-06T12:33:11Z</time></trkpt><trkpt lat="43.20303601348676" lon="0.2452687970683502"><ele>279.0</ele><time>2026-05-06T12:33:13Z</time></trkpt><trkpt lat="43.20294799791965" lon="0.24531292703435623"><ele>279.0</ele><time>2026-05-06T12:33:15Z</time></trkpt><trkpt lat="43.202849263034004" lon="0.2453131323705147"><ele>279.5</ele><time>2026-05-06T12:33:17Z</time></trkpt><trkpt lat="43.202753158576364" lon="0.2452834606691147"><ele>280.0</ele><time>2026-05-06T12:33:19Z</time></trkpt><trkpt lat="43.202664037368116" lon="0.24525269153692295"><ele>280.5</ele><time>2026-05-06T12:33:21Z</time></trkpt><trkpt lat="43.20258560125799" lon="0.24521704174975467"><ele>281.0</ele><time>2026-05-06T12:33:23Z</time></trkpt><trkpt lat="43.202509633457886" lon="0.24518513909947834"><ele>281.5</ele><time>2026-05-06T12:33:25Z</time></trkpt><trkpt lat="43.20243089458" lon="0.24514609763582199"><ele>282.0</ele><time>2026-05-06T12:33:27Z</time></trkpt><trkpt lat="43.20236834230308" lon="0.24513224723646282"><ele>281.6666666666667</ele><time>2026-05-06T12:33:29Z</time></trkpt><trkpt lat="43.20228856044377" lon="0.24511923857734702"><ele>281.3333333333333</ele><time>2026-05-06T12:33:31Z</time></trkpt><trkpt lat="43.20221715262091" lon="0.2451103726095317"><ele>281.0</ele><time>2026-05-06T12:33:33Z</time></trkpt><trkpt lat="43.202146024505915" lon="0.2451080936699257"><ele>280.66666666666663</ele><time>2026-05-06T12:33:35Z</time></trkpt><trkpt lat="43.20207367297294" lon="0.24511074413603856"><ele>280.3333333333333</ele><time>2026-05-06T12:33:37Z</time></trkpt><trkpt lat="43.20199279866351" lon="0.24511834210281577"><ele>280.0</ele><time>2026-05-06T12:33:39Z</time></trkpt><trkpt lat="43.20190050536346" lon="0.2451336726353559"><ele>280.0</ele><time>2026-05-06T12:33:41Z</time></trkpt><trkpt lat="43.20180101234774" lon="0.2451597838219316"><ele>280.0</ele><time>2026-05-06T12:33:43Z</time></trkpt><trkpt lat="43.201699609691495" lon="0.2452038266665609"><ele>280.0</ele><time>2026-05-06T12:33:45Z</time></trkpt><trkpt lat="43.20158984677058" lon="0.24524232605339427"><ele>280.0</ele><time>2026-05-06T12:33:47Z</time></trkpt><trkpt lat="43.20152836613571" lon="0.24526389040937377"><ele>280.0</ele><time>2026-05-06T12:33:48Z</time></trkpt><trkpt lat="43.201414848720255" lon="0.24531280997915025"><ele>279.4</ele><time>2026-05-06T12:33:50Z</time></trkpt><trkpt lat="43.20130577728119" lon="0.24537069076377435"><ele>278.8</ele><time>2026-05-06T12:33:52Z</time></trkpt><trkpt lat="43.20119818632357" lon="0.2454493429812229"><ele>278.2</ele><time>2026-05-06T12:33:54Z</time></trkpt><trkpt lat="43.20110883264188" lon="0.24555680056727394"><ele>277.6</ele><time>2026-05-06T12:33:56Z</time></trkpt><trkpt lat="43.20106582064701" lon="0.2456245324055376"><ele>277.0</ele><time>2026-05-06T12:33:57Z</time></trkpt><trkpt lat="43.2009928211468" lon="0.2457631418062563"><ele>277.0</ele><time>2026-05-06T12:33:59Z</time></trkpt><trkpt lat="43.20094266553673" lon="0.2459035529266727"><ele>277.0</ele><time>2026-05-06T12:34:01Z</time></trkpt><trkpt lat="43.200892568556824" lon="0.24605404142471107"><ele>277.0</ele><time>2026-05-06T12:34:03Z</time></trkpt><trkpt lat="43.2008407612806" lon="0.24619524338018411"><ele>277.0</ele><time>2026-05-06T12:34:05Z</time></trkpt><trkpt lat="43.20089171982452" lon="0.24640709630699445"><ele>277.5</ele><time>2026-05-06T12:34:07Z</time></trkpt><trkpt lat="43.20090182135349" lon="0.24657136911504407"><ele>278.0</ele><time>2026-05-06T12:34:09Z</time></trkpt><trkpt lat="43.200909535883284" lon="0.24672596653493895"><ele>278.5</ele><time>2026-05-06T12:34:11Z</time></trkpt><trkpt lat="43.200916950437644" lon="0.24687982715831264"><ele>279.0</ele><time>2026-05-06T12:34:13Z</time></trkpt><trkpt lat="43.20092122497721" lon="0.2470305931375422"><ele>279.0</ele><time>2026-05-06T12:34:15Z</time></trkpt><trkpt lat="43.200920222943694" lon="0.24717658009668186"><ele>279.0</ele><time>2026-05-06T12:34:17Z</time></trkpt><trkpt lat="43.20091454702074" lon="0.24732058708642413"><ele>279.0</ele><time>2026-05-06T12:34:19Z</time></trkpt><trkpt lat="43.20090613309288" lon="0.2474642471154627"><ele>279.0</ele><time>2026-05-06T12:34:21Z</time></trkpt><trkpt lat="43.20089581653597" lon="0.2476015304413711"><ele>279.0</ele><time>2026-05-06T12:34:23Z</time></trkpt><trkpt lat="43.20088334654822" lon="0.24773489260415468"><ele>279.4</ele><time>2026-05-06T12:34:25Z</time></trkpt><trkpt lat="43.20086890408454" lon="0.247866049982877"><ele>279.79999999999995</ele><time>2026-05-06T12:34:27Z</time></trkpt><trkpt lat="43.200848528785954" lon="0.24800411703000963"><ele>280.20000000000005</ele><time>2026-05-06T12:34:29Z</time></trkpt><trkpt lat="43.200823855172196" lon="0.24814302158856757"><ele>280.6</ele><time>2026-05-06T12:34:31Z</time></trkpt><trkpt lat="43.20079516474185" lon="0.24828395336587245"><ele>281.0</ele><time>2026-05-06T12:34:33Z</time></trkpt><trkpt lat="43.20076711968261" lon="0.24842808645503325"><ele>281.8</ele><time>2026-05-06T12:34:35Z</time></trkpt><trkpt lat="43.200762263379154" lon="0.2485740887076069"><ele>282.6</ele><time>2026-05-06T12:34:37Z</time></trkpt><trkpt lat="43.20073190873227" lon="0.2487144299298469"><ele>283.4</ele><time>2026-05-06T12:34:39Z</time></trkpt><trkpt lat="43.200720927979596" lon="0.24884819373268577"><ele>284.2</ele><time>2026-05-06T12:34:41Z</time></trkpt><trkpt lat="43.20071016124907" lon="0.2489793500420733"><ele>285.0</ele><time>2026-05-06T12:34:43Z</time></trkpt><trkpt lat="43.20070000698757" lon="0.24910304549500847"><ele>284.6666666666667</ele><time>2026-05-06T12:34:45Z</time></trkpt><trkpt lat="43.20068977466036" lon="0.24922769187332078"><ele>284.3333333333333</ele><time>2026-05-06T12:34:47Z</time></trkpt><trkpt lat="43.2006786939843" lon="0.2493463241186655"><ele>284.0</ele><time>2026-05-06T12:34:49Z</time></trkpt><trkpt lat="43.20066616293015" lon="0.24946832394680862"><ele>283.66666666666663</ele><time>2026-05-06T12:34:51Z</time></trkpt><trkpt lat="43.20065351573173" lon="0.24959145441828912"><ele>283.3333333333333</ele><time>2026-05-06T12:34:53Z</time></trkpt><trkpt lat="43.20064127332732" lon="0.24971064406387455"><ele>283.0</ele><time>2026-05-06T12:34:55Z</time></trkpt><trkpt lat="43.20064578222608" lon="0.24982540008983287"><ele>283.0</ele><time>2026-05-06T12:34:57Z</time></trkpt><trkpt lat="43.20061895613455" lon="0.24992791967303507"><ele>283.0</ele><time>2026-05-06T12:34:59Z</time></trkpt><trkpt lat="43.20060747109484" lon="0.25003393778361915"><ele>283.0</ele><time>2026-05-06T12:35:01Z</time></trkpt><trkpt lat="43.200595377822914" lon="0.25014007804173666"><ele>283.0</ele><time>2026-05-06T12:35:03Z</time></trkpt><trkpt lat="43.20058243894681" lon="0.2502485812729965"><ele>283.0</ele><time>2026-05-06T12:35:05Z</time></trkpt><trkpt lat="43.20056866620248" lon="0.2503640770851243"><ele>283.0</ele><time>2026-05-06T12:35:07Z</time></trkpt><trkpt lat="43.20055522505259" lon="0.2504767922130246"><ele>283.0</ele><time>2026-05-06T12:35:09Z</time></trkpt><trkpt lat="43.20054243022049" lon="0.250584087493545"><ele>283.0</ele><time>2026-05-06T12:35:11Z</time></trkpt><trkpt lat="43.200528934502344" lon="0.2506903556548668"><ele>283.0</ele><time>2026-05-06T12:35:13Z</time></trkpt><trkpt lat="43.2005138416054" lon="0.250795011913667"><ele>283.0</ele><time>2026-05-06T12:35:15Z</time></trkpt><trkpt lat="43.20049596226723" lon="0.2508962089658935"><ele>283.0</ele><time>2026-05-06T12:35:17Z</time></trkpt><trkpt lat="43.20047639519997" lon="0.25100248969728106"><ele>283.0</ele><time>2026-05-06T12:35:19Z</time></trkpt><trkpt lat="43.20045772256124" lon="0.25111157608000095"><ele>283.16666666666663</ele><time>2026-05-06T12:35:21Z</time></trkpt><trkpt lat="43.200439333767854" lon="0.25121900423426663"><ele>283.3333333333333</ele><time>2026-05-06T12:35:23Z</time></trkpt><trkpt lat="43.20042060037936" lon="0.25132844553277905"><ele>283.5</ele><time>2026-05-06T12:35:25Z</time></trkpt><trkpt lat="43.2004024210301" lon="0.2514346501023391"><ele>283.6666666666667</ele><time>2026-05-06T12:35:27Z</time></trkpt><trkpt lat="43.20038445937711" lon="0.25153239724611814"><ele>283.83333333333337</ele><time>2026-05-06T12:35:29Z</time></trkpt><trkpt lat="43.20036503186442" lon="0.25163019789303603"><ele>284.0</ele><time>2026-05-06T12:35:31Z</time></trkpt><trkpt lat="43.2003556029847" lon="0.2517291563361519"><ele>284.59999999999997</ele><time>2026-05-06T12:35:33Z</time></trkpt><trkpt lat="43.20032692450746" lon="0.2518287577515905"><ele>285.2</ele><time>2026-05-06T12:35:35Z</time></trkpt><trkpt lat="43.20027617098051" lon="0.2519254266680275"><ele>285.79999999999995</ele><time>2026-05-06T12:35:37Z</time></trkpt><trkpt lat="43.20020132328961" lon="0.25200771611913686"><ele>286.4</ele><time>2026-05-06T12:35:39Z</time></trkpt><trkpt lat="43.2001246364731" lon="0.2521129658744353"><ele>287.0</ele><time>2026-05-06T12:35:41Z</time></trkpt><trkpt lat="43.20006819636234" lon="0.25225834980830053"><ele>287.8</ele><time>2026-05-06T12:35:43Z</time></trkpt><trkpt lat="43.200013879760455" lon="0.25239347031992065"><ele>288.6</ele><time>2026-05-06T12:35:45Z</time></trkpt><trkpt lat="43.199991692616294" lon="0.252532966222052"><ele>289.40000000000003</ele><time>2026-05-06T12:35:47Z</time></trkpt><trkpt lat="43.19997555397188" lon="0.2526665153572388"><ele>290.2</ele><time>2026-05-06T12:35:49Z</time></trkpt><trkpt lat="43.199967383371146" lon="0.2528034662352171"><ele>291.0</ele><time>2026-05-06T12:35:51Z</time></trkpt><trkpt lat="43.19994556980379" lon="0.25293651700548264"><ele>291.0</ele><time>2026-05-06T12:35:53Z</time></trkpt><trkpt lat="43.19993238091608" lon="0.253063136135077"><ele>291.0</ele><time>2026-05-06T12:35:55Z</time></trkpt><trkpt lat="43.19991830792618" lon="0.25318804214685064"><ele>291.0</ele><time>2026-05-06T12:35:57Z</time></trkpt><trkpt lat="43.19990325802772" lon="0.2533048313194269"><ele>291.0</ele><time>2026-05-06T12:35:59Z</time></trkpt><trkpt lat="43.19989437185242" lon="0.2534189080071867"><ele>291.0</ele><time>2026-05-06T12:36:01Z</time></trkpt><trkpt lat="43.19988438317226" lon="0.2535307377994017"><ele>291.0</ele><time>2026-05-06T12:36:03Z</time></trkpt><trkpt lat="43.19988842785281" lon="0.25364271831674323"><ele>291.5</ele><time>2026-05-06T12:36:05Z</time></trkpt><trkpt lat="43.19988470834781" lon="0.25375367668152554"><ele>292.0</ele><time>2026-05-06T12:36:07Z</time></trkpt><trkpt lat="43.199884131853224" lon="0.25387126256742415"><ele>292.5</ele><time>2026-05-06T12:36:09Z</time></trkpt><trkpt lat="43.19987486859588" lon="0.25398593476409637"><ele>293.0</ele><time>2026-05-06T12:36:11Z</time></trkpt><trkpt lat="43.19986950129336" lon="0.2541051088395329"><ele>293.5</ele><time>2026-05-06T12:36:13Z</time></trkpt><trkpt lat="43.19986209440324" lon="0.2542207728464902"><ele>294.0</ele><time>2026-05-06T12:36:15Z</time></trkpt><trkpt lat="43.1998620734863" lon="0.2543392851226856"><ele>294.6666666666667</ele><time>2026-05-06T12:36:17Z</time></trkpt><trkpt lat="43.19985462593117" lon="0.25445311698613"><ele>295.3333333333333</ele><time>2026-05-06T12:36:19Z</time></trkpt><trkpt lat="43.199846855312" lon="0.2545651470454737"><ele>296.0</ele><time>2026-05-06T12:36:21Z</time></trkpt><trkpt lat="43.19983968484878" lon="0.2546719840873288"><ele>296.66666666666663</ele><time>2026-05-06T12:36:23Z</time></trkpt><trkpt lat="43.19982484455571" lon="0.2547673407640685"><ele>297.3333333333333</ele><time>2026-05-06T12:36:25Z</time></trkpt><trkpt lat="43.199814499361445" lon="0.2548626785527216"><ele>298.0</ele><time>2026-05-06T12:36:27Z</time></trkpt><trkpt lat="43.19979931143429" lon="0.2549546490916047"><ele>298.1428571428571</ele><time>2026-05-06T12:36:29Z</time></trkpt><trkpt lat="43.19978607123431" lon="0.25503972873544417"><ele>298.2857142857143</ele><time>2026-05-06T12:36:31Z</time></trkpt><trkpt lat="43.1997755737424" lon="0.2551289447805171"><ele>298.42857142857144</ele><time>2026-05-06T12:36:33Z</time></trkpt><trkpt lat="43.199770273930284" lon="0.25522101917100076"><ele>298.57142857142856</ele><time>2026-05-06T12:36:35Z</time></trkpt><trkpt lat="43.19976326297137" lon="0.25531086042880025"><ele>298.7142857142857</ele><time>2026-05-06T12:36:37Z</time></trkpt><trkpt lat="43.199760499648356" lon="0.25539953389962927"><ele>298.85714285714283</ele><time>2026-05-06T12:36:39Z</time></trkpt><trkpt lat="43.19975577674892" lon="0.2555266078770299"><ele>299.0</ele><time>2026-05-06T12:36:42Z</time></trkpt><trkpt lat="43.19975993125544" lon="0.2556192980405914"><ele>299.1428571428571</ele><time>2026-05-06T12:36:44Z</time></trkpt><trkpt lat="43.199761711816734" lon="0.2557132216699558"><ele>299.2857142857143</ele><time>2026-05-06T12:36:46Z</time></trkpt><trkpt lat="43.19976232043131" lon="0.2558067721282665"><ele>299.42857142857144</ele><time>2026-05-06T12:36:48Z</time></trkpt><trkpt lat="43.19976516712779" lon="0.25589832728731093"><ele>299.57142857142856</ele><time>2026-05-06T12:36:50Z</time></trkpt><trkpt lat="43.19977190435235" lon="0.2559954110038394"><ele>299.7142857142857</ele><time>2026-05-06T12:36:52Z</time></trkpt><trkpt lat="43.19977338562357" lon="0.2560942137163375"><ele>299.85714285714283</ele><time>2026-05-06T12:36:54Z</time></trkpt><trkpt lat="43.19977623767005" lon="0.2561919071087855"><ele>300.0</ele><time>2026-05-06T12:36:56Z</time></trkpt><trkpt lat="43.19977565806136" lon="0.2562930414254763"><ele>299.99999999999994</ele><time>2026-05-06T12:36:58Z</time></trkpt><trkpt lat="43.199780462108116" lon="0.25639189554561875"><ele>300.0</ele><time>2026-05-06T12:37:00Z</time></trkpt><trkpt lat="43.199780801298736" lon="0.25649350125255566"><ele>300.0</ele><time>2026-05-06T12:37:02Z</time></trkpt><trkpt lat="43.199780463076884" lon="0.25659360135967296"><ele>300.0</ele><time>2026-05-06T12:37:04Z</time></trkpt><trkpt lat="43.19975729762987" lon="0.2566908130771146"><ele>300.0</ele><time>2026-05-06T12:37:06Z</time></trkpt><trkpt lat="43.19974715476483" lon="0.2567881568821246"><ele>299.99999999999994</ele><time>2026-05-06T12:37:08Z</time></trkpt><trkpt lat="43.199732524871095" lon="0.2568829618782999"><ele>300.0</ele><time>2026-05-06T12:37:10Z</time></trkpt><trkpt lat="43.19972316344997" lon="0.25697944278528356"><ele>299.99999999999994</ele><time>2026-05-06T12:37:12Z</time></trkpt><trkpt lat="43.19970550661361" lon="0.257074709448622"><ele>300.0</ele><time>2026-05-06T12:37:14Z</time></trkpt><trkpt lat="43.19969113911465" lon="0.2571588613654171"><ele>300.0</ele><time>2026-05-06T12:37:16Z</time></trkpt><trkpt lat="43.19964496844622" lon="0.2572557396205439"><ele>300.0</ele><time>2026-05-06T12:37:19Z</time></trkpt><trkpt lat="43.19959059553123" lon="0.2573170440778182"><ele>300.0</ele><time>2026-05-06T12:37:22Z</time></trkpt><trkpt lat="43.19952730092995" lon="0.2573302710861077"><ele>299.99999999999994</ele><time>2026-05-06T12:37:24Z</time></trkpt><trkpt lat="43.19945807450288" lon="0.2573077188395858"><ele>300.0</ele><time>2026-05-06T12:37:26Z</time></trkpt><trkpt lat="43.19938079291494" lon="0.25731532073077623"><ele>300.5</ele><time>2026-05-06T12:37:28Z</time></trkpt><trkpt lat="43.19929556932297" lon="0.2573223548759794"><ele>301.0</ele><time>2026-05-06T12:37:30Z</time></trkpt><trkpt lat="43.1992102938354" lon="0.2573500523183871"><ele>301.5</ele><time>2026-05-06T12:37:32Z</time></trkpt><trkpt lat="43.19912689960672" lon="0.25732507216230616"><ele>302.0</ele><time>2026-05-06T12:37:34Z</time></trkpt><trkpt lat="43.19904668283894" lon="0.2573346257427378"><ele>302.5</ele><time>2026-05-06T12:37:36Z</time></trkpt><trkpt lat="43.198964293067135" lon="0.257327940971149"><ele>303.0</ele><time>2026-05-06T12:37:38Z</time></trkpt><trkpt lat="43.19888257736992" lon="0.2573087534614252"><ele>305.0</ele><time>2026-05-06T12:37:40Z</time></trkpt><trkpt lat="43.1988070974232" lon="0.2572978185063215"><ele>307.0</ele><time>2026-05-06T12:37:42Z</time></trkpt><trkpt lat="43.19874006363496" lon="0.25729517532790525"><ele>309.0</ele><time>2026-05-06T12:37:44Z</time></trkpt><trkpt lat="43.19867631791374" lon="0.25730365884956785"><ele>311.0</ele><time>2026-05-06T12:37:46Z</time></trkpt><trkpt lat="43.19859730521537" lon="0.25734786369742974"><ele>313.0</ele><time>2026-05-06T12:37:49Z</time></trkpt><trkpt lat="43.19853764064534" lon="0.2574132008262602"><ele>315.0</ele><time>2026-05-06T12:37:52Z</time></trkpt><trkpt lat="43.19848113256687" lon="0.25749401470457794"><ele>315.0</ele><time>2026-05-06T12:37:55Z</time></trkpt><trkpt lat="43.19843560515851" lon="0.25758288637819227"><ele>315.0</ele><time>2026-05-06T12:37:58Z</time></trkpt><trkpt lat="43.19840442887796" lon="0.25766980481417034"><ele>315.0</ele><time>2026-05-06T12:38:01Z</time></trkpt><trkpt lat="43.19836590402236" lon="0.25775801352218497"><ele>315.0</ele><time>2026-05-06T12:38:04Z</time></trkpt><trkpt lat="43.19837066652296" lon="0.2578663010189083"><ele>315.0</ele><time>2026-05-06T12:38:07Z</time></trkpt><trkpt lat="43.19837617966462" lon="0.25796588948410926"><ele>315.0</ele><time>2026-05-06T12:38:10Z</time></trkpt><trkpt lat="43.198382772937116" lon="0.2580647664331787"><ele>315.0</ele><time>2026-05-06T12:38:13Z</time></trkpt><trkpt lat="43.198386264051216" lon="0.25816099334148507"><ele>315.2857142857143</ele><time>2026-05-06T12:38:16Z</time></trkpt><trkpt lat="43.19837342075833" lon="0.25825270879522266"><ele>315.57142857142856</ele><time>2026-05-06T12:38:19Z</time></trkpt><trkpt lat="43.19833354869139" lon="0.25833608375466605"><ele>315.8571428571429</ele><time>2026-05-06T12:38:22Z</time></trkpt><trkpt lat="43.198306557930195" lon="0.25842094048784703"><ele>316.1428571428571</ele><time>2026-05-06T12:38:25Z</time></trkpt><trkpt lat="43.19827908950222" lon="0.2585107731791306"><ele>316.42857142857144</ele><time>2026-05-06T12:38:28Z</time></trkpt><trkpt lat="43.19825678267331" lon="0.2586101281729857"><ele>316.7142857142857</ele><time>2026-05-06T12:38:31Z</time></trkpt><trkpt lat="43.198241075159316" lon="0.2587153622026633"><ele>317.0</ele><time>2026-05-06T12:38:34Z</time></trkpt><trkpt lat="43.19822747959774" lon="0.25881160116674023"><ele>317.0</ele><time>2026-05-06T12:38:37Z</time></trkpt><trkpt lat="43.19821731177271" lon="0.25891129429438353"><ele>317.0</ele><time>2026-05-06T12:38:40Z</time></trkpt><trkpt lat="43.19820916203652" lon="0.25902204348321217"><ele>317.0</ele><time>2026-05-06T12:38:43Z</time></trkpt><trkpt lat="43.19820580773819" lon="0.25912471904024675"><ele>317.0</ele><time>2026-05-06T12:38:46Z</time></trkpt><trkpt lat="43.19821503751336" lon="0.25922848290604966"><ele>317.0</ele><time>2026-05-06T12:38:49Z</time></trkpt><trkpt lat="43.19820786733752" lon="0.25932662856378624"><ele>317.0</ele><time>2026-05-06T12:38:52Z</time></trkpt><trkpt lat="43.198193090119396" lon="0.25942561973489625"><ele>322.0</ele><time>2026-05-06T12:38:55Z</time></trkpt><trkpt lat="43.19815606174081" lon="0.2595147715917575"><ele>327.0</ele><time>2026-05-06T12:38:58Z</time></trkpt><trkpt lat="43.19811997772139" lon="0.25960788091203735"><ele>332.0</ele><time>2026-05-06T12:39:01Z</time></trkpt><trkpt lat="43.19808118958973" lon="0.2596982126009429"><ele>337.0</ele><time>2026-05-06T12:39:04Z</time></trkpt><trkpt lat="43.198044049575195" lon="0.25978869329980553"><ele>342.0</ele><time>2026-05-06T12:39:07Z</time></trkpt><trkpt lat="43.19801164283689" lon="0.25989550511557724"><ele>347.0</ele><time>2026-05-06T12:39:10Z</time></trkpt><trkpt lat="43.197991682353056" lon="0.2600000657050556"><ele>347.0</ele><time>2026-05-06T12:39:13Z</time></trkpt><trkpt lat="43.19797769409135" lon="0.26009082682127704"><ele>347.0</ele><time>2026-05-06T12:39:16Z</time></trkpt><trkpt lat="43.19796409334244" lon="0.26019419568029567"><ele>347.0</ele><time>2026-05-06T12:39:19Z</time></trkpt><trkpt lat="43.19796840626797" lon="0.2602906681414555"><ele>347.0</ele><time>2026-05-06T12:39:22Z</time></trkpt><trkpt lat="43.197955101297055" lon="0.26039441532633306"><ele>347.0</ele><time>2026-05-06T12:39:25Z</time></trkpt><trkpt lat="43.197929978670885" lon="0.2604932803586999"><ele>347.0</ele><time>2026-05-06T12:39:28Z</time></trkpt><trkpt lat="43.19792845576699" lon="0.2606074108926764"><ele>346.0</ele><time>2026-05-06T12:39:31Z</time></trkpt><trkpt lat="43.197891137360145" lon="0.2606941134105128"><ele>345.0</ele><time>2026-05-06T12:39:34Z</time></trkpt><trkpt lat="43.197874148471" lon="0.2608010357714661"><ele>344.0</ele><time>2026-05-06T12:39:37Z</time></trkpt><trkpt lat="43.19784134261349" lon="0.26089223119731536"><ele>343.0</ele><time>2026-05-06T12:39:40Z</time></trkpt><trkpt lat="43.19780105564136" lon="0.2609827345380794"><ele>342.0</ele><time>2026-05-06T12:39:43Z</time></trkpt><trkpt lat="43.197752841833925" lon="0.2610648610573293"><ele>341.0</ele><time>2026-05-06T12:39:46Z</time></trkpt><trkpt lat="43.197692831579445" lon="0.2611153814919721"><ele>341.0</ele><time>2026-05-06T12:39:49Z</time></trkpt><trkpt lat="43.197642818220245" lon="0.26118748687928356"><ele>341.0</ele><time>2026-05-06T12:39:52Z</time></trkpt><trkpt lat="43.19757348557955" lon="0.26121107297070323"><ele>341.0</ele><time>2026-05-06T12:39:55Z</time></trkpt><trkpt lat="43.19750124087429" lon="0.26125000347119165"><ele>341.0</ele><time>2026-05-06T12:39:58Z</time></trkpt><trkpt lat="43.197424724655754" lon="0.26128721678304784"><ele>341.0</ele><time>2026-05-06T12:40:01Z</time></trkpt><trkpt lat="43.19736939773424" lon="0.26133353521781727"><ele>341.0</ele><time>2026-05-06T12:40:04Z</time></trkpt><trkpt lat="43.19730174748466" lon="0.26133858911168895"><ele>341.0</ele><time>2026-05-06T12:40:07Z</time></trkpt><trkpt lat="43.197214991249275" lon="0.2613812349471293"><ele>340.1666666666667</ele><time>2026-05-06T12:40:12Z</time></trkpt><trkpt lat="43.19718833433632" lon="0.2614715880921233"><ele>339.33333333333337</ele><time>2026-05-06T12:40:13Z</time></trkpt><trkpt lat="43.19720819427336" lon="0.26156991247801803"><ele>338.5</ele><time>2026-05-06T12:40:15Z</time></trkpt><trkpt lat="43.197258194100904" lon="0.26166164646218726"><ele>337.6666666666667</ele><time>2026-05-06T12:40:18Z</time></trkpt><trkpt lat="43.19732407693535" lon="0.2617216210449877"><ele>336.8333333333333</ele><time>2026-05-06T12:40:20Z</time></trkpt><trkpt lat="43.197382998813694" lon="0.261810559193232"><ele>336.0</ele><time>2026-05-06T12:40:24Z</time></trkpt><trkpt lat="43.19745142322939" lon="0.2618726397632364"><ele>336.0</ele><time>2026-05-06T12:40:27Z</time></trkpt><trkpt lat="43.19748778131684" lon="0.26196829408142464"><ele>336.0</ele><time>2026-05-06T12:40:31Z</time></trkpt><trkpt lat="43.19747160074194" lon="0.2620538161703255"><ele>336.0</ele><time>2026-05-06T12:40:34Z</time></trkpt><trkpt lat="43.19747432125158" lon="0.26214803840129686"><ele>336.0</ele><time>2026-05-06T12:40:38Z</time></trkpt><trkpt lat="43.19746645284034" lon="0.26223691908296215"><ele>336.0</ele><time>2026-05-06T12:40:41Z</time></trkpt><trkpt lat="43.19744588722088" lon="0.2623243483517768"><ele>336.0</ele><time>2026-05-06T12:40:44Z</time></trkpt><trkpt lat="43.197416457153814" lon="0.2624066079437529"><ele>336.0</ele><time>2026-05-06T12:40:47Z</time></trkpt><trkpt lat="43.19736219137107" lon="0.26249438606998454"><ele>340.3333333333333</ele><time>2026-05-06T12:40:51Z</time></trkpt><trkpt lat="43.19732007451062" lon="0.2625698333815488"><ele>344.6666666666667</ele><time>2026-05-06T12:40:54Z</time></trkpt><trkpt lat="43.19730655299552" lon="0.2626585657203325"><ele>349.0</ele><time>2026-05-06T12:40:56Z</time></trkpt><trkpt lat="43.19731253919907" lon="0.2627734003182108"><ele>353.33333333333337</ele><time>2026-05-06T12:40:59Z</time></trkpt><trkpt lat="43.197322678369076" lon="0.2628643922570134"><ele>357.6666666666667</ele><time>2026-05-06T12:41:01Z</time></trkpt><trkpt lat="43.19732333738729" lon="0.2629893756790884"><ele>362.0</ele><time>2026-05-06T12:41:04Z</time></trkpt><trkpt lat="43.197301571563614" lon="0.2630956037540585"><ele>361.6666666666667</ele><time>2026-05-06T12:41:07Z</time></trkpt><trkpt lat="43.197246402160324" lon="0.26318224956012015"><ele>361.33333333333337</ele><time>2026-05-06T12:41:10Z</time></trkpt><trkpt lat="43.197221737675584" lon="0.2632815837179675"><ele>361.0</ele><time>2026-05-06T12:41:13Z</time></trkpt><trkpt lat="43.197189998479224" lon="0.26337781108306485"><ele>360.6666666666667</ele><time>2026-05-06T12:41:16Z</time></trkpt><trkpt lat="43.197165316556045" lon="0.2634903309980591"><ele>360.3333333333333</ele><time>2026-05-06T12:41:19Z</time></trkpt><trkpt lat="43.197137829869924" lon="0.2635846699076956"><ele>360.0</ele><time>2026-05-06T12:41:22Z</time></trkpt><trkpt lat="43.19711397191354" lon="0.2636678582084737"><ele>360.0</ele><time>2026-05-06T12:41:25Z</time></trkpt><trkpt lat="43.19707371005488" lon="0.2637634088954793"><ele>360.0</ele><time>2026-05-06T12:41:28Z</time></trkpt><trkpt lat="43.197038351170896" lon="0.2638690022532636"><ele>360.0</ele><time>2026-05-06T12:41:31Z</time></trkpt><trkpt lat="43.196998555349744" lon="0.26397412114014573"><ele>360.0</ele><time>2026-05-06T12:41:35Z</time></trkpt><trkpt lat="43.19695299643012" lon="0.2640881121845065"><ele>360.0</ele><time>2026-05-06T12:41:38Z</time></trkpt><trkpt lat="43.19691548212339" lon="0.2641858544550261"><ele>360.0</ele><time>2026-05-06T12:41:42Z</time></trkpt><trkpt lat="43.19685347372519" lon="0.26427244020184987"><ele>359.4285714285714</ele><time>2026-05-06T12:41:45Z</time></trkpt><trkpt lat="43.19680307424295" lon="0.2643260761772259"><ele>358.8571428571429</ele><time>2026-05-06T12:41:48Z</time></trkpt><trkpt lat="43.19674083525495" lon="0.2644014052828227"><ele>358.2857142857143</ele><time>2026-05-06T12:41:51Z</time></trkpt><trkpt lat="43.19668213293869" lon="0.26444230220849546"><ele>357.71428571428567</ele><time>2026-05-06T12:41:54Z</time></trkpt><trkpt lat="43.19661392748694" lon="0.26451161724021843"><ele>357.1428571428571</ele><time>2026-05-06T12:41:57Z</time></trkpt><trkpt lat="43.196558961166566" lon="0.2645657835386965"><ele>356.57142857142856</ele><time>2026-05-06T12:42:00Z</time></trkpt><trkpt lat="43.19648913781853" lon="0.2646281606990382"><ele>356.0</ele><time>2026-05-06T12:42:03Z</time></trkpt><trkpt lat="43.19643370167178" lon="0.26467912983046266"><ele>357.0</ele><time>2026-05-06T12:42:05Z</time></trkpt><trkpt lat="43.196372457584424" lon="0.2647169410767021"><ele>358.0</ele><time>2026-05-06T12:42:08Z</time></trkpt><trkpt lat="43.19629595247461" lon="0.26479850939209154"><ele>359.0</ele><time>2026-05-06T12:42:11Z</time></trkpt><trkpt lat="43.19621153854183" lon="0.26485728472722353"><ele>360.0</ele><time>2026-05-06T12:42:15Z</time></trkpt><trkpt lat="43.196154082505316" lon="0.26489285152052705"><ele>361.0</ele><time>2026-05-06T12:42:17Z</time></trkpt><trkpt lat="43.19609448189217" lon="0.26494547212439223"><ele>362.0</ele><time>2026-05-06T12:42:21Z</time></trkpt><trkpt lat="43.196014290218876" lon="0.26498799035717613"><ele>362.0</ele><time>2026-05-06T12:42:24Z</time></trkpt><trkpt lat="43.19593380465829" lon="0.2650540057354721"><ele>362.0</ele><time>2026-05-06T12:42:28Z</time></trkpt><trkpt lat="43.1958622102056" lon="0.2651192427526057"><ele>362.0</ele><time>2026-05-06T12:42:32Z</time></trkpt><trkpt lat="43.19579327670662" lon="0.2651591452542344"><ele>362.0</ele><time>2026-05-06T12:42:35Z</time></trkpt><trkpt lat="43.19573078361749" lon="0.2652022120975129"><ele>362.0</ele><time>2026-05-06T12:42:37Z</time></trkpt><trkpt lat="43.195672306386236" lon="0.265241244746842"><ele>362.0</ele><time>2026-05-06T12:42:39Z</time></trkpt><trkpt lat="43.19560793829958" lon="0.2652787679196527"><ele>362.5</ele><time>2026-05-06T12:42:42Z</time></trkpt><trkpt lat="43.19553488265047" lon="0.26531493311695264"><ele>363.0</ele><time>2026-05-06T12:42:45Z</time></trkpt><trkpt lat="43.195467872249644" lon="0.26533170194832356"><ele>363.5</ele><time>2026-05-06T12:42:47Z</time></trkpt><trkpt lat="43.19538737208784" lon="0.2653308100195105"><ele>364.0</ele><time>2026-05-06T12:42:51Z</time></trkpt><trkpt lat="43.1953109738831" lon="0.26530110891915776"><ele>364.5</ele><time>2026-05-06T12:42:55Z</time></trkpt><trkpt lat="43.195234211170224" lon="0.2652579005799097"><ele>365.0</ele><time>2026-05-06T12:42:59Z</time></trkpt><trkpt lat="43.19518576080174" lon="0.26517462151407933"><ele>365.0</ele><time>2026-05-06T12:43:03Z</time></trkpt><trkpt lat="43.195146526655236" lon="0.265077275679897"><ele>365.0</ele><time>2026-05-06T12:43:06Z</time></trkpt><trkpt lat="43.19511585029116" lon="0.2649899068462601"><ele>365.0</ele><time>2026-05-06T12:43:10Z</time></trkpt><trkpt lat="43.195087445189785" lon="0.2648997100277131"><ele>365.0</ele><time>2026-05-06T12:43:13Z</time></trkpt><trkpt lat="43.19505592368797" lon="0.2647967983961152"><ele>365.0</ele><time>2026-05-06T12:43:16Z</time></trkpt><trkpt lat="43.19500718340005" lon="0.26468248191803956"><ele>365.0</ele><time>2026-05-06T12:43:20Z</time></trkpt><trkpt lat="43.194945561783" lon="0.2645936956751814"><ele>366.33333333333337</ele><time>2026-05-06T12:43:24Z</time></trkpt><trkpt lat="43.19486268142649" lon="0.2645493430746798"><ele>367.6666666666667</ele><time>2026-05-06T12:43:28Z</time></trkpt><trkpt lat="43.19477734458843" lon="0.2645860277470968"><ele>369.0</ele><time>2026-05-06T12:43:32Z</time></trkpt><trkpt lat="43.194721719208204" lon="0.264641130125707"><ele>370.3333333333333</ele><time>2026-05-06T12:43:35Z</time></trkpt><trkpt lat="43.19467841466884" lon="0.26474449794541227"><ele>371.66666666666663</ele><time>2026-05-06T12:43:38Z</time></trkpt><trkpt lat="43.194638960765616" lon="0.2648172940989458"><ele>373.0</ele><time>2026-05-06T12:43:41Z</time></trkpt><trkpt lat="43.194589839580814" lon="0.2648913697071474"><ele>374.3333333333333</ele><time>2026-05-06T12:43:44Z</time></trkpt><trkpt lat="43.19453930034971" lon="0.2649866870980753"><ele>375.66666666666663</ele><time>2026-05-06T12:43:47Z</time></trkpt><trkpt lat="43.194468019876176" lon="0.265078127908934"><ele>377.0</ele><time>2026-05-06T12:43:51Z</time></trkpt><trkpt lat="43.19440286544062" lon="0.2651233866000715"><ele>378.3333333333333</ele><time>2026-05-06T12:43:55Z</time></trkpt><trkpt lat="43.19433894443873" lon="0.2651603336272413"><ele>379.6666666666667</ele><time>2026-05-06T12:43:59Z</time></trkpt><trkpt lat="43.19426512506833" lon="0.2651939614014521"><ele>381.0</ele><time>2026-05-06T12:44:03Z</time></trkpt><trkpt lat="43.19419934706075" lon="0.26521119165656837"><ele>381.0</ele><time>2026-05-06T12:44:06Z</time></trkpt><trkpt lat="43.19413311998716" lon="0.26523621127336505"><ele>381.0</ele><time>2026-05-06T12:44:09Z</time></trkpt><trkpt lat="43.19405622922747" lon="0.2652723097576055"><ele>381.0</ele><time>2026-05-06T12:44:11Z</time></trkpt><trkpt lat="43.1939615343949" lon="0.2653170224795623"><ele>381.0</ele><time>2026-05-06T12:44:14Z</time></trkpt><trkpt lat="43.19390516882311" lon="0.26535600087772104"><ele>381.0</ele><time>2026-05-06T12:44:17Z</time></trkpt><trkpt lat="43.19381397651357" lon="0.26539233578690874"><ele>381.0</ele><time>2026-05-06T12:44:20Z</time></trkpt><trkpt lat="43.19374233323768" lon="0.26543223138028216"><ele>380.4285714285714</ele><time>2026-05-06T12:44:22Z</time></trkpt><trkpt lat="43.19366849426428" lon="0.26547754012847974"><ele>379.8571428571429</ele><time>2026-05-06T12:44:25Z</time></trkpt><trkpt lat="43.193598024265064" lon="0.2655137129034363"><ele>379.2857142857143</ele><time>2026-05-06T12:44:28Z</time></trkpt><trkpt lat="43.193535849915385" lon="0.26553769840487884"><ele>378.71428571428567</ele><time>2026-05-06T12:44:31Z</time></trkpt><trkpt lat="43.19346777363041" lon="0.2655715699077637"><ele>378.1428571428571</ele><time>2026-05-06T12:44:34Z</time></trkpt><trkpt lat="43.193404781040876" lon="0.26560341454925995"><ele>377.57142857142856</ele><time>2026-05-06T12:44:37Z</time></trkpt><trkpt lat="43.1933170834008" lon="0.2656050696941459"><ele>377.0</ele><time>2026-05-06T12:44:41Z</time></trkpt><trkpt lat="43.19324668441671" lon="0.2656327113804364"><ele>379.33333333333337</ele><time>2026-05-06T12:44:44Z</time></trkpt><trkpt lat="43.19316912457056" lon="0.2656641786564806"><ele>381.6666666666667</ele><time>2026-05-06T12:44:47Z</time></trkpt><trkpt lat="43.19309868762163" lon="0.2656883988663521"><ele>384.0</ele><time>2026-05-06T12:44:50Z</time></trkpt><trkpt lat="43.193010728856216" lon="0.2657245340868376"><ele>386.33333333333337</ele><time>2026-05-06T12:44:53Z</time></trkpt><trkpt lat="43.192935698021266" lon="0.26576347093037567"><ele>388.6666666666667</ele><time>2026-05-06T12:44:56Z</time></trkpt><trkpt lat="43.19286702280057" lon="0.26580769790452485"><ele>391.0</ele><time>2026-05-06T12:44:59Z</time></trkpt><trkpt lat="43.19279844801133" lon="0.265867965893885"><ele>390.99999999999994</ele><time>2026-05-06T12:45:02Z</time></trkpt><trkpt lat="43.19272470521418" lon="0.26591556338106426"><ele>391.0</ele><time>2026-05-06T12:45:05Z</time></trkpt><trkpt lat="43.192663663605664" lon="0.26597352152142345"><ele>391.0</ele><time>2026-05-06T12:45:08Z</time></trkpt><trkpt lat="43.19259464352256" lon="0.266014544271561"><ele>391.0</ele><time>2026-05-06T12:45:12Z</time></trkpt><trkpt lat="43.1925297361607" lon="0.26602485876008863"><ele>391.0</ele><time>2026-05-06T12:45:14Z</time></trkpt><trkpt lat="43.192463219673584" lon="0.26604676244188774"><ele>390.99999999999994</ele><time>2026-05-06T12:45:17Z</time></trkpt><trkpt lat="43.19239895626811" lon="0.2660761596315798"><ele>391.0</ele><time>2026-05-06T12:45:20Z</time></trkpt><trkpt lat="43.19234097980643" lon="0.2661294769831494"><ele>392.50000000000006</ele><time>2026-05-06T12:45:23Z</time></trkpt><trkpt lat="43.1922647262101" lon="0.2661492654558126"><ele>394.0</ele><time>2026-05-06T12:45:26Z</time></trkpt><trkpt lat="43.192194648142234" lon="0.2661679640757133"><ele>395.5</ele><time>2026-05-06T12:45:30Z</time></trkpt><trkpt lat="43.19212035701815" lon="0.26619547372016705"><ele>397.0</ele><time>2026-05-06T12:45:34Z</time></trkpt><trkpt lat="43.19204252418579" lon="0.2661946859634779"><ele>398.50000000000006</ele><time>2026-05-06T12:45:38Z</time></trkpt><trkpt lat="43.191969564403436" lon="0.2661989836761402"><ele>400.0</ele><time>2026-05-06T12:45:41Z</time></trkpt><trkpt lat="43.19189103213833" lon="0.26621381040782743"><ele>400.00000000000006</ele><time>2026-05-06T12:45:45Z</time></trkpt><trkpt lat="43.19180296545389" lon="0.2662662922111077"><ele>400.0</ele><time>2026-05-06T12:45:48Z</time></trkpt><trkpt lat="43.19173874329714" lon="0.2662816142546605"><ele>400.0</ele><time>2026-05-06T12:45:51Z</time></trkpt><trkpt lat="43.19164136664227" lon="0.26633421304752164"><ele>400.0</ele><time>2026-05-06T12:45:55Z</time></trkpt><trkpt lat="43.191574753853985" lon="0.2663180043030275"><ele>400.00000000000006</ele><time>2026-05-06T12:45:58Z</time></trkpt><trkpt lat="43.191492325318784" lon="0.2663122458796523"><ele>400.0</ele><time>2026-05-06T12:46:01Z</time></trkpt><trkpt lat="43.191428028937786" lon="0.2663280228449975"><ele>401.33333333333337</ele><time>2026-05-06T12:46:04Z</time></trkpt><trkpt lat="43.19133319357461" lon="0.266335746838465"><ele>402.6666666666667</ele><time>2026-05-06T12:46:07Z</time></trkpt><trkpt lat="43.19124106900612" lon="0.26635520753711"><ele>404.0</ele><time>2026-05-06T12:46:11Z</time></trkpt><trkpt lat="43.19115169929114" lon="0.26636552740162367"><ele>405.33333333333337</ele><time>2026-05-06T12:46:15Z</time></trkpt><trkpt lat="43.191087249280706" lon="0.2663674743192926"><ele>406.6666666666667</ele><time>2026-05-06T12:46:17Z</time></trkpt><trkpt lat="43.19100062118425" lon="0.26639100529259707"><ele>408.0</ele><time>2026-05-06T12:46:21Z</time></trkpt><trkpt lat="43.19093532760453" lon="0.26641505141989735"><ele>408.0</ele><time>2026-05-06T12:46:24Z</time></trkpt><trkpt lat="43.190849430040934" lon="0.2664378236878942"><ele>408.0</ele><time>2026-05-06T12:46:27Z</time></trkpt><trkpt lat="43.190769599544296" lon="0.2664724013031845"><ele>408.0</ele><time>2026-05-06T12:46:31Z</time></trkpt><trkpt lat="43.19068407629972" lon="0.2665030185708373"><ele>408.0</ele><time>2026-05-06T12:46:34Z</time></trkpt><trkpt lat="43.190620422646695" lon="0.26651922819386636"><ele>408.0</ele><time>2026-05-06T12:46:37Z</time></trkpt><trkpt lat="43.19053065311877" lon="0.2665444484318974"><ele>408.0</ele><time>2026-05-06T12:46:40Z</time></trkpt><trkpt lat="43.190450813275405" lon="0.2665606770841776"><ele>405.5</ele><time>2026-05-06T12:46:44Z</time></trkpt><trkpt lat="43.19036665357615" lon="0.2665708753117714"><ele>403.0</ele><time>2026-05-06T12:46:47Z</time></trkpt><trkpt lat="43.19029138569989" lon="0.26658504789854043"><ele>400.5</ele><time>2026-05-06T12:46:50Z</time></trkpt><trkpt lat="43.19018179809371" lon="0.2665907115129456"><ele>398.0</ele><time>2026-05-06T12:46:53Z</time></trkpt><trkpt lat="43.190114189065255" lon="0.2666069593280757"><ele>395.5</ele><time>2026-05-06T12:46:55Z</time></trkpt><trkpt lat="43.190021498045844" lon="0.26665520645253055"><ele>393.0</ele><time>2026-05-06T12:46:59Z</time></trkpt><trkpt lat="43.18995378869815" lon="0.2666785268888415"><ele>393.0</ele><time>2026-05-06T12:47:01.999Z</time></trkpt><trkpt lat="43.18988208503629" lon="0.2667048766680498"><ele>393.0</ele><time>2026-05-06T12:47:04.999Z</time></trkpt><trkpt lat="43.18979930568884" lon="0.2667451202355271"><ele>393.0</ele><time>2026-05-06T12:47:07.999Z</time></trkpt><trkpt lat="43.18971641788955" lon="0.2667723247290506"><ele>393.0</ele><time>2026-05-06T12:47:10.999Z</time></trkpt><trkpt lat="43.189642415952164" lon="0.2668064297955783"><ele>393.0</ele><time>2026-05-06T12:47:13.999Z</time></trkpt><trkpt lat="43.18957734050484" lon="0.2668294229678207"><ele>393.0</ele><time>2026-05-06T12:47:16Z</time></trkpt><trkpt lat="43.1895132670782" lon="0.2668667816536712"><ele>392.0</ele><time>2026-05-06T12:47:19Z</time></trkpt><trkpt lat="43.18945092863382" lon="0.2668954647099929"><ele>391.0</ele><time>2026-05-06T12:47:21Z</time></trkpt><trkpt lat="43.18937431365219" lon="0.2669363534710271"><ele>390.0</ele><time>2026-05-06T12:47:25Z</time></trkpt><trkpt lat="43.189304440621186" lon="0.2670310881126602"><ele>389.0</ele><time>2026-05-06T12:47:28Z</time></trkpt><trkpt lat="43.189286840729544" lon="0.2671332683007276"><ele>388.0</ele><time>2026-05-06T12:47:30Z</time></trkpt><trkpt lat="43.18929873276616" lon="0.26724553299052184"><ele>387.0</ele><time>2026-05-06T12:47:32Z</time></trkpt><trkpt lat="43.189295788634745" lon="0.2673350051788552"><ele>387.0</ele><time>2026-05-06T12:47:34Z</time></trkpt><trkpt lat="43.189329223390686" lon="0.26740970913059375"><ele>387.0</ele><time>2026-05-06T12:47:36Z</time></trkpt><trkpt lat="43.18936357567207" lon="0.2675067027199686"><ele>387.0</ele><time>2026-05-06T12:47:39Z</time></trkpt><trkpt lat="43.189418047135554" lon="0.2675817719165061"><ele>387.0</ele><time>2026-05-06T12:47:42Z</time></trkpt><trkpt lat="43.189467959966635" lon="0.2676557419023182"><ele>387.0</ele><time>2026-05-06T12:47:46Z</time></trkpt><trkpt lat="43.189540662639416" lon="0.2677258822305655"><ele>387.0</ele><time>2026-05-06T12:47:49Z</time></trkpt><trkpt lat="43.1896013150049" lon="0.26775764243918854"><ele>387.0</ele><time>2026-05-06T12:47:53Z</time></trkpt><trkpt lat="43.18966435871395" lon="0.267802942530329"><ele>387.0</ele><time>2026-05-06T12:47:56Z</time></trkpt><trkpt lat="43.18972743378217" lon="0.2678415327756474"><ele>387.0</ele><time>2026-05-06T12:47:59Z</time></trkpt><trkpt lat="43.18980113038287" lon="0.26788612548867385"><ele>387.0</ele><time>2026-05-06T12:48:03Z</time></trkpt><trkpt lat="43.18987917657293" lon="0.2679206844470693"><ele>387.0</ele><time>2026-05-06T12:48:06Z</time></trkpt><trkpt lat="43.1899467710732" lon="0.26793948790198685"><ele>387.0</ele><time>2026-05-06T12:48:09Z</time></trkpt><trkpt lat="43.19003482300207" lon="0.26797533691865516"><ele>387.0</ele><time>2026-05-06T12:48:12Z</time></trkpt><trkpt lat="43.19011550534136" lon="0.2680130480988449"><ele>388.6666666666667</ele><time>2026-05-06T12:48:16Z</time></trkpt><trkpt lat="43.190200380092264" lon="0.26803032160726986"><ele>390.33333333333337</ele><time>2026-05-06T12:48:19Z</time></trkpt><trkpt lat="43.19027105614862" lon="0.26805401077938973"><ele>392.0</ele><time>2026-05-06T12:48:22Z</time></trkpt><trkpt lat="43.19034081151144" lon="0.2680696451275154"><ele>393.6666666666667</ele><time>2026-05-06T12:48:25Z</time></trkpt><trkpt lat="43.19041994061602" lon="0.26809217673848396"><ele>395.33333333333337</ele><time>2026-05-06T12:48:28Z</time></trkpt><trkpt lat="43.190500818986386" lon="0.26811481088528355"><ele>397.0</ele><time>2026-05-06T12:48:31Z</time></trkpt><trkpt lat="43.19057522388292" lon="0.2681412910194622"><ele>398.6666666666667</ele><time>2026-05-06T12:48:34Z</time></trkpt><trkpt lat="43.19065351039982" lon="0.2681694850395333"><ele>400.33333333333337</ele><time>2026-05-06T12:48:37Z</time></trkpt><trkpt lat="43.19073768426925" lon="0.2682079233929724"><ele>402.0</ele><time>2026-05-06T12:48:40Z</time></trkpt><trkpt lat="43.190813456658695" lon="0.2682484257351881"><ele>403.66666666666663</ele><time>2026-05-06T12:48:43Z</time></trkpt><trkpt lat="43.19087607407663" lon="0.26829978562201984"><ele>405.3333333333333</ele><time>2026-05-06T12:48:46Z</time></trkpt><trkpt lat="43.19093774865809" lon="0.26835491758107305"><ele>407.0</ele><time>2026-05-06T12:48:49Z</time></trkpt><trkpt lat="43.190993503679955" lon="0.2684157364346137"><ele>407.14285714285717</ele><time>2026-05-06T12:48:52Z</time></trkpt><trkpt lat="43.19105261363234" lon="0.2684936468839182"><ele>407.2857142857143</ele><time>2026-05-06T12:48:55Z</time></trkpt><trkpt lat="43.1911031331188" lon="0.26857958741110344"><ele>407.42857142857144</ele><time>2026-05-06T12:48:58Z</time></trkpt><trkpt lat="43.19113779404925" lon="0.26866676968018494"><ele>407.57142857142856</ele><time>2026-05-06T12:49:01Z</time></trkpt><trkpt lat="43.19117411961117" lon="0.26873876073909797"><ele>407.7142857142857</ele><time>2026-05-06T12:49:03Z</time></trkpt><trkpt lat="43.19120926636454" lon="0.2688122872986528"><ele>407.8571428571429</ele><time>2026-05-06T12:49:06Z</time></trkpt><trkpt lat="43.19123520264155" lon="0.26890097930396"><ele>408.0</ele><time>2026-05-06T12:49:09Z</time></trkpt><trkpt lat="43.19125255730616" lon="0.2689889600667671"><ele>410.1666666666667</ele><time>2026-05-06T12:49:12Z</time></trkpt><trkpt lat="43.19126346862762" lon="0.2690887192058461"><ele>412.33333333333337</ele><time>2026-05-06T12:49:15Z</time></trkpt><trkpt lat="43.191264516218816" lon="0.2691969551952362"><ele>414.5</ele><time>2026-05-06T12:49:18Z</time></trkpt><trkpt lat="43.19126566881298" lon="0.26932611797045286"><ele>416.6666666666667</ele><time>2026-05-06T12:49:21Z</time></trkpt><trkpt lat="43.19126690229668" lon="0.2694386126748105"><ele>418.83333333333337</ele><time>2026-05-06T12:49:25Z</time></trkpt><trkpt lat="43.19125539751662" lon="0.26955936768858885"><ele>421.0</ele><time>2026-05-06T12:49:28Z</time></trkpt><trkpt lat="43.191241688697666" lon="0.26966454336961043"><ele>422.33333333333337</ele><time>2026-05-06T12:49:32Z</time></trkpt><trkpt lat="43.19123249937032" lon="0.2697910354117066"><ele>423.6666666666667</ele><time>2026-05-06T12:49:35Z</time></trkpt><trkpt lat="43.191236677042546" lon="0.26988707239107856"><ele>425.0</ele><time>2026-05-06T12:49:38Z</time></trkpt><trkpt lat="43.191242258796755" lon="0.269990074108995"><ele>426.33333333333337</ele><time>2026-05-06T12:49:41Z</time></trkpt><trkpt lat="43.19122139227234" lon="0.2700946756154063"><ele>427.6666666666667</ele><time>2026-05-06T12:49:44Z</time></trkpt><trkpt lat="43.191211556929396" lon="0.2702040005847016"><ele>429.0</ele><time>2026-05-06T12:49:47Z</time></trkpt><trkpt lat="43.19119956127944" lon="0.27032043695134794"><ele>429.0</ele><time>2026-05-06T12:49:50Z</time></trkpt><trkpt lat="43.1911904748337" lon="0.27040969983525"><ele>429.0</ele><time>2026-05-06T12:49:53Z</time></trkpt><trkpt lat="43.19118022343291" lon="0.27050425293471686"><ele>429.0</ele><time>2026-05-06T12:49:56Z</time></trkpt><trkpt lat="43.191171055331026" lon="0.27060207686197346"><ele>429.0</ele><time>2026-05-06T12:49:59Z</time></trkpt><trkpt lat="43.191151733459876" lon="0.27070232874513855"><ele>429.0</ele><time>2026-05-06T12:50:02Z</time></trkpt><trkpt lat="43.19112988130236" lon="0.2708001996243032"><ele>429.0</ele><time>2026-05-06T12:50:05Z</time></trkpt><trkpt lat="43.19112223492767" lon="0.2708983017875393"><ele>429.0</ele><time>2026-05-06T12:50:07Z</time></trkpt><trkpt lat="43.1911270559073" lon="0.27101116277759096"><ele>430.0</ele><time>2026-05-06T12:50:11Z</time></trkpt><trkpt lat="43.19111759679706" lon="0.2711312673787481"><ele>431.0</ele><time>2026-05-06T12:50:14Z</time></trkpt><trkpt lat="43.19113520390106" lon="0.2712521620398574"><ele>432.0</ele><time>2026-05-06T12:50:18Z</time></trkpt><trkpt lat="43.191175501646214" lon="0.27135690585970307"><ele>433.0</ele><time>2026-05-06T12:50:21Z</time></trkpt><trkpt lat="43.19122111206378" lon="0.27144969139132435"><ele>434.0</ele><time>2026-05-06T12:50:24Z</time></trkpt><trkpt lat="43.191269851564414" lon="0.2715184921987079"><ele>435.0</ele><time>2026-05-06T12:50:27Z</time></trkpt><trkpt lat="43.191329383774494" lon="0.27158822219764484"><ele>435.6666666666667</ele><time>2026-05-06T12:50:30Z</time></trkpt><trkpt lat="43.19140869787613" lon="0.2716597215359034"><ele>436.33333333333337</ele><time>2026-05-06T12:50:34Z</time></trkpt><trkpt lat="43.191499312047505" lon="0.2717059814962586"><ele>437.0</ele><time>2026-05-06T12:50:38Z</time></trkpt><trkpt lat="43.191577650579255" lon="0.27170406388622537"><ele>437.6666666666667</ele><time>2026-05-06T12:50:41Z</time></trkpt><trkpt lat="43.191656325452655" lon="0.2717028005991803"><ele>438.33333333333337</ele><time>2026-05-06T12:50:44Z</time></trkpt><trkpt lat="43.19172888418709" lon="0.2717037273454429"><ele>439.0</ele><time>2026-05-06T12:50:47Z</time></trkpt><trkpt lat="43.19179996368686" lon="0.27168477836534255"><ele>437.33333333333337</ele><time>2026-05-06T12:50:50Z</time></trkpt><trkpt lat="43.191876237405786" lon="0.271674093165429"><ele>435.6666666666667</ele><time>2026-05-06T12:50:53Z</time></trkpt><trkpt lat="43.191947723948566" lon="0.2716362924594367"><ele>434.0</ele><time>2026-05-06T12:50:56Z</time></trkpt><trkpt lat="43.19201725173236" lon="0.2716050962497736"><ele>432.33333333333337</ele><time>2026-05-06T12:50:59Z</time></trkpt><trkpt lat="43.19209505102025" lon="0.27155527194083584"><ele>430.6666666666667</ele><time>2026-05-06T12:51:02Z</time></trkpt><trkpt lat="43.19216496910584" lon="0.2715186052487357"><ele>429.0</ele><time>2026-05-06T12:51:05Z</time></trkpt><trkpt lat="43.192225789841515" lon="0.271480181022663"><ele>427.8333333333333</ele><time>2026-05-06T12:51:07Z</time></trkpt><trkpt lat="43.192292385315874" lon="0.27144032977235066"><ele>426.66666666666663</ele><time>2026-05-06T12:51:10Z</time></trkpt><trkpt lat="43.192351941585294" lon="0.27140920572952687"><ele>425.5</ele><time>2026-05-06T12:51:12Z</time></trkpt><trkpt lat="43.192418072041626" lon="0.27138167937918045"><ele>424.3333333333333</ele><time>2026-05-06T12:51:15Z</time></trkpt><trkpt lat="43.19248625262056" lon="0.27133740508075177"><ele>423.16666666666663</ele><time>2026-05-06T12:51:18Z</time></trkpt><trkpt lat="43.192562720294546" lon="0.2712968998998958"><ele>422.0</ele><time>2026-05-06T12:51:21Z</time></trkpt><trkpt lat="43.1926394528351" lon="0.2712406137167122"><ele>421.99999999999994</ele><time>2026-05-06T12:51:24Z</time></trkpt><trkpt lat="43.19271374935887" lon="0.27119371896550953"><ele>422.0</ele><time>2026-05-06T12:51:27Z</time></trkpt><trkpt lat="43.19277131941145" lon="0.2711566556725534"><ele>422.0</ele><time>2026-05-06T12:51:29Z</time></trkpt><trkpt lat="43.19282581425129" lon="0.27109677036241414"><ele>422.0</ele><time>2026-05-06T12:51:32Z</time></trkpt><trkpt lat="43.1928895013999" lon="0.27104352693027256"><ele>421.99999999999994</ele><time>2026-05-06T12:51:35Z</time></trkpt><trkpt lat="43.192966279829086" lon="0.27098498383340885"><ele>422.0</ele><time>2026-05-06T12:51:38Z</time></trkpt><trkpt lat="43.193052224793774" lon="0.27092111566809196"><ele>421.99999999999994</ele><time>2026-05-06T12:51:41Z</time></trkpt><trkpt lat="43.19310671724562" lon="0.27086396846604804"><ele>422.0</ele><time>2026-05-06T12:51:44Z</time></trkpt><trkpt lat="43.19317231028988" lon="0.2707999748192428"><ele>422.0</ele><time>2026-05-06T12:51:47Z</time></trkpt><trkpt lat="43.19326119427264" lon="0.2707249486396297"><ele>422.0</ele><time>2026-05-06T12:51:50Z</time></trkpt><trkpt lat="43.19331922061362" lon="0.2706801021561863"><ele>421.99999999999994</ele><time>2026-05-06T12:51:53Z</time></trkpt><trkpt lat="43.19338871351742" lon="0.27063082441026887"><ele>422.0</ele><time>2026-05-06T12:51:56Z</time></trkpt><trkpt lat="43.19347985747483" lon="0.27056832508419404"><ele>422.0</ele><time>2026-05-06T12:51:59Z</time></trkpt><trkpt lat="43.19354685438072" lon="0.2705181076992007"><ele>422.0</ele><time>2026-05-06T12:52:02Z</time></trkpt><trkpt lat="43.1936083977478" lon="0.27048032154963064"><ele>422.0</ele><time>2026-05-06T12:52:05Z</time></trkpt><trkpt lat="43.19366624117418" lon="0.27044312950203436"><ele>422.0</ele><time>2026-05-06T12:52:07Z</time></trkpt><trkpt lat="43.193735263324264" lon="0.2704171660945101"><ele>422.0</ele><time>2026-05-06T12:52:10Z</time></trkpt><trkpt lat="43.193805223456245" lon="0.27038435499199637"><ele>422.0</ele><time>2026-05-06T12:52:13Z</time></trkpt><trkpt lat="43.193889432059805" lon="0.2703571541769465"><ele>422.0</ele><time>2026-05-06T12:52:16Z</time></trkpt><trkpt lat="43.19396944969588" lon="0.2703299741551193"><ele>423.7142857142857</ele><time>2026-05-06T12:52:19Z</time></trkpt><trkpt lat="43.194070142995656" lon="0.27031538222875257"><ele>425.42857142857144</ele><time>2026-05-06T12:52:22Z</time></trkpt><trkpt lat="43.19413498211993" lon="0.2703046098595261"><ele>427.1428571428571</ele><time>2026-05-06T12:52:25Z</time></trkpt><trkpt lat="43.19420238143208" lon="0.2703105032286082"><ele>428.8571428571429</ele><time>2026-05-06T12:52:27Z</time></trkpt><trkpt lat="43.19426746729947" lon="0.2703252568840247"><ele>430.57142857142856</ele><time>2026-05-06T12:52:30Z</time></trkpt><trkpt lat="43.19433818560362" lon="0.2703419687665324"><ele>432.2857142857143</ele><time>2026-05-06T12:52:33Z</time></trkpt><trkpt lat="43.19439762147886" lon="0.27038356781268263"><ele>434.0</ele><time>2026-05-06T12:52:36Z</time></trkpt><trkpt lat="43.19445696824793" lon="0.2704301391613807"><ele>434.0</ele><time>2026-05-06T12:52:39Z</time></trkpt><trkpt lat="43.19450248157004" lon="0.2705023596852708"><ele>434.0</ele><time>2026-05-06T12:52:42Z</time></trkpt><trkpt lat="43.19453684107316" lon="0.2705892060114949"><ele>434.0</ele><time>2026-05-06T12:52:45Z</time></trkpt><trkpt lat="43.194552084743535" lon="0.2706746383109604"><ele>434.0</ele><time>2026-05-06T12:52:48Z</time></trkpt><trkpt lat="43.19455355238347" lon="0.2707813890237761"><ele>434.0</ele><time>2026-05-06T12:52:52Z</time></trkpt><trkpt lat="43.194548149574125" lon="0.2708937787764244"><ele>434.0</ele><time>2026-05-06T12:52:55Z</time></trkpt><trkpt lat="43.19452551014298" lon="0.27098680556095284"><ele>434.0</ele><time>2026-05-06T12:52:58Z</time></trkpt><trkpt lat="43.194501833530396" lon="0.2710843761423948"><ele>435.57142857142856</ele><time>2026-05-06T12:53:01Z</time></trkpt><trkpt lat="43.19446289737991" lon="0.2711780619590936"><ele>437.1428571428571</ele><time>2026-05-06T12:53:05Z</time></trkpt><trkpt lat="43.19441935812962" lon="0.2712407068002739"><ele>438.7142857142857</ele><time>2026-05-06T12:53:08Z</time></trkpt><trkpt lat="43.194381723596955" lon="0.2713212325672743"><ele>440.2857142857143</ele><time>2026-05-06T12:53:11Z</time></trkpt><trkpt lat="43.19432412516418" lon="0.27140519198892343"><ele>441.85714285714283</ele><time>2026-05-06T12:53:14Z</time></trkpt><trkpt lat="43.194283298886944" lon="0.2714763254194982"><ele>443.42857142857144</ele><time>2026-05-06T12:53:17Z</time></trkpt><trkpt lat="43.19423152303601" lon="0.27155910863629484"><ele>445.0</ele><time>2026-05-06T12:53:20Z</time></trkpt><trkpt lat="43.194185725412154" lon="0.2716336049246727"><ele>445.33333333333337</ele><time>2026-05-06T12:53:23Z</time></trkpt><trkpt lat="43.19413641129711" lon="0.2717285091830305"><ele>445.6666666666667</ele><time>2026-05-06T12:53:26Z</time></trkpt><trkpt lat="43.19407417483418" lon="0.2718217310077331"><ele>446.0</ele><time>2026-05-06T12:53:29Z</time></trkpt><trkpt lat="43.19402513197165" lon="0.2718813865785612"><ele>446.33333333333337</ele><time>2026-05-06T12:53:32Z</time></trkpt><trkpt lat="43.1939738454121" lon="0.2719326958328067"><ele>446.6666666666667</ele><time>2026-05-06T12:53:34Z</time></trkpt><trkpt lat="43.193905644694325" lon="0.27200094537842956"><ele>447.0</ele><time>2026-05-06T12:53:38Z</time></trkpt><trkpt lat="43.193839189207374" lon="0.27204989440312594"><ele>447.1428571428571</ele><time>2026-05-06T12:53:41Z</time></trkpt><trkpt lat="43.193765934370916" lon="0.27208631254674054"><ele>447.2857142857143</ele><time>2026-05-06T12:53:44Z</time></trkpt><trkpt lat="43.193680594568185" lon="0.2721310734903457"><ele>447.42857142857144</ele><time>2026-05-06T12:53:47Z</time></trkpt><trkpt lat="43.19361190908508" lon="0.2721552634746268"><ele>447.57142857142856</ele><time>2026-05-06T12:53:50Z</time></trkpt><trkpt lat="43.193547691467195" lon="0.2721724394982878"><ele>447.7142857142857</ele><time>2026-05-06T12:53:52Z</time></trkpt><trkpt lat="43.193484435794225" lon="0.27218897525606056"><ele>447.85714285714283</ele><time>2026-05-06T12:53:55Z</time></trkpt><trkpt lat="43.193415159593116" lon="0.2722019202445206"><ele>448.0</ele><time>2026-05-06T12:53:57Z</time></trkpt><trkpt lat="43.19334513578889" lon="0.27221287027524643"><ele>448.0</ele><time>2026-05-06T12:54:00Z</time></trkpt><trkpt lat="43.193281288024764" lon="0.272216957155467"><ele>447.99999999999994</ele><time>2026-05-06T12:54:02Z</time></trkpt><trkpt lat="43.19316135675523" lon="0.27223187895172424"><ele>447.99999999999994</ele><time>2026-05-06T12:54:05Z</time></trkpt><trkpt lat="43.193096361644635" lon="0.27223729821270587"><ele>448.0</ele><time>2026-05-06T12:54:06Z</time></trkpt><trkpt lat="43.19298663489625" lon="0.27227303229816635"><ele>448.0</ele><time>2026-05-06T12:54:08Z</time></trkpt><trkpt lat="43.192870002349416" lon="0.2723159277662393"><ele>447.0</ele><time>2026-05-06T12:54:10Z</time></trkpt><trkpt lat="43.19275026338424" lon="0.2723543800563077"><ele>445.99999999999994</ele><time>2026-05-06T12:54:12Z</time></trkpt><trkpt lat="43.19264554664382" lon="0.2724080106715645"><ele>444.99999999999994</ele><time>2026-05-06T12:54:14Z</time></trkpt><trkpt lat="43.19259079479485" lon="0.27246014783862127"><ele>444.0</ele><time>2026-05-06T12:54:17Z</time></trkpt><trkpt lat="43.19253013013746" lon="0.2725010899454624"><ele>443.0</ele><time>2026-05-06T12:54:18Z</time></trkpt><trkpt lat="43.19244125827312" lon="0.27254096532124356"><ele>442.99999999999994</ele><time>2026-05-06T12:54:20Z</time></trkpt><trkpt lat="43.19236856815921" lon="0.2725873023050265"><ele>443.0</ele><time>2026-05-06T12:54:22Z</time></trkpt><trkpt lat="43.19230186063276" lon="0.2726692170484199"><ele>443.0</ele><time>2026-05-06T12:54:24Z</time></trkpt><trkpt lat="43.19222824699786" lon="0.2727379920114821"><ele>443.0</ele><time>2026-05-06T12:54:26Z</time></trkpt><trkpt lat="43.19215677078922" lon="0.2727944093361312"><ele>442.99999999999994</ele><time>2026-05-06T12:54:28Z</time></trkpt><trkpt lat="43.19209047587593" lon="0.27284440712590124"><ele>443.0</ele><time>2026-05-06T12:54:30Z</time></trkpt><trkpt lat="43.19202808667222" lon="0.272907913232606"><ele>443.79999999999995</ele><time>2026-05-06T12:54:32Z</time></trkpt><trkpt lat="43.19194973801525" lon="0.2729733755078614"><ele>444.59999999999997</ele><time>2026-05-06T12:54:35Z</time></trkpt><trkpt lat="43.19183756640026" lon="0.27313505937213733"><ele>445.40000000000003</ele><time>2026-05-06T12:54:38Z</time></trkpt><trkpt lat="43.191756198536716" lon="0.2732203874952738"><ele>446.20000000000005</ele><time>2026-05-06T12:54:40Z</time></trkpt><trkpt lat="43.1916938091508" lon="0.27329459718245236"><ele>447.0</ele><time>2026-05-06T12:54:42Z</time></trkpt><trkpt lat="43.19162607299135" lon="0.2733590887991162"><ele>448.0</ele><time>2026-05-06T12:54:44Z</time></trkpt><trkpt lat="43.19154998360319" lon="0.2734435240298678"><ele>449.0</ele><time>2026-05-06T12:54:47Z</time></trkpt><trkpt lat="43.191475573030864" lon="0.27353053197217775"><ele>450.0</ele><time>2026-05-06T12:54:50Z</time></trkpt><trkpt lat="43.19142112835658" lon="0.2736117447204625"><ele>451.0</ele><time>2026-05-06T12:54:53Z</time></trkpt><trkpt lat="43.19137510517482" lon="0.2736756727631585"><ele>452.0</ele><time>2026-05-06T12:54:55Z</time></trkpt><trkpt lat="43.19132856595739" lon="0.27374904978699893"><ele>453.0</ele><time>2026-05-06T12:54:58Z</time></trkpt><trkpt lat="43.191290288066675" lon="0.27381766717163847"><ele>455.3333333333333</ele><time>2026-05-06T12:55:00Z</time></trkpt><trkpt lat="43.19124823653113" lon="0.2738953663434342"><ele>457.66666666666663</ele><time>2026-05-06T12:55:03Z</time></trkpt><trkpt lat="43.19120760787745" lon="0.2739664557942319"><ele>460.0</ele><time>2026-05-06T12:55:05Z</time></trkpt><trkpt lat="43.1911599451205" lon="0.27403999515890665"><ele>462.3333333333333</ele><time>2026-05-06T12:55:08Z</time></trkpt><trkpt lat="43.19110989932058" lon="0.2741248239070318"><ele>464.66666666666663</ele><time>2026-05-06T12:55:10Z</time></trkpt><trkpt lat="43.191069083847644" lon="0.27422482320603137"><ele>467.0</ele><time>2026-05-06T12:55:13Z</time></trkpt><trkpt lat="43.19102078930342" lon="0.2743162458837021"><ele>467.16666666666663</ele><time>2026-05-06T12:55:16Z</time></trkpt><trkpt lat="43.19096946195357" lon="0.2744198985308218"><ele>467.3333333333333</ele><time>2026-05-06T12:55:19Z</time></trkpt><trkpt lat="43.19094733418527" lon="0.2745394088434641"><ele>467.5</ele><time>2026-05-06T12:55:22Z</time></trkpt><trkpt lat="43.190909284681375" lon="0.274636444476216"><ele>467.66666666666663</ele><time>2026-05-06T12:55:25Z</time></trkpt><trkpt lat="43.19089024953255" lon="0.27474462976389735"><ele>467.8333333333333</ele><time>2026-05-06T12:55:28Z</time></trkpt><trkpt lat="43.19087288788709" lon="0.2748657736367193"><ele>468.0</ele><time>2026-05-06T12:55:31Z</time></trkpt><trkpt lat="43.190852494898024" lon="0.2749732210913889"><ele>468.1666666666667</ele><time>2026-05-06T12:55:34Z</time></trkpt><trkpt lat="43.190848022563344" lon="0.27509073259388417"><ele>468.33333333333337</ele><time>2026-05-06T12:55:37Z</time></trkpt><trkpt lat="43.19083772865029" lon="0.27520311664470876"><ele>468.5</ele><time>2026-05-06T12:55:40Z</time></trkpt><trkpt lat="43.19082812278257" lon="0.2753119414606128"><ele>468.6666666666667</ele><time>2026-05-06T12:55:43Z</time></trkpt><trkpt lat="43.19082450953036" lon="0.27542705411594315"><ele>468.83333333333337</ele><time>2026-05-06T12:55:46Z</time></trkpt><trkpt lat="43.19081419475433" lon="0.27554571164055"><ele>469.0</ele><time>2026-05-06T12:55:49Z</time></trkpt><trkpt lat="43.19080408953451" lon="0.2756547137769283"><ele>469.00000000000006</ele><time>2026-05-06T12:55:52Z</time></trkpt><trkpt lat="43.19082139851287" lon="0.2757643198223917"><ele>469.0</ele><time>2026-05-06T12:55:55Z</time></trkpt><trkpt lat="43.190849560097995" lon="0.2758764612432017"><ele>469.0</ele><time>2026-05-06T12:55:58Z</time></trkpt><trkpt lat="43.19089161944624" lon="0.27597327109375713"><ele>469.0</ele><time>2026-05-06T12:56:01Z</time></trkpt><trkpt lat="43.19093485976322" lon="0.27606203651197814"><ele>469.00000000000006</ele><time>2026-05-06T12:56:04Z</time></trkpt><trkpt lat="43.19099055525552" lon="0.27615437804087684"><ele>469.0</ele><time>2026-05-06T12:56:07Z</time></trkpt><trkpt lat="43.19103419294895" lon="0.27624441108479547"><ele>469.0</ele><time>2026-05-06T12:56:10Z</time></trkpt><trkpt lat="43.1910754975271" lon="0.2763264127732967"><ele>469.0</ele><time>2026-05-06T12:56:13Z</time></trkpt><trkpt lat="43.19111845009271" lon="0.27639506066330083"><ele>469.0</ele><time>2026-05-06T12:56:17Z</time></trkpt><trkpt lat="43.1911549185606" lon="0.276473033560345"><ele>469.0</ele><time>2026-05-06T12:56:20Z</time></trkpt><trkpt lat="43.191192925897866" lon="0.27654540004900097"><ele>469.0</ele><time>2026-05-06T12:56:23Z</time></trkpt><trkpt lat="43.19123007168137" lon="0.2766251868398159"><ele>469.0</ele><time>2026-05-06T12:56:26Z</time></trkpt><trkpt lat="43.19128579260689" lon="0.27674374748563235"><ele>469.0</ele><time>2026-05-06T12:56:30Z</time></trkpt><trkpt lat="43.19134102678578" lon="0.2768526991178104"><ele>468.33333333333337</ele><time>2026-05-06T12:56:34Z</time></trkpt><trkpt lat="43.19139462646953" lon="0.2769650649013483"><ele>467.6666666666667</ele><time>2026-05-06T12:56:38Z</time></trkpt><trkpt lat="43.19144008418107" lon="0.27702878770150624"><ele>467.0</ele><time>2026-05-06T12:56:41Z</time></trkpt><trkpt lat="43.191502238228956" lon="0.27711186515725683"><ele>466.33333333333337</ele><time>2026-05-06T12:56:44Z</time></trkpt><trkpt lat="43.191541552729774" lon="0.27718289565998744"><ele>465.6666666666667</ele><time>2026-05-06T12:56:47Z</time></trkpt><trkpt lat="43.19161137698397" lon="0.2772837556371752"><ele>465.0</ele><time>2026-05-06T12:56:50Z</time></trkpt><trkpt lat="43.191660574322256" lon="0.27740270739543665"><ele>466.8333333333333</ele><time>2026-05-06T12:56:54Z</time></trkpt><trkpt lat="43.19169337719334" lon="0.27751311689095143"><ele>468.66666666666663</ele><time>2026-05-06T12:56:58Z</time></trkpt><trkpt lat="43.191717903283084" lon="0.2776248197467672"><ele>470.5</ele><time>2026-05-06T12:57:01Z</time></trkpt><trkpt lat="43.19172374057744" lon="0.2777581315096007"><ele>472.3333333333333</ele><time>2026-05-06T12:57:05Z</time></trkpt><trkpt lat="43.191707273213574" lon="0.2778677047950168"><ele>474.16666666666663</ele><time>2026-05-06T12:57:09Z</time></trkpt><trkpt lat="43.19168789200647" lon="0.2779583139651251"><ele>476.0</ele><time>2026-05-06T12:57:12Z</time></trkpt><trkpt lat="43.1916547377592" lon="0.27804564651040203"><ele>476.3333333333333</ele><time>2026-05-06T12:57:15Z</time></trkpt><trkpt lat="43.19161168740243" lon="0.2781088002366995"><ele>476.66666666666663</ele><time>2026-05-06T12:57:17Z</time></trkpt><trkpt lat="43.191573938978024" lon="0.2781792083721474"><ele>477.0</ele><time>2026-05-06T12:57:20Z</time></trkpt><trkpt lat="43.19151722544329" lon="0.2782455486441831"><ele>477.33333333333337</ele><time>2026-05-06T12:57:23Z</time></trkpt><trkpt lat="43.19145305214507" lon="0.27832596142740523"><ele>477.6666666666667</ele><time>2026-05-06T12:57:26Z</time></trkpt><trkpt lat="43.19137656849401" lon="0.2784169333811748"><ele>478.0</ele><time>2026-05-06T12:57:29Z</time></trkpt><trkpt lat="43.191354143108114" lon="0.2785045612989554"><ele>480.50000000000006</ele><time>2026-05-06T12:57:32Z</time></trkpt><trkpt lat="43.19130627058221" lon="0.2785955925781701"><ele>483.0</ele><time>2026-05-06T12:57:35Z</time></trkpt><trkpt lat="43.19126374789775" lon="0.27868331052996526"><ele>485.5</ele><time>2026-05-06T12:57:38Z</time></trkpt><trkpt lat="43.19121417683893" lon="0.2788042629294529"><ele>488.0</ele><time>2026-05-06T12:57:41Z</time></trkpt><trkpt lat="43.19118475905893" lon="0.2789043152167228"><ele>490.50000000000006</ele><time>2026-05-06T12:57:44Z</time></trkpt><trkpt lat="43.191157330471434" lon="0.2789993976969736"><ele>493.0</ele><time>2026-05-06T12:57:47Z</time></trkpt><trkpt lat="43.19113417380099" lon="0.2790912945682993"><ele>493.00000000000006</ele><time>2026-05-06T12:57:50Z</time></trkpt><trkpt lat="43.19110351986912" lon="0.2791926475778679"><ele>493.0</ele><time>2026-05-06T12:57:53Z</time></trkpt><trkpt lat="43.19105712868202" lon="0.27930705771834746"><ele>493.0</ele><time>2026-05-06T12:57:56Z</time></trkpt><trkpt lat="43.19103554115527" lon="0.2794038240785218"><ele>493.0</ele><time>2026-05-06T12:57:59Z</time></trkpt><trkpt lat="43.19101536798491" lon="0.27950917538671616"><ele>493.00000000000006</ele><time>2026-05-06T12:58:02Z</time></trkpt><trkpt lat="43.19099543488293" lon="0.2796131775895481"><ele>493.0</ele><time>2026-05-06T12:58:05Z</time></trkpt><trkpt lat="43.19097749218792" lon="0.2797390409123826"><ele>492.50000000000006</ele><time>2026-05-06T12:58:08Z</time></trkpt><trkpt lat="43.19096594052617" lon="0.27983728332762725"><ele>492.0</ele><time>2026-05-06T12:58:11Z</time></trkpt><trkpt lat="43.19094628420971" lon="0.2799378536963371"><ele>491.5</ele><time>2026-05-06T12:58:14Z</time></trkpt><trkpt lat="43.19093107394507" lon="0.2800226394582689"><ele>491.0</ele><time>2026-05-06T12:58:16Z</time></trkpt><trkpt lat="43.190913380175814" lon="0.28011166018958783"><ele>490.50000000000006</ele><time>2026-05-06T12:58:19Z</time></trkpt><trkpt lat="43.19088296722512" lon="0.2802295630642669"><ele>490.0</ele><time>2026-05-06T12:58:22Z</time></trkpt><trkpt lat="43.19084702883261" lon="0.2803538755457825"><ele>490.00000000000006</ele><time>2026-05-06T12:58:25Z</time></trkpt><trkpt lat="43.19083094694197" lon="0.2804509790772054"><ele>490.0</ele><time>2026-05-06T12:58:28Z</time></trkpt><trkpt lat="43.190794321447946" lon="0.2805454254824058"><ele>490.0</ele><time>2026-05-06T12:58:31Z</time></trkpt><trkpt lat="43.19076736715128" lon="0.2806588881007131"><ele>490.0</ele><time>2026-05-06T12:58:34Z</time></trkpt><trkpt lat="43.19074860304547" lon="0.28079678999194624"><ele>490.00000000000006</ele><time>2026-05-06T12:58:37Z</time></trkpt><trkpt lat="43.190738336804024" lon="0.2809134390963599"><ele>490.0</ele><time>2026-05-06T12:58:40Z</time></trkpt><trkpt lat="43.19072038871421" lon="0.2810043601367122"><ele>490.1666666666667</ele><time>2026-05-06T12:58:42Z</time></trkpt><trkpt lat="43.19071468889291" lon="0.2811091516751664"><ele>490.33333333333337</ele><time>2026-05-06T12:58:45Z</time></trkpt><trkpt lat="43.19070078886179" lon="0.2812179801409063"><ele>490.5</ele><time>2026-05-06T12:58:48Z</time></trkpt><trkpt lat="43.19069546246673" lon="0.2813092438857896"><ele>490.66666666666663</ele><time>2026-05-06T12:58:50Z</time></trkpt><trkpt lat="43.190686668745045" lon="0.28142451820273134"><ele>490.8333333333333</ele><time>2026-05-06T12:58:53Z</time></trkpt><trkpt lat="43.19068095935943" lon="0.2815324366100738"><ele>491.0</ele><time>2026-05-06T12:58:56Z</time></trkpt><trkpt lat="43.19067160806872" lon="0.28165017982311835"><ele>490.99999999999994</ele><time>2026-05-06T12:58:59Z</time></trkpt><trkpt lat="43.19067620320363" lon="0.28176079087570244"><ele>491.0</ele><time>2026-05-06T12:59:02Z</time></trkpt><trkpt lat="43.19068096406074" lon="0.28187109825070655"><ele>491.0</ele><time>2026-05-06T12:59:05Z</time></trkpt><trkpt lat="43.19069184188808" lon="0.28196530351085236"><ele>491.0</ele><time>2026-05-06T12:59:07Z</time></trkpt><trkpt lat="43.190701929228" lon="0.28206863951090816"><ele>490.99999999999994</ele><time>2026-05-06T12:59:10Z</time></trkpt><trkpt lat="43.19071563067317" lon="0.2821755304187101"><ele>491.0</ele><time>2026-05-06T12:59:13Z</time></trkpt><trkpt lat="43.19073032646261" lon="0.2822668750143472"><ele>491.49999999999994</ele><time>2026-05-06T12:59:15Z</time></trkpt><trkpt lat="43.19075494640584" lon="0.28236484535766065"><ele>492.0</ele><time>2026-05-06T12:59:18Z</time></trkpt><trkpt lat="43.190778502767614" lon="0.282454591027994"><ele>492.5</ele><time>2026-05-06T12:59:20Z</time></trkpt><trkpt lat="43.19081151082497" lon="0.2825514593280571"><ele>493.0</ele><time>2026-05-06T12:59:23Z</time></trkpt><trkpt lat="43.19085140605113" lon="0.2826524467874681"><ele>493.49999999999994</ele><time>2026-05-06T12:59:26Z</time></trkpt><trkpt lat="43.19088746134348" lon="0.28273576609935824"><ele>494.0</ele><time>2026-05-06T12:59:28Z</time></trkpt><trkpt lat="43.19093027801578" lon="0.2828371663714476"><ele>493.99999999999994</ele><time>2026-05-06T12:59:31Z</time></trkpt><trkpt lat="43.1909780995259" lon="0.2829372760666176"><ele>494.0</ele><time>2026-05-06T12:59:34Z</time></trkpt><trkpt lat="43.19101493974031" lon="0.2830261352624885"><ele>494.0</ele><time>2026-05-06T12:59:36Z</time></trkpt><trkpt lat="43.19105104525709" lon="0.2831146578158713"><ele>494.0</ele><time>2026-05-06T12:59:39Z</time></trkpt><trkpt lat="43.19107623871042" lon="0.2832095028818108"><ele>493.99999999999994</ele><time>2026-05-06T12:59:41Z</time></trkpt><trkpt lat="43.19109627684667" lon="0.28330201286866497"><ele>494.0</ele><time>2026-05-06T12:59:44Z</time></trkpt><trkpt lat="43.19111248976393" lon="0.28340224745450543"><ele>494.16666666666663</ele><time>2026-05-06T12:59:46Z</time></trkpt><trkpt lat="43.191126518684854" lon="0.2835110060201992"><ele>494.3333333333333</ele><time>2026-05-06T12:59:49Z</time></trkpt><trkpt lat="43.19113453866824" lon="0.2836206195918281"><ele>494.5</ele><time>2026-05-06T12:59:52Z</time></trkpt><trkpt lat="43.19112995609185" lon="0.28372150643105915"><ele>494.66666666666663</ele><time>2026-05-06T12:59:54Z</time></trkpt><trkpt lat="43.191118413988825" lon="0.2838287127687765"><ele>494.8333333333333</ele><time>2026-05-06T12:59:57Z</time></trkpt><trkpt lat="43.191115041842444" lon="0.28394696265582087"><ele>495.0</ele><time>2026-05-06T13:01:26Z</time></trkpt><trkpt lat="43.19112206140819" lon="0.28404390461081347"><ele>495.1666666666667</ele><time>2026-05-06T13:01:29Z</time></trkpt><trkpt lat="43.19109060376828" lon="0.2841414251811448"><ele>495.33333333333337</ele><time>2026-05-06T13:01:32Z</time></trkpt><trkpt lat="43.19104890595848" lon="0.28422889038992444"><ele>495.5</ele><time>2026-05-06T13:01:34Z</time></trkpt><trkpt lat="43.19101474287147" lon="0.28432895268464314"><ele>495.6666666666667</ele><time>2026-05-06T13:01:36Z</time></trkpt><trkpt lat="43.19097287940537" lon="0.2844314301887401"><ele>495.83333333333337</ele><time>2026-05-06T13:01:38Z</time></trkpt><trkpt lat="43.190927465487164" lon="0.28454636739872446"><ele>496.0</ele><time>2026-05-06T13:01:40Z</time></trkpt><trkpt lat="43.190871026403876" lon="0.2846797108641996"><ele>495.6666666666667</ele><time>2026-05-06T13:01:42Z</time></trkpt><trkpt lat="43.19080743386933" lon="0.28483002199374297"><ele>495.33333333333337</ele><time>2026-05-06T13:01:44Z</time></trkpt><trkpt lat="43.190770122273186" lon="0.2849123222384989"><ele>495.0</ele><time>2026-05-06T13:01:45Z</time></trkpt><trkpt lat="43.190728116368476" lon="0.2849926197403754"><ele>494.66666666666663</ele><time>2026-05-06T13:01:46Z</time></trkpt><trkpt lat="43.19067958506428" lon="0.28507589767708064"><ele>494.3333333333333</ele><time>2026-05-06T13:01:47Z</time></trkpt><trkpt lat="43.19061804883706" lon="0.2851520893922209"><ele>494.0</ele><time>2026-05-06T13:01:48Z</time></trkpt><trkpt lat="43.190551476089965" lon="0.28521850370199187"><ele>494.0</ele><time>2026-05-06T13:01:49Z</time></trkpt><trkpt lat="43.190472391191584" lon="0.28528068360860936"><ele>494.0</ele><time>2026-05-06T13:01:50Z</time></trkpt><trkpt lat="43.190401262562716" lon="0.2853413843268301"><ele>494.0</ele><time>2026-05-06T13:01:51Z</time></trkpt><trkpt lat="43.190321255676494" lon="0.28538955831349544"><ele>494.0</ele><time>2026-05-06T13:01:52Z</time></trkpt><trkpt lat="43.190240558645066" lon="0.2854655933653301"><ele>494.0</ele><time>2026-05-06T13:01:53Z</time></trkpt><trkpt lat="43.19015763881117" lon="0.2855271838145174"><ele>494.0</ele><time>2026-05-06T13:01:54Z</time></trkpt><trkpt lat="43.19007189579871" lon="0.2855876264061523"><ele>494.0</ele><time>2026-05-06T13:01:55Z</time></trkpt><trkpt lat="43.189987298872374" lon="0.2856610851907731"><ele>494.0</ele><time>2026-05-06T13:01:56Z</time></trkpt><trkpt lat="43.18989982463477" lon="0.28573527574068897"><ele>494.0</ele><time>2026-05-06T13:01:57Z</time></trkpt><trkpt lat="43.1898128392723" lon="0.28581842863376855"><ele>494.0</ele><time>2026-05-06T13:01:58Z</time></trkpt><trkpt lat="43.18972669691497" lon="0.28590653686297357"><ele>493.0</ele><time>2026-05-06T13:01:59Z</time></trkpt><trkpt lat="43.189641097338104" lon="0.2859999809407297"><ele>492.0</ele><time>2026-05-06T13:02:00Z</time></trkpt><trkpt lat="43.18954991617772" lon="0.28609086368848"><ele>491.0</ele><time>2026-05-06T13:02:01Z</time></trkpt><trkpt lat="43.18945784224881" lon="0.2861825516584422"><ele>490.0</ele><time>2026-05-06T13:02:02Z</time></trkpt><trkpt lat="43.189370069870364" lon="0.28628201573970635"><ele>490.0</ele><time>2026-05-06T13:02:03Z</time></trkpt><trkpt lat="43.189281723140475" lon="0.28638277303232945"><ele>490.0</ele><time>2026-05-06T13:02:04Z</time></trkpt><trkpt lat="43.1891950946904" lon="0.28648725269383757"><ele>490.0</ele><time>2026-05-06T13:02:05Z</time></trkpt><trkpt lat="43.1891089670786" lon="0.28658427459047664"><ele>490.0</ele><time>2026-05-06T13:02:06Z</time></trkpt><trkpt lat="43.18902082269044" lon="0.2866870542461639"><ele>490.4</ele><time>2026-05-06T13:02:07Z</time></trkpt><trkpt lat="43.18893895028565" lon="0.2867867608148601"><ele>490.8</ele><time>2026-05-06T13:02:08Z</time></trkpt><trkpt lat="43.18886343217199" lon="0.286888788006955"><ele>491.20000000000005</ele><time>2026-05-06T13:02:09Z</time></trkpt><trkpt lat="43.188800503523744" lon="0.2870075261485487"><ele>491.6</ele><time>2026-05-06T13:02:10Z</time></trkpt><trkpt lat="43.18877818421299" lon="0.28716006559127477"><ele>492.0</ele><time>2026-05-06T13:02:11Z</time></trkpt><trkpt lat="43.18881105911723" lon="0.2873194247062715"><ele>490.20000000000005</ele><time>2026-05-06T13:02:12Z</time></trkpt><trkpt lat="43.188881409315975" lon="0.28744689444918875"><ele>488.40000000000003</ele><time>2026-05-06T13:02:13Z</time></trkpt><trkpt lat="43.18896709199655" lon="0.28753102509524725"><ele>486.59999999999997</ele><time>2026-05-06T13:02:14Z</time></trkpt><trkpt lat="43.1890593000173" lon="0.2875708847446347"><ele>484.79999999999995</ele><time>2026-05-06T13:02:15Z</time></trkpt><trkpt lat="43.189147764066114" lon="0.28758315358592734"><ele>483.0</ele><time>2026-05-06T13:02:16Z</time></trkpt><trkpt lat="43.189228045740045" lon="0.287592079237751"><ele>482.1666666666667</ele><time>2026-05-06T13:02:17Z</time></trkpt><trkpt lat="43.18930687318679" lon="0.2875952589141017"><ele>481.33333333333337</ele><time>2026-05-06T13:02:18Z</time></trkpt><trkpt lat="43.18937733117039" lon="0.2876027934191274"><ele>480.5</ele><time>2026-05-06T13:02:19Z</time></trkpt><trkpt lat="43.18950640168657" lon="0.2876241191547515"><ele>479.6666666666667</ele><time>2026-05-06T13:02:21Z</time></trkpt><trkpt lat="43.18957121821748" lon="0.28762359217682076"><ele>478.83333333333337</ele><time>2026-05-06T13:02:22Z</time></trkpt><trkpt lat="43.189633894652786" lon="0.287631941093783"><ele>478.0</ele><time>2026-05-06T13:02:23Z</time></trkpt><trkpt lat="43.18974697612682" lon="0.2876472662513104"><ele>478.59999999999997</ele><time>2026-05-06T13:02:25Z</time></trkpt><trkpt lat="43.18986017305596" lon="0.2876456501473013"><ele>479.19999999999993</ele><time>2026-05-06T13:02:27Z</time></trkpt><trkpt lat="43.18996936505729" lon="0.28765990476524367"><ele>479.8</ele><time>2026-05-06T13:02:29Z</time></trkpt><trkpt lat="43.19006873668788" lon="0.28765985140199135"><ele>480.4</ele><time>2026-05-06T13:02:31Z</time></trkpt><trkpt lat="43.19016854642618" lon="0.28766284406006204"><ele>481.0</ele><time>2026-05-06T13:02:33Z</time></trkpt><trkpt lat="43.190234998721635" lon="0.2876743905868666"><ele>481.0</ele><time>2026-05-06T13:02:36Z</time></trkpt><trkpt lat="43.19037293213991" lon="0.28766418608502864"><ele>481.0</ele><time>2026-05-06T13:02:37Z</time></trkpt><trkpt lat="43.19047515924792" lon="0.2876542601737079"><ele>481.0</ele><time>2026-05-06T13:02:39Z</time></trkpt><trkpt lat="43.19057117573095" lon="0.2876647434036594"><ele>481.0</ele><time>2026-05-06T13:02:41Z</time></trkpt><trkpt lat="43.19066815227226" lon="0.28767835794330315"><ele>481.0</ele><time>2026-05-06T13:02:43Z</time></trkpt><trkpt lat="43.190759844275675" lon="0.28771403513188826"><ele>481.1666666666667</ele><time>2026-05-06T13:02:45Z</time></trkpt><trkpt lat="43.1908376760847" lon="0.28779493344301665"><ele>481.33333333333337</ele><time>2026-05-06T13:02:47Z</time></trkpt><trkpt lat="43.19090427718864" lon="0.2878854406918632"><ele>481.5</ele><time>2026-05-06T13:02:49Z</time></trkpt><trkpt lat="43.190919400431255" lon="0.2880254166038027"><ele>481.66666666666663</ele><time>2026-05-06T13:02:51Z</time></trkpt><trkpt lat="43.190955839925685" lon="0.2881249551434191"><ele>481.8333333333333</ele><time>2026-05-06T13:02:53Z</time></trkpt><trkpt lat="43.19095299270103" lon="0.28821270084400785"><ele>482.0</ele><time>2026-05-06T13:02:55Z</time></trkpt><trkpt lat="43.190965619007805" lon="0.2883134516286024"><ele>483.3333333333333</ele><time>2026-05-06T13:02:57Z</time></trkpt><trkpt lat="43.19095907715815" lon="0.28844010119396607"><ele>484.66666666666663</ele><time>2026-05-06T13:03:00Z</time></trkpt><trkpt lat="43.190947434039145" lon="0.28853064200742684"><ele>486.0</ele><time>2026-05-06T13:03:03Z</time></trkpt><trkpt lat="43.19093921245304" lon="0.2886353247445107"><ele>487.33333333333337</ele><time>2026-05-06T13:03:06Z</time></trkpt><trkpt lat="43.190928518203975" lon="0.2887270632349336"><ele>488.6666666666667</ele><time>2026-05-06T13:03:08Z</time></trkpt><trkpt lat="43.19091103412747" lon="0.28882587043808655"><ele>490.0</ele><time>2026-05-06T13:03:11Z</time></trkpt><trkpt lat="43.19089866381279" lon="0.28892834488304686"><ele>490.6666666666667</ele><time>2026-05-06T13:03:14Z</time></trkpt><trkpt lat="43.19088278412463" lon="0.2890269739528538"><ele>491.33333333333337</ele><time>2026-05-06T13:03:17Z</time></trkpt><trkpt lat="43.19086919716373" lon="0.28913314303898124"><ele>492.0</ele><time>2026-05-06T13:03:20Z</time></trkpt><trkpt lat="43.190859486079695" lon="0.2892391529502149"><ele>492.66666666666663</ele><time>2026-05-06T13:03:23Z</time></trkpt><trkpt lat="43.19084962101346" lon="0.2893356158454379"><ele>493.3333333333333</ele><time>2026-05-06T13:03:26Z</time></trkpt><trkpt lat="43.19082759647708" lon="0.2894601050501757"><ele>494.0</ele><time>2026-05-06T13:03:29Z</time></trkpt><trkpt lat="43.190804675383454" lon="0.289584234453129"><ele>493.99999999999994</ele><time>2026-05-06T13:03:32Z</time></trkpt><trkpt lat="43.19079003865136" lon="0.2896902610126216"><ele>494.0</ele><time>2026-05-06T13:03:35Z</time></trkpt><trkpt lat="43.19077406957891" lon="0.28978372774619426"><ele>494.0</ele><time>2026-05-06T13:03:37Z</time></trkpt><trkpt lat="43.190764114216115" lon="0.2899001663357639"><ele>494.0</ele><time>2026-05-06T13:03:40Z</time></trkpt><trkpt lat="43.19074901322413" lon="0.28999729354482684"><ele>493.99999999999994</ele><time>2026-05-06T13:03:42Z</time></trkpt><trkpt lat="43.19073983265772" lon="0.2901016918559511"><ele>494.0</ele><time>2026-05-06T13:03:45Z</time></trkpt><trkpt lat="43.190726658261205" lon="0.29019597730589486"><ele>494.3333333333333</ele><time>2026-05-06T13:03:47Z</time></trkpt><trkpt lat="43.19071358154663" lon="0.29028938380048924"><ele>494.66666666666663</ele><time>2026-05-06T13:03:49Z</time></trkpt><trkpt lat="43.19070073466881" lon="0.2903966475115054"><ele>495.0</ele><time>2026-05-06T13:03:52Z</time></trkpt><trkpt lat="43.190688254538124" lon="0.2905051013988831"><ele>495.33333333333337</ele><time>2026-05-06T13:03:54Z</time></trkpt><trkpt lat="43.19066901893976" lon="0.2906280085019497"><ele>495.6666666666667</ele><time>2026-05-06T13:03:57Z</time></trkpt><trkpt lat="43.19065392957537" lon="0.29074737883586704"><ele>496.0</ele><time>2026-05-06T13:04:00Z</time></trkpt><trkpt lat="43.19063523601705" lon="0.2908449508672691"><ele>496.8</ele><time>2026-05-06T13:04:02Z</time></trkpt><trkpt lat="43.190624193102764" lon="0.29098674922589457"><ele>497.6</ele><time>2026-05-06T13:04:05Z</time></trkpt><trkpt lat="43.19060541721035" lon="0.29110892176041003"><ele>498.4</ele><time>2026-05-06T13:04:08Z</time></trkpt><trkpt lat="43.190590640566356" lon="0.29120087169746417"><ele>499.2</ele><time>2026-05-06T13:04:10Z</time></trkpt><trkpt lat="43.190571715893796" lon="0.29141920221951173"><ele>500.0</ele><time>2026-05-06T13:04:12Z</time></trkpt><trkpt lat="43.19055760657487" lon="0.29152146044907157"><ele>500.3333333333333</ele><time>2026-05-06T13:04:14Z</time></trkpt><trkpt lat="43.19054410452696" lon="0.29162531452331464"><ele>500.66666666666663</ele><time>2026-05-06T13:04:16Z</time></trkpt><trkpt lat="43.19053140342355" lon="0.2917356865986923"><ele>501.0</ele><time>2026-05-06T13:04:18Z</time></trkpt><trkpt lat="43.19052024624051" lon="0.2918449550206359"><ele>501.33333333333337</ele><time>2026-05-06T13:04:20Z</time></trkpt><trkpt lat="43.19050673606556" lon="0.29195707994372666"><ele>501.6666666666667</ele><time>2026-05-06T13:04:22Z</time></trkpt><trkpt lat="43.19049276971818" lon="0.2920694284081729"><ele>502.0</ele><time>2026-05-06T13:04:24Z</time></trkpt><trkpt lat="43.190478830440355" lon="0.2921820658093945"><ele>502.0</ele><time>2026-05-06T13:04:26Z</time></trkpt><trkpt lat="43.19046461151871" lon="0.2923033087059232"><ele>502.00000000000006</ele><time>2026-05-06T13:04:28Z</time></trkpt><trkpt lat="43.190453566484784" lon="0.29245911462641"><ele>502.00000000000006</ele><time>2026-05-06T13:04:30Z</time></trkpt><trkpt lat="43.19043353192625" lon="0.2925481719773831"><ele>502.0</ele><time>2026-05-06T13:04:32Z</time></trkpt><trkpt lat="43.19041802492007" lon="0.292680851607285"><ele>502.0</ele><time>2026-05-06T13:04:34Z</time></trkpt><trkpt lat="43.190406883414916" lon="0.2928216947666016"><ele>502.0</ele><time>2026-05-06T13:04:36Z</time></trkpt><trkpt lat="43.19039220466853" lon="0.29296521909066264"><ele>502.00000000000006</ele><time>2026-05-06T13:04:38Z</time></trkpt><trkpt lat="43.1903768042336" lon="0.29311163281491415"><ele>502.00000000000006</ele><time>2026-05-06T13:04:40Z</time></trkpt><trkpt lat="43.1903580694513" lon="0.29327388595633774"><ele>502.0</ele><time>2026-05-06T13:04:42Z</time></trkpt><trkpt lat="43.19034749487978" lon="0.2933618449073911"><ele>502.0</ele><time>2026-05-06T13:04:43Z</time></trkpt><trkpt lat="43.19033835700122" lon="0.2934483505013606"><ele>501.83333333333337</ele><time>2026-05-06T13:04:44Z</time></trkpt><trkpt lat="43.190327475102535" lon="0.29353788197135805"><ele>501.6666666666667</ele><time>2026-05-06T13:04:45Z</time></trkpt><trkpt lat="43.190317589613606" lon="0.2936295020860906"><ele>501.5</ele><time>2026-05-06T13:04:46Z</time></trkpt><trkpt lat="43.19030784255697" lon="0.2937314696740532"><ele>501.33333333333337</ele><time>2026-05-06T13:04:47Z</time></trkpt><trkpt lat="43.19031297715652" lon="0.2938607080817175"><ele>501.1666666666667</ele><time>2026-05-06T13:04:48Z</time></trkpt><trkpt lat="43.19029861376754" lon="0.29395755911010646"><ele>501.0</ele><time>2026-05-06T13:04:49Z</time></trkpt><trkpt lat="43.19028575913636" lon="0.29406821367318536"><ele>500.3333333333333</ele><time>2026-05-06T13:04:50Z</time></trkpt><trkpt lat="43.19025944433003" lon="0.29418392664433696"><ele>499.66666666666663</ele><time>2026-05-06T13:04:51Z</time></trkpt><trkpt lat="43.19024322208107" lon="0.2942980597747092"><ele>499.0</ele><time>2026-05-06T13:04:52Z</time></trkpt><trkpt lat="43.190227616232036" lon="0.29441732395171316"><ele>498.3333333333333</ele><time>2026-05-06T13:04:53Z</time></trkpt><trkpt lat="43.19021275921296" lon="0.2945401867180487"><ele>497.66666666666663</ele><time>2026-05-06T13:04:54Z</time></trkpt><trkpt lat="43.19019603893877" lon="0.294666290185822"><ele>497.0</ele><time>2026-05-06T13:04:55Z</time></trkpt><trkpt lat="43.19018041289631" lon="0.29480241882562713"><ele>496.40000000000003</ele><time>2026-05-06T13:04:56Z</time></trkpt><trkpt lat="43.19016832935502" lon="0.29493096291161014"><ele>495.80000000000007</ele><time>2026-05-06T13:04:57Z</time></trkpt><trkpt lat="43.1901510614907" lon="0.29506398123593114"><ele>495.2</ele><time>2026-05-06T13:04:58Z</time></trkpt><trkpt lat="43.19013655639071" lon="0.2951981804921196"><ele>494.6</ele><time>2026-05-06T13:04:59Z</time></trkpt><trkpt lat="43.190122371887476" lon="0.29533481836900016"><ele>494.0</ele><time>2026-05-06T13:05:00Z</time></trkpt><trkpt lat="43.19010189202666" lon="0.29546832029729336"><ele>493.6</ele><time>2026-05-06T13:05:01Z</time></trkpt><trkpt lat="43.19008746756182" lon="0.2956013213181532"><ele>493.2</ele><time>2026-05-06T13:05:02Z</time></trkpt><trkpt lat="43.19007284076877" lon="0.2957373887133452"><ele>492.80000000000007</ele><time>2026-05-06T13:05:03Z</time></trkpt><trkpt lat="43.19005590905068" lon="0.2958775843148066"><ele>492.40000000000003</ele><time>2026-05-06T13:05:04Z</time></trkpt><trkpt lat="43.19003983095476" lon="0.2960225073290007"><ele>492.0</ele><time>2026-05-06T13:05:05Z</time></trkpt><trkpt lat="43.19001823792978" lon="0.29616949714146"><ele>492.0</ele><time>2026-05-06T13:05:06Z</time></trkpt><trkpt lat="43.19000231915194" lon="0.29631719475759455"><ele>492.00000000000006</ele><time>2026-05-06T13:05:07Z</time></trkpt><trkpt lat="43.18998628482578" lon="0.296462727936177"><ele>492.00000000000006</ele><time>2026-05-06T13:05:08Z</time></trkpt><trkpt lat="43.18996503776896" lon="0.29661270292083125"><ele>492.0</ele><time>2026-05-06T13:05:09Z</time></trkpt><trkpt lat="43.1899473044344" lon="0.29676306591532275"><ele>492.0</ele><time>2026-05-06T13:05:10Z</time></trkpt><trkpt lat="43.18992968131157" lon="0.29691553317148767"><ele>491.6</ele><time>2026-05-06T13:05:11Z</time></trkpt><trkpt lat="43.18991113184475" lon="0.29706825445617885"><ele>491.20000000000005</ele><time>2026-05-06T13:05:12Z</time></trkpt><trkpt lat="43.189890893829684" lon="0.2972191393200185"><ele>490.8</ele><time>2026-05-06T13:05:13Z</time></trkpt><trkpt lat="43.189877855113465" lon="0.2973714453958597"><ele>490.4</ele><time>2026-05-06T13:05:14Z</time></trkpt><trkpt lat="43.18986877226513" lon="0.2975178132166075"><ele>490.0</ele><time>2026-05-06T13:05:15Z</time></trkpt><trkpt lat="43.189856849067944" lon="0.29765516790546054"><ele>490.0</ele><time>2026-05-06T13:05:16Z</time></trkpt><trkpt lat="43.1898568490694" lon="0.29779687695984597"><ele>490.0</ele><time>2026-05-06T13:05:17Z</time></trkpt><trkpt lat="43.18986320196701" lon="0.2979270699651082"><ele>490.0</ele><time>2026-05-06T13:05:18Z</time></trkpt><trkpt lat="43.189867991121424" lon="0.2980687082793512"><ele>490.0</ele><time>2026-05-06T13:05:19Z</time></trkpt><trkpt lat="43.1898729921861" lon="0.29819211198242307"><ele>490.0</ele><time>2026-05-06T13:05:20Z</time></trkpt><trkpt lat="43.18987369406667" lon="0.29830794534793337"><ele>490.00000000000006</ele><time>2026-05-06T13:05:21Z</time></trkpt><trkpt lat="43.18987016936336" lon="0.29843110322351873"><ele>490.0</ele><time>2026-05-06T13:05:22Z</time></trkpt><trkpt lat="43.189869361412875" lon="0.2985479279288633"><ele>490.0</ele><time>2026-05-06T13:05:23Z</time></trkpt><trkpt lat="43.189870976906356" lon="0.2986492964621139"><ele>490.0</ele><time>2026-05-06T13:05:24Z</time></trkpt><trkpt lat="43.189868538613986" lon="0.2987586756700119"><ele>490.00000000000006</ele><time>2026-05-06T13:05:25Z</time></trkpt><trkpt lat="43.189877937398585" lon="0.29885689678282945"><ele>490.0</ele><time>2026-05-06T13:05:26Z</time></trkpt><trkpt lat="43.189875373516585" lon="0.2989534624981121"><ele>491.5</ele><time>2026-05-06T13:05:27Z</time></trkpt><trkpt lat="43.189882892156525" lon="0.2991368284510537"><ele>493.0</ele><time>2026-05-06T13:05:29Z</time></trkpt><trkpt lat="43.18988207310711" lon="0.29930355532229147"><ele>494.5</ele><time>2026-05-06T13:05:31Z</time></trkpt><trkpt lat="43.18988269603382" lon="0.2994493550915293"><ele>496.0</ele><time>2026-05-06T13:05:33Z</time></trkpt><trkpt lat="43.18987964180251" lon="0.2995876541346676"><ele>496.0</ele><time>2026-05-06T13:05:35Z</time></trkpt><trkpt lat="43.18988061400699" lon="0.2997228524894676"><ele>496.0</ele><time>2026-05-06T13:05:37Z</time></trkpt><trkpt lat="43.18988761866456" lon="0.2998670002685526"><ele>496.0</ele><time>2026-05-06T13:05:39Z</time></trkpt><trkpt lat="43.18989445296239" lon="0.30006203711360263"><ele>496.0</ele><time>2026-05-06T13:05:42Z</time></trkpt><trkpt lat="43.18989331475734" lon="0.3002022728763349"><ele>496.0</ele><time>2026-05-06T13:05:44Z</time></trkpt><trkpt lat="43.18989377363177" lon="0.3003083247125857"><ele>496.5714285714286</ele><time>2026-05-06T13:05:46Z</time></trkpt><trkpt lat="43.189895013910025" lon="0.30040929493108137"><ele>497.1428571428572</ele><time>2026-05-06T13:05:48Z</time></trkpt><trkpt lat="43.18989874415956" lon="0.3005055960336782"><ele>497.7142857142857</ele><time>2026-05-06T13:05:50Z</time></trkpt><trkpt lat="43.189897198799585" lon="0.3006077176991303"><ele>498.28571428571433</ele><time>2026-05-06T13:05:52Z</time></trkpt><trkpt lat="43.18990237888396" lon="0.300699863967067"><ele>498.8571428571429</ele><time>2026-05-06T13:05:54Z</time></trkpt><trkpt lat="43.1899010102386" lon="0.3007888531061238"><ele>499.42857142857144</ele><time>2026-05-06T13:05:56Z</time></trkpt><trkpt lat="43.18990421637248" lon="0.3008861314577427"><ele>500.0</ele><time>2026-05-06T13:05:58Z</time></trkpt><trkpt lat="43.18989928546923" lon="0.30101232718246873"><ele>500.49999999999994</ele><time>2026-05-06T13:06:00Z</time></trkpt><trkpt lat="43.189902529152086" lon="0.30111891984283173"><ele>501.0</ele><time>2026-05-06T13:06:03Z</time></trkpt><trkpt lat="43.18990128841681" lon="0.3012552991652583"><ele>501.5</ele><time>2026-05-06T13:06:07Z</time></trkpt><trkpt lat="43.189895600552724" lon="0.30136154418797023"><ele>502.0</ele><time>2026-05-06T13:06:09Z</time></trkpt><trkpt lat="43.1899005680674" lon="0.3014746666984189"><ele>502.49999999999994</ele><time>2026-05-06T13:06:12Z</time></trkpt><trkpt lat="43.18990170714688" lon="0.30159498083830416"><ele>503.0</ele><time>2026-05-06T13:06:14Z</time></trkpt><trkpt lat="43.18989922044325" lon="0.30170623483339526"><ele>503.16666666666663</ele><time>2026-05-06T13:06:17Z</time></trkpt><trkpt lat="43.18990420786841" lon="0.30182924340518996"><ele>503.3333333333333</ele><time>2026-05-06T13:06:19Z</time></trkpt><trkpt lat="43.189906458186684" lon="0.3019581627102272"><ele>503.5</ele><time>2026-05-06T13:06:22Z</time></trkpt><trkpt lat="43.1899163185604" lon="0.30204557731446846"><ele>503.66666666666663</ele><time>2026-05-06T13:06:23Z</time></trkpt><trkpt lat="43.18990905701356" lon="0.3021688271712874"><ele>503.8333333333333</ele><time>2026-05-06T13:06:26Z</time></trkpt><trkpt lat="43.18991525200925" lon="0.3022922608005664"><ele>504.0</ele><time>2026-05-06T13:06:29Z</time></trkpt><trkpt lat="43.18991159094768" lon="0.302414542973678"><ele>504.75</ele><time>2026-05-06T13:06:31Z</time></trkpt><trkpt lat="43.18992319854674" lon="0.30255247305717686"><ele>505.5</ele><time>2026-05-06T13:06:34Z</time></trkpt><trkpt lat="43.18992696503646" lon="0.30264224867187733"><ele>506.25</ele><time>2026-05-06T13:06:36Z</time></trkpt><trkpt lat="43.18995238154986" lon="0.3029149426420392"><ele>507.0</ele><time>2026-05-06T13:06:39Z</time></trkpt><trkpt lat="43.18995458011541" lon="0.30304495547437477"><ele>506.8</ele><time>2026-05-06T13:06:41Z</time></trkpt><trkpt lat="43.18995595343223" lon="0.30317824229092943"><ele>506.6</ele><time>2026-05-06T13:06:43Z</time></trkpt><trkpt lat="43.18996062320621" lon="0.303319427524864"><ele>506.40000000000003</ele><time>2026-05-06T13:06:45Z</time></trkpt><trkpt lat="43.18996515872978" lon="0.30346654068610907"><ele>506.20000000000005</ele><time>2026-05-06T13:06:47Z</time></trkpt><trkpt lat="43.18996694715195" lon="0.30362216898759614"><ele>506.0</ele><time>2026-05-06T13:06:49Z</time></trkpt><trkpt lat="43.189967536305105" lon="0.3037979383368053"><ele>505.99999999999994</ele><time>2026-05-06T13:06:51Z</time></trkpt><trkpt lat="43.1899697343104" lon="0.30388908727195246"><ele>506.0</ele><time>2026-05-06T13:06:52Z</time></trkpt><trkpt lat="43.18997299411683" lon="0.3039807523129472"><ele>506.0</ele><time>2026-05-06T13:06:53Z</time></trkpt><trkpt lat="43.18997573710934" lon="0.30408036806670014"><ele>506.0</ele><time>2026-05-06T13:06:54Z</time></trkpt><trkpt lat="43.1899966431112" lon="0.3042072617756652"><ele>505.99999999999994</ele><time>2026-05-06T13:06:55Z</time></trkpt><trkpt lat="43.18999837152235" lon="0.3043160400659058"><ele>506.0</ele><time>2026-05-06T13:06:56Z</time></trkpt><trkpt lat="43.18999782612762" lon="0.3044281850959004"><ele>505.6</ele><time>2026-05-06T13:06:57Z</time></trkpt><trkpt lat="43.18997697392007" lon="0.30453773576102694"><ele>505.20000000000005</ele><time>2026-05-06T13:06:58Z</time></trkpt><trkpt lat="43.18998050664884" lon="0.304657829512709"><ele>504.79999999999995</ele><time>2026-05-06T13:06:59Z</time></trkpt><trkpt lat="43.189981572760345" lon="0.3047805571821536"><ele>504.4</ele><time>2026-05-06T13:07:00Z</time></trkpt><trkpt lat="43.189983503505346" lon="0.30490925024221405"><ele>504.0</ele><time>2026-05-06T13:07:01Z</time></trkpt><trkpt lat="43.18998733474497" lon="0.3050412522707705"><ele>503.5</ele><time>2026-05-06T13:07:02Z</time></trkpt><trkpt lat="43.18999055612243" lon="0.30516840087190217"><ele>503.0</ele><time>2026-05-06T13:07:03Z</time></trkpt><trkpt lat="43.18999336587638" lon="0.3052943360419914"><ele>502.5</ele><time>2026-05-06T13:07:04Z</time></trkpt><trkpt lat="43.189995289731954" lon="0.305419632102534"><ele>502.0</ele><time>2026-05-06T13:07:05Z</time></trkpt><trkpt lat="43.19000096187909" lon="0.3055405783634648"><ele>501.5</ele><time>2026-05-06T13:07:06Z</time></trkpt><trkpt lat="43.1900021402084" lon="0.3056567583795896"><ele>501.0</ele><time>2026-05-06T13:07:07Z</time></trkpt><trkpt lat="43.190006927869796" lon="0.30576494604399396"><ele>501.0</ele><time>2026-05-06T13:07:08Z</time></trkpt><trkpt lat="43.190001799560186" lon="0.3058766651504246"><ele>501.0</ele><time>2026-05-06T13:07:09Z</time></trkpt><trkpt lat="43.190000629250534" lon="0.3059792515098137"><ele>501.0</ele><time>2026-05-06T13:07:10Z</time></trkpt><trkpt lat="43.19000195372193" lon="0.30609297478025416"><ele>501.0</ele><time>2026-05-06T13:07:11Z</time></trkpt><trkpt lat="43.190005600272066" lon="0.3061926145420985"><ele>501.0</ele><time>2026-05-06T13:07:12Z</time></trkpt><trkpt lat="43.19000582739463" lon="0.3063005866216036"><ele>501.0</ele><time>2026-05-06T13:07:13Z</time></trkpt><trkpt lat="43.190008459474896" lon="0.30639403960771006"><ele>501.28571428571433</ele><time>2026-05-06T13:07:14Z</time></trkpt><trkpt lat="43.190011225110055" lon="0.3065024287292003"><ele>501.57142857142856</ele><time>2026-05-06T13:07:15Z</time></trkpt><trkpt lat="43.19001159107401" lon="0.3065951541432019"><ele>501.8571428571429</ele><time>2026-05-06T13:07:16Z</time></trkpt><trkpt lat="43.190014133063336" lon="0.3066981759377638"><ele>502.14285714285717</ele><time>2026-05-06T13:07:17Z</time></trkpt><trkpt lat="43.19001573442554" lon="0.3067927225724678"><ele>502.42857142857144</ele><time>2026-05-06T13:07:18Z</time></trkpt><trkpt lat="43.19001718507425" lon="0.30688717330830706"><ele>502.7142857142857</ele><time>2026-05-06T13:07:19Z</time></trkpt><trkpt lat="43.19001814855026" lon="0.3069924313086111"><ele>503.0</ele><time>2026-05-06T13:07:20Z</time></trkpt><trkpt lat="43.19001985394171" lon="0.30708864682265363"><ele>503.0</ele><time>2026-05-06T13:07:21Z</time></trkpt><trkpt lat="43.19002199689258" lon="0.3071906273154796"><ele>503.00000000000006</ele><time>2026-05-06T13:07:22Z</time></trkpt><trkpt lat="43.19002557808414" lon="0.30728408861589296"><ele>503.0</ele><time>2026-05-06T13:07:23Z</time></trkpt><trkpt lat="43.19002711803796" lon="0.3073793025391247"><ele>503.0</ele><time>2026-05-06T13:07:24Z</time></trkpt><trkpt lat="43.190027517685174" lon="0.3074768166452791"><ele>503.00000000000006</ele><time>2026-05-06T13:07:25Z</time></trkpt><trkpt lat="43.19003480272116" lon="0.3075642859840428"><ele>503.0</ele><time>2026-05-06T13:07:26Z</time></trkpt><trkpt lat="43.1900334344417" lon="0.3076605876060395"><ele>503.0</ele><time>2026-05-06T13:07:27Z</time></trkpt><trkpt lat="43.190038558702426" lon="0.30775092122110276"><ele>503.49999999999994</ele><time>2026-05-06T13:07:28Z</time></trkpt><trkpt lat="43.19003561229055" lon="0.30784716369685433"><ele>504.0</ele><time>2026-05-06T13:07:29Z</time></trkpt><trkpt lat="43.190041426181544" lon="0.3079362796778083"><ele>504.5</ele><time>2026-05-06T13:07:30Z</time></trkpt><trkpt lat="43.19004111064447" lon="0.30802810304599415"><ele>505.0</ele><time>2026-05-06T13:07:31Z</time></trkpt><trkpt lat="43.190045071128566" lon="0.30820016552860086"><ele>505.49999999999994</ele><time>2026-05-06T13:07:33Z</time></trkpt><trkpt lat="43.19004586436557" lon="0.3083653507296609"><ele>506.0</ele><time>2026-05-06T13:07:35Z</time></trkpt><trkpt lat="43.190049739507785" lon="0.3085273096001278"><ele>506.75</ele><time>2026-05-06T13:07:37Z</time></trkpt><trkpt lat="43.190062804063025" lon="0.3086931201541239"><ele>507.5</ele><time>2026-05-06T13:07:39Z</time></trkpt><trkpt lat="43.19006662866495" lon="0.3088497533182634"><ele>508.25</ele><time>2026-05-06T13:07:41Z</time></trkpt><trkpt lat="43.1900633447325" lon="0.3090128033875541"><ele>509.0</ele><time>2026-05-06T13:07:43Z</time></trkpt><trkpt lat="43.19005836913555" lon="0.3091637107931385"><ele>509.6</ele><time>2026-05-06T13:07:45Z</time></trkpt><trkpt lat="43.19006028691551" lon="0.3093011248892637"><ele>510.2</ele><time>2026-05-06T13:07:47Z</time></trkpt><trkpt lat="43.190065462160725" lon="0.30943108906369554"><ele>510.80000000000007</ele><time>2026-05-06T13:07:49Z</time></trkpt><trkpt lat="43.190068943343014" lon="0.30956049374765787"><ele>511.40000000000003</ele><time>2026-05-06T13:07:51Z</time></trkpt><trkpt lat="43.19006937615807" lon="0.3097242609703084"><ele>512.0</ele><time>2026-05-06T13:07:54Z</time></trkpt><trkpt lat="43.19007355257146" lon="0.30982158504046964"><ele>512.5</ele><time>2026-05-06T13:07:55Z</time></trkpt><trkpt lat="43.190104855464654" lon="0.3099323940894342"><ele>513.0</ele><time>2026-05-06T13:07:57Z</time></trkpt><trkpt lat="43.190106853184645" lon="0.3100538889753619"><ele>513.5</ele><time>2026-05-06T13:07:59Z</time></trkpt><trkpt lat="43.190106670397334" lon="0.31016647636136746"><ele>514.0</ele><time>2026-05-06T13:08:01Z</time></trkpt><trkpt lat="43.19010904080651" lon="0.3102775752581115"><ele>514.5</ele><time>2026-05-06T13:08:03Z</time></trkpt><trkpt lat="43.190113076830485" lon="0.31039607962986226"><ele>515.0</ele><time>2026-05-06T13:08:05Z</time></trkpt><trkpt lat="43.19011527213591" lon="0.31051177209489683"><ele>515.3333333333333</ele><time>2026-05-06T13:08:07Z</time></trkpt><trkpt lat="43.190116743009284" lon="0.31062652693364784"><ele>515.6666666666666</ele><time>2026-05-06T13:08:09Z</time></trkpt><trkpt lat="43.190120552131795" lon="0.3107440348715682"><ele>516.0</ele><time>2026-05-06T13:08:11Z</time></trkpt><trkpt lat="43.19012438792987" lon="0.3108592190182516"><ele>516.3333333333334</ele><time>2026-05-06T13:08:13Z</time></trkpt><trkpt lat="43.190092664045025" lon="0.3109858322663936"><ele>516.6666666666667</ele><time>2026-05-06T13:08:15Z</time></trkpt><trkpt lat="43.19008797253964" lon="0.31110461488284885"><ele>517.0</ele><time>2026-05-06T13:08:19Z</time></trkpt><trkpt lat="43.190090101883115" lon="0.31122976736115554"><ele>517.0</ele><time>2026-05-06T13:08:20Z</time></trkpt><trkpt lat="43.190096427218926" lon="0.3113541925967065"><ele>517.0</ele><time>2026-05-06T13:08:22Z</time></trkpt><trkpt lat="43.190099070186825" lon="0.31147591555914866"><ele>517.0</ele><time>2026-05-06T13:08:24Z</time></trkpt><trkpt lat="43.19010382824729" lon="0.3115973829974692"><ele>517.0</ele><time>2026-05-06T13:08:26Z</time></trkpt><trkpt lat="43.19010601018769" lon="0.3117218742490953"><ele>517.0</ele><time>2026-05-06T13:08:28Z</time></trkpt><trkpt lat="43.19011373165662" lon="0.31184045545536293"><ele>517.0</ele><time>2026-05-06T13:08:30Z</time></trkpt><trkpt lat="43.19011463323784" lon="0.3119590476043065"><ele>517.0</ele><time>2026-05-06T13:08:32Z</time></trkpt><trkpt lat="43.19011477917397" lon="0.31208155665181964"><ele>517.0</ele><time>2026-05-06T13:08:34Z</time></trkpt><trkpt lat="43.1901120340153" lon="0.3122151634929046"><ele>517.0</ele><time>2026-05-06T13:08:36Z</time></trkpt><trkpt lat="43.19010972887299" lon="0.3123533782041556"><ele>517.0</ele><time>2026-05-06T13:08:38Z</time></trkpt><trkpt lat="43.19010780898927" lon="0.31249982615779553"><ele>517.0</ele><time>2026-05-06T13:08:40Z</time></trkpt><trkpt lat="43.19010166923617" lon="0.31266026693854587"><ele>516.6666666666667</ele><time>2026-05-06T13:08:42Z</time></trkpt><trkpt lat="43.190085346982286" lon="0.31283414338831633"><ele>516.3333333333334</ele><time>2026-05-06T13:08:44Z</time></trkpt><trkpt lat="43.19007398465094" lon="0.31292733825771096"><ele>516.0</ele><time>2026-05-06T13:08:45Z</time></trkpt><trkpt lat="43.190063783640404" lon="0.3130276799850524"><ele>515.6666666666666</ele><time>2026-05-06T13:08:46Z</time></trkpt><trkpt lat="43.19005434515082" lon="0.3131292711721152"><ele>515.3333333333333</ele><time>2026-05-06T13:08:47Z</time></trkpt><trkpt lat="43.190034160971365" lon="0.31323799344769676"><ele>515.0</ele><time>2026-05-06T13:08:48Z</time></trkpt><trkpt lat="43.19001154245919" lon="0.3133497419806735"><ele>514.0</ele><time>2026-05-06T13:08:49Z</time></trkpt><trkpt lat="43.18998486033117" lon="0.3134662495973304"><ele>513.0</ele><time>2026-05-06T13:08:50Z</time></trkpt><trkpt lat="43.189954465364096" lon="0.31359045390581636"><ele>512.0</ele><time>2026-05-06T13:08:51Z</time></trkpt><trkpt lat="43.18991959203736" lon="0.31371929657942327"><ele>511.0</ele><time>2026-05-06T13:08:52Z</time></trkpt><trkpt lat="43.18988223582515" lon="0.3138517075425238"><ele>510.0</ele><time>2026-05-06T13:08:53Z</time></trkpt><trkpt lat="43.18984080498978" lon="0.3139898465365856"><ele>506.75</ele><time>2026-05-06T13:08:54Z</time></trkpt><trkpt lat="43.18979386958368" lon="0.31412389893575127"><ele>503.5</ele><time>2026-05-06T13:08:55Z</time></trkpt><trkpt lat="43.189744571508406" lon="0.3142619245310427"><ele>500.25</ele><time>2026-05-06T13:08:56Z</time></trkpt><trkpt lat="43.18969294108508" lon="0.31439699274465904"><ele>497.0</ele><time>2026-05-06T13:08:57Z</time></trkpt><trkpt lat="43.18963624601818" lon="0.31453979563511664"><ele>497.0</ele><time>2026-05-06T13:08:58Z</time></trkpt><trkpt lat="43.189576548919014" lon="0.3146791094282005"><ele>497.0</ele><time>2026-05-06T13:08:59Z</time></trkpt><trkpt lat="43.18950621371379" lon="0.3148138667430287"><ele>497.0</ele><time>2026-05-06T13:09:00Z</time></trkpt><trkpt lat="43.18943678067199" lon="0.31494927627385405"><ele>497.0</ele><time>2026-05-06T13:09:01Z</time></trkpt><trkpt lat="43.18936176016794" lon="0.31508734644754577"><ele>497.5</ele><time>2026-05-06T13:09:02Z</time></trkpt><trkpt lat="43.18927704097366" lon="0.31521702890460596"><ele>498.0</ele><time>2026-05-06T13:09:03Z</time></trkpt><trkpt lat="43.189196897689484" lon="0.3153553955858148"><ele>498.5</ele><time>2026-05-06T13:09:04Z</time></trkpt><trkpt lat="43.18911286409673" lon="0.3154932232776409"><ele>499.0</ele><time>2026-05-06T13:09:05Z</time></trkpt><trkpt lat="43.1890267539557" lon="0.31562801525937845"><ele>493.75</ele><time>2026-05-06T13:09:06Z</time></trkpt><trkpt lat="43.18894709121937" lon="0.31577394254182406"><ele>488.5</ele><time>2026-05-06T13:09:07Z</time></trkpt><trkpt lat="43.18887264669268" lon="0.3159363080567165"><ele>483.25</ele><time>2026-05-06T13:09:08Z</time></trkpt><trkpt lat="43.18881469066232" lon="0.3161006791810366"><ele>478.0</ele><time>2026-05-06T13:09:09Z</time></trkpt><trkpt lat="43.18876795364766" lon="0.31627814796604"><ele>478.75</ele><time>2026-05-06T13:09:10Z</time></trkpt><trkpt lat="43.18871800929496" lon="0.3164641141978413"><ele>479.5</ele><time>2026-05-06T13:09:11Z</time></trkpt><trkpt lat="43.18866731489713" lon="0.3166496176348284"><ele>480.25</ele><time>2026-05-06T13:09:12Z</time></trkpt><trkpt lat="43.18861119465352" lon="0.31682900438681477"><ele>481.0</ele><time>2026-05-06T13:09:13Z</time></trkpt><trkpt lat="43.188549278124434" lon="0.31700695814321617"><ele>481.0</ele><time>2026-05-06T13:09:14Z</time></trkpt><trkpt lat="43.188485367532685" lon="0.3171850586891591"><ele>481.0</ele><time>2026-05-06T13:09:15Z</time></trkpt><trkpt lat="43.18842607762993" lon="0.31737083511639447"><ele>481.0</ele><time>2026-05-06T13:09:16Z</time></trkpt><trkpt lat="43.188371851586375" lon="0.31755799038598365"><ele>481.0</ele><time>2026-05-06T13:09:17Z</time></trkpt><trkpt lat="43.188325181376875" lon="0.3177507768213155"><ele>482.25</ele><time>2026-05-06T13:09:18Z</time></trkpt><trkpt lat="43.18827385401156" lon="0.31794081926774126"><ele>483.5</ele><time>2026-05-06T13:09:19Z</time></trkpt><trkpt lat="43.188218855722795" lon="0.3181281833738051"><ele>484.75</ele><time>2026-05-06T13:09:20Z</time></trkpt><trkpt lat="43.18816018885739" lon="0.3183107171589954"><ele>486.0</ele><time>2026-05-06T13:09:21Z</time></trkpt><trkpt lat="43.18810775224839" lon="0.31849601995640625"><ele>481.75</ele><time>2026-05-06T13:09:22Z</time></trkpt><trkpt lat="43.188046443866185" lon="0.31867803051113514"><ele>477.5</ele><time>2026-05-06T13:09:23Z</time></trkpt><trkpt lat="43.187978312822395" lon="0.3188464743486363"><ele>473.25</ele><time>2026-05-06T13:09:24Z</time></trkpt><trkpt lat="43.187912281621" lon="0.31900931377336356"><ele>469.0</ele><time>2026-05-06T13:09:25Z</time></trkpt><trkpt lat="43.1878415084534" lon="0.31916478116736613"><ele>469.0</ele><time>2026-05-06T13:09:26Z</time></trkpt><trkpt lat="43.18778006081005" lon="0.3193284994419126"><ele>469.0</ele><time>2026-05-06T13:09:27Z</time></trkpt><trkpt lat="43.18773408672303" lon="0.3195012862994288"><ele>469.0</ele><time>2026-05-06T13:09:28Z</time></trkpt><trkpt lat="43.18769747396108" lon="0.31968111897913376"><ele>469.0</ele><time>2026-05-06T13:09:29Z</time></trkpt><trkpt lat="43.187666201107426" lon="0.3198580726381923"><ele>469.5</ele><time>2026-05-06T13:09:30Z</time></trkpt><trkpt lat="43.18763277440087" lon="0.3200400658125554"><ele>470.0</ele><time>2026-05-06T13:09:31Z</time></trkpt><trkpt lat="43.1876006063786" lon="0.32021140387590635"><ele>470.5</ele><time>2026-05-06T13:09:32Z</time></trkpt><trkpt lat="43.18756796042798" lon="0.3203660304837449"><ele>471.0</ele><time>2026-05-06T13:09:33Z</time></trkpt><trkpt lat="43.18754028221428" lon="0.32051787417220473"><ele>470.5</ele><time>2026-05-06T13:09:34Z</time></trkpt><trkpt lat="43.18751656522005" lon="0.32068195512406994"><ele>470.0</ele><time>2026-05-06T13:09:35Z</time></trkpt><trkpt lat="43.187509009054224" lon="0.3208520485443811"><ele>469.5</ele><time>2026-05-06T13:09:36Z</time></trkpt><trkpt lat="43.187519633744394" lon="0.32102143201543343"><ele>469.0</ele><time>2026-05-06T13:09:37Z</time></trkpt><trkpt lat="43.18754061726672" lon="0.32118339939886004"><ele>469.0</ele><time>2026-05-06T13:09:38Z</time></trkpt><trkpt lat="43.187573093631784" lon="0.3213376538817494"><ele>469.0</ele><time>2026-05-06T13:09:39Z</time></trkpt><trkpt lat="43.18761808421521" lon="0.32148885122833715"><ele>469.0</ele><time>2026-05-06T13:09:40Z</time></trkpt><trkpt lat="43.18768430650933" lon="0.32162855378262567"><ele>469.0</ele><time>2026-05-06T13:09:41Z</time></trkpt><trkpt lat="43.18777380153432" lon="0.3217405761591039"><ele>470.0</ele><time>2026-05-06T13:09:42Z</time></trkpt><trkpt lat="43.18788602565859" lon="0.32182090795644874"><ele>471.0</ele><time>2026-05-06T13:09:43Z</time></trkpt><trkpt lat="43.18801284165378" lon="0.3218592792078576"><ele>472.0</ele><time>2026-05-06T13:09:44Z</time></trkpt><trkpt lat="43.1881297460415" lon="0.3218942779451487"><ele>473.0</ele><time>2026-05-06T13:09:45Z</time></trkpt><trkpt lat="43.188244106210426" lon="0.321932132494635"><ele>473.0</ele><time>2026-05-06T13:09:46Z</time></trkpt><trkpt lat="43.18835798268602" lon="0.3219617495832447"><ele>473.0</ele><time>2026-05-06T13:09:47Z</time></trkpt><trkpt lat="43.18847382466721" lon="0.3219777525959924"><ele>473.0</ele><time>2026-05-06T13:09:48Z</time></trkpt><trkpt lat="43.18859673750405" lon="0.32196142616543433"><ele>473.0</ele><time>2026-05-06T13:09:49Z</time></trkpt><trkpt lat="43.18871602842316" lon="0.3219140836301321"><ele>473.0</ele><time>2026-05-06T13:09:50Z</time></trkpt><trkpt lat="43.18883431017856" lon="0.3218587698677771"><ele>473.0</ele><time>2026-05-06T13:09:51Z</time></trkpt><trkpt lat="43.18893998231778" lon="0.32177494153772496"><ele>473.0</ele><time>2026-05-06T13:09:52Z</time></trkpt><trkpt lat="43.18903516763434" lon="0.3216641857298386"><ele>473.0</ele><time>2026-05-06T13:09:53Z</time></trkpt><trkpt lat="43.18912289389545" lon="0.3215454139060285"><ele>474.0</ele><time>2026-05-06T13:09:54Z</time></trkpt><trkpt lat="43.18920110819111" lon="0.32143201572951313"><ele>474.99999999999994</ele><time>2026-05-06T13:09:55Z</time></trkpt><trkpt lat="43.18926645599212" lon="0.32131592981068896"><ele>475.99999999999994</ele><time>2026-05-06T13:09:56Z</time></trkpt><trkpt lat="43.189338107055754" lon="0.32123829890581723"><ele>477.0</ele><time>2026-05-06T13:09:57Z</time></trkpt><trkpt lat="43.189391409496515" lon="0.3211696048719743"><ele>478.0</ele><time>2026-05-06T13:09:58Z</time></trkpt><trkpt lat="43.18944900642433" lon="0.32111767587067047"><ele>478.0</ele><time>2026-05-06T13:09:59Z</time></trkpt><trkpt lat="43.18950824920629" lon="0.3210879597780063"><ele>477.99999999999994</ele><time>2026-05-06T13:10:00Z</time></trkpt><trkpt lat="43.189587121027635" lon="0.32115130616934795"><ele>477.99999999999994</ele><time>2026-05-06T13:10:01Z</time></trkpt><trkpt lat="43.1896398569638" lon="0.3212618401434157"><ele>478.0</ele><time>2026-05-06T13:10:02Z</time></trkpt><trkpt lat="43.189643035563414" lon="0.3214092913240971"><ele>478.0</ele><time>2026-05-06T13:10:03Z</time></trkpt><trkpt lat="43.189573931700295" lon="0.32153278012120934"><ele>473.79999999999995</ele><time>2026-05-06T13:10:04Z</time></trkpt><trkpt lat="43.189543084547594" lon="0.32164399708762936"><ele>469.59999999999997</ele><time>2026-05-06T13:10:05Z</time></trkpt><trkpt lat="43.18951579656126" lon="0.32175851719191645"><ele>465.40000000000003</ele><time>2026-05-06T13:10:06Z</time></trkpt><trkpt lat="43.18947863854931" lon="0.32188111694161914"><ele>461.20000000000005</ele><time>2026-05-06T13:10:07Z</time></trkpt><trkpt lat="43.18943932632846" lon="0.32200401926952804"><ele>457.0</ele><time>2026-05-06T13:10:08Z</time></trkpt><trkpt lat="43.189389317807965" lon="0.3221263022917794"><ele>454.40000000000003</ele><time>2026-05-06T13:10:09Z</time></trkpt><trkpt lat="43.18933259360955" lon="0.3222507515683965"><ele>451.80000000000007</ele><time>2026-05-06T13:10:10Z</time></trkpt><trkpt lat="43.189277250870404" lon="0.32237946400472983"><ele>449.2</ele><time>2026-05-06T13:10:11Z</time></trkpt><trkpt lat="43.18922139876518" lon="0.3225147840215532"><ele>446.6</ele><time>2026-05-06T13:10:12Z</time></trkpt><trkpt lat="43.18916719196854" lon="0.3226540368501177"><ele>444.0</ele><time>2026-05-06T13:10:13Z</time></trkpt><trkpt lat="43.18910701923396" lon="0.3227933322309602"><ele>444.0</ele><time>2026-05-06T13:10:14Z</time></trkpt><trkpt lat="43.18905050629142" lon="0.32294106506469133"><ele>444.0</ele><time>2026-05-06T13:10:15Z</time></trkpt><trkpt lat="43.188995211285125" lon="0.3230937745870268"><ele>444.0</ele><time>2026-05-06T13:10:16Z</time></trkpt><trkpt lat="43.188944632962624" lon="0.3232425057816958"><ele>444.0</ele><time>2026-05-06T13:10:17Z</time></trkpt><trkpt lat="43.18890839450524" lon="0.3233825997480067"><ele>442.6</ele><time>2026-05-06T13:10:18Z</time></trkpt><trkpt lat="43.18888504886747" lon="0.3235266224746017"><ele>441.2</ele><time>2026-05-06T13:10:19Z</time></trkpt><trkpt lat="43.18886811681813" lon="0.3236666437023116"><ele>439.80000000000007</ele><time>2026-05-06T13:10:20Z</time></trkpt><trkpt lat="43.188867476128934" lon="0.323823291346048"><ele>438.40000000000003</ele><time>2026-05-06T13:10:21Z</time></trkpt><trkpt lat="43.188879711877775" lon="0.3239785377276945"><ele>437.0</ele><time>2026-05-06T13:10:22Z</time></trkpt><trkpt lat="43.18890384101902" lon="0.3241337853562828"><ele>436.20000000000005</ele><time>2026-05-06T13:10:23Z</time></trkpt><trkpt lat="43.188940966634625" lon="0.3242950086110811"><ele>435.40000000000003</ele><time>2026-05-06T13:10:24Z</time></trkpt><trkpt lat="43.18896899102139" lon="0.3244440159456491"><ele>434.59999999999997</ele><time>2026-05-06T13:10:25Z</time></trkpt><trkpt lat="43.188998274868446" lon="0.32456994550484175"><ele>433.79999999999995</ele><time>2026-05-06T13:10:26Z</time></trkpt><trkpt lat="43.18902713734057" lon="0.3246944435580201"><ele>433.0</ele><time>2026-05-06T13:10:27Z</time></trkpt><trkpt lat="43.1890591818736" lon="0.32481025692906723"><ele>431.59999999999997</ele><time>2026-05-06T13:10:28Z</time></trkpt><trkpt lat="43.18907975455423" lon="0.3249219216408219"><ele>430.19999999999993</ele><time>2026-05-06T13:10:29Z</time></trkpt><trkpt lat="43.18911031847715" lon="0.32502840028729757"><ele>428.8</ele><time>2026-05-06T13:10:30Z</time></trkpt><trkpt lat="43.18912206119345" lon="0.3251639969106173"><ele>427.4</ele><time>2026-05-06T13:10:31Z</time></trkpt><trkpt lat="43.18915072658701" lon="0.32529706613548254"><ele>426.0</ele><time>2026-05-06T13:10:32Z</time></trkpt><trkpt lat="43.18917079434923" lon="0.3254176812701389"><ele>426.0</ele><time>2026-05-06T13:10:33Z</time></trkpt><trkpt lat="43.18918544622365" lon="0.325524088864963"><ele>426.0</ele><time>2026-05-06T13:10:34Z</time></trkpt><trkpt lat="43.189167861117454" lon="0.3256295244145724"><ele>426.0</ele><time>2026-05-06T13:10:35Z</time></trkpt><trkpt lat="43.18912295476373" lon="0.3257312797142485"><ele>426.0</ele><time>2026-05-06T13:10:36Z</time></trkpt><trkpt lat="43.189073638439744" lon="0.32582390454691285"><ele>426.0</ele><time>2026-05-06T13:10:37Z</time></trkpt><trkpt lat="43.18902016343602" lon="0.3258913118034869"><ele>426.0</ele><time>2026-05-06T13:10:38Z</time></trkpt><trkpt lat="43.18897646080157" lon="0.3259588333924583"><ele>424.8333333333333</ele><time>2026-05-06T13:10:39Z</time></trkpt><trkpt lat="43.188929706675836" lon="0.32603434687618144"><ele>423.66666666666663</ele><time>2026-05-06T13:10:40Z</time></trkpt><trkpt lat="43.188875994735646" lon="0.32609979485405416"><ele>422.5</ele><time>2026-05-06T13:10:41Z</time></trkpt><trkpt lat="43.18884366415026" lon="0.3261908051523359"><ele>421.3333333333333</ele><time>2026-05-06T13:10:42Z</time></trkpt><trkpt lat="43.18880034905908" lon="0.32627160941498834"><ele>420.16666666666663</ele><time>2026-05-06T13:10:43Z</time></trkpt><trkpt lat="43.18875941644617" lon="0.3263393081987546"><ele>419.0</ele><time>2026-05-06T13:10:44Z</time></trkpt><trkpt lat="43.18868834121042" lon="0.3264384005674373"><ele>418.79999999999995</ele><time>2026-05-06T13:10:46Z</time></trkpt><trkpt lat="43.188655036133" lon="0.3265610933788242"><ele>418.59999999999997</ele><time>2026-05-06T13:10:48Z</time></trkpt><trkpt lat="43.18862218494964" lon="0.32668222764782423"><ele>418.4</ele><time>2026-05-06T13:10:50Z</time></trkpt><trkpt lat="43.18857703816382" lon="0.3267969692657144"><ele>418.2</ele><time>2026-05-06T13:10:52Z</time></trkpt><trkpt lat="43.1885268347868" lon="0.3269279486864805"><ele>418.0</ele><time>2026-05-06T13:10:54Z</time></trkpt><trkpt lat="43.18863153635186" lon="0.3271523458506539"><ele>417.2857142857143</ele><time>2026-05-06T13:10:56Z</time></trkpt><trkpt lat="43.18867468608358" lon="0.327227885671251"><ele>416.57142857142856</ele><time>2026-05-06T13:10:57Z</time></trkpt><trkpt lat="43.1887203002422" lon="0.327299506809197"><ele>415.8571428571429</ele><time>2026-05-06T13:10:58Z</time></trkpt><trkpt lat="43.18876762508837" lon="0.32736931693039606"><ele>415.1428571428571</ele><time>2026-05-06T13:10:59Z</time></trkpt><trkpt lat="43.18881623642118" lon="0.32743159133262706"><ele>414.42857142857144</ele><time>2026-05-06T13:11:00Z</time></trkpt><trkpt lat="43.18886415480807" lon="0.3274933103987517"><ele>413.7142857142857</ele><time>2026-05-06T13:11:01Z</time></trkpt><trkpt lat="43.188909038157426" lon="0.3275540623707273"><ele>413.0</ele><time>2026-05-06T13:11:02Z</time></trkpt><trkpt lat="43.18895983448453" lon="0.3276069348957817"><ele>413.4</ele><time>2026-05-06T13:11:03Z</time></trkpt><trkpt lat="43.1890605463716" lon="0.3277006252105807"><ele>413.79999999999995</ele><time>2026-05-06T13:11:05Z</time></trkpt><trkpt lat="43.18915056810659" lon="0.3277938828857426"><ele>414.2</ele><time>2026-05-06T13:11:07Z</time></trkpt><trkpt lat="43.18923708635629" lon="0.3278829807166148"><ele>414.6</ele><time>2026-05-06T13:11:09Z</time></trkpt><trkpt lat="43.18932351123932" lon="0.32796191490769266"><ele>415.0</ele><time>2026-05-06T13:11:11Z</time></trkpt><trkpt lat="43.18940677912969" lon="0.328045483820165"><ele>414.8</ele><time>2026-05-06T13:11:13Z</time></trkpt><trkpt lat="43.18948734750923" lon="0.3281224849963109"><ele>414.6</ele><time>2026-05-06T13:11:15Z</time></trkpt><trkpt lat="43.189575525345155" lon="0.3281966902574572"><ele>414.4</ele><time>2026-05-06T13:11:17Z</time></trkpt><trkpt lat="43.18965964191357" lon="0.32826808872921814"><ele>414.2</ele><time>2026-05-06T13:11:19Z</time></trkpt><trkpt lat="43.18974327495539" lon="0.32835031606380566"><ele>414.0</ele><time>2026-05-06T13:11:21Z</time></trkpt><trkpt lat="43.189833969692366" lon="0.328440227925727"><ele>414.5</ele><time>2026-05-06T13:11:23Z</time></trkpt><trkpt lat="43.18988389323016" lon="0.3285782280350315"><ele>415.0</ele><time>2026-05-06T13:11:25Z</time></trkpt><trkpt lat="43.18994991227131" lon="0.32871763121799036"><ele>415.5</ele><time>2026-05-06T13:11:27Z</time></trkpt><trkpt lat="43.19001371590861" lon="0.32885888424578924"><ele>416.0</ele><time>2026-05-06T13:11:29Z</time></trkpt><trkpt lat="43.19008290829726" lon="0.32899835588971993"><ele>415.3333333333333</ele><time>2026-05-06T13:11:31Z</time></trkpt><trkpt lat="43.190153529496406" lon="0.3291354161665875"><ele>414.66666666666663</ele><time>2026-05-06T13:11:33Z</time></trkpt><trkpt lat="43.190197470102746" lon="0.329199771763318"><ele>414.0</ele><time>2026-05-06T13:11:34Z</time></trkpt><trkpt lat="43.190240815400244" lon="0.32926584228569644"><ele>413.33333333333337</ele><time>2026-05-06T13:11:35Z</time></trkpt><trkpt lat="43.190285441875496" lon="0.32933484993997214"><ele>412.6666666666667</ele><time>2026-05-06T13:11:36Z</time></trkpt><trkpt lat="43.19033231013272" lon="0.3294076859778342"><ele>412.0</ele><time>2026-05-06T13:11:37Z</time></trkpt><trkpt lat="43.190372384218215" lon="0.3294817561610709"><ele>411.99999999999994</ele><time>2026-05-06T13:11:38Z</time></trkpt><trkpt lat="43.190404884978484" lon="0.3295612463841216"><ele>412.0</ele><time>2026-05-06T13:11:39Z</time></trkpt><trkpt lat="43.19042911928649" lon="0.3296489682271111"><ele>412.0</ele><time>2026-05-06T13:11:40Z</time></trkpt><trkpt lat="43.19043497831784" lon="0.3297465068814651"><ele>412.0</ele><time>2026-05-06T13:11:41Z</time></trkpt><trkpt lat="43.19042068584517" lon="0.32985155550121736"><ele>412.0</ele><time>2026-05-06T13:11:42Z</time></trkpt><trkpt lat="43.19039226644696" lon="0.32994403180838894"><ele>411.99999999999994</ele><time>2026-05-06T13:11:43Z</time></trkpt><trkpt lat="43.190366222381684" lon="0.3300359868572149"><ele>412.0</ele><time>2026-05-06T13:11:44Z</time></trkpt><trkpt lat="43.1903470732988" lon="0.3301305900554051"><ele>411.1666666666667</ele><time>2026-05-06T13:11:45Z</time></trkpt><trkpt lat="43.19033356222867" lon="0.3302231696241138"><ele>410.33333333333337</ele><time>2026-05-06T13:11:46Z</time></trkpt><trkpt lat="43.19031687983242" lon="0.3303122353581046"><ele>409.5</ele><time>2026-05-06T13:11:47Z</time></trkpt><trkpt lat="43.19030566980726" lon="0.3304147464119361"><ele>408.66666666666663</ele><time>2026-05-06T13:11:48Z</time></trkpt><trkpt lat="43.19029787576923" lon="0.3305227220498186"><ele>407.8333333333333</ele><time>2026-05-06T13:11:49Z</time></trkpt><trkpt lat="43.19029476962894" lon="0.3306356576427668"><ele>407.0</ele><time>2026-05-06T13:11:50Z</time></trkpt><trkpt lat="43.19028333577573" lon="0.3307590871633502"><ele>406.0</ele><time>2026-05-06T13:11:51Z</time></trkpt><trkpt lat="43.19023799879195" lon="0.33087624857069725"><ele>405.0</ele><time>2026-05-06T13:11:52Z</time></trkpt><trkpt lat="43.19017032133706" lon="0.33098707823498663"><ele>404.0</ele><time>2026-05-06T13:11:53Z</time></trkpt><trkpt lat="43.19008727637344" lon="0.33108502182545946"><ele>403.0</ele><time>2026-05-06T13:11:54Z</time></trkpt><trkpt lat="43.19001397843071" lon="0.33118940262602714"><ele>402.0</ele><time>2026-05-06T13:11:55Z</time></trkpt><trkpt lat="43.18997371769065" lon="0.33132180835456077"><ele>400.75</ele><time>2026-05-06T13:11:56Z</time></trkpt><trkpt lat="43.18995741781193" lon="0.33147208209281365"><ele>399.5</ele><time>2026-05-06T13:11:57Z</time></trkpt><trkpt lat="43.189975978845574" lon="0.331640907159103"><ele>398.25</ele><time>2026-05-06T13:11:58Z</time></trkpt><trkpt lat="43.1900109789515" lon="0.33180446911975275"><ele>397.0</ele><time>2026-05-06T13:11:59Z</time></trkpt><trkpt lat="43.190045696212145" lon="0.3319673260045216"><ele>397.0</ele><time>2026-05-06T13:12:00Z</time></trkpt><trkpt lat="43.19007157732636" lon="0.33213787587965016"><ele>397.0</ele><time>2026-05-06T13:12:01Z</time></trkpt><trkpt lat="43.19008862882352" lon="0.3323160047994845"><ele>397.0</ele><time>2026-05-06T13:12:02Z</time></trkpt><trkpt lat="43.19008980180151" lon="0.3325028596432503"><ele>397.0</ele><time>2026-05-06T13:12:03Z</time></trkpt><trkpt lat="43.19007825566346" lon="0.3326925140081384"><ele>395.5</ele><time>2026-05-06T13:12:04Z</time></trkpt><trkpt lat="43.19004385710468" lon="0.33288160751280166"><ele>394.0</ele><time>2026-05-06T13:12:05Z</time></trkpt><trkpt lat="43.189983432223734" lon="0.33306608451570063"><ele>392.5</ele><time>2026-05-06T13:12:06Z</time></trkpt><trkpt lat="43.18992274304637" lon="0.33324280313889876"><ele>391.0</ele><time>2026-05-06T13:12:07Z</time></trkpt><trkpt lat="43.18986171109181" lon="0.3334166341622147"><ele>389.0</ele><time>2026-05-06T13:12:08Z</time></trkpt><trkpt lat="43.18980471766164" lon="0.33358888180183405"><ele>387.0</ele><time>2026-05-06T13:12:09Z</time></trkpt><trkpt lat="43.18975065356384" lon="0.33375995830957267"><ele>385.0</ele><time>2026-05-06T13:12:10Z</time></trkpt><trkpt lat="43.18969340899688" lon="0.333924692962889"><ele>383.0</ele><time>2026-05-06T13:12:11Z</time></trkpt><trkpt lat="43.18963188870623" lon="0.3340879127867471"><ele>382.5</ele><time>2026-05-06T13:12:12Z</time></trkpt><trkpt lat="43.18956849579348" lon="0.33424316549439104"><ele>382.0</ele><time>2026-05-06T13:12:13Z</time></trkpt><trkpt lat="43.189509838790116" lon="0.33440315692082395"><ele>381.5</ele><time>2026-05-06T13:12:14Z</time></trkpt><trkpt lat="43.189454492072144" lon="0.3345618011788378"><ele>381.0</ele><time>2026-05-06T13:12:15Z</time></trkpt><trkpt lat="43.18939804330415" lon="0.33472337974848276"><ele>380.5</ele><time>2026-05-06T13:12:16Z</time></trkpt><trkpt lat="43.18934724520019" lon="0.3348867943310169"><ele>380.0</ele><time>2026-05-06T13:12:17Z</time></trkpt><trkpt lat="43.189297506636386" lon="0.33504793393852544"><ele>379.5</ele><time>2026-05-06T13:12:18Z</time></trkpt><trkpt lat="43.18924777557771" lon="0.335213667747436"><ele>379.0</ele><time>2026-05-06T13:12:19Z</time></trkpt><trkpt lat="43.1891978717613" lon="0.33538035950414513"><ele>379.0</ele><time>2026-05-06T13:12:20Z</time></trkpt><trkpt lat="43.18914555384786" lon="0.33554521798104"><ele>379.0</ele><time>2026-05-06T13:12:21Z</time></trkpt><trkpt lat="43.1890906041908" lon="0.33570794624935624"><ele>379.0</ele><time>2026-05-06T13:12:22Z</time></trkpt><trkpt lat="43.189031957177306" lon="0.3358731301282351"><ele>379.0</ele><time>2026-05-06T13:12:23Z</time></trkpt><trkpt lat="43.18897412455569" lon="0.3360376362160091"><ele>378.25</ele><time>2026-05-06T13:12:24Z</time></trkpt><trkpt lat="43.18891719400084" lon="0.336203507793513"><ele>377.5</ele><time>2026-05-06T13:12:25Z</time></trkpt><trkpt lat="43.18885923291743" lon="0.3363654946331619"><ele>376.75</ele><time>2026-05-06T13:12:26Z</time></trkpt><trkpt lat="43.18879971973462" lon="0.33652788137885775"><ele>376.0</ele><time>2026-05-06T13:12:27Z</time></trkpt><trkpt lat="43.18873642181824" lon="0.336683947383263"><ele>375.5</ele><time>2026-05-06T13:12:28Z</time></trkpt><trkpt lat="43.18867051710133" lon="0.33683709300625797"><ele>375.0</ele><time>2026-05-06T13:12:29Z</time></trkpt><trkpt lat="43.18860577400525" lon="0.3369951851557059"><ele>374.5</ele><time>2026-05-06T13:12:30Z</time></trkpt><trkpt lat="43.18854752557795" lon="0.3371538023559642"><ele>374.0</ele><time>2026-05-06T13:12:31Z</time></trkpt><trkpt lat="43.18849661084367" lon="0.3373157903180947"><ele>373.75</ele><time>2026-05-06T13:12:32Z</time></trkpt><trkpt lat="43.188451389497125" lon="0.337475080363164"><ele>373.5</ele><time>2026-05-06T13:12:33Z</time></trkpt><trkpt lat="43.188408438175166" lon="0.337628313531545"><ele>373.25</ele><time>2026-05-06T13:12:34Z</time></trkpt><trkpt lat="43.18835982539851" lon="0.33777128481691515"><ele>373.0</ele><time>2026-05-06T13:12:35Z</time></trkpt><trkpt lat="43.188306566099456" lon="0.33791954732190915"><ele>373.75</ele><time>2026-05-06T13:12:36Z</time></trkpt><trkpt lat="43.188252641640084" lon="0.33806309386762384"><ele>374.5</ele><time>2026-05-06T13:12:37Z</time></trkpt><trkpt lat="43.18819745228478" lon="0.3382019332290783"><ele>375.25</ele><time>2026-05-06T13:12:38Z</time></trkpt><trkpt lat="43.18814590349188" lon="0.3383354436754004"><ele>376.0</ele><time>2026-05-06T13:12:39Z</time></trkpt><trkpt lat="43.18809503482096" lon="0.33846439360381375"><ele>376.0</ele><time>2026-05-06T13:12:40Z</time></trkpt><trkpt lat="43.18804660948349" lon="0.3385927436810862"><ele>376.0</ele><time>2026-05-06T13:12:41Z</time></trkpt><trkpt lat="43.18799945816473" lon="0.3387160665630842"><ele>376.0</ele><time>2026-05-06T13:12:42Z</time></trkpt><trkpt lat="43.18795404292739" lon="0.3388409979631776"><ele>376.0</ele><time>2026-05-06T13:12:43Z</time></trkpt><trkpt lat="43.18791213356003" lon="0.33896474618432626"><ele>376.0</ele><time>2026-05-06T13:12:44Z</time></trkpt><trkpt lat="43.187872595032005" lon="0.33908298706597884"><ele>376.0</ele><time>2026-05-06T13:12:45Z</time></trkpt><trkpt lat="43.18783763244436" lon="0.33919640461420764"><ele>376.0</ele><time>2026-05-06T13:12:46Z</time></trkpt><trkpt lat="43.18781408094016" lon="0.33931709798003706"><ele>376.0</ele><time>2026-05-06T13:12:47Z</time></trkpt><trkpt lat="43.187798258714" lon="0.3394345838953479"><ele>376.0</ele><time>2026-05-06T13:12:48Z</time></trkpt><trkpt lat="43.18780164184574" lon="0.33955026092229507"><ele>376.0</ele><time>2026-05-06T13:12:49Z</time></trkpt><trkpt lat="43.18780285721697" lon="0.33966154602706367"><ele>376.0</ele><time>2026-05-06T13:12:50Z</time></trkpt><trkpt lat="43.18781010275104" lon="0.33976993410723144"><ele>376.0</ele><time>2026-05-06T13:12:51Z</time></trkpt><trkpt lat="43.18781533572072" lon="0.33987241391378553"><ele>376.0</ele><time>2026-05-06T13:12:52Z</time></trkpt><trkpt lat="43.18782314712442" lon="0.33997118621713635"><ele>376.0</ele><time>2026-05-06T13:12:53Z</time></trkpt><trkpt lat="43.187831575385125" lon="0.3400635951434373"><ele>376.0</ele><time>2026-05-06T13:12:54Z</time></trkpt><trkpt lat="43.18784025154982" lon="0.34015718857673316"><ele>376.0</ele><time>2026-05-06T13:12:55Z</time></trkpt><trkpt lat="43.1878467432298" lon="0.3403328909131408"><ele>376.0</ele><time>2026-05-06T13:12:57Z</time></trkpt><trkpt lat="43.18785821846707" lon="0.34042505189200123"><ele>376.25</ele><time>2026-05-06T13:12:58Z</time></trkpt><trkpt lat="43.18786603554825" lon="0.3405912791998911"><ele>376.5</ele><time>2026-05-06T13:13:00Z</time></trkpt><trkpt lat="43.18787690731002" lon="0.34076329607906475"><ele>376.75</ele><time>2026-05-06T13:13:02Z</time></trkpt><trkpt lat="43.18788493783188" lon="0.3409237875351674"><ele>377.0</ele><time>2026-05-06T13:13:04Z</time></trkpt><trkpt lat="43.187894821457334" lon="0.34107453427843076"><ele>377.0</ele><time>2026-05-06T13:13:06Z</time></trkpt><trkpt lat="43.18789855034933" lon="0.34120056725420556"><ele>377.0</ele><time>2026-05-06T13:13:08Z</time></trkpt><trkpt lat="43.18791076112994" lon="0.3413171500776306"><ele>377.0</ele><time>2026-05-06T13:13:10Z</time></trkpt><trkpt lat="43.18791438307505" lon="0.34142696997500166"><ele>377.0</ele><time>2026-05-06T13:13:12Z</time></trkpt><trkpt lat="43.18792107028559" lon="0.34153086013764344"><ele>377.0</ele><time>2026-05-06T13:13:14Z</time></trkpt><trkpt lat="43.187921087351036" lon="0.3416194528002392"><ele>377.0</ele><time>2026-05-06T13:13:16Z</time></trkpt><trkpt lat="43.18792577921448" lon="0.34171069907939594"><ele>377.1666666666667</ele><time>2026-05-06T13:13:18Z</time></trkpt><trkpt lat="43.1879315186081" lon="0.3418191032993909"><ele>377.33333333333337</ele><time>2026-05-06T13:13:21Z</time></trkpt><trkpt lat="43.18794869673645" lon="0.34194298326201594"><ele>377.5</ele><time>2026-05-06T13:13:24Z</time></trkpt><trkpt lat="43.187950502239175" lon="0.34204499675431993"><ele>377.6666666666667</ele><time>2026-05-06T13:13:27Z</time></trkpt><trkpt lat="43.18795737243575" lon="0.34215344962096844"><ele>377.8333333333333</ele><time>2026-05-06T13:13:30Z</time></trkpt><trkpt lat="43.187962971994" lon="0.34226164099109535"><ele>378.0</ele><time>2026-05-06T13:13:33Z</time></trkpt><trkpt lat="43.187957551907836" lon="0.342355636327418"><ele>378.85714285714283</ele><time>2026-05-06T13:13:36Z</time></trkpt><trkpt lat="43.187945231956675" lon="0.34244556368833273"><ele>379.7142857142857</ele><time>2026-05-06T13:13:39Z</time></trkpt><trkpt lat="43.18790684896858" lon="0.34253535122648393"><ele>380.57142857142856</ele><time>2026-05-06T13:13:43Z</time></trkpt><trkpt lat="43.18785901265269" lon="0.3426060132715774"><ele>381.42857142857144</ele><time>2026-05-06T13:13:47Z</time></trkpt><trkpt lat="43.18780975891522" lon="0.3426714496327053"><ele>382.2857142857143</ele><time>2026-05-06T13:13:51Z</time></trkpt><trkpt lat="43.18775788394382" lon="0.3427374213904801"><ele>383.1428571428571</ele><time>2026-05-06T13:13:55Z</time></trkpt><trkpt lat="43.18770111151702" lon="0.3428067759243373"><ele>384.0</ele><time>2026-05-06T13:13:59Z</time></trkpt><trkpt lat="43.1876468427362" lon="0.34287900078551975"><ele>383.99999999999994</ele><time>2026-05-06T13:14:03Z</time></trkpt><trkpt lat="43.18760012302438" lon="0.34296379816907213"><ele>384.0</ele><time>2026-05-06T13:14:07Z</time></trkpt><trkpt lat="43.18754830689941" lon="0.3430480307926986"><ele>384.0</ele><time>2026-05-06T13:14:11Z</time></trkpt><trkpt lat="43.187504665315515" lon="0.34312350885962106"><ele>384.0</ele><time>2026-05-06T13:14:15Z</time></trkpt><trkpt lat="43.18746880437885" lon="0.34320356206934727"><ele>384.0</ele><time>2026-05-06T13:14:18Z</time></trkpt><trkpt lat="43.18742535014425" lon="0.3432703204602914"><ele>383.99999999999994</ele><time>2026-05-06T13:14:20.999Z</time></trkpt><trkpt lat="43.18736676074464" lon="0.34334129034779864"><ele>384.0</ele><time>2026-05-06T13:14:24.999Z</time></trkpt><trkpt lat="43.18732839100925" lon="0.34341051651840576"><ele>384.99999999999994</ele><time>2026-05-06T13:14:27.999Z</time></trkpt><trkpt lat="43.187268902548" lon="0.3434635591206242"><ele>386.0</ele><time>2026-05-06T13:14:31.999Z</time></trkpt><trkpt lat="43.187207887852125" lon="0.34353674010693674"><ele>387.0</ele><time>2026-05-06T13:14:36Z</time></trkpt><trkpt lat="43.187156498835684" lon="0.34359033302877284"><ele>388.0</ele><time>2026-05-06T13:14:40Z</time></trkpt><trkpt lat="43.18709583747262" lon="0.3436341433486194"><ele>389.0</ele><time>2026-05-06T13:14:43Z</time></trkpt><trkpt lat="43.18703652326278" lon="0.3436690004129854"><ele>389.99999999999994</ele><time>2026-05-06T13:14:46Z</time></trkpt><trkpt lat="43.18695956590013" lon="0.3437077080964284"><ele>391.0</ele><time>2026-05-06T13:14:50Z</time></trkpt><trkpt lat="43.186899132659875" lon="0.34374613498268575"><ele>390.99999999999994</ele><time>2026-05-06T13:14:53Z</time></trkpt><trkpt lat="43.186828828352176" lon="0.3437693943420826"><ele>391.0</ele><time>2026-05-06T13:14:57Z</time></trkpt><trkpt lat="43.18676292792517" lon="0.3437822521912522"><ele>391.0</ele><time>2026-05-06T13:15:00Z</time></trkpt><trkpt lat="43.186689634108276" lon="0.3437902266460311"><ele>391.0</ele><time>2026-05-06T13:15:04Z</time></trkpt><trkpt lat="43.18662591178086" lon="0.34382250114199864"><ele>391.0</ele><time>2026-05-06T13:15:07Z</time></trkpt><trkpt lat="43.1865536391312" lon="0.3438334258570026"><ele>390.99999999999994</ele><time>2026-05-06T13:15:11Z</time></trkpt><trkpt lat="43.18649142927313" lon="0.34386768432696807"><ele>391.0</ele><time>2026-05-06T13:15:14Z</time></trkpt><trkpt lat="43.18641790034865" lon="0.3439243828501554"><ele>393.4285714285714</ele><time>2026-05-06T13:15:18Z</time></trkpt><trkpt lat="43.186340330160235" lon="0.3439658670955275"><ele>395.85714285714283</ele><time>2026-05-06T13:15:22Z</time></trkpt><trkpt lat="43.18627839363202" lon="0.34400574581494126"><ele>398.2857142857143</ele><time>2026-05-06T13:15:25Z</time></trkpt><trkpt lat="43.18621586328661" lon="0.34402465576998625"><ele>400.71428571428567</ele><time>2026-05-06T13:15:28Z</time></trkpt><trkpt lat="43.18615366605288" lon="0.3440446288905652"><ele>403.14285714285717</ele><time>2026-05-06T13:15:31Z</time></trkpt><trkpt lat="43.18607905566272" lon="0.3440857407445552"><ele>405.57142857142856</ele><time>2026-05-06T13:15:35Z</time></trkpt><trkpt lat="43.18601806621047" lon="0.34411764103619696"><ele>408.0</ele><time>2026-05-06T13:15:38Z</time></trkpt><trkpt lat="43.18595201164659" lon="0.3441287700507006"><ele>408.0</ele><time>2026-05-06T13:15:41Z</time></trkpt><trkpt lat="43.18587562538012" lon="0.3441570673637644"><ele>408.0</ele><time>2026-05-06T13:15:45Z</time></trkpt><trkpt lat="43.18580777414633" lon="0.3441686255466183"><ele>408.0</ele><time>2026-05-06T13:15:48Z</time></trkpt><trkpt lat="43.18573979627359" lon="0.3442069171948207"><ele>408.0</ele><time>2026-05-06T13:15:51Z</time></trkpt><trkpt lat="43.185664987278486" lon="0.34422864384624396"><ele>408.0</ele><time>2026-05-06T13:15:55Z</time></trkpt><trkpt lat="43.18560028366643" lon="0.3442575446420063"><ele>408.0</ele><time>2026-05-06T13:15:59Z</time></trkpt><trkpt lat="43.185520311588164" lon="0.34428184208188334"><ele>408.0</ele><time>2026-05-06T13:16:02Z</time></trkpt><trkpt lat="43.1854444624978" lon="0.34433043717223494"><ele>407.42857142857144</ele><time>2026-05-06T13:16:06Z</time></trkpt><trkpt lat="43.1853676424761" lon="0.34433819012156847"><ele>406.8571428571429</ele><time>2026-05-06T13:16:09Z</time></trkpt><trkpt lat="43.185309030710386" lon="0.34437687347435086"><ele>406.2857142857143</ele><time>2026-05-06T13:16:12Z</time></trkpt><trkpt lat="43.18523355565938" lon="0.3444356526952361"><ele>405.7142857142857</ele><time>2026-05-06T13:16:16Z</time></trkpt><trkpt lat="43.18517566317017" lon="0.3444741036992689"><ele>405.1428571428571</ele><time>2026-05-06T13:16:19Z</time></trkpt><trkpt lat="43.185110371177885" lon="0.34451828457397216"><ele>404.57142857142856</ele><time>2026-05-06T13:16:22Z</time></trkpt><trkpt lat="43.18505861393765" lon="0.34457859147526393"><ele>404.0</ele><time>2026-05-06T13:16:24.999Z</time></trkpt><trkpt lat="43.18496438789605" lon="0.34461932870874634"><ele>403.99999999999994</ele><time>2026-05-06T13:16:28.999Z</time></trkpt><trkpt lat="43.18490502424036" lon="0.3446535556096139"><ele>404.0</ele><time>2026-05-06T13:16:31.999Z</time></trkpt><trkpt lat="43.184837597410656" lon="0.3446848903052297"><ele>404.0</ele><time>2026-05-06T13:16:34.999Z</time></trkpt><trkpt lat="43.18474870376003" lon="0.3447168066226924"><ele>404.0</ele><time>2026-05-06T13:16:38.999Z</time></trkpt><trkpt lat="43.18466463584051" lon="0.3447716338342003"><ele>403.99999999999994</ele><time>2026-05-06T13:16:42.999Z</time></trkpt><trkpt lat="43.184577430374055" lon="0.3447897220837827"><ele>404.0</ele><time>2026-05-06T13:16:46.999Z</time></trkpt><trkpt lat="43.184486191467265" lon="0.3448178209750061"><ele>405.49999999999994</ele><time>2026-05-06T13:16:51Z</time></trkpt><trkpt lat="43.18439756906565" lon="0.34484284599053683"><ele>407.0</ele><time>2026-05-06T13:16:55Z</time></trkpt><trkpt lat="43.18431108960284" lon="0.3448914941741883"><ele>408.5</ele><time>2026-05-06T13:16:59Z</time></trkpt><trkpt lat="43.184220759166585" lon="0.3449578776816625"><ele>410.0</ele><time>2026-05-06T13:17:03Z</time></trkpt><trkpt lat="43.18415685340865" lon="0.34497703596175994"><ele>411.49999999999994</ele><time>2026-05-06T13:17:06Z</time></trkpt><trkpt lat="43.184123664171075" lon="0.34506748019785044"><ele>413.0</ele><time>2026-05-06T13:17:09Z</time></trkpt><trkpt lat="43.1841065850529" lon="0.34518110797072504"><ele>412.99999999999994</ele><time>2026-05-06T13:17:12Z</time></trkpt><trkpt lat="43.18415514625289" lon="0.34525804204294214"><ele>413.0</ele><time>2026-05-06T13:17:16Z</time></trkpt><trkpt lat="43.184235624522415" lon="0.34527163202703254"><ele>413.0</ele><time>2026-05-06T13:17:20Z</time></trkpt><trkpt lat="43.184308953392566" lon="0.34525756584838746"><ele>413.0</ele><time>2026-05-06T13:17:24Z</time></trkpt><trkpt lat="43.184397259539374" lon="0.3452401701597339"><ele>412.99999999999994</ele><time>2026-05-06T13:17:28Z</time></trkpt><trkpt lat="43.18446910908846" lon="0.3452438622916646"><ele>413.0</ele><time>2026-05-06T13:17:32Z</time></trkpt><trkpt lat="43.18455866299424" lon="0.3452493058844328"><ele>412.99999999999994</ele><time>2026-05-06T13:17:37Z</time></trkpt><trkpt lat="43.18464633821502" lon="0.34525534541783315"><ele>413.0</ele><time>2026-05-06T13:17:41Z</time></trkpt><trkpt lat="43.18472429657743" lon="0.3452511466928061"><ele>413.0</ele><time>2026-05-06T13:17:45Z</time></trkpt><trkpt lat="43.18480958362672" lon="0.3452435877914688"><ele>413.0</ele><time>2026-05-06T13:17:49Z</time></trkpt><trkpt lat="43.18489498091614" lon="0.3452650022403515"><ele>412.99999999999994</ele><time>2026-05-06T13:17:53Z</time></trkpt><trkpt lat="43.184976701689706" lon="0.34529588581489284"><ele>413.0</ele><time>2026-05-06T13:17:57Z</time></trkpt><trkpt lat="43.185048317601364" lon="0.34529757618798396"><ele>414.2857142857143</ele><time>2026-05-06T13:18:00Z</time></trkpt><trkpt lat="43.1851125584619" lon="0.3452834452604607"><ele>415.57142857142856</ele><time>2026-05-06T13:18:03Z</time></trkpt><trkpt lat="43.18517998645721" lon="0.3452961034883961"><ele>416.8571428571429</ele><time>2026-05-06T13:18:06Z</time></trkpt><trkpt lat="43.18524570902074" lon="0.34526548623560793"><ele>418.1428571428571</ele><time>2026-05-06T13:18:09Z</time></trkpt><trkpt lat="43.18531959862796" lon="0.34525025980052293"><ele>419.42857142857144</ele><time>2026-05-06T13:18:13Z</time></trkpt><trkpt lat="43.18539217513624" lon="0.34523870112231986"><ele>420.7142857142857</ele><time>2026-05-06T13:18:17Z</time></trkpt><trkpt lat="43.18546546552003" lon="0.345241420824321"><ele>422.0</ele><time>2026-05-06T13:18:22Z</time></trkpt><trkpt lat="43.18552865766347" lon="0.34523593443835093"><ele>421.99999999999994</ele><time>2026-05-06T13:18:26Z</time></trkpt><trkpt lat="43.185604579487965" lon="0.3452364455138899"><ele>422.0</ele><time>2026-05-06T13:18:30.999Z</time></trkpt><trkpt lat="43.185678171173045" lon="0.3452228269992708"><ele>422.0</ele><time>2026-05-06T13:18:34.999Z</time></trkpt><trkpt lat="43.185745483267986" lon="0.3452539461863438"><ele>422.0</ele><time>2026-05-06T13:18:37.999Z</time></trkpt><trkpt lat="43.18583544745492" lon="0.3452628080272162"><ele>421.99999999999994</ele><time>2026-05-06T13:18:42.999Z</time></trkpt><trkpt lat="43.185953579951025" lon="0.3452635167241072"><ele>422.0</ele><time>2026-05-06T13:18:48.999Z</time></trkpt><trkpt lat="43.18601941862511" lon="0.3452955083873883"><ele>423.20000000000005</ele><time>2026-05-06T13:18:52Z</time></trkpt><trkpt lat="43.18609983953136" lon="0.34531274781446825"><ele>424.4</ele><time>2026-05-06T13:18:56Z</time></trkpt><trkpt lat="43.18618882098315" lon="0.34531612772321196"><ele>425.59999999999997</ele><time>2026-05-06T13:19:00Z</time></trkpt><trkpt lat="43.18634625738972" lon="0.3453105246517701"><ele>426.79999999999995</ele><time>2026-05-06T13:19:08Z</time></trkpt><trkpt lat="43.18641202422148" lon="0.3453132892094058"><ele>428.0</ele><time>2026-05-06T13:19:11Z</time></trkpt><trkpt lat="43.186475353848245" lon="0.34533558867549236"><ele>428.5714285714286</ele><time>2026-05-06T13:19:14Z</time></trkpt><trkpt lat="43.18655907154523" lon="0.3453325744972659"><ele>429.14285714285717</ele><time>2026-05-06T13:19:18Z</time></trkpt><trkpt lat="43.18662212953495" lon="0.3453455071915767"><ele>429.7142857142857</ele><time>2026-05-06T13:19:21Z</time></trkpt><trkpt lat="43.18670468941349" lon="0.345341289881111"><ele>430.28571428571433</ele><time>2026-05-06T13:19:25Z</time></trkpt><trkpt lat="43.186769780483836" lon="0.34535116971704405"><ele>430.85714285714283</ele><time>2026-05-06T13:19:28Z</time></trkpt><trkpt lat="43.18683688683425" lon="0.34532712601681353"><ele>431.42857142857144</ele><time>2026-05-06T13:19:31Z</time></trkpt><trkpt lat="43.18690465457602" lon="0.3453246431688637"><ele>432.0</ele><time>2026-05-06T13:19:35Z</time></trkpt><trkpt lat="43.1869683428496" lon="0.3452928752878481"><ele>432.0</ele><time>2026-05-06T13:19:38Z</time></trkpt><trkpt lat="43.187052437528095" lon="0.3452844622775232"><ele>432.0</ele><time>2026-05-06T13:19:42Z</time></trkpt><trkpt lat="43.18712838863366" lon="0.34525685742477624"><ele>432.0</ele><time>2026-05-06T13:19:46Z</time></trkpt><trkpt lat="43.18721311214135" lon="0.34525423755510437"><ele>432.0</ele><time>2026-05-06T13:19:50Z</time></trkpt><trkpt lat="43.18727842939619" lon="0.34524733851956946"><ele>432.0</ele><time>2026-05-06T13:19:53Z</time></trkpt><trkpt lat="43.18734362939283" lon="0.34525213741802524"><ele>432.0</ele><time>2026-05-06T13:19:56Z</time></trkpt><trkpt lat="43.18742423218178" lon="0.34526820940311204"><ele>432.6666666666667</ele><time>2026-05-06T13:20:00Z</time></trkpt><trkpt lat="43.187498598364186" lon="0.3453208753983681"><ele>433.33333333333337</ele><time>2026-05-06T13:20:04Z</time></trkpt><trkpt lat="43.18756088852852" lon="0.34540080499579096"><ele>434.0</ele><time>2026-05-06T13:20:08Z</time></trkpt><trkpt lat="43.18760111414536" lon="0.3454922518906793"><ele>434.6666666666667</ele><time>2026-05-06T13:20:12Z</time></trkpt><trkpt lat="43.18764253168833" lon="0.34558840871693847"><ele>435.33333333333337</ele><time>2026-05-06T13:20:16Z</time></trkpt><trkpt lat="43.18766989891262" lon="0.34567867235392863"><ele>436.0</ele><time>2026-05-06T13:20:20Z</time></trkpt><trkpt lat="43.18768852823445" lon="0.3457756168149165"><ele>438.7142857142857</ele><time>2026-05-06T13:20:24Z</time></trkpt><trkpt lat="43.18771473037693" lon="0.3458678470159991"><ele>441.42857142857144</ele><time>2026-05-06T13:20:28Z</time></trkpt><trkpt lat="43.18773288170601" lon="0.3459661224138015"><ele>444.1428571428571</ele><time>2026-05-06T13:20:32Z</time></trkpt><trkpt lat="43.18774354572856" lon="0.34607939672504445"><ele>446.8571428571429</ele><time>2026-05-06T13:20:36Z</time></trkpt><trkpt lat="43.18774880807312" lon="0.34617630556414386"><ele>449.57142857142856</ele><time>2026-05-06T13:20:39.999Z</time></trkpt><trkpt lat="43.18774711501469" lon="0.346274811148052"><ele>452.2857142857143</ele><time>2026-05-06T13:20:43.999Z</time></trkpt><trkpt lat="43.18773070927143" lon="0.34637258645709856"><ele>455.0</ele><time>2026-05-06T13:20:47.999Z</time></trkpt><trkpt lat="43.18771910512588" lon="0.34646286680692057"><ele>456.1428571428571</ele><time>2026-05-06T13:20:52Z</time></trkpt><trkpt lat="43.187680898424475" lon="0.346546492881276"><ele>457.2857142857143</ele><time>2026-05-06T13:20:56Z</time></trkpt><trkpt lat="43.18766851955151" lon="0.34663322346070957"><ele>458.42857142857144</ele><time>2026-05-06T13:20:59Z</time></trkpt><trkpt lat="43.18764330221519" lon="0.34672299965104936"><ele>459.57142857142856</ele><time>2026-05-06T13:21:03Z</time></trkpt><trkpt lat="43.18763163529683" lon="0.34682958567286354"><ele>460.71428571428567</ele><time>2026-05-06T13:21:08Z</time></trkpt><trkpt lat="43.18762434562704" lon="0.3469385137417921"><ele>461.85714285714283</ele><time>2026-05-06T13:21:12Z</time></trkpt><trkpt lat="43.187630698965" lon="0.34704074570761995"><ele>463.0</ele><time>2026-05-06T13:21:16Z</time></trkpt><trkpt lat="43.18759733025165" lon="0.347122537416815"><ele>463.2857142857143</ele><time>2026-05-06T13:21:20Z</time></trkpt><trkpt lat="43.18758472480472" lon="0.347233688046728"><ele>463.57142857142856</ele><time>2026-05-06T13:21:25Z</time></trkpt><trkpt lat="43.18758628610182" lon="0.34734552730554075"><ele>463.85714285714283</ele><time>2026-05-06T13:21:30Z</time></trkpt><trkpt lat="43.18759414601826" lon="0.3474361589780872"><ele>464.1428571428571</ele><time>2026-05-06T13:21:33Z</time></trkpt><trkpt lat="43.187588520909515" lon="0.34753576989039175"><ele>464.42857142857144</ele><time>2026-05-06T13:21:37Z</time></trkpt><trkpt lat="43.18759373045885" lon="0.3476429525277379"><ele>464.71428571428567</ele><time>2026-05-06T13:21:41Z</time></trkpt><trkpt lat="43.18758706234154" lon="0.3477348445019942"><ele>465.0</ele><time>2026-05-06T13:21:45Z</time></trkpt><trkpt lat="43.18757996722986" lon="0.34783741718060324"><ele>465.0</ele><time>2026-05-06T13:21:49Z</time></trkpt><trkpt lat="43.18756576575789" lon="0.3479345073666147"><ele>465.0</ele><time>2026-05-06T13:21:53Z</time></trkpt><trkpt lat="43.187545143581886" lon="0.34802355700358245"><ele>465.0</ele><time>2026-05-06T13:21:57Z</time></trkpt><trkpt lat="43.1875007358689" lon="0.3481060003765919"><ele>465.0</ele><time>2026-05-06T13:22:01Z</time></trkpt><trkpt lat="43.18745688401118" lon="0.34817446966574817"><ele>465.0</ele><time>2026-05-06T13:22:05Z</time></trkpt><trkpt lat="43.18740163369467" lon="0.3482486444631366"><ele>465.0</ele><time>2026-05-06T13:22:09Z</time></trkpt><trkpt lat="43.18735985328476" lon="0.34831988663423136"><ele>465.0</ele><time>2026-05-06T13:22:13Z</time></trkpt><trkpt lat="43.18730849143628" lon="0.3483786955008325"><ele>468.8333333333333</ele><time>2026-05-06T13:22:17Z</time></trkpt><trkpt lat="43.18725514324233" lon="0.34844477405501356"><ele>472.66666666666663</ele><time>2026-05-06T13:22:21Z</time></trkpt><trkpt lat="43.18719631261296" lon="0.34850645370427763"><ele>476.5</ele><time>2026-05-06T13:22:25Z</time></trkpt><trkpt lat="43.187135207920285" lon="0.3485786276965256"><ele>480.3333333333333</ele><time>2026-05-06T13:22:29Z</time></trkpt><trkpt lat="43.18710312008421" lon="0.34868657120667546"><ele>484.16666666666663</ele><time>2026-05-06T13:22:33Z</time></trkpt><trkpt lat="43.18706562159635" lon="0.34876213672736"><ele>488.0</ele><time>2026-05-06T13:22:37Z</time></trkpt><trkpt lat="43.18702420185942" lon="0.34885302930675677"><ele>487.1428571428571</ele><time>2026-05-06T13:22:41Z</time></trkpt><trkpt lat="43.18701503805618" lon="0.34896396730118695"><ele>486.2857142857143</ele><time>2026-05-06T13:22:45Z</time></trkpt><trkpt lat="43.18699037129916" lon="0.3490566924216224"><ele>485.42857142857144</ele><time>2026-05-06T13:22:49Z</time></trkpt><trkpt lat="43.186967723554034" lon="0.34914383970616497"><ele>484.57142857142856</ele><time>2026-05-06T13:22:53Z</time></trkpt><trkpt lat="43.18694089227425" lon="0.34922255655848206"><ele>483.7142857142858</ele><time>2026-05-06T13:22:57Z</time></trkpt><trkpt lat="43.18691517080148" lon="0.3493103569630388"><ele>482.8571428571429</ele><time>2026-05-06T13:23:01Z</time></trkpt><trkpt lat="43.18688486484653" lon="0.3493884606582609"><ele>482.0</ele><time>2026-05-06T13:23:04Z</time></trkpt><trkpt lat="43.18685351194495" lon="0.34948718239074666"><ele>481.99999999999994</ele><time>2026-05-06T13:23:08Z</time></trkpt><trkpt lat="43.186823043089106" lon="0.3495837810593639"><ele>482.0</ele><time>2026-05-06T13:23:12Z</time></trkpt><trkpt lat="43.18677773551943" lon="0.3496793224413241"><ele>482.0</ele><time>2026-05-06T13:23:16Z</time></trkpt><trkpt lat="43.186743838942164" lon="0.3497791837174938"><ele>482.0</ele><time>2026-05-06T13:23:20Z</time></trkpt><trkpt lat="43.1867079312604" lon="0.3498790126606602"><ele>481.99999999999994</ele><time>2026-05-06T13:23:24Z</time></trkpt><trkpt lat="43.18667423293276" lon="0.3499802909460574"><ele>482.0</ele><time>2026-05-06T13:23:28Z</time></trkpt><trkpt lat="43.18664638869911" lon="0.35007276543775934"><ele>480.7142857142857</ele><time>2026-05-06T13:23:32Z</time></trkpt><trkpt lat="43.18661937687839" lon="0.35017737232513696"><ele>479.42857142857144</ele><time>2026-05-06T13:23:36Z</time></trkpt><trkpt lat="43.186596381929526" lon="0.35025798649250645"><ele>478.14285714285717</ele><time>2026-05-06T13:23:39Z</time></trkpt><trkpt lat="43.18657131205719" lon="0.3503611666193577"><ele>476.8571428571429</ele><time>2026-05-06T13:23:43Z</time></trkpt><trkpt lat="43.186550974055365" lon="0.35044986062749134"><ele>475.57142857142856</ele><time>2026-05-06T13:23:46Z</time></trkpt><trkpt lat="43.18653655512771" lon="0.35054376971808143"><ele>474.28571428571433</ele><time>2026-05-06T13:23:49Z</time></trkpt><trkpt lat="43.186525672013204" lon="0.35063352309428186"><ele>473.0</ele><time>2026-05-06T13:23:52Z</time></trkpt><trkpt lat="43.18651663951712" lon="0.35073161699329486"><ele>471.49999999999994</ele><time>2026-05-06T13:23:55Z</time></trkpt><trkpt lat="43.186501261358075" lon="0.35082190224545706"><ele>470.0</ele><time>2026-05-06T13:23:59Z</time></trkpt><trkpt lat="43.186485418571415" lon="0.3509318746959377"><ele>468.5</ele><time>2026-05-06T13:24:03Z</time></trkpt><trkpt lat="43.18646404605021" lon="0.3510395701458054"><ele>467.0</ele><time>2026-05-06T13:24:07Z</time></trkpt><trkpt lat="43.18643115434004" lon="0.35113556737417717"><ele>465.49999999999994</ele><time>2026-05-06T13:24:11Z</time></trkpt><trkpt lat="43.186388472778525" lon="0.3512404069261541"><ele>464.0</ele><time>2026-05-06T13:24:15Z</time></trkpt><trkpt lat="43.18634232666018" lon="0.351334896242884"><ele>466.3333333333333</ele><time>2026-05-06T13:24:19Z</time></trkpt><trkpt lat="43.18630435788963" lon="0.35140470127089274"><ele>468.66666666666663</ele><time>2026-05-06T13:24:23Z</time></trkpt><trkpt lat="43.18625436216698" lon="0.3514895044808134"><ele>471.0</ele><time>2026-05-06T13:24:26Z</time></trkpt><trkpt lat="43.1862075400042" lon="0.35155000687052773"><ele>473.33333333333337</ele><time>2026-05-06T13:24:29Z</time></trkpt><trkpt lat="43.18614330358148" lon="0.35161997341953316"><ele>475.6666666666667</ele><time>2026-05-06T13:24:33Z</time></trkpt><trkpt lat="43.18607431278694" lon="0.351679592795077"><ele>478.0</ele><time>2026-05-06T13:24:37Z</time></trkpt><trkpt lat="43.18600238317333" lon="0.35172757707385016"><ele>478.00000000000006</ele><time>2026-05-06T13:24:41Z</time></trkpt><trkpt lat="43.185926512696355" lon="0.35175152487804295"><ele>478.0</ele><time>2026-05-06T13:24:45Z</time></trkpt><trkpt lat="43.18584753021847" lon="0.3517579163135397"><ele>478.0</ele><time>2026-05-06T13:24:49Z</time></trkpt><trkpt lat="43.18576345165071" lon="0.3517710307461842"><ele>478.0</ele><time>2026-05-06T13:24:53Z</time></trkpt><trkpt lat="43.185685750846666" lon="0.35177985749279617"><ele>478.00000000000006</ele><time>2026-05-06T13:24:57Z</time></trkpt><trkpt lat="43.18560896430812" lon="0.35178559059404674"><ele>478.0</ele><time>2026-05-06T13:25:01Z</time></trkpt><trkpt lat="43.18552650467083" lon="0.35179908347285077"><ele>477.28571428571433</ele><time>2026-05-06T13:25:05Z</time></trkpt><trkpt lat="43.185464260770885" lon="0.35182119756098706"><ele>476.57142857142856</ele><time>2026-05-06T13:25:08Z</time></trkpt><trkpt lat="43.18539065515126" lon="0.35185941518660385"><ele>475.8571428571429</ele><time>2026-05-06T13:25:12Z</time></trkpt><trkpt lat="43.185325622031755" lon="0.35191729886176654"><ele>475.14285714285717</ele><time>2026-05-06T13:25:16Z</time></trkpt><trkpt lat="43.18527177574913" lon="0.35196446598597586"><ele>474.42857142857144</ele><time>2026-05-06T13:25:19Z</time></trkpt><trkpt lat="43.185201212068804" lon="0.35202258239482764"><ele>473.7142857142857</ele><time>2026-05-06T13:25:23Z</time></trkpt><trkpt lat="43.185132390429786" lon="0.352083049314244"><ele>473.0</ele><time>2026-05-06T13:25:27Z</time></trkpt><trkpt lat="43.18506327550539" lon="0.35213781452949244"><ele>473.0</ele><time>2026-05-06T13:25:31Z</time></trkpt><trkpt lat="43.18500228797133" lon="0.352203379866785"><ele>473.0</ele><time>2026-05-06T13:25:35Z</time></trkpt><trkpt lat="43.18494679338882" lon="0.3522536771688579"><ele>473.0</ele><time>2026-05-06T13:25:38Z</time></trkpt><trkpt lat="43.184889722810404" lon="0.3523167530471995"><ele>473.0</ele><time>2026-05-06T13:25:42Z</time></trkpt><trkpt lat="43.18482525710677" lon="0.3523825829107605"><ele>473.0</ele><time>2026-05-06T13:25:46Z</time></trkpt><trkpt lat="43.18476405807385" lon="0.3524520114330726"><ele>473.0</ele><time>2026-05-06T13:25:50Z</time></trkpt><trkpt lat="43.18471217087666" lon="0.35250975310366384"><ele>473.0</ele><time>2026-05-06T13:25:53Z</time></trkpt><trkpt lat="43.18465719309558" lon="0.352573731450371"><ele>475.42857142857144</ele><time>2026-05-06T13:25:56Z</time></trkpt><trkpt lat="43.184606085426694" lon="0.35262692633795684"><ele>477.85714285714283</ele><time>2026-05-06T13:25:59Z</time></trkpt><trkpt lat="43.18455582703462" lon="0.3526803850392742"><ele>480.2857142857143</ele><time>2026-05-06T13:26:02Z</time></trkpt><trkpt lat="43.18450113141207" lon="0.35272346725631276"><ele>482.7142857142857</ele><time>2026-05-06T13:26:05Z</time></trkpt><trkpt lat="43.18444312218984" lon="0.3527622114921776"><ele>485.1428571428571</ele><time>2026-05-06T13:26:08Z</time></trkpt><trkpt lat="43.18438461786368" lon="0.35279441545086604"><ele>487.57142857142856</ele><time>2026-05-06T13:26:11Z</time></trkpt><trkpt lat="43.184305076563476" lon="0.35282226482903095"><ele>490.0</ele><time>2026-05-06T13:26:15Z</time></trkpt><trkpt lat="43.18422914282861" lon="0.3528389089724741"><ele>490.0</ele><time>2026-05-06T13:26:19Z</time></trkpt><trkpt lat="43.18415242154054" lon="0.35283140093230264"><ele>490.0</ele><time>2026-05-06T13:26:23Z</time></trkpt><trkpt lat="43.1840775147647" lon="0.35279787018902364"><ele>490.0</ele><time>2026-05-06T13:26:27Z</time></trkpt><trkpt lat="43.18401255948492" lon="0.35276362948396855"><ele>490.0</ele><time>2026-05-06T13:26:30.001Z</time></trkpt><trkpt lat="43.18395856851807" lon="0.3527184643330543"><ele>490.0</ele><time>2026-05-06T13:26:33.001Z</time></trkpt><trkpt lat="43.18390600690075" lon="0.35266526729808756"><ele>490.0</ele><time>2026-05-06T13:26:36.001Z</time></trkpt><trkpt lat="43.18384316113677" lon="0.3526082794720954"><ele>490.0</ele><time>2026-05-06T13:26:40.001Z</time></trkpt><trkpt lat="43.18377596398947" lon="0.35254991990491547"><ele>492.00000000000006</ele><time>2026-05-06T13:26:44.001Z</time></trkpt><trkpt lat="43.183714761720445" lon="0.35247366650259365"><ele>494.0</ele><time>2026-05-06T13:26:48.001Z</time></trkpt><trkpt lat="43.1836475493876" lon="0.35242654859106676"><ele>496.0</ele><time>2026-05-06T13:26:51.001Z</time></trkpt><trkpt lat="43.18357294141966" lon="0.35236126719887506"><ele>498.0</ele><time>2026-05-06T13:26:55Z</time></trkpt><trkpt lat="43.18348761160055" lon="0.3522977769500755"><ele>500.00000000000006</ele><time>2026-05-06T13:26:59Z</time></trkpt><trkpt lat="43.183426899664774" lon="0.3522653771385867"><ele>502.0</ele><time>2026-05-06T13:27:02Z</time></trkpt><trkpt lat="43.183357380894904" lon="0.35225571995056515"><ele>501.99999999999994</ele><time>2026-05-06T13:27:05Z</time></trkpt><trkpt lat="43.183291067490025" lon="0.35226113434889306"><ele>502.0</ele><time>2026-05-06T13:27:08Z</time></trkpt><trkpt lat="43.18321507938143" lon="0.3523231177138699"><ele>501.99999999999994</ele><time>2026-05-06T13:27:11Z</time></trkpt><trkpt lat="43.18316697168563" lon="0.3523979786001891"><ele>501.99999999999994</ele><time>2026-05-06T13:27:15Z</time></trkpt><trkpt lat="43.1831421742059" lon="0.35248711467008975"><ele>502.0</ele><time>2026-05-06T13:27:18Z</time></trkpt><trkpt lat="43.18316296706279" lon="0.352570868903809"><ele>501.99999999999994</ele><time>2026-05-06T13:27:21Z</time></trkpt><trkpt lat="43.18319344768444" lon="0.3526763752256264"><ele>501.99999999999994</ele><time>2026-05-06T13:27:24Z</time></trkpt><trkpt lat="43.18323301120247" lon="0.3527844925838423"><ele>502.00000000000006</ele><time>2026-05-06T13:27:28Z</time></trkpt><trkpt lat="43.18327070557053" lon="0.3528698421309941"><ele>502.0</ele><time>2026-05-06T13:27:32Z</time></trkpt><trkpt lat="43.183314526922345" lon="0.35295007875605106"><ele>502.0</ele><time>2026-05-06T13:27:35Z</time></trkpt><trkpt lat="43.183362306329094" lon="0.35303507115141164"><ele>502.0</ele><time>2026-05-06T13:27:39Z</time></trkpt><trkpt lat="43.183412140856966" lon="0.353118575647587"><ele>502.00000000000006</ele><time>2026-05-06T13:27:42Z</time></trkpt><trkpt lat="43.183461596733096" lon="0.3532030053999154"><ele>502.0</ele><time>2026-05-06T13:27:46Z</time></trkpt><trkpt lat="43.18351188230714" lon="0.3532913996563699"><ele>503.2857142857142</ele><time>2026-05-06T13:27:49Z</time></trkpt><trkpt lat="43.183559976724275" lon="0.35337090411972205"><ele>504.57142857142856</ele><time>2026-05-06T13:27:53Z</time></trkpt><trkpt lat="43.18361355138967" lon="0.35346056956874083"><ele>505.85714285714283</ele><time>2026-05-06T13:27:56Z</time></trkpt><trkpt lat="43.18365727517824" lon="0.35353666625542296"><ele>507.1428571428571</ele><time>2026-05-06T13:28:00.001Z</time></trkpt><trkpt lat="43.18369438362495" lon="0.3536128306434157"><ele>508.42857142857144</ele><time>2026-05-06T13:28:03.001Z</time></trkpt><trkpt lat="43.18372361183255" lon="0.35370029536536735"><ele>509.7142857142857</ele><time>2026-05-06T13:28:06.001Z</time></trkpt><trkpt lat="43.183748105989224" lon="0.35380001437389336"><ele>511.0</ele><time>2026-05-06T13:28:10.001Z</time></trkpt><trkpt lat="43.183755644941996" lon="0.3539055695722366"><ele>512.1666666666667</ele><time>2026-05-06T13:28:13.001Z</time></trkpt><trkpt lat="43.18375247853365" lon="0.35399811371114126"><ele>513.3333333333334</ele><time>2026-05-06T13:28:17.001Z</time></trkpt><trkpt lat="43.1837515609202" lon="0.3540890848901478"><ele>514.5</ele><time>2026-05-06T13:28:20.001Z</time></trkpt><trkpt lat="43.183739299693784" lon="0.3541937586122056"><ele>515.6666666666666</ele><time>2026-05-06T13:28:23.001Z</time></trkpt><trkpt lat="43.183728937409064" lon="0.35430807099969264"><ele>516.8333333333333</ele><time>2026-05-06T13:28:27.001Z</time></trkpt><trkpt lat="43.183724166711826" lon="0.35442794551566326"><ele>518.0</ele><time>2026-05-06T13:28:31.001Z</time></trkpt><trkpt lat="43.18371209694334" lon="0.3545241653137563"><ele>518.0</ele><time>2026-05-06T13:28:35.001Z</time></trkpt><trkpt lat="43.183703965281495" lon="0.35462740903708784"><ele>518.0</ele><time>2026-05-06T13:28:38.001Z</time></trkpt><trkpt lat="43.18369767243536" lon="0.35475540282672985"><ele>518.0</ele><time>2026-05-06T13:28:42.001Z</time></trkpt><trkpt lat="43.18372253370523" lon="0.3548613743014314"><ele>518.0</ele><time>2026-05-06T13:28:46.001Z</time></trkpt><trkpt lat="43.18376821006682" lon="0.3549525461274572"><ele>518.0</ele><time>2026-05-06T13:28:49.001Z</time></trkpt><trkpt lat="43.1838357851511" lon="0.35502194116085867"><ele>518.0</ele><time>2026-05-06T13:28:53.001Z</time></trkpt><trkpt lat="43.18391483171002" lon="0.3550496972331421"><ele>518.2857142857143</ele><time>2026-05-06T13:28:56.001Z</time></trkpt><trkpt lat="43.183981525218066" lon="0.35506699880577014"><ele>518.5714285714286</ele><time>2026-05-06T13:28:59.001Z</time></trkpt><trkpt lat="43.18404632847153" lon="0.35509429515285457"><ele>518.8571428571429</ele><time>2026-05-06T13:29:02.001Z</time></trkpt><trkpt lat="43.18411971964828" lon="0.35511587821984886"><ele>519.1428571428571</ele><time>2026-05-06T13:29:05.001Z</time></trkpt><trkpt lat="43.18417580595231" lon="0.3551782005131702"><ele>519.4285714285714</ele><time>2026-05-06T13:29:08.001Z</time></trkpt><trkpt lat="43.18421849636437" lon="0.3552573845583464"><ele>519.7142857142858</ele><time>2026-05-06T13:29:11.001Z</time></trkpt><trkpt lat="43.18423599002831" lon="0.3553825035857743"><ele>520.0</ele><time>2026-05-06T13:29:14.001Z</time></trkpt><trkpt lat="43.184254396862194" lon="0.3554736827115781"><ele>520.6666666666667</ele><time>2026-05-06T13:29:16.001Z</time></trkpt><trkpt lat="43.184259547555776" lon="0.35558089609788535"><ele>521.3333333333334</ele><time>2026-05-06T13:29:19.001Z</time></trkpt><trkpt lat="43.184256503783395" lon="0.3556817514979681"><ele>522.0</ele><time>2026-05-06T13:29:22.001Z</time></trkpt><trkpt lat="43.18425078090678" lon="0.3557907898120533"><ele>522.6666666666666</ele><time>2026-05-06T13:29:25.001Z</time></trkpt><trkpt lat="43.1842468808583" lon="0.35588209170168494"><ele>523.3333333333333</ele><time>2026-05-06T13:29:27.001Z</time></trkpt><trkpt lat="43.18423566243025" lon="0.3560100706529487"><ele>524.0</ele><time>2026-05-06T13:29:30.001Z</time></trkpt><trkpt lat="43.18423263948062" lon="0.3561381300453906"><ele>524.0</ele><time>2026-05-06T13:29:33.001Z</time></trkpt><trkpt lat="43.18423557401206" lon="0.35625325636049276"><ele>524.0</ele><time>2026-05-06T13:29:36.001Z</time></trkpt><trkpt lat="43.18427697112576" lon="0.3563751650080648"><ele>524.0</ele><time>2026-05-06T13:29:39.001Z</time></trkpt><trkpt lat="43.18433269317747" lon="0.35645552040595235"><ele>524.0</ele><time>2026-05-06T13:29:41.001Z</time></trkpt><trkpt lat="43.18438024899961" lon="0.3565339971046482"><ele>524.0</ele><time>2026-05-06T13:29:43.001Z</time></trkpt><trkpt lat="43.18442239730777" lon="0.35661629928010546"><ele>524.0</ele><time>2026-05-06T13:29:45.001Z</time></trkpt><trkpt lat="43.18446926967034" lon="0.35670778768775746"><ele>524.2</ele><time>2026-05-06T13:29:47.001Z</time></trkpt><trkpt lat="43.184512813442645" lon="0.3568078589514395"><ele>524.4</ele><time>2026-05-06T13:29:49.001Z</time></trkpt><trkpt lat="43.18455726399781" lon="0.35691216574898255"><ele>524.6</ele><time>2026-05-06T13:29:51.001Z</time></trkpt><trkpt lat="43.1846098198749" lon="0.3570100894988285"><ele>524.8</ele><time>2026-05-06T13:29:53.001Z</time></trkpt><trkpt lat="43.18466824033901" lon="0.35710661199462823"><ele>525.0</ele><time>2026-05-06T13:29:55.001Z</time></trkpt><trkpt lat="43.18475547834154" lon="0.3571682837037174"><ele>524.5</ele><time>2026-05-06T13:29:57.001Z</time></trkpt><trkpt lat="43.184840241729546" lon="0.35721646921082933"><ele>524.0</ele><time>2026-05-06T13:29:59.001Z</time></trkpt><trkpt lat="43.1849237880758" lon="0.35724277646581754"><ele>523.5</ele><time>2026-05-06T13:30:01.001Z</time></trkpt><trkpt lat="43.18500311296613" lon="0.35727658860859857"><ele>523.0</ele><time>2026-05-06T13:30:03.001Z</time></trkpt><trkpt lat="43.185085604622294" lon="0.35729885441114706"><ele>522.5</ele><time>2026-05-06T13:30:05.001Z</time></trkpt><trkpt lat="43.18515228086058" lon="0.3573055005545259"><ele>522.0</ele><time>2026-05-06T13:30:07.001Z</time></trkpt><trkpt lat="43.18522468536383" lon="0.35734350952814814"><ele>522.0</ele><time>2026-05-06T13:30:10.001Z</time></trkpt><trkpt lat="43.18530200268331" lon="0.3573392837095252"><ele>522.0</ele><time>2026-05-06T13:32:04Z</time></trkpt><trkpt lat="43.18538145003188" lon="0.3573401850395009"><ele>522.0</ele><time>2026-05-06T13:32:07Z</time></trkpt><trkpt lat="43.18546169673136" lon="0.35734475988890074"><ele>522.0</ele><time>2026-05-06T13:32:10Z</time></trkpt><trkpt lat="43.185525477240084" lon="0.3573466408920228"><ele>522.0</ele><time>2026-05-06T13:32:12Z</time></trkpt><trkpt lat="43.185588635150964" lon="0.3573435231462628"><ele>522.0</ele><time>2026-05-06T13:32:14Z</time></trkpt><trkpt lat="43.18565589704198" lon="0.3573433101812231"><ele>522.0</ele><time>2026-05-06T13:32:16Z</time></trkpt><trkpt lat="43.18573278265889" lon="0.35733909722014423"><ele>522.0</ele><time>2026-05-06T13:32:18Z</time></trkpt><trkpt lat="43.185811184805814" lon="0.35733518182233964"><ele>522.0</ele><time>2026-05-06T13:32:20Z</time></trkpt><trkpt lat="43.18588498247327" lon="0.3573307773646848"><ele>522.0</ele><time>2026-05-06T13:32:22Z</time></trkpt><trkpt lat="43.18595906573894" lon="0.3573284754224052"><ele>522.0</ele><time>2026-05-06T13:32:24Z</time></trkpt><trkpt lat="43.186036794471725" lon="0.35732355271353666"><ele>522.0</ele><time>2026-05-06T13:32:26Z</time></trkpt><trkpt lat="43.186115216615015" lon="0.3573161303006014"><ele>522.0</ele><time>2026-05-06T13:32:28Z</time></trkpt><trkpt lat="43.18619934231884" lon="0.35731432310353445"><ele>522.0</ele><time>2026-05-06T13:32:30Z</time></trkpt><trkpt lat="43.18628541308477" lon="0.35729718551304146"><ele>522.0</ele><time>2026-05-06T13:32:32Z</time></trkpt><trkpt lat="43.18637070471818" lon="0.3572914443570332"><ele>522.0</ele><time>2026-05-06T13:32:34Z</time></trkpt><trkpt lat="43.18645770067355" lon="0.35728487773821643"><ele>522.0</ele><time>2026-05-06T13:32:36Z</time></trkpt><trkpt lat="43.1865386138831" lon="0.3572662764898292"><ele>522.0</ele><time>2026-05-06T13:32:38Z</time></trkpt><trkpt lat="43.18661409072857" lon="0.3572462905280085"><ele>522.0</ele><time>2026-05-06T13:32:40Z</time></trkpt><trkpt lat="43.18669270386623" lon="0.3572280906711349"><ele>522.0</ele><time>2026-05-06T13:32:42Z</time></trkpt><trkpt lat="43.18677012496334" lon="0.35720804066649586"><ele>522.0</ele><time>2026-05-06T13:32:44Z</time></trkpt><trkpt lat="43.186850730117705" lon="0.3571790969551799"><ele>522.0</ele><time>2026-05-06T13:32:46Z</time></trkpt><trkpt lat="43.18693272004431" lon="0.35714956609556836"><ele>522.0</ele><time>2026-05-06T13:32:48Z</time></trkpt><trkpt lat="43.18700617772061" lon="0.35711469081627234"><ele>522.0</ele><time>2026-05-06T13:32:50Z</time></trkpt><trkpt lat="43.18708242267505" lon="0.35706540870276143"><ele>522.0</ele><time>2026-05-06T13:32:52Z</time></trkpt><trkpt lat="43.18715355105535" lon="0.35701623248291187"><ele>521.8333333333334</ele><time>2026-05-06T13:32:54Z</time></trkpt><trkpt lat="43.187235217223915" lon="0.3569679511531785"><ele>521.6666666666666</ele><time>2026-05-06T13:32:56Z</time></trkpt><trkpt lat="43.187310614969064" lon="0.35691304771438387"><ele>521.5</ele><time>2026-05-06T13:32:58.001Z</time></trkpt><trkpt lat="43.187382825382215" lon="0.35689586500344406"><ele>521.3333333333333</ele><time>2026-05-06T13:33:01.001Z</time></trkpt><trkpt lat="43.18746572031338" lon="0.35685833233319453"><ele>521.1666666666666</ele><time>2026-05-06T13:33:03.001Z</time></trkpt><trkpt lat="43.187534178770164" lon="0.3568150732855608"><ele>521.0</ele><time>2026-05-06T13:33:04.001Z</time></trkpt><trkpt lat="43.18763403730593" lon="0.35676228891328127"><ele>521.0</ele><time>2026-05-06T13:33:06.001Z</time></trkpt><trkpt lat="43.18778775465782" lon="0.35668338608851985"><ele>521.0</ele><time>2026-05-06T13:33:08.001Z</time></trkpt><trkpt lat="43.18790760746342" lon="0.3566379304982238"><ele>521.0</ele><time>2026-05-06T13:33:10.001Z</time></trkpt><trkpt lat="43.187972590557855" lon="0.3566156967424952"><ele>521.0</ele><time>2026-05-06T13:33:11.001Z</time></trkpt><trkpt lat="43.18809435584001" lon="0.356584227132025"><ele>520.4</ele><time>2026-05-06T13:33:13.001Z</time></trkpt><trkpt lat="43.18821521274192" lon="0.35654143149203454"><ele>519.8</ele><time>2026-05-06T13:33:15.001Z</time></trkpt><trkpt lat="43.18828188535462" lon="0.35651822503707564"><ele>519.1999999999999</ele><time>2026-05-06T13:33:16.001Z</time></trkpt><trkpt lat="43.188405872086584" lon="0.3564932507817292"><ele>518.6</ele><time>2026-05-06T13:33:18.001Z</time></trkpt><trkpt lat="43.1885255883347" lon="0.3564731768878143"><ele>518.0</ele><time>2026-05-06T13:33:20Z</time></trkpt><trkpt lat="43.18864256293267" lon="0.35645717161730395"><ele>518.0</ele><time>2026-05-06T13:33:22Z</time></trkpt><trkpt lat="43.18876429700829" lon="0.3564460036160139"><ele>518.0</ele><time>2026-05-06T13:33:24Z</time></trkpt><trkpt lat="43.18882926736148" lon="0.356440384811222"><ele>518.0</ele><time>2026-05-06T13:33:25Z</time></trkpt><trkpt lat="43.18889546155486" lon="0.3564287709620013"><ele>518.0</ele><time>2026-05-06T13:33:26Z</time></trkpt><trkpt lat="43.18901946614691" lon="0.3564534656793093"><ele>518.0</ele><time>2026-05-06T13:33:28Z</time></trkpt><trkpt lat="43.189132886243385" lon="0.3564859386749592"><ele>518.0</ele><time>2026-05-06T13:33:30Z</time></trkpt><trkpt lat="43.189249772758785" lon="0.3565444988232536"><ele>518.0</ele><time>2026-05-06T13:33:32Z</time></trkpt><trkpt lat="43.18936023414711" lon="0.3565891885317953"><ele>518.0</ele><time>2026-05-06T13:33:34Z</time></trkpt><trkpt lat="43.18947453014928" lon="0.35664719136675993"><ele>518.0</ele><time>2026-05-06T13:33:36Z</time></trkpt><trkpt lat="43.18959129604006" lon="0.3567060631053858"><ele>518.0</ele><time>2026-05-06T13:33:38Z</time></trkpt><trkpt lat="43.18965245503642" lon="0.35673334648786725"><ele>518.0</ele><time>2026-05-06T13:33:39Z</time></trkpt><trkpt lat="43.18971346982279" lon="0.35675864119816275"><ele>518.0</ele><time>2026-05-06T13:33:40Z</time></trkpt><trkpt lat="43.189797464220774" lon="0.35682723522648946"><ele>518.0</ele><time>2026-05-06T13:33:42Z</time></trkpt><trkpt lat="43.18989115322707" lon="0.35681879616387635"><ele>518.0</ele><time>2026-05-06T13:33:46Z</time></trkpt><trkpt lat="43.18998518443353" lon="0.3568341310655881"><ele>518.0</ele><time>2026-05-06T13:33:48Z</time></trkpt><trkpt lat="43.19009015253031" lon="0.35685142113537166"><ele>517.8333333333333</ele><time>2026-05-06T13:33:50Z</time></trkpt><trkpt lat="43.19021393279814" lon="0.35685811867488026"><ele>517.6666666666666</ele><time>2026-05-06T13:33:52Z</time></trkpt><trkpt lat="43.19027703609515" lon="0.3568569122360173"><ele>517.5</ele><time>2026-05-06T13:33:53Z</time></trkpt><trkpt lat="43.19040406514959" lon="0.35684957215385943"><ele>517.3333333333334</ele><time>2026-05-06T13:33:55Z</time></trkpt><trkpt lat="43.19046899368604" lon="0.3568579317433695"><ele>517.1666666666667</ele><time>2026-05-06T13:33:56Z</time></trkpt><trkpt lat="43.19053598986241" lon="0.3568653428466337"><ele>517.0</ele><time>2026-05-06T13:33:57Z</time></trkpt><trkpt lat="43.19060410442057" lon="0.3568613836695729"><ele>517.0</ele><time>2026-05-06T13:33:58Z</time></trkpt><trkpt lat="43.190672507055595" lon="0.35686046418828477"><ele>517.0</ele><time>2026-05-06T13:33:59Z</time></trkpt><trkpt lat="43.190744696151434" lon="0.35685979376360094"><ele>517.0</ele><time>2026-05-06T13:34:00Z</time></trkpt><trkpt lat="43.19081831629399" lon="0.3568581066837866"><ele>517.0</ele><time>2026-05-06T13:34:01Z</time></trkpt><trkpt lat="43.190890463177055" lon="0.3568900534086523"><ele>517.0</ele><time>2026-05-06T13:34:02Z</time></trkpt><trkpt lat="43.19095422457455" lon="0.3569456700930541"><ele>517.0</ele><time>2026-05-06T13:34:03Z</time></trkpt><trkpt lat="43.19100040082205" lon="0.3570234372843428"><ele>517.0</ele><time>2026-05-06T13:34:04Z</time></trkpt><trkpt lat="43.191022608305296" lon="0.3571138168348638"><ele>516.6</ele><time>2026-05-06T13:34:05Z</time></trkpt><trkpt lat="43.1910264394165" lon="0.35720832826978555"><ele>516.2</ele><time>2026-05-06T13:34:06Z</time></trkpt><trkpt lat="43.19104997251658" lon="0.3573666975237702"><ele>515.8</ele><time>2026-05-06T13:34:08Z</time></trkpt><trkpt lat="43.19107262605179" lon="0.3575170029967185"><ele>515.4</ele><time>2026-05-06T13:34:10Z</time></trkpt><trkpt lat="43.19109749175768" lon="0.35766030289634143"><ele>515.0</ele><time>2026-05-06T13:34:12Z</time></trkpt><trkpt lat="43.19112569764437" lon="0.35780007518573814"><ele>515.0</ele><time>2026-05-06T13:34:14Z</time></trkpt><trkpt lat="43.19114920949523" lon="0.3579473772406479"><ele>515.0</ele><time>2026-05-06T13:34:16Z</time></trkpt><trkpt lat="43.191170984951704" lon="0.3580846551674428"><ele>515.0</ele><time>2026-05-06T13:34:18Z</time></trkpt><trkpt lat="43.19119311116783" lon="0.3582277519603636"><ele>515.0</ele><time>2026-05-06T13:34:20Z</time></trkpt><trkpt lat="43.1912222060505" lon="0.3583708285178179"><ele>515.0</ele><time>2026-05-06T13:34:22Z</time></trkpt><trkpt lat="43.19125237497928" lon="0.3585203838793928"><ele>515.0</ele><time>2026-05-06T13:34:24Z</time></trkpt><trkpt lat="43.1912809859026" lon="0.35867955604736335"><ele>515.0</ele><time>2026-05-06T13:34:26Z</time></trkpt><trkpt lat="43.191312306858855" lon="0.3588283273954557"><ele>515.0</ele><time>2026-05-06T13:34:28Z</time></trkpt><trkpt lat="43.19133915303045" lon="0.35899683452409287"><ele>515.0</ele><time>2026-05-06T13:34:30Z</time></trkpt><trkpt lat="43.19136712807852" lon="0.35916586187170696"><ele>515.0</ele><time>2026-05-06T13:34:32Z</time></trkpt><trkpt lat="43.191384531334734" lon="0.35925846201091377"><ele>515.0</ele><time>2026-05-06T13:34:33Z</time></trkpt><trkpt lat="43.19140732187879" lon="0.3593515955945372"><ele>515.0</ele><time>2026-05-06T13:34:34Z</time></trkpt><trkpt lat="43.19142451504514" lon="0.3594447438580837"><ele>515.0</ele><time>2026-05-06T13:34:35Z</time></trkpt><trkpt lat="43.19143997154536" lon="0.35954610345653554"><ele>515.0</ele><time>2026-05-06T13:34:36Z</time></trkpt><trkpt lat="43.191456220983426" lon="0.359641548556026"><ele>515.0</ele><time>2026-05-06T13:34:37Z</time></trkpt><trkpt lat="43.191474052423246" lon="0.3597434446871283"><ele>515.0</ele><time>2026-05-06T13:34:38Z</time></trkpt><trkpt lat="43.19149334029031" lon="0.35984173643594286"><ele>514.8333333333333</ele><time>2026-05-06T13:34:39Z</time></trkpt><trkpt lat="43.19151549986615" lon="0.35993911836029924"><ele>514.6666666666666</ele><time>2026-05-06T13:34:40Z</time></trkpt><trkpt lat="43.191535174335186" lon="0.3600395209882202"><ele>514.5</ele><time>2026-05-06T13:34:41Z</time></trkpt><trkpt lat="43.19155454071129" lon="0.36014059009465554"><ele>514.3333333333334</ele><time>2026-05-06T13:34:42Z</time></trkpt><trkpt lat="43.191569437593905" lon="0.36024530983388864"><ele>514.1666666666667</ele><time>2026-05-06T13:34:43Z</time></trkpt><trkpt lat="43.191590338350885" lon="0.3603515993141918"><ele>514.0</ele><time>2026-05-06T13:34:44Z</time></trkpt><trkpt lat="43.191609389920444" lon="0.36045605093090494"><ele>513.3333333333334</ele><time>2026-05-06T13:34:45Z</time></trkpt><trkpt lat="43.19163069831045" lon="0.3605635880034266"><ele>512.6666666666667</ele><time>2026-05-06T13:34:46Z</time></trkpt><trkpt lat="43.191654915632455" lon="0.36067646417393345"><ele>512.0</ele><time>2026-05-06T13:34:47Z</time></trkpt><trkpt lat="43.19165464755564" lon="0.360794386710925"><ele>511.33333333333337</ele><time>2026-05-06T13:34:48Z</time></trkpt><trkpt lat="43.191674779125414" lon="0.36090929878720746"><ele>510.6666666666667</ele><time>2026-05-06T13:34:49Z</time></trkpt><trkpt lat="43.1916957801831" lon="0.36102623742673273"><ele>510.0</ele><time>2026-05-06T13:34:50Z</time></trkpt><trkpt lat="43.19171702135381" lon="0.3611445130945776"><ele>510.0</ele><time>2026-05-06T13:34:51Z</time></trkpt><trkpt lat="43.19173845840523" lon="0.36126387939919646"><ele>510.0</ele><time>2026-05-06T13:34:52Z</time></trkpt><trkpt lat="43.19175984150249" lon="0.3613829453840225"><ele>510.0</ele><time>2026-05-06T13:34:53Z</time></trkpt><trkpt lat="43.1917807728637" lon="0.3615053053416481"><ele>510.0</ele><time>2026-05-06T13:34:54Z</time></trkpt><trkpt lat="43.191801328805084" lon="0.3616284969398279"><ele>510.0</ele><time>2026-05-06T13:34:55Z</time></trkpt><trkpt lat="43.19182200139026" lon="0.3617523877301944"><ele>509.0</ele><time>2026-05-06T13:34:56Z</time></trkpt><trkpt lat="43.19184394259516" lon="0.36188131330269174"><ele>508.0</ele><time>2026-05-06T13:34:57Z</time></trkpt><trkpt lat="43.191866977934765" lon="0.36200849531102636"><ele>507.0</ele><time>2026-05-06T13:34:58Z</time></trkpt><trkpt lat="43.19188950862664" lon="0.3621328909822031"><ele>506.0</ele><time>2026-05-06T13:34:59Z</time></trkpt><trkpt lat="43.19191073063666" lon="0.36225493923258306"><ele>505.0</ele><time>2026-05-06T13:35:00Z</time></trkpt><trkpt lat="43.19192895637896" lon="0.362379067578842"><ele>504.2</ele><time>2026-05-06T13:35:01Z</time></trkpt><trkpt lat="43.191944573905396" lon="0.3625028815275713"><ele>503.4</ele><time>2026-05-06T13:35:02Z</time></trkpt><trkpt lat="43.19196591059845" lon="0.36262477330559845"><ele>502.6</ele><time>2026-05-06T13:35:03Z</time></trkpt><trkpt lat="43.191940571815586" lon="0.362751323167152"><ele>501.8</ele><time>2026-05-06T13:35:04Z</time></trkpt><trkpt lat="43.19194302536723" lon="0.36288648961965975"><ele>501.0</ele><time>2026-05-06T13:35:05Z</time></trkpt><trkpt lat="43.19190493744551" lon="0.3630136496868523"><ele>501.0</ele><time>2026-05-06T13:35:06Z</time></trkpt><trkpt lat="43.191877698687925" lon="0.36314675622312637"><ele>501.0</ele><time>2026-05-06T13:35:07Z</time></trkpt><trkpt lat="43.19186003744332" lon="0.3632846938969868"><ele>501.0</ele><time>2026-05-06T13:35:08Z</time></trkpt><trkpt lat="43.19181722885454" lon="0.36341979863125123"><ele>501.0</ele><time>2026-05-06T13:35:09Z</time></trkpt><trkpt lat="43.19179873053247" lon="0.3635684414705363"><ele>501.0</ele><time>2026-05-06T13:35:10Z</time></trkpt><trkpt lat="43.19175899925384" lon="0.36370748359973465"><ele>501.0</ele><time>2026-05-06T13:35:11Z</time></trkpt><trkpt lat="43.19171778273047" lon="0.36385636125895543"><ele>501.0</ele><time>2026-05-06T13:35:12Z</time></trkpt><trkpt lat="43.19168429849429" lon="0.3640049263848334"><ele>501.0</ele><time>2026-05-06T13:35:13Z</time></trkpt><trkpt lat="43.19165005994349" lon="0.36415695098490036"><ele>501.0</ele><time>2026-05-06T13:35:14Z</time></trkpt><trkpt lat="43.19161551801952" lon="0.36431032215248027"><ele>501.25</ele><time>2026-05-06T13:35:15Z</time></trkpt><trkpt lat="43.1915805713179" lon="0.36446626107334157"><ele>501.5</ele><time>2026-05-06T13:35:16Z</time></trkpt><trkpt lat="43.191548209103296" lon="0.364618328030615"><ele>501.75</ele><time>2026-05-06T13:35:17Z</time></trkpt><trkpt lat="43.191514717552074" lon="0.36477927077905564"><ele>502.0</ele><time>2026-05-06T13:35:18Z</time></trkpt><trkpt lat="43.191483034603344" lon="0.36493624536061714"><ele>497.75</ele><time>2026-05-06T13:35:19Z</time></trkpt><trkpt lat="43.19145182320759" lon="0.36509602311012984"><ele>493.5</ele><time>2026-05-06T13:35:20Z</time></trkpt><trkpt lat="43.191437287046604" lon="0.3652625309546313"><ele>489.25</ele><time>2026-05-06T13:35:21Z</time></trkpt><trkpt lat="43.19140784599293" lon="0.3654266676591711"><ele>485.0</ele><time>2026-05-06T13:35:22Z</time></trkpt><trkpt lat="43.191379211121614" lon="0.36559129977790256"><ele>484.5</ele><time>2026-05-06T13:35:23Z</time></trkpt><trkpt lat="43.19135646683474" lon="0.3657570231774046"><ele>484.0</ele><time>2026-05-06T13:35:24Z</time></trkpt><trkpt lat="43.19133315622493" lon="0.36592324650569497"><ele>483.5</ele><time>2026-05-06T13:35:25Z</time></trkpt><trkpt lat="43.19129479566875" lon="0.36609169173432665"><ele>483.0</ele><time>2026-05-06T13:35:26Z</time></trkpt><trkpt lat="43.191290336706984" lon="0.366274539780016"><ele>482.25</ele><time>2026-05-06T13:35:27Z</time></trkpt><trkpt lat="43.19127208370917" lon="0.3664436780733308"><ele>481.5</ele><time>2026-05-06T13:35:28Z</time></trkpt><trkpt lat="43.191260286788236" lon="0.3666157589840605"><ele>480.75</ele><time>2026-05-06T13:35:29Z</time></trkpt><trkpt lat="43.19125905928717" lon="0.366789175630778"><ele>480.0</ele><time>2026-05-06T13:35:30Z</time></trkpt><trkpt lat="43.19126437121238" lon="0.3669597498933369"><ele>480.0</ele><time>2026-05-06T13:35:31Z</time></trkpt><trkpt lat="43.191301187817665" lon="0.36713478630194035"><ele>480.0</ele><time>2026-05-06T13:35:32Z</time></trkpt><trkpt lat="43.19135851004172" lon="0.36728557711923565"><ele>480.0</ele><time>2026-05-06T13:35:33Z</time></trkpt><trkpt lat="43.19145016561954" lon="0.36739493651485866"><ele>480.0</ele><time>2026-05-06T13:35:34Z</time></trkpt><trkpt lat="43.191558715605375" lon="0.36747575873336946"><ele>482.25</ele><time>2026-05-06T13:35:35Z</time></trkpt><trkpt lat="43.19167790268663" lon="0.36750775889321124"><ele>484.5</ele><time>2026-05-06T13:35:36Z</time></trkpt><trkpt lat="43.19179808708642" lon="0.36752535265184616"><ele>486.75</ele><time>2026-05-06T13:35:37Z</time></trkpt><trkpt lat="43.19191328981344" lon="0.3675363439621227"><ele>489.0</ele><time>2026-05-06T13:35:38Z</time></trkpt><trkpt lat="43.19202979785641" lon="0.3675289106092425"><ele>489.0</ele><time>2026-05-06T13:35:39Z</time></trkpt><trkpt lat="43.192149454658576" lon="0.36750403845903057"><ele>489.0</ele><time>2026-05-06T13:35:40Z</time></trkpt><trkpt lat="43.19226031115529" lon="0.3674643213963984"><ele>489.0</ele><time>2026-05-06T13:35:41Z</time></trkpt><trkpt lat="43.192366953261974" lon="0.36740300072680143"><ele>489.0</ele><time>2026-05-06T13:35:42Z</time></trkpt><trkpt lat="43.19246876161359" lon="0.36733158370717445"><ele>488.25</ele><time>2026-05-06T13:35:43Z</time></trkpt><trkpt lat="43.192563476345164" lon="0.3672456795831472"><ele>487.5</ele><time>2026-05-06T13:35:44Z</time></trkpt><trkpt lat="43.19265468494833" lon="0.36715202697969057"><ele>486.75</ele><time>2026-05-06T13:35:45Z</time></trkpt><trkpt lat="43.19274132464727" lon="0.3670397874860428"><ele>486.0</ele><time>2026-05-06T13:35:46Z</time></trkpt><trkpt lat="43.19282349917491" lon="0.36691827281479894"><ele>486.0</ele><time>2026-05-06T13:35:47Z</time></trkpt><trkpt lat="43.192898416436954" lon="0.36679467421094103"><ele>486.0</ele><time>2026-05-06T13:35:48Z</time></trkpt><trkpt lat="43.192994078622185" lon="0.3666942969818413"><ele>486.0</ele><time>2026-05-06T13:35:49Z</time></trkpt><trkpt lat="43.193086455997246" lon="0.36659567107071483"><ele>486.0</ele><time>2026-05-06T13:35:50Z</time></trkpt><trkpt lat="43.193186664305514" lon="0.3665162632719449"><ele>483.75</ele><time>2026-05-06T13:35:51Z</time></trkpt><trkpt lat="43.19329873264911" lon="0.36647018095734585"><ele>481.5</ele><time>2026-05-06T13:35:52Z</time></trkpt><trkpt lat="43.19341802970473" lon="0.36645801187070765"><ele>479.25</ele><time>2026-05-06T13:35:53Z</time></trkpt><trkpt lat="43.19353233195519" lon="0.36649566141678275"><ele>477.0</ele><time>2026-05-06T13:35:54Z</time></trkpt><trkpt lat="43.19362843531847" lon="0.3665887023939369"><ele>477.0</ele><time>2026-05-06T13:35:55Z</time></trkpt><trkpt lat="43.193695135024996" lon="0.3667194612041458"><ele>477.0</ele><time>2026-05-06T13:35:56Z</time></trkpt><trkpt lat="43.19372598187457" lon="0.3668713964527936"><ele>477.0</ele><time>2026-05-06T13:35:57Z</time></trkpt><trkpt lat="43.19372044903573" lon="0.36702144343511967"><ele>477.0</ele><time>2026-05-06T13:35:58Z</time></trkpt><trkpt lat="43.19370657439314" lon="0.36717622397267274"><ele>475.5</ele><time>2026-05-06T13:35:59Z</time></trkpt><trkpt lat="43.19369594877835" lon="0.3673356881908119"><ele>474.0</ele><time>2026-05-06T13:36:00Z</time></trkpt><trkpt lat="43.19366517777836" lon="0.3674905832650902"><ele>472.5</ele><time>2026-05-06T13:36:01Z</time></trkpt><trkpt lat="43.19363714480648" lon="0.36764610958086164"><ele>471.0</ele><time>2026-05-06T13:36:02Z</time></trkpt><trkpt lat="43.193606359783615" lon="0.3677989392273351"><ele>471.0</ele><time>2026-05-06T13:36:03Z</time></trkpt><trkpt lat="43.19357984198099" lon="0.3679572349898462"><ele>471.0</ele><time>2026-05-06T13:36:04Z</time></trkpt><trkpt lat="43.19355389295162" lon="0.3681170905675825"><ele>471.0</ele><time>2026-05-06T13:36:05Z</time></trkpt><trkpt lat="43.19352785391815" lon="0.368278708087644"><ele>471.0</ele><time>2026-05-06T13:36:06Z</time></trkpt><trkpt lat="43.19349920196456" lon="0.36844125401908384"><ele>470.25</ele><time>2026-05-06T13:36:07Z</time></trkpt><trkpt lat="43.193474946921214" lon="0.3686060501556296"><ele>469.5</ele><time>2026-05-06T13:36:08Z</time></trkpt><trkpt lat="43.193454312438796" lon="0.36877074398292975"><ele>468.75</ele><time>2026-05-06T13:36:09Z</time></trkpt><trkpt lat="43.193432525442894" lon="0.3689371729415287"><ele>468.0</ele><time>2026-05-06T13:36:10Z</time></trkpt><trkpt lat="43.19341236769784" lon="0.3691072456506834"><ele>467.0</ele><time>2026-05-06T13:36:11Z</time></trkpt><trkpt lat="43.19339134765867" lon="0.3692768175205608"><ele>466.0</ele><time>2026-05-06T13:36:12Z</time></trkpt><trkpt lat="43.193368836782604" lon="0.36944954996745766"><ele>465.0</ele><time>2026-05-06T13:36:13Z</time></trkpt><trkpt lat="43.19335109298708" lon="0.3696228920575545"><ele>464.0</ele><time>2026-05-06T13:36:14Z</time></trkpt><trkpt lat="43.19333341815905" lon="0.3697984862044435"><ele>463.25</ele><time>2026-05-06T13:36:15Z</time></trkpt><trkpt lat="43.19332777571008" lon="0.3699748450453181"><ele>462.5</ele><time>2026-05-06T13:36:16Z</time></trkpt><trkpt lat="43.19333169461698" lon="0.37015366063104677"><ele>461.75</ele><time>2026-05-06T13:36:17Z</time></trkpt><trkpt lat="43.19334897513382" lon="0.3703352993421411"><ele>461.0</ele><time>2026-05-06T13:36:18Z</time></trkpt><trkpt lat="43.19337013084533" lon="0.3705145021462266"><ele>459.25</ele><time>2026-05-06T13:36:19Z</time></trkpt><trkpt lat="43.19338974807365" lon="0.37069465469680657"><ele>457.5</ele><time>2026-05-06T13:36:20Z</time></trkpt><trkpt lat="43.19341361621729" lon="0.3708757685149552"><ele>455.75</ele><time>2026-05-06T13:36:21Z</time></trkpt><trkpt lat="43.19344109605901" lon="0.3710576414901031"><ele>454.0</ele><time>2026-05-06T13:36:22Z</time></trkpt><trkpt lat="43.193475345620335" lon="0.3712343694595247"><ele>452.75</ele><time>2026-05-06T13:36:23Z</time></trkpt><trkpt lat="43.193517177184454" lon="0.3714087213450938"><ele>451.5</ele><time>2026-05-06T13:36:24Z</time></trkpt><trkpt lat="43.193568317219935" lon="0.3715785248911883"><ele>450.25</ele><time>2026-05-06T13:36:25Z</time></trkpt><trkpt lat="43.19362594248062" lon="0.37173570091152575"><ele>449.0</ele><time>2026-05-06T13:36:26Z</time></trkpt><trkpt lat="43.193702377502746" lon="0.371877327229732"><ele>449.0</ele><time>2026-05-06T13:36:27Z</time></trkpt><trkpt lat="43.19379543822466" lon="0.3720010781821003"><ele>449.0</ele><time>2026-05-06T13:36:28Z</time></trkpt><trkpt lat="43.193909661994226" lon="0.37209153094767455"><ele>449.0</ele><time>2026-05-06T13:36:29Z</time></trkpt><trkpt lat="43.19402716375694" lon="0.372164330864361"><ele>449.0</ele><time>2026-05-06T13:36:30Z</time></trkpt><trkpt lat="43.194138950140186" lon="0.37224298065517264"><ele>448.0</ele><time>2026-05-06T13:36:31Z</time></trkpt><trkpt lat="43.194251216725334" lon="0.37232262927403853"><ele>447.0</ele><time>2026-05-06T13:36:32Z</time></trkpt><trkpt lat="43.194359850835376" lon="0.37240214891094153"><ele>446.0</ele><time>2026-05-06T13:36:33Z</time></trkpt><trkpt lat="43.194460116679764" lon="0.3725007986554413"><ele>445.0</ele><time>2026-05-06T13:36:34Z</time></trkpt><trkpt lat="43.19456669790399" lon="0.3725807842430549"><ele>445.0</ele><time>2026-05-06T13:36:35Z</time></trkpt><trkpt lat="43.19467201130606" lon="0.37265981840509765"><ele>445.0</ele><time>2026-05-06T13:36:36Z</time></trkpt><trkpt lat="43.19477667935737" lon="0.372738368705805"><ele>445.0</ele><time>2026-05-06T13:36:37Z</time></trkpt><trkpt lat="43.194879017680925" lon="0.3728151700578656"><ele>445.0</ele><time>2026-05-06T13:36:38Z</time></trkpt><trkpt lat="43.1949767613416" lon="0.3728885236134727"><ele>444.83333333333337</ele><time>2026-05-06T13:36:39Z</time></trkpt><trkpt lat="43.19506721998415" lon="0.37295640990502443"><ele>444.6666666666667</ele><time>2026-05-06T13:36:40Z</time></trkpt><trkpt lat="43.19515212980481" lon="0.3730201319523556"><ele>444.5</ele><time>2026-05-06T13:36:41Z</time></trkpt><trkpt lat="43.19522687895122" lon="0.37308077245942317"><ele>444.33333333333337</ele><time>2026-05-06T13:36:42Z</time></trkpt><trkpt lat="43.19529171254063" lon="0.3731411879101314"><ele>444.1666666666667</ele><time>2026-05-06T13:36:43Z</time></trkpt><trkpt lat="43.19534881225096" lon="0.37320118664494994"><ele>444.0</ele><time>2026-05-06T13:36:44Z</time></trkpt><trkpt lat="43.19540350135212" lon="0.3732613543764623"><ele>443.5</ele><time>2026-05-06T13:36:45Z</time></trkpt><trkpt lat="43.19551184803012" lon="0.37321647714934447"><ele>443.0</ele><time>2026-05-06T13:36:46Z</time></trkpt><trkpt lat="43.19558915658553" lon="0.37321402567803585"><ele>442.5</ele><time>2026-05-06T13:36:47Z</time></trkpt><trkpt lat="43.19565655910178" lon="0.37321130280431103"><ele>442.0</ele><time>2026-05-06T13:36:48Z</time></trkpt><trkpt lat="43.19572601995788" lon="0.3732211088477271"><ele>441.5</ele><time>2026-05-06T13:36:49Z</time></trkpt><trkpt lat="43.195783072838516" lon="0.3732785561181219"><ele>441.0</ele><time>2026-05-06T13:36:50Z</time></trkpt><trkpt lat="43.19589976159384" lon="0.3733656657640227"><ele>441.0</ele><time>2026-05-06T13:36:52Z</time></trkpt><trkpt lat="43.19596530980559" lon="0.3734093801055159"><ele>441.0</ele><time>2026-05-06T13:36:53Z</time></trkpt><trkpt lat="43.19604128401696" lon="0.37343567961914165"><ele>441.0</ele><time>2026-05-06T13:36:54Z</time></trkpt><trkpt lat="43.19610823375873" lon="0.3734845552461035"><ele>441.0</ele><time>2026-05-06T13:36:55Z</time></trkpt><trkpt lat="43.19617117261551" lon="0.3735451946131837"><ele>441.0</ele><time>2026-05-06T13:36:56Z</time></trkpt><trkpt lat="43.196241954202165" lon="0.3735910396742836"><ele>441.0</ele><time>2026-05-06T13:36:57Z</time></trkpt><trkpt lat="43.19630596461499" lon="0.37363232884828385"><ele>441.0</ele><time>2026-05-06T13:36:58Z</time></trkpt><trkpt lat="43.19641027913799" lon="0.3736996157403515"><ele>441.0</ele><time>2026-05-06T13:37:00Z</time></trkpt><trkpt lat="43.19649920104147" lon="0.37375484638092815"><ele>441.0</ele><time>2026-05-06T13:37:02Z</time></trkpt><trkpt lat="43.19657697112159" lon="0.3738016831089156"><ele>441.0</ele><time>2026-05-06T13:37:04Z</time></trkpt><trkpt lat="43.19666257937012" lon="0.3738571519438968"><ele>441.0</ele><time>2026-05-06T13:37:06Z</time></trkpt><trkpt lat="43.19676008973311" lon="0.37389528569925395"><ele>439.8</ele><time>2026-05-06T13:37:08Z</time></trkpt><trkpt lat="43.1968478978445" lon="0.3739624058022637"><ele>438.6</ele><time>2026-05-06T13:37:10Z</time></trkpt><trkpt lat="43.19695166372255" lon="0.37402980535717173"><ele>437.4</ele><time>2026-05-06T13:37:12Z</time></trkpt><trkpt lat="43.19705055824606" lon="0.3740844775190325"><ele>436.2</ele><time>2026-05-06T13:37:14Z</time></trkpt><trkpt lat="43.19715720872304" lon="0.37411489051699226"><ele>435.0</ele><time>2026-05-06T13:37:16Z</time></trkpt><trkpt lat="43.197223673374396" lon="0.374111229295445"><ele>435.0</ele><time>2026-05-06T13:37:17Z</time></trkpt><trkpt lat="43.19728826631306" lon="0.3740938289439558"><ele>435.0</ele><time>2026-05-06T13:37:18Z</time></trkpt><trkpt lat="43.1973486232642" lon="0.3740661516247137"><ele>435.0</ele><time>2026-05-06T13:37:19Z</time></trkpt><trkpt lat="43.19741159212371" lon="0.37401855364637226"><ele>435.0</ele><time>2026-05-06T13:37:20Z</time></trkpt><trkpt lat="43.1974764541524" lon="0.3740120473618468"><ele>435.0</ele><time>2026-05-06T13:37:21Z</time></trkpt><trkpt lat="43.197548271300626" lon="0.37400847013153116"><ele>435.0</ele><time>2026-05-06T13:37:22Z</time></trkpt><trkpt lat="43.1976602241912" lon="0.37408997998103233"><ele>434.5</ele><time>2026-05-06T13:37:24Z</time></trkpt><trkpt lat="43.19769376336601" lon="0.3741909436931514"><ele>434.0</ele><time>2026-05-06T13:37:25Z</time></trkpt><trkpt lat="43.19771780882853" lon="0.3742828005127717"><ele>433.5</ele><time>2026-05-06T13:37:26Z</time></trkpt><trkpt lat="43.197762144598435" lon="0.37436326796632774"><ele>433.0</ele><time>2026-05-06T13:37:27Z</time></trkpt><trkpt lat="43.197847077900086" lon="0.3745033862869352"><ele>432.5</ele><time>2026-05-06T13:37:29Z</time></trkpt><trkpt lat="43.19791417270938" lon="0.3745472708049348"><ele>432.0</ele><time>2026-05-06T13:37:30Z</time></trkpt><trkpt lat="43.1979892956875" lon="0.37456586309765744"><ele>432.0</ele><time>2026-05-06T13:37:31Z</time></trkpt><trkpt lat="43.19806534722364" lon="0.37456523216832777"><ele>432.0</ele><time>2026-05-06T13:37:32Z</time></trkpt><trkpt lat="43.1981396104249" lon="0.3745361904426661"><ele>432.0</ele><time>2026-05-06T13:37:33Z</time></trkpt><trkpt lat="43.19821406868656" lon="0.3744633162356097"><ele>432.0</ele><time>2026-05-06T13:37:34Z</time></trkpt><trkpt lat="43.19828781040285" lon="0.3744027479770091"><ele>432.0</ele><time>2026-05-06T13:37:35Z</time></trkpt><trkpt lat="43.198376194603604" lon="0.3743664210370488"><ele>432.0</ele><time>2026-05-06T13:37:36Z</time></trkpt><trkpt lat="43.1984571349977" lon="0.374307898263108"><ele>431.42857142857144</ele><time>2026-05-06T13:37:37Z</time></trkpt><trkpt lat="43.19853473504034" lon="0.3742880797943516"><ele>430.85714285714283</ele><time>2026-05-06T13:37:38Z</time></trkpt><trkpt lat="43.198605293834376" lon="0.3743188539065224"><ele>430.28571428571433</ele><time>2026-05-06T13:37:39Z</time></trkpt><trkpt lat="43.19866659162187" lon="0.3743575496589161"><ele>429.7142857142857</ele><time>2026-05-06T13:37:40Z</time></trkpt><trkpt lat="43.19869896676398" lon="0.37446536383146656"><ele>429.14285714285717</ele><time>2026-05-06T13:37:41Z</time></trkpt><trkpt lat="43.198747979712635" lon="0.3745357908837951"><ele>428.5714285714286</ele><time>2026-05-06T13:37:42Z</time></trkpt><trkpt lat="43.19877920864627" lon="0.37461229397909396"><ele>428.0</ele><time>2026-05-06T13:37:43Z</time></trkpt><trkpt lat="43.19884200889341" lon="0.3747507277641718"><ele>427.4</ele><time>2026-05-06T13:37:45Z</time></trkpt><trkpt lat="43.198907686216444" lon="0.3748679164662385"><ele>426.79999999999995</ele><time>2026-05-06T13:37:47Z</time></trkpt><trkpt lat="43.19896972182196" lon="0.3749766725104324"><ele>426.2</ele><time>2026-05-06T13:37:49Z</time></trkpt><trkpt lat="43.19903557408305" lon="0.3750812802194154"><ele>425.6</ele><time>2026-05-06T13:37:51Z</time></trkpt><trkpt lat="43.199103278277555" lon="0.3751759490643833"><ele>425.0</ele><time>2026-05-06T13:37:53Z</time></trkpt><trkpt lat="43.19916611038176" lon="0.37526341769557403"><ele>424.99999999999994</ele><time>2026-05-06T13:37:55Z</time></trkpt><trkpt lat="43.19922524603292" lon="0.3753394572891672"><ele>425.0</ele><time>2026-05-06T13:37:57Z</time></trkpt><trkpt lat="43.1992802671551" lon="0.375421718607283"><ele>425.0</ele><time>2026-05-06T13:37:59Z</time></trkpt><trkpt lat="43.19933815623276" lon="0.37550675956750995"><ele>425.0</ele><time>2026-05-06T13:38:01Z</time></trkpt><trkpt lat="43.199386403351554" lon="0.3755988108886818"><ele>424.99999999999994</ele><time>2026-05-06T13:38:03Z</time></trkpt><trkpt lat="43.19943294851515" lon="0.37569305553000526"><ele>425.0</ele><time>2026-05-06T13:38:05Z</time></trkpt><trkpt lat="43.199459562124126" lon="0.37578590686510516"><ele>424.5</ele><time>2026-05-06T13:38:07Z</time></trkpt><trkpt lat="43.199504360363456" lon="0.37596890562037333"><ele>424.0</ele><time>2026-05-06T13:38:10Z</time></trkpt><trkpt lat="43.199561775665885" lon="0.3760825104724927"><ele>423.5</ele><time>2026-05-06T13:38:12Z</time></trkpt><trkpt lat="43.199575219074276" lon="0.3762475136164894"><ele>423.0</ele><time>2026-05-06T13:38:14Z</time></trkpt><trkpt lat="43.19962461295726" lon="0.3763991409032157"><ele>422.5</ele><time>2026-05-06T13:38:16Z</time></trkpt><trkpt lat="43.199681373028156" lon="0.376545813952024"><ele>422.0</ele><time>2026-05-06T13:38:18Z</time></trkpt><trkpt lat="43.19971381479738" lon="0.3766205367524035"><ele>421.5</ele><time>2026-05-06T13:38:19Z</time></trkpt><trkpt lat="43.199750425062604" lon="0.3766967089485826"><ele>421.0</ele><time>2026-05-06T13:38:20Z</time></trkpt><trkpt lat="43.199788617319975" lon="0.3767687275142689"><ele>420.5</ele><time>2026-05-06T13:38:21Z</time></trkpt><trkpt lat="43.19983005687996" lon="0.37684138680175056"><ele>420.0</ele><time>2026-05-06T13:38:22Z</time></trkpt><trkpt lat="43.1998726506545" lon="0.37691199103973533"><ele>420.0</ele><time>2026-05-06T13:38:23Z</time></trkpt><trkpt lat="43.199921059968254" lon="0.37699065848178925"><ele>420.0</ele><time>2026-05-06T13:38:24Z</time></trkpt><trkpt lat="43.19996957177506" lon="0.37706452901039217"><ele>420.0</ele><time>2026-05-06T13:38:25Z</time></trkpt><trkpt lat="43.2000200633893" lon="0.37713801290983273"><ele>420.0</ele><time>2026-05-06T13:38:26Z</time></trkpt><trkpt lat="43.200073890579304" lon="0.3772133696028441"><ele>420.0</ele><time>2026-05-06T13:38:27Z</time></trkpt><trkpt lat="43.20013419278262" lon="0.37727483058747996"><ele>420.0</ele><time>2026-05-06T13:38:28Z</time></trkpt><trkpt lat="43.200197006006825" lon="0.37735667429226855"><ele>419.0</ele><time>2026-05-06T13:38:29Z</time></trkpt><trkpt lat="43.20026175448702" lon="0.37743945547443825"><ele>418.0</ele><time>2026-05-06T13:38:30Z</time></trkpt><trkpt lat="43.20032903220455" lon="0.3775216038359506"><ele>417.0</ele><time>2026-05-06T13:38:31Z</time></trkpt><trkpt lat="43.200399933408306" lon="0.3776051315257638"><ele>416.0</ele><time>2026-05-06T13:38:32Z</time></trkpt><trkpt lat="43.20047364499008" lon="0.3776884316218772"><ele>415.0</ele><time>2026-05-06T13:38:33Z</time></trkpt><trkpt lat="43.200548942557575" lon="0.37776849116755296"><ele>415.0</ele><time>2026-05-06T13:38:34Z</time></trkpt><trkpt lat="43.20063059019253" lon="0.37783710207689963"><ele>415.0</ele><time>2026-05-06T13:38:35Z</time></trkpt><trkpt lat="43.20070670046094" lon="0.37791922884627194"><ele>415.0</ele><time>2026-05-06T13:38:36Z</time></trkpt><trkpt lat="43.20080210914166" lon="0.37795907435914744"><ele>415.0</ele><time>2026-05-06T13:38:37Z</time></trkpt><trkpt lat="43.2008896107049" lon="0.37801095302934046"><ele>415.0</ele><time>2026-05-06T13:38:38Z</time></trkpt><trkpt lat="43.20098076006881" lon="0.3780603628528051"><ele>414.4</ele><time>2026-05-06T13:38:39Z</time></trkpt><trkpt lat="43.201080360152304" lon="0.378093645755243"><ele>413.8</ele><time>2026-05-06T13:38:40Z</time></trkpt><trkpt lat="43.20117312972108" lon="0.37812753310527264"><ele>413.20000000000005</ele><time>2026-05-06T13:38:41Z</time></trkpt><trkpt lat="43.20125792087186" lon="0.3781800964201229"><ele>412.6</ele><time>2026-05-06T13:38:42Z</time></trkpt><trkpt lat="43.20134668173045" lon="0.37821338174406977"><ele>412.0</ele><time>2026-05-06T13:38:43Z</time></trkpt><trkpt lat="43.20143302130874" lon="0.3782446697179749"><ele>412.1666666666667</ele><time>2026-05-06T13:38:44Z</time></trkpt><trkpt lat="43.201518624253914" lon="0.378275103223123"><ele>412.33333333333337</ele><time>2026-05-06T13:38:45Z</time></trkpt><trkpt lat="43.20160838994646" lon="0.3783053831780963"><ele>412.5</ele><time>2026-05-06T13:38:46Z</time></trkpt><trkpt lat="43.2016929786169" lon="0.3783127436034207"><ele>412.66666666666663</ele><time>2026-05-06T13:38:47Z</time></trkpt><trkpt lat="43.20177798145948" lon="0.3783454146707057"><ele>412.8333333333333</ele><time>2026-05-06T13:38:48Z</time></trkpt><trkpt lat="43.20186520513799" lon="0.37837488472191355"><ele>413.0</ele><time>2026-05-06T13:38:49Z</time></trkpt><trkpt lat="43.20194878460458" lon="0.37840098979239745"><ele>412.99999999999994</ele><time>2026-05-06T13:38:50Z</time></trkpt><trkpt lat="43.202028004394386" lon="0.37844997005228925"><ele>413.0</ele><time>2026-05-06T13:38:51Z</time></trkpt><trkpt lat="43.20210774393641" lon="0.37848355578984305"><ele>413.0</ele><time>2026-05-06T13:38:52Z</time></trkpt><trkpt lat="43.20218521654955" lon="0.3785161865298152"><ele>413.0</ele><time>2026-05-06T13:38:53Z</time></trkpt><trkpt lat="43.20226426023372" lon="0.3785297636171625"><ele>412.99999999999994</ele><time>2026-05-06T13:38:54Z</time></trkpt><trkpt lat="43.20232910985184" lon="0.3785857870755682"><ele>413.0</ele><time>2026-05-06T13:38:55Z</time></trkpt><trkpt lat="43.20239777860419" lon="0.37862318893228647"><ele>413.14285714285717</ele><time>2026-05-06T13:38:56Z</time></trkpt><trkpt lat="43.202466090594804" lon="0.378661995534886"><ele>413.2857142857143</ele><time>2026-05-06T13:38:57Z</time></trkpt><trkpt lat="43.2025312722807" lon="0.37870006418854146"><ele>413.42857142857144</ele><time>2026-05-06T13:38:58Z</time></trkpt><trkpt lat="43.20259627217003" lon="0.37874181137093604"><ele>413.57142857142856</ele><time>2026-05-06T13:38:59Z</time></trkpt><trkpt lat="43.20265515072336" lon="0.37878995445255637"><ele>413.7142857142857</ele><time>2026-05-06T13:39:00Z</time></trkpt><trkpt lat="43.20271437755538" lon="0.378843034560765"><ele>413.8571428571429</ele><time>2026-05-06T13:39:01Z</time></trkpt><trkpt lat="43.202772801813765" lon="0.3788964636062708"><ele>414.0</ele><time>2026-05-06T13:39:02Z</time></trkpt><trkpt lat="43.20283232377231" lon="0.3789508965918931"><ele>413.5714285714286</ele><time>2026-05-06T13:39:03Z</time></trkpt><trkpt lat="43.20289196805142" lon="0.3790059574128812"><ele>413.14285714285717</ele><time>2026-05-06T13:39:04Z</time></trkpt><trkpt lat="43.20294966527973" lon="0.37905949135559097"><ele>412.7142857142857</ele><time>2026-05-06T13:39:05Z</time></trkpt><trkpt lat="43.20300462827567" lon="0.3791104883212001"><ele>412.28571428571433</ele><time>2026-05-06T13:39:06Z</time></trkpt><trkpt lat="43.203059232762136" lon="0.3791611527754887"><ele>411.85714285714283</ele><time>2026-05-06T13:39:07Z</time></trkpt><trkpt lat="43.20311310763418" lon="0.3792111400786741"><ele>411.42857142857144</ele><time>2026-05-06T13:39:08Z</time></trkpt><trkpt lat="43.2031702642947" lon="0.3792641724822963"><ele>411.0</ele><time>2026-05-06T13:39:09Z</time></trkpt><trkpt lat="43.2032224176329" lon="0.37931256258723745"><ele>411.0</ele><time>2026-05-06T13:39:10Z</time></trkpt><trkpt lat="43.20327747697833" lon="0.3793627292655668"><ele>411.0</ele><time>2026-05-06T13:39:11Z</time></trkpt><trkpt lat="43.203332180137274" lon="0.3794112172348554"><ele>411.0</ele><time>2026-05-06T13:39:12Z</time></trkpt><trkpt lat="43.20338958913227" lon="0.37946140565685904"><ele>411.0</ele><time>2026-05-06T13:39:13Z</time></trkpt><trkpt lat="43.203445762781584" lon="0.37950718239710635"><ele>411.0</ele><time>2026-05-06T13:39:14Z</time></trkpt><trkpt lat="43.20350611171508" lon="0.3795507907551503"><ele>411.0</ele><time>2026-05-06T13:39:15Z</time></trkpt><trkpt lat="43.2035678983644" lon="0.3795910698178008"><ele>411.0</ele><time>2026-05-06T13:39:16Z</time></trkpt><trkpt lat="43.2036305041506" lon="0.37962869698484547"><ele>411.0</ele><time>2026-05-06T13:39:17Z</time></trkpt><trkpt lat="43.203694106430525" lon="0.3796653682917258"><ele>411.0</ele><time>2026-05-06T13:39:18Z</time></trkpt><trkpt lat="43.20375827765372" lon="0.3797014567000226"><ele>411.0</ele><time>2026-05-06T13:39:19Z</time></trkpt><trkpt lat="43.20382605056061" lon="0.3797351457075057"><ele>411.0</ele><time>2026-05-06T13:39:20Z</time></trkpt><trkpt lat="43.203893639167674" lon="0.37976957537680955"><ele>411.0</ele><time>2026-05-06T13:39:21Z</time></trkpt><trkpt lat="43.2039680552363" lon="0.3797849211221604"><ele>411.0</ele><time>2026-05-06T13:39:22Z</time></trkpt><trkpt lat="43.20403508708412" lon="0.3798210969158376"><ele>411.0</ele><time>2026-05-06T13:39:23Z</time></trkpt><trkpt lat="43.20410083312775" lon="0.3798657009266569"><ele>410.3333333333333</ele><time>2026-05-06T13:39:24Z</time></trkpt><trkpt lat="43.20416389678959" lon="0.37991233548067643"><ele>409.66666666666663</ele><time>2026-05-06T13:39:25Z</time></trkpt><trkpt lat="43.20422547813166" lon="0.37997117083213383"><ele>409.0</ele><time>2026-05-06T13:39:26Z</time></trkpt><trkpt lat="43.20428765451243" lon="0.38004370385834474"><ele>408.3333333333333</ele><time>2026-05-06T13:39:27Z</time></trkpt><trkpt lat="43.204329136135094" lon="0.3801435489625153"><ele>407.66666666666663</ele><time>2026-05-06T13:39:28Z</time></trkpt><trkpt lat="43.204384228055225" lon="0.38023309996953303"><ele>407.0</ele><time>2026-05-06T13:39:29Z</time></trkpt><trkpt lat="43.204438652670966" lon="0.38032531286479454"><ele>407.0</ele><time>2026-05-06T13:39:30Z</time></trkpt><trkpt lat="43.204495668448686" lon="0.3804219162441008"><ele>407.0</ele><time>2026-05-06T13:39:31Z</time></trkpt><trkpt lat="43.20455542673516" lon="0.38052316616477366"><ele>407.0</ele><time>2026-05-06T13:39:32Z</time></trkpt><trkpt lat="43.20462910906873" lon="0.38061085018047774"><ele>407.0</ele><time>2026-05-06T13:39:33Z</time></trkpt><trkpt lat="43.20468926715776" lon="0.3807136585842242"><ele>407.0</ele><time>2026-05-06T13:39:34Z</time></trkpt><trkpt lat="43.20475215711598" lon="0.38081748448347563"><ele>406.0</ele><time>2026-05-06T13:39:35Z</time></trkpt><trkpt lat="43.20481701252842" lon="0.3809233390779368"><ele>405.0</ele><time>2026-05-06T13:39:36Z</time></trkpt><trkpt lat="43.204878006702664" lon="0.3810301999275025"><ele>404.0</ele><time>2026-05-06T13:39:37Z</time></trkpt><trkpt lat="43.20494554989751" lon="0.38113486553337517"><ele>403.0</ele><time>2026-05-06T13:39:38Z</time></trkpt><trkpt lat="43.20500528714668" lon="0.3812565268428698"><ele>402.0</ele><time>2026-05-06T13:39:39Z</time></trkpt><trkpt lat="43.20508967516348" lon="0.38134662375925943"><ele>401.20000000000005</ele><time>2026-05-06T13:39:40Z</time></trkpt><trkpt lat="43.20516387011385" lon="0.38145174262073955"><ele>400.4</ele><time>2026-05-06T13:39:41Z</time></trkpt><trkpt lat="43.20524404564121" lon="0.38154996813438213"><ele>399.6</ele><time>2026-05-06T13:39:42Z</time></trkpt><trkpt lat="43.205322414522456" lon="0.38164620236049684"><ele>398.79999999999995</ele><time>2026-05-06T13:39:43Z</time></trkpt><trkpt lat="43.20540824933367" lon="0.3817303039433897"><ele>398.0</ele><time>2026-05-06T13:39:44Z</time></trkpt><trkpt lat="43.20549417163527" lon="0.3818150659368829"><ele>398.0</ele><time>2026-05-06T13:39:45Z</time></trkpt><trkpt lat="43.205571002969485" lon="0.38191951477154495"><ele>398.0</ele><time>2026-05-06T13:39:46Z</time></trkpt><trkpt lat="43.20566096019289" lon="0.38198136614705847"><ele>398.0</ele><time>2026-05-06T13:39:47Z</time></trkpt><trkpt lat="43.205748262066855" lon="0.38205456220665285"><ele>398.0</ele><time>2026-05-06T13:39:48Z</time></trkpt><trkpt lat="43.20583513715971" lon="0.38211817641364687"><ele>398.0</ele><time>2026-05-06T13:39:49Z</time></trkpt><trkpt lat="43.205923755753375" lon="0.38217841032086663"><ele>397.4</ele><time>2026-05-06T13:39:50Z</time></trkpt><trkpt lat="43.20601701302901" lon="0.38222170509956194"><ele>396.79999999999995</ele><time>2026-05-06T13:39:51Z</time></trkpt><trkpt lat="43.20610592758003" lon="0.3822657525724368"><ele>396.2</ele><time>2026-05-06T13:39:52Z</time></trkpt><trkpt lat="43.20619460395249" lon="0.3823028955983719"><ele>395.6</ele><time>2026-05-06T13:39:53Z</time></trkpt><trkpt lat="43.20628002655835" lon="0.3823392219716656"><ele>395.0</ele><time>2026-05-06T13:39:54Z</time></trkpt><trkpt lat="43.206365804246026" lon="0.3823766884070184"><ele>394.99999999999994</ele><time>2026-05-06T13:39:55Z</time></trkpt><trkpt lat="43.20644840029036" lon="0.38241525764225465"><ele>395.0</ele><time>2026-05-06T13:39:56Z</time></trkpt><trkpt lat="43.20652563427119" lon="0.3824619790702766"><ele>395.0</ele><time>2026-05-06T13:39:57Z</time></trkpt><trkpt lat="43.20659670612268" lon="0.3825171402377393"><ele>395.0</ele><time>2026-05-06T13:39:58Z</time></trkpt><trkpt lat="43.206643528239425" lon="0.3826118991590638"><ele>394.99999999999994</ele><time>2026-05-06T13:39:59Z</time></trkpt><trkpt lat="43.20669761513488" lon="0.38269392853814604"><ele>395.0</ele><time>2026-05-06T13:40:00Z</time></trkpt><trkpt lat="43.20675377589917" lon="0.38277237976503053"><ele>394.99999999999994</ele><time>2026-05-06T13:40:01Z</time></trkpt><trkpt lat="43.20680510494203" lon="0.38285227526847404"><ele>395.0</ele><time>2026-05-06T13:40:02Z</time></trkpt><trkpt lat="43.206852589580784" lon="0.3829342843981681"><ele>395.0</ele><time>2026-05-06T13:40:03Z</time></trkpt><trkpt lat="43.20689758707751" lon="0.38302094064791486"><ele>395.0</ele><time>2026-05-06T13:40:04Z</time></trkpt><trkpt lat="43.20694282585972" lon="0.38310689635144235"><ele>394.99999999999994</ele><time>2026-05-06T13:40:05Z</time></trkpt><trkpt lat="43.20699416970752" lon="0.38318960441870126"><ele>395.0</ele><time>2026-05-06T13:40:06Z</time></trkpt><trkpt lat="43.207045657942814" lon="0.38326646593944513"><ele>395.0</ele><time>2026-05-06T13:40:07Z</time></trkpt><trkpt lat="43.20710030385231" lon="0.38333668761327766"><ele>395.0</ele><time>2026-05-06T13:40:08Z</time></trkpt><trkpt lat="43.20715361406757" lon="0.3834026097379991"><ele>395.0</ele><time>2026-05-06T13:40:09Z</time></trkpt><trkpt lat="43.20720404509166" lon="0.38346779810037424"><ele>395.0</ele><time>2026-05-06T13:40:10Z</time></trkpt><trkpt lat="43.207249422511616" lon="0.3835304524324036"><ele>395.0</ele><time>2026-05-06T13:40:11Z</time></trkpt><trkpt lat="43.20729758267208" lon="0.38358962971287297"><ele>395.0</ele><time>2026-05-06T13:40:12Z</time></trkpt><trkpt lat="43.20734064411803" lon="0.38366186194246554"><ele>395.0</ele><time>2026-05-06T13:40:13Z</time></trkpt><trkpt lat="43.20744703578153" lon="0.383745665648762"><ele>395.5</ele><time>2026-05-06T13:40:15Z</time></trkpt><trkpt lat="43.207550008583" lon="0.3838431056479754"><ele>396.0</ele><time>2026-05-06T13:40:17Z</time></trkpt><trkpt lat="43.20765261466996" lon="0.38393947257506345"><ele>396.5</ele><time>2026-05-06T13:40:19Z</time></trkpt><trkpt lat="43.20776226721321" lon="0.38401941702649617"><ele>397.0</ele><time>2026-05-06T13:40:21Z</time></trkpt><trkpt lat="43.20786922755694" lon="0.3840915766662718"><ele>396.40000000000003</ele><time>2026-05-06T13:40:23Z</time></trkpt><trkpt lat="43.20793159808217" lon="0.384126326086542"><ele>395.8</ele><time>2026-05-06T13:40:24Z</time></trkpt><trkpt lat="43.20804421927678" lon="0.38420752021987725"><ele>395.2</ele><time>2026-05-06T13:40:26Z</time></trkpt><trkpt lat="43.208107196398196" lon="0.38423237565627244"><ele>394.6</ele><time>2026-05-06T13:40:27Z</time></trkpt><trkpt lat="43.20822158295179" lon="0.38428378948411696"><ele>394.0</ele><time>2026-05-06T13:40:29Z</time></trkpt><trkpt lat="43.20833598698847" lon="0.38433821409157504"><ele>394.0</ele><time>2026-05-06T13:40:31Z</time></trkpt><trkpt lat="43.20843865714445" lon="0.3844218460305103"><ele>394.0</ele><time>2026-05-06T13:40:33Z</time></trkpt><trkpt lat="43.208535764147065" lon="0.38449783051508885"><ele>394.0</ele><time>2026-05-06T13:40:35Z</time></trkpt><trkpt lat="43.208627901178374" lon="0.38456747011529446"><ele>394.0</ele><time>2026-05-06T13:40:37Z</time></trkpt><trkpt lat="43.208723290595124" lon="0.3846346845542287"><ele>394.0</ele><time>2026-05-06T13:40:39Z</time></trkpt><trkpt lat="43.20882012211397" lon="0.38467439636591516"><ele>393.6</ele><time>2026-05-06T13:40:41Z</time></trkpt><trkpt lat="43.2088890232991" lon="0.3847110054433936"><ele>393.2</ele><time>2026-05-06T13:40:43Z</time></trkpt><trkpt lat="43.20898809415741" lon="0.3847846984872135"><ele>392.8</ele><time>2026-05-06T13:40:45Z</time></trkpt><trkpt lat="43.209110851558464" lon="0.3848157050199101"><ele>392.40000000000003</ele><time>2026-05-06T13:40:47Z</time></trkpt><trkpt lat="43.209174626193914" lon="0.3848399209584599"><ele>392.0</ele><time>2026-05-06T13:40:48Z</time></trkpt><trkpt lat="43.20928382258128" lon="0.38487371183695346"><ele>392.0</ele><time>2026-05-06T13:40:50Z</time></trkpt><trkpt lat="43.20939850345662" lon="0.3849125031778314"><ele>392.0</ele><time>2026-05-06T13:40:52Z</time></trkpt><trkpt lat="43.209508519321645" lon="0.38497533355622643"><ele>392.0</ele><time>2026-05-06T13:40:54Z</time></trkpt><trkpt lat="43.20962221976234" lon="0.38500855040173987"><ele>392.0</ele><time>2026-05-06T13:40:56Z</time></trkpt><trkpt lat="43.20973067139696" lon="0.38503968401809063"><ele>392.40000000000003</ele><time>2026-05-06T13:40:58Z</time></trkpt><trkpt lat="43.209833409576376" lon="0.3850714702936843"><ele>392.8</ele><time>2026-05-06T13:41:00Z</time></trkpt><trkpt lat="43.20993373692955" lon="0.38508522489012004"><ele>393.2</ele><time>2026-05-06T13:41:02Z</time></trkpt><trkpt lat="43.21003091763543" lon="0.38514884365161267"><ele>393.6</ele><time>2026-05-06T13:41:04Z</time></trkpt><trkpt lat="43.210111966149505" lon="0.38518767779052765"><ele>394.0</ele><time>2026-05-06T13:41:06Z</time></trkpt><trkpt lat="43.21021423785312" lon="0.38524215243018206"><ele>394.0</ele><time>2026-05-06T13:41:08Z</time></trkpt><trkpt lat="43.210299128817056" lon="0.38529383177999016"><ele>394.0</ele><time>2026-05-06T13:41:10Z</time></trkpt><trkpt lat="43.21038936340656" lon="0.38535981832799676"><ele>394.0</ele><time>2026-05-06T13:41:12Z</time></trkpt><trkpt lat="43.21047627848003" lon="0.3854344306107678"><ele>394.0</ele><time>2026-05-06T13:41:14Z</time></trkpt><trkpt lat="43.21056036632313" lon="0.385516169774069"><ele>394.0</ele><time>2026-05-06T13:41:16Z</time></trkpt><trkpt lat="43.21064837504006" lon="0.3856190000620746"><ele>393.25</ele><time>2026-05-06T13:41:18Z</time></trkpt><trkpt lat="43.210730877500104" lon="0.3857199480343444"><ele>392.5</ele><time>2026-05-06T13:41:20Z</time></trkpt><trkpt lat="43.21081507480656" lon="0.38582576687328846"><ele>391.75</ele><time>2026-05-06T13:41:22Z</time></trkpt><trkpt lat="43.210931280462376" lon="0.3859497429279462"><ele>391.0</ele><time>2026-05-06T13:41:24Z</time></trkpt><trkpt lat="43.21099557570732" lon="0.38608593564899624"><ele>391.0</ele><time>2026-05-06T13:41:26Z</time></trkpt><trkpt lat="43.211091744851515" lon="0.38620456954696547"><ele>391.0</ele><time>2026-05-06T13:41:28Z</time></trkpt><trkpt lat="43.211136399757" lon="0.38626740710595414"><ele>391.0</ele><time>2026-05-06T13:41:29Z</time></trkpt><trkpt lat="43.21117030252344" lon="0.3863446143009706"><ele>391.0</ele><time>2026-05-06T13:41:30Z</time></trkpt><trkpt lat="43.211217410074674" lon="0.38640727815805104"><ele>391.0</ele><time>2026-05-06T13:41:31Z</time></trkpt><trkpt lat="43.21131309916491" lon="0.38651748586454465"><ele>390.8</ele><time>2026-05-06T13:41:33Z</time></trkpt><trkpt lat="43.21141459462426" lon="0.3866222656315151"><ele>390.6</ele><time>2026-05-06T13:41:35Z</time></trkpt><trkpt lat="43.211524426022585" lon="0.3866972761305376"><ele>390.4</ele><time>2026-05-06T13:41:37Z</time></trkpt><trkpt lat="43.211579509927" lon="0.3867417521164531"><ele>390.2</ele><time>2026-05-06T13:41:38Z</time></trkpt><trkpt lat="43.2116837846624" lon="0.38684190063231855"><ele>390.0</ele><time>2026-05-06T13:41:40Z</time></trkpt><trkpt lat="43.21174827729892" lon="0.3868797296025055"><ele>390.0</ele><time>2026-05-06T13:41:41Z</time></trkpt><trkpt lat="43.2118077351564" lon="0.38691220410535765"><ele>390.0</ele><time>2026-05-06T13:41:42Z</time></trkpt><trkpt lat="43.211873972808526" lon="0.3869470671418026"><ele>390.0</ele><time>2026-05-06T13:41:43Z</time></trkpt><trkpt lat="43.211944870509136" lon="0.38695617897331"><ele>390.0</ele><time>2026-05-06T13:41:44Z</time></trkpt><trkpt lat="43.21201205409713" lon="0.38699019817055674"><ele>390.0</ele><time>2026-05-06T13:41:45Z</time></trkpt><trkpt lat="43.21207619967543" lon="0.38702136484567606"><ele>390.0</ele><time>2026-05-06T13:41:46Z</time></trkpt><trkpt lat="43.21213656927728" lon="0.3870753342912317"><ele>390.0</ele><time>2026-05-06T13:41:47Z</time></trkpt><trkpt lat="43.2122027801004" lon="0.3871035726593161"><ele>390.0</ele><time>2026-05-06T13:41:48Z</time></trkpt><trkpt lat="43.21226808208804" lon="0.3871309856257602"><ele>390.0</ele><time>2026-05-06T13:41:49Z</time></trkpt><trkpt lat="43.21233257192633" lon="0.38715805754725524"><ele>390.0</ele><time>2026-05-06T13:41:50Z</time></trkpt><trkpt lat="43.21239950479086" lon="0.387182932204702"><ele>390.0</ele><time>2026-05-06T13:41:51Z</time></trkpt><trkpt lat="43.21246948809348" lon="0.3871888710280118"><ele>390.0</ele><time>2026-05-06T13:41:52Z</time></trkpt><trkpt lat="43.21253462447823" lon="0.38721432517731086"><ele>390.0</ele><time>2026-05-06T13:41:53Z</time></trkpt><trkpt lat="43.212600043234396" lon="0.387237845708048"><ele>390.0</ele><time>2026-05-06T13:41:54Z</time></trkpt><trkpt lat="43.21266272941947" lon="0.38726227974454364"><ele>389.42857142857144</ele><time>2026-05-06T13:41:55Z</time></trkpt><trkpt lat="43.21272858507567" lon="0.38728368816935904"><ele>388.85714285714283</ele><time>2026-05-06T13:41:56Z</time></trkpt><trkpt lat="43.212787803596775" lon="0.3873298808607403"><ele>388.28571428571433</ele><time>2026-05-06T13:41:57Z</time></trkpt><trkpt lat="43.212851581236386" lon="0.3873554081264717"><ele>387.7142857142857</ele><time>2026-05-06T13:41:58Z</time></trkpt><trkpt lat="43.21291605292877" lon="0.3873812131805917"><ele>387.14285714285717</ele><time>2026-05-06T13:41:59Z</time></trkpt><trkpt lat="43.212978976693975" lon="0.3874070255650587"><ele>386.5714285714286</ele><time>2026-05-06T13:42:00Z</time></trkpt><trkpt lat="43.21303923765888" lon="0.38743211534091376"><ele>386.0</ele><time>2026-05-06T13:42:01Z</time></trkpt><trkpt lat="43.213107020136064" lon="0.3874603384820706"><ele>386.14285714285717</ele><time>2026-05-06T13:42:02Z</time></trkpt><trkpt lat="43.2131696614831" lon="0.38748641930873345"><ele>386.2857142857143</ele><time>2026-05-06T13:42:03Z</time></trkpt><trkpt lat="43.21323227507435" lon="0.38751140672107326"><ele>386.42857142857144</ele><time>2026-05-06T13:42:04Z</time></trkpt><trkpt lat="43.21329904554702" lon="0.38753786202154905"><ele>386.57142857142856</ele><time>2026-05-06T13:42:05Z</time></trkpt><trkpt lat="43.213365378495126" lon="0.38756159573857357"><ele>386.7142857142857</ele><time>2026-05-06T13:42:06Z</time></trkpt><trkpt lat="43.21343235138935" lon="0.3875638144673765"><ele>386.8571428571429</ele><time>2026-05-06T13:42:07Z</time></trkpt><trkpt lat="43.213496917361255" lon="0.38758532740197293"><ele>387.0</ele><time>2026-05-06T13:42:08Z</time></trkpt><trkpt lat="43.213564580223746" lon="0.387607517876193"><ele>387.0</ele><time>2026-05-06T13:42:09Z</time></trkpt><trkpt lat="43.213631703379214" lon="0.3876225895161694"><ele>387.0</ele><time>2026-05-06T13:42:10Z</time></trkpt><trkpt lat="43.21369790931403" lon="0.387635753040844"><ele>387.0</ele><time>2026-05-06T13:42:11Z</time></trkpt><trkpt lat="43.21376463311206" lon="0.38764700471934915"><ele>387.0</ele><time>2026-05-06T13:42:12Z</time></trkpt><trkpt lat="43.2138290520501" lon="0.3876550552291002"><ele>387.0</ele><time>2026-05-06T13:42:13Z</time></trkpt><trkpt lat="43.21389440549985" lon="0.38766074353798335"><ele>387.0</ele><time>2026-05-06T13:42:14Z</time></trkpt><trkpt lat="43.21396117264162" lon="0.38766840773589756"><ele>387.0</ele><time>2026-05-06T13:42:15Z</time></trkpt><trkpt lat="43.214028502094706" lon="0.38767572691755753"><ele>386.7142857142857</ele><time>2026-05-06T13:42:16Z</time></trkpt><trkpt lat="43.214096827192655" lon="0.38768409365515394"><ele>386.42857142857144</ele><time>2026-05-06T13:42:17Z</time></trkpt><trkpt lat="43.21416798967039" lon="0.3876931102193562"><ele>386.1428571428571</ele><time>2026-05-06T13:42:18Z</time></trkpt><trkpt lat="43.21423797512449" lon="0.3877010871647052"><ele>385.8571428571429</ele><time>2026-05-06T13:42:19Z</time></trkpt><trkpt lat="43.21430889050665" lon="0.38770691436914606"><ele>385.57142857142856</ele><time>2026-05-06T13:42:20Z</time></trkpt><trkpt lat="43.214379856178866" lon="0.387718485674599"><ele>385.2857142857143</ele><time>2026-05-06T13:42:21Z</time></trkpt><trkpt lat="43.2144519342306" lon="0.3877349245175668"><ele>385.0</ele><time>2026-05-06T13:42:22Z</time></trkpt><trkpt lat="43.214521116625114" lon="0.3877521519904704"><ele>385.0</ele><time>2026-05-06T13:42:23Z</time></trkpt><trkpt lat="43.21459226273766" lon="0.38776481851187233"><ele>385.0</ele><time>2026-05-06T13:42:24Z</time></trkpt><trkpt lat="43.21466137708091" lon="0.38777975408765347"><ele>385.0</ele><time>2026-05-06T13:42:25Z</time></trkpt><trkpt lat="43.21472808302518" lon="0.38780085739106723"><ele>385.0</ele><time>2026-05-06T13:42:26Z</time></trkpt><trkpt lat="43.21479757184427" lon="0.3878194376257868"><ele>385.0</ele><time>2026-05-06T13:42:27Z</time></trkpt><trkpt lat="43.21486119751645" lon="0.3878409734943476"><ele>385.0</ele><time>2026-05-06T13:42:28Z</time></trkpt><trkpt lat="43.21492599734054" lon="0.3878577714259665"><ele>385.0</ele><time>2026-05-06T13:42:29Z</time></trkpt><trkpt lat="43.21498629020585" lon="0.3879016881105521"><ele>385.14285714285717</ele><time>2026-05-06T13:42:30Z</time></trkpt><trkpt lat="43.2150501426085" lon="0.38792503372486653"><ele>385.2857142857143</ele><time>2026-05-06T13:42:31Z</time></trkpt><trkpt lat="43.215118913232615" lon="0.3879282176234103"><ele>385.42857142857144</ele><time>2026-05-06T13:42:32Z</time></trkpt><trkpt lat="43.21518726534055" lon="0.38795002265236245"><ele>385.57142857142856</ele><time>2026-05-06T13:42:33Z</time></trkpt><trkpt lat="43.21525056368452" lon="0.3879728975677359"><ele>385.7142857142857</ele><time>2026-05-06T13:42:34Z</time></trkpt><trkpt lat="43.21531371496388" lon="0.3880026127651707"><ele>385.8571428571429</ele><time>2026-05-06T13:42:35Z</time></trkpt><trkpt lat="43.21537757163234" lon="0.38803940129456305"><ele>386.0</ele><time>2026-05-06T13:42:36Z</time></trkpt><trkpt lat="43.21543529100739" lon="0.3880829306515778"><ele>385.5714285714286</ele><time>2026-05-06T13:42:37Z</time></trkpt><trkpt lat="43.21548680820094" lon="0.388140868029332"><ele>385.14285714285717</ele><time>2026-05-06T13:42:38Z</time></trkpt><trkpt lat="43.21553533306459" lon="0.38821003361935175"><ele>384.7142857142857</ele><time>2026-05-06T13:42:39Z</time></trkpt><trkpt lat="43.215584776250324" lon="0.3882885511334743"><ele>384.28571428571433</ele><time>2026-05-06T13:42:40Z</time></trkpt><trkpt lat="43.215623913088635" lon="0.3883685063823057"><ele>383.85714285714283</ele><time>2026-05-06T13:42:41Z</time></trkpt><trkpt lat="43.21566329896325" lon="0.3884443632219757"><ele>383.42857142857144</ele><time>2026-05-06T13:42:42Z</time></trkpt><trkpt lat="43.215701554360216" lon="0.3885138721853117"><ele>383.0</ele><time>2026-05-06T13:42:43Z</time></trkpt><trkpt lat="43.21574421555651" lon="0.38858461034461733"><ele>383.0</ele><time>2026-05-06T13:42:44Z</time></trkpt><trkpt lat="43.215783373353325" lon="0.3886604843189591"><ele>383.0</ele><time>2026-05-06T13:42:45Z</time></trkpt><trkpt lat="43.21583429365563" lon="0.38872628957476796"><ele>383.0</ele><time>2026-05-06T13:42:46Z</time></trkpt><trkpt lat="43.21588179368683" lon="0.3887970606965462"><ele>383.0</ele><time>2026-05-06T13:42:47Z</time></trkpt><trkpt lat="43.215932317600185" lon="0.3888640834042379"><ele>383.0</ele><time>2026-05-06T13:42:48Z</time></trkpt><trkpt lat="43.21598754806704" lon="0.3889286150092299"><ele>383.0</ele><time>2026-05-06T13:42:49Z</time></trkpt><trkpt lat="43.21604756056623" lon="0.38898798479795577"><ele>383.0</ele><time>2026-05-06T13:42:50Z</time></trkpt><trkpt lat="43.21610523606722" lon="0.38904273762863034"><ele>383.1428571428571</ele><time>2026-05-06T13:42:51Z</time></trkpt><trkpt lat="43.21616727602172" lon="0.38909439564811293"><ele>383.2857142857143</ele><time>2026-05-06T13:42:52Z</time></trkpt><trkpt lat="43.216222009827916" lon="0.38914085181847696"><ele>383.42857142857144</ele><time>2026-05-06T13:42:53Z</time></trkpt><trkpt lat="43.21627915308497" lon="0.3891889943934037"><ele>383.57142857142856</ele><time>2026-05-06T13:42:54Z</time></trkpt><trkpt lat="43.216334657467165" lon="0.389235689871499"><ele>383.7142857142857</ele><time>2026-05-06T13:42:55Z</time></trkpt><trkpt lat="43.21639837131926" lon="0.38927298834198765"><ele>383.85714285714283</ele><time>2026-05-06T13:42:56Z</time></trkpt><trkpt lat="43.21645564900836" lon="0.38930966309486065"><ele>384.0</ele><time>2026-05-06T13:42:57Z</time></trkpt><trkpt lat="43.21651526147032" lon="0.3893376661978016"><ele>384.0</ele><time>2026-05-06T13:42:58Z</time></trkpt><trkpt lat="43.216577702451794" lon="0.38936365126545397"><ele>384.0</ele><time>2026-05-06T13:42:59Z</time></trkpt><trkpt lat="43.21669789822636" lon="0.3893986943315662"><ele>384.0</ele><time>2026-05-06T13:43:01Z</time></trkpt><trkpt lat="43.216815244469984" lon="0.38943284049928795"><ele>384.0</ele><time>2026-05-06T13:43:03Z</time></trkpt><trkpt lat="43.21691587010274" lon="0.3894950194457368"><ele>384.0</ele><time>2026-05-06T13:43:05Z</time></trkpt><trkpt lat="43.216938528876284" lon="0.38957564275886786"><ele>383.99999999999994</ele><time>2026-05-06T13:43:06Z</time></trkpt><trkpt lat="43.21693608675851" lon="0.3896694970869608"><ele>384.0</ele><time>2026-05-06T13:43:07Z</time></trkpt><trkpt lat="43.216886313401105" lon="0.3897567636379558"><ele>384.0</ele><time>2026-05-06T13:43:08Z</time></trkpt><trkpt lat="43.21688225943205" lon="0.38984378771944983"><ele>384.0</ele><time>2026-05-06T13:43:09Z</time></trkpt><trkpt lat="43.21689135042204" lon="0.3899369869271069"><ele>384.0</ele><time>2026-05-06T13:43:10Z</time></trkpt><trkpt lat="43.216898760118944" lon="0.39003079171853183"><ele>383.99999999999994</ele><time>2026-05-06T13:43:11Z</time></trkpt><trkpt lat="43.21691426414528" lon="0.390125315592082"><ele>384.0</ele><time>2026-05-06T13:43:12Z</time></trkpt><trkpt lat="43.21693536407923" lon="0.39021898212811545"><ele>383.6666666666667</ele><time>2026-05-06T13:43:13Z</time></trkpt><trkpt lat="43.216962605155494" lon="0.3903141990740141"><ele>383.3333333333333</ele><time>2026-05-06T13:43:14Z</time></trkpt><trkpt lat="43.216988886782936" lon="0.3904127981893166"><ele>383.0</ele><time>2026-05-06T13:43:15Z</time></trkpt><trkpt lat="43.21701776093265" lon="0.3905113160884845"><ele>382.66666666666663</ele><time>2026-05-06T13:43:16Z</time></trkpt><trkpt lat="43.21704967079517" lon="0.3906072957338273"><ele>382.3333333333333</ele><time>2026-05-06T13:43:17Z</time></trkpt><trkpt lat="43.21708333778245" lon="0.39070183403302633"><ele>382.0</ele><time>2026-05-06T13:43:18Z</time></trkpt><trkpt lat="43.217116871090454" lon="0.39079931796596634"><ele>381.3333333333333</ele><time>2026-05-06T13:43:19Z</time></trkpt><trkpt lat="43.21715000719596" lon="0.390894384735803"><ele>380.66666666666663</ele><time>2026-05-06T13:43:20Z</time></trkpt><trkpt lat="43.217181958962875" lon="0.3909931387231767"><ele>380.0</ele><time>2026-05-06T13:43:21Z</time></trkpt><trkpt lat="43.2172165883218" lon="0.39108885990403125"><ele>379.3333333333333</ele><time>2026-05-06T13:43:22Z</time></trkpt><trkpt lat="43.21725175335334" lon="0.3911844611637194"><ele>378.6666666666667</ele><time>2026-05-06T13:43:23Z</time></trkpt><trkpt lat="43.217268443965914" lon="0.39129067219821845"><ele>378.0</ele><time>2026-05-06T13:43:24Z</time></trkpt><trkpt lat="43.21729927827027" lon="0.39138604436208513"><ele>377.7142857142857</ele><time>2026-05-06T13:43:25Z</time></trkpt><trkpt lat="43.217328889636285" lon="0.39148076943729593"><ele>377.42857142857144</ele><time>2026-05-06T13:43:26Z</time></trkpt><trkpt lat="43.21735767896924" lon="0.3915742895438062"><ele>377.1428571428571</ele><time>2026-05-06T13:43:27Z</time></trkpt><trkpt lat="43.217384220896726" lon="0.39166865416657537"><ele>376.8571428571429</ele><time>2026-05-06T13:43:28Z</time></trkpt><trkpt lat="43.21740980830549" lon="0.39176240570058496"><ele>376.57142857142856</ele><time>2026-05-06T13:43:29Z</time></trkpt><trkpt lat="43.21744850025783" lon="0.39184328150147507"><ele>376.2857142857143</ele><time>2026-05-06T13:43:30Z</time></trkpt><trkpt lat="43.217468900369376" lon="0.39194062215630077"><ele>376.0</ele><time>2026-05-06T13:43:31Z</time></trkpt><trkpt lat="43.217493296433545" lon="0.3920358446156767"><ele>376.0</ele><time>2026-05-06T13:43:32Z</time></trkpt><trkpt lat="43.21751680908662" lon="0.39213216233904064"><ele>376.0</ele><time>2026-05-06T13:43:33Z</time></trkpt><trkpt lat="43.21754145484335" lon="0.3922263019826101"><ele>376.0</ele><time>2026-05-06T13:43:34Z</time></trkpt><trkpt lat="43.2175628025758" lon="0.3923271365237202"><ele>376.0</ele><time>2026-05-06T13:43:35Z</time></trkpt><trkpt lat="43.21758874378186" lon="0.39242416628902654"><ele>376.0</ele><time>2026-05-06T13:43:36Z</time></trkpt><trkpt lat="43.2176151577305" lon="0.3925235851080069"><ele>376.0</ele><time>2026-05-06T13:43:37Z</time></trkpt><trkpt lat="43.21764571287153" lon="0.392624129342238"><ele>375.66666666666663</ele><time>2026-05-06T13:43:38Z</time></trkpt><trkpt lat="43.21767838446693" lon="0.39272131151726186"><ele>375.3333333333333</ele><time>2026-05-06T13:43:39Z</time></trkpt><trkpt lat="43.217715919165215" lon="0.39282270496360017"><ele>375.0</ele><time>2026-05-06T13:43:40Z</time></trkpt><trkpt lat="43.21775642404642" lon="0.39292255216690736"><ele>374.6666666666667</ele><time>2026-05-06T13:43:41Z</time></trkpt><trkpt lat="43.217801546933714" lon="0.39302299702977544"><ele>374.33333333333337</ele><time>2026-05-06T13:43:42Z</time></trkpt><trkpt lat="43.21784734266084" lon="0.39312349911650135"><ele>374.0</ele><time>2026-05-06T13:43:43Z</time></trkpt><trkpt lat="43.217895349645815" lon="0.3932183359062939"><ele>373.33333333333337</ele><time>2026-05-06T13:43:44Z</time></trkpt><trkpt lat="43.21794824218615" lon="0.39331687220864797"><ele>372.6666666666667</ele><time>2026-05-06T13:43:45Z</time></trkpt><trkpt lat="43.217999717454376" lon="0.3934125896028235"><ele>372.0</ele><time>2026-05-06T13:43:46Z</time></trkpt><trkpt lat="43.218057655142154" lon="0.39350755867637993"><ele>371.3333333333333</ele><time>2026-05-06T13:43:47Z</time></trkpt><trkpt lat="43.218102611077114" lon="0.39361336276761594"><ele>370.66666666666663</ele><time>2026-05-06T13:43:48Z</time></trkpt><trkpt lat="43.218174691014745" lon="0.3936869445829215"><ele>370.0</ele><time>2026-05-06T13:43:49Z</time></trkpt><trkpt lat="43.21822339068814" lon="0.3937914807027377"><ele>369.3333333333333</ele><time>2026-05-06T13:43:50Z</time></trkpt><trkpt lat="43.218284436622795" lon="0.3938771604228035"><ele>368.66666666666663</ele><time>2026-05-06T13:43:51Z</time></trkpt><trkpt lat="43.21834479723586" lon="0.39396638611378487"><ele>368.0</ele><time>2026-05-06T13:43:52Z</time></trkpt><trkpt lat="43.21840000241118" lon="0.39406206476829053"><ele>367.3333333333333</ele><time>2026-05-06T13:43:53Z</time></trkpt><trkpt lat="43.21845069773365" lon="0.3941660084975344"><ele>366.6666666666667</ele><time>2026-05-06T13:43:54Z</time></trkpt><trkpt lat="43.21849307748089" lon="0.3942772358022007"><ele>366.0</ele><time>2026-05-06T13:43:55Z</time></trkpt><trkpt lat="43.21853596749824" lon="0.3943882560575638"><ele>366.0</ele><time>2026-05-06T13:43:56Z</time></trkpt><trkpt lat="43.218578457556" lon="0.3944995003788438"><ele>366.0</ele><time>2026-05-06T13:43:57Z</time></trkpt><trkpt lat="43.218620939556814" lon="0.39461420158587257"><ele>366.0</ele><time>2026-05-06T13:43:58Z</time></trkpt><trkpt lat="43.21866246233057" lon="0.39472811984889977"><ele>366.0</ele><time>2026-05-06T13:43:59Z</time></trkpt><trkpt lat="43.21870182753861" lon="0.39484099112938104"><ele>366.0</ele><time>2026-05-06T13:44:00Z</time></trkpt><trkpt lat="43.218739205067706" lon="0.39495687259236145"><ele>366.4</ele><time>2026-05-06T13:44:01Z</time></trkpt><trkpt lat="43.21877373810256" lon="0.39507275167871353"><ele>366.8</ele><time>2026-05-06T13:44:02Z</time></trkpt><trkpt lat="43.21880685624471" lon="0.395192283522802"><ele>367.2</ele><time>2026-05-06T13:44:03Z</time></trkpt><trkpt lat="43.21884868892635" lon="0.39530697600420045"><ele>367.59999999999997</ele><time>2026-05-06T13:44:04Z</time></trkpt><trkpt lat="43.21893130267339" lon="0.39538299418956896"><ele>368.0</ele><time>2026-05-06T13:44:05Z</time></trkpt><trkpt lat="43.21901119079132" lon="0.3954394614377944"><ele>368.0</ele><time>2026-05-06T13:44:06Z</time></trkpt><trkpt lat="43.2190932800085" lon="0.3954550923051957"><ele>368.0</ele><time>2026-05-06T13:44:07Z</time></trkpt><trkpt lat="43.21917571742267" lon="0.3954634520549029"><ele>368.0</ele><time>2026-05-06T13:44:08Z</time></trkpt><trkpt lat="43.219251061473145" lon="0.39545228047051134"><ele>368.0</ele><time>2026-05-06T13:44:09Z</time></trkpt><trkpt lat="43.21932293677166" lon="0.39543609157809373"><ele>368.0</ele><time>2026-05-06T13:44:10Z</time></trkpt><trkpt lat="43.21939299082296" lon="0.3954170278395252"><ele>368.0</ele><time>2026-05-06T13:44:11Z</time></trkpt><trkpt lat="43.219458026033955" lon="0.39540538629571387"><ele>368.0</ele><time>2026-05-06T13:44:12Z</time></trkpt><trkpt lat="43.219529531455315" lon="0.39540669613067075"><ele>368.0</ele><time>2026-05-06T13:44:13Z</time></trkpt><trkpt lat="43.21959726397587" lon="0.395401881454425"><ele>368.0</ele><time>2026-05-06T13:44:14Z</time></trkpt><trkpt lat="43.21966451118797" lon="0.395396183242109"><ele>368.0</ele><time>2026-05-06T13:44:15Z</time></trkpt><trkpt lat="43.21972873112655" lon="0.39539299371532943"><ele>368.0</ele><time>2026-05-06T13:44:16Z</time></trkpt><trkpt lat="43.21979377752418" lon="0.3953915642048293"><ele>368.0</ele><time>2026-05-06T13:44:17Z</time></trkpt><trkpt lat="43.21985933199207" lon="0.395392740878341"><ele>368.0</ele><time>2026-05-06T13:44:18Z</time></trkpt><trkpt lat="43.21992532212379" lon="0.39539148944637703"><ele>367.59999999999997</ele><time>2026-05-06T13:44:19Z</time></trkpt><trkpt lat="43.21998913505732" lon="0.39539006822916745"><ele>367.2</ele><time>2026-05-06T13:44:20Z</time></trkpt><trkpt lat="43.22011209989777" lon="0.39539172489609326"><ele>366.8</ele><time>2026-05-06T13:44:22Z</time></trkpt><trkpt lat="43.220231074642335" lon="0.3953945655422747"><ele>366.4</ele><time>2026-05-06T13:44:24Z</time></trkpt><trkpt lat="43.220346118511436" lon="0.3954050962450838"><ele>366.0</ele><time>2026-05-06T13:44:26Z</time></trkpt><trkpt lat="43.2204587958241" lon="0.39541318574126993"><ele>366.0</ele><time>2026-05-06T13:44:28Z</time></trkpt><trkpt lat="43.22057363114566" lon="0.3954163735833387"><ele>366.0</ele><time>2026-05-06T13:44:30Z</time></trkpt><trkpt lat="43.22069584946075" lon="0.39542934335367164"><ele>366.0</ele><time>2026-05-06T13:44:32Z</time></trkpt><trkpt lat="43.22082293627582" lon="0.3954484473719433"><ele>366.0</ele><time>2026-05-06T13:44:34Z</time></trkpt><trkpt lat="43.22089183633403" lon="0.39546328390393043"><ele>366.0</ele><time>2026-05-06T13:44:35Z</time></trkpt><trkpt lat="43.220962287584754" lon="0.395489034332461"><ele>365.0</ele><time>2026-05-06T13:44:36Z</time></trkpt><trkpt lat="43.221034127740616" lon="0.3955197204225211"><ele>364.0</ele><time>2026-05-06T13:44:37Z</time></trkpt><trkpt lat="43.221108943252766" lon="0.3955505021287545"><ele>363.0</ele><time>2026-05-06T13:44:38Z</time></trkpt><trkpt lat="43.22118699400286" lon="0.39558233089864314"><ele>362.0</ele><time>2026-05-06T13:44:39Z</time></trkpt><trkpt lat="43.22126429281371" lon="0.39562193792788963"><ele>361.0</ele><time>2026-05-06T13:44:40Z</time></trkpt><trkpt lat="43.22134444211488" lon="0.3956622722861282"><ele>360.0</ele><time>2026-05-06T13:44:41Z</time></trkpt><trkpt lat="43.22141838388694" lon="0.3957266104673185"><ele>360.0</ele><time>2026-05-06T13:44:42Z</time></trkpt><trkpt lat="43.22149902142672" lon="0.3957687066352395"><ele>360.0</ele><time>2026-05-06T13:44:43Z</time></trkpt><trkpt lat="43.2215783726994" lon="0.3958044735468593"><ele>360.0</ele><time>2026-05-06T13:44:44Z</time></trkpt><trkpt lat="43.22165507346688" lon="0.3958356415920219"><ele>360.0</ele><time>2026-05-06T13:44:45Z</time></trkpt><trkpt lat="43.221718271161734" lon="0.3958670142557111"><ele>360.0</ele><time>2026-05-06T13:44:46Z</time></trkpt><trkpt lat="43.22174982198935" lon="0.3960745143296712"><ele>360.0</ele><time>2026-05-06T13:44:48Z</time></trkpt><trkpt lat="43.221774412895776" lon="0.3961852161856616"><ele>360.0</ele><time>2026-05-06T13:44:49Z</time></trkpt><trkpt lat="43.221798714412" lon="0.3962946152706239"><ele>360.0</ele><time>2026-05-06T13:44:50Z</time></trkpt><trkpt lat="43.221823497536235" lon="0.3964061825030708"><ele>360.0</ele><time>2026-05-06T13:44:51Z</time></trkpt><trkpt lat="43.22184988294946" lon="0.39652232478455524"><ele>360.0</ele><time>2026-05-06T13:44:52Z</time></trkpt><trkpt lat="43.221877118901936" lon="0.3966402345628931"><ele>360.0</ele><time>2026-05-06T13:44:53Z</time></trkpt><trkpt lat="43.221904266209194" lon="0.3967577606002436"><ele>359.4</ele><time>2026-05-06T13:44:54Z</time></trkpt><trkpt lat="43.22193208794386" lon="0.3968782063072602"><ele>358.8</ele><time>2026-05-06T13:44:55Z</time></trkpt><trkpt lat="43.221960681616395" lon="0.39700199388765234"><ele>358.20000000000005</ele><time>2026-05-06T13:44:56Z</time></trkpt><trkpt lat="43.22198939541455" lon="0.39712630155793055"><ele>357.6</ele><time>2026-05-06T13:44:57Z</time></trkpt><trkpt lat="43.22201878194485" lon="0.397253521576108"><ele>357.0</ele><time>2026-05-06T13:44:58Z</time></trkpt><trkpt lat="43.22206318477479" lon="0.3973768813783182"><ele>356.40000000000003</ele><time>2026-05-06T13:44:59Z</time></trkpt><trkpt lat="43.222092517862215" lon="0.3975075825771584"><ele>355.8</ele><time>2026-05-06T13:45:00Z</time></trkpt><trkpt lat="43.22212261075321" lon="0.39764198793824956"><ele>355.2</ele><time>2026-05-06T13:45:01Z</time></trkpt><trkpt lat="43.222146882408595" lon="0.3977783251933082"><ele>354.6</ele><time>2026-05-06T13:45:02Z</time></trkpt><trkpt lat="43.22217464243318" lon="0.3979153164351885"><ele>354.0</ele><time>2026-05-06T13:45:03Z</time></trkpt><trkpt lat="43.222200559450755" lon="0.3980540085925248"><ele>353.2</ele><time>2026-05-06T13:45:04Z</time></trkpt><trkpt lat="43.222225540567145" lon="0.3981911717762436"><ele>352.4</ele><time>2026-05-06T13:45:05Z</time></trkpt><trkpt lat="43.22224244941392" lon="0.3983308701494013"><ele>351.6</ele><time>2026-05-06T13:45:06Z</time></trkpt><trkpt lat="43.222256687275056" lon="0.39847612759353285"><ele>350.8</ele><time>2026-05-06T13:45:07Z</time></trkpt><trkpt lat="43.222270379486794" lon="0.39862015246833454"><ele>350.0</ele><time>2026-05-06T13:45:08Z</time></trkpt><trkpt lat="43.22228042630583" lon="0.3987641136280481"><ele>349.6</ele><time>2026-05-06T13:45:09Z</time></trkpt><trkpt lat="43.222292911756995" lon="0.3989054082201153"><ele>349.2</ele><time>2026-05-06T13:45:10Z</time></trkpt><trkpt lat="43.222304799243744" lon="0.39905056645651227"><ele>348.79999999999995</ele><time>2026-05-06T13:45:11Z</time></trkpt><trkpt lat="43.22231321073545" lon="0.39919618253165784"><ele>348.4</ele><time>2026-05-06T13:45:12Z</time></trkpt><trkpt lat="43.22232057171159" lon="0.3993449782544917"><ele>348.0</ele><time>2026-05-06T13:45:13Z</time></trkpt><trkpt lat="43.22233227566659" lon="0.39949687478650087"><ele>347.0</ele><time>2026-05-06T13:45:14Z</time></trkpt><trkpt lat="43.22234034368345" lon="0.3996530242366951"><ele>346.0</ele><time>2026-05-06T13:45:15Z</time></trkpt><trkpt lat="43.22234649948236" lon="0.3998117156281082"><ele>345.0</ele><time>2026-05-06T13:45:16Z</time></trkpt><trkpt lat="43.22235597291373" lon="0.39997218048137323"><ele>344.0</ele><time>2026-05-06T13:45:17Z</time></trkpt><trkpt lat="43.2223666979393" lon="0.40013294400990534"><ele>343.6</ele><time>2026-05-06T13:45:18Z</time></trkpt><trkpt lat="43.22237416260728" lon="0.4002937467447018"><ele>343.2</ele><time>2026-05-06T13:45:19Z</time></trkpt><trkpt lat="43.22238132465509" lon="0.40043780340605195"><ele>342.8</ele><time>2026-05-06T13:45:20Z</time></trkpt><trkpt lat="43.22238422064511" lon="0.40057019365244284"><ele>342.40000000000003</ele><time>2026-05-06T13:45:21Z</time></trkpt><trkpt lat="43.22239962708906" lon="0.4006928592232872"><ele>342.0</ele><time>2026-05-06T13:45:22Z</time></trkpt><trkpt lat="43.22242942301832" lon="0.4008116766558567"><ele>341.6</ele><time>2026-05-06T13:45:23Z</time></trkpt><trkpt lat="43.222483242688355" lon="0.4009139549717841"><ele>341.20000000000005</ele><time>2026-05-06T13:45:24Z</time></trkpt><trkpt lat="43.22255046039629" lon="0.4009988409163579"><ele>340.8</ele><time>2026-05-06T13:45:25Z</time></trkpt><trkpt lat="43.2226143846219" lon="0.40109236687767785"><ele>340.4</ele><time>2026-05-06T13:45:26Z</time></trkpt><trkpt lat="43.22268502617832" lon="0.4011738468450331"><ele>340.0</ele><time>2026-05-06T13:45:27Z</time></trkpt><trkpt lat="43.22276484296774" lon="0.4012349095713347"><ele>339.6</ele><time>2026-05-06T13:45:28Z</time></trkpt><trkpt lat="43.22282767245886" lon="0.40133500162715385"><ele>339.2</ele><time>2026-05-06T13:45:29Z</time></trkpt><trkpt lat="43.22290211035605" lon="0.4014165724357576"><ele>338.79999999999995</ele><time>2026-05-06T13:45:30Z</time></trkpt><trkpt lat="43.22297514123697" lon="0.401496531284075"><ele>338.4</ele><time>2026-05-06T13:45:31Z</time></trkpt><trkpt lat="43.223048580989726" lon="0.4015741990927059"><ele>338.0</ele><time>2026-05-06T13:45:32Z</time></trkpt><trkpt lat="43.22312385316936" lon="0.4016509688798221"><ele>338.1666666666667</ele><time>2026-05-06T13:45:33Z</time></trkpt><trkpt lat="43.2231988259159" lon="0.4017262367906762"><ele>338.33333333333337</ele><time>2026-05-06T13:45:34Z</time></trkpt><trkpt lat="43.22328380774349" lon="0.4017801765358585"><ele>338.5</ele><time>2026-05-06T13:45:35Z</time></trkpt><trkpt lat="43.22335805080739" lon="0.401852379056618"><ele>338.6666666666667</ele><time>2026-05-06T13:45:36Z</time></trkpt><trkpt lat="43.223424475245075" lon="0.40191882267507445"><ele>338.8333333333333</ele><time>2026-05-06T13:45:37Z</time></trkpt><trkpt lat="43.22348119339106" lon="0.40198052520808836"><ele>339.0</ele><time>2026-05-06T13:45:38Z</time></trkpt><trkpt lat="43.223568010120424" lon="0.40205453695514803"><ele>339.0</ele><time>2026-05-06T13:45:40Z</time></trkpt><trkpt lat="43.22352271549372" lon="0.4022395703525746"><ele>339.0</ele><time>2026-05-06T13:45:43Z</time></trkpt><trkpt lat="43.22349157934954" lon="0.4023308603167358"><ele>339.0</ele><time>2026-05-06T13:45:45Z</time></trkpt><trkpt lat="43.2234588211742" lon="0.4024289930361816"><ele>339.0</ele><time>2026-05-06T13:45:47Z</time></trkpt><trkpt lat="43.223417618561" lon="0.40252813182922154"><ele>339.0</ele><time>2026-05-06T13:45:49Z</time></trkpt><trkpt lat="43.223366341561864" lon="0.4026551895124979"><ele>339.0</ele><time>2026-05-06T13:45:51Z</time></trkpt><trkpt lat="43.22332259228462" lon="0.4027946576002008"><ele>339.0</ele><time>2026-05-06T13:45:53Z</time></trkpt><trkpt lat="43.223277736868624" lon="0.4029455158340439"><ele>339.0</ele><time>2026-05-06T13:45:55Z</time></trkpt><trkpt lat="43.22321024350946" lon="0.40304632800896756"><ele>339.0</ele><time>2026-05-06T13:45:57Z</time></trkpt><trkpt lat="43.22315581505397" lon="0.4031595827667217"><ele>339.0</ele><time>2026-05-06T13:45:59Z</time></trkpt><trkpt lat="43.22309985003951" lon="0.4032518960085259"><ele>339.1666666666667</ele><time>2026-05-06T13:46:01Z</time></trkpt><trkpt lat="43.22303869363551" lon="0.4033307575793479"><ele>339.3333333333333</ele><time>2026-05-06T13:46:03Z</time></trkpt><trkpt lat="43.22299943384327" lon="0.4034204971355548"><ele>339.5</ele><time>2026-05-06T13:46:05Z</time></trkpt><trkpt lat="43.222961780952446" lon="0.4035064273493466"><ele>339.66666666666663</ele><time>2026-05-06T13:46:07Z</time></trkpt><trkpt lat="43.222925905862205" lon="0.4036032071856078"><ele>339.8333333333333</ele><time>2026-05-06T13:46:09Z</time></trkpt><trkpt lat="43.22290137246654" lon="0.4036919888546947"><ele>340.0</ele><time>2026-05-06T13:46:11Z</time></trkpt><trkpt lat="43.22284944132544" lon="0.40379567258483373"><ele>341.0</ele><time>2026-05-06T13:46:14Z</time></trkpt><trkpt lat="43.222819849670735" lon="0.4039001918183062"><ele>342.0</ele><time>2026-05-06T13:46:17Z</time></trkpt><trkpt lat="43.22278609577709" lon="0.4039875760074589"><ele>343.0</ele><time>2026-05-06T13:46:20Z</time></trkpt><trkpt lat="43.22271862371835" lon="0.4040697331875655"><ele>344.0</ele><time>2026-05-06T13:46:25Z</time></trkpt><trkpt lat="43.22264448965486" lon="0.4041184410224781"><ele>345.0</ele><time>2026-05-06T13:46:29Z</time></trkpt><trkpt lat="43.22257996713522" lon="0.4041732166404098"><ele>346.0</ele><time>2026-05-06T13:46:32Z</time></trkpt><trkpt lat="43.2225011707681" lon="0.4042034653766172"><ele>346.0</ele><time>2026-05-06T13:46:36Z</time></trkpt><trkpt lat="43.22243634242918" lon="0.4042109076734435"><ele>346.0</ele><time>2026-05-06T13:46:39Z</time></trkpt><trkpt lat="43.22235609522834" lon="0.4042131416586662"><ele>346.0</ele><time>2026-05-06T13:46:42Z</time></trkpt><trkpt lat="43.222281630119184" lon="0.4042158771886031"><ele>346.0</ele><time>2026-05-06T13:46:45Z</time></trkpt><trkpt lat="43.22219705525859" lon="0.4042062114264608"><ele>346.0</ele><time>2026-05-06T13:46:49Z</time></trkpt><trkpt lat="43.222128851314274" lon="0.40420760393194927"><ele>346.0</ele><time>2026-05-06T13:46:52Z</time></trkpt><trkpt lat="43.22204189272193" lon="0.40419339363939316"><ele>346.57142857142856</ele><time>2026-05-06T13:46:56Z</time></trkpt><trkpt lat="43.22196588837666" lon="0.40418262995389653"><ele>347.14285714285717</ele><time>2026-05-06T13:47:00Z</time></trkpt><trkpt lat="43.221887014314305" lon="0.4041952235878785"><ele>347.7142857142857</ele><time>2026-05-06T13:47:04Z</time></trkpt><trkpt lat="43.221823141325395" lon="0.404185169653783"><ele>348.2857142857143</ele><time>2026-05-06T13:47:07Z</time></trkpt><trkpt lat="43.22175763494246" lon="0.4041978569508954"><ele>348.8571428571429</ele><time>2026-05-06T13:47:10Z</time></trkpt><trkpt lat="43.22169643862431" lon="0.40424862254350113"><ele>349.42857142857144</ele><time>2026-05-06T13:47:14Z</time></trkpt><trkpt lat="43.22165697858795" lon="0.4043428396030357"><ele>350.0</ele><time>2026-05-06T13:47:18Z</time></trkpt><trkpt lat="43.22165305312232" lon="0.40443908206834095"><ele>350.0</ele><time>2026-05-06T13:47:22Z</time></trkpt><trkpt lat="43.22167288594769" lon="0.40453461255687484"><ele>350.0</ele><time>2026-05-06T13:47:26Z</time></trkpt><trkpt lat="43.22171353588255" lon="0.4046155988285073"><ele>350.0</ele><time>2026-05-06T13:47:30Z</time></trkpt><trkpt lat="43.221775947189286" lon="0.40467336217780714"><ele>350.0</ele><time>2026-05-06T13:47:34Z</time></trkpt><trkpt lat="43.22185446628258" lon="0.40472053472038794"><ele>350.0</ele><time>2026-05-06T13:47:38Z</time></trkpt><trkpt lat="43.22191865554508" lon="0.4047630034339953"><ele>350.0</ele><time>2026-05-06T13:47:42Z</time></trkpt><trkpt lat="43.22197839996612" lon="0.40480023244542934"><ele>350.0</ele><time>2026-05-06T13:47:45Z</time></trkpt><trkpt lat="43.222047515605716" lon="0.4048466357591451"><ele>351.57142857142856</ele><time>2026-05-06T13:47:49Z</time></trkpt><trkpt lat="43.22212182933031" lon="0.4048691519361482"><ele>353.1428571428571</ele><time>2026-05-06T13:47:52Z</time></trkpt><trkpt lat="43.222187210314196" lon="0.40492637237787804"><ele>354.7142857142857</ele><time>2026-05-06T13:47:56Z</time></trkpt><trkpt lat="43.222257314886264" lon="0.40497278978430895"><ele>356.2857142857143</ele><time>2026-05-06T13:48:00Z</time></trkpt><trkpt lat="43.222318686738504" lon="0.40503529619663436"><ele>357.85714285714283</ele><time>2026-05-06T13:48:04Z</time></trkpt><trkpt lat="43.222377202101306" lon="0.405089318214896"><ele>359.42857142857144</ele><time>2026-05-06T13:48:07Z</time></trkpt><trkpt lat="43.222431641126995" lon="0.40514249135932906"><ele>361.0</ele><time>2026-05-06T13:48:10Z</time></trkpt><trkpt lat="43.222492231291724" lon="0.4052117491609761"><ele>361.0</ele><time>2026-05-06T13:48:14Z</time></trkpt><trkpt lat="43.22255186371834" lon="0.4052968853578371"><ele>361.0</ele><time>2026-05-06T13:48:18Z</time></trkpt><trkpt lat="43.222607724869476" lon="0.40537692198327063"><ele>361.0</ele><time>2026-05-06T13:48:22Z</time></trkpt><trkpt lat="43.222650501199915" lon="0.40546612165606527"><ele>361.0</ele><time>2026-05-06T13:48:26Z</time></trkpt><trkpt lat="43.22269161764138" lon="0.40553199450477573"><ele>361.0</ele><time>2026-05-06T13:48:29Z</time></trkpt><trkpt lat="43.222720222197" lon="0.4056287775459282"><ele>361.0</ele><time>2026-05-06T13:48:33Z</time></trkpt><trkpt lat="43.22274992266915" lon="0.4057223337605717"><ele>363.0</ele><time>2026-05-06T13:48:37Z</time></trkpt><trkpt lat="43.222794823545215" lon="0.40581754788987506"><ele>365.0</ele><time>2026-05-06T13:48:41Z</time></trkpt><trkpt lat="43.22283767976078" lon="0.40591413090378897"><ele>367.0</ele><time>2026-05-06T13:48:45Z</time></trkpt><trkpt lat="43.22287137204594" lon="0.40599111724966797"><ele>369.0</ele><time>2026-05-06T13:48:48Z</time></trkpt><trkpt lat="43.222926024605854" lon="0.40607359893089257"><ele>371.0</ele><time>2026-05-06T13:48:52Z</time></trkpt><trkpt lat="43.222969500627585" lon="0.40617328858607593"><ele>373.0</ele><time>2026-05-06T13:48:56Z</time></trkpt><trkpt lat="43.223005878303795" lon="0.40625192852436537"><ele>373.0</ele><time>2026-05-06T13:48:59Z</time></trkpt><trkpt lat="43.22305010661353" lon="0.4063210411556072"><ele>373.0</ele><time>2026-05-06T13:49:02Z</time></trkpt><trkpt lat="43.2230842563686" lon="0.4063939702009952"><ele>373.0</ele><time>2026-05-06T13:49:05Z</time></trkpt><trkpt lat="43.223121288236" lon="0.40647406620892557"><ele>373.0</ele><time>2026-05-06T13:49:08Z</time></trkpt><trkpt lat="43.22314990994433" lon="0.40657094085037027"><ele>373.0</ele><time>2026-05-06T13:49:12Z</time></trkpt><trkpt lat="43.22318655009845" lon="0.40664457554847677"><ele>373.0</ele><time>2026-05-06T13:49:15Z</time></trkpt><trkpt lat="43.22322474700652" lon="0.4067165707442898"><ele>373.0</ele><time>2026-05-06T13:49:18Z</time></trkpt><trkpt lat="43.223266303356354" lon="0.4067865901991926"><ele>373.0</ele><time>2026-05-06T13:49:21Z</time></trkpt><trkpt lat="43.22328520886687" lon="0.40687951218252383"><ele>373.0</ele><time>2026-05-06T13:49:26Z</time></trkpt><trkpt lat="43.2233170688157" lon="0.4069691706655097"><ele>373.0</ele><time>2026-05-06T13:49:29Z</time></trkpt><trkpt lat="43.22335011349453" lon="0.4070544700019549"><ele>373.0</ele><time>2026-05-06T13:49:33Z</time></trkpt><trkpt lat="43.22336930303165" lon="0.40718010407217686"><ele>373.0</ele><time>2026-05-06T13:49:38Z</time></trkpt><trkpt lat="43.22334401728994" lon="0.40726099746337524"><ele>373.0</ele><time>2026-05-06T13:49:42Z</time></trkpt><trkpt lat="43.22333165622067" lon="0.4073561063595968"><ele>373.0</ele><time>2026-05-06T13:49:46Z</time></trkpt><trkpt lat="43.22332267456395" lon="0.4074754710995553"><ele>373.42857142857144</ele><time>2026-05-06T13:49:50Z</time></trkpt><trkpt lat="43.22332247301167" lon="0.4075785369112324"><ele>373.8571428571429</ele><time>2026-05-06T13:49:54Z</time></trkpt><trkpt lat="43.22330928643191" lon="0.40767761110857026"><ele>374.2857142857143</ele><time>2026-05-06T13:49:58Z</time></trkpt><trkpt lat="43.22328432337294" lon="0.40777485478977443"><ele>374.7142857142857</ele><time>2026-05-06T13:50:02Z</time></trkpt><trkpt lat="43.22323441637957" lon="0.40784328023547367"><ele>375.1428571428571</ele><time>2026-05-06T13:50:06Z</time></trkpt><trkpt lat="43.223166466003285" lon="0.4078591975074252"><ele>375.57142857142856</ele><time>2026-05-06T13:50:10Z</time></trkpt><trkpt lat="43.22308224106044" lon="0.4078645370793334"><ele>376.0</ele><time>2026-05-06T13:50:14Z</time></trkpt><trkpt lat="43.22300973308761" lon="0.40786188331448103"><ele>376.8333333333333</ele><time>2026-05-06T13:50:17Z</time></trkpt><trkpt lat="43.222934945304864" lon="0.40786114294237463"><ele>377.66666666666663</ele><time>2026-05-06T13:50:20Z</time></trkpt><trkpt lat="43.22285070377762" lon="0.40785691942228436"><ele>378.5</ele><time>2026-05-06T13:50:24Z</time></trkpt><trkpt lat="43.22277642985792" lon="0.40785563677149683"><ele>379.3333333333333</ele><time>2026-05-06T13:50:27Z</time></trkpt><trkpt lat="43.22270365054486" lon="0.4078314115253702"><ele>380.1666666666667</ele><time>2026-05-06T13:50:30Z</time></trkpt><trkpt lat="43.222623752483976" lon="0.4078286382048547"><ele>381.0</ele><time>2026-05-06T13:50:33Z</time></trkpt><trkpt lat="43.222542173916146" lon="0.4078208950543063"><ele>381.0</ele><time>2026-05-06T13:50:36Z</time></trkpt><trkpt lat="43.222465013416354" lon="0.40781037928610336"><ele>381.0</ele><time>2026-05-06T13:50:39Z</time></trkpt><trkpt lat="43.222386552675175" lon="0.40780131034759803"><ele>381.0</ele><time>2026-05-06T13:50:42Z</time></trkpt><trkpt lat="43.2223123367773" lon="0.4078030364225914"><ele>381.0</ele><time>2026-05-06T13:50:45Z</time></trkpt><trkpt lat="43.222220044857174" lon="0.4078031423088368"><ele>381.0</ele><time>2026-05-06T13:50:48Z</time></trkpt><trkpt lat="43.222154459450756" lon="0.40780636721746794"><ele>381.0</ele><time>2026-05-06T13:50:51Z</time></trkpt><trkpt lat="43.222053207926535" lon="0.4078032590303476"><ele>380.8333333333333</ele><time>2026-05-06T13:50:54Z</time></trkpt><trkpt lat="43.221974598690416" lon="0.4077772234585234"><ele>380.6666666666667</ele><time>2026-05-06T13:50:57Z</time></trkpt><trkpt lat="43.22187754853858" lon="0.40777406187899573"><ele>380.5</ele><time>2026-05-06T13:51:00Z</time></trkpt><trkpt lat="43.22179792999613" lon="0.4077624702706275"><ele>380.33333333333337</ele><time>2026-05-06T13:51:02Z</time></trkpt><trkpt lat="43.22173304775785" lon="0.40776119462203864"><ele>380.1666666666667</ele><time>2026-05-06T13:51:04Z</time></trkpt><trkpt lat="43.22166605107901" lon="0.40775449580793205"><ele>380.0</ele><time>2026-05-06T13:51:06Z</time></trkpt><trkpt lat="43.22160125261962" lon="0.4077524017155782"><ele>380.0</ele><time>2026-05-06T13:51:08Z</time></trkpt><trkpt lat="43.22153675416009" lon="0.40774287475532994"><ele>380.0</ele><time>2026-05-06T13:51:10Z</time></trkpt><trkpt lat="43.221446562238356" lon="0.40774750231866846"><ele>380.0</ele><time>2026-05-06T13:51:13Z</time></trkpt><trkpt lat="43.22136002451923" lon="0.40770163798314196"><ele>380.0</ele><time>2026-05-06T13:51:16Z</time></trkpt><trkpt lat="43.221292808408855" lon="0.4077033540819263"><ele>380.0</ele><time>2026-05-06T13:51:18Z</time></trkpt><trkpt lat="43.22120469147961" lon="0.4076764903257184"><ele>380.0</ele><time>2026-05-06T13:51:21Z</time></trkpt><trkpt lat="43.22113399204048" lon="0.4076741121765308"><ele>380.0</ele><time>2026-05-06T13:51:23Z</time></trkpt><trkpt lat="43.22104831877956" lon="0.40767173006950297"><ele>380.0</ele><time>2026-05-06T13:51:25Z</time></trkpt><trkpt lat="43.22095176273414" lon="0.4076545777586484"><ele>380.0</ele><time>2026-05-06T13:51:27Z</time></trkpt><trkpt lat="43.22083708155268" lon="0.40763277519738084"><ele>380.0</ele><time>2026-05-06T13:51:29Z</time></trkpt><trkpt lat="43.22072736563185" lon="0.4076058348841198"><ele>380.0</ele><time>2026-05-06T13:51:31Z</time></trkpt><trkpt lat="43.22062944177092" lon="0.40758569390052113"><ele>379.8</ele><time>2026-05-06T13:51:33Z</time></trkpt><trkpt lat="43.2205366812901" lon="0.4075709065243844"><ele>379.6</ele><time>2026-05-06T13:51:35Z</time></trkpt><trkpt lat="43.22043470504309" lon="0.40753447236400225"><ele>379.4</ele><time>2026-05-06T13:51:37Z</time></trkpt><trkpt lat="43.22034835320866" lon="0.4075120847440986"><ele>379.2</ele><time>2026-05-06T13:51:39Z</time></trkpt><trkpt lat="43.220264790853555" lon="0.40750050249160413"><ele>379.0</ele><time>2026-05-06T13:51:41Z</time></trkpt><trkpt lat="43.22017880525169" lon="0.40746137799458243"><ele>379.00000000000006</ele><time>2026-05-06T13:51:43Z</time></trkpt><trkpt lat="43.22011591663296" lon="0.4074754818406052"><ele>379.0</ele><time>2026-05-06T13:51:47Z</time></trkpt><trkpt lat="43.22018516205269" lon="0.4075344861736034"><ele>379.0</ele><time>2026-05-06T13:51:51Z</time></trkpt><trkpt lat="43.22026834296968" lon="0.40755252749463766"><ele>379.0</ele><time>2026-05-06T13:51:55Z</time></trkpt><trkpt lat="43.22032970350394" lon="0.4075922365427771"><ele>379.0</ele><time>2026-05-06T13:51:58Z</time></trkpt><trkpt lat="43.22038839697133" lon="0.4076261502287866"><ele>379.00000000000006</ele><time>2026-05-06T13:52:01Z</time></trkpt><trkpt lat="43.22039963168913" lon="0.4077142541980537"><ele>379.0</ele><time>2026-05-06T13:52:04Z</time></trkpt><trkpt lat="43.22045991251266" lon="0.4076700852172617"><ele>379.0</ele><time>2026-05-06T13:55:04Z</time></trkpt><trkpt lat="43.220470392358436" lon="0.40756802122998964"><ele>379.0</ele><time>2026-05-06T13:55:28Z</time></trkpt><trkpt lat="43.220400268130184" lon="0.4075393931140329"><ele>379.0</ele><time>2026-05-06T13:55:30Z</time></trkpt><trkpt lat="43.22033196719851" lon="0.40751495456070363"><ele>379.0</ele><time>2026-05-06T13:55:33Z</time></trkpt><trkpt lat="43.22025672983561" lon="0.4075017881202194"><ele>379.0</ele><time>2026-05-06T13:55:35Z</time></trkpt><trkpt lat="43.220180896613286" lon="0.40749449432814744"><ele>379.0</ele><time>2026-05-06T13:55:37Z</time></trkpt><trkpt lat="43.22008595458695" lon="0.4074678583375052"><ele>379.0</ele><time>2026-05-06T13:55:40Z</time></trkpt><trkpt lat="43.220012193733766" lon="0.40745190295300804"><ele>379.0</ele><time>2026-05-06T13:55:42Z</time></trkpt><trkpt lat="43.219943089735615" lon="0.4074342204433493"><ele>379.0</ele><time>2026-05-06T13:55:44Z</time></trkpt><trkpt lat="43.21987007309821" lon="0.4074260916927502"><ele>379.0</ele><time>2026-05-06T13:55:46Z</time></trkpt><trkpt lat="43.219781891319116" lon="0.4073878307976225"><ele>379.0</ele><time>2026-05-06T13:55:48Z</time></trkpt><trkpt lat="43.2196794935021" lon="0.40735470464185325"><ele>379.0</ele><time>2026-05-06T13:55:51Z</time></trkpt><trkpt lat="43.21960223604406" lon="0.4073458492631788"><ele>379.3333333333333</ele><time>2026-05-06T13:55:53Z</time></trkpt><trkpt lat="43.21953351531406" lon="0.4073301871696158"><ele>379.66666666666663</ele><time>2026-05-06T13:55:55Z</time></trkpt><trkpt lat="43.21945731387216" lon="0.4073113049205101"><ele>380.0</ele><time>2026-05-06T13:55:57Z</time></trkpt><trkpt lat="43.21937302801354" lon="0.4072947006188747"><ele>380.3333333333333</ele><time>2026-05-06T13:55:59Z</time></trkpt><trkpt lat="43.2192991591768" lon="0.4072745361397014"><ele>380.6666666666667</ele><time>2026-05-06T13:56:01Z</time></trkpt><trkpt lat="43.21921108843821" lon="0.4072607732084795"><ele>381.0</ele><time>2026-05-06T13:56:03Z</time></trkpt><trkpt lat="43.21914020802153" lon="0.4072286863663899"><ele>381.0</ele><time>2026-05-06T13:56:06Z</time></trkpt><trkpt lat="43.219059151956024" lon="0.40722325054781183"><ele>381.0</ele><time>2026-05-06T13:56:09Z</time></trkpt><trkpt lat="43.21897936593256" lon="0.40718904469983763"><ele>381.0</ele><time>2026-05-06T13:56:12Z</time></trkpt><trkpt lat="43.21891306188662" lon="0.4071472165092703"><ele>381.0</ele><time>2026-05-06T13:56:15Z</time></trkpt><trkpt lat="43.21882948742622" lon="0.40708430049613226"><ele>381.0</ele><time>2026-05-06T13:56:18Z</time></trkpt><trkpt lat="43.218757872262906" lon="0.40700262871291915"><ele>381.0</ele><time>2026-05-06T13:56:21Z</time></trkpt><trkpt lat="43.2186908316574" lon="0.40695324618160766"><ele>381.3333333333333</ele><time>2026-05-06T13:56:23Z</time></trkpt><trkpt lat="43.21862543771266" lon="0.4069093818730661"><ele>381.6666666666667</ele><time>2026-05-06T13:56:25Z</time></trkpt><trkpt lat="43.21855581369528" lon="0.4068877508900703"><ele>382.0</ele><time>2026-05-06T13:56:27Z</time></trkpt><trkpt lat="43.21849283266432" lon="0.4068707437801803"><ele>382.33333333333337</ele><time>2026-05-06T13:56:29Z</time></trkpt><trkpt lat="43.21840842551298" lon="0.40683695683186494"><ele>382.6666666666667</ele><time>2026-05-06T13:56:32Z</time></trkpt><trkpt lat="43.21833480710796" lon="0.4067864228690994"><ele>383.0</ele><time>2026-05-06T13:56:35Z</time></trkpt><trkpt lat="43.21826002868388" lon="0.4067895664967379"><ele>383.0</ele><time>2026-05-06T13:56:38Z</time></trkpt><trkpt lat="43.21818112215911" lon="0.4067267799365917"><ele>383.0</ele><time>2026-05-06T13:56:41Z</time></trkpt><trkpt lat="43.21810903829935" lon="0.4067176651788198"><ele>383.0</ele><time>2026-05-06T13:56:44Z</time></trkpt><trkpt lat="43.2180422139676" lon="0.40665259798836934"><ele>383.0</ele><time>2026-05-06T13:56:47Z</time></trkpt><trkpt lat="43.2179676664287" lon="0.4066128122877829"><ele>383.0</ele><time>2026-05-06T13:56:50Z</time></trkpt><trkpt lat="43.217264007048556" lon="0.4063103599953412"><ele>383.25</ele><time>2026-05-06T13:56:51Z</time></trkpt><trkpt lat="43.21716265166401" lon="0.4062891834586502"><ele>383.5</ele><time>2026-05-06T13:56:53Z</time></trkpt><trkpt lat="43.217060867700155" lon="0.40627606967742297"><ele>383.75</ele><time>2026-05-06T13:56:55Z</time></trkpt><trkpt lat="43.2169617989678" lon="0.40625974154214695"><ele>384.0</ele><time>2026-05-06T13:56:57Z</time></trkpt><trkpt lat="43.21727018935298" lon="0.40649670812446054"><ele>381.0</ele><time>2026-05-06T13:56:59Z</time></trkpt><trkpt lat="43.2168185933646" lon="0.4062456879210097"><ele>381.0</ele><time>2026-05-06T13:57:00Z</time></trkpt><trkpt lat="43.21672577177983" lon="0.4062370360470978"><ele>381.0</ele><time>2026-05-06T13:57:02Z</time></trkpt><trkpt lat="43.21662974393855" lon="0.4062216442101134"><ele>381.0</ele><time>2026-05-06T13:57:04Z</time></trkpt><trkpt lat="43.21652730145445" lon="0.4062100597343014"><ele>381.0</ele><time>2026-05-06T13:57:06Z</time></trkpt><trkpt lat="43.21642368643271" lon="0.40620313126532887"><ele>381.0</ele><time>2026-05-06T13:57:08Z</time></trkpt><trkpt lat="43.21632014037434" lon="0.40620817233474443"><ele>381.5</ele><time>2026-05-06T13:57:10Z</time></trkpt><trkpt lat="43.21622043870215" lon="0.40623635439466754"><ele>382.0</ele><time>2026-05-06T13:57:12Z</time></trkpt><trkpt lat="43.21638680790564" lon="0.4064070045503092"><ele>382.5</ele><time>2026-05-06T13:57:14Z</time></trkpt><trkpt lat="43.21630810895558" lon="0.4064249015280471"><ele>383.0</ele><time>2026-05-06T13:57:16Z</time></trkpt><trkpt lat="43.21619439775908" lon="0.4064319245836463"><ele>382.0</ele><time>2026-05-06T13:57:18Z</time></trkpt><trkpt lat="43.21608797221023" lon="0.40645373477446"><ele>381.0</ele><time>2026-05-06T13:57:20Z</time></trkpt><trkpt lat="43.21600109576156" lon="0.40647722506833184"><ele>380.0</ele><time>2026-05-06T13:57:22Z</time></trkpt><trkpt lat="43.21585542463735" lon="0.4064751052932373"><ele>379.0</ele><time>2026-05-06T13:57:24Z</time></trkpt><trkpt lat="43.21568760276039" lon="0.40651465077514987"><ele>378.0</ele><time>2026-05-06T13:57:25Z</time></trkpt><trkpt lat="43.21556975807707" lon="0.40654376214752297"><ele>377.0</ele><time>2026-05-06T13:57:26Z</time></trkpt><trkpt lat="43.21544413892535" lon="0.40657052557945844"><ele>376.0</ele><time>2026-05-06T13:57:27Z</time></trkpt><trkpt lat="43.215329386412634" lon="0.4065918236735585"><ele>375.0</ele><time>2026-05-06T13:57:28Z</time></trkpt><trkpt lat="43.21520253999882" lon="0.4065968129107231"><ele>375.0</ele><time>2026-05-06T13:57:29Z</time></trkpt><trkpt lat="43.21507385977863" lon="0.4065883953402602"><ele>375.0</ele><time>2026-05-06T13:57:30Z</time></trkpt><trkpt lat="43.21495144600432" lon="0.40658320022964084"><ele>375.0</ele><time>2026-05-06T13:57:31Z</time></trkpt><trkpt lat="43.21482728385188" lon="0.4065934480495154"><ele>375.0</ele><time>2026-05-06T13:57:32Z</time></trkpt><trkpt lat="43.214685362596796" lon="0.4066013535756923"><ele>374.25</ele><time>2026-05-06T13:57:33Z</time></trkpt><trkpt lat="43.21455701291185" lon="0.40661813627623267"><ele>373.5</ele><time>2026-05-06T13:57:34Z</time></trkpt><trkpt lat="43.214431614908335" lon="0.4066393595823251"><ele>372.75</ele><time>2026-05-06T13:57:35Z</time></trkpt><trkpt lat="43.214320702059766" lon="0.4066627980788516"><ele>372.0</ele><time>2026-05-06T13:57:36Z</time></trkpt><trkpt lat="43.21421516886405" lon="0.40669781743590566"><ele>372.0</ele><time>2026-05-06T13:57:37Z</time></trkpt><trkpt lat="43.214114167961306" lon="0.40673759690895384"><ele>372.0</ele><time>2026-05-06T13:57:38Z</time></trkpt><trkpt lat="43.214018532421925" lon="0.4067768164765972"><ele>372.0</ele><time>2026-05-06T13:57:39Z</time></trkpt><trkpt lat="43.21392489085443" lon="0.4068194731066203"><ele>372.0</ele><time>2026-05-06T13:57:40Z</time></trkpt><trkpt lat="43.213834798994654" lon="0.40684854326855063"><ele>372.0</ele><time>2026-05-06T13:57:41Z</time></trkpt><trkpt lat="43.21375342025116" lon="0.4068877173583724"><ele>371.8333333333333</ele><time>2026-05-06T13:57:42Z</time></trkpt><trkpt lat="43.2136719615174" lon="0.4069226769719191"><ele>371.6666666666667</ele><time>2026-05-06T13:57:43Z</time></trkpt><trkpt lat="43.21359318257187" lon="0.406963339259555"><ele>371.5</ele><time>2026-05-06T13:57:44Z</time></trkpt><trkpt lat="43.21351802132467" lon="0.4070018833102897"><ele>371.33333333333337</ele><time>2026-05-06T13:57:45Z</time></trkpt><trkpt lat="43.21344418188752" lon="0.4070398249492031"><ele>371.1666666666667</ele><time>2026-05-06T13:57:46Z</time></trkpt><trkpt lat="43.213374216605075" lon="0.4070749280805545"><ele>371.0</ele><time>2026-05-06T13:57:47Z</time></trkpt><trkpt lat="43.213309042010586" lon="0.4071022028232717"><ele>371.0</ele><time>2026-05-06T13:57:48Z</time></trkpt><trkpt lat="43.21324769640013" lon="0.4071354020628138"><ele>371.0</ele><time>2026-05-06T13:57:49Z</time></trkpt><trkpt lat="43.21318433836125" lon="0.40716306262022406"><ele>371.0</ele><time>2026-05-06T13:57:50Z</time></trkpt><trkpt lat="43.213072227783165" lon="0.4072181717755644"><ele>371.0</ele><time>2026-05-06T13:57:52Z</time></trkpt><trkpt lat="43.212957912422745" lon="0.40725945082814313"><ele>371.0</ele><time>2026-05-06T13:57:54Z</time></trkpt><trkpt lat="43.21285184178901" lon="0.407315253534224"><ele>371.20000000000005</ele><time>2026-05-06T13:57:56Z</time></trkpt><trkpt lat="43.212750534132624" lon="0.40736754332140596"><ele>371.40000000000003</ele><time>2026-05-06T13:57:58Z</time></trkpt><trkpt lat="43.212645755866234" lon="0.4074169686429823"><ele>371.6</ele><time>2026-05-06T13:58:00Z</time></trkpt><trkpt lat="43.21254733563632" lon="0.4074609545248871"><ele>371.8</ele><time>2026-05-06T13:58:02Z</time></trkpt><trkpt lat="43.21244042546711" lon="0.4075188171964625"><ele>372.0</ele><time>2026-05-06T13:58:04Z</time></trkpt><trkpt lat="43.212338614223775" lon="0.40756758176304414"><ele>372.20000000000005</ele><time>2026-05-06T13:58:06Z</time></trkpt><trkpt lat="43.21223413463962" lon="0.4076170617489587"><ele>372.4</ele><time>2026-05-06T13:58:08Z</time></trkpt><trkpt lat="43.21213286377752" lon="0.40766183729033156"><ele>372.6</ele><time>2026-05-06T13:58:10Z</time></trkpt><trkpt lat="43.21203137571788" lon="0.407715513959838"><ele>372.79999999999995</ele><time>2026-05-06T13:58:12Z</time></trkpt><trkpt lat="43.211935388264195" lon="0.40776084554417297"><ele>373.0</ele><time>2026-05-06T13:58:14Z</time></trkpt><trkpt lat="43.211833165388384" lon="0.4078118628631134"><ele>373.0</ele><time>2026-05-06T13:58:16Z</time></trkpt><trkpt lat="43.21172462947583" lon="0.40785497584856856"><ele>373.0</ele><time>2026-05-06T13:58:18Z</time></trkpt><trkpt lat="43.211621110394745" lon="0.4079006535652726"><ele>373.0</ele><time>2026-05-06T13:58:20Z</time></trkpt><trkpt lat="43.21152233269091" lon="0.40795869371814036"><ele>373.0</ele><time>2026-05-06T13:58:22Z</time></trkpt><trkpt lat="43.21141786992874" lon="0.4079863945608546"><ele>373.0</ele><time>2026-05-06T13:58:24Z</time></trkpt><trkpt lat="43.21136033645206" lon="0.40802708779104346"><ele>373.2</ele><time>2026-05-06T13:58:25Z</time></trkpt><trkpt lat="43.21126512027413" lon="0.40808000225791197"><ele>373.4</ele><time>2026-05-06T13:58:27Z</time></trkpt><trkpt lat="43.211156219304414" lon="0.40813321938771785"><ele>373.59999999999997</ele><time>2026-05-06T13:58:29Z</time></trkpt><trkpt lat="43.2110500287576" lon="0.40817310433390575"><ele>373.79999999999995</ele><time>2026-05-06T13:58:31Z</time></trkpt><trkpt lat="43.21093761560848" lon="0.40822483374809715"><ele>374.0</ele><time>2026-05-06T13:58:33Z</time></trkpt><trkpt lat="43.21083414996716" lon="0.4082789686001508"><ele>374.0</ele><time>2026-05-06T13:58:35Z</time></trkpt><trkpt lat="43.21073073111261" lon="0.4083431104848304"><ele>374.0</ele><time>2026-05-06T13:58:37Z</time></trkpt><trkpt lat="43.21063141808493" lon="0.4083908114119295"><ele>374.0</ele><time>2026-05-06T13:58:39Z</time></trkpt><trkpt lat="43.21052942619182" lon="0.40844540634929"><ele>374.0</ele><time>2026-05-06T13:58:41Z</time></trkpt><trkpt lat="43.21045745078088" lon="0.40850199033686463"><ele>374.0</ele><time>2026-05-06T13:58:43Z</time></trkpt><trkpt lat="43.21037483491762" lon="0.4085404133312412"><ele>374.2</ele><time>2026-05-06T13:58:45Z</time></trkpt><trkpt lat="43.2102818004321" lon="0.40858228920366185"><ele>374.4</ele><time>2026-05-06T13:58:47Z</time></trkpt><trkpt lat="43.21018317817904" lon="0.40863520510421397"><ele>374.6</ele><time>2026-05-06T13:58:49Z</time></trkpt><trkpt lat="43.21008708043578" lon="0.40867362684745595"><ele>374.8</ele><time>2026-05-06T13:58:51Z</time></trkpt><trkpt lat="43.209992856344535" lon="0.40872495418527577"><ele>375.0</ele><time>2026-05-06T13:58:53Z</time></trkpt><trkpt lat="43.209886532620935" lon="0.4087520243127412"><ele>375.2</ele><time>2026-05-06T13:58:55Z</time></trkpt><trkpt lat="43.20977669937278" lon="0.4087975969806375"><ele>375.4</ele><time>2026-05-06T13:58:57Z</time></trkpt><trkpt lat="43.20967465387062" lon="0.40883164435684394"><ele>375.6</ele><time>2026-05-06T13:58:59Z</time></trkpt><trkpt lat="43.20957316263781" lon="0.4088670223037431"><ele>375.8</ele><time>2026-05-06T13:59:01Z</time></trkpt><trkpt lat="43.20946719636882" lon="0.4088949950481563"><ele>376.0</ele><time>2026-05-06T13:59:03Z</time></trkpt><trkpt lat="43.20936544022176" lon="0.4089319176817441"><ele>375.5</ele><time>2026-05-06T13:59:05Z</time></trkpt><trkpt lat="43.209158630624394" lon="0.40899348229447874"><ele>375.0</ele><time>2026-05-06T13:59:07Z</time></trkpt><trkpt lat="43.20910274719412" lon="0.4090463848014293"><ele>374.5</ele><time>2026-05-06T13:59:08Z</time></trkpt><trkpt lat="43.20899370279308" lon="0.4091230135790761"><ele>374.0</ele><time>2026-05-06T13:59:10Z</time></trkpt><trkpt lat="43.20893271108405" lon="0.4091593743035348"><ele>373.85714285714283</ele><time>2026-05-06T13:59:11Z</time></trkpt><trkpt lat="43.208874603259865" lon="0.4092089948128211"><ele>373.7142857142857</ele><time>2026-05-06T13:59:12Z</time></trkpt><trkpt lat="43.20880704327485" lon="0.4092471472033233"><ele>373.57142857142856</ele><time>2026-05-06T13:59:13Z</time></trkpt><trkpt lat="43.208742528256174" lon="0.40928567009164113"><ele>373.42857142857144</ele><time>2026-05-06T13:59:14Z</time></trkpt><trkpt lat="43.20867847348082" lon="0.4093293250542311"><ele>373.28571428571433</ele><time>2026-05-06T13:59:15Z</time></trkpt><trkpt lat="43.208602891586" lon="0.409352501098848"><ele>373.14285714285717</ele><time>2026-05-06T13:59:16Z</time></trkpt><trkpt lat="43.20852948247397" lon="0.4093839273021349"><ele>373.0</ele><time>2026-05-06T13:59:17Z</time></trkpt><trkpt lat="43.20845303169625" lon="0.4094074547102357"><ele>373.0</ele><time>2026-05-06T13:59:18Z</time></trkpt><trkpt lat="43.20837615823939" lon="0.4094105115391017"><ele>373.0</ele><time>2026-05-06T13:59:19Z</time></trkpt><trkpt lat="43.20829989453003" lon="0.4094134142633449"><ele>373.0</ele><time>2026-05-06T13:59:20Z</time></trkpt><trkpt lat="43.20822107190544" lon="0.40942070572983097"><ele>373.0</ele><time>2026-05-06T13:59:21Z</time></trkpt><trkpt lat="43.20814758062734" lon="0.40941732935645575"><ele>373.0</ele><time>2026-05-06T13:59:22Z</time></trkpt><trkpt lat="43.20807638955722" lon="0.4094311695550606"><ele>373.0</ele><time>2026-05-06T13:59:23Z</time></trkpt><trkpt lat="43.207998534787066" lon="0.40943663542325304"><ele>372.66666666666663</ele><time>2026-05-06T13:59:24Z</time></trkpt><trkpt lat="43.20792062635203" lon="0.4094376306801958"><ele>372.3333333333333</ele><time>2026-05-06T13:59:25Z</time></trkpt><trkpt lat="43.2078460698654" lon="0.4094404345996148"><ele>372.0</ele><time>2026-05-06T13:59:26Z</time></trkpt><trkpt lat="43.20777459413302" lon="0.40946026143348246"><ele>371.6666666666667</ele><time>2026-05-06T13:59:27Z</time></trkpt><trkpt lat="43.207650285990304" lon="0.40947622626308894"><ele>371.33333333333337</ele><time>2026-05-06T13:59:29Z</time></trkpt><trkpt lat="43.207580475135366" lon="0.4094931468221606"><ele>371.0</ele><time>2026-05-06T13:59:30Z</time></trkpt><trkpt lat="43.20751527861714" lon="0.40950943652416466"><ele>371.0</ele><time>2026-05-06T13:59:31Z</time></trkpt><trkpt lat="43.20745036983945" lon="0.4095234836445206"><ele>371.0</ele><time>2026-05-06T13:59:32Z</time></trkpt><trkpt lat="43.20738487536695" lon="0.4095380737762529"><ele>371.0</ele><time>2026-05-06T13:59:33Z</time></trkpt><trkpt lat="43.20732110898392" lon="0.40955660240741415"><ele>371.0</ele><time>2026-05-06T13:59:34Z</time></trkpt><trkpt lat="43.207258509597985" lon="0.4095766397250496"><ele>371.0</ele><time>2026-05-06T13:59:35Z</time></trkpt><trkpt lat="43.20714078638177" lon="0.4096093635873723"><ele>371.0</ele><time>2026-05-06T13:59:37Z</time></trkpt><trkpt lat="43.20707783735226" lon="0.40963252014359786"><ele>371.0</ele><time>2026-05-06T13:59:38Z</time></trkpt><trkpt lat="43.206954480405265" lon="0.40968016074768004"><ele>370.1666666666667</ele><time>2026-05-06T13:59:40Z</time></trkpt><trkpt lat="43.2068942262486" lon="0.40972244486170906"><ele>369.33333333333337</ele><time>2026-05-06T13:59:41Z</time></trkpt><trkpt lat="43.206822803045455" lon="0.4097430393989513"><ele>368.5</ele><time>2026-05-06T13:59:42Z</time></trkpt><trkpt lat="43.20675749226044" lon="0.40979013799229563"><ele>367.6666666666667</ele><time>2026-05-06T13:59:43Z</time></trkpt><trkpt lat="43.20669467679521" lon="0.4098382604746113"><ele>366.8333333333333</ele><time>2026-05-06T13:59:44Z</time></trkpt><trkpt lat="43.20658184969056" lon="0.40993227018118117"><ele>366.0</ele><time>2026-05-06T13:59:46Z</time></trkpt><trkpt lat="43.20652479216194" lon="0.40998269031504286"><ele>366.1666666666667</ele><time>2026-05-06T13:59:47Z</time></trkpt><trkpt lat="43.20646740313432" lon="0.4100334033980342"><ele>366.3333333333333</ele><time>2026-05-06T13:59:48Z</time></trkpt><trkpt lat="43.206408465525456" lon="0.41008215406351106"><ele>366.5</ele><time>2026-05-06T13:59:49Z</time></trkpt><trkpt lat="43.20635101820335" lon="0.41012880375623173"><ele>366.66666666666663</ele><time>2026-05-06T13:59:50Z</time></trkpt><trkpt lat="43.20623067442047" lon="0.41022150877371977"><ele>366.8333333333333</ele><time>2026-05-06T13:59:52Z</time></trkpt><trkpt lat="43.20618239390408" lon="0.41027898855923967"><ele>367.0</ele><time>2026-05-06T13:59:53Z</time></trkpt><trkpt lat="43.206118958417974" lon="0.4103308188737622"><ele>367.0</ele><time>2026-05-06T13:59:54Z</time></trkpt><trkpt lat="43.20605508345217" lon="0.41036870648981594"><ele>367.0</ele><time>2026-05-06T13:59:55Z</time></trkpt><trkpt lat="43.20599673447581" lon="0.4104229991524172"><ele>367.0</ele><time>2026-05-06T13:59:56Z</time></trkpt><trkpt lat="43.20593367841382" lon="0.41047958779522964"><ele>367.0</ele><time>2026-05-06T13:59:57Z</time></trkpt><trkpt lat="43.205879912976044" lon="0.41054151946616196"><ele>367.0</ele><time>2026-05-06T13:59:58Z</time></trkpt><trkpt lat="43.20582467224337" lon="0.41060445075816193"><ele>367.0</ele><time>2026-05-06T13:59:59Z</time></trkpt><trkpt lat="43.20577232694726" lon="0.41067031066423443"><ele>367.0</ele><time>2026-05-06T14:00:00Z</time></trkpt><trkpt lat="43.20572782442657" lon="0.4107376322838644"><ele>366.8</ele><time>2026-05-06T14:00:01Z</time></trkpt><trkpt lat="43.20568553223993" lon="0.41081433101087506"><ele>366.6</ele><time>2026-05-06T14:00:02Z</time></trkpt><trkpt lat="43.2056508597432" lon="0.4108894433043631"><ele>366.40000000000003</ele><time>2026-05-06T14:00:03Z</time></trkpt><trkpt lat="43.205590150842895" lon="0.41103394658295156"><ele>366.20000000000005</ele><time>2026-05-06T14:00:05Z</time></trkpt><trkpt lat="43.205525897323106" lon="0.41116088963835035"><ele>366.0</ele><time>2026-05-06T14:00:07Z</time></trkpt><trkpt lat="43.20547956609468" lon="0.41129242270407096"><ele>366.4</ele><time>2026-05-06T14:00:09Z</time></trkpt><trkpt lat="43.20542183057211" lon="0.41140997348759156"><ele>366.8</ele><time>2026-05-06T14:00:11Z</time></trkpt><trkpt lat="43.20536434038848" lon="0.41155011570606576"><ele>367.2</ele><time>2026-05-06T14:00:13Z</time></trkpt><trkpt lat="43.20533453382658" lon="0.4116271465660886"><ele>367.59999999999997</ele><time>2026-05-06T14:00:14Z</time></trkpt><trkpt lat="43.20528097433145" lon="0.41175946463488394"><ele>368.0</ele><time>2026-05-06T14:00:16Z</time></trkpt><trkpt lat="43.20522959864379" lon="0.41189774975115173"><ele>368.0</ele><time>2026-05-06T14:00:18Z</time></trkpt><trkpt lat="43.20517532296169" lon="0.412043900497618"><ele>368.0</ele><time>2026-05-06T14:00:20Z</time></trkpt><trkpt lat="43.205109536357824" lon="0.41215806029467356"><ele>368.0</ele><time>2026-05-06T14:00:22Z</time></trkpt><trkpt lat="43.205021622983274" lon="0.41222605341171253"><ele>368.0</ele><time>2026-05-06T14:00:24Z</time></trkpt><trkpt lat="43.20495393964566" lon="0.4122754667342716"><ele>368.0</ele><time>2026-05-06T14:00:26Z</time></trkpt><trkpt lat="43.20487858414227" lon="0.41231847496818175"><ele>370.83333333333337</ele><time>2026-05-06T14:00:31Z</time></trkpt><trkpt lat="43.20481146892471" lon="0.41233659099286185"><ele>373.6666666666667</ele><time>2026-05-06T14:00:35Z</time></trkpt><trkpt lat="43.204732760587916" lon="0.41239241052796805"><ele>376.5</ele><time>2026-05-06T14:00:39Z</time></trkpt><trkpt lat="43.20466047675779" lon="0.4124482078847649"><ele>379.33333333333337</ele><time>2026-05-06T14:00:43Z</time></trkpt><trkpt lat="43.20458417328737" lon="0.4124807297007103"><ele>382.1666666666667</ele><time>2026-05-06T14:00:47Z</time></trkpt><trkpt lat="43.204515503564124" lon="0.41254226428417345"><ele>385.0</ele><time>2026-05-06T14:00:51Z</time></trkpt><trkpt lat="43.204434074801455" lon="0.4126076272391877"><ele>385.0</ele><time>2026-05-06T14:00:55Z</time></trkpt><trkpt lat="43.20437212461943" lon="0.41265740431921843"><ele>385.0</ele><time>2026-05-06T14:00:58Z</time></trkpt><trkpt lat="43.2043131291743" lon="0.412707030465019"><ele>385.0</ele><time>2026-05-06T14:01:01Z</time></trkpt><trkpt lat="43.20425183450152" lon="0.4127656095958802"><ele>385.0</ele><time>2026-05-06T14:01:05Z</time></trkpt><trkpt lat="43.20417897571055" lon="0.41281988840277056"><ele>385.0</ele><time>2026-05-06T14:01:09Z</time></trkpt><trkpt lat="43.204119599333524" lon="0.4128717476653412"><ele>385.0</ele><time>2026-05-06T14:01:13Z</time></trkpt><trkpt lat="43.204057895633774" lon="0.4129128911026975"><ele>385.0</ele><time>2026-05-06T14:01:17Z</time></trkpt><trkpt lat="43.204002876654826" lon="0.4129622615559562"><ele>385.42857142857144</ele><time>2026-05-06T14:01:20Z</time></trkpt><trkpt lat="43.203934850321176" lon="0.41301012047530056"><ele>385.8571428571429</ele><time>2026-05-06T14:01:24Z</time></trkpt><trkpt lat="43.203871978564514" lon="0.413046226436736"><ele>386.2857142857143</ele><time>2026-05-06T14:01:28Z</time></trkpt><trkpt lat="43.20380997698084" lon="0.41306639272112883"><ele>386.7142857142857</ele><time>2026-05-06T14:01:31Z</time></trkpt><trkpt lat="43.20373827799762" lon="0.4130927941905363"><ele>387.14285714285717</ele><time>2026-05-06T14:01:35Z</time></trkpt><trkpt lat="43.2036675848935" lon="0.41313161333531406"><ele>387.57142857142856</ele><time>2026-05-06T14:01:40Z</time></trkpt><trkpt lat="43.203598697645596" lon="0.41315833576044525"><ele>388.0</ele><time>2026-05-06T14:01:44Z</time></trkpt><trkpt lat="43.203537158734306" lon="0.4131857466486981"><ele>388.00000000000006</ele><time>2026-05-06T14:01:47Z</time></trkpt><trkpt lat="43.203457587861564" lon="0.41322822805720905"><ele>388.0</ele><time>2026-05-06T14:01:50Z</time></trkpt><trkpt lat="43.20338799934636" lon="0.4132644906857485"><ele>388.0</ele><time>2026-05-06T14:01:53Z</time></trkpt><trkpt lat="43.20331722827478" lon="0.4133049273042498"><ele>388.0</ele><time>2026-05-06T14:01:56Z</time></trkpt><trkpt lat="43.20325423564022" lon="0.41334001292380107"><ele>388.00000000000006</ele><time>2026-05-06T14:01:59Z</time></trkpt><trkpt lat="43.203185108908215" lon="0.41337233231540604"><ele>388.0</ele><time>2026-05-06T14:02:02Z</time></trkpt><trkpt lat="43.203115025499955" lon="0.4134005380021634"><ele>388.2857142857143</ele><time>2026-05-06T14:02:05Z</time></trkpt><trkpt lat="43.203044575481734" lon="0.4134343507121049"><ele>388.5714285714286</ele><time>2026-05-06T14:02:08Z</time></trkpt><trkpt lat="43.20297556377479" lon="0.41346856939906906"><ele>388.8571428571429</ele><time>2026-05-06T14:02:11Z</time></trkpt><trkpt lat="43.20291520349765" lon="0.4134980192056141"><ele>389.1428571428571</ele><time>2026-05-06T14:02:13Z</time></trkpt><trkpt lat="43.202861987615044" lon="0.41354479309025033"><ele>389.42857142857144</ele><time>2026-05-06T14:02:15Z</time></trkpt><trkpt lat="43.20277923375111" lon="0.4135695203753676"><ele>389.7142857142857</ele><time>2026-05-06T14:02:18Z</time></trkpt><trkpt lat="43.20269965889701" lon="0.4135995098952346"><ele>390.0</ele><time>2026-05-06T14:02:21Z</time></trkpt><trkpt lat="43.20262732175461" lon="0.4136375600665614"><ele>390.0</ele><time>2026-05-06T14:02:24Z</time></trkpt><trkpt lat="43.202553961120884" lon="0.41367885403869986"><ele>390.0</ele><time>2026-05-06T14:02:27Z</time></trkpt><trkpt lat="43.202474193388646" lon="0.4137247889003713"><ele>390.0</ele><time>2026-05-06T14:02:30Z</time></trkpt><trkpt lat="43.202414313558506" lon="0.41375517576465676"><ele>390.0</ele><time>2026-05-06T14:02:32Z</time></trkpt><trkpt lat="43.202350764964706" lon="0.41378762134949426"><ele>390.0</ele><time>2026-05-06T14:02:34Z</time></trkpt><trkpt lat="43.20228347705181" lon="0.4138293810287372"><ele>390.0</ele><time>2026-05-06T14:02:36Z</time></trkpt><trkpt lat="43.20219869746855" lon="0.4138768073680529"><ele>390.2857142857143</ele><time>2026-05-06T14:02:39Z</time></trkpt><trkpt lat="43.202133622587326" lon="0.41390734410553853"><ele>390.57142857142856</ele><time>2026-05-06T14:02:41Z</time></trkpt><trkpt lat="43.20206970789481" lon="0.4139477299122723"><ele>390.8571428571429</ele><time>2026-05-06T14:02:43Z</time></trkpt><trkpt lat="43.20200105305693" lon="0.41396981771953484"><ele>391.1428571428571</ele><time>2026-05-06T14:02:45Z</time></trkpt><trkpt lat="43.201939694265384" lon="0.4140031731266933"><ele>391.42857142857144</ele><time>2026-05-06T14:02:47Z</time></trkpt><trkpt lat="43.20187679411002" lon="0.41403844938545975"><ele>391.7142857142857</ele><time>2026-05-06T14:02:49Z</time></trkpt><trkpt lat="43.20178853675291" lon="0.41408072766712745"><ele>392.0</ele><time>2026-05-06T14:02:53Z</time></trkpt><trkpt lat="43.20169261093197" lon="0.4141377899061399"><ele>391.99999999999994</ele><time>2026-05-06T14:02:56Z</time></trkpt><trkpt lat="43.20162080735373" lon="0.41417433152061806"><ele>392.0</ele><time>2026-05-06T14:02:59Z</time></trkpt><trkpt lat="43.201526581914514" lon="0.41422734066392125"><ele>392.0</ele><time>2026-05-06T14:03:02Z</time></trkpt><trkpt lat="43.20142840120823" lon="0.41427686504474937"><ele>392.0</ele><time>2026-05-06T14:03:05Z</time></trkpt><trkpt lat="43.2013654680529" lon="0.4143108175053932"><ele>391.99999999999994</ele><time>2026-05-06T14:03:07Z</time></trkpt><trkpt lat="43.20130067558561" lon="0.41434632644964275"><ele>392.0</ele><time>2026-05-06T14:03:09Z</time></trkpt><trkpt lat="43.20123186508566" lon="0.4143773021436526"><ele>392.16666666666663</ele><time>2026-05-06T14:03:11Z</time></trkpt><trkpt lat="43.201159679448274" lon="0.4144230652883701"><ele>392.3333333333333</ele><time>2026-05-06T14:03:13Z</time></trkpt><trkpt lat="43.201082095788884" lon="0.41446846833700024"><ele>392.5</ele><time>2026-05-06T14:03:15Z</time></trkpt><trkpt lat="43.200999000778495" lon="0.41451359352203504"><ele>392.66666666666663</ele><time>2026-05-06T14:03:17Z</time></trkpt><trkpt lat="43.20091764671924" lon="0.41455890363567555"><ele>392.8333333333333</ele><time>2026-05-06T14:03:19Z</time></trkpt><trkpt lat="43.200837896706275" lon="0.4146093331466812"><ele>393.0</ele><time>2026-05-06T14:03:22Z</time></trkpt><trkpt lat="43.20076898485965" lon="0.41465721715892"><ele>393.0</ele><time>2026-05-06T14:03:24Z</time></trkpt><trkpt lat="43.200685218567195" lon="0.41471237064341476"><ele>393.0</ele><time>2026-05-06T14:03:25Z</time></trkpt><trkpt lat="43.20061843844051" lon="0.41475727753407854"><ele>393.0</ele><time>2026-05-06T14:03:27Z</time></trkpt><trkpt lat="43.20053510544033" lon="0.41480627319446844"><ele>393.0</ele><time>2026-05-06T14:03:29Z</time></trkpt><trkpt lat="43.20045811604005" lon="0.41485546175789273"><ele>393.0</ele><time>2026-05-06T14:03:31Z</time></trkpt><trkpt lat="43.20038371226541" lon="0.41490148506579333"><ele>393.0</ele><time>2026-05-06T14:03:33Z</time></trkpt><trkpt lat="43.20030641398729" lon="0.414947300435559"><ele>393.8333333333333</ele><time>2026-05-06T14:03:35Z</time></trkpt><trkpt lat="43.2002330924296" lon="0.4149998900657379"><ele>394.66666666666663</ele><time>2026-05-06T14:03:37Z</time></trkpt><trkpt lat="43.20015841641791" lon="0.41505126248026597"><ele>395.5</ele><time>2026-05-06T14:03:39Z</time></trkpt><trkpt lat="43.20008013927965" lon="0.4150918666988464"><ele>396.3333333333333</ele><time>2026-05-06T14:03:41Z</time></trkpt><trkpt lat="43.20000733111511" lon="0.4151403936166962"><ele>397.16666666666663</ele><time>2026-05-06T14:03:43Z</time></trkpt><trkpt lat="43.19992729098076" lon="0.41518127206816496"><ele>398.0</ele><time>2026-05-06T14:03:45Z</time></trkpt><trkpt lat="43.19984807497177" lon="0.4152228843312112"><ele>398.3333333333333</ele><time>2026-05-06T14:03:47Z</time></trkpt><trkpt lat="43.19977282354898" lon="0.41526562348507007"><ele>398.66666666666663</ele><time>2026-05-06T14:03:49Z</time></trkpt><trkpt lat="43.19969837622504" lon="0.4153025442148533"><ele>399.0</ele><time>2026-05-06T14:03:51Z</time></trkpt><trkpt lat="43.199618143803534" lon="0.4153428045548402"><ele>399.33333333333337</ele><time>2026-05-06T14:03:53Z</time></trkpt><trkpt lat="43.19953322368532" lon="0.41538011300856037"><ele>399.6666666666667</ele><time>2026-05-06T14:03:55Z</time></trkpt><trkpt lat="43.19944292999996" lon="0.41542029989553314"><ele>400.0</ele><time>2026-05-06T14:03:58Z</time></trkpt><trkpt lat="43.19936160926961" lon="0.41547157225845854"><ele>400.0</ele><time>2026-05-06T14:04:01Z</time></trkpt><trkpt lat="43.19927534600631" lon="0.4155332212658008"><ele>400.0</ele><time>2026-05-06T14:04:03Z</time></trkpt><trkpt lat="43.19911595307398" lon="0.415597364744064"><ele>400.0</ele><time>2026-05-06T14:04:04Z</time></trkpt><trkpt lat="43.19903705313481" lon="0.4156388784388931"><ele>400.0</ele><time>2026-05-06T14:04:06Z</time></trkpt><trkpt lat="43.19896229752691" lon="0.41567859862193945"><ele>400.0</ele><time>2026-05-06T14:04:08Z</time></trkpt><trkpt lat="43.198886055623085" lon="0.4157165177164571"><ele>400.00000000000006</ele><time>2026-05-06T14:04:10Z</time></trkpt><trkpt lat="43.198809859641464" lon="0.4157543065393608"><ele>400.0</ele><time>2026-05-06T14:04:12Z</time></trkpt><trkpt lat="43.19873333953867" lon="0.41579588418435204"><ele>400.0</ele><time>2026-05-06T14:04:14Z</time></trkpt><trkpt lat="43.198657357740096" lon="0.4158369950284817"><ele>400.0</ele><time>2026-05-06T14:04:16Z</time></trkpt><trkpt lat="43.19858290353417" lon="0.41587999321112007"><ele>400.00000000000006</ele><time>2026-05-06T14:04:18Z</time></trkpt><trkpt lat="43.19850810128011" lon="0.4159228612256233"><ele>400.0</ele><time>2026-05-06T14:04:20Z</time></trkpt><trkpt lat="43.1984362623833" lon="0.4159582282099966"><ele>400.00000000000006</ele><time>2026-05-06T14:04:22Z</time></trkpt><trkpt lat="43.19837046781389" lon="0.41602417821740645"><ele>400.0</ele><time>2026-05-06T14:04:26Z</time></trkpt><trkpt lat="43.19830550271619" lon="0.416075311678557"><ele>400.0</ele><time>2026-05-06T14:04:28Z</time></trkpt><trkpt lat="43.19825056693504" lon="0.41612247116316164"><ele>400.0</ele><time>2026-05-06T14:04:30Z</time></trkpt><trkpt lat="43.198195115898535" lon="0.4161647639624784"><ele>400.00000000000006</ele><time>2026-05-06T14:04:32Z</time></trkpt><trkpt lat="43.19813360326266" lon="0.41623187254717375"><ele>400.0</ele><time>2026-05-06T14:04:34Z</time></trkpt><trkpt lat="43.19805509012467" lon="0.41629567443794363"><ele>400.5</ele><time>2026-05-06T14:04:36Z</time></trkpt><trkpt lat="43.19797006250646" lon="0.4163810919646378"><ele>401.0</ele><time>2026-05-06T14:04:39Z</time></trkpt><trkpt lat="43.19774331985476" lon="0.416519566850591"><ele>401.5</ele><time>2026-05-06T14:04:41.999Z</time></trkpt><trkpt lat="43.19768210737137" lon="0.4165771268654184"><ele>402.0</ele><time>2026-05-06T14:04:44Z</time></trkpt><trkpt lat="43.19761520914365" lon="0.4166357722845269"><ele>402.0</ele><time>2026-05-06T14:04:46Z</time></trkpt><trkpt lat="43.197547214532996" lon="0.41668978591587164"><ele>402.0</ele><time>2026-05-06T14:04:48Z</time></trkpt><trkpt lat="43.19747681269921" lon="0.41674781703097147"><ele>402.0</ele><time>2026-05-06T14:04:50Z</time></trkpt><trkpt lat="43.1974073750312" lon="0.4168057793005455"><ele>402.0</ele><time>2026-05-06T14:04:52Z</time></trkpt><trkpt lat="43.19733271304673" lon="0.4168657770624225"><ele>402.0</ele><time>2026-05-06T14:04:54Z</time></trkpt><trkpt lat="43.19726409146929" lon="0.416914800638647"><ele>402.0</ele><time>2026-05-06T14:04:56Z</time></trkpt><trkpt lat="43.197191458298605" lon="0.41696212408942185"><ele>402.6666666666667</ele><time>2026-05-06T14:04:58Z</time></trkpt><trkpt lat="43.1971197908348" lon="0.41701799762919667"><ele>403.33333333333337</ele><time>2026-05-06T14:05:00Z</time></trkpt><trkpt lat="43.19704060075676" lon="0.4170771440391189"><ele>404.0</ele><time>2026-05-06T14:05:04Z</time></trkpt><trkpt lat="43.19697481776836" lon="0.4171427324104536"><ele>404.6666666666667</ele><time>2026-05-06T14:05:07Z</time></trkpt><trkpt lat="43.19689253937592" lon="0.4171706625303515"><ele>405.33333333333337</ele><time>2026-05-06T14:05:10Z</time></trkpt><trkpt lat="43.196830861800905" lon="0.4172289536103815"><ele>406.0</ele><time>2026-05-06T14:05:12Z</time></trkpt><trkpt lat="43.19675680043728" lon="0.41726340072935986"><ele>406.00000000000006</ele><time>2026-05-06T14:05:14Z</time></trkpt><trkpt lat="43.196688021684956" lon="0.41729735946683094"><ele>406.0</ele><time>2026-05-06T14:05:16Z</time></trkpt><trkpt lat="43.19660250101408" lon="0.417339692027664"><ele>406.0</ele><time>2026-05-06T14:05:18Z</time></trkpt><trkpt lat="43.19652569565226" lon="0.41739013965835137"><ele>406.0</ele><time>2026-05-06T14:05:20Z</time></trkpt><trkpt lat="43.19645545855578" lon="0.41742523153175437"><ele>406.00000000000006</ele><time>2026-05-06T14:05:22Z</time></trkpt><trkpt lat="43.19637940528831" lon="0.41745859386707207"><ele>406.0</ele><time>2026-05-06T14:05:24Z</time></trkpt><trkpt lat="43.19629120449041" lon="0.4174880104819955"><ele>406.33333333333337</ele><time>2026-05-06T14:05:26Z</time></trkpt><trkpt lat="43.19620057333507" lon="0.41751672784105937"><ele>406.6666666666667</ele><time>2026-05-06T14:05:28Z</time></trkpt><trkpt lat="43.19611818036963" lon="0.41755792682372944"><ele>407.0</ele><time>2026-05-06T14:05:30Z</time></trkpt><trkpt lat="43.196038819848674" lon="0.4175860322109765"><ele>407.33333333333337</ele><time>2026-05-06T14:05:32Z</time></trkpt><trkpt lat="43.19596352016491" lon="0.41761127563509354"><ele>407.6666666666667</ele><time>2026-05-06T14:05:34Z</time></trkpt><trkpt lat="43.19588995873289" lon="0.4176495026414617"><ele>408.0</ele><time>2026-05-06T14:05:36Z</time></trkpt><trkpt lat="43.195825940645825" lon="0.41769572781014785"><ele>408.0</ele><time>2026-05-06T14:05:38Z</time></trkpt><trkpt lat="43.19575783162709" lon="0.417755856078398"><ele>408.0</ele><time>2026-05-06T14:05:40Z</time></trkpt><trkpt lat="43.19569322754151" lon="0.41782208657238523"><ele>408.0</ele><time>2026-05-06T14:05:42Z</time></trkpt><trkpt lat="43.19560692819446" lon="0.4179245096051806"><ele>408.0</ele><time>2026-05-06T14:05:45Z</time></trkpt><trkpt lat="43.1955400328345" lon="0.4180148063726256"><ele>408.0</ele><time>2026-05-06T14:05:48Z</time></trkpt><trkpt lat="43.195461324180584" lon="0.41811198244065745"><ele>408.25</ele><time>2026-05-06T14:05:50Z</time></trkpt><trkpt lat="43.195401535452035" lon="0.4182008397054373"><ele>408.5</ele><time>2026-05-06T14:05:52Z</time></trkpt><trkpt lat="43.195340884329276" lon="0.4182819222492004"><ele>408.75</ele><time>2026-05-06T14:05:54Z</time></trkpt><trkpt lat="43.19514357477238" lon="0.4184878816830276"><ele>409.0</ele><time>2026-05-06T14:05:57Z</time></trkpt><trkpt lat="43.19506190012855" lon="0.4185955776437868"><ele>409.0</ele><time>2026-05-06T14:05:59Z</time></trkpt><trkpt lat="43.194978564449194" lon="0.41869681101110795"><ele>409.0</ele><time>2026-05-06T14:06:01Z</time></trkpt><trkpt lat="43.19488759432416" lon="0.41878421906423346"><ele>409.0</ele><time>2026-05-06T14:06:03Z</time></trkpt><trkpt lat="43.19480405411152" lon="0.4188914643242686"><ele>409.0</ele><time>2026-05-06T14:06:05Z</time></trkpt><trkpt lat="43.194720792367974" lon="0.4190070289021118"><ele>409.6</ele><time>2026-05-06T14:06:07Z</time></trkpt><trkpt lat="43.1946356154614" lon="0.41912975619938064"><ele>410.2</ele><time>2026-05-06T14:06:09Z</time></trkpt><trkpt lat="43.194543597440195" lon="0.4192311993256019"><ele>410.8</ele><time>2026-05-06T14:06:11Z</time></trkpt><trkpt lat="43.19450188305685" lon="0.41929643324260024"><ele>411.40000000000003</ele><time>2026-05-06T14:06:12Z</time></trkpt><trkpt lat="43.19441632785301" lon="0.41940508230920165"><ele>412.0</ele><time>2026-05-06T14:06:14Z</time></trkpt><trkpt lat="43.19435371301944" lon="0.419519655169286"><ele>412.0</ele><time>2026-05-06T14:06:16Z</time></trkpt><trkpt lat="43.19426694745333" lon="0.4196319838818321"><ele>412.0</ele><time>2026-05-06T14:06:18Z</time></trkpt><trkpt lat="43.19417414884148" lon="0.4197432879250682"><ele>412.0</ele><time>2026-05-06T14:06:20Z</time></trkpt><trkpt lat="43.19408581469096" lon="0.41985483258394735"><ele>412.0</ele><time>2026-05-06T14:06:22Z</time></trkpt><trkpt lat="43.194048127412216" lon="0.41992440844542706"><ele>412.0</ele><time>2026-05-06T14:06:23Z</time></trkpt><trkpt lat="43.1939539527095" lon="0.420038556881695"><ele>411.6</ele><time>2026-05-06T14:06:25Z</time></trkpt><trkpt lat="43.19389498976844" lon="0.4200850578131168"><ele>411.20000000000005</ele><time>2026-05-06T14:06:26Z</time></trkpt><trkpt lat="43.193796152596256" lon="0.42019427178237484"><ele>410.8</ele><time>2026-05-06T14:06:28Z</time></trkpt><trkpt lat="43.19374589602341" lon="0.42024815511797575"><ele>410.4</ele><time>2026-05-06T14:06:29Z</time></trkpt><trkpt lat="43.193650545949254" lon="0.4203685057029679"><ele>410.0</ele><time>2026-05-06T14:06:31Z</time></trkpt><trkpt lat="43.19359328705674" lon="0.4204206666771441"><ele>410.0</ele><time>2026-05-06T14:06:32Z</time></trkpt><trkpt lat="43.19353606186557" lon="0.42047216583952585"><ele>410.0</ele><time>2026-05-06T14:06:33Z</time></trkpt><trkpt lat="43.193480490106985" lon="0.4205172871165398"><ele>410.0</ele><time>2026-05-06T14:06:34Z</time></trkpt><trkpt lat="43.1934184008829" lon="0.42055681837324255"><ele>410.0</ele><time>2026-05-06T14:06:35Z</time></trkpt><trkpt lat="43.19336312737232" lon="0.42061617194350126"><ele>410.0</ele><time>2026-05-06T14:06:36Z</time></trkpt><trkpt lat="43.193306697808815" lon="0.42065840100980484"><ele>410.0</ele><time>2026-05-06T14:06:37Z</time></trkpt><trkpt lat="43.19325100428977" lon="0.420707167822825"><ele>410.0</ele><time>2026-05-06T14:06:38Z</time></trkpt><trkpt lat="43.193193741120794" lon="0.4207558175190128"><ele>410.8</ele><time>2026-05-06T14:06:39Z</time></trkpt><trkpt lat="43.193135624046874" lon="0.4208022123167914"><ele>411.6</ele><time>2026-05-06T14:06:40Z</time></trkpt><trkpt lat="43.193015801035685" lon="0.420875175403871"><ele>412.4</ele><time>2026-05-06T14:06:41.999Z</time></trkpt><trkpt lat="43.192903283232944" lon="0.42095163453444023"><ele>413.2</ele><time>2026-05-06T14:06:43.999Z</time></trkpt><trkpt lat="43.192837896261224" lon="0.4209933821720975"><ele>414.0</ele><time>2026-05-06T14:06:44.999Z</time></trkpt><trkpt lat="43.19277988019301" lon="0.42103039290777805"><ele>414.00000000000006</ele><time>2026-05-06T14:06:45.999Z</time></trkpt><trkpt lat="43.19271901330058" lon="0.42106981554848977"><ele>414.0</ele><time>2026-05-06T14:06:46.999Z</time></trkpt><trkpt lat="43.192654464648534" lon="0.42110232905475575"><ele>414.0</ele><time>2026-05-06T14:06:47.999Z</time></trkpt><trkpt lat="43.192592241086466" lon="0.42114077189923077"><ele>414.0</ele><time>2026-05-06T14:06:49Z</time></trkpt><trkpt lat="43.19252756016055" lon="0.4211815844247477"><ele>414.0</ele><time>2026-05-06T14:06:50Z</time></trkpt><trkpt lat="43.19246307039614" lon="0.42121833788071444"><ele>414.00000000000006</ele><time>2026-05-06T14:06:51Z</time></trkpt><trkpt lat="43.19240268684096" lon="0.42125261046709195"><ele>414.0</ele><time>2026-05-06T14:06:52Z</time></trkpt><trkpt lat="43.1923428647062" lon="0.42128951105538753"><ele>413.14285714285717</ele><time>2026-05-06T14:06:53Z</time></trkpt><trkpt lat="43.19227614281997" lon="0.4213250261864523"><ele>412.2857142857143</ele><time>2026-05-06T14:06:54Z</time></trkpt><trkpt lat="43.1922158298522" lon="0.42135336979927934"><ele>411.42857142857144</ele><time>2026-05-06T14:06:55Z</time></trkpt><trkpt lat="43.19215274527099" lon="0.4213864476359463"><ele>410.57142857142856</ele><time>2026-05-06T14:06:56Z</time></trkpt><trkpt lat="43.19208869653652" lon="0.4214156907965763"><ele>409.7142857142857</ele><time>2026-05-06T14:06:57Z</time></trkpt><trkpt lat="43.192023050247315" lon="0.4214477702957106"><ele>408.8571428571429</ele><time>2026-05-06T14:06:58Z</time></trkpt><trkpt lat="43.19195708546701" lon="0.4214771158877806"><ele>408.0</ele><time>2026-05-06T14:06:59Z</time></trkpt><trkpt lat="43.191893321265894" lon="0.42150757251540116"><ele>408.0</ele><time>2026-05-06T14:07:00Z</time></trkpt><trkpt lat="43.19182632243201" lon="0.4215403546006323"><ele>408.0</ele><time>2026-05-06T14:07:01Z</time></trkpt><trkpt lat="43.19176113830168" lon="0.42157056709055457"><ele>408.0</ele><time>2026-05-06T14:07:02Z</time></trkpt><trkpt lat="43.19169802275567" lon="0.4215991502224657"><ele>408.0</ele><time>2026-05-06T14:07:03Z</time></trkpt><trkpt lat="43.191577901272275" lon="0.4216526738057856"><ele>408.0</ele><time>2026-05-06T14:07:05Z</time></trkpt><trkpt lat="43.19151529096803" lon="0.42168407335190433"><ele>408.0</ele><time>2026-05-06T14:07:06Z</time></trkpt><trkpt lat="43.19145291295308" lon="0.4217091036567536"><ele>408.59999999999997</ele><time>2026-05-06T14:07:07Z</time></trkpt><trkpt lat="43.19139050343441" lon="0.421736021469421"><ele>409.2</ele><time>2026-05-06T14:07:08Z</time></trkpt><trkpt lat="43.19127541238605" lon="0.42179382747887917"><ele>409.8</ele><time>2026-05-06T14:07:10Z</time></trkpt><trkpt lat="43.19115563111882" lon="0.42184231768297675"><ele>410.4</ele><time>2026-05-06T14:07:12Z</time></trkpt><trkpt lat="43.19103729349089" lon="0.4218887204582935"><ele>411.0</ele><time>2026-05-06T14:07:14Z</time></trkpt><trkpt lat="43.19092331541861" lon="0.42194127343038723"><ele>411.0</ele><time>2026-05-06T14:07:16Z</time></trkpt><trkpt lat="43.19085994160318" lon="0.42197828329930254"><ele>411.0</ele><time>2026-05-06T14:07:17Z</time></trkpt><trkpt lat="43.190740384541556" lon="0.42201875101545494"><ele>411.0</ele><time>2026-05-06T14:07:19Z</time></trkpt><trkpt lat="43.19063065228196" lon="0.42205367613354755"><ele>411.0</ele><time>2026-05-06T14:07:21Z</time></trkpt><trkpt lat="43.19051233419129" lon="0.4220815635871285"><ele>411.0</ele><time>2026-05-06T14:07:23Z</time></trkpt><trkpt lat="43.19040695261612" lon="0.4221085453054596"><ele>411.25</ele><time>2026-05-06T14:07:25Z</time></trkpt><trkpt lat="43.190291485194145" lon="0.4221345701546278"><ele>411.5</ele><time>2026-05-06T14:07:27Z</time></trkpt><trkpt lat="43.19018551287451" lon="0.4221540081256064"><ele>411.75</ele><time>2026-05-06T14:07:29Z</time></trkpt><trkpt lat="43.19007461152703" lon="0.42217238731835316"><ele>412.0</ele><time>2026-05-06T14:07:31Z</time></trkpt><trkpt lat="43.18996050800611" lon="0.42219154733321584"><ele>411.8</ele><time>2026-05-06T14:07:33Z</time></trkpt><trkpt lat="43.18985673902237" lon="0.4222110759187188"><ele>411.6</ele><time>2026-05-06T14:07:35Z</time></trkpt><trkpt lat="43.18974703045295" lon="0.4222218010687543"><ele>411.40000000000003</ele><time>2026-05-06T14:07:37Z</time></trkpt><trkpt lat="43.18963640575284" lon="0.42223477885465943"><ele>411.20000000000005</ele><time>2026-05-06T14:07:39Z</time></trkpt><trkpt lat="43.189529700898724" lon="0.4222407876387656"><ele>411.0</ele><time>2026-05-06T14:07:41Z</time></trkpt><trkpt lat="43.1894222610851" lon="0.4222278999699595"><ele>411.0</ele><time>2026-05-06T14:07:43Z</time></trkpt><trkpt lat="43.189292976017924" lon="0.42222959568910595"><ele>411.0</ele><time>2026-05-06T14:07:45Z</time></trkpt><trkpt lat="43.189191657997924" lon="0.4222208318731276"><ele>411.0</ele><time>2026-05-06T14:07:47Z</time></trkpt><trkpt lat="43.18908936499073" lon="0.4222202524669901"><ele>411.0</ele><time>2026-05-06T14:07:49Z</time></trkpt><trkpt lat="43.188980765679446" lon="0.4222148719457448"><ele>411.0</ele><time>2026-05-06T14:07:51Z</time></trkpt><trkpt lat="43.18887758256575" lon="0.4222163606452641"><ele>411.20000000000005</ele><time>2026-05-06T14:07:53Z</time></trkpt><trkpt lat="43.18876631966852" lon="0.4222220447095316"><ele>411.40000000000003</ele><time>2026-05-06T14:07:55Z</time></trkpt><trkpt lat="43.1886610534263" lon="0.4222249405041905"><ele>411.6</ele><time>2026-05-06T14:07:57Z</time></trkpt><trkpt lat="43.18855977665567" lon="0.42223471755087116"><ele>411.8</ele><time>2026-05-06T14:07:59Z</time></trkpt><trkpt lat="43.18848514399239" lon="0.422231793947481"><ele>412.0</ele><time>2026-05-06T14:08:01Z</time></trkpt><trkpt lat="43.188395132238185" lon="0.42224813456090715"><ele>412.00000000000006</ele><time>2026-05-06T14:08:03Z</time></trkpt><trkpt lat="43.18828885107249" lon="0.4222664843900842"><ele>412.0</ele><time>2026-05-06T14:08:05Z</time></trkpt><trkpt lat="43.188224060590095" lon="0.4222734109265211"><ele>412.0</ele><time>2026-05-06T14:08:07Z</time></trkpt><trkpt lat="43.18816161961268" lon="0.4222889269939848"><ele>412.0</ele><time>2026-05-06T14:08:10Z</time></trkpt><trkpt lat="43.188088899076035" lon="0.4222984260324349"><ele>412.00000000000006</ele><time>2026-05-06T14:08:12Z</time></trkpt><trkpt lat="43.18799891160133" lon="0.4223268869325717"><ele>412.0</ele><time>2026-05-06T14:08:14Z</time></trkpt><trkpt lat="43.18790902088406" lon="0.42233187437203723"><ele>413.00000000000006</ele><time>2026-05-06T14:08:17Z</time></trkpt><trkpt lat="43.18783199925124" lon="0.4223562221529461"><ele>414.0</ele><time>2026-05-06T14:08:19Z</time></trkpt><trkpt lat="43.18773384939162" lon="0.4223828434879562"><ele>415.0</ele><time>2026-05-06T14:08:22Z</time></trkpt><trkpt lat="43.18765183429642" lon="0.42240735009323216"><ele>416.0</ele><time>2026-05-06T14:08:25Z</time></trkpt><trkpt lat="43.18758271612398" lon="0.42243751808456426"><ele>417.00000000000006</ele><time>2026-05-06T14:08:27Z</time></trkpt><trkpt lat="43.18751670198461" lon="0.42248268391357346"><ele>418.0</ele><time>2026-05-06T14:08:30Z</time></trkpt><trkpt lat="43.18744112613207" lon="0.42254198830925893"><ele>418.0</ele><time>2026-05-06T14:08:32Z</time></trkpt><trkpt lat="43.187368683283296" lon="0.42260907473145065"><ele>418.0</ele><time>2026-05-06T14:08:34Z</time></trkpt><trkpt lat="43.187315054686934" lon="0.4226752831186998"><ele>418.0</ele><time>2026-05-06T14:08:36Z</time></trkpt><trkpt lat="43.187234411055506" lon="0.4227817079977142"><ele>418.0</ele><time>2026-05-06T14:08:38Z</time></trkpt><trkpt lat="43.18715395978855" lon="0.42288414486768827"><ele>418.0</ele><time>2026-05-06T14:08:40Z</time></trkpt><trkpt lat="43.187079393069325" lon="0.4229644007933743"><ele>417.83333333333337</ele><time>2026-05-06T14:08:42Z</time></trkpt><trkpt lat="43.18700692916332" lon="0.42304643256309216"><ele>417.6666666666667</ele><time>2026-05-06T14:08:44Z</time></trkpt><trkpt lat="43.18693551078086" lon="0.4231188459057842"><ele>417.5</ele><time>2026-05-06T14:08:45.999Z</time></trkpt><trkpt lat="43.18686739808926" lon="0.4231921254946092"><ele>417.33333333333337</ele><time>2026-05-06T14:08:47.999Z</time></trkpt><trkpt lat="43.18679957004004" lon="0.4232528094203129"><ele>417.1666666666667</ele><time>2026-05-06T14:08:49.999Z</time></trkpt><trkpt lat="43.18674023853762" lon="0.4233172589970403"><ele>417.0</ele><time>2026-05-06T14:08:51.999Z</time></trkpt><trkpt lat="43.18666817993077" lon="0.4233741747979997"><ele>417.0</ele><time>2026-05-06T14:08:53.999Z</time></trkpt><trkpt lat="43.18659208867961" lon="0.42343533821066454"><ele>417.0</ele><time>2026-05-06T14:08:56Z</time></trkpt><trkpt lat="43.18651778490064" lon="0.42349138978036044"><ele>417.0</ele><time>2026-05-06T14:08:58Z</time></trkpt><trkpt lat="43.1864392921587" lon="0.42355712692865377"><ele>417.0</ele><time>2026-05-06T14:09:00Z</time></trkpt><trkpt lat="43.18635469894894" lon="0.42362659994711455"><ele>417.0</ele><time>2026-05-06T14:09:02Z</time></trkpt><trkpt lat="43.18627238732385" lon="0.4236877292350101"><ele>417.40000000000003</ele><time>2026-05-06T14:09:04Z</time></trkpt><trkpt lat="43.18618784071576" lon="0.4237513389736549"><ele>417.8</ele><time>2026-05-06T14:09:06Z</time></trkpt><trkpt lat="43.18610155136032" lon="0.4238144040489738"><ele>418.2</ele><time>2026-05-06T14:09:08Z</time></trkpt><trkpt lat="43.18601236815885" lon="0.42387512539921013"><ele>418.6</ele><time>2026-05-06T14:09:10Z</time></trkpt><trkpt lat="43.1859233852951" lon="0.42392985094222946"><ele>419.0</ele><time>2026-05-06T14:09:12Z</time></trkpt><trkpt lat="43.18582822438933" lon="0.4239700661850935"><ele>418.99999999999994</ele><time>2026-05-06T14:09:14Z</time></trkpt><trkpt lat="43.18575643383352" lon="0.42398301922059445"><ele>419.0</ele><time>2026-05-06T14:09:16Z</time></trkpt><trkpt lat="43.18567116946743" lon="0.4239949051384028"><ele>419.0</ele><time>2026-05-06T14:09:18Z</time></trkpt><trkpt lat="43.185589903999855" lon="0.4239945436064242"><ele>419.0</ele><time>2026-05-06T14:09:20Z</time></trkpt><trkpt lat="43.18550712418251" lon="0.42399127014278143"><ele>418.99999999999994</ele><time>2026-05-06T14:09:23Z</time></trkpt><trkpt lat="43.18544469933439" lon="0.42397051821587556"><ele>419.0</ele><time>2026-05-06T14:09:25Z</time></trkpt><trkpt lat="43.18537744831213" lon="0.42395278638748757"><ele>418.79999999999995</ele><time>2026-05-06T14:09:27Z</time></trkpt><trkpt lat="43.18530607701249" lon="0.423933544440491"><ele>418.59999999999997</ele><time>2026-05-06T14:09:29Z</time></trkpt><trkpt lat="43.18523757951804" lon="0.42391247696015644"><ele>418.4</ele><time>2026-05-06T14:09:31Z</time></trkpt><trkpt lat="43.185154810893664" lon="0.4238947779390073"><ele>418.2</ele><time>2026-05-06T14:09:33Z</time></trkpt><trkpt lat="43.18495702997528" lon="0.42387051058434444"><ele>418.0</ele><time>2026-05-06T14:09:34Z</time></trkpt><trkpt lat="43.184864040063594" lon="0.42384732307353834"><ele>418.4</ele><time>2026-05-06T14:09:36Z</time></trkpt><trkpt lat="43.184769565825455" lon="0.4238253421869071"><ele>418.79999999999995</ele><time>2026-05-06T14:09:38Z</time></trkpt><trkpt lat="43.184671870622296" lon="0.4238122407743189"><ele>419.2</ele><time>2026-05-06T14:09:40Z</time></trkpt><trkpt lat="43.184576523601585" lon="0.42381240155528527"><ele>419.6</ele><time>2026-05-06T14:09:42Z</time></trkpt><trkpt lat="43.18447589426373" lon="0.4238010268908737"><ele>420.0</ele><time>2026-05-06T14:09:44Z</time></trkpt><trkpt lat="43.18438426504249" lon="0.4237876140487106"><ele>420.5</ele><time>2026-05-06T14:09:46Z</time></trkpt><trkpt lat="43.18429179435709" lon="0.423779978697119"><ele>421.0</ele><time>2026-05-06T14:09:48Z</time></trkpt><trkpt lat="43.184194320144286" lon="0.4237639358495544"><ele>421.5</ele><time>2026-05-06T14:09:50Z</time></trkpt><trkpt lat="43.18410367857487" lon="0.42374897002705875"><ele>422.0</ele><time>2026-05-06T14:09:52Z</time></trkpt><trkpt lat="43.18403736400971" lon="0.4237184810842897"><ele>422.5</ele><time>2026-05-06T14:09:54Z</time></trkpt><trkpt lat="43.18394188892497" lon="0.4237072379467968"><ele>423.0</ele><time>2026-05-06T14:09:57Z</time></trkpt><trkpt lat="43.18386248119196" lon="0.4236944139179343"><ele>423.3333333333333</ele><time>2026-05-06T14:09:59Z</time></trkpt><trkpt lat="43.1837818104839" lon="0.4236847856281436"><ele>423.66666666666663</ele><time>2026-05-06T14:10:01Z</time></trkpt><trkpt lat="43.183701588671255" lon="0.42367988839885495"><ele>424.0</ele><time>2026-05-06T14:10:03Z</time></trkpt><trkpt lat="43.18361845888549" lon="0.42366912231958315"><ele>424.3333333333333</ele><time>2026-05-06T14:10:05Z</time></trkpt><trkpt lat="43.18353426125293" lon="0.4236668643415145"><ele>424.66666666666663</ele><time>2026-05-06T14:10:07Z</time></trkpt><trkpt lat="43.18344770551509" lon="0.4236682636223245"><ele>425.0</ele><time>2026-05-06T14:10:09Z</time></trkpt><trkpt lat="43.18336392228176" lon="0.4236614704217828"><ele>424.99999999999994</ele><time>2026-05-06T14:10:11Z</time></trkpt><trkpt lat="43.18327747237086" lon="0.42366789853664233"><ele>425.0</ele><time>2026-05-06T14:10:13Z</time></trkpt><trkpt lat="43.183187382212594" lon="0.4236672106895159"><ele>425.0</ele><time>2026-05-06T14:10:15Z</time></trkpt><trkpt lat="43.18310161370378" lon="0.4236728542895195"><ele>425.0</ele><time>2026-05-06T14:10:17Z</time></trkpt><trkpt lat="43.18301834756654" lon="0.42368029487117487"><ele>424.99999999999994</ele><time>2026-05-06T14:10:19Z</time></trkpt><trkpt lat="43.18295333502796" lon="0.42368644251912435"><ele>425.0</ele><time>2026-05-06T14:10:21Z</time></trkpt><trkpt lat="43.182888840836874" lon="0.42369448240272334"><ele>428.3333333333333</ele><time>2026-05-06T14:10:23Z</time></trkpt><trkpt lat="43.182581161849896" lon="0.42369262898593346"><ele>431.66666666666663</ele><time>2026-05-06T14:10:26Z</time></trkpt><trkpt lat="43.18249242967079" lon="0.4236659788283875"><ele>435.0</ele><time>2026-05-06T14:10:28Z</time></trkpt><trkpt lat="43.182402840614884" lon="0.4236233735846436"><ele>435.1666666666667</ele><time>2026-05-06T14:10:30Z</time></trkpt><trkpt lat="43.18232281973054" lon="0.42356585636382615"><ele>435.33333333333337</ele><time>2026-05-06T14:10:32Z</time></trkpt><trkpt lat="43.182247012507055" lon="0.4235070533820672"><ele>435.5</ele><time>2026-05-06T14:10:34Z</time></trkpt><trkpt lat="43.18217295627695" lon="0.423454625530659"><ele>435.6666666666667</ele><time>2026-05-06T14:10:36Z</time></trkpt><trkpt lat="43.18209758439639" lon="0.42340607999958707"><ele>435.83333333333337</ele><time>2026-05-06T14:10:38Z</time></trkpt><trkpt lat="43.18201976502275" lon="0.423365399058779"><ele>436.0</ele><time>2026-05-06T14:10:40Z</time></trkpt><trkpt lat="43.18192905920833" lon="0.4233218875570643"><ele>436.00000000000006</ele><time>2026-05-06T14:10:45Z</time></trkpt><trkpt lat="43.18184622446203" lon="0.42328978937179595"><ele>436.0</ele><time>2026-05-06T14:10:48.999Z</time></trkpt><trkpt lat="43.181772266844554" lon="0.42326516931479086"><ele>436.0</ele><time>2026-05-06T14:10:51.999Z</time></trkpt><trkpt lat="43.181669471364" lon="0.4232016505561739"><ele>436.0</ele><time>2026-05-06T14:10:54.999Z</time></trkpt><trkpt lat="43.18159984896992" lon="0.4231849298437712"><ele>436.00000000000006</ele><time>2026-05-06T14:10:56.999Z</time></trkpt><trkpt lat="43.181531237774564" lon="0.42315343976307496"><ele>436.0</ele><time>2026-05-06T14:10:58.999Z</time></trkpt><trkpt lat="43.18143191269355" lon="0.42314388422672666"><ele>435.33333333333337</ele><time>2026-05-06T14:11:03Z</time></trkpt><trkpt lat="43.18136427731951" lon="0.4231278141659472"><ele>434.6666666666667</ele><time>2026-05-06T14:11:06Z</time></trkpt><trkpt lat="43.18125290990101" lon="0.4230907763342301"><ele>434.0</ele><time>2026-05-06T14:11:09Z</time></trkpt><trkpt lat="43.1811788345033" lon="0.42303043454593864"><ele>433.33333333333337</ele><time>2026-05-06T14:11:12Z</time></trkpt><trkpt lat="43.18108899482398" lon="0.42300603996415426"><ele>432.6666666666667</ele><time>2026-05-06T14:11:15Z</time></trkpt><trkpt lat="43.18100799539235" lon="0.4229893213255039"><ele>432.0</ele><time>2026-05-06T14:11:17Z</time></trkpt><trkpt lat="43.18093105850632" lon="0.42296235525810455"><ele>433.8333333333333</ele><time>2026-05-06T14:11:19Z</time></trkpt><trkpt lat="43.180842335199614" lon="0.4229277089938852"><ele>435.66666666666663</ele><time>2026-05-06T14:11:22Z</time></trkpt><trkpt lat="43.18077391557211" lon="0.42290291936443014"><ele>437.5</ele><time>2026-05-06T14:11:24Z</time></trkpt><trkpt lat="43.18070478939614" lon="0.42288650666963284"><ele>439.3333333333333</ele><time>2026-05-06T14:11:26Z</time></trkpt><trkpt lat="43.18064248429559" lon="0.42285452292817377"><ele>441.16666666666663</ele><time>2026-05-06T14:11:28Z</time></trkpt><trkpt lat="43.180552558898476" lon="0.4228064392476444"><ele>443.0</ele><time>2026-05-06T14:11:31Z</time></trkpt><trkpt lat="43.18046923729462" lon="0.42275850353359823"><ele>443.0</ele><time>2026-05-06T14:11:34Z</time></trkpt><trkpt lat="43.180386461111894" lon="0.42271024345059743"><ele>443.0</ele><time>2026-05-06T14:11:37Z</time></trkpt><trkpt lat="43.18032271719835" lon="0.4226837787623747"><ele>443.0</ele><time>2026-05-06T14:11:39Z</time></trkpt><trkpt lat="43.18025928418192" lon="0.4226504016859137"><ele>443.0</ele><time>2026-05-06T14:11:41Z</time></trkpt><trkpt lat="43.18018286130982" lon="0.4226160910082462"><ele>443.0</ele><time>2026-05-06T14:11:43Z</time></trkpt><trkpt lat="43.180121556706716" lon="0.4225853476182075"><ele>443.0</ele><time>2026-05-06T14:11:45Z</time></trkpt><trkpt lat="43.18004897349917" lon="0.42255612594215347"><ele>443.0</ele><time>2026-05-06T14:11:47Z</time></trkpt><trkpt lat="43.17998751840757" lon="0.4225141250826706"><ele>443.0</ele><time>2026-05-06T14:11:49Z</time></trkpt><trkpt lat="43.17992981703882" lon="0.42247002564888464"><ele>443.0</ele><time>2026-05-06T14:11:51Z</time></trkpt><trkpt lat="43.179865030499755" lon="0.4224309975015635"><ele>443.0</ele><time>2026-05-06T14:11:53Z</time></trkpt><trkpt lat="43.17980030083232" lon="0.4223869436506275"><ele>443.0</ele><time>2026-05-06T14:11:55Z</time></trkpt><trkpt lat="43.17971925667793" lon="0.4223183791309079"><ele>443.0</ele><time>2026-05-06T14:11:58Z</time></trkpt><trkpt lat="43.17965538683134" lon="0.422284756055518"><ele>443.0</ele><time>2026-05-06T14:12:00Z</time></trkpt><trkpt lat="43.17959416595947" lon="0.4222510204846124"><ele>443.0</ele><time>2026-05-06T14:12:03Z</time></trkpt><trkpt lat="43.179508198807376" lon="0.4221871254542907"><ele>441.8333333333333</ele><time>2026-05-06T14:12:06Z</time></trkpt><trkpt lat="43.17944164956283" lon="0.42214835350343316"><ele>440.66666666666663</ele><time>2026-05-06T14:12:09Z</time></trkpt><trkpt lat="43.17937939598012" lon="0.4221012439833546"><ele>439.5</ele><time>2026-05-06T14:12:12Z</time></trkpt><trkpt lat="43.179299583839075" lon="0.4220513845880934"><ele>438.33333333333337</ele><time>2026-05-06T14:12:15Z</time></trkpt><trkpt lat="43.17921587050246" lon="0.4220076591843367"><ele>437.1666666666667</ele><time>2026-05-06T14:12:18Z</time></trkpt><trkpt lat="43.17915166064114" lon="0.42197087983685505"><ele>436.0</ele><time>2026-05-06T14:12:21Z</time></trkpt><trkpt lat="43.17907180204731" lon="0.42194733970573445"><ele>439.1666666666667</ele><time>2026-05-06T14:12:24Z</time></trkpt><trkpt lat="43.179008282277145" lon="0.42194282160092406"><ele>442.33333333333337</ele><time>2026-05-06T14:12:26Z</time></trkpt><trkpt lat="43.1789259497883" lon="0.4219266051493512"><ele>445.5</ele><time>2026-05-06T14:12:29Z</time></trkpt><trkpt lat="43.17883221611888" lon="0.4219092940118957"><ele>448.66666666666663</ele><time>2026-05-06T14:12:32Z</time></trkpt><trkpt lat="43.17876408579907" lon="0.42192390541168384"><ele>451.8333333333333</ele><time>2026-05-06T14:12:35Z</time></trkpt><trkpt lat="43.178672360093806" lon="0.42192122261649284"><ele>455.0</ele><time>2026-05-06T14:12:38Z</time></trkpt><trkpt lat="43.17858485682488" lon="0.4219131922928792"><ele>454.99999999999994</ele><time>2026-05-06T14:12:42Z</time></trkpt><trkpt lat="43.17851215960166" lon="0.4218945026343147"><ele>455.0</ele><time>2026-05-06T14:12:45Z</time></trkpt><trkpt lat="43.178448439281894" lon="0.4218742912182415"><ele>455.0</ele><time>2026-05-06T14:12:47Z</time></trkpt><trkpt lat="43.1783804338868" lon="0.42185932879550886"><ele>455.0</ele><time>2026-05-06T14:12:49Z</time></trkpt><trkpt lat="43.17827043076198" lon="0.4218286257148306"><ele>454.99999999999994</ele><time>2026-05-06T14:12:51Z</time></trkpt><trkpt lat="43.178202354717946" lon="0.42180365503956857"><ele>455.0</ele><time>2026-05-06T14:12:54Z</time></trkpt><trkpt lat="43.17810817054919" lon="0.4217804560956659"><ele>454.16666666666663</ele><time>2026-05-06T14:12:57Z</time></trkpt><trkpt lat="43.17801709532248" lon="0.42173699138334547"><ele>453.3333333333333</ele><time>2026-05-06T14:12:58.999Z</time></trkpt><trkpt lat="43.17794906309438" lon="0.4217142582225048"><ele>452.5</ele><time>2026-05-06T14:13:00.999Z</time></trkpt><trkpt lat="43.17786901402593" lon="0.42169208908150274"><ele>451.66666666666663</ele><time>2026-05-06T14:13:02.999Z</time></trkpt><trkpt lat="43.17780468390948" lon="0.4216685379109364"><ele>450.8333333333333</ele><time>2026-05-06T14:13:04.999Z</time></trkpt><trkpt lat="43.177736004916" lon="0.4216428999656034"><ele>450.0</ele><time>2026-05-06T14:13:07Z</time></trkpt><trkpt lat="43.17765775838805" lon="0.42161422628809075"><ele>450.0</ele><time>2026-05-06T14:13:09Z</time></trkpt><trkpt lat="43.177580326446964" lon="0.42158018740498976"><ele>450.0</ele><time>2026-05-06T14:13:11Z</time></trkpt><trkpt lat="43.17751098369847" lon="0.4215567795607863"><ele>450.0</ele><time>2026-05-06T14:13:13Z</time></trkpt><trkpt lat="43.17744164368195" lon="0.42153338566016574"><ele>450.0</ele><time>2026-05-06T14:13:15Z</time></trkpt><trkpt lat="43.17736277572772" lon="0.42150432639261487"><ele>450.0</ele><time>2026-05-06T14:13:17Z</time></trkpt><trkpt lat="43.17728461969734" lon="0.4214746773085615"><ele>450.0</ele><time>2026-05-06T14:13:19Z</time></trkpt><trkpt lat="43.17721002206021" lon="0.4214491738939972"><ele>450.00000000000006</ele><time>2026-05-06T14:13:21Z</time></trkpt><trkpt lat="43.17713154738928" lon="0.42142062960065785"><ele>450.0</ele><time>2026-05-06T14:13:23Z</time></trkpt><trkpt lat="43.1770608396868" lon="0.42139847383705215"><ele>450.00000000000006</ele><time>2026-05-06T14:13:25Z</time></trkpt><trkpt lat="43.17699665539394" lon="0.4213734429332578"><ele>450.00000000000006</ele><time>2026-05-06T14:13:27Z</time></trkpt><trkpt lat="43.176934721040325" lon="0.4213197342610907"><ele>450.0</ele><time>2026-05-06T14:13:31Z</time></trkpt><trkpt lat="43.176866534679384" lon="0.4213137905540551"><ele>450.00000000000006</ele><time>2026-05-06T14:13:33Z</time></trkpt><trkpt lat="43.1767947914022" lon="0.4212924762293198"><ele>450.00000000000006</ele><time>2026-05-06T14:13:36Z</time></trkpt><trkpt lat="43.176707580047555" lon="0.4212581171116684"><ele>452.1666666666667</ele><time>2026-05-06T14:13:39Z</time></trkpt><trkpt lat="43.17662199151456" lon="0.42121758922188635"><ele>454.33333333333337</ele><time>2026-05-06T14:13:42Z</time></trkpt><trkpt lat="43.17654030635087" lon="0.4211759256131931"><ele>456.5</ele><time>2026-05-06T14:13:45Z</time></trkpt><trkpt lat="43.17645761347595" lon="0.4211700178309907"><ele>458.6666666666667</ele><time>2026-05-06T14:13:48Z</time></trkpt><trkpt lat="43.17637878336479" lon="0.42115592453056616"><ele>460.83333333333337</ele><time>2026-05-06T14:13:51Z</time></trkpt><trkpt lat="43.176288086936474" lon="0.42113213267290567"><ele>463.0</ele><time>2026-05-06T14:13:54Z</time></trkpt><trkpt lat="43.176224625272404" lon="0.421132029970564"><ele>463.1666666666667</ele><time>2026-05-06T14:13:56Z</time></trkpt><trkpt lat="43.176146933238265" lon="0.42114115602955104"><ele>463.33333333333337</ele><time>2026-05-06T14:13:59Z</time></trkpt><trkpt lat="43.17607488488362" lon="0.42112214772918"><ele>463.5</ele><time>2026-05-06T14:14:02Z</time></trkpt><trkpt lat="43.17598552124781" lon="0.4211530089430487"><ele>463.66666666666663</ele><time>2026-05-06T14:14:05Z</time></trkpt><trkpt lat="43.17590349597954" lon="0.42113880888028543"><ele>463.8333333333333</ele><time>2026-05-06T14:14:08Z</time></trkpt><trkpt lat="43.17581347363421" lon="0.4211116912706544"><ele>464.0</ele><time>2026-05-06T14:14:11Z</time></trkpt><trkpt lat="43.175740779848866" lon="0.42111061175833947"><ele>463.99999999999994</ele><time>2026-05-06T14:14:13Z</time></trkpt><trkpt lat="43.17564305449302" lon="0.4210926013695137"><ele>464.0</ele><time>2026-05-06T14:14:16Z</time></trkpt><trkpt lat="43.175547802332005" lon="0.42106635633757705"><ele>464.0</ele><time>2026-05-06T14:14:18Z</time></trkpt><trkpt lat="43.175471787218875" lon="0.421062136044168"><ele>464.0</ele><time>2026-05-06T14:14:21Z</time></trkpt><trkpt lat="43.17540563013275" lon="0.4210501948606467"><ele>463.99999999999994</ele><time>2026-05-06T14:14:23Z</time></trkpt><trkpt lat="43.17532014397722" lon="0.4210366681999369"><ele>464.0</ele><time>2026-05-06T14:14:25Z</time></trkpt><trkpt lat="43.17524755379633" lon="0.42103001912586424"><ele>463.99999999999994</ele><time>2026-05-06T14:14:27Z</time></trkpt><trkpt lat="43.17514822322444" lon="0.42101994805837156"><ele>464.0</ele><time>2026-05-06T14:14:30Z</time></trkpt><trkpt lat="43.17507665836117" lon="0.42099936425483664"><ele>464.0</ele><time>2026-05-06T14:14:32Z</time></trkpt><trkpt lat="43.1749888009451" lon="0.4209908487177132"><ele>464.0</ele><time>2026-05-06T14:14:36Z</time></trkpt><trkpt lat="43.17489863715108" lon="0.4209711840877547"><ele>463.99999999999994</ele><time>2026-05-06T14:14:39Z</time></trkpt><trkpt lat="43.17483695299089" lon="0.4209394973265302"><ele>464.0</ele><time>2026-05-06T14:14:42Z</time></trkpt><trkpt lat="43.17475349849173" lon="0.4209032430400864"><ele>463.99999999999994</ele><time>2026-05-06T14:14:45Z</time></trkpt><trkpt lat="43.17466937715918" lon="0.4208571646399067"><ele>464.0</ele><time>2026-05-06T14:14:48Z</time></trkpt><trkpt lat="43.174601164318084" lon="0.42083450881843115"><ele>464.0</ele><time>2026-05-06T14:14:51Z</time></trkpt><trkpt lat="43.17453207346145" lon="0.42084881625193415"><ele>464.0</ele><time>2026-05-06T14:14:53Z</time></trkpt><trkpt lat="43.17443521733503" lon="0.42081263722160717"><ele>463.99999999999994</ele><time>2026-05-06T14:14:56Z</time></trkpt><trkpt lat="43.17436559571956" lon="0.4208074223096161"><ele>464.0</ele><time>2026-05-06T14:14:58Z</time></trkpt><trkpt lat="43.174304315489465" lon="0.4207764974890562"><ele>463.99999999999994</ele><time>2026-05-06T14:15:00Z</time></trkpt><trkpt lat="43.17423122233078" lon="0.42076575006713246"><ele>464.0</ele><time>2026-05-06T14:15:02Z</time></trkpt><trkpt lat="43.17415850569851" lon="0.4207595579288557"><ele>464.0</ele><time>2026-05-06T14:15:04Z</time></trkpt><trkpt lat="43.17409701112647" lon="0.4207403597227396"><ele>464.0</ele><time>2026-05-06T14:15:06Z</time></trkpt><trkpt lat="43.17403570901702" lon="0.42070856263238654"><ele>463.99999999999994</ele><time>2026-05-06T14:15:07.999Z</time></trkpt><trkpt lat="43.17394016373344" lon="0.42068407533838825"><ele>464.0</ele><time>2026-05-06T14:15:10.999Z</time></trkpt><trkpt lat="43.17384794887744" lon="0.42065020410351933"><ele>464.3333333333333</ele><time>2026-05-06T14:15:14Z</time></trkpt><trkpt lat="43.17376778750965" lon="0.42060282295690354"><ele>464.66666666666663</ele><time>2026-05-06T14:15:17Z</time></trkpt><trkpt lat="43.17369657685785" lon="0.42056825057486075"><ele>465.0</ele><time>2026-05-06T14:15:19Z</time></trkpt><trkpt lat="43.17361939185032" lon="0.42052695570451826"><ele>465.33333333333337</ele><time>2026-05-06T14:15:21Z</time></trkpt><trkpt lat="43.173560689666566" lon="0.4204954791385978"><ele>465.6666666666667</ele><time>2026-05-06T14:15:23Z</time></trkpt><trkpt lat="43.17348674043709" lon="0.4204691367875611"><ele>466.0</ele><time>2026-05-06T14:15:25Z</time></trkpt><trkpt lat="43.17340648234649" lon="0.4204167320491491"><ele>467.1666666666667</ele><time>2026-05-06T14:15:28Z</time></trkpt><trkpt lat="43.17335082904492" lon="0.4203682772358152"><ele>468.33333333333337</ele><time>2026-05-06T14:15:30Z</time></trkpt><trkpt lat="43.173282385110475" lon="0.4203204153399902"><ele>469.5</ele><time>2026-05-06T14:15:32Z</time></trkpt><trkpt lat="43.173206564446424" lon="0.42025283688482407"><ele>470.66666666666663</ele><time>2026-05-06T14:15:35Z</time></trkpt><trkpt lat="43.173143395558434" lon="0.420225029751825"><ele>471.8333333333333</ele><time>2026-05-06T14:15:37Z</time></trkpt><trkpt lat="43.17306794956071" lon="0.4201879689096631"><ele>473.0</ele><time>2026-05-06T14:15:39Z</time></trkpt><trkpt lat="43.172995181536024" lon="0.4201487937565827"><ele>473.16666666666663</ele><time>2026-05-06T14:15:41Z</time></trkpt><trkpt lat="43.17292684823792" lon="0.4201081926458329"><ele>473.3333333333333</ele><time>2026-05-06T14:15:43Z</time></trkpt><trkpt lat="43.17286384503779" lon="0.4200498943762954"><ele>473.5</ele><time>2026-05-06T14:15:45Z</time></trkpt><trkpt lat="43.172797327081106" lon="0.4200128780618047"><ele>473.66666666666663</ele><time>2026-05-06T14:15:47Z</time></trkpt><trkpt lat="43.17274886444516" lon="0.4199503941884284"><ele>473.8333333333333</ele><time>2026-05-06T14:15:49Z</time></trkpt><trkpt lat="43.17267248238161" lon="0.41988613572732914"><ele>474.0</ele><time>2026-05-06T14:15:51Z</time></trkpt><trkpt lat="43.17254959710374" lon="0.4198136456988263"><ele>474.0</ele><time>2026-05-06T14:15:53Z</time></trkpt><trkpt lat="43.1724939798841" lon="0.41976531502338377"><ele>474.0</ele><time>2026-05-06T14:15:54Z</time></trkpt><trkpt lat="43.172399541666856" lon="0.4197017621408703"><ele>474.0</ele><time>2026-05-06T14:15:56Z</time></trkpt><trkpt lat="43.172327711488656" lon="0.41963756945984804"><ele>474.0</ele><time>2026-05-06T14:15:58Z</time></trkpt><trkpt lat="43.17226189353844" lon="0.4195808778814177"><ele>474.0</ele><time>2026-05-06T14:16:00Z</time></trkpt><trkpt lat="43.172176152276485" lon="0.4195123426707438"><ele>474.0</ele><time>2026-05-06T14:16:02Z</time></trkpt><trkpt lat="43.172083824734365" lon="0.4194285248675389"><ele>474.6666666666667</ele><time>2026-05-06T14:16:04Z</time></trkpt><trkpt lat="43.17199867181036" lon="0.419351752876904"><ele>475.33333333333337</ele><time>2026-05-06T14:16:07Z</time></trkpt><trkpt lat="43.171933349494594" lon="0.4192866529652299"><ele>476.0</ele><time>2026-05-06T14:16:10Z</time></trkpt><trkpt lat="43.171876167473556" lon="0.4192259325287728"><ele>476.6666666666667</ele><time>2026-05-06T14:16:13Z</time></trkpt><trkpt lat="43.17181915721279" lon="0.41917171631494893"><ele>477.33333333333337</ele><time>2026-05-06T14:16:16Z</time></trkpt><trkpt lat="43.17175031618275" lon="0.4191300386128217"><ele>478.0</ele><time>2026-05-06T14:16:19Z</time></trkpt><trkpt lat="43.17168198242568" lon="0.41908796450749064"><ele>478.00000000000006</ele><time>2026-05-06T14:16:22Z</time></trkpt><trkpt lat="43.17160373238107" lon="0.4190520583668301"><ele>478.0</ele><time>2026-05-06T14:16:25Z</time></trkpt><trkpt lat="43.17151649194195" lon="0.4190498447661362"><ele>478.0</ele><time>2026-05-06T14:16:27Z</time></trkpt><trkpt lat="43.17145004432532" lon="0.41905010009950944"><ele>478.0</ele><time>2026-05-06T14:16:29Z</time></trkpt><trkpt lat="43.171383504950064" lon="0.41904971032761523"><ele>478.00000000000006</ele><time>2026-05-06T14:16:32Z</time></trkpt><trkpt lat="43.17129543958011" lon="0.4190379196030893"><ele>478.0</ele><time>2026-05-06T14:16:35Z</time></trkpt><trkpt lat="43.17120887910958" lon="0.41903944098521706"><ele>478.6666666666667</ele><time>2026-05-06T14:16:38Z</time></trkpt><trkpt lat="43.17113216983968" lon="0.4190178822577768"><ele>479.33333333333337</ele><time>2026-05-06T14:16:41Z</time></trkpt><trkpt lat="43.17105443584479" lon="0.41901684192017224"><ele>480.0</ele><time>2026-05-06T14:16:44Z</time></trkpt><trkpt lat="43.17098351954784" lon="0.4189775265646389"><ele>480.66666666666663</ele><time>2026-05-06T14:16:47Z</time></trkpt><trkpt lat="43.17090433655422" lon="0.41897517860745165"><ele>481.3333333333333</ele><time>2026-05-06T14:16:51Z</time></trkpt><trkpt lat="43.17083594978593" lon="0.4189826350052943"><ele>482.0</ele><time>2026-05-06T14:16:53Z</time></trkpt><trkpt lat="43.17076937068025" lon="0.41895578314291926"><ele>482.0</ele><time>2026-05-06T14:16:56Z</time></trkpt><trkpt lat="43.17069967546214" lon="0.41895444620922934"><ele>482.00000000000006</ele><time>2026-05-06T14:16:59Z</time></trkpt><trkpt lat="43.17063405875526" lon="0.41893033447470335"><ele>482.0</ele><time>2026-05-06T14:17:02Z</time></trkpt><trkpt lat="43.17056622671135" lon="0.4189277782717993"><ele>482.0</ele><time>2026-05-06T14:17:05Z</time></trkpt><trkpt lat="43.170486632208224" lon="0.41893014643755305"><ele>482.00000000000006</ele><time>2026-05-06T14:17:08Z</time></trkpt><trkpt lat="43.17040876912062" lon="0.4189021944647569"><ele>482.0</ele><time>2026-05-06T14:17:11.999Z</time></trkpt><trkpt lat="43.17033623031105" lon="0.41888741687172815"><ele>482.0</ele><time>2026-05-06T14:17:14.999Z</time></trkpt><trkpt lat="43.17026228066427" lon="0.41886697736591677"><ele>482.3333333333333</ele><time>2026-05-06T14:17:16.999Z</time></trkpt><trkpt lat="43.170199462788425" lon="0.4188525573795722"><ele>482.66666666666663</ele><time>2026-05-06T14:17:21Z</time></trkpt><trkpt lat="43.17011069058172" lon="0.4188356902154976"><ele>483.0</ele><time>2026-05-06T14:17:24Z</time></trkpt><trkpt lat="43.170030526470235" lon="0.41882023418973174"><ele>483.33333333333337</ele><time>2026-05-06T14:17:27Z</time></trkpt><trkpt lat="43.169954382312135" lon="0.41881364881884525"><ele>483.6666666666667</ele><time>2026-05-06T14:17:30Z</time></trkpt><trkpt lat="43.169878468721116" lon="0.41878281531524647"><ele>484.0</ele><time>2026-05-06T14:17:34Z</time></trkpt><trkpt lat="43.16981416630095" lon="0.418777347035298"><ele>484.83333333333337</ele><time>2026-05-06T14:17:37Z</time></trkpt><trkpt lat="43.16974786286762" lon="0.4187660334199486"><ele>485.6666666666667</ele><time>2026-05-06T14:17:39Z</time></trkpt><trkpt lat="43.169668181166685" lon="0.41874402615721146"><ele>486.5</ele><time>2026-05-06T14:17:42Z</time></trkpt><trkpt lat="43.16958883847614" lon="0.41870921485430573"><ele>487.33333333333337</ele><time>2026-05-06T14:17:45Z</time></trkpt><trkpt lat="43.16950767767765" lon="0.41867687561639644"><ele>488.1666666666667</ele><time>2026-05-06T14:17:48Z</time></trkpt><trkpt lat="43.169438483726815" lon="0.418630252115254"><ele>489.0</ele><time>2026-05-06T14:17:51Z</time></trkpt><trkpt lat="43.16937990532721" lon="0.41858066282685596"><ele>489.0</ele><time>2026-05-06T14:17:54Z</time></trkpt><trkpt lat="43.16929339868468" lon="0.41855520175543726"><ele>489.0</ele><time>2026-05-06T14:17:57Z</time></trkpt><trkpt lat="43.169225544260065" lon="0.4185644895702834"><ele>489.0</ele><time>2026-05-06T14:17:59Z</time></trkpt><trkpt lat="43.16913019346319" lon="0.4185770756794832"><ele>489.0</ele><time>2026-05-06T14:18:02Z</time></trkpt><trkpt lat="43.16904759544754" lon="0.41858500112962405"><ele>489.0</ele><time>2026-05-06T14:18:05Z</time></trkpt><trkpt lat="43.16897090510969" lon="0.418606053017011"><ele>489.0</ele><time>2026-05-06T14:18:08Z</time></trkpt><trkpt lat="43.16888977236138" lon="0.4186335335881178"><ele>489.8333333333333</ele><time>2026-05-06T14:18:11Z</time></trkpt><trkpt lat="43.16881893796978" lon="0.4186700412713119"><ele>490.66666666666663</ele><time>2026-05-06T14:18:14Z</time></trkpt><trkpt lat="43.16875113837339" lon="0.4186985677136182"><ele>491.5</ele><time>2026-05-06T14:18:17Z</time></trkpt><trkpt lat="43.16868183190054" lon="0.41872619607213896"><ele>492.3333333333333</ele><time>2026-05-06T14:18:20Z</time></trkpt><trkpt lat="43.1685895120942" lon="0.4187635380630205"><ele>493.16666666666663</ele><time>2026-05-06T14:18:23Z</time></trkpt><trkpt lat="43.168528082160556" lon="0.4187949143782278"><ele>494.0</ele><time>2026-05-06T14:18:25Z</time></trkpt><trkpt lat="43.16844830579518" lon="0.4188007861085541"><ele>494.28571428571433</ele><time>2026-05-06T14:18:28Z</time></trkpt><trkpt lat="43.168372830603104" lon="0.41883112209650336"><ele>494.57142857142856</ele><time>2026-05-06T14:18:31Z</time></trkpt><trkpt lat="43.16830059591753" lon="0.41887515820586835"><ele>494.8571428571429</ele><time>2026-05-06T14:18:35Z</time></trkpt><trkpt lat="43.1682263949483" lon="0.41888180822555315"><ele>495.14285714285717</ele><time>2026-05-06T14:18:38Z</time></trkpt><trkpt lat="43.168158531317246" lon="0.41889389707818814"><ele>495.42857142857144</ele><time>2026-05-06T14:18:41Z</time></trkpt><trkpt lat="43.168092010257666" lon="0.41889975238056887"><ele>495.7142857142857</ele><time>2026-05-06T14:18:43Z</time></trkpt><trkpt lat="43.16802700671433" lon="0.41891158658536076"><ele>496.0</ele><time>2026-05-06T14:18:45Z</time></trkpt><trkpt lat="43.16796405261667" lon="0.4189116751147646"><ele>496.00000000000006</ele><time>2026-05-06T14:18:48Z</time></trkpt><trkpt lat="43.167890662407906" lon="0.4189178385691166"><ele>496.0</ele><time>2026-05-06T14:18:51Z</time></trkpt><trkpt lat="43.16782691288511" lon="0.4189198845039317"><ele>496.0</ele><time>2026-05-06T14:18:54Z</time></trkpt><trkpt lat="43.16774355528016" lon="0.41891442412034297"><ele>496.0</ele><time>2026-05-06T14:18:59Z</time></trkpt><trkpt lat="43.16767266421858" lon="0.4189059615629583"><ele>496.00000000000006</ele><time>2026-05-06T14:19:03Z</time></trkpt><trkpt lat="43.16760618323026" lon="0.4189104737489495"><ele>496.0</ele><time>2026-05-06T14:19:06Z</time></trkpt><trkpt lat="43.1675108905174" lon="0.41891012176576403"><ele>496.00000000000006</ele><time>2026-05-06T14:19:10Z</time></trkpt><trkpt lat="43.16743686525823" lon="0.41889162773648403"><ele>496.0</ele><time>2026-05-06T14:19:14Z</time></trkpt><trkpt lat="43.16736453311352" lon="0.4188571108163635"><ele>496.0</ele><time>2026-05-06T14:19:18Z</time></trkpt><trkpt lat="43.16728550601266" lon="0.41882918864550345"><ele>496.0</ele><time>2026-05-06T14:19:21Z</time></trkpt><trkpt lat="43.1672270540627" lon="0.4187855642598895"><ele>496.00000000000006</ele><time>2026-05-06T14:19:23.999Z</time></trkpt><trkpt lat="43.16715889746538" lon="0.41875786124051834"><ele>496.0</ele><time>2026-05-06T14:19:27Z</time></trkpt><trkpt lat="43.167077783431814" lon="0.41871679102687104"><ele>497.28571428571433</ele><time>2026-05-06T14:19:31Z</time></trkpt><trkpt lat="43.1670144573734" lon="0.41869455760402113"><ele>498.5714285714286</ele><time>2026-05-06T14:19:34Z</time></trkpt><trkpt lat="43.16693756116991" lon="0.41865106342082714"><ele>499.8571428571429</ele><time>2026-05-06T14:19:38Z</time></trkpt><trkpt lat="43.16686766133281" lon="0.4186243954872248"><ele>501.1428571428571</ele><time>2026-05-06T14:19:41Z</time></trkpt><trkpt lat="43.16679409543623" lon="0.41857329313041297"><ele>502.4285714285714</ele><time>2026-05-06T14:19:45Z</time></trkpt><trkpt lat="43.16673246364069" lon="0.4185539872028962"><ele>503.71428571428567</ele><time>2026-05-06T14:19:48Z</time></trkpt><trkpt lat="43.16665969665053" lon="0.4185120665190068"><ele>505.0</ele><time>2026-05-06T14:19:52Z</time></trkpt><trkpt lat="43.166597584454394" lon="0.4184642184870177"><ele>505.0</ele><time>2026-05-06T14:19:56Z</time></trkpt><trkpt lat="43.166535153629106" lon="0.4184328047651214"><ele>504.99999999999994</ele><time>2026-05-06T14:20:00Z</time></trkpt><trkpt lat="43.16647514967697" lon="0.4183980793017113"><ele>505.0</ele><time>2026-05-06T14:20:03Z</time></trkpt><trkpt lat="43.166405628669125" lon="0.4183743768747991"><ele>505.0</ele><time>2026-05-06T14:20:07Z</time></trkpt><trkpt lat="43.166331608655945" lon="0.4183292474644764"><ele>504.99999999999994</ele><time>2026-05-06T14:20:11Z</time></trkpt><trkpt lat="43.166254527799964" lon="0.41829631885841007"><ele>505.0</ele><time>2026-05-06T14:20:15Z</time></trkpt><trkpt lat="43.16618201345265" lon="0.4182673710140663"><ele>505.0</ele><time>2026-05-06T14:20:19Z</time></trkpt><trkpt lat="43.166114543242394" lon="0.4182273696759983"><ele>505.71428571428567</ele><time>2026-05-06T14:20:23Z</time></trkpt><trkpt lat="43.166043501884204" lon="0.41818129206597854"><ele>506.4285714285714</ele><time>2026-05-06T14:20:27Z</time></trkpt><trkpt lat="43.16597417869788" lon="0.4181493387273101"><ele>507.1428571428571</ele><time>2026-05-06T14:20:31Z</time></trkpt><trkpt lat="43.16589919012389" lon="0.4181084603671228"><ele>507.8571428571429</ele><time>2026-05-06T14:20:35Z</time></trkpt><trkpt lat="43.165821147810405" lon="0.4180846628269357"><ele>508.5714285714286</ele><time>2026-05-06T14:20:40Z</time></trkpt><trkpt lat="43.165755476861264" lon="0.4180652201510009"><ele>509.28571428571433</ele><time>2026-05-06T14:20:45Z</time></trkpt><trkpt lat="43.16568989396453" lon="0.41806901738175345"><ele>510.0</ele><time>2026-05-06T14:20:49Z</time></trkpt><trkpt lat="43.16562366602577" lon="0.4180692481160688"><ele>510.5714285714286</ele><time>2026-05-06T14:20:52Z</time></trkpt><trkpt lat="43.165559080425254" lon="0.418064301038283"><ele>511.1428571428572</ele><time>2026-05-06T14:20:55Z</time></trkpt><trkpt lat="43.16549672989839" lon="0.41804313025051887"><ele>511.7142857142857</ele><time>2026-05-06T14:20:58Z</time></trkpt><trkpt lat="43.165419894869785" lon="0.41802770621276536"><ele>512.2857142857143</ele><time>2026-05-06T14:21:02Z</time></trkpt><trkpt lat="43.16533986097416" lon="0.4180163322382545"><ele>512.8571428571429</ele><time>2026-05-06T14:21:06Z</time></trkpt><trkpt lat="43.1652688941538" lon="0.41798653712121214"><ele>513.4285714285714</ele><time>2026-05-06T14:21:10Z</time></trkpt><trkpt lat="43.165196261868196" lon="0.4179513588580761"><ele>514.0</ele><time>2026-05-06T14:21:14Z</time></trkpt><trkpt lat="43.16513320708124" lon="0.41792920655057014"><ele>514.2857142857142</ele><time>2026-05-06T14:21:17Z</time></trkpt><trkpt lat="43.165058521234045" lon="0.41789205479755603"><ele>514.5714285714286</ele><time>2026-05-06T14:21:21Z</time></trkpt><trkpt lat="43.16499324861426" lon="0.41787006654567566"><ele>514.8571428571429</ele><time>2026-05-06T14:21:25Z</time></trkpt><trkpt lat="43.16492841445418" lon="0.41783442022658823"><ele>515.1428571428571</ele><time>2026-05-06T14:21:29Z</time></trkpt><trkpt lat="43.164882341488926" lon="0.4177752640821987"><ele>515.4285714285714</ele><time>2026-05-06T14:21:33Z</time></trkpt><trkpt lat="43.164847996455606" lon="0.4176933579529575"><ele>515.7142857142857</ele><time>2026-05-06T14:21:37Z</time></trkpt><trkpt lat="43.1648541464745" lon="0.4175956743662774"><ele>516.0</ele><time>2026-05-06T14:21:41Z</time></trkpt><trkpt lat="43.164862939454544" lon="0.41748948275523473"><ele>516.0</ele><time>2026-05-06T14:21:45Z</time></trkpt><trkpt lat="43.16484253944679" lon="0.4173895617556495"><ele>516.0</ele><time>2026-05-06T14:21:49Z</time></trkpt><trkpt lat="43.164827465573474" lon="0.4172876677109929"><ele>516.0</ele><time>2026-05-06T14:21:53Z</time></trkpt><trkpt lat="43.16481367581644" lon="0.41717363604154417"><ele>516.0</ele><time>2026-05-06T14:21:57Z</time></trkpt><trkpt lat="43.164796861647865" lon="0.41706565116154115"><ele>516.0</ele><time>2026-05-06T14:22:01Z</time></trkpt><trkpt lat="43.164791876897695" lon="0.41697485652881056"><ele>516.0</ele><time>2026-05-06T14:22:04Z</time></trkpt><trkpt lat="43.16478811732528" lon="0.41687134636955486"><ele>517.1428571428571</ele><time>2026-05-06T14:22:08Z</time></trkpt><trkpt lat="43.1647934589093" lon="0.41676838352755313"><ele>518.2857142857142</ele><time>2026-05-06T14:22:13Z</time></trkpt><trkpt lat="43.16479702959534" lon="0.4166793164365661"><ele>519.4285714285714</ele><time>2026-05-06T14:22:16Z</time></trkpt><trkpt lat="43.16479362619215" lon="0.4165762326752067"><ele>520.5714285714286</ele><time>2026-05-06T14:22:20Z</time></trkpt><trkpt lat="43.164805146399246" lon="0.4164802788168616"><ele>521.7142857142858</ele><time>2026-05-06T14:22:24Z</time></trkpt><trkpt lat="43.164824129890015" lon="0.41638239419435485"><ele>522.8571428571429</ele><time>2026-05-06T14:22:28Z</time></trkpt><trkpt lat="43.164839307570844" lon="0.41627845124782037"><ele>524.0</ele><time>2026-05-06T14:22:32Z</time></trkpt><trkpt lat="43.16484331792483" lon="0.4161812999440767"><ele>525.4285714285714</ele><time>2026-05-06T14:22:35Z</time></trkpt><trkpt lat="43.164874358467834" lon="0.4160941610408998"><ele>526.8571428571429</ele><time>2026-05-06T14:22:39Z</time></trkpt><trkpt lat="43.16489760923895" lon="0.41600985951439473"><ele>528.2857142857143</ele><time>2026-05-06T14:22:43Z</time></trkpt><trkpt lat="43.16489935475054" lon="0.41590171350004845"><ele>529.7142857142858</ele><time>2026-05-06T14:22:47Z</time></trkpt><trkpt lat="43.1649354527942" lon="0.4158158440120476"><ele>531.1428571428571</ele><time>2026-05-06T14:22:51Z</time></trkpt><trkpt lat="43.16494078842208" lon="0.41572828268593065"><ele>532.5714285714287</ele><time>2026-05-06T14:22:55Z</time></trkpt><trkpt lat="43.1649168839169" lon="0.41563878952062794"><ele>534.0</ele><time>2026-05-06T14:22:59Z</time></trkpt><trkpt lat="43.164844076762556" lon="0.4155929988933382"><ele>534.0</ele><time>2026-05-06T14:23:03Z</time></trkpt><trkpt lat="43.16477503694455" lon="0.41554330640109"><ele>534.0</ele><time>2026-05-06T14:23:07Z</time></trkpt><trkpt lat="43.16470586326746" lon="0.41548879590022825"><ele>534.0</ele><time>2026-05-06T14:23:11Z</time></trkpt><trkpt lat="43.16463158590481" lon="0.4154497467414287"><ele>534.0</ele><time>2026-05-06T14:23:15Z</time></trkpt><trkpt lat="43.16457425778669" lon="0.4154124835739085"><ele>534.0</ele><time>2026-05-06T14:23:18Z</time></trkpt><trkpt lat="43.16450639325024" lon="0.41537537752458703"><ele>534.0</ele><time>2026-05-06T14:23:21Z</time></trkpt><trkpt lat="43.16443276997258" lon="0.4153366084329234"><ele>535.0</ele><time>2026-05-06T14:23:24Z</time></trkpt><trkpt lat="43.1643469013837" lon="0.41531206087206474"><ele>536.0</ele><time>2026-05-06T14:23:27Z</time></trkpt><trkpt lat="43.16425681385265" lon="0.4152874999029982"><ele>537.0</ele><time>2026-05-06T14:23:30Z</time></trkpt><trkpt lat="43.16417114265021" lon="0.4152631678865193"><ele>538.0</ele><time>2026-05-06T14:23:33Z</time></trkpt><trkpt lat="43.16405756562482" lon="0.4152385154669768"><ele>539.0</ele><time>2026-05-06T14:23:36Z</time></trkpt><trkpt lat="43.1639652167552" lon="0.4152209843259728"><ele>539.0</ele><time>2026-05-06T14:23:39Z</time></trkpt><trkpt lat="43.163877644084344" lon="0.41517917075465793"><ele>539.0</ele><time>2026-05-06T14:23:42Z</time></trkpt><trkpt lat="43.163812459346325" lon="0.4151298247894725"><ele>539.0</ele><time>2026-05-06T14:23:44Z</time></trkpt><trkpt lat="43.163755028571416" lon="0.41507696392800303"><ele>539.0</ele><time>2026-05-06T14:23:46Z</time></trkpt><trkpt lat="43.16368996636641" lon="0.4150214769706352"><ele>539.0</ele><time>2026-05-06T14:23:48Z</time></trkpt><trkpt lat="43.16362386735778" lon="0.41496590792500904"><ele>539.0</ele><time>2026-05-06T14:23:50Z</time></trkpt><trkpt lat="43.163558290382525" lon="0.4149153289548948"><ele>539.0</ele><time>2026-05-06T14:23:52Z</time></trkpt><trkpt lat="43.16349066041922" lon="0.41486544430245953"><ele>539.0</ele><time>2026-05-06T14:23:54Z</time></trkpt><trkpt lat="43.16342657009998" lon="0.41481998454884117"><ele>539.0</ele><time>2026-05-06T14:23:56Z</time></trkpt><trkpt lat="43.163354733319636" lon="0.4147846480381322"><ele>539.0</ele><time>2026-05-06T14:23:58Z</time></trkpt><trkpt lat="43.163279398340585" lon="0.4147629624035272"><ele>539.0</ele><time>2026-05-06T14:24:00Z</time></trkpt><trkpt lat="43.163201266920495" lon="0.41475047439438123"><ele>539.0</ele><time>2026-05-06T14:24:02Z</time></trkpt><trkpt lat="43.16312448707882" lon="0.4147473322278094"><ele>539.0</ele><time>2026-05-06T14:24:04Z</time></trkpt><trkpt lat="43.16304546839638" lon="0.41473235326341645"><ele>539.0</ele><time>2026-05-06T14:24:06Z</time></trkpt><trkpt lat="43.1629771556917" lon="0.4146922420513399"><ele>539.0</ele><time>2026-05-06T14:24:08Z</time></trkpt><trkpt lat="43.162918098307934" lon="0.41463335391781886"><ele>539.0</ele><time>2026-05-06T14:24:10Z</time></trkpt><trkpt lat="43.162881008972285" lon="0.41453501025974104"><ele>539.0</ele><time>2026-05-06T14:24:14Z</time></trkpt><trkpt lat="43.16284165927323" lon="0.41444401590097585"><ele>539.0</ele><time>2026-05-06T14:24:17Z</time></trkpt><trkpt lat="43.16281301950243" lon="0.41435189378169274"><ele>539.1666666666666</ele><time>2026-05-06T14:24:20Z</time></trkpt><trkpt lat="43.16277789953501" lon="0.41426091899222517"><ele>539.3333333333333</ele><time>2026-05-06T14:24:23Z</time></trkpt><trkpt lat="43.16274223008156" lon="0.41418070469508605"><ele>539.5</ele><time>2026-05-06T14:24:26Z</time></trkpt><trkpt lat="43.16271380980789" lon="0.41408884129425144"><ele>539.6666666666666</ele><time>2026-05-06T14:24:29Z</time></trkpt><trkpt lat="43.16267688052458" lon="0.41401569755594536"><ele>539.8333333333334</ele><time>2026-05-06T14:24:31Z</time></trkpt><trkpt lat="43.1626401397196" lon="0.41392141920056263"><ele>540.0</ele><time>2026-05-06T14:24:34Z</time></trkpt><trkpt lat="43.16258922919681" lon="0.413815704397444"><ele>540.3333333333334</ele><time>2026-05-06T14:24:37Z</time></trkpt><trkpt lat="43.162565860716995" lon="0.41373189908622743"><ele>540.6666666666666</ele><time>2026-05-06T14:24:39Z</time></trkpt><trkpt lat="43.162524918101944" lon="0.41363185059772223"><ele>541.0</ele><time>2026-05-06T14:24:42Z</time></trkpt><trkpt lat="43.16249440582075" lon="0.41355570915264317"><ele>541.3333333333333</ele><time>2026-05-06T14:24:44Z</time></trkpt><trkpt lat="43.16244223376748" lon="0.413459443771756"><ele>541.6666666666666</ele><time>2026-05-06T14:24:47Z</time></trkpt><trkpt lat="43.1623898191099" lon="0.413381686984488"><ele>542.0</ele><time>2026-05-06T14:24:49Z</time></trkpt><trkpt lat="43.1623387944554" lon="0.4132956057440306"><ele>542.1666666666666</ele><time>2026-05-06T14:24:51Z</time></trkpt><trkpt lat="43.16230078377159" lon="0.4132236816276379"><ele>542.3333333333333</ele><time>2026-05-06T14:24:53Z</time></trkpt><trkpt lat="43.162242498970656" lon="0.4131238691176328"><ele>542.5</ele><time>2026-05-06T14:24:56Z</time></trkpt><trkpt lat="43.162198706921664" lon="0.41302166130968004"><ele>542.6666666666666</ele><time>2026-05-06T14:24:59Z</time></trkpt><trkpt lat="43.1621525469584" lon="0.412939298237345"><ele>542.8333333333334</ele><time>2026-05-06T14:25:01Z</time></trkpt><trkpt lat="43.16210222271734" lon="0.41285537881792955"><ele>543.0</ele><time>2026-05-06T14:25:04Z</time></trkpt><trkpt lat="43.162051162752576" lon="0.41276502227904305"><ele>543.4285714285714</ele><time>2026-05-06T14:25:06Z</time></trkpt><trkpt lat="43.162012018629724" lon="0.4126966665082316"><ele>543.8571428571429</ele><time>2026-05-06T14:25:08Z</time></trkpt><trkpt lat="43.16197204892107" lon="0.41262037789058986"><ele>544.2857142857142</ele><time>2026-05-06T14:25:10Z</time></trkpt><trkpt lat="43.161923201776574" lon="0.4125494039810882"><ele>544.7142857142858</ele><time>2026-05-06T14:25:12Z</time></trkpt><trkpt lat="43.16188495208807" lon="0.41246872676001"><ele>545.1428571428571</ele><time>2026-05-06T14:25:14Z</time></trkpt><trkpt lat="43.1618503521826" lon="0.4123925453163193"><ele>545.5714285714286</ele><time>2026-05-06T14:25:16Z</time></trkpt><trkpt lat="43.16182167755317" lon="0.41231226907789603"><ele>546.0</ele><time>2026-05-06T14:25:19Z</time></trkpt><trkpt lat="43.16177586992223" lon="0.41220987351566507"><ele>546.6</ele><time>2026-05-06T14:25:22Z</time></trkpt><trkpt lat="43.16172273795063" lon="0.4120873356109181"><ele>547.2</ele><time>2026-05-06T14:25:25Z</time></trkpt><trkpt lat="43.16167237165755" lon="0.4119912100272255"><ele>547.8</ele><time>2026-05-06T14:25:28Z</time></trkpt><trkpt lat="43.161616611546265" lon="0.4118850296344929"><ele>548.4</ele><time>2026-05-06T14:25:31Z</time></trkpt><trkpt lat="43.161561823555886" lon="0.41177344426537993"><ele>549.0</ele><time>2026-05-06T14:25:34Z</time></trkpt><trkpt lat="43.1615170355796" lon="0.4116720596005777"><ele>549.0</ele><time>2026-05-06T14:25:37Z</time></trkpt><trkpt lat="43.161484795274845" lon="0.41158949361994035"><ele>549.0</ele><time>2026-05-06T14:25:39Z</time></trkpt><trkpt lat="43.16142816006689" lon="0.41150161209967934"><ele>549.0</ele><time>2026-05-06T14:25:42Z</time></trkpt><trkpt lat="43.16138214723029" lon="0.41142651550427584"><ele>549.0</ele><time>2026-05-06T14:25:44Z</time></trkpt><trkpt lat="43.16133760055558" lon="0.41134912227204595"><ele>549.0</ele><time>2026-05-06T14:25:47Z</time></trkpt><trkpt lat="43.16129729478023" lon="0.41128256073217506"><ele>549.0</ele><time>2026-05-06T14:25:49Z</time></trkpt><trkpt lat="43.1612599765202" lon="0.41120639624767197"><ele>549.0</ele><time>2026-05-06T14:25:51Z</time></trkpt><trkpt lat="43.16121340818318" lon="0.41109887512395965"><ele>549.6666666666666</ele><time>2026-05-06T14:25:54Z</time></trkpt><trkpt lat="43.16116542415812" lon="0.41100274522052443"><ele>550.3333333333334</ele><time>2026-05-06T14:25:56Z</time></trkpt><trkpt lat="43.161108987884376" lon="0.41092979232815224"><ele>551.0</ele><time>2026-05-06T14:25:58Z</time></trkpt><trkpt lat="43.16105938386107" lon="0.41085112489153647"><ele>551.6666666666667</ele><time>2026-05-06T14:26:00Z</time></trkpt><trkpt lat="43.16101980731755" lon="0.4107831899613324"><ele>552.3333333333334</ele><time>2026-05-06T14:26:02Z</time></trkpt><trkpt lat="43.16098090712279" lon="0.4107032433064372"><ele>553.0</ele><time>2026-05-06T14:26:04Z</time></trkpt><trkpt lat="43.160934573041004" lon="0.4105886798136703"><ele>553.0</ele><time>2026-05-06T14:26:07Z</time></trkpt><trkpt lat="43.16089832305087" lon="0.4105136891165819"><ele>553.0</ele><time>2026-05-06T14:26:09Z</time></trkpt><trkpt lat="43.16085437386128" lon="0.41043958465863845"><ele>553.0</ele><time>2026-05-06T14:26:11Z</time></trkpt><trkpt lat="43.1608126886975" lon="0.41034529452328516"><ele>553.0</ele><time>2026-05-06T14:26:14Z</time></trkpt><trkpt lat="43.160764288637814" lon="0.41024494419090063"><ele>553.0</ele><time>2026-05-06T14:26:17Z</time></trkpt><trkpt lat="43.16071210010696" lon="0.41014954065436693"><ele>553.0</ele><time>2026-05-06T14:26:20Z</time></trkpt><trkpt lat="43.16065795288559" lon="0.41005750314870537"><ele>553.3333333333334</ele><time>2026-05-06T14:26:23Z</time></trkpt><trkpt lat="43.16060685379848" lon="0.40996081953698754"><ele>553.6666666666667</ele><time>2026-05-06T14:26:26Z</time></trkpt><trkpt lat="43.16056086968667" lon="0.4098937884619951"><ele>554.0</ele><time>2026-05-06T14:26:28Z</time></trkpt><trkpt lat="43.160503887651" lon="0.409813873816693"><ele>554.3333333333334</ele><time>2026-05-06T14:26:30Z</time></trkpt><trkpt lat="43.16045120342348" lon="0.40972612094528277"><ele>554.6666666666666</ele><time>2026-05-06T14:26:33Z</time></trkpt><trkpt lat="43.16039827946874" lon="0.4096275601894879"><ele>555.0</ele><time>2026-05-06T14:26:36Z</time></trkpt><trkpt lat="43.16036357442715" lon="0.4095504224073829"><ele>555.0000000000001</ele><time>2026-05-06T14:26:39Z</time></trkpt><trkpt lat="43.160330997494796" lon="0.40944886496572225"><ele>555.0</ele><time>2026-05-06T14:26:42Z</time></trkpt><trkpt lat="43.16030296040115" lon="0.4093673998771585"><ele>555.0</ele><time>2026-05-06T14:26:44Z</time></trkpt><trkpt lat="43.160269674806116" lon="0.4092607526600522"><ele>555.0</ele><time>2026-05-06T14:26:47Z</time></trkpt><trkpt lat="43.16020120139385" lon="0.4092424817788947"><ele>555.0</ele><time>2026-05-06T14:33:27Z</time></trkpt><trkpt lat="43.16019064961843" lon="0.409327722520626"><ele>555.0000000000001</ele><time>2026-05-06T14:35:23Z</time></trkpt><trkpt lat="43.16022647114803" lon="0.40940852814994644"><ele>555.0</ele><time>2026-05-06T14:35:26Z</time></trkpt><trkpt lat="43.16026567317763" lon="0.4095025880040035"><ele>555.0</ele><time>2026-05-06T14:35:29Z</time></trkpt><trkpt lat="43.16031794119288" lon="0.40960020959243326"><ele>555.0</ele><time>2026-05-06T14:35:32Z</time></trkpt><trkpt lat="43.160365322448506" lon="0.4097012825980831"><ele>555.0</ele><time>2026-05-06T14:35:35Z</time></trkpt><trkpt lat="43.16038292666663" lon="0.4097913410410356"><ele>555.0</ele><time>2026-05-06T14:35:37Z</time></trkpt><trkpt lat="43.160450624354155" lon="0.4098733054765876"><ele>555.0</ele><time>2026-05-06T14:35:39Z</time></trkpt><trkpt lat="43.160508271677344" lon="0.40996327232562024"><ele>555.0</ele><time>2026-05-06T14:35:41Z</time></trkpt><trkpt lat="43.160568702710535" lon="0.4100629160767529"><ele>555.2</ele><time>2026-05-06T14:35:43Z</time></trkpt><trkpt lat="43.16063062119941" lon="0.41017264355053934"><ele>555.4</ele><time>2026-05-06T14:35:45Z</time></trkpt><trkpt lat="43.16069522361834" lon="0.4102907723762487"><ele>555.6</ele><time>2026-05-06T14:35:47Z</time></trkpt><trkpt lat="43.16075912003915" lon="0.41040953215197695"><ele>555.8</ele><time>2026-05-06T14:35:49Z</time></trkpt><trkpt lat="43.160818532013444" lon="0.41053765945504744"><ele>556.0</ele><time>2026-05-06T14:35:51Z</time></trkpt><trkpt lat="43.16089418793008" lon="0.4106696218347488"><ele>555.25</ele><time>2026-05-06T14:35:53Z</time></trkpt><trkpt lat="43.160957060688176" lon="0.41080424092858703"><ele>554.5</ele><time>2026-05-06T14:35:55Z</time></trkpt><trkpt lat="43.1610214218763" lon="0.4109404734278411"><ele>553.75</ele><time>2026-05-06T14:35:57Z</time></trkpt><trkpt lat="43.16109515101558" lon="0.41106666879490394"><ele>553.0</ele><time>2026-05-06T14:35:59Z</time></trkpt><trkpt lat="43.161167815642514" lon="0.41120787247036217"><ele>553.0</ele><time>2026-05-06T14:36:01Z</time></trkpt><trkpt lat="43.16120524308305" lon="0.4112813997923205"><ele>553.0</ele><time>2026-05-06T14:36:02Z</time></trkpt><trkpt lat="43.16124293248155" lon="0.4113588620738481"><ele>553.0</ele><time>2026-05-06T14:36:03Z</time></trkpt><trkpt lat="43.161287966922835" lon="0.4114304189984647"><ele>553.0</ele><time>2026-05-06T14:36:04Z</time></trkpt><trkpt lat="43.16132857974708" lon="0.41151172149603626"><ele>553.0</ele><time>2026-05-06T14:36:05Z</time></trkpt><trkpt lat="43.16136836037226" lon="0.41158904322291534"><ele>553.0</ele><time>2026-05-06T14:36:06Z</time></trkpt><trkpt lat="43.16140738076706" lon="0.41166574640807846"><ele>553.0</ele><time>2026-05-06T14:36:07Z</time></trkpt><trkpt lat="43.16144734131876" lon="0.41175552081097844"><ele>552.3333333333334</ele><time>2026-05-06T14:36:08Z</time></trkpt><trkpt lat="43.16148871515591" lon="0.4118462133509077"><ele>551.6666666666667</ele><time>2026-05-06T14:36:09Z</time></trkpt><trkpt lat="43.16151835351156" lon="0.41194831358845385"><ele>551.0</ele><time>2026-05-06T14:36:10Z</time></trkpt><trkpt lat="43.16156309966491" lon="0.41203624573558695"><ele>550.3333333333334</ele><time>2026-05-06T14:36:11Z</time></trkpt><trkpt lat="43.16160764887611" lon="0.41211855975277517"><ele>549.6666666666666</ele><time>2026-05-06T14:36:12Z</time></trkpt><trkpt lat="43.161651621163784" lon="0.41220998555921234"><ele>549.0</ele><time>2026-05-06T14:36:13.001Z</time></trkpt><trkpt lat="43.161697209031125" lon="0.4122969141229032"><ele>548.5</ele><time>2026-05-06T14:36:14.001Z</time></trkpt><trkpt lat="43.16174362270426" lon="0.4123848323756473"><ele>548.0</ele><time>2026-05-06T14:36:15.001Z</time></trkpt><trkpt lat="43.161789535635506" lon="0.4124706461866766"><ele>547.5</ele><time>2026-05-06T14:36:16.001Z</time></trkpt><trkpt lat="43.1618387827305" lon="0.4125556223466489"><ele>547.0</ele><time>2026-05-06T14:36:17.001Z</time></trkpt><trkpt lat="43.16188900516173" lon="0.4126378181649316"><ele>546.5</ele><time>2026-05-06T14:36:18.001Z</time></trkpt><trkpt lat="43.161936187166596" lon="0.4127177544221639"><ele>546.0</ele><time>2026-05-06T14:36:19.001Z</time></trkpt><trkpt lat="43.161976601445005" lon="0.4128011380307455"><ele>546.0</ele><time>2026-05-06T14:36:20.001Z</time></trkpt><trkpt lat="43.16202253672751" lon="0.41288116879061676"><ele>546.0</ele><time>2026-05-06T14:36:21.001Z</time></trkpt><trkpt lat="43.162066046909686" lon="0.4129635237567672"><ele>546.0</ele><time>2026-05-06T14:36:22.001Z</time></trkpt><trkpt lat="43.162104976902974" lon="0.4130522172692917"><ele>546.0</ele><time>2026-05-06T14:36:23.001Z</time></trkpt><trkpt lat="43.16214995498102" lon="0.413144138429129"><ele>546.0</ele><time>2026-05-06T14:36:24.001Z</time></trkpt><trkpt lat="43.16219704480889" lon="0.4132411282238444"><ele>546.0</ele><time>2026-05-06T14:36:25.001Z</time></trkpt><trkpt lat="43.16224816665829" lon="0.4133386389246254"><ele>545.4</ele><time>2026-05-06T14:36:26.001Z</time></trkpt><trkpt lat="43.16229491976601" lon="0.4134436758838236"><ele>544.8</ele><time>2026-05-06T14:36:27.001Z</time></trkpt><trkpt lat="43.16234946702948" lon="0.4135455059363557"><ele>544.1999999999999</ele><time>2026-05-06T14:36:28Z</time></trkpt><trkpt lat="43.16240324666724" lon="0.4136451116585677"><ele>543.6</ele><time>2026-05-06T14:36:29Z</time></trkpt><trkpt lat="43.162457556127876" lon="0.41375059816555976"><ele>543.0</ele><time>2026-05-06T14:36:30Z</time></trkpt><trkpt lat="43.162512306091244" lon="0.41385103754191443"><ele>542.5</ele><time>2026-05-06T14:36:31Z</time></trkpt><trkpt lat="43.162553262920426" lon="0.4139579265841593"><ele>542.0</ele><time>2026-05-06T14:36:32Z</time></trkpt><trkpt lat="43.16259414080932" lon="0.4140667511501506"><ele>541.5</ele><time>2026-05-06T14:36:33Z</time></trkpt><trkpt lat="43.16263339379464" lon="0.4141753417605525"><ele>541.0</ele><time>2026-05-06T14:36:34Z</time></trkpt><trkpt lat="43.162663192036696" lon="0.4142691740000202"><ele>540.5</ele><time>2026-05-06T14:36:35Z</time></trkpt><trkpt lat="43.162710524828576" lon="0.414399907624399"><ele>540.0</ele><time>2026-05-06T14:36:37Z</time></trkpt><trkpt lat="43.16274546829564" lon="0.41449477656539135"><ele>540.0</ele><time>2026-05-06T14:36:39Z</time></trkpt><trkpt lat="43.1627891738318" lon="0.4145946949642268"><ele>540.0</ele><time>2026-05-06T14:36:42Z</time></trkpt><trkpt lat="43.16281392214817" lon="0.4146881355336231"><ele>540.0</ele><time>2026-05-06T14:36:46Z</time></trkpt><trkpt lat="43.16284471494097" lon="0.4147755907309844"><ele>540.0</ele><time>2026-05-06T14:36:49Z</time></trkpt><trkpt lat="43.1629110534593" lon="0.4148030153704586"><ele>540.0</ele><time>2026-05-06T14:36:51Z</time></trkpt><trkpt lat="43.162989933093925" lon="0.4147989668139747"><ele>540.0</ele><time>2026-05-06T14:36:54Z</time></trkpt><trkpt lat="43.16306351497401" lon="0.41480530269526233"><ele>539.8571428571429</ele><time>2026-05-06T14:36:57Z</time></trkpt><trkpt lat="43.163147109414204" lon="0.41480290971452904"><ele>539.7142857142857</ele><time>2026-05-06T14:37:00Z</time></trkpt><trkpt lat="43.16322383939093" lon="0.4147973703679769"><ele>539.5714285714286</ele><time>2026-05-06T14:37:03Z</time></trkpt><trkpt lat="43.16329526720721" lon="0.41482724238714175"><ele>539.4285714285714</ele><time>2026-05-06T14:37:06Z</time></trkpt><trkpt lat="43.163350532970654" lon="0.4148732573372217"><ele>539.2857142857142</ele><time>2026-05-06T14:37:08Z</time></trkpt><trkpt lat="43.16339774427476" lon="0.4149333639844635"><ele>539.1428571428571</ele><time>2026-05-06T14:37:10Z</time></trkpt><trkpt lat="43.163457310533104" lon="0.41498162135620237"><ele>539.0</ele><time>2026-05-06T14:37:12Z</time></trkpt><trkpt lat="43.16351978893072" lon="0.415025899932029"><ele>539.0</ele><time>2026-05-06T14:37:14Z</time></trkpt><trkpt lat="43.16358029460504" lon="0.4150622551628743"><ele>539.0</ele><time>2026-05-06T14:37:16Z</time></trkpt><trkpt lat="43.16363758331379" lon="0.415024612011204"><ele>539.0</ele><time>2026-05-06T14:37:18Z</time></trkpt><trkpt lat="43.16362110554555" lon="0.41491907576480136"><ele>539.0</ele><time>2026-05-06T14:37:21Z</time></trkpt><trkpt lat="43.16355511309526" lon="0.4149011700284282"><ele>539.0</ele><time>2026-05-06T14:37:24Z</time></trkpt><trkpt lat="43.163471528128824" lon="0.41485957808527235"><ele>539.0</ele><time>2026-05-06T14:37:27Z</time></trkpt><trkpt lat="43.16339086313007" lon="0.41480531165470336"><ele>539.0</ele><time>2026-05-06T14:37:30Z</time></trkpt><trkpt lat="43.16332657495142" lon="0.414776411777176"><ele>539.0</ele><time>2026-05-06T14:37:33Z</time></trkpt><trkpt lat="43.16325299560118" lon="0.41475322938686454"><ele>539.0</ele><time>2026-05-06T14:37:36Z</time></trkpt><trkpt lat="43.16317841707174" lon="0.41474686897410756"><ele>539.0</ele><time>2026-05-06T14:37:39Z</time></trkpt><trkpt lat="43.16308736809277" lon="0.4147444173656984"><ele>539.0</ele><time>2026-05-06T14:37:41Z</time></trkpt><trkpt lat="43.16301310798138" lon="0.41474042887855705"><ele>539.0</ele><time>2026-05-06T14:37:43Z</time></trkpt><trkpt lat="43.162948724903245" lon="0.4147507333867091"><ele>539.0</ele><time>2026-05-06T14:37:45Z</time></trkpt><trkpt lat="43.162854685606945" lon="0.4147468601237696"><ele>539.0</ele><time>2026-05-06T14:37:48Z</time></trkpt><trkpt lat="43.16276815514224" lon="0.41477466461475554"><ele>539.0</ele><time>2026-05-06T14:37:51Z</time></trkpt><trkpt lat="43.16270696450505" lon="0.4148193659167883"><ele>539.0</ele><time>2026-05-06T14:37:53Z</time></trkpt><trkpt lat="43.16264040424091" lon="0.4148463555390633"><ele>539.0</ele><time>2026-05-06T14:37:55Z</time></trkpt><trkpt lat="43.16257776817476" lon="0.41486553816204513"><ele>539.0</ele><time>2026-05-06T14:37:57Z</time></trkpt><trkpt lat="43.162513990982646" lon="0.41487845290949205"><ele>539.0</ele><time>2026-05-06T14:37:59Z</time></trkpt><trkpt lat="43.1624505665901" lon="0.414894526998041"><ele>539.0</ele><time>2026-05-06T14:38:01Z</time></trkpt><trkpt lat="43.16238224321465" lon="0.4149033671109223"><ele>539.0</ele><time>2026-05-06T14:38:03Z</time></trkpt><trkpt lat="43.162303666975404" lon="0.4149270039413292"><ele>538.0</ele><time>2026-05-06T14:38:06Z</time></trkpt></trkseg></trk></gpx>